<?xml version='1.0' encoding='UTF-8'?><gpx version="1.1" creator="JPX - https://github.com/jenetics/jpx" xmlns="http://www.topografix.com/GPX/1/1"><trk><trkseg><trkpt lat="42.765637361793786" lon="11.101980579945359"><ele>12.0</ele><time>2026-03-22T09:25:35Z</time></trkpt><trkpt lat="42.76565386307126" lon="11.102132294076187"><ele>12.0</ele><time>2026-03-22T09:25:37Z</time></trkpt><trkpt lat="42.765690615984525" lon="11.102287683302894"><ele>12.0</ele><time>2026-03-22T09:25:39Z</time></trkpt><trkpt lat="42.76571632795572" lon="11.102382570516173"><ele>12.0</ele><time>2026-03-22T09:25:41Z</time></trkpt><trkpt lat="42.765866724219926" lon="11.102518478468923"><ele>12.0</ele><time>2026-03-22T09:25:53Z</time></trkpt><trkpt lat="42.76595981324756" lon="11.102484245353848"><ele>12.0</ele><time>2026-03-22T09:25:53.999Z</time></trkpt><trkpt lat="42.76602528439856" lon="11.102469929061305"><ele>12.0</ele><time>2026-03-22T09:25:54.999Z</time></trkpt><trkpt lat="42.76612100201394" lon="11.102440462583724"><ele>12.0</ele><time>2026-03-22T09:25:55.999Z</time></trkpt><trkpt lat="42.76622738236665" lon="11.102407062343124"><ele>12.0</ele><time>2026-03-22T09:25:56.999Z</time></trkpt><trkpt lat="42.76630311626544" lon="11.10238320945263"><ele>12.0</ele><time>2026-03-22T09:25:57.999Z</time></trkpt><trkpt lat="42.766391348413364" lon="11.102355420162198"><ele>12.0</ele><time>2026-03-22T09:25:58.999Z</time></trkpt><trkpt lat="42.76646420117369" lon="11.10230552327817"><ele>12.0</ele><time>2026-03-22T09:25:59.999Z</time></trkpt><trkpt lat="42.766547843092134" lon="11.102277126922983"><ele>12.0</ele><time>2026-03-22T09:26:00.999Z</time></trkpt><trkpt lat="42.76663398255556" lon="11.102246227744482"><ele>12.0</ele><time>2026-03-22T09:26:01.999Z</time></trkpt><trkpt lat="42.76672032254641" lon="11.102223624611309"><ele>12.0</ele><time>2026-03-22T09:26:02.999Z</time></trkpt><trkpt lat="42.76680443238481" lon="11.102198703716525"><ele>12.0</ele><time>2026-03-22T09:26:03.999Z</time></trkpt><trkpt lat="42.76688086182812" lon="11.102175439816678"><ele>12.0</ele><time>2026-03-22T09:26:04.999Z</time></trkpt><trkpt lat="42.766944332946125" lon="11.102153153915914"><ele>12.0</ele><time>2026-03-22T09:26:05.999Z</time></trkpt><trkpt lat="42.76700957960773" lon="11.102132924924605"><ele>12.0</ele><time>2026-03-22T09:26:06.999Z</time></trkpt><trkpt lat="42.767071258750654" lon="11.102112148891178"><ele>12.0</ele><time>2026-03-22T09:26:07.999Z</time></trkpt><trkpt lat="42.76720419368246" lon="11.102076907343386"><ele>12.0</ele><time>2026-03-22T09:26:09.999Z</time></trkpt><trkpt lat="42.76728444211852" lon="11.102057257703482"><ele>12.0</ele><time>2026-03-22T09:26:10.999Z</time></trkpt><trkpt lat="42.767373928926844" lon="11.10203967913975"><ele>12.0</ele><time>2026-03-22T09:26:11.999Z</time></trkpt><trkpt lat="42.76746715711369" lon="11.102019349879226"><ele>12.0</ele><time>2026-03-22T09:26:12.999Z</time></trkpt><trkpt lat="42.767557185126655" lon="11.101994191919559"><ele>12.0</ele><time>2026-03-22T09:26:13.999Z</time></trkpt><trkpt lat="42.76765007183211" lon="11.101971522415104"><ele>12.0</ele><time>2026-03-22T09:26:14.999Z</time></trkpt><trkpt lat="42.76774215178275" lon="11.101946980284362"><ele>12.0</ele><time>2026-03-22T09:26:15.999Z</time></trkpt><trkpt lat="42.76782981263642" lon="11.101917028864746"><ele>11.8</ele><time>2026-03-22T09:26:16.999Z</time></trkpt><trkpt lat="42.76792021164971" lon="11.101886240833661"><ele>11.6</ele><time>2026-03-22T09:26:17.999Z</time></trkpt><trkpt lat="42.76801185262711" lon="11.101866191215809"><ele>11.4</ele><time>2026-03-22T09:26:18.999Z</time></trkpt><trkpt lat="42.76810871751224" lon="11.101831695146362"><ele>11.200000000000001</ele><time>2026-03-22T09:26:19.999Z</time></trkpt><trkpt lat="42.76820115964228" lon="11.101800761232473"><ele>11.0</ele><time>2026-03-22T09:26:20.999Z</time></trkpt><trkpt lat="42.768291618163225" lon="11.101771613712582"><ele>11.0</ele><time>2026-03-22T09:26:21.999Z</time></trkpt><trkpt lat="42.76838071398722" lon="11.101746211253502"><ele>11.0</ele><time>2026-03-22T09:26:22.999Z</time></trkpt><trkpt lat="42.76846990603096" lon="11.101719830499253"><ele>11.0</ele><time>2026-03-22T09:26:23.999Z</time></trkpt><trkpt lat="42.76856227629345" lon="11.101687401151894"><ele>11.0</ele><time>2026-03-22T09:26:24.999Z</time></trkpt><trkpt lat="42.768654656145166" lon="11.101652599614223"><ele>11.0</ele><time>2026-03-22T09:26:25.999Z</time></trkpt><trkpt lat="42.7687445608684" lon="11.101627222451162"><ele>11.0</ele><time>2026-03-22T09:26:26.999Z</time></trkpt><trkpt lat="42.76882396955337" lon="11.101601412104484"><ele>11.0</ele><time>2026-03-22T09:26:27.999Z</time></trkpt><trkpt lat="42.76888600872101" lon="11.101580487367356"><ele>11.0</ele><time>2026-03-22T09:26:28.999Z</time></trkpt><trkpt lat="42.7690027187298" lon="11.101572602414777"><ele>11.0</ele><time>2026-03-22T09:26:30.999Z</time></trkpt><trkpt lat="42.769109862485166" lon="11.101540247518823"><ele>11.0</ele><time>2026-03-22T09:26:32.999Z</time></trkpt><trkpt lat="42.76923665959791" lon="11.101501957772024"><ele>11.200000000000001</ele><time>2026-03-22T09:26:34.999Z</time></trkpt><trkpt lat="42.76930050122303" lon="11.101462618245444"><ele>11.4</ele><time>2026-03-22T09:26:35.999Z</time></trkpt><trkpt lat="42.769415729696895" lon="11.101430972199864"><ele>11.6</ele><time>2026-03-22T09:26:37.999Z</time></trkpt><trkpt lat="42.76952151939548" lon="11.10139561772702"><ele>11.8</ele><time>2026-03-22T09:26:39.999Z</time></trkpt><trkpt lat="42.76964024330286" lon="11.101382904712821"><ele>12.0</ele><time>2026-03-22T09:26:41.999Z</time></trkpt><trkpt lat="42.769706102632625" lon="11.101362673929499"><ele>12.0</ele><time>2026-03-22T09:26:42.999Z</time></trkpt><trkpt lat="42.7697735098164" lon="11.101342371634914"><ele>12.0</ele><time>2026-03-22T09:26:43.999Z</time></trkpt><trkpt lat="42.76983831573325" lon="11.101322852812617"><ele>12.0</ele><time>2026-03-22T09:26:44.999Z</time></trkpt><trkpt lat="42.7699553244668" lon="11.101287611079414"><ele>12.0</ele><time>2026-03-22T09:26:46.999Z</time></trkpt><trkpt lat="42.770015537460964" lon="11.101247340148786"><ele>12.0</ele><time>2026-03-22T09:26:47.999Z</time></trkpt><trkpt lat="42.77008333352654" lon="11.101232389468962"><ele>12.0</ele><time>2026-03-22T09:26:48.999Z</time></trkpt><trkpt lat="42.770150986771576" lon="11.101207417238877"><ele>12.166666666666666</ele><time>2026-03-22T09:26:50.001Z</time></trkpt><trkpt lat="42.77022565807409" lon="11.101206190732038"><ele>12.333333333333332</ele><time>2026-03-22T09:26:51.001Z</time></trkpt><trkpt lat="42.77029761562615" lon="11.101185204784741"><ele>12.5</ele><time>2026-03-22T09:26:52.001Z</time></trkpt><trkpt lat="42.77037199917325" lon="11.101163248983639"><ele>12.666666666666666</ele><time>2026-03-22T09:26:53.001Z</time></trkpt><trkpt lat="42.77045158303313" lon="11.101139756388337"><ele>12.833333333333332</ele><time>2026-03-22T09:26:54.001Z</time></trkpt><trkpt lat="42.77054182208283" lon="11.101112886431894"><ele>13.0</ele><time>2026-03-22T09:26:55.001Z</time></trkpt><trkpt lat="42.770637972741405" lon="11.101084152448262"><ele>13.0</ele><time>2026-03-22T09:26:56.001Z</time></trkpt><trkpt lat="42.770734882825536" lon="11.10105519151878"><ele>13.0</ele><time>2026-03-22T09:26:57.001Z</time></trkpt><trkpt lat="42.770829183731365" lon="11.101027010322628"><ele>13.0</ele><time>2026-03-22T09:26:58.001Z</time></trkpt><trkpt lat="42.77091965421512" lon="11.100999973822951"><ele>13.0</ele><time>2026-03-22T09:26:59.001Z</time></trkpt><trkpt lat="42.77101032414348" lon="11.100972816152652"><ele>13.0</ele><time>2026-03-22T09:27:00.001Z</time></trkpt><trkpt lat="42.771095167645136" lon="11.100947368846356"><ele>12.833333333333332</ele><time>2026-03-22T09:27:01.001Z</time></trkpt><trkpt lat="42.77117272041093" lon="11.100923711669232"><ele>12.666666666666666</ele><time>2026-03-22T09:27:02.001Z</time></trkpt><trkpt lat="42.77124405777074" lon="11.100900424792172"><ele>12.5</ele><time>2026-03-22T09:27:03.001Z</time></trkpt><trkpt lat="42.77131035746864" lon="11.100879294406099"><ele>12.333333333333332</ele><time>2026-03-22T09:27:04.001Z</time></trkpt><trkpt lat="42.771381779756496" lon="11.100859194604418"><ele>12.166666666666666</ele><time>2026-03-22T09:27:05.001Z</time></trkpt><trkpt lat="42.77145675472074" lon="11.100841608846359"><ele>12.0</ele><time>2026-03-22T09:27:06.001Z</time></trkpt><trkpt lat="42.771541518354994" lon="11.100824400280965"><ele>12.0</ele><time>2026-03-22T09:27:07.001Z</time></trkpt><trkpt lat="42.77162310245633" lon="11.10081444445283"><ele>12.0</ele><time>2026-03-22T09:27:08.001Z</time></trkpt><trkpt lat="42.7717022757122" lon="11.100813617777021"><ele>12.0</ele><time>2026-03-22T09:27:09Z</time></trkpt><trkpt lat="42.77177247272691" lon="11.100814849301525"><ele>12.0</ele><time>2026-03-22T09:27:10Z</time></trkpt><trkpt lat="42.77184776930217" lon="11.100820701796758"><ele>12.0</ele><time>2026-03-22T09:27:11Z</time></trkpt><trkpt lat="42.77193250620642" lon="11.100831945417463"><ele>12.0</ele><time>2026-03-22T09:27:12Z</time></trkpt><trkpt lat="42.772013378065544" lon="11.100851939103093"><ele>11.857142857142856</ele><time>2026-03-22T09:27:13Z</time></trkpt><trkpt lat="42.77209216188246" lon="11.100874691561158"><ele>11.714285714285714</ele><time>2026-03-22T09:27:14Z</time></trkpt><trkpt lat="42.772170479877" lon="11.100897309473076"><ele>11.571428571428571</ele><time>2026-03-22T09:27:15Z</time></trkpt><trkpt lat="42.77223199859867" lon="11.100921198271827"><ele>11.428571428571427</ele><time>2026-03-22T09:27:16Z</time></trkpt><trkpt lat="42.772299697745986" lon="11.10094628567019"><ele>11.285714285714285</ele><time>2026-03-22T09:27:17Z</time></trkpt><trkpt lat="42.77237393609409" lon="11.100973697832979"><ele>11.142857142857142</ele><time>2026-03-22T09:27:18Z</time></trkpt><trkpt lat="42.77244558270291" lon="11.101000049388215"><ele>11.0</ele><time>2026-03-22T09:27:19Z</time></trkpt><trkpt lat="42.77252973305886" lon="11.1010298886876"><ele>11.0</ele><time>2026-03-22T09:27:21Z</time></trkpt><trkpt lat="42.77262605975815" lon="11.101064045662156"><ele>11.0</ele><time>2026-03-22T09:27:24Z</time></trkpt><trkpt lat="42.77276941891904" lon="11.101099160366752"><ele>11.0</ele><time>2026-03-22T09:27:26Z</time></trkpt><trkpt lat="42.772870108617894" lon="11.10112894152843"><ele>11.0</ele><time>2026-03-22T09:27:27Z</time></trkpt><trkpt lat="42.772958810817826" lon="11.101162234115925"><ele>11.0</ele><time>2026-03-22T09:27:28Z</time></trkpt><trkpt lat="42.773041785142404" lon="11.101212460404657"><ele>11.0</ele><time>2026-03-22T09:27:29Z</time></trkpt><trkpt lat="42.77313814944192" lon="11.101231966032426"><ele>11.0</ele><time>2026-03-22T09:27:30Z</time></trkpt><trkpt lat="42.77324998336397" lon="11.101278109665119"><ele>11.0</ele><time>2026-03-22T09:27:31Z</time></trkpt><trkpt lat="42.773348289987304" lon="11.101304469111756"><ele>11.0</ele><time>2026-03-22T09:27:32Z</time></trkpt><trkpt lat="42.77345364562134" lon="11.101337272563294"><ele>11.0</ele><time>2026-03-22T09:27:33Z</time></trkpt><trkpt lat="42.77355870334187" lon="11.101374341812363"><ele>11.200000000000001</ele><time>2026-03-22T09:27:34Z</time></trkpt><trkpt lat="42.77366155749767" lon="11.101405875652334"><ele>11.4</ele><time>2026-03-22T09:27:35Z</time></trkpt><trkpt lat="42.77376304830761" lon="11.101438145097209"><ele>11.6</ele><time>2026-03-22T09:27:36Z</time></trkpt><trkpt lat="42.77385642451107" lon="11.101469687497062"><ele>11.8</ele><time>2026-03-22T09:27:37Z</time></trkpt><trkpt lat="42.77394371357472" lon="11.101504342615476"><ele>12.0</ele><time>2026-03-22T09:27:38Z</time></trkpt><trkpt lat="42.77402849361368" lon="11.101535474749806"><ele>12.0</ele><time>2026-03-22T09:27:39Z</time></trkpt><trkpt lat="42.77411173711654" lon="11.101567324506131"><ele>12.0</ele><time>2026-03-22T09:27:40Z</time></trkpt><trkpt lat="42.7741912795276" lon="11.101591693270263"><ele>12.0</ele><time>2026-03-22T09:27:41Z</time></trkpt><trkpt lat="42.77426145439199" lon="11.10165054913259"><ele>12.0</ele><time>2026-03-22T09:27:42Z</time></trkpt><trkpt lat="42.77433323384759" lon="11.10167494413195"><ele>12.0</ele><time>2026-03-22T09:27:43Z</time></trkpt><trkpt lat="42.77440242255028" lon="11.101699026211396"><ele>12.0</ele><time>2026-03-22T09:27:44Z</time></trkpt><trkpt lat="42.774469063151074" lon="11.101722221366854"><ele>12.0</ele><time>2026-03-22T09:27:45Z</time></trkpt><trkpt lat="42.77453917426498" lon="11.101747676806697"><ele>12.0</ele><time>2026-03-22T09:27:46Z</time></trkpt><trkpt lat="42.774610323786014" lon="11.101773148535736"><ele>12.0</ele><time>2026-03-22T09:27:47Z</time></trkpt><trkpt lat="42.77467667855256" lon="11.101797266811907"><ele>12.0</ele><time>2026-03-22T09:27:48Z</time></trkpt><trkpt lat="42.7747811657105" lon="11.101834066112257"><ele>12.0</ele><time>2026-03-22T09:27:50Z</time></trkpt><trkpt lat="42.774871738241316" lon="11.101865546659619"><ele>12.0</ele><time>2026-03-22T09:27:52Z</time></trkpt><trkpt lat="42.774975848328964" lon="11.101900341844868"><ele>12.0</ele><time>2026-03-22T09:27:54Z</time></trkpt><trkpt lat="42.77503979662882" lon="11.101922454663232"><ele>12.0</ele><time>2026-03-22T09:27:55Z</time></trkpt><trkpt lat="42.77512516101448" lon="11.101952186047848"><ele>12.0</ele><time>2026-03-22T09:27:56Z</time></trkpt><trkpt lat="42.775223369277136" lon="11.10198174938331"><ele>12.0</ele><time>2026-03-22T09:27:57Z</time></trkpt><trkpt lat="42.77531873901394" lon="11.102032713413337"><ele>12.0</ele><time>2026-03-22T09:27:58Z</time></trkpt><trkpt lat="42.77542410332864" lon="11.102063157481247"><ele>12.2</ele><time>2026-03-22T09:27:59Z</time></trkpt><trkpt lat="42.775527297819046" lon="11.102111344515833"><ele>12.399999999999999</ele><time>2026-03-22T09:28:00Z</time></trkpt><trkpt lat="42.77561565311128" lon="11.102176555504599"><ele>12.600000000000001</ele><time>2026-03-22T09:28:01Z</time></trkpt><trkpt lat="42.775687418119304" lon="11.102266670059231"><ele>12.8</ele><time>2026-03-22T09:28:02Z</time></trkpt><trkpt lat="42.77574930652928" lon="11.102356048052808"><ele>13.0</ele><time>2026-03-22T09:28:03Z</time></trkpt><trkpt lat="42.77580670306077" lon="11.102464510788705"><ele>13.0</ele><time>2026-03-22T09:28:04Z</time></trkpt><trkpt lat="42.775869257778" lon="11.10255812020064"><ele>13.0</ele><time>2026-03-22T09:28:04.999Z</time></trkpt><trkpt lat="42.77592909895372" lon="11.10265197536162"><ele>13.0</ele><time>2026-03-22T09:28:05.999Z</time></trkpt><trkpt lat="42.77598115555402" lon="11.102754317161853"><ele>13.0</ele><time>2026-03-22T09:28:06.999Z</time></trkpt><trkpt lat="42.77602169494306" lon="11.10286849608658"><ele>13.0</ele><time>2026-03-22T09:28:07.999Z</time></trkpt><trkpt lat="42.77605038411682" lon="11.102989141524347"><ele>12.857142857142856</ele><time>2026-03-22T09:28:08.999Z</time></trkpt><trkpt lat="42.77606903920201" lon="11.103108681237785"><ele>12.714285714285715</ele><time>2026-03-22T09:28:09.999Z</time></trkpt><trkpt lat="42.77608801906462" lon="11.103218580941094"><ele>12.571428571428571</ele><time>2026-03-22T09:28:10.999Z</time></trkpt><trkpt lat="42.776098561436775" lon="11.103316809615666"><ele>12.428571428571427</ele><time>2026-03-22T09:28:11.999Z</time></trkpt><trkpt lat="42.77611387042024" lon="11.103400903737732"><ele>12.285714285714285</ele><time>2026-03-22T09:28:12.999Z</time></trkpt><trkpt lat="42.77613389826843" lon="11.103490423951602"><ele>12.142857142857142</ele><time>2026-03-22T09:28:13.999Z</time></trkpt><trkpt lat="42.77613907832813" lon="11.103581716407625"><ele>12.0</ele><time>2026-03-22T09:28:14.999Z</time></trkpt><trkpt lat="42.776152880985336" lon="11.103675672549155"><ele>12.0</ele><time>2026-03-22T09:28:15.999Z</time></trkpt><trkpt lat="42.77616556084325" lon="11.1037619856493"><ele>12.0</ele><time>2026-03-22T09:28:16.999Z</time></trkpt><trkpt lat="42.77614327443977" lon="11.103916824036316"><ele>12.0</ele><time>2026-03-22T09:28:18.999Z</time></trkpt><trkpt lat="42.776082905973325" lon="11.103988852710085"><ele>12.0</ele><time>2026-03-22T09:28:19.999Z</time></trkpt><trkpt lat="42.77602382538107" lon="11.104053378558834"><ele>12.0</ele><time>2026-03-22T09:28:20.999Z</time></trkpt><trkpt lat="42.77594299719765" lon="11.104111313260336"><ele>12.0</ele><time>2026-03-22T09:28:21.999Z</time></trkpt><trkpt lat="42.77587277614728" lon="11.104127539635972"><ele>12.399999999999999</ele><time>2026-03-22T09:28:22.999Z</time></trkpt><trkpt lat="42.77578088303622" lon="11.104128667395528"><ele>12.799999999999999</ele><time>2026-03-22T09:28:23.999Z</time></trkpt><trkpt lat="42.7756813574903" lon="11.104161708231286"><ele>13.2</ele><time>2026-03-22T09:28:24.999Z</time></trkpt><trkpt lat="42.77557655125802" lon="11.104185573577437"><ele>13.6</ele><time>2026-03-22T09:28:25.999Z</time></trkpt><trkpt lat="42.775466231688036" lon="11.104201187222019"><ele>14.0</ele><time>2026-03-22T09:28:26.999Z</time></trkpt><trkpt lat="42.77535537679327" lon="11.104218061411359"><ele>14.0</ele><time>2026-03-22T09:28:27.999Z</time></trkpt><trkpt lat="42.77524779551485" lon="11.10420297496519"><ele>13.999999999999998</ele><time>2026-03-22T09:28:28.999Z</time></trkpt><trkpt lat="42.77514610000603" lon="11.104211399990266"><ele>13.999999999999998</ele><time>2026-03-22T09:28:29.999Z</time></trkpt><trkpt lat="42.77505524304822" lon="11.104222136815505"><ele>14.0</ele><time>2026-03-22T09:28:30.999Z</time></trkpt><trkpt lat="42.77497117039032" lon="11.10423339653321"><ele>14.0</ele><time>2026-03-22T09:28:31.999Z</time></trkpt><trkpt lat="42.77490004208708" lon="11.104244961864115"><ele>13.833333333333334</ele><time>2026-03-22T09:28:32.999Z</time></trkpt><trkpt lat="42.7748240173315" lon="11.104262166232745"><ele>13.666666666666668</ele><time>2026-03-22T09:28:33.999Z</time></trkpt><trkpt lat="42.77477780020743" lon="11.104365934775318"><ele>13.5</ele><time>2026-03-22T09:28:34.999Z</time></trkpt><trkpt lat="42.77472477781804" lon="11.104447061891257"><ele>13.333333333333332</ele><time>2026-03-22T09:28:35.999Z</time></trkpt><trkpt lat="42.77469105068305" lon="11.104551717271034"><ele>13.166666666666666</ele><time>2026-03-22T09:28:36.999Z</time></trkpt><trkpt lat="42.77467725833403" lon="11.104654992382855"><ele>13.0</ele><time>2026-03-22T09:28:37.999Z</time></trkpt><trkpt lat="42.7746647133894" lon="11.104775229123035"><ele>12.999999999999998</ele><time>2026-03-22T09:28:38.999Z</time></trkpt><trkpt lat="42.77464757280616" lon="11.10488359645248"><ele>13.0</ele><time>2026-03-22T09:28:39.998Z</time></trkpt><trkpt lat="42.774627176748226" lon="11.104986187527974"><ele>13.0</ele><time>2026-03-22T09:28:40.998Z</time></trkpt><trkpt lat="42.77460610268165" lon="11.105101214809245"><ele>13.0</ele><time>2026-03-22T09:28:41.998Z</time></trkpt><trkpt lat="42.77457859146899" lon="11.105226592401047"><ele>12.999999999999998</ele><time>2026-03-22T09:28:42.998Z</time></trkpt><trkpt lat="42.77455331028557" lon="11.10536033992571"><ele>13.0</ele><time>2026-03-22T09:28:43.998Z</time></trkpt><trkpt lat="42.77452774157713" lon="11.105503113284053"><ele>13.0</ele><time>2026-03-22T09:28:44.998Z</time></trkpt><trkpt lat="42.77449513118092" lon="11.105655604662845"><ele>13.0</ele><time>2026-03-22T09:28:45.998Z</time></trkpt><trkpt lat="42.77446793701075" lon="11.105814416105927"><ele>13.0</ele><time>2026-03-22T09:28:46.998Z</time></trkpt><trkpt lat="42.77444350732896" lon="11.105963019655535"><ele>13.0</ele><time>2026-03-22T09:28:47.998Z</time></trkpt><trkpt lat="42.77441746466278" lon="11.106111250403826"><ele>13.0</ele><time>2026-03-22T09:28:48.998Z</time></trkpt><trkpt lat="42.77438735086486" lon="11.106260511655277"><ele>13.0</ele><time>2026-03-22T09:28:49.998Z</time></trkpt><trkpt lat="42.77435716918554" lon="11.10641877360014"><ele>13.0</ele><time>2026-03-22T09:28:50.998Z</time></trkpt><trkpt lat="42.77432407612901" lon="11.106572136062058"><ele>13.0</ele><time>2026-03-22T09:28:51.998Z</time></trkpt><trkpt lat="42.77429378882533" lon="11.106726130657847"><ele>13.0</ele><time>2026-03-22T09:28:52.998Z</time></trkpt><trkpt lat="42.77426324487866" lon="11.10687538595741"><ele>13.0</ele><time>2026-03-22T09:28:53.998Z</time></trkpt><trkpt lat="42.77423265133552" lon="11.107022911492164"><ele>13.0</ele><time>2026-03-22T09:28:55Z</time></trkpt><trkpt lat="42.7742035055924" lon="11.107168402640774"><ele>13.0</ele><time>2026-03-22T09:28:56Z</time></trkpt><trkpt lat="42.7741750366432" lon="11.107325682572197"><ele>13.0</ele><time>2026-03-22T09:28:57Z</time></trkpt><trkpt lat="42.77414979249888" lon="11.107488507028183"><ele>13.0</ele><time>2026-03-22T09:28:58Z</time></trkpt><trkpt lat="42.77412274721819" lon="11.10765474322988"><ele>13.0</ele><time>2026-03-22T09:28:59Z</time></trkpt><trkpt lat="42.77409091763887" lon="11.107816108739973"><ele>13.0</ele><time>2026-03-22T09:29:00Z</time></trkpt><trkpt lat="42.77405573807189" lon="11.107974692839587"><ele>13.0</ele><time>2026-03-22T09:29:01Z</time></trkpt><trkpt lat="42.77402713036705" lon="11.108140790435503"><ele>13.0</ele><time>2026-03-22T09:29:02Z</time></trkpt><trkpt lat="42.77400294441629" lon="11.108296916858897"><ele>13.0</ele><time>2026-03-22T09:29:03Z</time></trkpt><trkpt lat="42.77398212513235" lon="11.108453027843126"><ele>13.0</ele><time>2026-03-22T09:29:04Z</time></trkpt><trkpt lat="42.77396712651363" lon="11.108613413966207"><ele>12.8</ele><time>2026-03-22T09:29:05Z</time></trkpt><trkpt lat="42.773959643416575" lon="11.108764228168196"><ele>12.600000000000001</ele><time>2026-03-22T09:29:06Z</time></trkpt><trkpt lat="42.773953349717836" lon="11.108911876463196"><ele>12.399999999999999</ele><time>2026-03-22T09:29:07Z</time></trkpt><trkpt lat="42.77395023777802" lon="11.109065214994414"><ele>12.2</ele><time>2026-03-22T09:29:08Z</time></trkpt><trkpt lat="42.77394736833393" lon="11.109213961294834"><ele>12.0</ele><time>2026-03-22T09:29:09Z</time></trkpt><trkpt lat="42.77394584457454" lon="11.10936249130502"><ele>12.0</ele><time>2026-03-22T09:29:10Z</time></trkpt><trkpt lat="42.77394184579255" lon="11.109505349747995"><ele>12.0</ele><time>2026-03-22T09:29:11Z</time></trkpt><trkpt lat="42.77393655781931" lon="11.109649129126632"><ele>12.0</ele><time>2026-03-22T09:29:12Z</time></trkpt><trkpt lat="42.773932794085866" lon="11.109786620617705"><ele>12.0</ele><time>2026-03-22T09:29:13Z</time></trkpt><trkpt lat="42.77393280309332" lon="11.109916140814923"><ele>12.0</ele><time>2026-03-22T09:29:14Z</time></trkpt><trkpt lat="42.77393161467633" lon="11.110040778558961"><ele>12.0</ele><time>2026-03-22T09:29:15Z</time></trkpt><trkpt lat="42.77393097098223" lon="11.11015015189359"><ele>12.0</ele><time>2026-03-22T09:29:15.999Z</time></trkpt><trkpt lat="42.77392502453029" lon="11.110257363347355"><ele>12.0</ele><time>2026-03-22T09:29:16.999Z</time></trkpt><trkpt lat="42.77391474305685" lon="11.110373139368098"><ele>12.0</ele><time>2026-03-22T09:29:17.999Z</time></trkpt><trkpt lat="42.773885353169156" lon="11.110493783874874"><ele>12.0</ele><time>2026-03-22T09:29:18.999Z</time></trkpt><trkpt lat="42.77384038977139" lon="11.110607356801799"><ele>12.0</ele><time>2026-03-22T09:29:19.999Z</time></trkpt><trkpt lat="42.773792792559924" lon="11.110730037730725"><ele>12.25</ele><time>2026-03-22T09:29:20.999Z</time></trkpt><trkpt lat="42.77374829058602" lon="11.110874900283637"><ele>12.5</ele><time>2026-03-22T09:29:21.999Z</time></trkpt><trkpt lat="42.77369444944955" lon="11.111033238776349"><ele>12.75</ele><time>2026-03-22T09:29:22.999Z</time></trkpt><trkpt lat="42.77361952188885" lon="11.111191019088484"><ele>13.0</ele><time>2026-03-22T09:29:23.999Z</time></trkpt><trkpt lat="42.77356304263307" lon="11.11136808636602"><ele>13.0</ele><time>2026-03-22T09:29:24.999Z</time></trkpt><trkpt lat="42.77349781531724" lon="11.111548710093297"><ele>13.0</ele><time>2026-03-22T09:29:25.999Z</time></trkpt><trkpt lat="42.77342783418422" lon="11.111732313038264"><ele>13.0</ele><time>2026-03-22T09:29:26.999Z</time></trkpt><trkpt lat="42.77335765497029" lon="11.111919218851584"><ele>13.0</ele><time>2026-03-22T09:29:27.999Z</time></trkpt><trkpt lat="42.773290332564684" lon="11.112112921390835"><ele>13.0</ele><time>2026-03-22T09:29:28.999Z</time></trkpt><trkpt lat="42.77321936684473" lon="11.11230369841211"><ele>13.0</ele><time>2026-03-22T09:29:29.999Z</time></trkpt><trkpt lat="42.77314808942258" lon="11.112494734025526"><ele>14.0</ele><time>2026-03-22T09:29:30.999Z</time></trkpt><trkpt lat="42.77308102823867" lon="11.112686585912538"><ele>15.0</ele><time>2026-03-22T09:29:31.999Z</time></trkpt><trkpt lat="42.77300944124" lon="11.112870160335405"><ele>16.0</ele><time>2026-03-22T09:29:32.999Z</time></trkpt><trkpt lat="42.772943259473536" lon="11.113050728435747"><ele>16.0</ele><time>2026-03-22T09:29:33.999Z</time></trkpt><trkpt lat="42.77288139563357" lon="11.11322016915678"><ele>16.0</ele><time>2026-03-22T09:29:34.999Z</time></trkpt><trkpt lat="42.77282450601382" lon="11.113376122464757"><ele>16.0</ele><time>2026-03-22T09:29:35.999Z</time></trkpt><trkpt lat="42.77277099438053" lon="11.11351624860645"><ele>16.0</ele><time>2026-03-22T09:29:36.999Z</time></trkpt><trkpt lat="42.772725603881945" lon="11.113643683063303"><ele>15.833333333333332</ele><time>2026-03-22T09:29:37.999Z</time></trkpt><trkpt lat="42.77268003559732" lon="11.113757639777557"><ele>15.666666666666666</ele><time>2026-03-22T09:29:38.999Z</time></trkpt><trkpt lat="42.772632229440234" lon="11.11386725998374"><ele>15.5</ele><time>2026-03-22T09:29:39.999Z</time></trkpt><trkpt lat="42.77257970349451" lon="11.113955426506125"><ele>15.333333333333332</ele><time>2026-03-22T09:29:40.999Z</time></trkpt><trkpt lat="42.77253556927806" lon="11.114047219230313"><ele>15.166666666666666</ele><time>2026-03-22T09:29:41.999Z</time></trkpt><trkpt lat="42.77249241849286" lon="11.1141639950473"><ele>15.0</ele><time>2026-03-22T09:29:43.999Z</time></trkpt><trkpt lat="42.772550639503315" lon="11.114250015572596"><ele>15.0</ele><time>2026-03-22T09:29:45.999Z</time></trkpt><trkpt lat="42.77262947479695" lon="11.114280420179725"><ele>15.0</ele><time>2026-03-22T09:29:46.999Z</time></trkpt><trkpt lat="42.7727188371452" lon="11.114182998981343"><ele>15.0</ele><time>2026-03-22T09:29:47.999Z</time></trkpt><trkpt lat="42.772827573703964" lon="11.114200972983166"><ele>15.0</ele><time>2026-03-22T09:29:48.999Z</time></trkpt><trkpt lat="42.77290903791849" lon="11.114255541999736"><ele>15.0</ele><time>2026-03-22T09:29:49.999Z</time></trkpt><trkpt lat="42.77298788238291" lon="11.114316848414141"><ele>14.8</ele><time>2026-03-22T09:29:50.999Z</time></trkpt><trkpt lat="42.773077974591246" lon="11.114370203434568"><ele>14.6</ele><time>2026-03-22T09:29:51.999Z</time></trkpt><trkpt lat="42.773166576113624" lon="11.114435209773877"><ele>14.399999999999999</ele><time>2026-03-22T09:29:52.999Z</time></trkpt><trkpt lat="42.773261711138105" lon="11.114487235440233"><ele>14.2</ele><time>2026-03-22T09:29:53.999Z</time></trkpt><trkpt lat="42.773351448315545" lon="11.114530961775875"><ele>14.0</ele><time>2026-03-22T09:29:54.999Z</time></trkpt><trkpt lat="42.77343448286959" lon="11.114580722151555"><ele>14.000000000000002</ele><time>2026-03-22T09:29:55.999Z</time></trkpt><trkpt lat="42.77351535920389" lon="11.114630730675481"><ele>14.0</ele><time>2026-03-22T09:29:56.999Z</time></trkpt><trkpt lat="42.7735924175573" lon="11.114677650335661"><ele>14.0</ele><time>2026-03-22T09:29:57.999Z</time></trkpt><trkpt lat="42.77366883090914" lon="11.114728179873927"><ele>14.0</ele><time>2026-03-22T09:29:58.999Z</time></trkpt><trkpt lat="42.77373104477434" lon="11.114793769407925"><ele>14.000000000000002</ele><time>2026-03-22T09:29:59.999Z</time></trkpt><trkpt lat="42.77379669050762" lon="11.114839484805374"><ele>14.0</ele><time>2026-03-22T09:30:00.999Z</time></trkpt><trkpt lat="42.773854254259696" lon="11.114879622788328"><ele>13.500000000000002</ele><time>2026-03-22T09:30:01.999Z</time></trkpt><trkpt lat="42.773941127772765" lon="11.114920560026402"><ele>13.0</ele><time>2026-03-22T09:30:03.999Z</time></trkpt><trkpt lat="42.77398421472913" lon="11.115013398958052"><ele>12.5</ele><time>2026-03-22T09:30:05.999Z</time></trkpt><trkpt lat="42.77403762412698" lon="11.115127061212608"><ele>12.0</ele><time>2026-03-22T09:30:07.999Z</time></trkpt><trkpt lat="42.774098185048715" lon="11.115170198587224"><ele>11.5</ele><time>2026-03-22T09:30:08.999Z</time></trkpt><trkpt lat="42.77419742778532" lon="11.11518154995749"><ele>11.0</ele><time>2026-03-22T09:30:09.999Z</time></trkpt><trkpt lat="42.77428670650009" lon="11.115226091144685"><ele>11.0</ele><time>2026-03-22T09:30:10.999Z</time></trkpt><trkpt lat="42.774390267007604" lon="11.11525181262026"><ele>11.0</ele><time>2026-03-22T09:30:11.998Z</time></trkpt><trkpt lat="42.77448108301192" lon="11.115275873562847"><ele>11.0</ele><time>2026-03-22T09:30:12.998Z</time></trkpt><trkpt lat="42.77458875392155" lon="11.115309459359667"><ele>11.0</ele><time>2026-03-22T09:30:13.998Z</time></trkpt><trkpt lat="42.77469310375769" lon="11.115319404557903"><ele>11.0</ele><time>2026-03-22T09:30:14.998Z</time></trkpt><trkpt lat="42.77480276702813" lon="11.115324254781964"><ele>11.0</ele><time>2026-03-22T09:30:15.998Z</time></trkpt><trkpt lat="42.77491122462883" lon="11.115314092225244"><ele>11.0</ele><time>2026-03-22T09:30:16.998Z</time></trkpt><trkpt lat="42.775024753827694" lon="11.115298956069404"><ele>11.0</ele><time>2026-03-22T09:30:17.998Z</time></trkpt><trkpt lat="42.77514011888311" lon="11.115294541196592"><ele>11.0</ele><time>2026-03-22T09:30:18.998Z</time></trkpt><trkpt lat="42.77525218843455" lon="11.115307299417909"><ele>10.8</ele><time>2026-03-22T09:30:19.998Z</time></trkpt><trkpt lat="42.77536455708588" lon="11.115340100352965"><ele>10.600000000000001</ele><time>2026-03-22T09:30:20.998Z</time></trkpt><trkpt lat="42.7754662935002" lon="11.115385028808499"><ele>10.4</ele><time>2026-03-22T09:30:21.998Z</time></trkpt><trkpt lat="42.775560772995576" lon="11.115446778825511"><ele>10.2</ele><time>2026-03-22T09:30:22.998Z</time></trkpt><trkpt lat="42.77564582608281" lon="11.115506352963914"><ele>10.0</ele><time>2026-03-22T09:30:23.998Z</time></trkpt><trkpt lat="42.775751868603265" lon="11.115564639792616"><ele>10.0</ele><time>2026-03-22T09:30:24.998Z</time></trkpt><trkpt lat="42.77584803896879" lon="11.115625128949652"><ele>10.0</ele><time>2026-03-22T09:30:25.998Z</time></trkpt><trkpt lat="42.775935508776065" lon="11.115676510941258"><ele>10.0</ele><time>2026-03-22T09:30:26.998Z</time></trkpt><trkpt lat="42.77601660002926" lon="11.115723686927803"><ele>10.0</ele><time>2026-03-22T09:30:27.998Z</time></trkpt><trkpt lat="42.77609084777036" lon="11.115767421351066"><ele>10.0</ele><time>2026-03-22T09:30:28.998Z</time></trkpt><trkpt lat="42.77616351145649" lon="11.115808955294696"><ele>10.0</ele><time>2026-03-22T09:30:29.998Z</time></trkpt><trkpt lat="42.77623736815552" lon="11.115863040092066"><ele>10.8</ele><time>2026-03-22T09:30:30.998Z</time></trkpt><trkpt lat="42.776308559102" lon="11.115927985214071"><ele>11.6</ele><time>2026-03-22T09:30:31.998Z</time></trkpt><trkpt lat="42.77639174032701" lon="11.115972432044712"><ele>12.399999999999999</ele><time>2026-03-22T09:30:32.998Z</time></trkpt><trkpt lat="42.77648791121845" lon="11.115984652449905"><ele>13.2</ele><time>2026-03-22T09:30:33.998Z</time></trkpt><trkpt lat="42.77658615763552" lon="11.116000484173105"><ele>14.0</ele><time>2026-03-22T09:30:34.998Z</time></trkpt><trkpt lat="42.77668811458213" lon="11.116030633105897"><ele>14.0</ele><time>2026-03-22T09:30:35.998Z</time></trkpt><trkpt lat="42.776780920377746" lon="11.116108027551276"><ele>14.0</ele><time>2026-03-22T09:30:36.998Z</time></trkpt><trkpt lat="42.776906038569" lon="11.116176295416162"><ele>14.0</ele><time>2026-03-22T09:30:37.998Z</time></trkpt><trkpt lat="42.77703350212449" lon="11.116245842967087"><ele>14.0</ele><time>2026-03-22T09:30:38.998Z</time></trkpt><trkpt lat="42.777161229176585" lon="11.1163147288349"><ele>14.0</ele><time>2026-03-22T09:30:39.998Z</time></trkpt><trkpt lat="42.7772816901191" lon="11.116378540452455"><ele>14.0</ele><time>2026-03-22T09:30:40.998Z</time></trkpt><trkpt lat="42.77740334413134" lon="11.11644298406287"><ele>14.0</ele><time>2026-03-22T09:30:41.998Z</time></trkpt><trkpt lat="42.77751762749361" lon="11.116503523240045"><ele>14.0</ele><time>2026-03-22T09:30:42.998Z</time></trkpt><trkpt lat="42.777625561486914" lon="11.116560555186929"><ele>13.333333333333334</ele><time>2026-03-22T09:30:43.998Z</time></trkpt><trkpt lat="42.77773207647293" lon="11.116615874252888"><ele>12.666666666666668</ele><time>2026-03-22T09:30:44.998Z</time></trkpt><trkpt lat="42.77781557110845" lon="11.116659237594552"><ele>12.0</ele><time>2026-03-22T09:30:45.998Z</time></trkpt><trkpt lat="42.7778857443689" lon="11.11667755131741"><ele>11.333333333333334</ele><time>2026-03-22T09:30:46.998Z</time></trkpt><trkpt lat="42.77795499969485" lon="11.116751125815636"><ele>10.666666666666668</ele><time>2026-03-22T09:30:48.998Z</time></trkpt><trkpt lat="42.77798734162688" lon="11.116830425379833"><ele>10.0</ele><time>2026-03-22T09:30:50.998Z</time></trkpt><trkpt lat="42.77800276486902" lon="11.116986603926346"><ele>10.0</ele><time>2026-03-22T09:30:52.998Z</time></trkpt><trkpt lat="42.77805727899707" lon="11.117141850202838"><ele>10.0</ele><time>2026-03-22T09:30:54.998Z</time></trkpt><trkpt lat="42.77794295211906" lon="11.117281486438008"><ele>10.0</ele><time>2026-03-22T09:30:55.998Z</time></trkpt><trkpt lat="42.77790026076651" lon="11.117385514422125"><ele>10.0</ele><time>2026-03-22T09:30:56.998Z</time></trkpt><trkpt lat="42.77785305612422" lon="11.117501069572933"><ele>10.2</ele><time>2026-03-22T09:30:57.998Z</time></trkpt><trkpt lat="42.7778025350588" lon="11.117605998000649"><ele>10.4</ele><time>2026-03-22T09:30:58.998Z</time></trkpt><trkpt lat="42.77775379572035" lon="11.117714503096959"><ele>10.600000000000001</ele><time>2026-03-22T09:31:00Z</time></trkpt><trkpt lat="42.777695024977895" lon="11.117837926828232"><ele>10.8</ele><time>2026-03-22T09:31:01Z</time></trkpt><trkpt lat="42.77763428316096" lon="11.117953473156575"><ele>11.0</ele><time>2026-03-22T09:31:02Z</time></trkpt><trkpt lat="42.777574610580984" lon="11.118082131635855"><ele>11.8</ele><time>2026-03-22T09:31:03Z</time></trkpt><trkpt lat="42.77751362454403" lon="11.118193970859"><ele>12.600000000000001</ele><time>2026-03-22T09:31:04Z</time></trkpt><trkpt lat="42.777458312820016" lon="11.11830432916182"><ele>13.4</ele><time>2026-03-22T09:31:05Z</time></trkpt><trkpt lat="42.77740600086538" lon="11.118402861681885"><ele>14.2</ele><time>2026-03-22T09:31:06Z</time></trkpt><trkpt lat="42.777358249882234" lon="11.118496133668677"><ele>15.0</ele><time>2026-03-22T09:31:07Z</time></trkpt><trkpt lat="42.77731227516921" lon="11.118587918865854"><ele>15.0</ele><time>2026-03-22T09:31:08Z</time></trkpt><trkpt lat="42.77726973710307" lon="11.118677557035852"><ele>15.0</ele><time>2026-03-22T09:31:09Z</time></trkpt><trkpt lat="42.77723051049462" lon="11.118761103418795"><ele>15.0</ele><time>2026-03-22T09:31:10Z</time></trkpt><trkpt lat="42.77718992356085" lon="11.11884083289683"><ele>15.0</ele><time>2026-03-22T09:31:11Z</time></trkpt><trkpt lat="42.777151915447185" lon="11.118922083862799"><ele>15.0</ele><time>2026-03-22T09:31:12Z</time></trkpt><trkpt lat="42.777120274726194" lon="11.119002629154105"><ele>15.0</ele><time>2026-03-22T09:31:13Z</time></trkpt><trkpt lat="42.777070634134326" lon="11.119058670280722"><ele>15.0</ele><time>2026-03-22T09:31:14Z</time></trkpt><trkpt lat="42.77701793349879" lon="11.119165412494358"><ele>15.166666666666666</ele><time>2026-03-22T09:31:16Z</time></trkpt><trkpt lat="42.77697336787601" lon="11.119255093923153"><ele>15.333333333333332</ele><time>2026-03-22T09:31:17.999Z</time></trkpt><trkpt lat="42.77693597934899" lon="11.119330381408039"><ele>15.5</ele><time>2026-03-22T09:31:19.999Z</time></trkpt><trkpt lat="42.77686947500007" lon="11.119456706198033"><ele>15.666666666666666</ele><time>2026-03-22T09:31:21.999Z</time></trkpt><trkpt lat="42.77681950962053" lon="11.119540112582236"><ele>15.833333333333332</ele><time>2026-03-22T09:31:22.999Z</time></trkpt><trkpt lat="42.776785476195016" lon="11.119636960831297"><ele>16.0</ele><time>2026-03-22T09:31:23.999Z</time></trkpt><trkpt lat="42.77674868288598" lon="11.119722832337636"><ele>15.999999999999998</ele><time>2026-03-22T09:31:24.999Z</time></trkpt><trkpt lat="42.77670894948368" lon="11.11980186629183"><ele>16.0</ele><time>2026-03-22T09:31:25.999Z</time></trkpt><trkpt lat="42.77666950591557" lon="11.119877069499777"><ele>16.0</ele><time>2026-03-22T09:31:26.999Z</time></trkpt><trkpt lat="42.776591632930085" lon="11.120035928148376"><ele>16.0</ele><time>2026-03-22T09:31:28.999Z</time></trkpt><trkpt lat="42.77654861357758" lon="11.120116921239788"><ele>15.999999999999998</ele><time>2026-03-22T09:31:29.999Z</time></trkpt><trkpt lat="42.77650852813705" lon="11.120198604644896"><ele>16.0</ele><time>2026-03-22T09:31:30.999Z</time></trkpt><trkpt lat="42.776463435569106" lon="11.120278109765696"><ele>15.714285714285714</ele><time>2026-03-22T09:31:31.999Z</time></trkpt><trkpt lat="42.77642919614873" lon="11.120358314485749"><ele>15.428571428571427</ele><time>2026-03-22T09:31:32.999Z</time></trkpt><trkpt lat="42.776389214483494" lon="11.120434868230124"><ele>15.142857142857142</ele><time>2026-03-22T09:31:33.999Z</time></trkpt><trkpt lat="42.77635043497835" lon="11.120514202202738"><ele>14.857142857142858</ele><time>2026-03-22T09:31:34.999Z</time></trkpt><trkpt lat="42.776310055250946" lon="11.120598391845519"><ele>14.571428571428571</ele><time>2026-03-22T09:31:35.999Z</time></trkpt><trkpt lat="42.776274922788794" lon="11.120686001391306"><ele>14.285714285714285</ele><time>2026-03-22T09:31:36.999Z</time></trkpt><trkpt lat="42.77623383374526" lon="11.120766827093407"><ele>14.0</ele><time>2026-03-22T09:31:37.999Z</time></trkpt><trkpt lat="42.776188981981676" lon="11.120837907317414"><ele>14.000000000000002</ele><time>2026-03-22T09:31:38.999Z</time></trkpt><trkpt lat="42.776150103319466" lon="11.120917640409418"><ele>14.0</ele><time>2026-03-22T09:31:39.999Z</time></trkpt><trkpt lat="42.77611512666467" lon="11.121003242209358"><ele>14.0</ele><time>2026-03-22T09:31:40.999Z</time></trkpt><trkpt lat="42.77607879566083" lon="11.121092994688501"><ele>14.0</ele><time>2026-03-22T09:31:41.999Z</time></trkpt><trkpt lat="42.77603777650751" lon="11.12118591766579"><ele>14.000000000000002</ele><time>2026-03-22T09:31:42.999Z</time></trkpt><trkpt lat="42.775996695275985" lon="11.121278816857615"><ele>14.0</ele><time>2026-03-22T09:31:43.999Z</time></trkpt><trkpt lat="42.77594902406773" lon="11.12136814918692"><ele>14.166666666666668</ele><time>2026-03-22T09:31:44.999Z</time></trkpt><trkpt lat="42.77590266093932" lon="11.121468301153536"><ele>14.333333333333334</ele><time>2026-03-22T09:31:45.999Z</time></trkpt><trkpt lat="42.775859039235165" lon="11.121566811787433"><ele>14.5</ele><time>2026-03-22T09:31:46.999Z</time></trkpt><trkpt lat="42.77580136637205" lon="11.121656271268566"><ele>14.666666666666668</ele><time>2026-03-22T09:31:47.999Z</time></trkpt><trkpt lat="42.77575408644562" lon="11.121751553960333"><ele>14.833333333333334</ele><time>2026-03-22T09:31:48.999Z</time></trkpt><trkpt lat="42.77570825848942" lon="11.121843209469947"><ele>15.0</ele><time>2026-03-22T09:31:49.999Z</time></trkpt><trkpt lat="42.775662048259086" lon="11.121926813232148"><ele>15.0</ele><time>2026-03-22T09:31:50.999Z</time></trkpt><trkpt lat="42.77562703440182" lon="11.122010429176562"><ele>15.0</ele><time>2026-03-22T09:31:51.999Z</time></trkpt><trkpt lat="42.77555802388" lon="11.122065816122806"><ele>15.0</ele><time>2026-03-22T09:31:52.999Z</time></trkpt><trkpt lat="42.775490761015085" lon="11.122114139465888"><ele>15.0</ele><time>2026-03-22T09:31:53.999Z</time></trkpt><trkpt lat="42.77543233053354" lon="11.122172298786051"><ele>15.0</ele><time>2026-03-22T09:31:54.999Z</time></trkpt><trkpt lat="42.7754010542534" lon="11.122266084561545"><ele>15.0</ele><time>2026-03-22T09:31:55.999Z</time></trkpt><trkpt lat="42.77541112942679" lon="11.122354173648699"><ele>15.0</ele><time>2026-03-22T09:31:56.999Z</time></trkpt><trkpt lat="42.775454959223666" lon="11.122427391920763"><ele>15.166666666666666</ele><time>2026-03-22T09:31:57.999Z</time></trkpt><trkpt lat="42.775531587661355" lon="11.122462799792194"><ele>15.333333333333332</ele><time>2026-03-22T09:31:58.999Z</time></trkpt><trkpt lat="42.775626298800354" lon="11.122477244550504"><ele>15.5</ele><time>2026-03-22T09:31:59.999Z</time></trkpt><trkpt lat="42.775707144576245" lon="11.122495245339906"><ele>15.666666666666666</ele><time>2026-03-22T09:32:00.999Z</time></trkpt><trkpt lat="42.77578613171916" lon="11.12249730254742"><ele>15.833333333333332</ele><time>2026-03-22T09:32:01.999Z</time></trkpt><trkpt lat="42.775887747682795" lon="11.122535244519545"><ele>16.0</ele><time>2026-03-22T09:32:02.999Z</time></trkpt><trkpt lat="42.77595801210075" lon="11.122584641807345"><ele>15.999999999999998</ele><time>2026-03-22T09:32:03.999Z</time></trkpt><trkpt lat="42.77601256512875" lon="11.122647687162306"><ele>16.0</ele><time>2026-03-22T09:32:04.999Z</time></trkpt><trkpt lat="42.776055884309294" lon="11.122721192746672"><ele>16.0</ele><time>2026-03-22T09:32:05.999Z</time></trkpt><trkpt lat="42.776086629711656" lon="11.122800141287899"><ele>16.0</ele><time>2026-03-22T09:32:06.999Z</time></trkpt><trkpt lat="42.776138261637094" lon="11.122943318228744"><ele>15.999999999999998</ele><time>2026-03-22T09:32:08.999Z</time></trkpt><trkpt lat="42.7762107551665" lon="11.123050153380797"><ele>16.0</ele><time>2026-03-22T09:32:10.999Z</time></trkpt><trkpt lat="42.77633366205526" lon="11.123088826952257"><ele>15.999999999999998</ele><time>2026-03-22T09:32:12.999Z</time></trkpt><trkpt lat="42.776407796407256" lon="11.123069070084588"><ele>16.0</ele><time>2026-03-22T09:32:13.998Z</time></trkpt><trkpt lat="42.776486437617244" lon="11.123053986653465"><ele>16.0</ele><time>2026-03-22T09:32:14.998Z</time></trkpt><trkpt lat="42.776558172712825" lon="11.123105368899548"><ele>16.0</ele><time>2026-03-22T09:32:15.998Z</time></trkpt><trkpt lat="42.776645482980605" lon="11.123148202059586"><ele>15.999999999999998</ele><time>2026-03-22T09:32:16.998Z</time></trkpt><trkpt lat="42.77674851449105" lon="11.1232021563177"><ele>16.0</ele><time>2026-03-22T09:32:17.998Z</time></trkpt><trkpt lat="42.77685087171169" lon="11.123284010075063"><ele>15.5</ele><time>2026-03-22T09:32:18.998Z</time></trkpt><trkpt lat="42.77696564125307" lon="11.123362102878442"><ele>15.0</ele><time>2026-03-22T09:32:19.998Z</time></trkpt><trkpt lat="42.77709112570826" lon="11.12345745864885"><ele>14.5</ele><time>2026-03-22T09:32:20.998Z</time></trkpt><trkpt lat="42.777225952891655" lon="11.123583009751906"><ele>14.0</ele><time>2026-03-22T09:32:21.998Z</time></trkpt><trkpt lat="42.777371433599285" lon="11.123696332258103"><ele>14.0</ele><time>2026-03-22T09:32:22.998Z</time></trkpt><trkpt lat="42.777523804174635" lon="11.123793268930516"><ele>14.0</ele><time>2026-03-22T09:32:23.998Z</time></trkpt><trkpt lat="42.777671935845134" lon="11.123899398439438"><ele>14.0</ele><time>2026-03-22T09:32:24.998Z</time></trkpt><trkpt lat="42.77782935240245" lon="11.123982120704664"><ele>14.333333333333334</ele><time>2026-03-22T09:32:25.998Z</time></trkpt><trkpt lat="42.77798837873768" lon="11.12403712661045"><ele>14.666666666666668</ele><time>2026-03-22T09:32:26.998Z</time></trkpt><trkpt lat="42.77814028175065" lon="11.12406852089328"><ele>15.0</ele><time>2026-03-22T09:32:27.998Z</time></trkpt><trkpt lat="42.77827188736726" lon="11.124097786896908"><ele>15.0</ele><time>2026-03-22T09:32:28.998Z</time></trkpt><trkpt lat="42.77838714960804" lon="11.124130176451574"><ele>15.0</ele><time>2026-03-22T09:32:29.998Z</time></trkpt><trkpt lat="42.778486850808726" lon="11.12415668399288"><ele>15.0</ele><time>2026-03-22T09:32:30.998Z</time></trkpt><trkpt lat="42.778580395900775" lon="11.124186269052926"><ele>15.0</ele><time>2026-03-22T09:32:31.998Z</time></trkpt><trkpt lat="42.77867568192504" lon="11.124219721238395"><ele>15.0</ele><time>2026-03-22T09:32:32.998Z</time></trkpt><trkpt lat="42.7787712027173" lon="11.124261053215307"><ele>14.6</ele><time>2026-03-22T09:32:33.998Z</time></trkpt><trkpt lat="42.778858288418355" lon="11.124308737111507"><ele>14.2</ele><time>2026-03-22T09:32:34.998Z</time></trkpt><trkpt lat="42.77895199673262" lon="11.124355062301236"><ele>13.8</ele><time>2026-03-22T09:32:35.998Z</time></trkpt><trkpt lat="42.77904758522143" lon="11.124403893027667"><ele>13.4</ele><time>2026-03-22T09:32:36.998Z</time></trkpt><trkpt lat="42.77914444200803" lon="11.124451740122927"><ele>13.0</ele><time>2026-03-22T09:32:37.998Z</time></trkpt><trkpt lat="42.779239934528725" lon="11.124503756496484"><ele>13.0</ele><time>2026-03-22T09:32:38.998Z</time></trkpt><trkpt lat="42.77934202194464" lon="11.124555235252043"><ele>13.0</ele><time>2026-03-22T09:32:39.998Z</time></trkpt><trkpt lat="42.779451492843904" lon="11.124632258123869"><ele>13.0</ele><time>2026-03-22T09:32:40.998Z</time></trkpt><trkpt lat="42.77957858555221" lon="11.124699319582575"><ele>13.0</ele><time>2026-03-22T09:32:41.998Z</time></trkpt><trkpt lat="42.77971454841039" lon="11.124770816968336"><ele>12.666666666666666</ele><time>2026-03-22T09:32:42.998Z</time></trkpt><trkpt lat="42.77986000754224" lon="11.124844925338296"><ele>12.333333333333332</ele><time>2026-03-22T09:32:43.998Z</time></trkpt><trkpt lat="42.78000467726331" lon="11.12493452634517"><ele>12.0</ele><time>2026-03-22T09:32:44.998Z</time></trkpt><trkpt lat="42.78016129609004" lon="11.12500703304403"><ele>13.0</ele><time>2026-03-22T09:32:45.998Z</time></trkpt><trkpt lat="42.780319144957694" lon="11.125077319957292"><ele>14.0</ele><time>2026-03-22T09:32:46.998Z</time></trkpt><trkpt lat="42.78047213501506" lon="11.125152846079944"><ele>15.0</ele><time>2026-03-22T09:32:47.998Z</time></trkpt><trkpt lat="42.78061055048986" lon="11.125227000445733"><ele>15.0</ele><time>2026-03-22T09:32:48.998Z</time></trkpt><trkpt lat="42.78073310877751" lon="11.12529407763441"><ele>15.0</ele><time>2026-03-22T09:32:49.998Z</time></trkpt><trkpt lat="42.78082735425839" lon="11.125349698315626"><ele>15.0</ele><time>2026-03-22T09:32:50.998Z</time></trkpt><trkpt lat="42.78090096758869" lon="11.125413428661062"><ele>15.0</ele><time>2026-03-22T09:32:51.998Z</time></trkpt><trkpt lat="42.7809544713444" lon="11.125516697294595"><ele>15.0</ele><time>2026-03-22T09:32:52.998Z</time></trkpt><trkpt lat="42.780992459291674" lon="11.125651146178878"><ele>14.6</ele><time>2026-03-22T09:32:53.998Z</time></trkpt><trkpt lat="42.78104492369741" lon="11.125752900902562"><ele>14.2</ele><time>2026-03-22T09:32:54.998Z</time></trkpt><trkpt lat="42.78112989140634" lon="11.125814879124322"><ele>13.8</ele><time>2026-03-22T09:32:55.998Z</time></trkpt><trkpt lat="42.78123723312433" lon="11.125816622468065"><ele>13.4</ele><time>2026-03-22T09:32:56.998Z</time></trkpt><trkpt lat="42.78134636900682" lon="11.125782514677567"><ele>13.0</ele><time>2026-03-22T09:32:57.998Z</time></trkpt><trkpt lat="42.78142991219716" lon="11.125676063553861"><ele>13.0</ele><time>2026-03-22T09:32:58.998Z</time></trkpt><trkpt lat="42.781553088439125" lon="11.125712284410632"><ele>13.0</ele><time>2026-03-22T09:32:59.998Z</time></trkpt><trkpt lat="42.781654518614374" lon="11.12575174833055"><ele>13.0</ele><time>2026-03-22T09:33:00.998Z</time></trkpt><trkpt lat="42.78176451096978" lon="11.125832909370551"><ele>13.0</ele><time>2026-03-22T09:33:01.998Z</time></trkpt><trkpt lat="42.781890685906085" lon="11.125919146840651"><ele>12.666666666666666</ele><time>2026-03-22T09:33:02.998Z</time></trkpt><trkpt lat="42.78202965194273" lon="11.125986438878705"><ele>12.333333333333332</ele><time>2026-03-22T09:33:03.998Z</time></trkpt><trkpt lat="42.78217857412051" lon="11.126059514998138"><ele>12.0</ele><time>2026-03-22T09:33:04.998Z</time></trkpt><trkpt lat="42.78233715962525" lon="11.126138010109635"><ele>12.0</ele><time>2026-03-22T09:33:06Z</time></trkpt><trkpt lat="42.782504060132524" lon="11.126225018613088"><ele>12.0</ele><time>2026-03-22T09:33:07Z</time></trkpt><trkpt lat="42.782678615273824" lon="11.12631808311821"><ele>12.0</ele><time>2026-03-22T09:33:08Z</time></trkpt><trkpt lat="42.78285931172605" lon="11.126413174911793"><ele>11.666666666666666</ele><time>2026-03-22T09:33:09Z</time></trkpt><trkpt lat="42.78304232879917" lon="11.126511612668072"><ele>11.333333333333332</ele><time>2026-03-22T09:33:10Z</time></trkpt><trkpt lat="42.78322188223022" lon="11.126606010311482"><ele>11.0</ele><time>2026-03-22T09:33:11Z</time></trkpt><trkpt lat="42.78340265800161" lon="11.126701133389009"><ele>12.0</ele><time>2026-03-22T09:33:12Z</time></trkpt><trkpt lat="42.7835833619064" lon="11.126794634487105"><ele>13.0</ele><time>2026-03-22T09:33:13Z</time></trkpt><trkpt lat="42.78376548435815" lon="11.12689331652846"><ele>14.0</ele><time>2026-03-22T09:33:14Z</time></trkpt><trkpt lat="42.78394936460804" lon="11.126993047001383"><ele>14.0</ele><time>2026-03-22T09:33:15Z</time></trkpt><trkpt lat="42.78413584160855" lon="11.127092994192745"><ele>14.0</ele><time>2026-03-22T09:33:16Z</time></trkpt><trkpt lat="42.784322872254414" lon="11.127192595780677"><ele>14.0</ele><time>2026-03-22T09:33:17Z</time></trkpt><trkpt lat="42.78451037745535" lon="11.127291297118953"><ele>13.333333333333334</ele><time>2026-03-22T09:33:18Z</time></trkpt><trkpt lat="42.784698322734975" lon="11.12739126282993"><ele>12.666666666666668</ele><time>2026-03-22T09:33:19Z</time></trkpt><trkpt lat="42.78488345364442" lon="11.127488544851817"><ele>12.0</ele><time>2026-03-22T09:33:20Z</time></trkpt><trkpt lat="42.78506490883844" lon="11.127583016680786"><ele>12.333333333333332</ele><time>2026-03-22T09:33:21Z</time></trkpt><trkpt lat="42.785238980310524" lon="11.127674869463783"><ele>12.666666666666666</ele><time>2026-03-22T09:33:22Z</time></trkpt><trkpt lat="42.785405593093024" lon="11.127761418943182"><ele>13.0</ele><time>2026-03-22T09:33:23Z</time></trkpt><trkpt lat="42.78556425075138" lon="11.127843023570506"><ele>13.0</ele><time>2026-03-22T09:33:23.999Z</time></trkpt><trkpt lat="42.78571339369773" lon="11.127918857732379"><ele>13.0</ele><time>2026-03-22T09:33:24.999Z</time></trkpt><trkpt lat="42.7858541651575" lon="11.127995584284788"><ele>13.0</ele><time>2026-03-22T09:33:25.999Z</time></trkpt><trkpt lat="42.785978593118344" lon="11.128065313940692"><ele>13.0</ele><time>2026-03-22T09:33:26.999Z</time></trkpt><trkpt lat="42.786090455554096" lon="11.128123332921293"><ele>13.0</ele><time>2026-03-22T09:33:27.999Z</time></trkpt><trkpt lat="42.786184355671466" lon="11.128173705912245"><ele>13.0</ele><time>2026-03-22T09:33:28.999Z</time></trkpt><trkpt lat="42.78626160971927" lon="11.128213757915592"><ele>13.0</ele><time>2026-03-22T09:33:29.999Z</time></trkpt><trkpt lat="42.78632164581472" lon="11.128260493479214"><ele>13.0</ele><time>2026-03-22T09:33:30.999Z</time></trkpt><trkpt lat="42.78640765997406" lon="11.128308125556977"><ele>13.0</ele><time>2026-03-22T09:33:32.999Z</time></trkpt><trkpt lat="42.78645137004047" lon="11.128098628536325"><ele>13.25</ele><time>2026-03-22T09:33:36.999Z</time></trkpt><trkpt lat="42.7864546935309" lon="11.12836542834434"><ele>13.5</ele><time>2026-03-22T09:34:28.998Z</time></trkpt><trkpt lat="42.78653114878535" lon="11.128396440169281"><ele>13.75</ele><time>2026-03-22T09:34:29.998Z</time></trkpt><trkpt lat="42.786616328496464" lon="11.128427949873995"><ele>14.0</ele><time>2026-03-22T09:34:30.998Z</time></trkpt><trkpt lat="42.78670654330715" lon="11.128471439079258"><ele>14.0</ele><time>2026-03-22T09:34:31.998Z</time></trkpt><trkpt lat="42.786796311797076" lon="11.128518901124734"><ele>13.999999999999998</ele><time>2026-03-22T09:34:32.998Z</time></trkpt><trkpt lat="42.786879494014286" lon="11.128566419995845"><ele>13.999999999999998</ele><time>2026-03-22T09:34:33.998Z</time></trkpt><trkpt lat="42.7869770551666" lon="11.128615289148023"><ele>14.0</ele><time>2026-03-22T09:34:34.998Z</time></trkpt><trkpt lat="42.78707936583619" lon="11.128668397929259"><ele>14.0</ele><time>2026-03-22T09:34:35.998Z</time></trkpt><trkpt lat="42.7871872942021" lon="11.12872021309864"><ele>14.25</ele><time>2026-03-22T09:34:36.998Z</time></trkpt><trkpt lat="42.787300155901875" lon="11.128777001034134"><ele>14.5</ele><time>2026-03-22T09:34:37.998Z</time></trkpt><trkpt lat="42.78741512423028" lon="11.128836764024138"><ele>14.75</ele><time>2026-03-22T09:34:38.998Z</time></trkpt><trkpt lat="42.787532668347865" lon="11.128897349145864"><ele>15.0</ele><time>2026-03-22T09:34:39.998Z</time></trkpt><trkpt lat="42.78764490368894" lon="11.128954277891067"><ele>15.75</ele><time>2026-03-22T09:34:40.998Z</time></trkpt><trkpt lat="42.78775608726145" lon="11.129010293797748"><ele>16.5</ele><time>2026-03-22T09:34:41.998Z</time></trkpt><trkpt lat="42.78786718560722" lon="11.129063483983526"><ele>17.25</ele><time>2026-03-22T09:34:42.998Z</time></trkpt><trkpt lat="42.78797604728003" lon="11.129125259400267"><ele>18.0</ele><time>2026-03-22T09:34:43.998Z</time></trkpt><trkpt lat="42.7880875044735" lon="11.129183807425242"><ele>18.0</ele><time>2026-03-22T09:34:44.998Z</time></trkpt><trkpt lat="42.78820264782142" lon="11.129239635886476"><ele>18.0</ele><time>2026-03-22T09:34:45.998Z</time></trkpt><trkpt lat="42.788319279445" lon="11.129297336134476"><ele>18.0</ele><time>2026-03-22T09:34:46.998Z</time></trkpt><trkpt lat="42.788433615278606" lon="11.12935504744681"><ele>18.0</ele><time>2026-03-22T09:34:47.998Z</time></trkpt><trkpt lat="42.7885476606613" lon="11.12941876172659"><ele>17.75</ele><time>2026-03-22T09:34:48.998Z</time></trkpt><trkpt lat="42.78866342923126" lon="11.129473859673704"><ele>17.5</ele><time>2026-03-22T09:34:49.998Z</time></trkpt><trkpt lat="42.78877647002964" lon="11.129553905204913"><ele>17.25</ele><time>2026-03-22T09:34:50.998Z</time></trkpt><trkpt lat="42.78889607343909" lon="11.129616848877452"><ele>17.0</ele><time>2026-03-22T09:34:51.998Z</time></trkpt><trkpt lat="42.78902327473382" lon="11.129659604483866"><ele>17.0</ele><time>2026-03-22T09:34:52.998Z</time></trkpt><trkpt lat="42.78914466576963" lon="11.129729147821623"><ele>17.0</ele><time>2026-03-22T09:34:53.998Z</time></trkpt><trkpt lat="42.78926897274351" lon="11.129799465691853"><ele>17.0</ele><time>2026-03-22T09:34:54.998Z</time></trkpt><trkpt lat="42.78939695405822" lon="11.129865397935674"><ele>17.0</ele><time>2026-03-22T09:34:55.998Z</time></trkpt><trkpt lat="42.78952645505224" lon="11.129937536259082"><ele>17.0</ele><time>2026-03-22T09:34:56.998Z</time></trkpt><trkpt lat="42.7896544891541" lon="11.130008869387172"><ele>17.0</ele><time>2026-03-22T09:34:57.998Z</time></trkpt><trkpt lat="42.78979917128852" lon="11.13008337369723"><ele>17.0</ele><time>2026-03-22T09:34:58.998Z</time></trkpt><trkpt lat="42.78994170327112" lon="11.130155313842309"><ele>17.0</ele><time>2026-03-22T09:34:59.998Z</time></trkpt><trkpt lat="42.79008369636374" lon="11.130226052834773"><ele>16.0</ele><time>2026-03-22T09:35:00.998Z</time></trkpt><trkpt lat="42.79023093410731" lon="11.130301366101188"><ele>15.0</ele><time>2026-03-22T09:35:01.998Z</time></trkpt><trkpt lat="42.790374789532564" lon="11.130377814714631"><ele>14.0</ele><time>2026-03-22T09:35:02.998Z</time></trkpt><trkpt lat="42.79052007315063" lon="11.130454239786435"><ele>14.0</ele><time>2026-03-22T09:35:03.998Z</time></trkpt><trkpt lat="42.79066708444829" lon="11.130533435786072"><ele>14.0</ele><time>2026-03-22T09:35:04.998Z</time></trkpt><trkpt lat="42.79081530515821" lon="11.130611010161559"><ele>14.0</ele><time>2026-03-22T09:35:05.998Z</time></trkpt><trkpt lat="42.79096052142365" lon="11.130708307234505"><ele>14.333333333333334</ele><time>2026-03-22T09:35:06.998Z</time></trkpt><trkpt lat="42.791118032390585" lon="11.130771187169259"><ele>14.666666666666668</ele><time>2026-03-22T09:35:07.998Z</time></trkpt><trkpt lat="42.79127176586559" lon="11.130849187212084"><ele>15.0</ele><time>2026-03-22T09:35:08.998Z</time></trkpt><trkpt lat="42.79142826043358" lon="11.130933972811954"><ele>15.0</ele><time>2026-03-22T09:35:09.998Z</time></trkpt><trkpt lat="42.791583312240185" lon="11.13101397259784"><ele>15.0</ele><time>2026-03-22T09:35:11Z</time></trkpt><trkpt lat="42.79173845477854" lon="11.131093767027373"><ele>15.0</ele><time>2026-03-22T09:35:12Z</time></trkpt><trkpt lat="42.79189209136201" lon="11.13117490254072"><ele>14.333333333333332</ele><time>2026-03-22T09:35:13Z</time></trkpt><trkpt lat="42.792047030173656" lon="11.131256361604027"><ele>13.666666666666666</ele><time>2026-03-22T09:35:14Z</time></trkpt><trkpt lat="42.79220499990614" lon="11.131334954331171"><ele>13.0</ele><time>2026-03-22T09:35:15Z</time></trkpt><trkpt lat="42.792361231228575" lon="11.131424895499281"><ele>13.0</ele><time>2026-03-22T09:35:16Z</time></trkpt><trkpt lat="42.792524618314616" lon="11.131493541661953"><ele>13.0</ele><time>2026-03-22T09:35:17Z</time></trkpt><trkpt lat="42.792685576378084" lon="11.131575529407055"><ele>13.0</ele><time>2026-03-22T09:35:18Z</time></trkpt><trkpt lat="42.792849339119684" lon="11.131653850745996"><ele>13.0</ele><time>2026-03-22T09:35:19Z</time></trkpt><trkpt lat="42.793013028929174" lon="11.131730818072718"><ele>13.0</ele><time>2026-03-22T09:35:20Z</time></trkpt><trkpt lat="42.79317771050469" lon="11.131808955365559"><ele>13.0</ele><time>2026-03-22T09:35:21Z</time></trkpt><trkpt lat="42.79334161541065" lon="11.13188977583685"><ele>13.0</ele><time>2026-03-22T09:35:22Z</time></trkpt><trkpt lat="42.79350684206794" lon="11.131970709599283"><ele>13.0</ele><time>2026-03-22T09:35:23Z</time></trkpt><trkpt lat="42.79367173153242" lon="11.132052564702958"><ele>13.0</ele><time>2026-03-22T09:35:24Z</time></trkpt><trkpt lat="42.79383865518866" lon="11.13213312098751"><ele>13.0</ele><time>2026-03-22T09:35:25Z</time></trkpt><trkpt lat="42.79400650528116" lon="11.132213780525733"><ele>13.0</ele><time>2026-03-22T09:35:26Z</time></trkpt><trkpt lat="42.794174246943356" lon="11.132297015491906"><ele>13.0</ele><time>2026-03-22T09:35:26.999Z</time></trkpt><trkpt lat="42.79434135569968" lon="11.13238067132566"><ele>13.333333333333332</ele><time>2026-03-22T09:35:27.999Z</time></trkpt><trkpt lat="42.79451022465444" lon="11.132465083608661"><ele>13.666666666666668</ele><time>2026-03-22T09:35:28.999Z</time></trkpt><trkpt lat="42.79467751779527" lon="11.132551390622055"><ele>14.0</ele><time>2026-03-22T09:35:29.999Z</time></trkpt><trkpt lat="42.79484318006372" lon="11.132641857736505"><ele>14.0</ele><time>2026-03-22T09:35:30.999Z</time></trkpt><trkpt lat="42.79501556117892" lon="11.132724499534973"><ele>14.0</ele><time>2026-03-22T09:35:31.999Z</time></trkpt><trkpt lat="42.795187094102886" lon="11.132805228524367"><ele>14.0</ele><time>2026-03-22T09:35:32.999Z</time></trkpt><trkpt lat="42.79535616107471" lon="11.13288758634957"><ele>13.666666666666668</ele><time>2026-03-22T09:35:33.999Z</time></trkpt><trkpt lat="42.79552535551198" lon="11.132972173463308"><ele>13.333333333333332</ele><time>2026-03-22T09:35:34.999Z</time></trkpt><trkpt lat="42.79568893571344" lon="11.13305579877179"><ele>13.0</ele><time>2026-03-22T09:35:35.999Z</time></trkpt><trkpt lat="42.79585297850346" lon="11.133137501798622"><ele>13.0</ele><time>2026-03-22T09:35:36.999Z</time></trkpt><trkpt lat="42.79601540199844" lon="11.133216331023519"><ele>13.0</ele><time>2026-03-22T09:35:37.999Z</time></trkpt><trkpt lat="42.79617885409213" lon="11.13329760089406"><ele>13.0</ele><time>2026-03-22T09:35:38.999Z</time></trkpt><trkpt lat="42.796342750217356" lon="11.133378909418296"><ele>13.0</ele><time>2026-03-22T09:35:39.999Z</time></trkpt><trkpt lat="42.796507517302175" lon="11.133461117129405"><ele>13.0</ele><time>2026-03-22T09:35:40.999Z</time></trkpt><trkpt lat="42.79667226685633" lon="11.133543986815564"><ele>13.0</ele><time>2026-03-22T09:35:41.999Z</time></trkpt><trkpt lat="42.7968385202648" lon="11.13362270516453"><ele>13.0</ele><time>2026-03-22T09:35:42.999Z</time></trkpt><trkpt lat="42.79699821710561" lon="11.133724760223027"><ele>13.0</ele><time>2026-03-22T09:35:43.999Z</time></trkpt><trkpt lat="42.79717045282677" lon="11.133790868076563"><ele>13.0</ele><time>2026-03-22T09:35:44.999Z</time></trkpt><trkpt lat="42.797335190730216" lon="11.133874539544825"><ele>13.0</ele><time>2026-03-22T09:35:45.999Z</time></trkpt><trkpt lat="42.797502723320484" lon="11.133958881104505"><ele>13.0</ele><time>2026-03-22T09:35:46.999Z</time></trkpt><trkpt lat="42.797667403786136" lon="11.134041153066706"><ele>13.0</ele><time>2026-03-22T09:35:47.999Z</time></trkpt><trkpt lat="42.79782614583828" lon="11.134120500269582"><ele>13.333333333333332</ele><time>2026-03-22T09:35:48.999Z</time></trkpt><trkpt lat="42.797984638788186" lon="11.13419666846759"><ele>13.666666666666668</ele><time>2026-03-22T09:35:49.999Z</time></trkpt><trkpt lat="42.79813947716547" lon="11.134273436674448"><ele>14.0</ele><time>2026-03-22T09:35:50.999Z</time></trkpt><trkpt lat="42.798291976371026" lon="11.134349254447942"><ele>14.0</ele><time>2026-03-22T09:35:51.999Z</time></trkpt><trkpt lat="42.798441119644984" lon="11.134424295412872"><ele>14.0</ele><time>2026-03-22T09:35:52.999Z</time></trkpt><trkpt lat="42.798592865136435" lon="11.134500467397217"><ele>14.0</ele><time>2026-03-22T09:35:53.999Z</time></trkpt><trkpt lat="42.79874170881115" lon="11.134575288292199"><ele>14.25</ele><time>2026-03-22T09:35:54.999Z</time></trkpt><trkpt lat="42.79888369969637" lon="11.134644475228235"><ele>14.5</ele><time>2026-03-22T09:35:55.999Z</time></trkpt><trkpt lat="42.79902032287656" lon="11.134709579129241"><ele>14.75</ele><time>2026-03-22T09:35:56.999Z</time></trkpt><trkpt lat="42.799148274218624" lon="11.134780246356081"><ele>15.0</ele><time>2026-03-22T09:35:57.999Z</time></trkpt><trkpt lat="42.79926497635064" lon="11.134856169902882"><ele>15.25</ele><time>2026-03-22T09:35:58.999Z</time></trkpt><trkpt lat="42.799367003164086" lon="11.134943913226035"><ele>15.5</ele><time>2026-03-22T09:35:59.999Z</time></trkpt><trkpt lat="42.79945960261691" lon="11.135040601954744"><ele>15.75</ele><time>2026-03-22T09:36:00.999Z</time></trkpt><trkpt lat="42.79953530910849" lon="11.135164347302862"><ele>16.0</ele><time>2026-03-22T09:36:01.999Z</time></trkpt><trkpt lat="42.799597774005605" lon="11.13530657915755"><ele>16.0</ele><time>2026-03-22T09:36:02.999Z</time></trkpt><trkpt lat="42.79965773077935" lon="11.135445742263437"><ele>16.0</ele><time>2026-03-22T09:36:03.999Z</time></trkpt><trkpt lat="42.7997365811899" lon="11.135572240762045"><ele>16.0</ele><time>2026-03-22T09:36:04.999Z</time></trkpt><trkpt lat="42.79984104124202" lon="11.13567296595522"><ele>16.0</ele><time>2026-03-22T09:36:05.999Z</time></trkpt><trkpt lat="42.799962140756605" lon="11.135753365712299"><ele>15.75</ele><time>2026-03-22T09:36:06.999Z</time></trkpt><trkpt lat="42.80009002427514" lon="11.13581385962506"><ele>15.5</ele><time>2026-03-22T09:36:07.999Z</time></trkpt><trkpt lat="42.80022458269317" lon="11.13584253568408"><ele>15.25</ele><time>2026-03-22T09:36:08.999Z</time></trkpt><trkpt lat="42.80036271631198" lon="11.135836963014212"><ele>15.0</ele><time>2026-03-22T09:36:09.999Z</time></trkpt><trkpt lat="42.80049909833544" lon="11.135798435979542"><ele>15.0</ele><time>2026-03-22T09:36:10.999Z</time></trkpt><trkpt lat="42.80063520602313" lon="11.135745723983657"><ele>15.0</ele><time>2026-03-22T09:36:11.999Z</time></trkpt><trkpt lat="42.80077573702463" lon="11.13571976894777"><ele>15.0</ele><time>2026-03-22T09:36:12.999Z</time></trkpt><trkpt lat="42.800917728327285" lon="11.135730561743587"><ele>15.0</ele><time>2026-03-22T09:36:13.999Z</time></trkpt><trkpt lat="42.80105909668079" lon="11.135767533620593"><ele>15.25</ele><time>2026-03-22T09:36:14.999Z</time></trkpt><trkpt lat="42.801195831690904" lon="11.135823232756527"><ele>15.5</ele><time>2026-03-22T09:36:15.999Z</time></trkpt><trkpt lat="42.80133504820383" lon="11.135891824503414"><ele>15.75</ele><time>2026-03-22T09:36:16.999Z</time></trkpt><trkpt lat="42.801474103875634" lon="11.13596284522202"><ele>16.0</ele><time>2026-03-22T09:36:17.999Z</time></trkpt><trkpt lat="42.80161765677465" lon="11.136033683835455"><ele>16.0</ele><time>2026-03-22T09:36:18.999Z</time></trkpt><trkpt lat="42.80175538350997" lon="11.136123354791021"><ele>16.0</ele><time>2026-03-22T09:36:19.999Z</time></trkpt><trkpt lat="42.80189837291438" lon="11.136195040352135"><ele>16.0</ele><time>2026-03-22T09:36:20.999Z</time></trkpt><trkpt lat="42.80204124895131" lon="11.136266669077768"><ele>16.333333333333332</ele><time>2026-03-22T09:36:21.999Z</time></trkpt><trkpt lat="42.80218284028751" lon="11.136337653738845"><ele>16.666666666666668</ele><time>2026-03-22T09:36:22.998Z</time></trkpt><trkpt lat="42.80232363041541" lon="11.136409808726443"><ele>17.0</ele><time>2026-03-22T09:36:23.998Z</time></trkpt><trkpt lat="42.8024673948722" lon="11.136477215871121"><ele>17.0</ele><time>2026-03-22T09:36:24.998Z</time></trkpt><trkpt lat="42.80261133168812" lon="11.136535821174917"><ele>17.0</ele><time>2026-03-22T09:36:25.998Z</time></trkpt><trkpt lat="42.80274872707276" lon="11.136624079982523"><ele>17.0</ele><time>2026-03-22T09:36:26.998Z</time></trkpt><trkpt lat="42.8028974811356" lon="11.136682088094256"><ele>17.666666666666668</ele><time>2026-03-22T09:36:27.998Z</time></trkpt><trkpt lat="42.80304488562645" lon="11.136726331716737"><ele>18.333333333333332</ele><time>2026-03-22T09:36:28.998Z</time></trkpt><trkpt lat="42.80319367223771" lon="11.136768156264917"><ele>19.0</ele><time>2026-03-22T09:36:29.998Z</time></trkpt><trkpt lat="42.80334076729019" lon="11.136808390533812"><ele>19.0</ele><time>2026-03-22T09:36:30.998Z</time></trkpt><trkpt lat="42.803490694999816" lon="11.136828796921657"><ele>19.0</ele><time>2026-03-22T09:36:31.998Z</time></trkpt><trkpt lat="42.803638420246436" lon="11.13687039253691"><ele>19.0</ele><time>2026-03-22T09:36:32.998Z</time></trkpt><trkpt lat="42.8037852607393" lon="11.136914019025717"><ele>19.0</ele><time>2026-03-22T09:36:33.998Z</time></trkpt><trkpt lat="42.803932293770444" lon="11.136956862215348"><ele>19.0</ele><time>2026-03-22T09:36:34.998Z</time></trkpt><trkpt lat="42.80407536626613" lon="11.136994811469885"><ele>19.0</ele><time>2026-03-22T09:36:35.998Z</time></trkpt><trkpt lat="42.80421913273684" lon="11.13705835460291"><ele>19.0</ele><time>2026-03-22T09:36:36.998Z</time></trkpt><trkpt lat="42.80436867042939" lon="11.1371006508164"><ele>19.666666666666664</ele><time>2026-03-22T09:36:37.998Z</time></trkpt><trkpt lat="42.80451774168599" lon="11.137142815037688"><ele>20.333333333333332</ele><time>2026-03-22T09:36:38.998Z</time></trkpt><trkpt lat="42.804664508319334" lon="11.137184327439556"><ele>21.0</ele><time>2026-03-22T09:36:39.998Z</time></trkpt><trkpt lat="42.80481546131251" lon="11.137227023941788"><ele>21.0</ele><time>2026-03-22T09:36:40.998Z</time></trkpt><trkpt lat="42.80496734478037" lon="11.13726998359472"><ele>21.0</ele><time>2026-03-22T09:36:41.998Z</time></trkpt><trkpt lat="42.80511898571277" lon="11.137312874723227"><ele>21.0</ele><time>2026-03-22T09:36:42.998Z</time></trkpt><trkpt lat="42.805267817669396" lon="11.137354971232615"><ele>21.0</ele><time>2026-03-22T09:36:43.998Z</time></trkpt><trkpt lat="42.805415213956344" lon="11.137396661714426"><ele>21.0</ele><time>2026-03-22T09:36:44.998Z</time></trkpt><trkpt lat="42.8055634257346" lon="11.137437584211762"><ele>21.0</ele><time>2026-03-22T09:36:45.998Z</time></trkpt><trkpt lat="42.805714897774706" lon="11.137456623415215"><ele>21.0</ele><time>2026-03-22T09:36:46.998Z</time></trkpt><trkpt lat="42.80586273505617" lon="11.137512658195773"><ele>21.0</ele><time>2026-03-22T09:36:47.998Z</time></trkpt><trkpt lat="42.806009904570324" lon="11.137543206398657"><ele>21.0</ele><time>2026-03-22T09:36:48.998Z</time></trkpt><trkpt lat="42.806155920371054" lon="11.137583351534731"><ele>21.25</ele><time>2026-03-22T09:36:49.998Z</time></trkpt><trkpt lat="42.80629670990795" lon="11.137618411801698"><ele>21.5</ele><time>2026-03-22T09:36:50.998Z</time></trkpt><trkpt lat="42.80642647735207" lon="11.137654490088199"><ele>21.75</ele><time>2026-03-22T09:36:51.998Z</time></trkpt><trkpt lat="42.8065494551427" lon="11.137710404029841"><ele>22.0</ele><time>2026-03-22T09:36:52.998Z</time></trkpt><trkpt lat="42.806669975455634" lon="11.137744644349503"><ele>22.0</ele><time>2026-03-22T09:36:53.998Z</time></trkpt><trkpt lat="42.80678894824375" lon="11.137778194086046"><ele>22.0</ele><time>2026-03-22T09:36:54.998Z</time></trkpt><trkpt lat="42.806905946636405" lon="11.137810138992196"><ele>22.0</ele><time>2026-03-22T09:36:55.998Z</time></trkpt><trkpt lat="42.80701881673638" lon="11.13784047334193"><ele>22.0</ele><time>2026-03-22T09:36:56.998Z</time></trkpt><trkpt lat="42.80712834602874" lon="11.137870260593255"><ele>22.400000000000002</ele><time>2026-03-22T09:36:57.998Z</time></trkpt><trkpt lat="42.80723589512633" lon="11.137903462111415"><ele>22.8</ele><time>2026-03-22T09:36:58.998Z</time></trkpt><trkpt lat="42.807337995752995" lon="11.13793911404288"><ele>23.2</ele><time>2026-03-22T09:36:59.998Z</time></trkpt><trkpt lat="42.80743630052425" lon="11.137977883880467"><ele>23.6</ele><time>2026-03-22T09:37:00.998Z</time></trkpt><trkpt lat="42.807527072488625" lon="11.138015263126038"><ele>24.0</ele><time>2026-03-22T09:37:01.998Z</time></trkpt><trkpt lat="42.80761248231378" lon="11.138051154137095"><ele>24.0</ele><time>2026-03-22T09:37:02.998Z</time></trkpt><trkpt lat="42.80769544982308" lon="11.138086018826789"><ele>24.0</ele><time>2026-03-22T09:37:03.998Z</time></trkpt><trkpt lat="42.8077741410517" lon="11.138119086545233"><ele>24.0</ele><time>2026-03-22T09:37:04.998Z</time></trkpt><trkpt lat="42.80784599836219" lon="11.138149282478214"><ele>24.0</ele><time>2026-03-22T09:37:05.998Z</time></trkpt><trkpt lat="42.80791610277524" lon="11.13817923238142"><ele>24.0</ele><time>2026-03-22T09:37:06.998Z</time></trkpt><trkpt lat="42.80797878102212" lon="11.138210634526096"><ele>24.0</ele><time>2026-03-22T09:37:07.998Z</time></trkpt><trkpt lat="42.808026340513834" lon="11.13828721508999"><ele>24.0</ele><time>2026-03-22T09:37:08.998Z</time></trkpt><trkpt lat="42.80807093019709" lon="11.138385326668764"><ele>24.0</ele><time>2026-03-22T09:37:09.998Z</time></trkpt><trkpt lat="42.80811897486146" lon="11.138495612125661"><ele>24.0</ele><time>2026-03-22T09:37:10.998Z</time></trkpt><trkpt lat="42.80814558277182" lon="11.13862914521352"><ele>24.0</ele><time>2026-03-22T09:37:11.998Z</time></trkpt><trkpt lat="42.808137034259595" lon="11.138782241758166"><ele>24.0</ele><time>2026-03-22T09:37:12.998Z</time></trkpt><trkpt lat="42.808104692189204" lon="11.138953372857525"><ele>24.25</ele><time>2026-03-22T09:37:13.998Z</time></trkpt><trkpt lat="42.8080731351521" lon="11.139138724141954"><ele>24.5</ele><time>2026-03-22T09:37:14.998Z</time></trkpt><trkpt lat="42.808032716151615" lon="11.139322163184154"><ele>24.75</ele><time>2026-03-22T09:37:15.998Z</time></trkpt><trkpt lat="42.80797616423118" lon="11.139510343061152"><ele>25.0</ele><time>2026-03-22T09:37:16.999Z</time></trkpt><trkpt lat="42.80790578441574" lon="11.139702248583069"><ele>25.0</ele><time>2026-03-22T09:37:17.999Z</time></trkpt><trkpt lat="42.80781686486812" lon="11.139892634922365"><ele>25.0</ele><time>2026-03-22T09:37:18.999Z</time></trkpt><trkpt lat="42.80772331954328" lon="11.140085636314922"><ele>25.0</ele><time>2026-03-22T09:37:19.999Z</time></trkpt><trkpt lat="42.807614618940995" lon="11.140256277063433"><ele>23.666666666666668</ele><time>2026-03-22T09:37:20.999Z</time></trkpt><trkpt lat="42.80752291533869" lon="11.140452971246045"><ele>22.333333333333336</ele><time>2026-03-22T09:37:21.999Z</time></trkpt><trkpt lat="42.807418497315645" lon="11.140638634991408"><ele>21.0</ele><time>2026-03-22T09:37:22.999Z</time></trkpt><trkpt lat="42.80731429640214" lon="11.140830745944761"><ele>21.0</ele><time>2026-03-22T09:37:23.999Z</time></trkpt><trkpt lat="42.80720940429458" lon="11.141026266676665"><ele>21.0</ele><time>2026-03-22T09:37:24.999Z</time></trkpt><trkpt lat="42.80710269908508" lon="11.141224909853138"><ele>21.0</ele><time>2026-03-22T09:37:25.999Z</time></trkpt><trkpt lat="42.806994370174365" lon="11.141426931212477"><ele>21.0</ele><time>2026-03-22T09:37:26.999Z</time></trkpt><trkpt lat="42.806884314589844" lon="11.141633056255232"><ele>21.0</ele><time>2026-03-22T09:37:27.999Z</time></trkpt><trkpt lat="42.80675854902658" lon="11.141829498595717"><ele>21.0</ele><time>2026-03-22T09:37:28.999Z</time></trkpt><trkpt lat="42.80664434162744" lon="11.142040372500981"><ele>21.0</ele><time>2026-03-22T09:37:29.999Z</time></trkpt><trkpt lat="42.806529046603096" lon="11.142253255125073"><ele>21.0</ele><time>2026-03-22T09:37:30.999Z</time></trkpt><trkpt lat="42.806412959705014" lon="11.142467600517259"><ele>21.0</ele><time>2026-03-22T09:37:31.999Z</time></trkpt><trkpt lat="42.80629436449599" lon="11.142683871300289"><ele>21.0</ele><time>2026-03-22T09:37:32.999Z</time></trkpt><trkpt lat="42.8061751501532" lon="11.142901365959558"><ele>21.0</ele><time>2026-03-22T09:37:33.999Z</time></trkpt><trkpt lat="42.806071939901265" lon="11.143124220825394"><ele>21.0</ele><time>2026-03-22T09:37:34.999Z</time></trkpt><trkpt lat="42.805959078478296" lon="11.143331062111706"><ele>21.333333333333332</ele><time>2026-03-22T09:37:35.999Z</time></trkpt><trkpt lat="42.80584613871222" lon="11.143538483772474"><ele>21.666666666666664</ele><time>2026-03-22T09:37:36.999Z</time></trkpt><trkpt lat="42.805731090672055" lon="11.143741856274016"><ele>22.0</ele><time>2026-03-22T09:37:37.999Z</time></trkpt><trkpt lat="42.80561220163183" lon="11.143940930192732"><ele>22.333333333333332</ele><time>2026-03-22T09:37:38.999Z</time></trkpt><trkpt lat="42.80547992918068" lon="11.144127783713639"><ele>22.666666666666668</ele><time>2026-03-22T09:37:39.999Z</time></trkpt><trkpt lat="42.80532614279113" lon="11.144280481454741"><ele>23.0</ele><time>2026-03-22T09:37:40.999Z</time></trkpt><trkpt lat="42.80517048836108" lon="11.144396983367342"><ele>22.333333333333336</ele><time>2026-03-22T09:37:41.999Z</time></trkpt><trkpt lat="42.80500428593381" lon="11.144485571376906"><ele>21.666666666666668</ele><time>2026-03-22T09:37:42.999Z</time></trkpt><trkpt lat="42.804823987117864" lon="11.144527770885098"><ele>21.0</ele><time>2026-03-22T09:37:43.999Z</time></trkpt><trkpt lat="42.80464662362379" lon="11.144587079118304"><ele>21.0</ele><time>2026-03-22T09:37:44.999Z</time></trkpt><trkpt lat="42.80446878959193" lon="11.144646544674066"><ele>21.0</ele><time>2026-03-22T09:37:45.999Z</time></trkpt><trkpt lat="42.80428771305918" lon="11.144707094466337"><ele>21.0</ele><time>2026-03-22T09:37:46.999Z</time></trkpt><trkpt lat="42.80410183841154" lon="11.144769248695221"><ele>20.666666666666668</ele><time>2026-03-22T09:37:47.999Z</time></trkpt><trkpt lat="42.80390646543364" lon="11.144834580775365"><ele>20.333333333333336</ele><time>2026-03-22T09:37:48.999Z</time></trkpt><trkpt lat="42.803710323118395" lon="11.144923442269167"><ele>20.0</ele><time>2026-03-22T09:37:49.999Z</time></trkpt><trkpt lat="42.803504219643216" lon="11.144988542377812"><ele>20.0</ele><time>2026-03-22T09:37:50.999Z</time></trkpt><trkpt lat="42.80329346779313" lon="11.145056159483898"><ele>20.0</ele><time>2026-03-22T09:37:51.999Z</time></trkpt><trkpt lat="42.803078530714295" lon="11.145125985831664"><ele>20.0</ele><time>2026-03-22T09:37:52.999Z</time></trkpt><trkpt lat="42.802862610183304" lon="11.14519707038498"><ele>19.0</ele><time>2026-03-22T09:37:53.999Z</time></trkpt><trkpt lat="42.802644208780855" lon="11.145270657929231"><ele>18.0</ele><time>2026-03-22T09:37:54.999Z</time></trkpt><trkpt lat="42.80242609860598" lon="11.145347173279742"><ele>18.0</ele><time>2026-03-22T09:37:55.999Z</time></trkpt><trkpt lat="42.80220599045499" lon="11.14542147124328"><ele>18.0</ele><time>2026-03-22T09:37:56.999Z</time></trkpt><trkpt lat="42.80198353286952" lon="11.145494087806783"><ele>17.0</ele><time>2026-03-22T09:37:57.999Z</time></trkpt><trkpt lat="42.80175900285956" lon="11.145569083266478"><ele>16.0</ele><time>2026-03-22T09:37:58.999Z</time></trkpt><trkpt lat="42.801534812104634" lon="11.14564269646683"><ele>17.5</ele><time>2026-03-22T09:37:59.999Z</time></trkpt><trkpt lat="42.80131019255226" lon="11.145717325502723"><ele>19.0</ele><time>2026-03-22T09:38:00.999Z</time></trkpt><trkpt lat="42.80108386804132" lon="11.145789268049587"><ele>17.5</ele><time>2026-03-22T09:38:01.999Z</time></trkpt><trkpt lat="42.800856720768905" lon="11.145863458550323"><ele>16.0</ele><time>2026-03-22T09:38:02.999Z</time></trkpt><trkpt lat="42.80062883448784" lon="11.145937732277076"><ele>16.0</ele><time>2026-03-22T09:38:03.999Z</time></trkpt><trkpt lat="42.80039954694695" lon="11.146013815946267"><ele>16.0</ele><time>2026-03-22T09:38:04.999Z</time></trkpt><trkpt lat="42.800172910425864" lon="11.146092723405614"><ele>17.0</ele><time>2026-03-22T09:38:05.999Z</time></trkpt><trkpt lat="42.799944155067315" lon="11.146170544320901"><ele>18.0</ele><time>2026-03-22T09:38:06.999Z</time></trkpt><trkpt lat="42.799714941820746" lon="11.146247707978757"><ele>18.0</ele><time>2026-03-22T09:38:07.999Z</time></trkpt><trkpt lat="42.79948091557697" lon="11.146302780990407"><ele>18.0</ele><time>2026-03-22T09:38:08.999Z</time></trkpt><trkpt lat="42.799250294412445" lon="11.146378636026363"><ele>16.5</ele><time>2026-03-22T09:38:09.999Z</time></trkpt><trkpt lat="42.79901943970785" lon="11.146454569322021"><ele>15.0</ele><time>2026-03-22T09:38:10.999Z</time></trkpt><trkpt lat="42.79878750203962" lon="11.146530857222867"><ele>15.5</ele><time>2026-03-22T09:38:11.999Z</time></trkpt><trkpt lat="42.79855539298083" lon="11.146607393069786"><ele>16.0</ele><time>2026-03-22T09:38:12.999Z</time></trkpt><trkpt lat="42.798322515638496" lon="11.146684615331884"><ele>16.0</ele><time>2026-03-22T09:38:13.999Z</time></trkpt><trkpt lat="42.79808902661542" lon="11.146762040405978"><ele>16.0</ele><time>2026-03-22T09:38:14.999Z</time></trkpt><trkpt lat="42.79785795464423" lon="11.146839163135466"><ele>15.5</ele><time>2026-03-22T09:38:15.999Z</time></trkpt><trkpt lat="42.79762379941369" lon="11.146917681466421"><ele>15.0</ele><time>2026-03-22T09:38:16.999Z</time></trkpt><trkpt lat="42.797391239569244" lon="11.147001362351864"><ele>15.0</ele><time>2026-03-22T09:38:17.999Z</time></trkpt><trkpt lat="42.797172025721096" lon="11.147123565590865"><ele>15.0</ele><time>2026-03-22T09:38:18.999Z</time></trkpt><trkpt lat="42.796950392002856" lon="11.147250336471311"><ele>15.5</ele><time>2026-03-22T09:38:19.999Z</time></trkpt><trkpt lat="42.79674135964592" lon="11.14740549097503"><ele>16.0</ele><time>2026-03-22T09:38:20.999Z</time></trkpt><trkpt lat="42.796553163068545" lon="11.147592965056774"><ele>16.0</ele><time>2026-03-22T09:38:21.999Z</time></trkpt><trkpt lat="42.79636375412831" lon="11.147780364705575"><ele>16.0</ele><time>2026-03-22T09:38:22.999Z</time></trkpt><trkpt lat="42.79617083541906" lon="11.147971992510866"><ele>16.0</ele><time>2026-03-22T09:38:23.999Z</time></trkpt><trkpt lat="42.795986951599374" lon="11.148160279705156"><ele>16.0</ele><time>2026-03-22T09:38:24.999Z</time></trkpt><trkpt lat="42.79581059179686" lon="11.148359880527476"><ele>16.0</ele><time>2026-03-22T09:38:25.999Z</time></trkpt><trkpt lat="42.79563609399615" lon="11.148552761592533"><ele>16.0</ele><time>2026-03-22T09:38:26.999Z</time></trkpt><trkpt lat="42.795465087058346" lon="11.148746042722584"><ele>16.0</ele><time>2026-03-22T09:38:27.999Z</time></trkpt><trkpt lat="42.79528195358974" lon="11.14893174899882"><ele>14.666666666666666</ele><time>2026-03-22T09:38:28.999Z</time></trkpt><trkpt lat="42.79515920595122" lon="11.14908751400975"><ele>13.333333333333332</ele><time>2026-03-22T09:38:29.999Z</time></trkpt><trkpt lat="42.79503826409637" lon="11.14923198040214"><ele>12.0</ele><time>2026-03-22T09:38:30.999Z</time></trkpt><trkpt lat="42.794930257226866" lon="11.149358058402616"><ele>12.0</ele><time>2026-03-22T09:38:31.999Z</time></trkpt><trkpt lat="42.7948217870087" lon="11.149487392789474"><ele>12.0</ele><time>2026-03-22T09:38:32.998Z</time></trkpt><trkpt lat="42.794703653349856" lon="11.149641593792401"><ele>12.0</ele><time>2026-03-22T09:38:33.998Z</time></trkpt><trkpt lat="42.79457843181044" lon="11.149800750793851"><ele>12.333333333333332</ele><time>2026-03-22T09:38:34.998Z</time></trkpt><trkpt lat="42.79442812696507" lon="11.149947252770021"><ele>12.666666666666666</ele><time>2026-03-22T09:38:35.998Z</time></trkpt><trkpt lat="42.79426820996639" lon="11.1500968080216"><ele>13.0</ele><time>2026-03-22T09:38:36.998Z</time></trkpt><trkpt lat="42.79410820917687" lon="11.150272139050236"><ele>13.0</ele><time>2026-03-22T09:38:37.998Z</time></trkpt><trkpt lat="42.79394138180622" lon="11.150456893285492"><ele>13.0</ele><time>2026-03-22T09:38:38.998Z</time></trkpt><trkpt lat="42.793768394206786" lon="11.15064705956264"><ele>13.0</ele><time>2026-03-22T09:38:39.998Z</time></trkpt><trkpt lat="42.79359560671591" lon="11.150833312386666"><ele>13.0</ele><time>2026-03-22T09:38:40.998Z</time></trkpt><trkpt lat="42.79342347537971" lon="11.151023275750495"><ele>13.0</ele><time>2026-03-22T09:38:41.998Z</time></trkpt><trkpt lat="42.793249335562" lon="11.151211665286144"><ele>13.0</ele><time>2026-03-22T09:38:42.998Z</time></trkpt><trkpt lat="42.793068261785166" lon="11.151408141344042"><ele>13.0</ele><time>2026-03-22T09:38:43.998Z</time></trkpt><trkpt lat="42.79287739502664" lon="11.151602764255683"><ele>13.0</ele><time>2026-03-22T09:38:44.998Z</time></trkpt><trkpt lat="42.79269388353232" lon="11.151799538435164"><ele>12.5</ele><time>2026-03-22T09:38:45.998Z</time></trkpt><trkpt lat="42.79251172596276" lon="11.152000813564866"><ele>12.0</ele><time>2026-03-22T09:38:46.998Z</time></trkpt><trkpt lat="42.79232694018284" lon="11.152201727673924"><ele>12.5</ele><time>2026-03-22T09:38:47.998Z</time></trkpt><trkpt lat="42.79213839730094" lon="11.152405566118036"><ele>13.0</ele><time>2026-03-22T09:38:48.998Z</time></trkpt><trkpt lat="42.79195341770543" lon="11.152614591118908"><ele>12.0</ele><time>2026-03-22T09:38:49.998Z</time></trkpt><trkpt lat="42.79175971888097" lon="11.152818142027655"><ele>11.0</ele><time>2026-03-22T09:38:50.998Z</time></trkpt><trkpt lat="42.79156774538335" lon="11.153026705705075"><ele>11.5</ele><time>2026-03-22T09:38:51.998Z</time></trkpt><trkpt lat="42.791375779985145" lon="11.153233270035836"><ele>12.0</ele><time>2026-03-22T09:38:52.998Z</time></trkpt><trkpt lat="42.79118608423362" lon="11.153437587665595"><ele>12.0</ele><time>2026-03-22T09:38:53.998Z</time></trkpt><trkpt lat="42.790996792569246" lon="11.15364479311142"><ele>12.0</ele><time>2026-03-22T09:38:54.998Z</time></trkpt><trkpt lat="42.79080760896678" lon="11.15384534391418"><ele>12.5</ele><time>2026-03-22T09:38:55.998Z</time></trkpt><trkpt lat="42.790621914587184" lon="11.154041795065698"><ele>13.0</ele><time>2026-03-22T09:38:56.998Z</time></trkpt><trkpt lat="42.790442246394434" lon="11.154234777191265"><ele>13.0</ele><time>2026-03-22T09:38:57.998Z</time></trkpt><trkpt lat="42.790262441976694" lon="11.15442796206749"><ele>13.0</ele><time>2026-03-22T09:38:58.998Z</time></trkpt><trkpt lat="42.790086712398654" lon="11.154620403717015"><ele>12.666666666666666</ele><time>2026-03-22T09:38:59.998Z</time></trkpt><trkpt lat="42.78991709223367" lon="11.15480542856141"><ele>12.333333333333332</ele><time>2026-03-22T09:39:00.998Z</time></trkpt><trkpt lat="42.78975998944094" lon="11.154988704801394"><ele>12.0</ele><time>2026-03-22T09:39:01.998Z</time></trkpt><trkpt lat="42.78960743461386" lon="11.155157403498556"><ele>12.0</ele><time>2026-03-22T09:39:02.998Z</time></trkpt><trkpt lat="42.789466871259776" lon="11.155310017528274"><ele>12.0</ele><time>2026-03-22T09:39:03.998Z</time></trkpt><trkpt lat="42.78933769725683" lon="11.155450543893767"><ele>12.0</ele><time>2026-03-22T09:39:04.998Z</time></trkpt><trkpt lat="42.789217233700285" lon="11.155578012893601"><ele>11.75</ele><time>2026-03-22T09:39:05.998Z</time></trkpt><trkpt lat="42.78910192827976" lon="11.155697963501442"><ele>11.5</ele><time>2026-03-22T09:39:06.998Z</time></trkpt><trkpt lat="42.78898891446897" lon="11.155817052674307"><ele>11.25</ele><time>2026-03-22T09:39:07.998Z</time></trkpt><trkpt lat="42.7888702268585" lon="11.155959765293307"><ele>11.0</ele><time>2026-03-22T09:39:08.998Z</time></trkpt><trkpt lat="42.78874513151301" lon="11.156116299327495"><ele>11.0</ele><time>2026-03-22T09:39:09.998Z</time></trkpt><trkpt lat="42.78859687359036" lon="11.156260892373783"><ele>11.0</ele><time>2026-03-22T09:39:10.998Z</time></trkpt><trkpt lat="42.78843775361551" lon="11.156400359168794"><ele>11.0</ele><time>2026-03-22T09:39:11.998Z</time></trkpt><trkpt lat="42.788281244156785" lon="11.156561903606272"><ele>11.333333333333332</ele><time>2026-03-22T09:39:12.998Z</time></trkpt><trkpt lat="42.788127684906726" lon="11.15673723115182"><ele>11.666666666666666</ele><time>2026-03-22T09:39:13.998Z</time></trkpt><trkpt lat="42.78796967405522" lon="11.156917658128505"><ele>12.0</ele><time>2026-03-22T09:39:14.998Z</time></trkpt><trkpt lat="42.78780467989378" lon="11.157097611694732"><ele>11.666666666666666</ele><time>2026-03-22T09:39:15.998Z</time></trkpt><trkpt lat="42.78763111948749" lon="11.1572757752551"><ele>11.333333333333332</ele><time>2026-03-22T09:39:16.998Z</time></trkpt><trkpt lat="42.78745790420713" lon="11.157457004507776"><ele>11.0</ele><time>2026-03-22T09:39:17.998Z</time></trkpt><trkpt lat="42.78728891704953" lon="11.157637362152062"><ele>11.0</ele><time>2026-03-22T09:39:18.998Z</time></trkpt><trkpt lat="42.78711960037" lon="11.157820904733576"><ele>11.0</ele><time>2026-03-22T09:39:19.998Z</time></trkpt><trkpt lat="42.78695039732413" lon="11.158007385448318"><ele>11.0</ele><time>2026-03-22T09:39:20.998Z</time></trkpt><trkpt lat="42.786780789299605" lon="11.158194256993164"><ele>11.666666666666666</ele><time>2026-03-22T09:39:21.998Z</time></trkpt><trkpt lat="42.78661339465237" lon="11.158383616318709"><ele>12.333333333333332</ele><time>2026-03-22T09:39:22.999Z</time></trkpt><trkpt lat="42.786450188124164" lon="11.15858144393425"><ele>13.0</ele><time>2026-03-22T09:39:23.999Z</time></trkpt><trkpt lat="42.786291854057964" lon="11.15878674447481"><ele>13.0</ele><time>2026-03-22T09:39:24.999Z</time></trkpt><trkpt lat="42.786137334860946" lon="11.158997970686762"><ele>13.0</ele><time>2026-03-22T09:39:25.999Z</time></trkpt><trkpt lat="42.78598053502278" lon="11.159211104798597"><ele>13.0</ele><time>2026-03-22T09:39:26.999Z</time></trkpt><trkpt lat="42.78582328881568" lon="11.159424434980346"><ele>13.0</ele><time>2026-03-22T09:39:27.999Z</time></trkpt><trkpt lat="42.785666093986684" lon="11.15964085826946"><ele>13.0</ele><time>2026-03-22T09:39:28.999Z</time></trkpt><trkpt lat="42.785508996702916" lon="11.159857573246875"><ele>13.0</ele><time>2026-03-22T09:39:29.999Z</time></trkpt><trkpt lat="42.785348821705824" lon="11.160074905368887"><ele>14.0</ele><time>2026-03-22T09:39:30.999Z</time></trkpt><trkpt lat="42.78518773166687" lon="11.160290345536248"><ele>15.0</ele><time>2026-03-22T09:39:31.999Z</time></trkpt><trkpt lat="42.785028281402" lon="11.16050761598199"><ele>15.333333333333332</ele><time>2026-03-22T09:39:32.999Z</time></trkpt><trkpt lat="42.78487907027047" lon="11.160723083230343"><ele>15.666666666666666</ele><time>2026-03-22T09:39:33.999Z</time></trkpt><trkpt lat="42.78471849614109" lon="11.160906936165668"><ele>16.0</ele><time>2026-03-22T09:39:34.999Z</time></trkpt><trkpt lat="42.78456684689468" lon="11.161112925177397"><ele>16.0</ele><time>2026-03-22T09:39:35.999Z</time></trkpt><trkpt lat="42.784412714828875" lon="11.161322017391138"><ele>16.0</ele><time>2026-03-22T09:39:36.999Z</time></trkpt><trkpt lat="42.784256540069315" lon="11.161533732209996"><ele>16.0</ele><time>2026-03-22T09:39:37.999Z</time></trkpt><trkpt lat="42.78410560647654" lon="11.161757929128727"><ele>16.5</ele><time>2026-03-22T09:39:38.999Z</time></trkpt><trkpt lat="42.78394602580919" lon="11.161974040282486"><ele>17.0</ele><time>2026-03-22T09:39:39.999Z</time></trkpt><trkpt lat="42.783787647497185" lon="11.162194704080765"><ele>17.0</ele><time>2026-03-22T09:39:40.999Z</time></trkpt><trkpt lat="42.783629141056736" lon="11.162414015062621"><ele>17.0</ele><time>2026-03-22T09:39:41.999Z</time></trkpt><trkpt lat="42.78346874776441" lon="11.162632461177626"><ele>17.0</ele><time>2026-03-22T09:39:42.999Z</time></trkpt><trkpt lat="42.78330908520903" lon="11.162851679036427"><ele>17.0</ele><time>2026-03-22T09:39:43.999Z</time></trkpt><trkpt lat="42.783146337577435" lon="11.16307131009136"><ele>17.5</ele><time>2026-03-22T09:39:44.999Z</time></trkpt><trkpt lat="42.78298271063325" lon="11.163291388979125"><ele>18.0</ele><time>2026-03-22T09:39:45.999Z</time></trkpt><trkpt lat="42.782818261125854" lon="11.163512576941487"><ele>18.5</ele><time>2026-03-22T09:39:46.999Z</time></trkpt><trkpt lat="42.78265435575423" lon="11.163735688279806"><ele>19.0</ele><time>2026-03-22T09:39:47.999Z</time></trkpt><trkpt lat="42.78249227214227" lon="11.1639566166961"><ele>20.0</ele><time>2026-03-22T09:39:48.999Z</time></trkpt><trkpt lat="42.78233140255857" lon="11.16417705161168"><ele>21.0</ele><time>2026-03-22T09:39:49.999Z</time></trkpt><trkpt lat="42.78217101288023" lon="11.164396959955097"><ele>21.0</ele><time>2026-03-22T09:39:50.999Z</time></trkpt><trkpt lat="42.78201163793929" lon="11.164615822954541"><ele>21.0</ele><time>2026-03-22T09:39:51.999Z</time></trkpt><trkpt lat="42.781841038307434" lon="11.16481796981649"><ele>22.666666666666664</ele><time>2026-03-22T09:39:52.999Z</time></trkpt><trkpt lat="42.78168225709298" lon="11.165033136131958"><ele>24.333333333333332</ele><time>2026-03-22T09:39:53.999Z</time></trkpt><trkpt lat="42.78152394874524" lon="11.16524728186234"><ele>26.0</ele><time>2026-03-22T09:39:54.999Z</time></trkpt><trkpt lat="42.78137910726519" lon="11.16547655439531"><ele>26.0</ele><time>2026-03-22T09:39:55.999Z</time></trkpt><trkpt lat="42.78122207598818" lon="11.165687122054363"><ele>26.0</ele><time>2026-03-22T09:39:56.999Z</time></trkpt><trkpt lat="42.781066827320316" lon="11.165897338376302"><ele>26.0</ele><time>2026-03-22T09:39:57.999Z</time></trkpt><trkpt lat="42.78091322869275" lon="11.166107300694735"><ele>27.0</ele><time>2026-03-22T09:39:58.999Z</time></trkpt><trkpt lat="42.78076949594979" lon="11.1663234001439"><ele>28.0</ele><time>2026-03-22T09:39:59.999Z</time></trkpt><trkpt lat="42.780643390686784" lon="11.166563670167836"><ele>29.0</ele><time>2026-03-22T09:40:00.999Z</time></trkpt><trkpt lat="42.78053889231015" lon="11.166826984363393"><ele>30.0</ele><time>2026-03-22T09:40:01.999Z</time></trkpt><trkpt lat="42.780448000048835" lon="11.167108663946212"><ele>31.0</ele><time>2026-03-22T09:40:02.999Z</time></trkpt><trkpt lat="42.78034855781505" lon="11.167393853737005"><ele>32.0</ele><time>2026-03-22T09:40:03.999Z</time></trkpt><trkpt lat="42.78026667249193" lon="11.167692776641834"><ele>33.0</ele><time>2026-03-22T09:40:04.999Z</time></trkpt><trkpt lat="42.78018492302815" lon="11.16799120391666"><ele>32.0</ele><time>2026-03-22T09:40:05.999Z</time></trkpt><trkpt lat="42.78010230328256" lon="11.168292807702215"><ele>31.0</ele><time>2026-03-22T09:40:06.999Z</time></trkpt><trkpt lat="42.78001932342816" lon="11.168595726123746"><ele>31.0</ele><time>2026-03-22T09:40:07.999Z</time></trkpt><trkpt lat="42.779952777717455" lon="11.168905927781974"><ele>31.0</ele><time>2026-03-22T09:40:08.999Z</time></trkpt><trkpt lat="42.779856699541156" lon="11.16919635176051"><ele>31.5</ele><time>2026-03-22T09:40:09.999Z</time></trkpt><trkpt lat="42.77977669071491" lon="11.169491884521275"><ele>32.0</ele><time>2026-03-22T09:40:10.999Z</time></trkpt><trkpt lat="42.7796980433928" lon="11.169782388229219"><ele>32.0</ele><time>2026-03-22T09:40:11.999Z</time></trkpt><trkpt lat="42.77962156493174" lon="11.170064880654932"><ele>32.0</ele><time>2026-03-22T09:40:12.999Z</time></trkpt><trkpt lat="42.77954796282824" lon="11.17033674866746"><ele>32.0</ele><time>2026-03-22T09:40:13.999Z</time></trkpt><trkpt lat="42.77948014197528" lon="11.170585674829479"><ele>32.0</ele><time>2026-03-22T09:40:14.999Z</time></trkpt><trkpt lat="42.77941914552534" lon="11.1708048732587"><ele>32.0</ele><time>2026-03-22T09:40:15.999Z</time></trkpt><trkpt lat="42.779371454238486" lon="11.171012938981775"><ele>32.0</ele><time>2026-03-22T09:40:16.999Z</time></trkpt><trkpt lat="42.77931210901145" lon="11.17119241024846"><ele>32.0</ele><time>2026-03-22T09:40:17.999Z</time></trkpt><trkpt lat="42.77925218853" lon="11.17136835512188"><ele>32.0</ele><time>2026-03-22T09:40:18.999Z</time></trkpt><trkpt lat="42.779188994196126" lon="11.17155786302585"><ele>32.0</ele><time>2026-03-22T09:40:19.999Z</time></trkpt><trkpt lat="42.779108849195914" lon="11.171754269309535"><ele>32.0</ele><time>2026-03-22T09:40:20.999Z</time></trkpt><trkpt lat="42.779001160545626" lon="11.171945229160405"><ele>32.0</ele><time>2026-03-22T09:40:21.999Z</time></trkpt><trkpt lat="42.778884574206536" lon="11.172134509904437"><ele>32.0</ele><time>2026-03-22T09:40:22.999Z</time></trkpt><trkpt lat="42.778771236354764" lon="11.172335759881793"><ele>32.33333333333333</ele><time>2026-03-22T09:40:23.999Z</time></trkpt><trkpt lat="42.77866151173289" lon="11.172551366841454"><ele>32.666666666666664</ele><time>2026-03-22T09:40:24.999Z</time></trkpt><trkpt lat="42.778550525877584" lon="11.172773076949973"><ele>33.0</ele><time>2026-03-22T09:40:25.999Z</time></trkpt><trkpt lat="42.778435806803294" lon="11.172991001822805"><ele>33.0</ele><time>2026-03-22T09:40:26.999Z</time></trkpt><trkpt lat="42.77832284213724" lon="11.173204690420077"><ele>33.0</ele><time>2026-03-22T09:40:27.999Z</time></trkpt><trkpt lat="42.77821684817873" lon="11.17341063873099"><ele>33.0</ele><time>2026-03-22T09:40:28.999Z</time></trkpt><trkpt lat="42.7781165872397" lon="11.173603783448446"><ele>33.0</ele><time>2026-03-22T09:40:29.999Z</time></trkpt><trkpt lat="42.778021642135734" lon="11.17378419225501"><ele>33.0</ele><time>2026-03-22T09:40:30.999Z</time></trkpt><trkpt lat="42.77793256190546" lon="11.17395242800103"><ele>33.0</ele><time>2026-03-22T09:40:31.999Z</time></trkpt><trkpt lat="42.77785014273603" lon="11.174106677642392"><ele>33.666666666666664</ele><time>2026-03-22T09:40:32.999Z</time></trkpt><trkpt lat="42.777779648135756" lon="11.174228122953105"><ele>34.333333333333336</ele><time>2026-03-22T09:40:33.999Z</time></trkpt><trkpt lat="42.77771988292764" lon="11.174318203655487"><ele>35.0</ele><time>2026-03-22T09:40:34.999Z</time></trkpt><trkpt lat="42.77767101136338" lon="11.174383773227653"><ele>35.66666666666667</ele><time>2026-03-22T09:40:35.999Z</time></trkpt><trkpt lat="42.777618256238945" lon="11.17445207902592"><ele>36.333333333333336</ele><time>2026-03-22T09:40:37.999Z</time></trkpt><trkpt lat="42.77758123397401" lon="11.17453725146235"><ele>37.0</ele><time>2026-03-22T09:40:46.998Z</time></trkpt><trkpt lat="42.777674388947375" lon="11.174701177261243"><ele>37.0</ele><time>2026-03-22T09:40:48.998Z</time></trkpt><trkpt lat="42.777744054353896" lon="11.174780608899582"><ele>37.0</ele><time>2026-03-22T09:40:49.998Z</time></trkpt><trkpt lat="42.77782596460689" lon="11.174890401138644"><ele>37.0</ele><time>2026-03-22T09:40:50.998Z</time></trkpt><trkpt lat="42.77790596026955" lon="11.17501217168836"><ele>37.0</ele><time>2026-03-22T09:40:51.998Z</time></trkpt><trkpt lat="42.777993458335686" lon="11.175136762363858"><ele>37.25</ele><time>2026-03-22T09:40:52.998Z</time></trkpt><trkpt lat="42.77808991636239" lon="11.17527033765196"><ele>37.5</ele><time>2026-03-22T09:40:53.998Z</time></trkpt><trkpt lat="42.77819243300347" lon="11.175415856917846"><ele>37.75</ele><time>2026-03-22T09:40:54.998Z</time></trkpt><trkpt lat="42.77830042656443" lon="11.175562589129036"><ele>38.0</ele><time>2026-03-22T09:40:55.998Z</time></trkpt><trkpt lat="42.778408548664565" lon="11.17570941932427"><ele>36.666666666666664</ele><time>2026-03-22T09:40:56.998Z</time></trkpt><trkpt lat="42.778519656115805" lon="11.175860922231594"><ele>35.333333333333336</ele><time>2026-03-22T09:40:57.998Z</time></trkpt><trkpt lat="42.77863474878814" lon="11.176020515551299"><ele>34.0</ele><time>2026-03-22T09:40:58.998Z</time></trkpt><trkpt lat="42.77874869462218" lon="11.176181225569042"><ele>34.0</ele><time>2026-03-22T09:40:59.998Z</time></trkpt><trkpt lat="42.77886463155128" lon="11.176334686367332"><ele>34.0</ele><time>2026-03-22T09:41:00.998Z</time></trkpt><trkpt lat="42.77897878466144" lon="11.176487649230348"><ele>34.0</ele><time>2026-03-22T09:41:01.998Z</time></trkpt><trkpt lat="42.779090256087855" lon="11.176636664347875"><ele>34.5</ele><time>2026-03-22T09:41:02.998Z</time></trkpt><trkpt lat="42.779198485563214" lon="11.17678281278588"><ele>35.0</ele><time>2026-03-22T09:41:03.998Z</time></trkpt><trkpt lat="42.7793046187818" lon="11.176924995274112"><ele>35.5</ele><time>2026-03-22T09:41:04.998Z</time></trkpt><trkpt lat="42.7794084370727" lon="11.177067022873242"><ele>36.0</ele><time>2026-03-22T09:41:05.998Z</time></trkpt><trkpt lat="42.779511160030744" lon="11.177204265389697"><ele>36.0</ele><time>2026-03-22T09:41:06.998Z</time></trkpt><trkpt lat="42.779610568714865" lon="11.17733912624266"><ele>36.0</ele><time>2026-03-22T09:41:07.998Z</time></trkpt><trkpt lat="42.779705404656546" lon="11.177472231256065"><ele>36.0</ele><time>2026-03-22T09:41:08.998Z</time></trkpt><trkpt lat="42.77979398283363" lon="11.177599967485046"><ele>36.0</ele><time>2026-03-22T09:41:09.998Z</time></trkpt><trkpt lat="42.77988071594694" lon="11.177712952446697"><ele>36.5</ele><time>2026-03-22T09:41:10.998Z</time></trkpt><trkpt lat="42.77996115580167" lon="11.177818273815152"><ele>37.0</ele><time>2026-03-22T09:41:11.998Z</time></trkpt><trkpt lat="42.78004117568476" lon="11.177926614873808"><ele>37.5</ele><time>2026-03-22T09:41:12.998Z</time></trkpt><trkpt lat="42.78012496843579" lon="11.178045612894188"><ele>38.0</ele><time>2026-03-22T09:41:13.998Z</time></trkpt><trkpt lat="42.78021149256564" lon="11.178168337842003"><ele>38.0</ele><time>2026-03-22T09:41:14.998Z</time></trkpt><trkpt lat="42.78029954362538" lon="11.178294825651564"><ele>38.0</ele><time>2026-03-22T09:41:15.998Z</time></trkpt><trkpt lat="42.78039150731771" lon="11.178425133621282"><ele>38.0</ele><time>2026-03-22T09:41:16.998Z</time></trkpt><trkpt lat="42.78047772165391" lon="11.178568455562077"><ele>38.0</ele><time>2026-03-22T09:41:17.998Z</time></trkpt><trkpt lat="42.78055347278881" lon="11.178728780312271"><ele>38.0</ele><time>2026-03-22T09:41:18.998Z</time></trkpt><trkpt lat="42.78062864887478" lon="11.1788962752521"><ele>38.0</ele><time>2026-03-22T09:41:19.998Z</time></trkpt><trkpt lat="42.780696826980005" lon="11.179071076488768"><ele>38.0</ele><time>2026-03-22T09:41:20.998Z</time></trkpt><trkpt lat="42.78076323673246" lon="11.179253283927409"><ele>38.0</ele><time>2026-03-22T09:41:21.998Z</time></trkpt><trkpt lat="42.78082660917887" lon="11.179444113158157"><ele>38.33333333333333</ele><time>2026-03-22T09:41:22.998Z</time></trkpt><trkpt lat="42.78088670379121" lon="11.179643433546055"><ele>38.666666666666664</ele><time>2026-03-22T09:41:23.998Z</time></trkpt><trkpt lat="42.780946010859324" lon="11.179844106742163"><ele>39.0</ele><time>2026-03-22T09:41:24.998Z</time></trkpt><trkpt lat="42.7810086456025" lon="11.180043660242157"><ele>37.666666666666664</ele><time>2026-03-22T09:41:25.998Z</time></trkpt><trkpt lat="42.78106753646316" lon="11.18023767277308"><ele>36.33333333333333</ele><time>2026-03-22T09:41:26.998Z</time></trkpt><trkpt lat="42.78112520079548" lon="11.18042917888193"><ele>35.0</ele><time>2026-03-22T09:41:27.999Z</time></trkpt><trkpt lat="42.78118159468542" lon="11.18061102499154"><ele>34.25</ele><time>2026-03-22T09:41:28.999Z</time></trkpt><trkpt lat="42.78123678507071" lon="11.180791371430534"><ele>33.5</ele><time>2026-03-22T09:41:29.999Z</time></trkpt><trkpt lat="42.78128819633455" lon="11.180970641456463"><ele>32.75</ele><time>2026-03-22T09:41:30.999Z</time></trkpt><trkpt lat="42.781343978824964" lon="11.181158929754224"><ele>32.0</ele><time>2026-03-22T09:41:31.999Z</time></trkpt><trkpt lat="42.7813907693887" lon="11.181359921057487"><ele>31.0</ele><time>2026-03-22T09:41:32.999Z</time></trkpt><trkpt lat="42.7814137649633" lon="11.181572396923157"><ele>30.0</ele><time>2026-03-22T09:41:33.999Z</time></trkpt><trkpt lat="42.781406759701085" lon="11.181793447830444"><ele>29.0</ele><time>2026-03-22T09:41:34.999Z</time></trkpt><trkpt lat="42.781366459910494" lon="11.182015774223476"><ele>29.0</ele><time>2026-03-22T09:41:35.999Z</time></trkpt><trkpt lat="42.78128522461789" lon="11.182221717764666"><ele>29.0</ele><time>2026-03-22T09:41:36.999Z</time></trkpt><trkpt lat="42.781179090901624" lon="11.182410542159914"><ele>29.0</ele><time>2026-03-22T09:41:37.999Z</time></trkpt><trkpt lat="42.78104552070638" lon="11.182582882255195"><ele>28.333333333333332</ele><time>2026-03-22T09:41:38.999Z</time></trkpt><trkpt lat="42.780898754509245" lon="11.182743224286959"><ele>27.666666666666664</ele><time>2026-03-22T09:41:39.999Z</time></trkpt><trkpt lat="42.78074868036643" lon="11.18291489592559"><ele>27.0</ele><time>2026-03-22T09:41:40.999Z</time></trkpt><trkpt lat="42.780593083653294" lon="11.183096174583735"><ele>27.0</ele><time>2026-03-22T09:41:41.999Z</time></trkpt><trkpt lat="42.78043278122097" lon="11.18327906271278"><ele>27.0</ele><time>2026-03-22T09:41:42.999Z</time></trkpt><trkpt lat="42.7802705981538" lon="11.183463531003754"><ele>27.0</ele><time>2026-03-22T09:41:43.999Z</time></trkpt><trkpt lat="42.78010393534122" lon="11.183650332850204"><ele>27.0</ele><time>2026-03-22T09:41:44.999Z</time></trkpt><trkpt lat="42.77993519758545" lon="11.183837009901637"><ele>27.0</ele><time>2026-03-22T09:41:45.999Z</time></trkpt><trkpt lat="42.77976809432529" lon="11.184025170899131"><ele>27.0</ele><time>2026-03-22T09:41:46.999Z</time></trkpt><trkpt lat="42.7796026961874" lon="11.184209679400556"><ele>26.333333333333336</ele><time>2026-03-22T09:41:47.999Z</time></trkpt><trkpt lat="42.779433030430845" lon="11.184398870710336"><ele>25.666666666666668</ele><time>2026-03-22T09:41:48.999Z</time></trkpt><trkpt lat="42.77926392687408" lon="11.184590377681998"><ele>25.0</ele><time>2026-03-22T09:41:49.999Z</time></trkpt><trkpt lat="42.7791013439147" lon="11.184792648173316"><ele>27.0</ele><time>2026-03-22T09:41:50.999Z</time></trkpt><trkpt lat="42.778953456462126" lon="11.185015436340192"><ele>29.0</ele><time>2026-03-22T09:41:51.999Z</time></trkpt><trkpt lat="42.77880644318261" lon="11.185241486199555"><ele>31.0</ele><time>2026-03-22T09:41:52.999Z</time></trkpt><trkpt lat="42.77870083420974" lon="11.185513271565643"><ele>32.5</ele><time>2026-03-22T09:41:53.999Z</time></trkpt><trkpt lat="42.778587412969415" lon="11.185780967850778"><ele>34.0</ele><time>2026-03-22T09:41:54.999Z</time></trkpt><trkpt lat="42.77847977287073" lon="11.186055710017703"><ele>28.0</ele><time>2026-03-22T09:41:55.999Z</time></trkpt><trkpt lat="42.778368870777335" lon="11.186331834962202"><ele>22.0</ele><time>2026-03-22T09:41:56.999Z</time></trkpt><trkpt lat="42.778255963252654" lon="11.186605478128092"><ele>21.5</ele><time>2026-03-22T09:41:57.999Z</time></trkpt><trkpt lat="42.77814436890168" lon="11.186881082585165"><ele>21.0</ele><time>2026-03-22T09:41:58.999Z</time></trkpt><trkpt lat="42.77803231161764" lon="11.187157205238313"><ele>20.5</ele><time>2026-03-22T09:41:59.999Z</time></trkpt><trkpt lat="42.77792231875036" lon="11.187437481337385"><ele>20.0</ele><time>2026-03-22T09:42:00.999Z</time></trkpt><trkpt lat="42.77779603317509" lon="11.18770585646706"><ele>20.0</ele><time>2026-03-22T09:42:01.999Z</time></trkpt><trkpt lat="42.77769807886235" lon="11.187995769605298"><ele>20.0</ele><time>2026-03-22T09:42:02.999Z</time></trkpt><trkpt lat="42.77758505667184" lon="11.188272889922263"><ele>19.0</ele><time>2026-03-22T09:42:03.999Z</time></trkpt><trkpt lat="42.777473050886286" lon="11.188552087639028"><ele>18.0</ele><time>2026-03-22T09:42:04.999Z</time></trkpt><trkpt lat="42.777346795536495" lon="11.188819287355658"><ele>19.5</ele><time>2026-03-22T09:42:05.999Z</time></trkpt><trkpt lat="42.77723367002111" lon="11.18909737452686"><ele>21.0</ele><time>2026-03-22T09:42:06.999Z</time></trkpt><trkpt lat="42.77713279154156" lon="11.189384726448063"><ele>21.0</ele><time>2026-03-22T09:42:07.999Z</time></trkpt><trkpt lat="42.77702179757442" lon="11.189659298094957"><ele>21.0</ele><time>2026-03-22T09:42:08.999Z</time></trkpt><trkpt lat="42.77691463179093" lon="11.18993185894364"><ele>20.0</ele><time>2026-03-22T09:42:09.999Z</time></trkpt><trkpt lat="42.776800245973504" lon="11.190193473429028"><ele>19.0</ele><time>2026-03-22T09:42:10.999Z</time></trkpt><trkpt lat="42.77671345784094" lon="11.190470785333625"><ele>18.0</ele><time>2026-03-22T09:42:11.999Z</time></trkpt><trkpt lat="42.776647554001016" lon="11.19076213162431"><ele>18.0</ele><time>2026-03-22T09:42:12.999Z</time></trkpt><trkpt lat="42.77660228598642" lon="11.19105586763823"><ele>18.0</ele><time>2026-03-22T09:42:13.999Z</time></trkpt><trkpt lat="42.77657316716399" lon="11.191352153059965"><ele>18.0</ele><time>2026-03-22T09:42:14.999Z</time></trkpt><trkpt lat="42.776589021170544" lon="11.191652478407836"><ele>19.0</ele><time>2026-03-22T09:42:15.999Z</time></trkpt><trkpt lat="42.77659895619651" lon="11.191947558546248"><ele>20.0</ele><time>2026-03-22T09:42:16.999Z</time></trkpt><trkpt lat="42.77662770823336" lon="11.19224038937738"><ele>21.0</ele><time>2026-03-22T09:42:17.999Z</time></trkpt><trkpt lat="42.776680274551424" lon="11.19253012745521"><ele>19.666666666666668</ele><time>2026-03-22T09:42:18.999Z</time></trkpt><trkpt lat="42.776755505451824" lon="11.192813326124115"><ele>18.333333333333336</ele><time>2026-03-22T09:42:19.999Z</time></trkpt><trkpt lat="42.77681977987499" lon="11.193103865613264"><ele>17.0</ele><time>2026-03-22T09:42:20.999Z</time></trkpt><trkpt lat="42.776898673978735" lon="11.193387352220263"><ele>17.0</ele><time>2026-03-22T09:42:21.999Z</time></trkpt><trkpt lat="42.77700557112321" lon="11.193660384286135"><ele>17.0</ele><time>2026-03-22T09:42:22.999Z</time></trkpt><trkpt lat="42.77705889743925" lon="11.193954763329298"><ele>17.333333333333336</ele><time>2026-03-22T09:42:23.999Z</time></trkpt><trkpt lat="42.777109116312474" lon="11.194246732048464"><ele>17.666666666666668</ele><time>2026-03-22T09:42:24.999Z</time></trkpt><trkpt lat="42.77717801515065" lon="11.194524993261519"><ele>18.0</ele><time>2026-03-22T09:42:25.999Z</time></trkpt><trkpt lat="42.7772631327717" lon="11.194790012429644"><ele>20.0</ele><time>2026-03-22T09:42:26.999Z</time></trkpt><trkpt lat="42.77736889829614" lon="11.195032579414766"><ele>22.0</ele><time>2026-03-22T09:42:27.999Z</time></trkpt><trkpt lat="42.7775001158025" lon="11.195256823485646"><ele>24.0</ele><time>2026-03-22T09:42:28.999Z</time></trkpt><trkpt lat="42.77765428520642" lon="11.195451208909715"><ele>22.333333333333332</ele><time>2026-03-22T09:42:29.999Z</time></trkpt><trkpt lat="42.777820456598654" lon="11.195649176969331"><ele>20.666666666666664</ele><time>2026-03-22T09:42:30.999Z</time></trkpt><trkpt lat="42.777971447746516" lon="11.195860092142873"><ele>19.0</ele><time>2026-03-22T09:42:31.999Z</time></trkpt><trkpt lat="42.77810741177235" lon="11.196082504193061"><ele>19.0</ele><time>2026-03-22T09:42:32.999Z</time></trkpt><trkpt lat="42.77823031246916" lon="11.196318391845915"><ele>19.0</ele><time>2026-03-22T09:42:33.999Z</time></trkpt><trkpt lat="42.778349574523965" lon="11.196555153444644"><ele>19.0</ele><time>2026-03-22T09:42:34.999Z</time></trkpt><trkpt lat="42.7784902382628" lon="11.19677781228039"><ele>18.0</ele><time>2026-03-22T09:42:35.999Z</time></trkpt><trkpt lat="42.778653204851196" lon="11.196975167281304"><ele>17.0</ele><time>2026-03-22T09:42:36.999Z</time></trkpt><trkpt lat="42.77882395947643" lon="11.197141514236622"><ele>16.0</ele><time>2026-03-22T09:42:37.999Z</time></trkpt><trkpt lat="42.77900487701375" lon="11.197296091377051"><ele>16.666666666666664</ele><time>2026-03-22T09:42:38.999Z</time></trkpt><trkpt lat="42.77919238042638" lon="11.19743022028393"><ele>17.333333333333332</ele><time>2026-03-22T09:42:39.999Z</time></trkpt><trkpt lat="42.77937665861752" lon="11.197561624715624"><ele>18.0</ele><time>2026-03-22T09:42:40.999Z</time></trkpt><trkpt lat="42.7795441077834" lon="11.197708085378984"><ele>18.0</ele><time>2026-03-22T09:42:41.999Z</time></trkpt><trkpt lat="42.77967930070588" lon="11.197895991075649"><ele>18.0</ele><time>2026-03-22T09:42:42.999Z</time></trkpt><trkpt lat="42.77979108469348" lon="11.19810584742587"><ele>18.0</ele><time>2026-03-22T09:42:43.999Z</time></trkpt><trkpt lat="42.77986743937255" lon="11.198339931790457"><ele>20.0</ele><time>2026-03-22T09:42:44.999Z</time></trkpt><trkpt lat="42.77989785010093" lon="11.198591533558972"><ele>22.0</ele><time>2026-03-22T09:42:45.998Z</time></trkpt><trkpt lat="42.77987497841502" lon="11.19885269076242"><ele>24.0</ele><time>2026-03-22T09:42:46.998Z</time></trkpt><trkpt lat="42.77983268166551" lon="11.199104261450316"><ele>24.0</ele><time>2026-03-22T09:42:47.998Z</time></trkpt><trkpt lat="42.77976549758936" lon="11.19934392470932"><ele>24.0</ele><time>2026-03-22T09:42:48.998Z</time></trkpt><trkpt lat="42.77966578649825" lon="11.19956566798121"><ele>24.0</ele><time>2026-03-22T09:42:49.998Z</time></trkpt><trkpt lat="42.77956007920195" lon="11.199804937426293"><ele>22.0</ele><time>2026-03-22T09:42:50.998Z</time></trkpt><trkpt lat="42.779451934425516" lon="11.200035424501351"><ele>20.0</ele><time>2026-03-22T09:42:51.998Z</time></trkpt><trkpt lat="42.77934048822818" lon="11.200260301571634"><ele>18.0</ele><time>2026-03-22T09:42:52.998Z</time></trkpt><trkpt lat="42.77922498894538" lon="11.20047674115581"><ele>20.0</ele><time>2026-03-22T09:42:53.998Z</time></trkpt><trkpt lat="42.77908926244649" lon="11.20068415637448"><ele>22.0</ele><time>2026-03-22T09:42:54.998Z</time></trkpt><trkpt lat="42.778994469552245" lon="11.200899388324427"><ele>24.0</ele><time>2026-03-22T09:42:55.998Z</time></trkpt><trkpt lat="42.778870848726406" lon="11.201107662786509"><ele>24.0</ele><time>2026-03-22T09:42:56.998Z</time></trkpt><trkpt lat="42.778723023364776" lon="11.201310548174709"><ele>24.0</ele><time>2026-03-22T09:42:57.998Z</time></trkpt><trkpt lat="42.7785774655539" lon="11.201524325970153"><ele>24.0</ele><time>2026-03-22T09:42:58.998Z</time></trkpt><trkpt lat="42.7784378243515" lon="11.201741372428122"><ele>24.666666666666664</ele><time>2026-03-22T09:42:59.998Z</time></trkpt><trkpt lat="42.778300609535435" lon="11.201959025043166"><ele>25.333333333333332</ele><time>2026-03-22T09:43:00.998Z</time></trkpt><trkpt lat="42.77817139646059" lon="11.20217563322045"><ele>26.0</ele><time>2026-03-22T09:43:01.998Z</time></trkpt><trkpt lat="42.77805423681982" lon="11.202400788741143"><ele>23.333333333333332</ele><time>2026-03-22T09:43:02.998Z</time></trkpt><trkpt lat="42.77798118311314" lon="11.20264688692684"><ele>20.666666666666664</ele><time>2026-03-22T09:43:03.998Z</time></trkpt><trkpt lat="42.777921326050866" lon="11.202902119721779"><ele>18.0</ele><time>2026-03-22T09:43:04.998Z</time></trkpt><trkpt lat="42.777902030852886" lon="11.203173158691406"><ele>18.0</ele><time>2026-03-22T09:43:05.998Z</time></trkpt><trkpt lat="42.77791066549302" lon="11.203451641399939"><ele>18.0</ele><time>2026-03-22T09:43:06.998Z</time></trkpt><trkpt lat="42.7779336310124" lon="11.203754988570754"><ele>18.0</ele><time>2026-03-22T09:43:07.998Z</time></trkpt><trkpt lat="42.77795584121112" lon="11.20405423311986"><ele>18.0</ele><time>2026-03-22T09:43:08.998Z</time></trkpt><trkpt lat="42.77797759925694" lon="11.204359135735388"><ele>18.0</ele><time>2026-03-22T09:43:09.998Z</time></trkpt><trkpt lat="42.77799507192556" lon="11.204670777999246"><ele>18.0</ele><time>2026-03-22T09:43:10.998Z</time></trkpt><trkpt lat="42.7780146809428" lon="11.204960941157474"><ele>18.0</ele><time>2026-03-22T09:43:11.998Z</time></trkpt><trkpt lat="42.77803401145702" lon="11.205270018874302"><ele>18.0</ele><time>2026-03-22T09:43:12.998Z</time></trkpt><trkpt lat="42.778057340114955" lon="11.205578731569194"><ele>18.5</ele><time>2026-03-22T09:43:13.998Z</time></trkpt><trkpt lat="42.778082317405655" lon="11.205884601209778"><ele>19.0</ele><time>2026-03-22T09:43:14.998Z</time></trkpt><trkpt lat="42.77811016093567" lon="11.206196291305348"><ele>18.5</ele><time>2026-03-22T09:43:15.998Z</time></trkpt><trkpt lat="42.778135400467235" lon="11.206516232469488"><ele>18.0</ele><time>2026-03-22T09:43:16.998Z</time></trkpt><trkpt lat="42.778159914716255" lon="11.206832028881792"><ele>18.0</ele><time>2026-03-22T09:43:17.998Z</time></trkpt><trkpt lat="42.77818447165819" lon="11.207147908170494"><ele>18.0</ele><time>2026-03-22T09:43:18.998Z</time></trkpt><trkpt lat="42.77820988973261" lon="11.207466121484444"><ele>18.0</ele><time>2026-03-22T09:43:19.998Z</time></trkpt><trkpt lat="42.778234921096406" lon="11.207787319823666"><ele>18.0</ele><time>2026-03-22T09:43:20.998Z</time></trkpt><trkpt lat="42.77826261471261" lon="11.20810425321884"><ele>18.5</ele><time>2026-03-22T09:43:21.998Z</time></trkpt><trkpt lat="42.77828891202988" lon="11.208424742976502"><ele>19.0</ele><time>2026-03-22T09:43:22.998Z</time></trkpt><trkpt lat="42.778310873371304" lon="11.208744718484763"><ele>18.5</ele><time>2026-03-22T09:43:23.998Z</time></trkpt><trkpt lat="42.77833368778732" lon="11.209067326749544"><ele>18.0</ele><time>2026-03-22T09:43:24.998Z</time></trkpt><trkpt lat="42.778358495950485" lon="11.20938915200619"><ele>18.0</ele><time>2026-03-22T09:43:25.998Z</time></trkpt><trkpt lat="42.77836592269508" lon="11.209715216886972"><ele>18.0</ele><time>2026-03-22T09:43:26.998Z</time></trkpt><trkpt lat="42.778389836522734" lon="11.210035980269518"><ele>18.5</ele><time>2026-03-22T09:43:27.998Z</time></trkpt><trkpt lat="42.77841327469751" lon="11.210354481831851"><ele>19.0</ele><time>2026-03-22T09:43:28.998Z</time></trkpt><trkpt lat="42.77843682837265" lon="11.21067455289564"><ele>20.5</ele><time>2026-03-22T09:43:29.998Z</time></trkpt><trkpt lat="42.778475864864376" lon="11.210992276603644"><ele>22.0</ele><time>2026-03-22T09:43:30.998Z</time></trkpt><trkpt lat="42.778498119432165" lon="11.211314497034026"><ele>22.0</ele><time>2026-03-22T09:43:31.998Z</time></trkpt><trkpt lat="42.77851898391493" lon="11.211637290414785"><ele>22.0</ele><time>2026-03-22T09:43:32.998Z</time></trkpt><trkpt lat="42.778536484366185" lon="11.211961241835782"><ele>22.0</ele><time>2026-03-22T09:43:33.999Z</time></trkpt><trkpt lat="42.778557939012984" lon="11.212288538529926"><ele>22.0</ele><time>2026-03-22T09:43:35Z</time></trkpt><trkpt lat="42.77857842452582" lon="11.212615575421628"><ele>23.0</ele><time>2026-03-22T09:43:35.999Z</time></trkpt><trkpt lat="42.778597941245835" lon="11.212941480778436"><ele>24.0</ele><time>2026-03-22T09:43:36.999Z</time></trkpt><trkpt lat="42.77861709209579" lon="11.213266124912682"><ele>25.5</ele><time>2026-03-22T09:43:38Z</time></trkpt><trkpt lat="42.77863571601473" lon="11.21359056616979"><ele>27.0</ele><time>2026-03-22T09:43:38.999Z</time></trkpt><trkpt lat="42.778655969326955" lon="11.213912817713487"><ele>28.5</ele><time>2026-03-22T09:43:40Z</time></trkpt><trkpt lat="42.7786768936521" lon="11.214231991315676"><ele>30.0</ele><time>2026-03-22T09:43:41Z</time></trkpt><trkpt lat="42.778697011282205" lon="11.214552688634663"><ele>30.5</ele><time>2026-03-22T09:43:42Z</time></trkpt><trkpt lat="42.7787184189144" lon="11.21487203039917"><ele>31.0</ele><time>2026-03-22T09:43:43Z</time></trkpt><trkpt lat="42.778739897570986" lon="11.215192750863073"><ele>31.0</ele><time>2026-03-22T09:43:44Z</time></trkpt><trkpt lat="42.778760817470044" lon="11.215510583340041"><ele>31.0</ele><time>2026-03-22T09:43:45Z</time></trkpt><trkpt lat="42.77878081906322" lon="11.215825414328506"><ele>31.0</ele><time>2026-03-22T09:43:46Z</time></trkpt><trkpt lat="42.778801347800766" lon="11.216133721871703"><ele>31.0</ele><time>2026-03-22T09:43:47Z</time></trkpt><trkpt lat="42.77882097356472" lon="11.216436270848897"><ele>31.333333333333336</ele><time>2026-03-22T09:43:48Z</time></trkpt><trkpt lat="42.77883907534164" lon="11.216733116933511"><ele>31.666666666666664</ele><time>2026-03-22T09:43:49Z</time></trkpt><trkpt lat="42.778856353083846" lon="11.217029956189377"><ele>32.0</ele><time>2026-03-22T09:43:50Z</time></trkpt><trkpt lat="42.778873975808416" lon="11.217320787417751"><ele>32.33333333333333</ele><time>2026-03-22T09:43:50.999Z</time></trkpt><trkpt lat="42.77888929361059" lon="11.217606912247412"><ele>32.666666666666664</ele><time>2026-03-22T09:43:51.999Z</time></trkpt><trkpt lat="42.778904089603685" lon="11.217889791575066"><ele>33.0</ele><time>2026-03-22T09:43:52.999Z</time></trkpt><trkpt lat="42.77892256230902" lon="11.218165250875538"><ele>34.666666666666664</ele><time>2026-03-22T09:43:53.999Z</time></trkpt><trkpt lat="42.77895035050889" lon="11.218435323216015"><ele>36.33333333333333</ele><time>2026-03-22T09:43:54.999Z</time></trkpt><trkpt lat="42.77898780795138" lon="11.218704690153082"><ele>38.0</ele><time>2026-03-22T09:43:55.999Z</time></trkpt><trkpt lat="42.77908717336282" lon="11.21894992792459"><ele>36.666666666666664</ele><time>2026-03-22T09:43:56.999Z</time></trkpt><trkpt lat="42.779190542811925" lon="11.219189430122828"><ele>35.333333333333336</ele><time>2026-03-22T09:43:57.999Z</time></trkpt><trkpt lat="42.77929140793773" lon="11.219428935384283"><ele>34.0</ele><time>2026-03-22T09:43:58.999Z</time></trkpt><trkpt lat="42.779370906058695" lon="11.219671730849148"><ele>34.0</ele><time>2026-03-22T09:43:59.999Z</time></trkpt><trkpt lat="42.77941218458437" lon="11.219916038728359"><ele>34.0</ele><time>2026-03-22T09:44:00.999Z</time></trkpt><trkpt lat="42.779414194721554" lon="11.220166410089009"><ele>34.0</ele><time>2026-03-22T09:44:01.999Z</time></trkpt><trkpt lat="42.77938923976955" lon="11.22038783038747"><ele>38.333333333333336</ele><time>2026-03-22T09:44:02.999Z</time></trkpt><trkpt lat="42.77932109159791" lon="11.220592554424439"><ele>42.666666666666664</ele><time>2026-03-22T09:44:03.999Z</time></trkpt><trkpt lat="42.779213068169675" lon="11.220766545648502"><ele>47.0</ele><time>2026-03-22T09:44:04.999Z</time></trkpt><trkpt lat="42.779058933268324" lon="11.220894015197326"><ele>47.0</ele><time>2026-03-22T09:44:05.999Z</time></trkpt><trkpt lat="42.77891186261924" lon="11.221033652223003"><ele>47.0</ele><time>2026-03-22T09:44:06.999Z</time></trkpt><trkpt lat="42.778771516054526" lon="11.221172932149473"><ele>47.0</ele><time>2026-03-22T09:44:07.999Z</time></trkpt><trkpt lat="42.77861873417446" lon="11.221318703062968"><ele>48.33333333333333</ele><time>2026-03-22T09:44:08.999Z</time></trkpt><trkpt lat="42.778460601151224" lon="11.221446677588117"><ele>49.666666666666664</ele><time>2026-03-22T09:44:09.999Z</time></trkpt><trkpt lat="42.77829014890651" lon="11.221558588714357"><ele>51.0</ele><time>2026-03-22T09:44:10.999Z</time></trkpt><trkpt lat="42.77811039444753" lon="11.221685207062103"><ele>51.0</ele><time>2026-03-22T09:44:11.999Z</time></trkpt><trkpt lat="42.777943642463235" lon="11.221845408397678"><ele>51.0</ele><time>2026-03-22T09:44:12.999Z</time></trkpt><trkpt lat="42.77777302484386" lon="11.222020955312072"><ele>51.0</ele><time>2026-03-22T09:44:13.999Z</time></trkpt><trkpt lat="42.777607425294676" lon="11.222190759790816"><ele>50.5</ele><time>2026-03-22T09:44:14.999Z</time></trkpt><trkpt lat="42.7774272967311" lon="11.222369912418847"><ele>50.0</ele><time>2026-03-22T09:44:15.999Z</time></trkpt><trkpt lat="42.77724051494733" lon="11.22258596372246"><ele>50.0</ele><time>2026-03-22T09:44:16.999Z</time></trkpt><trkpt lat="42.77708140959838" lon="11.222830782968847"><ele>50.0</ele><time>2026-03-22T09:44:17.999Z</time></trkpt><trkpt lat="42.77695584039176" lon="11.22306827292475"><ele>53.0</ele><time>2026-03-22T09:44:18.999Z</time></trkpt><trkpt lat="42.77682475594608" lon="11.223311886412112"><ele>56.0</ele><time>2026-03-22T09:44:19.999Z</time></trkpt><trkpt lat="42.77668713033417" lon="11.223549721081733"><ele>59.0</ele><time>2026-03-22T09:44:20.999Z</time></trkpt><trkpt lat="42.77654371113745" lon="11.223767302081741"><ele>59.0</ele><time>2026-03-22T09:44:21.999Z</time></trkpt><trkpt lat="42.77640591711664" lon="11.223930589094836"><ele>59.0</ele><time>2026-03-22T09:44:22.999Z</time></trkpt><trkpt lat="42.776232742494834" lon="11.22406417808896"><ele>59.0</ele><time>2026-03-22T09:44:23.999Z</time></trkpt><trkpt lat="42.776048552183546" lon="11.224174779019389"><ele>59.333333333333336</ele><time>2026-03-22T09:44:24.999Z</time></trkpt><trkpt lat="42.7758532100811" lon="11.224290263327768"><ele>59.66666666666667</ele><time>2026-03-22T09:44:25.999Z</time></trkpt><trkpt lat="42.775655265595795" lon="11.224431109281971"><ele>60.0</ele><time>2026-03-22T09:44:26.999Z</time></trkpt><trkpt lat="42.775470930055654" lon="11.224581983375693"><ele>60.0</ele><time>2026-03-22T09:44:27.999Z</time></trkpt><trkpt lat="42.77531095662501" lon="11.22472563688923"><ele>60.0</ele><time>2026-03-22T09:44:28.999Z</time></trkpt><trkpt lat="42.775150183563476" lon="11.22488020436763"><ele>60.0</ele><time>2026-03-22T09:44:29.999Z</time></trkpt><trkpt lat="42.77499676373879" lon="11.225040227556969"><ele>59.66666666666667</ele><time>2026-03-22T09:44:30.999Z</time></trkpt><trkpt lat="42.774866599392716" lon="11.225228000867652"><ele>59.333333333333336</ele><time>2026-03-22T09:44:31.999Z</time></trkpt><trkpt lat="42.77477087199932" lon="11.22544886776214"><ele>59.0</ele><time>2026-03-22T09:44:32.999Z</time></trkpt><trkpt lat="42.77470756640696" lon="11.225690760896196"><ele>59.66666666666667</ele><time>2026-03-22T09:44:33.999Z</time></trkpt><trkpt lat="42.77470659257244" lon="11.225957810351098"><ele>60.33333333333333</ele><time>2026-03-22T09:44:34.999Z</time></trkpt><trkpt lat="42.77478192869965" lon="11.226210539386502"><ele>61.0</ele><time>2026-03-22T09:44:35.999Z</time></trkpt><trkpt lat="42.77486062350924" lon="11.226445984170256"><ele>61.33333333333333</ele><time>2026-03-22T09:44:36.999Z</time></trkpt><trkpt lat="42.774933669940815" lon="11.226689277490937"><ele>61.66666666666667</ele><time>2026-03-22T09:44:37.999Z</time></trkpt><trkpt lat="42.77500832073832" lon="11.226930006366558"><ele>62.0</ele><time>2026-03-22T09:44:38.999Z</time></trkpt><trkpt lat="42.77507505152194" lon="11.227169700436068"><ele>63.66666666666667</ele><time>2026-03-22T09:44:39.999Z</time></trkpt><trkpt lat="42.775120304139364" lon="11.227416752974763"><ele>65.33333333333333</ele><time>2026-03-22T09:44:40.999Z</time></trkpt><trkpt lat="42.77514914795466" lon="11.227665956433398"><ele>67.0</ele><time>2026-03-22T09:44:41.999Z</time></trkpt><trkpt lat="42.77511625565734" lon="11.227920852109568"><ele>68.0</ele><time>2026-03-22T09:44:42.999Z</time></trkpt><trkpt lat="42.77505067576259" lon="11.22816837016995"><ele>69.0</ele><time>2026-03-22T09:44:43.999Z</time></trkpt><trkpt lat="42.77498105437514" lon="11.228416394922851"><ele>70.0</ele><time>2026-03-22T09:44:44.999Z</time></trkpt><trkpt lat="42.774915141674065" lon="11.228666296225954"><ele>70.0</ele><time>2026-03-22T09:44:45.999Z</time></trkpt><trkpt lat="42.77483131061939" lon="11.228913242440616"><ele>70.0</ele><time>2026-03-22T09:44:46.999Z</time></trkpt><trkpt lat="42.774763187768755" lon="11.229149321694546"><ele>70.0</ele><time>2026-03-22T09:44:47.999Z</time></trkpt><trkpt lat="42.77467663677727" lon="11.229368211158418"><ele>70.33333333333333</ele><time>2026-03-22T09:44:48.999Z</time></trkpt><trkpt lat="42.77454905480193" lon="11.229529808372757"><ele>70.66666666666667</ele><time>2026-03-22T09:44:49.999Z</time></trkpt><trkpt lat="42.77439131557442" lon="11.229661668859187"><ele>71.0</ele><time>2026-03-22T09:44:50.999Z</time></trkpt><trkpt lat="42.77422123253333" lon="11.229775837844603"><ele>72.33333333333334</ele><time>2026-03-22T09:44:51.999Z</time></trkpt><trkpt lat="42.77404304370993" lon="11.229894789761083"><ele>73.66666666666667</ele><time>2026-03-22T09:44:52.999Z</time></trkpt><trkpt lat="42.77386976712563" lon="11.23003025706423"><ele>75.0</ele><time>2026-03-22T09:44:53.999Z</time></trkpt><trkpt lat="42.77370034483855" lon="11.230206473596636"><ele>75.0</ele><time>2026-03-22T09:44:54.999Z</time></trkpt><trkpt lat="42.77353824741379" lon="11.230384886429196"><ele>75.0</ele><time>2026-03-22T09:44:55.999Z</time></trkpt><trkpt lat="42.7733776685206" lon="11.230564293368898"><ele>75.0</ele><time>2026-03-22T09:44:56.998Z</time></trkpt><trkpt lat="42.77321964682861" lon="11.23074102046834"><ele>75.66666666666667</ele><time>2026-03-22T09:44:57.998Z</time></trkpt><trkpt lat="42.77306524110592" lon="11.23091370355988"><ele>76.33333333333334</ele><time>2026-03-22T09:44:58.998Z</time></trkpt><trkpt lat="42.77292304399926" lon="11.23107273287367"><ele>77.0</ele><time>2026-03-22T09:44:59.998Z</time></trkpt><trkpt lat="42.77279500332005" lon="11.231234893368157"><ele>77.0</ele><time>2026-03-22T09:45:00.998Z</time></trkpt><trkpt lat="42.77270425360064" lon="11.23144410293663"><ele>77.0</ele><time>2026-03-22T09:45:01.998Z</time></trkpt><trkpt lat="42.77267593009567" lon="11.231679896483445"><ele>77.0</ele><time>2026-03-22T09:45:02.998Z</time></trkpt><trkpt lat="42.772726535535796" lon="11.23191289250272"><ele>77.33333333333334</ele><time>2026-03-22T09:45:03.998Z</time></trkpt><trkpt lat="42.77276165940331" lon="11.2321424358912"><ele>77.66666666666667</ele><time>2026-03-22T09:45:04.998Z</time></trkpt><trkpt lat="42.77281430801695" lon="11.232379796270733"><ele>78.0</ele><time>2026-03-22T09:45:05.998Z</time></trkpt><trkpt lat="42.77286703590388" lon="11.232616933359022"><ele>78.33333333333333</ele><time>2026-03-22T09:45:06.998Z</time></trkpt><trkpt lat="42.77291593428647" lon="11.232854908236984"><ele>78.66666666666666</ele><time>2026-03-22T09:45:07.998Z</time></trkpt><trkpt lat="42.77293729062583" lon="11.23309228225428"><ele>79.0</ele><time>2026-03-22T09:45:08.998Z</time></trkpt><trkpt lat="42.77291405152692" lon="11.233328446724283"><ele>80.33333333333333</ele><time>2026-03-22T09:45:09.998Z</time></trkpt><trkpt lat="42.772852762178815" lon="11.233555192078763"><ele>81.66666666666667</ele><time>2026-03-22T09:45:10.998Z</time></trkpt><trkpt lat="42.77278461965462" lon="11.233782452650715"><ele>83.0</ele><time>2026-03-22T09:45:11.998Z</time></trkpt><trkpt lat="42.77270582148208" lon="11.234016251790072"><ele>86.0</ele><time>2026-03-22T09:45:12.998Z</time></trkpt><trkpt lat="42.77260225302147" lon="11.23421934171913"><ele>89.0</ele><time>2026-03-22T09:45:13.998Z</time></trkpt><trkpt lat="42.7724882599513" lon="11.234408666444189"><ele>92.0</ele><time>2026-03-22T09:45:14.998Z</time></trkpt><trkpt lat="42.77237297322333" lon="11.23459778662858"><ele>92.0</ele><time>2026-03-22T09:45:15.998Z</time></trkpt><trkpt lat="42.772264773699305" lon="11.234800450064956"><ele>92.0</ele><time>2026-03-22T09:45:16.998Z</time></trkpt><trkpt lat="42.77216663009879" lon="11.235008322526143"><ele>92.0</ele><time>2026-03-22T09:45:17.998Z</time></trkpt><trkpt lat="42.772060506245" lon="11.235180911380947"><ele>93.66666666666667</ele><time>2026-03-22T09:45:18.998Z</time></trkpt><trkpt lat="42.771922481739225" lon="11.235305664669482"><ele>95.33333333333334</ele><time>2026-03-22T09:45:19.998Z</time></trkpt><trkpt lat="42.77173783597051" lon="11.235353871598674"><ele>97.0</ele><time>2026-03-22T09:45:20.998Z</time></trkpt><trkpt lat="42.771555870775416" lon="11.23538116768192"><ele>97.66666666666667</ele><time>2026-03-22T09:45:21.998Z</time></trkpt><trkpt lat="42.77136502145371" lon="11.23541304655412"><ele>98.33333333333334</ele><time>2026-03-22T09:45:22.998Z</time></trkpt><trkpt lat="42.771174471082006" lon="11.235469737205221"><ele>99.0</ele><time>2026-03-22T09:45:23.998Z</time></trkpt><trkpt lat="42.77098388166252" lon="11.235569795957703"><ele>98.33333333333334</ele><time>2026-03-22T09:45:24.998Z</time></trkpt><trkpt lat="42.77080168402273" lon="11.235703233267296"><ele>97.66666666666667</ele><time>2026-03-22T09:45:25.998Z</time></trkpt><trkpt lat="42.770633346402086" lon="11.23586440477009"><ele>97.0</ele><time>2026-03-22T09:45:26.998Z</time></trkpt><trkpt lat="42.77047737983817" lon="11.236057999042302"><ele>97.0</ele><time>2026-03-22T09:45:27.998Z</time></trkpt><trkpt lat="42.77033307133395" lon="11.236262013968272"><ele>97.0</ele><time>2026-03-22T09:45:28.998Z</time></trkpt><trkpt lat="42.770198991015434" lon="11.23647034647641"><ele>97.0</ele><time>2026-03-22T09:45:29.998Z</time></trkpt><trkpt lat="42.77006714222815" lon="11.236678272536937"><ele>97.66666666666667</ele><time>2026-03-22T09:45:30.998Z</time></trkpt><trkpt lat="42.76993560341966" lon="11.236879502343605"><ele>98.33333333333334</ele><time>2026-03-22T09:45:31.998Z</time></trkpt><trkpt lat="42.769793957395926" lon="11.237075732763344"><ele>99.0</ele><time>2026-03-22T09:45:32.998Z</time></trkpt><trkpt lat="42.76964173273541" lon="11.237249110237158"><ele>99.33333333333334</ele><time>2026-03-22T09:45:33.998Z</time></trkpt><trkpt lat="42.76948184405466" lon="11.237417594442757"><ele>99.66666666666667</ele><time>2026-03-22T09:45:34.998Z</time></trkpt><trkpt lat="42.769321612288266" lon="11.237583088309009"><ele>100.0</ele><time>2026-03-22T09:45:35.998Z</time></trkpt><trkpt lat="42.76917802837614" lon="11.237794627582565"><ele>100.0</ele><time>2026-03-22T09:45:36.998Z</time></trkpt><trkpt lat="42.76904371575544" lon="11.238012869077231"><ele>100.0</ele><time>2026-03-22T09:45:37.998Z</time></trkpt><trkpt lat="42.76890711650156" lon="11.238232337884222"><ele>100.0</ele><time>2026-03-22T09:45:38.998Z</time></trkpt><trkpt lat="42.76876827288255" lon="11.23845189786859"><ele>99.0</ele><time>2026-03-22T09:45:40Z</time></trkpt><trkpt lat="42.76861694618637" lon="11.238656825465004"><ele>98.0</ele><time>2026-03-22T09:45:41Z</time></trkpt><trkpt lat="42.768452700718576" lon="11.238850483057767"><ele>97.0</ele><time>2026-03-22T09:45:42Z</time></trkpt><trkpt lat="42.7682859418719" lon="11.239038145984644"><ele>95.0</ele><time>2026-03-22T09:45:43Z</time></trkpt><trkpt lat="42.768120164513796" lon="11.239222997044179"><ele>93.0</ele><time>2026-03-22T09:45:44Z</time></trkpt><trkpt lat="42.76795659159124" lon="11.239408328669295"><ele>91.0</ele><time>2026-03-22T09:45:45Z</time></trkpt><trkpt lat="42.76780662758644" lon="11.239618636288823"><ele>88.66666666666666</ele><time>2026-03-22T09:45:46Z</time></trkpt><trkpt lat="42.767677577975746" lon="11.239861608015174"><ele>86.33333333333333</ele><time>2026-03-22T09:45:47Z</time></trkpt><trkpt lat="42.76756623549026" lon="11.240115687097607"><ele>84.0</ele><time>2026-03-22T09:45:48Z</time></trkpt><trkpt lat="42.76745091242184" lon="11.240376715613175"><ele>83.66666666666667</ele><time>2026-03-22T09:45:49Z</time></trkpt><trkpt lat="42.76734241281084" lon="11.240635919246198"><ele>83.33333333333334</ele><time>2026-03-22T09:45:50Z</time></trkpt><trkpt lat="42.767222702397916" lon="11.240886522828099"><ele>83.0</ele><time>2026-03-22T09:45:51Z</time></trkpt><trkpt lat="42.767108767180375" lon="11.241129011146297"><ele>83.0</ele><time>2026-03-22T09:45:52Z</time></trkpt><trkpt lat="42.76700460769559" lon="11.241367042084264"><ele>83.0</ele><time>2026-03-22T09:45:53Z</time></trkpt><trkpt lat="42.766942327846856" lon="11.241602922962768"><ele>83.0</ele><time>2026-03-22T09:45:54Z</time></trkpt><trkpt lat="42.766916663027075" lon="11.24184530140472"><ele>82.0</ele><time>2026-03-22T09:45:55Z</time></trkpt><trkpt lat="42.766936374554895" lon="11.242084187018657"><ele>81.0</ele><time>2026-03-22T09:45:56Z</time></trkpt><trkpt lat="42.767017194460266" lon="11.242313545879293"><ele>80.0</ele><time>2026-03-22T09:45:57Z</time></trkpt><trkpt lat="42.76711781080354" lon="11.242514027795792"><ele>80.0</ele><time>2026-03-22T09:45:58Z</time></trkpt><trkpt lat="42.76721221387008" lon="11.242725353317729"><ele>80.0</ele><time>2026-03-22T09:45:59Z</time></trkpt><trkpt lat="42.76728808419926" lon="11.242959245861924"><ele>80.0</ele><time>2026-03-22T09:46:00Z</time></trkpt><trkpt lat="42.767321076196815" lon="11.243201462241274"><ele>81.33333333333334</ele><time>2026-03-22T09:46:01Z</time></trkpt><trkpt lat="42.7672984493834" lon="11.243451859947399"><ele>82.66666666666667</ele><time>2026-03-22T09:46:02Z</time></trkpt><trkpt lat="42.76725856306349" lon="11.243712925370636"><ele>84.0</ele><time>2026-03-22T09:46:03Z</time></trkpt><trkpt lat="42.76719751668084" lon="11.243943904701817"><ele>84.33333333333333</ele><time>2026-03-22T09:46:04Z</time></trkpt><trkpt lat="42.767102944698145" lon="11.2441560767534"><ele>84.66666666666666</ele><time>2026-03-22T09:46:04.999Z</time></trkpt><trkpt lat="42.76696072953493" lon="11.244325477040874"><ele>85.0</ele><time>2026-03-22T09:46:05.999Z</time></trkpt><trkpt lat="42.76679501807116" lon="11.244457809983414"><ele>87.0</ele><time>2026-03-22T09:46:06.999Z</time></trkpt><trkpt lat="42.766637229340105" lon="11.244589799363185"><ele>89.0</ele><time>2026-03-22T09:46:07.999Z</time></trkpt><trkpt lat="42.76641652796606" lon="11.244571967775956"><ele>91.0</ele><time>2026-03-22T09:46:08.999Z</time></trkpt><trkpt lat="42.76625012296388" lon="11.244690457412009"><ele>92.33333333333333</ele><time>2026-03-22T09:46:09.999Z</time></trkpt><trkpt lat="42.76607958273758" lon="11.244804727092372"><ele>93.66666666666667</ele><time>2026-03-22T09:46:10.999Z</time></trkpt><trkpt lat="42.76590919676331" lon="11.244886376388141"><ele>95.0</ele><time>2026-03-22T09:46:11.999Z</time></trkpt><trkpt lat="42.76573412421541" lon="11.244932691113798"><ele>97.0</ele><time>2026-03-22T09:46:12.999Z</time></trkpt><trkpt lat="42.7655463912246" lon="11.244943597902568"><ele>99.0</ele><time>2026-03-22T09:46:13.999Z</time></trkpt><trkpt lat="42.765348888241995" lon="11.24493673120897"><ele>101.0</ele><time>2026-03-22T09:46:14.999Z</time></trkpt><trkpt lat="42.76519235951311" lon="11.244865415157754"><ele>100.33333333333333</ele><time>2026-03-22T09:46:15.999Z</time></trkpt><trkpt lat="42.76508922933511" lon="11.244743691109148"><ele>99.66666666666666</ele><time>2026-03-22T09:46:16.999Z</time></trkpt><trkpt lat="42.764973090219485" lon="11.244573423958782"><ele>99.0</ele><time>2026-03-22T09:46:17.999Z</time></trkpt><trkpt lat="42.76480803151167" lon="11.244471908109183"><ele>99.0</ele><time>2026-03-22T09:46:18.999Z</time></trkpt><trkpt lat="42.764654620855715" lon="11.24439290541453"><ele>99.0</ele><time>2026-03-22T09:46:19.999Z</time></trkpt><trkpt lat="42.764169472788765" lon="11.245237475672251"><ele>102.0</ele><time>2026-03-22T09:46:20.999Z</time></trkpt><trkpt lat="42.763988266094096" lon="11.245327897443609"><ele>105.0</ele><time>2026-03-22T09:46:21.999Z</time></trkpt><trkpt lat="42.76380931294082" lon="11.245449492717775"><ele>108.0</ele><time>2026-03-22T09:46:22.999Z</time></trkpt><trkpt lat="42.7636486037617" lon="11.245608659977506"><ele>106.66666666666666</ele><time>2026-03-22T09:46:23.999Z</time></trkpt><trkpt lat="42.76349677636823" lon="11.245801156517325"><ele>105.33333333333333</ele><time>2026-03-22T09:46:24.999Z</time></trkpt><trkpt lat="42.76335373053965" lon="11.246014689612034"><ele>104.0</ele><time>2026-03-22T09:46:25.999Z</time></trkpt><trkpt lat="42.76320969172504" lon="11.246229921815734"><ele>104.0</ele><time>2026-03-22T09:46:26.999Z</time></trkpt><trkpt lat="42.763080523305526" lon="11.246454146915664"><ele>104.0</ele><time>2026-03-22T09:46:27.999Z</time></trkpt><trkpt lat="42.762966331204396" lon="11.246692942339163"><ele>104.0</ele><time>2026-03-22T09:46:28.999Z</time></trkpt><trkpt lat="42.7628626277191" lon="11.246941726965195"><ele>105.0</ele><time>2026-03-22T09:46:29.999Z</time></trkpt><trkpt lat="42.76277431515619" lon="11.247201516154997"><ele>106.0</ele><time>2026-03-22T09:46:30.999Z</time></trkpt><trkpt lat="42.76270885943485" lon="11.247474872495388"><ele>107.0</ele><time>2026-03-22T09:46:31.999Z</time></trkpt><trkpt lat="42.76266209211658" lon="11.24775718523475"><ele>108.66666666666666</ele><time>2026-03-22T09:46:32.999Z</time></trkpt><trkpt lat="42.76260296884516" lon="11.24803204709531"><ele>110.33333333333334</ele><time>2026-03-22T09:46:33.999Z</time></trkpt><trkpt lat="42.762522897890186" lon="11.24830396527293"><ele>112.0</ele><time>2026-03-22T09:46:34.999Z</time></trkpt><trkpt lat="42.762424745224195" lon="11.248566435597407"><ele>112.0</ele><time>2026-03-22T09:46:35.999Z</time></trkpt><trkpt lat="42.762292526307924" lon="11.248795963546119"><ele>112.0</ele><time>2026-03-22T09:46:36.999Z</time></trkpt><trkpt lat="42.762161887406556" lon="11.24901559066322"><ele>112.0</ele><time>2026-03-22T09:46:37.999Z</time></trkpt><trkpt lat="42.762055554660385" lon="11.249264540213781"><ele>112.33333333333334</ele><time>2026-03-22T09:46:38.999Z</time></trkpt><trkpt lat="42.76197168019574" lon="11.249536642808824"><ele>112.66666666666666</ele><time>2026-03-22T09:46:39.999Z</time></trkpt><trkpt lat="42.76188432361248" lon="11.24980008514092"><ele>113.0</ele><time>2026-03-22T09:46:40.999Z</time></trkpt><trkpt lat="42.76179637380118" lon="11.250054568636983"><ele>112.33333333333333</ele><time>2026-03-22T09:46:41.999Z</time></trkpt><trkpt lat="42.761709210086075" lon="11.250303260339765"><ele>111.66666666666666</ele><time>2026-03-22T09:46:42.999Z</time></trkpt><trkpt lat="42.76162684859752" lon="11.250559242480092"><ele>111.0</ele><time>2026-03-22T09:46:43.999Z</time></trkpt><trkpt lat="42.76154414692425" lon="11.250811322536732"><ele>111.0</ele><time>2026-03-22T09:46:44.999Z</time></trkpt><trkpt lat="42.761493294925685" lon="11.251077137259166"><ele>111.0</ele><time>2026-03-22T09:46:45.999Z</time></trkpt><trkpt lat="42.761484959540994" lon="11.251360091173485"><ele>111.0</ele><time>2026-03-22T09:46:46.999Z</time></trkpt><trkpt lat="42.76149670772639" lon="11.251640218512518"><ele>111.33333333333334</ele><time>2026-03-22T09:46:47.999Z</time></trkpt><trkpt lat="42.761531727895864" lon="11.251915864841479"><ele>111.66666666666667</ele><time>2026-03-22T09:46:48.999Z</time></trkpt><trkpt lat="42.761594350331194" lon="11.252177815920593"><ele>112.0</ele><time>2026-03-22T09:46:49.999Z</time></trkpt><trkpt lat="42.761676532554674" lon="11.25243229554494"><ele>112.33333333333334</ele><time>2026-03-22T09:46:50.999Z</time></trkpt><trkpt lat="42.7617760970471" lon="11.252675806578914"><ele>112.66666666666666</ele><time>2026-03-22T09:46:51.999Z</time></trkpt><trkpt lat="42.7618719745664" lon="11.25292073784148"><ele>113.0</ele><time>2026-03-22T09:46:52.999Z</time></trkpt><trkpt lat="42.76195329455169" lon="11.253171370493813"><ele>115.66666666666666</ele><time>2026-03-22T09:46:53.999Z</time></trkpt><trkpt lat="42.76200544821804" lon="11.253422803110638"><ele>118.33333333333334</ele><time>2026-03-22T09:46:54.999Z</time></trkpt><trkpt lat="42.76202625951097" lon="11.25367938302072"><ele>121.0</ele><time>2026-03-22T09:46:55.999Z</time></trkpt><trkpt lat="42.762031934904385" lon="11.253945695635586"><ele>121.66666666666667</ele><time>2026-03-22T09:46:56.999Z</time></trkpt><trkpt lat="42.76203853965056" lon="11.254221933330731"><ele>122.33333333333334</ele><time>2026-03-22T09:46:57.999Z</time></trkpt><trkpt lat="42.76204891351425" lon="11.254496638709698"><ele>123.0</ele><time>2026-03-22T09:46:58.999Z</time></trkpt><trkpt lat="42.762062985633456" lon="11.254768065041983"><ele>122.66666666666666</ele><time>2026-03-22T09:46:59.999Z</time></trkpt><trkpt lat="42.762073286663515" lon="11.255035974524072"><ele>122.33333333333333</ele><time>2026-03-22T09:47:00.999Z</time></trkpt><trkpt lat="42.76205120313841" lon="11.2552870350743"><ele>122.0</ele><time>2026-03-22T09:47:01.999Z</time></trkpt><trkpt lat="42.76198320392034" lon="11.255515917495307"><ele>122.66666666666666</ele><time>2026-03-22T09:47:02.999Z</time></trkpt><trkpt lat="42.761856989246304" lon="11.255705612952728"><ele>123.33333333333334</ele><time>2026-03-22T09:47:03.999Z</time></trkpt><trkpt lat="42.761710709412675" lon="11.255878805157403"><ele>124.0</ele><time>2026-03-22T09:47:04.999Z</time></trkpt><trkpt lat="42.76156745561213" lon="11.256071907587017"><ele>124.0</ele><time>2026-03-22T09:47:05.999Z</time></trkpt><trkpt lat="42.76142850033512" lon="11.256276639747103"><ele>124.0</ele><time>2026-03-22T09:47:06.999Z</time></trkpt><trkpt lat="42.76127438290789" lon="11.256461956158915"><ele>124.0</ele><time>2026-03-22T09:47:07.999Z</time></trkpt><trkpt lat="42.761127575427786" lon="11.256661702444937"><ele>125.66666666666667</ele><time>2026-03-22T09:47:08.999Z</time></trkpt><trkpt lat="42.76098234694843" lon="11.256859489735666"><ele>127.33333333333334</ele><time>2026-03-22T09:47:09.999Z</time></trkpt><trkpt lat="42.76084068559056" lon="11.25705474598497"><ele>129.0</ele><time>2026-03-22T09:47:10.999Z</time></trkpt><trkpt lat="42.760709507550786" lon="11.257254646072504"><ele>131.0</ele><time>2026-03-22T09:47:11.998Z</time></trkpt><trkpt lat="42.760596002030276" lon="11.25745739154045"><ele>133.0</ele><time>2026-03-22T09:47:12.998Z</time></trkpt><trkpt lat="42.7604927366324" lon="11.257650881514875"><ele>135.0</ele><time>2026-03-22T09:47:13.998Z</time></trkpt><trkpt lat="42.76038996207819" lon="11.257834908628984"><ele>135.0</ele><time>2026-03-22T09:47:14.998Z</time></trkpt><trkpt lat="42.760278042328025" lon="11.258004756867981"><ele>135.0</ele><time>2026-03-22T09:47:15.998Z</time></trkpt><trkpt lat="42.76014345034759" lon="11.258155210878208"><ele>135.0</ele><time>2026-03-22T09:47:16.998Z</time></trkpt><trkpt lat="42.75998403214254" lon="11.25828632983251"><ele>135.33333333333334</ele><time>2026-03-22T09:47:17.998Z</time></trkpt><trkpt lat="42.75981039437754" lon="11.258410508697953"><ele>135.66666666666669</ele><time>2026-03-22T09:47:18.998Z</time></trkpt><trkpt lat="42.759630013551934" lon="11.258533968052753"><ele>136.0</ele><time>2026-03-22T09:47:19.998Z</time></trkpt><trkpt lat="42.75945602704843" lon="11.25865516755202"><ele>134.0</ele><time>2026-03-22T09:47:20.998Z</time></trkpt><trkpt lat="42.75928436630205" lon="11.258779775099635"><ele>132.0</ele><time>2026-03-22T09:47:21.998Z</time></trkpt><trkpt lat="42.759136862363206" lon="11.258926897147173"><ele>130.0</ele><time>2026-03-22T09:47:22.998Z</time></trkpt><trkpt lat="42.75901771940378" lon="11.259119238320407"><ele>130.0</ele><time>2026-03-22T09:47:23.998Z</time></trkpt><trkpt lat="42.75894428443763" lon="11.25935859124863"><ele>130.0</ele><time>2026-03-22T09:47:24.998Z</time></trkpt><trkpt lat="42.75888506359379" lon="11.259588207833783"><ele>130.0</ele><time>2026-03-22T09:47:25.998Z</time></trkpt><trkpt lat="42.758826449893036" lon="11.259814165668587"><ele>130.66666666666669</ele><time>2026-03-22T09:47:26.998Z</time></trkpt><trkpt lat="42.75876041199307" lon="11.26003457492313"><ele>131.33333333333334</ele><time>2026-03-22T09:47:27.998Z</time></trkpt><trkpt lat="42.75867959169454" lon="11.260253354514601"><ele>132.0</ele><time>2026-03-22T09:47:28.998Z</time></trkpt><trkpt lat="42.758596101134266" lon="11.26047668598471"><ele>134.33333333333334</ele><time>2026-03-22T09:47:29.998Z</time></trkpt><trkpt lat="42.75851786138029" lon="11.2607051523957"><ele>136.66666666666669</ele><time>2026-03-22T09:47:30.998Z</time></trkpt><trkpt lat="42.75844579785313" lon="11.260942330820576"><ele>139.0</ele><time>2026-03-22T09:47:31.998Z</time></trkpt><trkpt lat="42.758376372912444" lon="11.261181976487299"><ele>139.0</ele><time>2026-03-22T09:47:32.998Z</time></trkpt><trkpt lat="42.75829909628196" lon="11.261422478425713"><ele>139.0</ele><time>2026-03-22T09:47:33.998Z</time></trkpt><trkpt lat="42.758209420050534" lon="11.261663766676193"><ele>139.0</ele><time>2026-03-22T09:47:34.998Z</time></trkpt><trkpt lat="42.75811580114339" lon="11.261912314743048"><ele>139.0</ele><time>2026-03-22T09:47:35.998Z</time></trkpt><trkpt lat="42.75801830283283" lon="11.262171162383373"><ele>139.0</ele><time>2026-03-22T09:47:36.998Z</time></trkpt><trkpt lat="42.75791786416821" lon="11.2624370994865"><ele>139.0</ele><time>2026-03-22T09:47:37.998Z</time></trkpt><trkpt lat="42.757815205862634" lon="11.262707725919219"><ele>139.0</ele><time>2026-03-22T09:47:38.998Z</time></trkpt><trkpt lat="42.757711685667736" lon="11.26298062466925"><ele>139.0</ele><time>2026-03-22T09:47:39.998Z</time></trkpt><trkpt lat="42.75760890922709" lon="11.263254597104169"><ele>140.5</ele><time>2026-03-22T09:47:40.998Z</time></trkpt><trkpt lat="42.75750928589799" lon="11.26353403765903"><ele>142.0</ele><time>2026-03-22T09:47:41.998Z</time></trkpt><trkpt lat="42.757426544685714" lon="11.263821634518976"><ele>143.66666666666669</ele><time>2026-03-22T09:47:42.998Z</time></trkpt><trkpt lat="42.75740275896811" lon="11.264117883767845"><ele>145.33333333333334</ele><time>2026-03-22T09:47:43.998Z</time></trkpt><trkpt lat="42.757380259867986" lon="11.26438613692157"><ele>147.0</ele><time>2026-03-22T09:47:44.998Z</time></trkpt><trkpt lat="42.75736030747188" lon="11.264615611387221"><ele>146.75</ele><time>2026-03-22T09:47:46Z</time></trkpt><trkpt lat="42.75730516022372" lon="11.264820476506467"><ele>146.5</ele><time>2026-03-22T09:47:47Z</time></trkpt><trkpt lat="42.757182623837835" lon="11.264933394609452"><ele>146.25</ele><time>2026-03-22T09:47:48Z</time></trkpt><trkpt lat="42.75706478562709" lon="11.26498623855443"><ele>146.0</ele><time>2026-03-22T09:47:49Z</time></trkpt><trkpt lat="42.75692631246301" lon="11.26502083099461"><ele>150.33333333333331</ele><time>2026-03-22T09:47:50Z</time></trkpt><trkpt lat="42.756770021505375" lon="11.265049003502876"><ele>154.66666666666666</ele><time>2026-03-22T09:47:51Z</time></trkpt><trkpt lat="42.75661929340737" lon="11.265100924761905"><ele>159.0</ele><time>2026-03-22T09:47:52Z</time></trkpt><trkpt lat="42.75646577858468" lon="11.26516180370104"><ele>159.0</ele><time>2026-03-22T09:47:53Z</time></trkpt><trkpt lat="42.75631043364792" lon="11.265231685587011"><ele>159.0</ele><time>2026-03-22T09:47:54Z</time></trkpt><trkpt lat="42.756149558658834" lon="11.265332833036135"><ele>159.0</ele><time>2026-03-22T09:47:55Z</time></trkpt><trkpt lat="42.756001049953866" lon="11.265426867968955"><ele>158.66666666666666</ele><time>2026-03-22T09:47:56Z</time></trkpt><trkpt lat="42.75583659291414" lon="11.265514200124091"><ele>158.33333333333331</ele><time>2026-03-22T09:47:57Z</time></trkpt><trkpt lat="42.75566276206759" lon="11.265598433920937"><ele>158.0</ele><time>2026-03-22T09:47:58Z</time></trkpt><trkpt lat="42.755488732757655" lon="11.265696580411163"><ele>158.0</ele><time>2026-03-22T09:47:59Z</time></trkpt><trkpt lat="42.75531856957581" lon="11.265786406418552"><ele>158.0</ele><time>2026-03-22T09:48:00Z</time></trkpt><trkpt lat="42.75513924541989" lon="11.265834473939483"><ele>158.0</ele><time>2026-03-22T09:48:01Z</time></trkpt><trkpt lat="42.754952631179854" lon="11.265834553267634"><ele>160.66666666666666</ele><time>2026-03-22T09:48:02Z</time></trkpt><trkpt lat="42.75476376954388" lon="11.265818108956418"><ele>163.33333333333334</ele><time>2026-03-22T09:48:03Z</time></trkpt><trkpt lat="42.75457669855135" lon="11.265801259497412"><ele>166.0</ele><time>2026-03-22T09:48:04Z</time></trkpt><trkpt lat="42.75439411356773" lon="11.26578196371018"><ele>165.66666666666669</ele><time>2026-03-22T09:48:05Z</time></trkpt><trkpt lat="42.754218566141915" lon="11.265742758911472"><ele>165.33333333333334</ele><time>2026-03-22T09:48:06Z</time></trkpt><trkpt lat="42.75404968895198" lon="11.265680770892633"><ele>165.0</ele><time>2026-03-22T09:48:07Z</time></trkpt><trkpt lat="42.75388000324825" lon="11.265630368689157"><ele>169.0</ele><time>2026-03-22T09:48:08Z</time></trkpt><trkpt lat="42.753722569929465" lon="11.26555594237357"><ele>173.0</ele><time>2026-03-22T09:48:09Z</time></trkpt><trkpt lat="42.75357627330896" lon="11.265462471480959"><ele>177.0</ele><time>2026-03-22T09:48:10Z</time></trkpt><trkpt lat="42.753433969850725" lon="11.265390436897995"><ele>177.0</ele><time>2026-03-22T09:48:11Z</time></trkpt><trkpt lat="42.75329988100957" lon="11.265314401399769"><ele>177.0</ele><time>2026-03-22T09:48:12Z</time></trkpt><trkpt lat="42.7531621921892" lon="11.265239048055776"><ele>177.0</ele><time>2026-03-22T09:48:13Z</time></trkpt><trkpt lat="42.7530368176754" lon="11.265118821606073"><ele>177.0</ele><time>2026-03-22T09:48:14Z</time></trkpt><trkpt lat="42.75290970531254" lon="11.265006016440985"><ele>177.0</ele><time>2026-03-22T09:48:15Z</time></trkpt><trkpt lat="42.75277474791017" lon="11.264906950138576"><ele>177.0</ele><time>2026-03-22T09:48:15.999Z</time></trkpt><trkpt lat="42.75264285272915" lon="11.264813371043957"><ele>177.0</ele><time>2026-03-22T09:48:16.999Z</time></trkpt><trkpt lat="42.7525199407485" lon="11.26472178204291"><ele>177.0</ele><time>2026-03-22T09:48:17.999Z</time></trkpt><trkpt lat="42.752391271973465" lon="11.26462574440208"><ele>177.0</ele><time>2026-03-22T09:48:18.999Z</time></trkpt><trkpt lat="42.752258421703075" lon="11.264530974032612"><ele>177.0</ele><time>2026-03-22T09:48:19.999Z</time></trkpt><trkpt lat="42.7521275225636" lon="11.264432094064352"><ele>177.0</ele><time>2026-03-22T09:48:20.999Z</time></trkpt><trkpt lat="42.751983217349824" lon="11.264403936007634"><ele>177.0</ele><time>2026-03-22T09:48:21.999Z</time></trkpt><trkpt lat="42.751841612443194" lon="11.264367715041566"><ele>175.25</ele><time>2026-03-22T09:48:22.999Z</time></trkpt><trkpt lat="42.75170591241618" lon="11.264353468863249"><ele>173.5</ele><time>2026-03-22T09:48:23.999Z</time></trkpt><trkpt lat="42.751579818606714" lon="11.26433471754687"><ele>171.75</ele><time>2026-03-22T09:48:24.999Z</time></trkpt><trkpt lat="42.75146250906627" lon="11.264289155128623"><ele>170.0</ele><time>2026-03-22T09:48:25.999Z</time></trkpt><trkpt lat="42.75134743976366" lon="11.264291253922996"><ele>170.0</ele><time>2026-03-22T09:48:26.999Z</time></trkpt><trkpt lat="42.7512382277753" lon="11.264282967620712"><ele>170.0</ele><time>2026-03-22T09:48:27.999Z</time></trkpt><trkpt lat="42.751118045472104" lon="11.264287308750566"><ele>170.0</ele><time>2026-03-22T09:48:28.999Z</time></trkpt><trkpt lat="42.75101407389021" lon="11.264389617037226"><ele>170.0</ele><time>2026-03-22T09:48:29.999Z</time></trkpt><trkpt lat="42.750939691982026" lon="11.264564773791754"><ele>170.0</ele><time>2026-03-22T09:48:30.999Z</time></trkpt><trkpt lat="42.750874955721656" lon="11.264767483932248"><ele>170.0</ele><time>2026-03-22T09:48:31.999Z</time></trkpt><trkpt lat="42.75081151459097" lon="11.264974425709909"><ele>170.0</ele><time>2026-03-22T09:48:32.999Z</time></trkpt><trkpt lat="42.750740787838154" lon="11.265197859932227"><ele>169.66666666666666</ele><time>2026-03-22T09:48:33.999Z</time></trkpt><trkpt lat="42.75066514614067" lon="11.265436821159495"><ele>169.33333333333334</ele><time>2026-03-22T09:48:34.999Z</time></trkpt><trkpt lat="42.750585201458414" lon="11.26568937603735"><ele>169.0</ele><time>2026-03-22T09:48:35.999Z</time></trkpt><trkpt lat="42.75050272450407" lon="11.265949930808217"><ele>169.0</ele><time>2026-03-22T09:48:36.999Z</time></trkpt><trkpt lat="42.7504211127313" lon="11.266207752389043"><ele>169.0</ele><time>2026-03-22T09:48:37.999Z</time></trkpt><trkpt lat="42.750341930480275" lon="11.266450294267422"><ele>169.0</ele><time>2026-03-22T09:48:38.999Z</time></trkpt><trkpt lat="42.75024570446509" lon="11.266680203676852"><ele>172.33333333333334</ele><time>2026-03-22T09:48:39.999Z</time></trkpt><trkpt lat="42.75011946086897" lon="11.266881383166586"><ele>175.66666666666666</ele><time>2026-03-22T09:48:40.999Z</time></trkpt><trkpt lat="42.749976603635496" lon="11.267076822317197"><ele>179.0</ele><time>2026-03-22T09:48:41.999Z</time></trkpt><trkpt lat="42.74982755278887" lon="11.267273569901707"><ele>179.0</ele><time>2026-03-22T09:48:42.999Z</time></trkpt><trkpt lat="42.74967255953916" lon="11.26747554970373"><ele>179.0</ele><time>2026-03-22T09:48:43.999Z</time></trkpt><trkpt lat="42.74951780308013" lon="11.267679947025888"><ele>179.0</ele><time>2026-03-22T09:48:44.999Z</time></trkpt><trkpt lat="42.74936665764217" lon="11.267889443563668"><ele>180.33333333333331</ele><time>2026-03-22T09:48:45.999Z</time></trkpt><trkpt lat="42.74922009272765" lon="11.268111490956663"><ele>181.66666666666666</ele><time>2026-03-22T09:48:46.999Z</time></trkpt><trkpt lat="42.749078494099145" lon="11.268337707594231"><ele>183.0</ele><time>2026-03-22T09:48:47.999Z</time></trkpt><trkpt lat="42.748936702002524" lon="11.268565755021163"><ele>183.0</ele><time>2026-03-22T09:48:48.999Z</time></trkpt><trkpt lat="42.748792174075156" lon="11.268795768131639"><ele>183.0</ele><time>2026-03-22T09:48:49.999Z</time></trkpt><trkpt lat="42.74864620843198" lon="11.269026620575234"><ele>183.0</ele><time>2026-03-22T09:48:50.999Z</time></trkpt><trkpt lat="42.74849943371735" lon="11.26925724262351"><ele>184.33333333333334</ele><time>2026-03-22T09:48:51.999Z</time></trkpt><trkpt lat="42.748351738486" lon="11.269486943521573"><ele>185.66666666666669</ele><time>2026-03-22T09:48:52.999Z</time></trkpt><trkpt lat="42.74820607145006" lon="11.269713563514546"><ele>187.0</ele><time>2026-03-22T09:48:53.999Z</time></trkpt><trkpt lat="42.74806446279459" lon="11.269936368125189"><ele>187.33333333333334</ele><time>2026-03-22T09:48:54.999Z</time></trkpt><trkpt lat="42.74792236039057" lon="11.270159949516966"><ele>187.66666666666666</ele><time>2026-03-22T09:48:55.999Z</time></trkpt><trkpt lat="42.74778275697265" lon="11.27037959909559"><ele>188.0</ele><time>2026-03-22T09:48:56.999Z</time></trkpt><trkpt lat="42.747646157781084" lon="11.270594521862469"><ele>191.33333333333331</ele><time>2026-03-22T09:48:57.999Z</time></trkpt><trkpt lat="42.747516869492706" lon="11.270810656187354"><ele>194.66666666666666</ele><time>2026-03-22T09:48:58.999Z</time></trkpt><trkpt lat="42.74741235515415" lon="11.271058680778792"><ele>198.0</ele><time>2026-03-22T09:48:59.999Z</time></trkpt><trkpt lat="42.747336972317306" lon="11.2713274129556"><ele>200.0</ele><time>2026-03-22T09:49:00.999Z</time></trkpt><trkpt lat="42.74726746383374" lon="11.271594799975905"><ele>202.0</ele><time>2026-03-22T09:49:01.999Z</time></trkpt><trkpt lat="42.74719897447543" lon="11.271859794530439"><ele>204.0</ele><time>2026-03-22T09:49:02.999Z</time></trkpt><trkpt lat="42.74713029772864" lon="11.272124127099149"><ele>205.66666666666669</ele><time>2026-03-22T09:49:03.999Z</time></trkpt><trkpt lat="42.74706024665986" lon="11.272390375002509"><ele>207.33333333333334</ele><time>2026-03-22T09:49:04.999Z</time></trkpt><trkpt lat="42.74698172547491" lon="11.272644488555995"><ele>209.0</ele><time>2026-03-22T09:49:05.999Z</time></trkpt><trkpt lat="42.746885162156026" lon="11.272889078751282"><ele>211.33333333333334</ele><time>2026-03-22T09:49:06.999Z</time></trkpt><trkpt lat="42.74677182985539" lon="11.273117523941304"><ele>213.66666666666669</ele><time>2026-03-22T09:49:07.999Z</time></trkpt><trkpt lat="42.74665950871826" lon="11.273333031658128"><ele>216.0</ele><time>2026-03-22T09:49:08.999Z</time></trkpt><trkpt lat="42.74654726160629" lon="11.273567567312636"><ele>216.0</ele><time>2026-03-22T09:49:09.999Z</time></trkpt><trkpt lat="42.7464609319425" lon="11.273837062282041"><ele>216.0</ele><time>2026-03-22T09:49:10.999Z</time></trkpt><trkpt lat="42.746413616621226" lon="11.274118484027747"><ele>216.0</ele><time>2026-03-22T09:49:11.999Z</time></trkpt><trkpt lat="42.74637449696791" lon="11.274387238975653"><ele>217.66666666666669</ele><time>2026-03-22T09:49:12.999Z</time></trkpt><trkpt lat="42.74632813755104" lon="11.274644925821256"><ele>219.33333333333334</ele><time>2026-03-22T09:49:13.999Z</time></trkpt><trkpt lat="42.746243083985924" lon="11.274875997710986"><ele>221.0</ele><time>2026-03-22T09:49:14.999Z</time></trkpt><trkpt lat="42.746125783591104" lon="11.275064192726589"><ele>220.66666666666669</ele><time>2026-03-22T09:49:15.999Z</time></trkpt><trkpt lat="42.74597598803664" lon="11.275204179483131"><ele>220.33333333333331</ele><time>2026-03-22T09:49:16.999Z</time></trkpt><trkpt lat="42.745802513352075" lon="11.275290857110129"><ele>220.0</ele><time>2026-03-22T09:49:17.999Z</time></trkpt><trkpt lat="42.745607779128804" lon="11.275325880455169"><ele>220.0</ele><time>2026-03-22T09:49:18.999Z</time></trkpt><trkpt lat="42.74540134451116" lon="11.275357482070024"><ele>220.0</ele><time>2026-03-22T09:49:19.999Z</time></trkpt><trkpt lat="42.74519371623395" lon="11.275406668238588"><ele>220.0</ele><time>2026-03-22T09:49:20.998Z</time></trkpt><trkpt lat="42.744986496796244" lon="11.27541515061776"><ele>221.33333333333331</ele><time>2026-03-22T09:49:21.998Z</time></trkpt><trkpt lat="42.74478855376274" lon="11.275468457648453"><ele>222.66666666666669</ele><time>2026-03-22T09:49:22.998Z</time></trkpt><trkpt lat="42.744582660382235" lon="11.275512092588217"><ele>224.0</ele><time>2026-03-22T09:49:23.998Z</time></trkpt><trkpt lat="42.744388411252565" lon="11.27561802240076"><ele>224.66666666666669</ele><time>2026-03-22T09:49:24.998Z</time></trkpt><trkpt lat="42.74419452963669" lon="11.275736353740092"><ele>225.33333333333331</ele><time>2026-03-22T09:49:25.998Z</time></trkpt><trkpt lat="42.74400224124104" lon="11.275857461029453"><ele>226.0</ele><time>2026-03-22T09:49:26.998Z</time></trkpt><trkpt lat="42.74381167054591" lon="11.275983775015831"><ele>226.0</ele><time>2026-03-22T09:49:27.998Z</time></trkpt><trkpt lat="42.74363766979272" lon="11.276135038884615"><ele>226.0</ele><time>2026-03-22T09:49:28.998Z</time></trkpt><trkpt lat="42.74348198979238" lon="11.27631169984571"><ele>226.0</ele><time>2026-03-22T09:49:29.998Z</time></trkpt><trkpt lat="42.74334640016933" lon="11.27651899690587"><ele>228.33333333333331</ele><time>2026-03-22T09:49:30.998Z</time></trkpt><trkpt lat="42.74323015498278" lon="11.276746198397994"><ele>230.66666666666669</ele><time>2026-03-22T09:49:31.998Z</time></trkpt><trkpt lat="42.74313794412465" lon="11.276985545749831"><ele>233.0</ele><time>2026-03-22T09:49:32.998Z</time></trkpt><trkpt lat="42.74306209901825" lon="11.277235792385564"><ele>233.33333333333334</ele><time>2026-03-22T09:49:33.998Z</time></trkpt><trkpt lat="42.74301317886701" lon="11.277505313781418"><ele>233.66666666666669</ele><time>2026-03-22T09:49:34.998Z</time></trkpt><trkpt lat="42.74299421680735" lon="11.277779257664303"><ele>234.0</ele><time>2026-03-22T09:49:35.998Z</time></trkpt><trkpt lat="42.74299492590136" lon="11.278051760950106"><ele>235.66666666666669</ele><time>2026-03-22T09:49:36.998Z</time></trkpt><trkpt lat="42.743015974771176" lon="11.278307388027748"><ele>237.33333333333334</ele><time>2026-03-22T09:49:37.998Z</time></trkpt><trkpt lat="42.74302353174535" lon="11.278534690296324"><ele>239.0</ele><time>2026-03-22T09:49:38.998Z</time></trkpt><trkpt lat="42.74299472431552" lon="11.27873744825112"><ele>239.0</ele><time>2026-03-22T09:49:39.998Z</time></trkpt><trkpt lat="42.74291567524541" lon="11.27891482762497"><ele>239.0</ele><time>2026-03-22T09:49:40.998Z</time></trkpt><trkpt lat="42.74279642175836" lon="11.279044754172931"><ele>239.0</ele><time>2026-03-22T09:49:41.998Z</time></trkpt><trkpt lat="42.74263890238628" lon="11.279165302623893"><ele>244.33333333333334</ele><time>2026-03-22T09:49:42.998Z</time></trkpt><trkpt lat="42.74249209827314" lon="11.279295697071472"><ele>249.66666666666669</ele><time>2026-03-22T09:49:43.998Z</time></trkpt><trkpt lat="42.74236380898209" lon="11.27946916288267"><ele>255.0</ele><time>2026-03-22T09:49:44.998Z</time></trkpt><trkpt lat="42.74225818285328" lon="11.279686872660449"><ele>254.66666666666669</ele><time>2026-03-22T09:49:45.998Z</time></trkpt><trkpt lat="42.74217773242903" lon="11.279918747151541"><ele>254.33333333333334</ele><time>2026-03-22T09:49:46.998Z</time></trkpt><trkpt lat="42.74213294093437" lon="11.280168495584544"><ele>254.0</ele><time>2026-03-22T09:49:47.998Z</time></trkpt><trkpt lat="42.742117859225885" lon="11.280415627322029"><ele>256.0</ele><time>2026-03-22T09:49:48.998Z</time></trkpt><trkpt lat="42.74212137230631" lon="11.280662494273635"><ele>258.0</ele><time>2026-03-22T09:49:49.998Z</time></trkpt><trkpt lat="42.74211395556969" lon="11.280895828392667"><ele>260.0</ele><time>2026-03-22T09:49:51Z</time></trkpt><trkpt lat="42.74208662734492" lon="11.281129503878494"><ele>260.0</ele><time>2026-03-22T09:49:52Z</time></trkpt><trkpt lat="42.74205852112461" lon="11.281374346140122"><ele>260.0</ele><time>2026-03-22T09:49:53Z</time></trkpt><trkpt lat="42.742047847183485" lon="11.281630426774276"><ele>260.0</ele><time>2026-03-22T09:49:54Z</time></trkpt><trkpt lat="42.74206428569186" lon="11.281886208115306"><ele>258.0</ele><time>2026-03-22T09:49:55Z</time></trkpt><trkpt lat="42.74212174114075" lon="11.282134396719345"><ele>256.0</ele><time>2026-03-22T09:49:56Z</time></trkpt><trkpt lat="42.74220235644582" lon="11.282366725344653"><ele>254.0</ele><time>2026-03-22T09:49:57Z</time></trkpt><trkpt lat="42.74230551970992" lon="11.28260008227239"><ele>253.66666666666669</ele><time>2026-03-22T09:49:58Z</time></trkpt><trkpt lat="42.74242557534347" lon="11.282815022999918"><ele>253.33333333333331</ele><time>2026-03-22T09:49:59Z</time></trkpt><trkpt lat="42.7425505563217" lon="11.283021932626522"><ele>253.0</ele><time>2026-03-22T09:50:00Z</time></trkpt><trkpt lat="42.74266763487315" lon="11.283217269900364"><ele>256.0</ele><time>2026-03-22T09:50:01Z</time></trkpt><trkpt lat="42.74277153446705" lon="11.283404110997086"><ele>259.0</ele><time>2026-03-22T09:50:02Z</time></trkpt><trkpt lat="42.74283017003061" lon="11.283615058391964"><ele>262.0</ele><time>2026-03-22T09:50:03Z</time></trkpt><trkpt lat="42.74285444433281" lon="11.283828340239134"><ele>262.5</ele><time>2026-03-22T09:50:04Z</time></trkpt><trkpt lat="42.74285414445713" lon="11.284035077505457"><ele>263.0</ele><time>2026-03-22T09:50:05Z</time></trkpt><trkpt lat="42.74280716963129" lon="11.284220420225413"><ele>263.5</ele><time>2026-03-22T09:50:06Z</time></trkpt><trkpt lat="42.74271067205536" lon="11.284371118269668"><ele>264.0</ele><time>2026-03-22T09:50:07Z</time></trkpt><trkpt lat="42.742600708091366" lon="11.284513252143743"><ele>264.0</ele><time>2026-03-22T09:50:08Z</time></trkpt><trkpt lat="42.74249039899032" lon="11.284659234679266"><ele>264.0</ele><time>2026-03-22T09:50:09Z</time></trkpt><trkpt lat="42.74237325496758" lon="11.284816193536415"><ele>264.0</ele><time>2026-03-22T09:50:10Z</time></trkpt><trkpt lat="42.742260069478064" lon="11.284988754019885"><ele>267.0</ele><time>2026-03-22T09:50:11Z</time></trkpt><trkpt lat="42.742168089467604" lon="11.285204790603785"><ele>270.0</ele><time>2026-03-22T09:50:12Z</time></trkpt><trkpt lat="42.74211130233665" lon="11.285441076272107"><ele>273.0</ele><time>2026-03-22T09:50:13Z</time></trkpt><trkpt lat="42.74203744909357" lon="11.285676851646459"><ele>273.3333333333333</ele><time>2026-03-22T09:50:14Z</time></trkpt><trkpt lat="42.741962202084856" lon="11.285911678445942"><ele>273.66666666666663</ele><time>2026-03-22T09:50:15Z</time></trkpt><trkpt lat="42.741862441821475" lon="11.286121854017049"><ele>274.0</ele><time>2026-03-22T09:50:16Z</time></trkpt><trkpt lat="42.74177241926623" lon="11.28632516494373"><ele>276.25</ele><time>2026-03-22T09:50:17Z</time></trkpt><trkpt lat="42.74168827674276" lon="11.286510444457125"><ele>278.5</ele><time>2026-03-22T09:50:18Z</time></trkpt><trkpt lat="42.74161420638094" lon="11.28667192672398"><ele>280.75</ele><time>2026-03-22T09:50:19Z</time></trkpt><trkpt lat="42.74154745158545" lon="11.286807351771802"><ele>283.0</ele><time>2026-03-22T09:50:20Z</time></trkpt><trkpt lat="42.74147354788491" lon="11.28687908676363"><ele>283.0</ele><time>2026-03-22T09:50:21Z</time></trkpt><trkpt lat="42.74138881574198" lon="11.286897568761093"><ele>283.0</ele><time>2026-03-22T09:50:22Z</time></trkpt><trkpt lat="42.741299464431016" lon="11.286881860823502"><ele>283.0</ele><time>2026-03-22T09:50:23Z</time></trkpt><trkpt lat="42.74122164131055" lon="11.286771825814208"><ele>283.0</ele><time>2026-03-22T09:50:23.999Z</time></trkpt><trkpt lat="42.74117762563527" lon="11.286626992334817"><ele>283.0</ele><time>2026-03-22T09:50:24.999Z</time></trkpt><trkpt lat="42.741162821551704" lon="11.286455972573084"><ele>280.0</ele><time>2026-03-22T09:50:25.999Z</time></trkpt><trkpt lat="42.74119414774395" lon="11.2862577899704"><ele>277.0</ele><time>2026-03-22T09:50:26.999Z</time></trkpt><trkpt lat="42.74121367355047" lon="11.286057339297882"><ele>274.0</ele><time>2026-03-22T09:50:27.999Z</time></trkpt><trkpt lat="42.74120325136512" lon="11.285846409942726"><ele>274.0</ele><time>2026-03-22T09:50:28.999Z</time></trkpt><trkpt lat="42.741171354870374" lon="11.285631275719469"><ele>274.0</ele><time>2026-03-22T09:50:29.999Z</time></trkpt><trkpt lat="42.74112571144454" lon="11.285414639249927"><ele>274.0</ele><time>2026-03-22T09:50:30.999Z</time></trkpt><trkpt lat="42.74107968214428" lon="11.285184020430492"><ele>273.75</ele><time>2026-03-22T09:50:31.999Z</time></trkpt><trkpt lat="42.74102926259633" lon="11.284985092732772"><ele>273.5</ele><time>2026-03-22T09:50:32.999Z</time></trkpt><trkpt lat="42.740971125917326" lon="11.284806937107003"><ele>273.25</ele><time>2026-03-22T09:50:33.999Z</time></trkpt><trkpt lat="42.740881758661686" lon="11.284673717072545"><ele>273.0</ele><time>2026-03-22T09:50:34.999Z</time></trkpt><trkpt lat="42.74076363635541" lon="11.284599420904895"><ele>273.0</ele><time>2026-03-22T09:50:35.999Z</time></trkpt><trkpt lat="42.74066192014355" lon="11.284615877948248"><ele>273.0</ele><time>2026-03-22T09:50:36.999Z</time></trkpt><trkpt lat="42.74058907057621" lon="11.284708609773267"><ele>273.0</ele><time>2026-03-22T09:50:37.999Z</time></trkpt><trkpt lat="42.740502364827925" lon="11.284807781082552"><ele>273.0</ele><time>2026-03-22T09:50:38.999Z</time></trkpt><trkpt lat="42.740472249479666" lon="11.28498122553931"><ele>273.0</ele><time>2026-03-22T09:50:39.999Z</time></trkpt><trkpt lat="42.740458605875666" lon="11.285129670543304"><ele>275.6666666666667</ele><time>2026-03-22T09:50:40.999Z</time></trkpt><trkpt lat="42.740415787277925" lon="11.285300180206624"><ele>278.33333333333337</ele><time>2026-03-22T09:50:41.999Z</time></trkpt><trkpt lat="42.740304865142235" lon="11.285432081273937"><ele>281.0</ele><time>2026-03-22T09:50:42.999Z</time></trkpt><trkpt lat="42.740143119342825" lon="11.285528007603949"><ele>284.0</ele><time>2026-03-22T09:50:43.999Z</time></trkpt><trkpt lat="42.74000574890232" lon="11.285650114907625"><ele>287.0</ele><time>2026-03-22T09:50:44.999Z</time></trkpt><trkpt lat="42.73988348415691" lon="11.28576916863606"><ele>290.0</ele><time>2026-03-22T09:50:45.999Z</time></trkpt><trkpt lat="42.739794391937174" lon="11.285906904558452"><ele>293.0</ele><time>2026-03-22T09:50:46.999Z</time></trkpt><trkpt lat="42.73979527765029" lon="11.286089443850988"><ele>293.0</ele><time>2026-03-22T09:50:47.999Z</time></trkpt><trkpt lat="42.73981187776055" lon="11.286268528652739"><ele>293.0</ele><time>2026-03-22T09:50:48.999Z</time></trkpt><trkpt lat="42.739832203352016" lon="11.286456693592175"><ele>293.0</ele><time>2026-03-22T09:50:49.999Z</time></trkpt><trkpt lat="42.73976621265274" lon="11.286610443268241"><ele>293.0</ele><time>2026-03-22T09:50:50.999Z</time></trkpt><trkpt lat="42.7396827922872" lon="11.286751224555287"><ele>295.0</ele><time>2026-03-22T09:50:51.999Z</time></trkpt><trkpt lat="42.73963986365978" lon="11.286919508729119"><ele>297.0</ele><time>2026-03-22T09:50:52.999Z</time></trkpt><trkpt lat="42.739640770166716" lon="11.287108119272167"><ele>299.0</ele><time>2026-03-22T09:50:53.999Z</time></trkpt><trkpt lat="42.73969286567861" lon="11.287269785737113"><ele>301.0</ele><time>2026-03-22T09:50:54.999Z</time></trkpt><trkpt lat="42.73979671290802" lon="11.287390867306202"><ele>302.0</ele><time>2026-03-22T09:50:55.999Z</time></trkpt><trkpt lat="42.739885317078915" lon="11.287525194790145"><ele>303.0</ele><time>2026-03-22T09:50:56.999Z</time></trkpt><trkpt lat="42.73990271969329" lon="11.287699259912404"><ele>304.0</ele><time>2026-03-22T09:50:57.999Z</time></trkpt><trkpt lat="42.73987290813398" lon="11.287863860017788"><ele>305.0</ele><time>2026-03-22T09:50:58.999Z</time></trkpt><trkpt lat="42.73983030580674" lon="11.28802588968038"><ele>305.5</ele><time>2026-03-22T09:50:59.999Z</time></trkpt><trkpt lat="42.73979717762505" lon="11.288196753747643"><ele>306.0</ele><time>2026-03-22T09:51:00.999Z</time></trkpt><trkpt lat="42.73977546035536" lon="11.288353202240566"><ele>306.5</ele><time>2026-03-22T09:51:01.999Z</time></trkpt><trkpt lat="42.73975013774242" lon="11.288562701455971"><ele>307.0</ele><time>2026-03-22T09:51:02.999Z</time></trkpt><trkpt lat="42.73970805803511" lon="11.28876340985888"><ele>307.0</ele><time>2026-03-22T09:51:03.999Z</time></trkpt><trkpt lat="42.739635868299516" lon="11.28889833233761"><ele>307.0</ele><time>2026-03-22T09:51:04.999Z</time></trkpt><trkpt lat="42.739558249227834" lon="11.28901521487144"><ele>307.0</ele><time>2026-03-22T09:51:05.999Z</time></trkpt><trkpt lat="42.73947635950402" lon="11.28908254883892"><ele>307.0</ele><time>2026-03-22T09:51:06.999Z</time></trkpt><trkpt lat="42.739398497999055" lon="11.28908080539158"><ele>307.0</ele><time>2026-03-22T09:51:07.999Z</time></trkpt><trkpt lat="42.73931413677373" lon="11.288993389354895"><ele>306.75</ele><time>2026-03-22T09:51:08.999Z</time></trkpt><trkpt lat="42.73924693718185" lon="11.288802794858343"><ele>306.5</ele><time>2026-03-22T09:51:09.999Z</time></trkpt><trkpt lat="42.73920257745528" lon="11.288632402412924"><ele>306.25</ele><time>2026-03-22T09:51:10.999Z</time></trkpt><trkpt lat="42.739146255229734" lon="11.288545245288615"><ele>306.0</ele><time>2026-03-22T09:51:11.999Z</time></trkpt><trkpt lat="42.73906721863561" lon="11.288422326786748"><ele>306.0</ele><time>2026-03-22T09:51:12.999Z</time></trkpt><trkpt lat="42.73897396341038" lon="11.2883081678314"><ele>306.0</ele><time>2026-03-22T09:51:13.999Z</time></trkpt><trkpt lat="42.738913157488675" lon="11.288201326483934"><ele>306.0</ele><time>2026-03-22T09:51:14.999Z</time></trkpt><trkpt lat="42.73875752216579" lon="11.288069213074245"><ele>306.0</ele><time>2026-03-22T09:51:15.999Z</time></trkpt><trkpt lat="42.73860812616843" lon="11.288048869891599"><ele>306.0</ele><time>2026-03-22T09:51:16.999Z</time></trkpt><trkpt lat="42.738520574724966" lon="11.288041730024876"><ele>306.0</ele><time>2026-03-22T09:51:17.999Z</time></trkpt><trkpt lat="42.73845245678205" lon="11.288023688133839"><ele>306.0</ele><time>2026-03-22T09:51:18.999Z</time></trkpt><trkpt lat="42.738371152580946" lon="11.288104347400715"><ele>306.0</ele><time>2026-03-22T09:51:19.999Z</time></trkpt><trkpt lat="42.73834528179078" lon="11.288287997427226"><ele>306.0</ele><time>2026-03-22T09:51:21.999Z</time></trkpt><trkpt lat="42.7383112626349" lon="11.288428330617256"><ele>306.0</ele><time>2026-03-22T09:51:23.999Z</time></trkpt><trkpt lat="42.73832383963657" lon="11.28885321602899"><ele>306.0</ele><time>2026-03-22T09:51:24.999Z</time></trkpt><trkpt lat="42.738354736798954" lon="11.289047501091629"><ele>307.25</ele><time>2026-03-22T09:51:25.999Z</time></trkpt><trkpt lat="42.73836794881785" lon="11.289252840955873"><ele>308.5</ele><time>2026-03-22T09:51:26.999Z</time></trkpt><trkpt lat="42.7383575934231" lon="11.28937853400083"><ele>309.75</ele><time>2026-03-22T09:51:27.998Z</time></trkpt><trkpt lat="42.738333434294056" lon="11.28953156524165"><ele>311.0</ele><time>2026-03-22T09:51:28.998Z</time></trkpt><trkpt lat="42.73829287890881" lon="11.289714951440434"><ele>313.25</ele><time>2026-03-22T09:51:29.998Z</time></trkpt><trkpt lat="42.73827303240071" lon="11.29000303371315"><ele>315.5</ele><time>2026-03-22T09:51:30.998Z</time></trkpt><trkpt lat="42.73818451830406" lon="11.290176576616583"><ele>317.75</ele><time>2026-03-22T09:51:31.998Z</time></trkpt><trkpt lat="42.73812876954935" lon="11.290228042751702"><ele>320.0</ele><time>2026-03-22T09:51:32.998Z</time></trkpt><trkpt lat="42.73803825682554" lon="11.290279974024035"><ele>320.0</ele><time>2026-03-22T09:51:34.998Z</time></trkpt><trkpt lat="42.737956223824106" lon="11.290276628133602"><ele>320.0</ele><time>2026-03-22T09:51:36.998Z</time></trkpt><trkpt lat="42.73788698214119" lon="11.290223475108922"><ele>320.0</ele><time>2026-03-22T09:51:37.998Z</time></trkpt><trkpt lat="42.73784147651969" lon="11.290112354484995"><ele>320.0</ele><time>2026-03-22T09:51:38.998Z</time></trkpt><trkpt lat="42.73780566478968" lon="11.289995523612903"><ele>320.0</ele><time>2026-03-22T09:51:39.998Z</time></trkpt><trkpt lat="42.73776036128868" lon="11.289856214624011"><ele>321.5</ele><time>2026-03-22T09:51:40.998Z</time></trkpt><trkpt lat="42.73768164380787" lon="11.289761751840215"><ele>323.0</ele><time>2026-03-22T09:51:41.998Z</time></trkpt><trkpt lat="42.73755500326319" lon="11.289631054243433"><ele>324.5</ele><time>2026-03-22T09:51:42.998Z</time></trkpt><trkpt lat="42.73742885560809" lon="11.289528061416274"><ele>326.0</ele><time>2026-03-22T09:51:43.998Z</time></trkpt><trkpt lat="42.73728336746274" lon="11.289455300899156"><ele>322.25</ele><time>2026-03-22T09:51:44.998Z</time></trkpt><trkpt lat="42.73711499532808" lon="11.289454928839483"><ele>318.5</ele><time>2026-03-22T09:51:45.998Z</time></trkpt><trkpt lat="42.736974920594946" lon="11.289478771508271"><ele>314.75</ele><time>2026-03-22T09:51:46.998Z</time></trkpt><trkpt lat="42.736856157374845" lon="11.289518408173493"><ele>311.0</ele><time>2026-03-22T09:51:47.998Z</time></trkpt><trkpt lat="42.736731593757604" lon="11.289600186597603"><ele>311.0</ele><time>2026-03-22T09:51:48.998Z</time></trkpt><trkpt lat="42.73662038571371" lon="11.289708992167787"><ele>311.0</ele><time>2026-03-22T09:51:49.998Z</time></trkpt><trkpt lat="42.736527882377786" lon="11.289810781454415"><ele>311.0</ele><time>2026-03-22T09:51:50.998Z</time></trkpt><trkpt lat="42.73641591821806" lon="11.289944872349885"><ele>311.0</ele><time>2026-03-22T09:51:51.998Z</time></trkpt><trkpt lat="42.736348741229385" lon="11.290053805321582"><ele>313.0</ele><time>2026-03-22T09:51:52.998Z</time></trkpt><trkpt lat="42.73623509279121" lon="11.290144524035712"><ele>315.0</ele><time>2026-03-22T09:51:53.998Z</time></trkpt><trkpt lat="42.73615939749588" lon="11.29023232399931"><ele>317.0</ele><time>2026-03-22T09:51:54.998Z</time></trkpt><trkpt lat="42.73608913045898" lon="11.290350754409689"><ele>319.0</ele><time>2026-03-22T09:51:55.998Z</time></trkpt><trkpt lat="42.736030681671274" lon="11.290438715107456"><ele>321.0</ele><time>2026-03-22T09:51:57Z</time></trkpt><trkpt lat="42.73594898602285" lon="11.290466663932396"><ele>321.0</ele><time>2026-03-22T09:51:58Z</time></trkpt><trkpt lat="42.73586171686904" lon="11.290488446165208"><ele>321.0</ele><time>2026-03-22T09:51:59Z</time></trkpt><trkpt lat="42.735790320061014" lon="11.290489608924513"><ele>321.0</ele><time>2026-03-22T09:52:00Z</time></trkpt><trkpt lat="42.735700271624815" lon="11.29050058373142"><ele>321.0</ele><time>2026-03-22T09:52:01Z</time></trkpt><trkpt lat="42.73558733982358" lon="11.290513050428013"><ele>321.0</ele><time>2026-03-22T09:52:02Z</time></trkpt><trkpt lat="42.73546101042762" lon="11.29052568064418"><ele>321.0</ele><time>2026-03-22T09:52:03Z</time></trkpt><trkpt lat="42.73534289205483" lon="11.290530609209467"><ele>321.0</ele><time>2026-03-22T09:52:04Z</time></trkpt><trkpt lat="42.73522568781484" lon="11.290515855612295"><ele>321.0</ele><time>2026-03-22T09:52:05Z</time></trkpt><trkpt lat="42.73514065737888" lon="11.29045024248785"><ele>321.0</ele><time>2026-03-22T09:52:06Z</time></trkpt><trkpt lat="42.73506394454514" lon="11.29034531831745"><ele>321.0</ele><time>2026-03-22T09:52:07Z</time></trkpt><trkpt lat="42.73500984379943" lon="11.290238018620904"><ele>323.0</ele><time>2026-03-22T09:52:08Z</time></trkpt><trkpt lat="42.73497519427223" lon="11.290129183711574"><ele>325.0</ele><time>2026-03-22T09:52:09Z</time></trkpt><trkpt lat="42.734931932738085" lon="11.290015776995743"><ele>327.0</ele><time>2026-03-22T09:52:10Z</time></trkpt><trkpt lat="42.734862727281914" lon="11.289928667218826"><ele>329.0</ele><time>2026-03-22T09:52:11Z</time></trkpt><trkpt lat="42.73477330154686" lon="11.289881776654184"><ele>331.0</ele><time>2026-03-22T09:52:12Z</time></trkpt><trkpt lat="42.73467897659086" lon="11.289832569365958"><ele>331.0</ele><time>2026-03-22T09:52:13Z</time></trkpt><trkpt lat="42.73456755875178" lon="11.28985145960296"><ele>331.0</ele><time>2026-03-22T09:52:14Z</time></trkpt><trkpt lat="42.73445816310863" lon="11.289919518054928"><ele>331.0</ele><time>2026-03-22T09:52:15Z</time></trkpt><trkpt lat="42.734363854985155" lon="11.290029756091554"><ele>331.0</ele><time>2026-03-22T09:52:16Z</time></trkpt><trkpt lat="42.7342827794476" lon="11.29015430588347"><ele>331.4</ele><time>2026-03-22T09:52:17Z</time></trkpt><trkpt lat="42.73421269423082" lon="11.290252817347472"><ele>331.8</ele><time>2026-03-22T09:52:18Z</time></trkpt><trkpt lat="42.7341380634833" lon="11.290340815185166"><ele>332.2</ele><time>2026-03-22T09:52:19Z</time></trkpt><trkpt lat="42.73404909106548" lon="11.290416493457814"><ele>332.59999999999997</ele><time>2026-03-22T09:52:20Z</time></trkpt><trkpt lat="42.73394332831861" lon="11.290481275304147"><ele>333.0</ele><time>2026-03-22T09:52:21Z</time></trkpt><trkpt lat="42.73383330651809" lon="11.29052474077231"><ele>333.0</ele><time>2026-03-22T09:52:22Z</time></trkpt><trkpt lat="42.7336581656575" lon="11.290570977670438"><ele>333.0</ele><time>2026-03-22T09:52:23Z</time></trkpt><trkpt lat="42.73345665199727" lon="11.290623305942628"><ele>333.0</ele><time>2026-03-22T09:52:24Z</time></trkpt><trkpt lat="42.733261969592405" lon="11.290673860325995"><ele>334.3333333333333</ele><time>2026-03-22T09:52:25Z</time></trkpt><trkpt lat="42.73306914234223" lon="11.290722677064371"><ele>335.66666666666663</ele><time>2026-03-22T09:52:26Z</time></trkpt><trkpt lat="42.73289010470595" lon="11.29076756531708"><ele>337.0</ele><time>2026-03-22T09:52:27Z</time></trkpt><trkpt lat="42.732730733832575" lon="11.290810983525859"><ele>339.0</ele><time>2026-03-22T09:52:28Z</time></trkpt><trkpt lat="42.732578595018566" lon="11.2908619502155"><ele>341.0</ele><time>2026-03-22T09:52:29Z</time></trkpt><trkpt lat="42.732424037254624" lon="11.290968251023669"><ele>343.0</ele><time>2026-03-22T09:52:30Z</time></trkpt><trkpt lat="42.73227355585655" lon="11.291077474201153"><ele>343.0</ele><time>2026-03-22T09:52:31Z</time></trkpt><trkpt lat="42.73212618517925" lon="11.291216530520929"><ele>343.0</ele><time>2026-03-22T09:52:31.999Z</time></trkpt><trkpt lat="42.73198462884243" lon="11.291356877753943"><ele>343.0</ele><time>2026-03-22T09:52:32.999Z</time></trkpt><trkpt lat="42.731848263856875" lon="11.291498475363996"><ele>344.75</ele><time>2026-03-22T09:52:33.999Z</time></trkpt><trkpt lat="42.731714288385554" lon="11.291614495769723"><ele>346.5</ele><time>2026-03-22T09:52:34.999Z</time></trkpt><trkpt lat="42.731613286929274" lon="11.291754945733617"><ele>348.25</ele><time>2026-03-22T09:52:35.999Z</time></trkpt><trkpt lat="42.731545978928075" lon="11.291911039847498"><ele>350.0</ele><time>2026-03-22T09:52:36.999Z</time></trkpt><trkpt lat="42.731532597480495" lon="11.292117911188184"><ele>350.6666666666667</ele><time>2026-03-22T09:52:37.999Z</time></trkpt><trkpt lat="42.73157146854542" lon="11.292361171921705"><ele>351.3333333333333</ele><time>2026-03-22T09:52:38.999Z</time></trkpt><trkpt lat="42.73158790809038" lon="11.292607859666035"><ele>352.0</ele><time>2026-03-22T09:52:39.999Z</time></trkpt><trkpt lat="42.731622251154825" lon="11.2927943596915"><ele>352.0</ele><time>2026-03-22T09:52:40.999Z</time></trkpt><trkpt lat="42.731670705452345" lon="11.293007883925972"><ele>352.0</ele><time>2026-03-22T09:52:41.999Z</time></trkpt><trkpt lat="42.731709817675714" lon="11.293228670668585"><ele>352.0</ele><time>2026-03-22T09:52:42.999Z</time></trkpt><trkpt lat="42.73172192922193" lon="11.293421142635419"><ele>352.5</ele><time>2026-03-22T09:52:43.999Z</time></trkpt><trkpt lat="42.73172351773967" lon="11.293642421568311"><ele>353.0</ele><time>2026-03-22T09:52:44.999Z</time></trkpt><trkpt lat="42.73167383840167" lon="11.293803355868949"><ele>353.5</ele><time>2026-03-22T09:52:45.999Z</time></trkpt><trkpt lat="42.73159468382839" lon="11.293979367008964"><ele>354.0</ele><time>2026-03-22T09:52:46.999Z</time></trkpt><trkpt lat="42.73151014691435" lon="11.294172135056852"><ele>352.0</ele><time>2026-03-22T09:52:47.999Z</time></trkpt><trkpt lat="42.73144743308276" lon="11.29431514031414"><ele>350.0</ele><time>2026-03-22T09:52:48.999Z</time></trkpt><trkpt lat="42.73139678640787" lon="11.294430279313428"><ele>348.0</ele><time>2026-03-22T09:52:49.999Z</time></trkpt><trkpt lat="42.731305913493436" lon="11.294532159261363"><ele>346.0</ele><time>2026-03-22T09:52:50.999Z</time></trkpt><trkpt lat="42.73119827318533" lon="11.294686551461321"><ele>349.25</ele><time>2026-03-22T09:52:51.999Z</time></trkpt><trkpt lat="42.731103328809496" lon="11.294762947830975"><ele>352.5</ele><time>2026-03-22T09:52:52.999Z</time></trkpt><trkpt lat="42.731000499127965" lon="11.294863480039432"><ele>355.75</ele><time>2026-03-22T09:52:53.999Z</time></trkpt><trkpt lat="42.73088513949845" lon="11.29497909522173"><ele>359.0</ele><time>2026-03-22T09:52:54.999Z</time></trkpt><trkpt lat="42.73076681914897" lon="11.295136377671742"><ele>359.0</ele><time>2026-03-22T09:52:55.999Z</time></trkpt><trkpt lat="42.73061796538085" lon="11.295241505367658"><ele>359.0</ele><time>2026-03-22T09:52:56.999Z</time></trkpt><trkpt lat="42.73062317422685" lon="11.295522331909753"><ele>359.0</ele><time>2026-03-22T09:52:57.999Z</time></trkpt><trkpt lat="42.73054281407405" lon="11.295691011519484"><ele>356.79999999999995</ele><time>2026-03-22T09:52:58.999Z</time></trkpt><trkpt lat="42.73046089527682" lon="11.295808791931028"><ele>354.59999999999997</ele><time>2026-03-22T09:52:59.999Z</time></trkpt><trkpt lat="42.730339475551254" lon="11.295857808797745"><ele>352.4</ele><time>2026-03-22T09:53:00.999Z</time></trkpt><trkpt lat="42.73024451094108" lon="11.295881724111803"><ele>350.2</ele><time>2026-03-22T09:53:01.999Z</time></trkpt><trkpt lat="42.730174119437635" lon="11.295846319716553"><ele>348.0</ele><time>2026-03-22T09:53:02.999Z</time></trkpt><trkpt lat="42.73005578233469" lon="11.29575646069332"><ele>348.0</ele><time>2026-03-22T09:53:03.999Z</time></trkpt><trkpt lat="42.7298537047445" lon="11.295647399605297"><ele>348.0</ele><time>2026-03-22T09:53:04.999Z</time></trkpt><trkpt lat="42.72974887267133" lon="11.295010389463243"><ele>352.6666666666667</ele><time>2026-03-22T09:53:05.999Z</time></trkpt><trkpt lat="42.729689690316285" lon="11.294802547054676"><ele>357.33333333333337</ele><time>2026-03-22T09:53:06.999Z</time></trkpt><trkpt lat="42.72964738746837" lon="11.29460795909637"><ele>362.0</ele><time>2026-03-22T09:53:07.999Z</time></trkpt><trkpt lat="42.72958546226725" lon="11.294407662379681"><ele>363.20000000000005</ele><time>2026-03-22T09:53:08.999Z</time></trkpt><trkpt lat="42.72951788892455" lon="11.294306904668455"><ele>364.4</ele><time>2026-03-22T09:53:09.999Z</time></trkpt><trkpt lat="42.72943812790707" lon="11.294233778341525"><ele>365.6</ele><time>2026-03-22T09:53:10.999Z</time></trkpt><trkpt lat="42.72935648388597" lon="11.294181670364864"><ele>366.79999999999995</ele><time>2026-03-22T09:53:11.999Z</time></trkpt><trkpt lat="42.72929087265807" lon="11.294183284898725"><ele>368.0</ele><time>2026-03-22T09:53:12.999Z</time></trkpt><trkpt lat="42.729230007559295" lon="11.29439121748534"><ele>368.0</ele><time>2026-03-22T09:53:13.999Z</time></trkpt><trkpt lat="42.72925557806567" lon="11.29450314620692"><ele>368.0</ele><time>2026-03-22T09:53:14.999Z</time></trkpt><trkpt lat="42.72922827407749" lon="11.29469541422859"><ele>368.0</ele><time>2026-03-22T09:53:15.999Z</time></trkpt><trkpt lat="42.72918750692975" lon="11.294881687981903"><ele>368.0</ele><time>2026-03-22T09:53:16.999Z</time></trkpt><trkpt lat="42.72913891404634" lon="11.295095349428687"><ele>366.0</ele><time>2026-03-22T09:53:17.999Z</time></trkpt><trkpt lat="42.72902501618156" lon="11.295343278278247"><ele>364.0</ele><time>2026-03-22T09:53:18.999Z</time></trkpt><trkpt lat="42.72889292388731" lon="11.295576769796067"><ele>362.0</ele><time>2026-03-22T09:53:19.999Z</time></trkpt><trkpt lat="42.72877220050047" lon="11.295749700799533"><ele>361.6666666666667</ele><time>2026-03-22T09:53:20.999Z</time></trkpt><trkpt lat="42.7285771969188" lon="11.295821350413657"><ele>361.3333333333333</ele><time>2026-03-22T09:53:21.999Z</time></trkpt><trkpt lat="42.728396279132916" lon="11.295915502773749"><ele>361.0</ele><time>2026-03-22T09:53:22.999Z</time></trkpt><trkpt lat="42.7282593568551" lon="11.29566740818413"><ele>370.5</ele><time>2026-03-22T09:53:23.999Z</time></trkpt><trkpt lat="42.72815976697659" lon="11.295506774511896"><ele>380.0</ele><time>2026-03-22T09:53:24.999Z</time></trkpt><trkpt lat="42.72644046906708" lon="11.293674675190497"><ele>391.0</ele><time>2026-03-22T09:53:36.998Z</time></trkpt><trkpt lat="42.72601712747765" lon="11.29286028747617"><ele>391.0</ele><time>2026-03-22T09:53:42.998Z</time></trkpt><trkpt lat="42.72568155769888" lon="11.292807481474634"><ele>391.0</ele><time>2026-03-22T09:53:46.998Z</time></trkpt><trkpt lat="42.725352490486095" lon="11.292965150326825"><ele>393.0</ele><time>2026-03-22T09:53:50.998Z</time></trkpt><trkpt lat="42.7249578392692" lon="11.292998012106356"><ele>395.0</ele><time>2026-03-22T09:53:54.998Z</time></trkpt><trkpt lat="42.724875762710695" lon="11.292925947971943"><ele>395.0</ele><time>2026-03-22T09:53:55.998Z</time></trkpt><trkpt lat="42.72475319388945" lon="11.292872540834095"><ele>395.0</ele><time>2026-03-22T09:53:56.998Z</time></trkpt><trkpt lat="42.72464225998353" lon="11.29283433940453"><ele>395.0</ele><time>2026-03-22T09:53:57.998Z</time></trkpt><trkpt lat="42.72454119088606" lon="11.292818910911546"><ele>395.0</ele><time>2026-03-22T09:53:58.998Z</time></trkpt><trkpt lat="42.724426197232034" lon="11.29282761651869"><ele>394.75</ele><time>2026-03-22T09:53:59.998Z</time></trkpt><trkpt lat="42.724304967623965" lon="11.292834410760271"><ele>394.5</ele><time>2026-03-22T09:54:00.998Z</time></trkpt><trkpt lat="42.72418181517734" lon="11.292839397391301"><ele>394.25</ele><time>2026-03-22T09:54:02Z</time></trkpt><trkpt lat="42.72405723225269" lon="11.292842549299786"><ele>394.0</ele><time>2026-03-22T09:54:03Z</time></trkpt><trkpt lat="42.72392866038557" lon="11.292865305673956"><ele>394.0</ele><time>2026-03-22T09:54:04Z</time></trkpt><trkpt lat="42.72379921919145" lon="11.29286629984742"><ele>394.0</ele><time>2026-03-22T09:54:05Z</time></trkpt><trkpt lat="42.72365223405615" lon="11.29287983376298"><ele>394.0</ele><time>2026-03-22T09:54:06Z</time></trkpt><trkpt lat="42.72353630211625" lon="11.292852804568742"><ele>394.0</ele><time>2026-03-22T09:54:07Z</time></trkpt><trkpt lat="42.723421575404295" lon="11.292790765494878"><ele>393.5</ele><time>2026-03-22T09:54:08Z</time></trkpt><trkpt lat="42.72332865089334" lon="11.292672532846629"><ele>393.0</ele><time>2026-03-22T09:54:09Z</time></trkpt><trkpt lat="42.723258051915415" lon="11.292523097247528"><ele>392.5</ele><time>2026-03-22T09:54:10Z</time></trkpt><trkpt lat="42.72319055630561" lon="11.292374135749093"><ele>392.0</ele><time>2026-03-22T09:54:11Z</time></trkpt><trkpt lat="42.72311398377759" lon="11.292242642133356"><ele>392.75</ele><time>2026-03-22T09:54:12Z</time></trkpt><trkpt lat="42.723022762087766" lon="11.29213843376127"><ele>393.5</ele><time>2026-03-22T09:54:13Z</time></trkpt><trkpt lat="42.72291323270038" lon="11.292046204031491"><ele>394.25</ele><time>2026-03-22T09:54:14Z</time></trkpt><trkpt lat="42.72277184383431" lon="11.292028272003584"><ele>395.0</ele><time>2026-03-22T09:54:15Z</time></trkpt><trkpt lat="42.72263219745043" lon="11.292049773150593"><ele>395.0</ele><time>2026-03-22T09:54:16Z</time></trkpt><trkpt lat="42.722505814636925" lon="11.292110358194508"><ele>395.0</ele><time>2026-03-22T09:54:17Z</time></trkpt><trkpt lat="42.72237169720091" lon="11.292145878800666"><ele>395.0</ele><time>2026-03-22T09:54:18Z</time></trkpt><trkpt lat="42.722238263837504" lon="11.292179929169196"><ele>395.0</ele><time>2026-03-22T09:54:19Z</time></trkpt><trkpt lat="42.722103165755684" lon="11.292229332602917"><ele>394.75</ele><time>2026-03-22T09:54:20Z</time></trkpt><trkpt lat="42.72196547125382" lon="11.292285725518862"><ele>394.5</ele><time>2026-03-22T09:54:21Z</time></trkpt><trkpt lat="42.721830039456584" lon="11.292332494118947"><ele>394.25</ele><time>2026-03-22T09:54:22Z</time></trkpt><trkpt lat="42.72168767476301" lon="11.29237740449714"><ele>394.0</ele><time>2026-03-22T09:54:23Z</time></trkpt><trkpt lat="42.72155383932396" lon="11.29241809793468"><ele>394.0</ele><time>2026-03-22T09:54:24Z</time></trkpt><trkpt lat="42.721413763937974" lon="11.292465875162012"><ele>394.0</ele><time>2026-03-22T09:54:25Z</time></trkpt><trkpt lat="42.72127627001297" lon="11.292523723816497"><ele>394.0</ele><time>2026-03-22T09:54:26Z</time></trkpt><trkpt lat="42.721137988292476" lon="11.292580057941374"><ele>394.0</ele><time>2026-03-22T09:54:27Z</time></trkpt><trkpt lat="42.7209870545946" lon="11.292631171262979"><ele>396.0</ele><time>2026-03-22T09:54:28Z</time></trkpt><trkpt lat="42.72084142754961" lon="11.292681254504865"><ele>398.0</ele><time>2026-03-22T09:54:29Z</time></trkpt><trkpt lat="42.720695626448595" lon="11.292735564724953"><ele>400.0</ele><time>2026-03-22T09:54:30Z</time></trkpt><trkpt lat="42.72053617885557" lon="11.292795112355224"><ele>400.0</ele><time>2026-03-22T09:54:31Z</time></trkpt><trkpt lat="42.720375216130016" lon="11.292853708333393"><ele>400.0</ele><time>2026-03-22T09:54:32Z</time></trkpt><trkpt lat="42.720213565393244" lon="11.292911167377188"><ele>400.0</ele><time>2026-03-22T09:54:33Z</time></trkpt><trkpt lat="42.72006026966429" lon="11.292965486461949"><ele>402.0</ele><time>2026-03-22T09:54:34Z</time></trkpt><trkpt lat="42.719893010311814" lon="11.293022649707726"><ele>404.0</ele><time>2026-03-22T09:54:35Z</time></trkpt><trkpt lat="42.71972502075718" lon="11.293078390520428"><ele>406.0</ele><time>2026-03-22T09:54:35.999Z</time></trkpt><trkpt lat="42.71955613572342" lon="11.293133996084544"><ele>408.0</ele><time>2026-03-22T09:54:36.999Z</time></trkpt><trkpt lat="42.71938148919596" lon="11.293196354799733"><ele>410.0</ele><time>2026-03-22T09:54:37.999Z</time></trkpt><trkpt lat="42.719208452023096" lon="11.293256373373945"><ele>412.0</ele><time>2026-03-22T09:54:38.999Z</time></trkpt><trkpt lat="42.719039187764636" lon="11.293306468965069"><ele>412.0</ele><time>2026-03-22T09:54:39.999Z</time></trkpt><trkpt lat="42.71888772220691" lon="11.293434080541502"><ele>412.0</ele><time>2026-03-22T09:54:40.999Z</time></trkpt><trkpt lat="42.7187446154408" lon="11.293555296775324"><ele>412.0</ele><time>2026-03-22T09:54:41.999Z</time></trkpt><trkpt lat="42.71861052080652" lon="11.293758272487384"><ele>415.33333333333337</ele><time>2026-03-22T09:54:42.999Z</time></trkpt><trkpt lat="42.718530600656955" lon="11.293985767490067"><ele>418.66666666666663</ele><time>2026-03-22T09:54:43.999Z</time></trkpt><trkpt lat="42.718476842856454" lon="11.294239554015299"><ele>422.0</ele><time>2026-03-22T09:54:44.999Z</time></trkpt><trkpt lat="42.71842942874792" lon="11.294490440501157"><ele>423.3333333333333</ele><time>2026-03-22T09:54:45.999Z</time></trkpt><trkpt lat="42.71839547335042" lon="11.294756008717338"><ele>424.66666666666663</ele><time>2026-03-22T09:54:46.999Z</time></trkpt><trkpt lat="42.71836304732965" lon="11.295021146968047"><ele>426.0</ele><time>2026-03-22T09:54:47.999Z</time></trkpt><trkpt lat="42.71833050262281" lon="11.295287256129212"><ele>426.0</ele><time>2026-03-22T09:54:48.999Z</time></trkpt><trkpt lat="42.718295955881516" lon="11.295556187940452"><ele>426.0</ele><time>2026-03-22T09:54:49.999Z</time></trkpt><trkpt lat="42.718262221065785" lon="11.29583019612732"><ele>426.0</ele><time>2026-03-22T09:54:50.999Z</time></trkpt><trkpt lat="42.71822731081338" lon="11.296112535002184"><ele>426.33333333333337</ele><time>2026-03-22T09:54:51.999Z</time></trkpt><trkpt lat="42.71819542868601" lon="11.296370384035566"><ele>426.6666666666667</ele><time>2026-03-22T09:54:52.999Z</time></trkpt><trkpt lat="42.7181623456223" lon="11.296631251789355"><ele>427.0</ele><time>2026-03-22T09:54:53.999Z</time></trkpt><trkpt lat="42.71812926832232" lon="11.296893251805294"><ele>428.6666666666667</ele><time>2026-03-22T09:54:54.999Z</time></trkpt><trkpt lat="42.718097148996144" lon="11.297152010340334"><ele>430.33333333333337</ele><time>2026-03-22T09:54:55.999Z</time></trkpt><trkpt lat="42.718065932668935" lon="11.297403571625226"><ele>432.0</ele><time>2026-03-22T09:54:56.999Z</time></trkpt><trkpt lat="42.718035015759526" lon="11.297653167361554"><ele>434.66666666666663</ele><time>2026-03-22T09:54:57.999Z</time></trkpt><trkpt lat="42.71800445526249" lon="11.297898660215346"><ele>437.3333333333333</ele><time>2026-03-22T09:54:58.999Z</time></trkpt><trkpt lat="42.717974617256935" lon="11.29814066650565"><ele>440.0</ele><time>2026-03-22T09:54:59.999Z</time></trkpt><trkpt lat="42.71794206065986" lon="11.298373036272093"><ele>442.3333333333333</ele><time>2026-03-22T09:55:00.999Z</time></trkpt><trkpt lat="42.717884546313385" lon="11.29858667137422"><ele>444.66666666666663</ele><time>2026-03-22T09:55:01.999Z</time></trkpt><trkpt lat="42.717797021359935" lon="11.298778255053216"><ele>447.0</ele><time>2026-03-22T09:55:02.999Z</time></trkpt><trkpt lat="42.71767920502424" lon="11.298947548250803"><ele>447.75</ele><time>2026-03-22T09:55:03.999Z</time></trkpt><trkpt lat="42.71755329694263" lon="11.299070110328666"><ele>448.5</ele><time>2026-03-22T09:55:04.999Z</time></trkpt><trkpt lat="42.717419615014585" lon="11.299161797267315"><ele>449.25</ele><time>2026-03-22T09:55:05.999Z</time></trkpt><trkpt lat="42.71728473393369" lon="11.299225495717664"><ele>450.0</ele><time>2026-03-22T09:55:06.999Z</time></trkpt><trkpt lat="42.71715616285384" lon="11.29924357804967"><ele>450.0</ele><time>2026-03-22T09:55:07.999Z</time></trkpt><trkpt lat="42.71703506990794" lon="11.29924715444462"><ele>450.0</ele><time>2026-03-22T09:55:08.999Z</time></trkpt><trkpt lat="42.71691689049983" lon="11.299242129076662"><ele>450.0</ele><time>2026-03-22T09:55:09.999Z</time></trkpt><trkpt lat="42.71680396737366" lon="11.299236075730885"><ele>450.0</ele><time>2026-03-22T09:55:10.999Z</time></trkpt><trkpt lat="42.71668313006265" lon="11.299227361504183"><ele>450.0</ele><time>2026-03-22T09:55:11.999Z</time></trkpt><trkpt lat="42.716569315777605" lon="11.299216722504843"><ele>450.0</ele><time>2026-03-22T09:55:12.999Z</time></trkpt><trkpt lat="42.71646453255652" lon="11.299205889843039"><ele>450.0</ele><time>2026-03-22T09:55:13.999Z</time></trkpt><trkpt lat="42.716362184553816" lon="11.299194310075931"><ele>450.0</ele><time>2026-03-22T09:55:14.999Z</time></trkpt><trkpt lat="42.716262084309946" lon="11.299182682268079"><ele>450.0</ele><time>2026-03-22T09:55:15.999Z</time></trkpt><trkpt lat="42.7161639203245" lon="11.299171279380904"><ele>450.0</ele><time>2026-03-22T09:55:16.999Z</time></trkpt><trkpt lat="42.71607514737122" lon="11.299160967375208"><ele>450.0</ele><time>2026-03-22T09:55:17.999Z</time></trkpt><trkpt lat="42.7159918441485" lon="11.299152786619283"><ele>450.0</ele><time>2026-03-22T09:55:18.999Z</time></trkpt><trkpt lat="42.71591531989056" lon="11.299155491630838"><ele>450.0</ele><time>2026-03-22T09:55:19.999Z</time></trkpt><trkpt lat="42.715849675492684" lon="11.299160427328651"><ele>450.0</ele><time>2026-03-22T09:55:20.999Z</time></trkpt><trkpt lat="42.7157849929944" lon="11.299199338395944"><ele>450.0</ele><time>2026-03-22T09:55:21.999Z</time></trkpt><trkpt lat="42.71570643151476" lon="11.299286612889384"><ele>450.8</ele><time>2026-03-22T09:55:23.999Z</time></trkpt><trkpt lat="42.71566592070098" lon="11.299375026699272"><ele>451.6</ele><time>2026-03-22T09:55:25.999Z</time></trkpt><trkpt lat="42.71560565519017" lon="11.299467777934844"><ele>452.4</ele><time>2026-03-22T09:55:27.999Z</time></trkpt><trkpt lat="42.7155571765115" lon="11.29958170652728"><ele>453.2</ele><time>2026-03-22T09:55:28.999Z</time></trkpt><trkpt lat="42.71550637771194" lon="11.299740822491747"><ele>454.0</ele><time>2026-03-22T09:55:29.999Z</time></trkpt><trkpt lat="42.71546716584216" lon="11.299899598373107"><ele>454.75</ele><time>2026-03-22T09:55:30.999Z</time></trkpt><trkpt lat="42.715432423208895" lon="11.300074039556085"><ele>455.5</ele><time>2026-03-22T09:55:31.999Z</time></trkpt><trkpt lat="42.71538033296426" lon="11.300236004931511"><ele>456.25</ele><time>2026-03-22T09:55:32.999Z</time></trkpt><trkpt lat="42.715331231570694" lon="11.300387919876197"><ele>457.0</ele><time>2026-03-22T09:55:33.999Z</time></trkpt><trkpt lat="42.715269131928785" lon="11.300569166816079"><ele>457.0</ele><time>2026-03-22T09:55:34.999Z</time></trkpt><trkpt lat="42.71520695725409" lon="11.300756051449994"><ele>457.0</ele><time>2026-03-22T09:55:35.999Z</time></trkpt><trkpt lat="42.71513821990614" lon="11.300939659407044"><ele>457.0</ele><time>2026-03-22T09:55:36.999Z</time></trkpt><trkpt lat="42.71505432730204" lon="11.301102110302908"><ele>457.0</ele><time>2026-03-22T09:55:37.999Z</time></trkpt><trkpt lat="42.71498520822184" lon="11.301284093771187"><ele>457.25</ele><time>2026-03-22T09:55:38.999Z</time></trkpt><trkpt lat="42.71490210136228" lon="11.301428999243791"><ele>457.5</ele><time>2026-03-22T09:55:39.999Z</time></trkpt><trkpt lat="42.7148229661769" lon="11.30156980711219"><ele>457.75</ele><time>2026-03-22T09:55:40.999Z</time></trkpt><trkpt lat="42.71473809008033" lon="11.301706672404483"><ele>458.0</ele><time>2026-03-22T09:55:41.999Z</time></trkpt><trkpt lat="42.714657409944834" lon="11.301840393294434"><ele>458.0</ele><time>2026-03-22T09:55:42.999Z</time></trkpt><trkpt lat="42.71457568349139" lon="11.301981458093485"><ele>458.0</ele><time>2026-03-22T09:55:43.998Z</time></trkpt><trkpt lat="42.714491812899745" lon="11.302123558622226"><ele>458.0</ele><time>2026-03-22T09:55:44.998Z</time></trkpt><trkpt lat="42.71440375403805" lon="11.302281409479633"><ele>458.0</ele><time>2026-03-22T09:55:45.998Z</time></trkpt><trkpt lat="42.7143091072659" lon="11.302452462066428"><ele>457.0</ele><time>2026-03-22T09:55:46.998Z</time></trkpt><trkpt lat="42.71420928616805" lon="11.302626597263865"><ele>456.0</ele><time>2026-03-22T09:55:47.998Z</time></trkpt><trkpt lat="42.71410450895514" lon="11.302809779039858"><ele>455.0</ele><time>2026-03-22T09:55:48.998Z</time></trkpt><trkpt lat="42.713993331821925" lon="11.302999338289652"><ele>455.3333333333333</ele><time>2026-03-22T09:55:49.998Z</time></trkpt><trkpt lat="42.71386043766912" lon="11.303176866188743"><ele>455.66666666666663</ele><time>2026-03-22T09:55:50.998Z</time></trkpt><trkpt lat="42.71372429419933" lon="11.30335594258143"><ele>456.0</ele><time>2026-03-22T09:55:51.998Z</time></trkpt><trkpt lat="42.71357035844932" lon="11.303510059022235"><ele>456.0</ele><time>2026-03-22T09:55:52.998Z</time></trkpt><trkpt lat="42.71340918509414" lon="11.303632259103654"><ele>456.0</ele><time>2026-03-22T09:55:53.998Z</time></trkpt><trkpt lat="42.713241037196646" lon="11.303717454648957"><ele>456.0</ele><time>2026-03-22T09:55:54.998Z</time></trkpt><trkpt lat="42.71306359625345" lon="11.30378450201802"><ele>456.0</ele><time>2026-03-22T09:55:55.998Z</time></trkpt><trkpt lat="42.71287152628431" lon="11.303835634486493"><ele>456.0</ele><time>2026-03-22T09:55:56.998Z</time></trkpt><trkpt lat="42.712665210680406" lon="11.303886450641853"><ele>456.0</ele><time>2026-03-22T09:55:57.998Z</time></trkpt><trkpt lat="42.71246361550153" lon="11.303938605767522"><ele>458.33333333333337</ele><time>2026-03-22T09:55:58.998Z</time></trkpt><trkpt lat="42.71225187212666" lon="11.303993386355627"><ele>460.6666666666667</ele><time>2026-03-22T09:55:59.998Z</time></trkpt><trkpt lat="42.712030630764694" lon="11.304050624193998"><ele>463.0</ele><time>2026-03-22T09:56:00.998Z</time></trkpt><trkpt lat="42.71180694717515" lon="11.304108493860046"><ele>463.0</ele><time>2026-03-22T09:56:01.998Z</time></trkpt><trkpt lat="42.71158550244367" lon="11.304165784304672"><ele>463.0</ele><time>2026-03-22T09:56:02.998Z</time></trkpt><trkpt lat="42.71135721882286" lon="11.304224844076154"><ele>463.0</ele><time>2026-03-22T09:56:03.998Z</time></trkpt><trkpt lat="42.71113826265012" lon="11.304281626500655"><ele>463.0</ele><time>2026-03-22T09:56:04.998Z</time></trkpt><trkpt lat="42.71091490472087" lon="11.304339575167578"><ele>464.0</ele><time>2026-03-22T09:56:05.998Z</time></trkpt><trkpt lat="42.71068719486267" lon="11.304398654754698"><ele>465.0</ele><time>2026-03-22T09:56:06.998Z</time></trkpt><trkpt lat="42.71045780784985" lon="11.304458167550152"><ele>464.0</ele><time>2026-03-22T09:56:08Z</time></trkpt><trkpt lat="42.71022868587224" lon="11.304517058250719"><ele>463.0</ele><time>2026-03-22T09:56:09Z</time></trkpt><trkpt lat="42.70999664585002" lon="11.304576395474138"><ele>463.0</ele><time>2026-03-22T09:56:10Z</time></trkpt><trkpt lat="42.70976243604584" lon="11.304635119449989"><ele>463.0</ele><time>2026-03-22T09:56:11Z</time></trkpt><trkpt lat="42.70953066666011" lon="11.304694940187439"><ele>466.5</ele><time>2026-03-22T09:56:12Z</time></trkpt><trkpt lat="42.709296932092855" lon="11.304755748864062"><ele>470.0</ele><time>2026-03-22T09:56:13Z</time></trkpt><trkpt lat="42.709058391771116" lon="11.304822677842242"><ele>470.0</ele><time>2026-03-22T09:56:14Z</time></trkpt><trkpt lat="42.708821755179805" lon="11.304897505181186"><ele>470.0</ele><time>2026-03-22T09:56:15Z</time></trkpt><trkpt lat="42.708586578424246" lon="11.304979687091741"><ele>471.0</ele><time>2026-03-22T09:56:16Z</time></trkpt><trkpt lat="42.708352820576096" lon="11.30507086832331"><ele>472.0</ele><time>2026-03-22T09:56:17Z</time></trkpt><trkpt lat="42.70811967538366" lon="11.305167408372151"><ele>472.0</ele><time>2026-03-22T09:56:18Z</time></trkpt><trkpt lat="42.70789019202389" lon="11.305263057371372"><ele>472.0</ele><time>2026-03-22T09:56:19Z</time></trkpt><trkpt lat="42.70766423816974" lon="11.305358739302374"><ele>475.5</ele><time>2026-03-22T09:56:20Z</time></trkpt><trkpt lat="42.70744416160467" lon="11.305452938728232"><ele>479.0</ele><time>2026-03-22T09:56:21Z</time></trkpt><trkpt lat="42.70721914677583" lon="11.305546670207317"><ele>478.5</ele><time>2026-03-22T09:56:22Z</time></trkpt><trkpt lat="42.706997906527434" lon="11.305638747702861"><ele>478.0</ele><time>2026-03-22T09:56:23Z</time></trkpt><trkpt lat="42.70677727267731" lon="11.305731051153284"><ele>478.0</ele><time>2026-03-22T09:56:24Z</time></trkpt><trkpt lat="42.706553741940596" lon="11.30582572686522"><ele>478.0</ele><time>2026-03-22T09:56:25Z</time></trkpt><trkpt lat="42.70633603913294" lon="11.305917389360022"><ele>478.0</ele><time>2026-03-22T09:56:26Z</time></trkpt><trkpt lat="42.70611478957433" lon="11.306010546865735"><ele>478.0</ele><time>2026-03-22T09:56:27Z</time></trkpt><trkpt lat="42.70589504182502" lon="11.30610307040208"><ele>478.5</ele><time>2026-03-22T09:56:28Z</time></trkpt><trkpt lat="42.70567384520459" lon="11.306196203936137"><ele>479.0</ele><time>2026-03-22T09:56:29Z</time></trkpt><trkpt lat="42.70545096068834" lon="11.306290048155303"><ele>477.5</ele><time>2026-03-22T09:56:30Z</time></trkpt><trkpt lat="42.70522708197648" lon="11.306384415290061"><ele>476.0</ele><time>2026-03-22T09:56:31Z</time></trkpt><trkpt lat="42.70500300524656" lon="11.306478892259735"><ele>481.5</ele><time>2026-03-22T09:56:32Z</time></trkpt><trkpt lat="42.704776423886244" lon="11.306574325364986"><ele>487.0</ele><time>2026-03-22T09:56:33Z</time></trkpt><trkpt lat="42.70455136686711" lon="11.306669091371626"><ele>489.0</ele><time>2026-03-22T09:56:34Z</time></trkpt><trkpt lat="42.704324115621866" lon="11.306764781337064"><ele>491.0</ele><time>2026-03-22T09:56:35Z</time></trkpt><trkpt lat="42.70409842234703" lon="11.306858828705003"><ele>491.0</ele><time>2026-03-22T09:56:36Z</time></trkpt><trkpt lat="42.70387206441355" lon="11.306954180108855"><ele>491.0</ele><time>2026-03-22T09:56:37Z</time></trkpt><trkpt lat="42.70365131207987" lon="11.307051710319762"><ele>494.5</ele><time>2026-03-22T09:56:38Z</time></trkpt><trkpt lat="42.70342795167939" lon="11.307134730399481"><ele>498.0</ele><time>2026-03-22T09:56:39Z</time></trkpt><trkpt lat="42.703206028034586" lon="11.307186468448707"><ele>498.0</ele><time>2026-03-22T09:56:40Z</time></trkpt><trkpt lat="42.70299181742299" lon="11.307172095538972"><ele>498.0</ele><time>2026-03-22T09:56:41Z</time></trkpt><trkpt lat="42.70277434658017" lon="11.307085686397963"><ele>498.0</ele><time>2026-03-22T09:56:42Z</time></trkpt><trkpt lat="42.70255460562351" lon="11.306981674798077"><ele>501.0</ele><time>2026-03-22T09:56:43Z</time></trkpt><trkpt lat="42.70234065517712" lon="11.306882054314558"><ele>504.0</ele><time>2026-03-22T09:56:43.999Z</time></trkpt><trkpt lat="42.70212298524709" lon="11.306779703448564"><ele>505.5</ele><time>2026-03-22T09:56:44.999Z</time></trkpt><trkpt lat="42.701900887353766" lon="11.306675355905687"><ele>507.0</ele><time>2026-03-22T09:56:45.999Z</time></trkpt><trkpt lat="42.701683454972134" lon="11.306573845402333"><ele>507.0</ele><time>2026-03-22T09:56:46.999Z</time></trkpt><trkpt lat="42.70146126191644" lon="11.306470396192104"><ele>507.0</ele><time>2026-03-22T09:56:47.999Z</time></trkpt><trkpt lat="42.70124133319744" lon="11.306367606725793"><ele>505.0</ele><time>2026-03-22T09:56:48.999Z</time></trkpt><trkpt lat="42.70101523657418" lon="11.306291063627459"><ele>503.0</ele><time>2026-03-22T09:56:49.999Z</time></trkpt><trkpt lat="42.700790870619315" lon="11.306187518191454"><ele>503.0</ele><time>2026-03-22T09:56:50.999Z</time></trkpt><trkpt lat="42.70055394486644" lon="11.306155534194987"><ele>503.0</ele><time>2026-03-22T09:56:51.999Z</time></trkpt><trkpt lat="42.70031776238781" lon="11.306125702124273"><ele>502.0</ele><time>2026-03-22T09:56:52.999Z</time></trkpt><trkpt lat="42.7000752445964" lon="11.306168655251303"><ele>501.0</ele><time>2026-03-22T09:56:53.999Z</time></trkpt><trkpt lat="42.69983959350128" lon="11.30619681962303"><ele>501.0</ele><time>2026-03-22T09:56:54.999Z</time></trkpt><trkpt lat="42.699601206913236" lon="11.306223377649161"><ele>501.0</ele><time>2026-03-22T09:56:55.999Z</time></trkpt><trkpt lat="42.699356795688225" lon="11.30623417387422"><ele>503.0</ele><time>2026-03-22T09:56:56.999Z</time></trkpt><trkpt lat="42.69912061480436" lon="11.306249829310346"><ele>505.0</ele><time>2026-03-22T09:56:57.999Z</time></trkpt><trkpt lat="42.69888217584584" lon="11.306254383373041"><ele>505.0</ele><time>2026-03-22T09:56:58.999Z</time></trkpt><trkpt lat="42.698647133885956" lon="11.30628572456298"><ele>505.0</ele><time>2026-03-22T09:56:59.999Z</time></trkpt><trkpt lat="42.69840547864487" lon="11.306337537907334"><ele>503.0</ele><time>2026-03-22T09:57:00.999Z</time></trkpt><trkpt lat="42.6981548893238" lon="11.306375425441463"><ele>501.0</ele><time>2026-03-22T09:57:01.999Z</time></trkpt><trkpt lat="42.6979185936724" lon="11.306421211955318"><ele>505.0</ele><time>2026-03-22T09:57:02.999Z</time></trkpt><trkpt lat="42.69767798755874" lon="11.306470539230766"><ele>509.0</ele><time>2026-03-22T09:57:03.999Z</time></trkpt><trkpt lat="42.69744158140416" lon="11.306521751943595"><ele>509.0</ele><time>2026-03-22T09:57:04.999Z</time></trkpt><trkpt lat="42.69720514696924" lon="11.306578976205463"><ele>509.0</ele><time>2026-03-22T09:57:05.999Z</time></trkpt><trkpt lat="42.696972822225774" lon="11.306649082323826"><ele>507.5</ele><time>2026-03-22T09:57:06.999Z</time></trkpt><trkpt lat="42.69674352988842" lon="11.306743000347277"><ele>506.0</ele><time>2026-03-22T09:57:07.999Z</time></trkpt><trkpt lat="42.69651881377701" lon="11.306855055593324"><ele>506.0</ele><time>2026-03-22T09:57:08.999Z</time></trkpt><trkpt lat="42.696296077573656" lon="11.306974544636775"><ele>506.0</ele><time>2026-03-22T09:57:09.999Z</time></trkpt><trkpt lat="42.696071676526955" lon="11.307086936234178"><ele>507.5</ele><time>2026-03-22T09:57:10.999Z</time></trkpt><trkpt lat="42.6958453560336" lon="11.307197415523596"><ele>509.0</ele><time>2026-03-22T09:57:11.999Z</time></trkpt><trkpt lat="42.69561615742592" lon="11.307304028426428"><ele>506.0</ele><time>2026-03-22T09:57:12.999Z</time></trkpt><trkpt lat="42.69538537481465" lon="11.307410690793139"><ele>503.0</ele><time>2026-03-22T09:57:13.999Z</time></trkpt><trkpt lat="42.695157020116824" lon="11.307517255633782"><ele>503.0</ele><time>2026-03-22T09:57:14.999Z</time></trkpt><trkpt lat="42.69492548994809" lon="11.30762635211023"><ele>503.0</ele><time>2026-03-22T09:57:15.999Z</time></trkpt><trkpt lat="42.6946923608115" lon="11.30773737243507"><ele>503.0</ele><time>2026-03-22T09:57:16.999Z</time></trkpt><trkpt lat="42.694459548564055" lon="11.307850420084126"><ele>503.0</ele><time>2026-03-22T09:57:17.999Z</time></trkpt><trkpt lat="42.6942259017056" lon="11.307963261879253"><ele>503.5</ele><time>2026-03-22T09:57:18.999Z</time></trkpt><trkpt lat="42.6939918384197" lon="11.308073197746753"><ele>504.0</ele><time>2026-03-22T09:57:19.999Z</time></trkpt><trkpt lat="42.693759841586825" lon="11.30818502008509"><ele>505.5</ele><time>2026-03-22T09:57:20.999Z</time></trkpt><trkpt lat="42.69353052809341" lon="11.308297513205844"><ele>507.0</ele><time>2026-03-22T09:57:21.999Z</time></trkpt><trkpt lat="42.69330183846187" lon="11.3084087931314"><ele>507.0</ele><time>2026-03-22T09:57:22.999Z</time></trkpt><trkpt lat="42.693076790559495" lon="11.308512027982315"><ele>507.0</ele><time>2026-03-22T09:57:23.999Z</time></trkpt><trkpt lat="42.69285957518052" lon="11.308612828056289"><ele>507.0</ele><time>2026-03-22T09:57:24.999Z</time></trkpt><trkpt lat="42.692656867576936" lon="11.308716006896669"><ele>507.0</ele><time>2026-03-22T09:57:25.999Z</time></trkpt><trkpt lat="42.692484820515865" lon="11.30886273964776"><ele>507.0</ele><time>2026-03-22T09:57:26.999Z</time></trkpt><trkpt lat="42.69235326908381" lon="11.30906044242875"><ele>507.0</ele><time>2026-03-22T09:57:27.999Z</time></trkpt><trkpt lat="42.692268052214" lon="11.309287479492447"><ele>507.0</ele><time>2026-03-22T09:57:28.999Z</time></trkpt><trkpt lat="42.69222200320178" lon="11.309539969092528"><ele>507.0</ele><time>2026-03-22T09:57:29.999Z</time></trkpt><trkpt lat="42.69221494132542" lon="11.309808490082423"><ele>507.0</ele><time>2026-03-22T09:57:30.999Z</time></trkpt><trkpt lat="42.69225867113716" lon="11.31006897159793"><ele>507.0</ele><time>2026-03-22T09:57:31.999Z</time></trkpt><trkpt lat="42.69233732900326" lon="11.310298447111629"><ele>507.0</ele><time>2026-03-22T09:57:32.999Z</time></trkpt><trkpt lat="42.69243804527889" lon="11.31050678861931"><ele>509.33333333333337</ele><time>2026-03-22T09:57:33.999Z</time></trkpt><trkpt lat="42.69258683237389" lon="11.310648781760854"><ele>511.6666666666667</ele><time>2026-03-22T09:57:34.999Z</time></trkpt><trkpt lat="42.69277071664436" lon="11.310773433402915"><ele>514.0</ele><time>2026-03-22T09:57:35.999Z</time></trkpt><trkpt lat="42.6929542041796" lon="11.310902132998033"><ele>514.0</ele><time>2026-03-22T09:57:36.999Z</time></trkpt><trkpt lat="42.69312764392797" lon="11.311054892888654"><ele>514.0</ele><time>2026-03-22T09:57:37.999Z</time></trkpt><trkpt lat="42.69330754876478" lon="11.311158153165872"><ele>514.0</ele><time>2026-03-22T09:57:38.999Z</time></trkpt><trkpt lat="42.69350023765228" lon="11.311270985907521"><ele>511.0</ele><time>2026-03-22T09:57:39.999Z</time></trkpt><trkpt lat="42.69369140617075" lon="11.311380773065352"><ele>508.0</ele><time>2026-03-22T09:57:40.999Z</time></trkpt><trkpt lat="42.6938836528259" lon="11.311496081883881"><ele>505.0</ele><time>2026-03-22T09:57:41.999Z</time></trkpt><trkpt lat="42.69407200830386" lon="11.311619823873631"><ele>510.6666666666667</ele><time>2026-03-22T09:57:42.999Z</time></trkpt><trkpt lat="42.69425792693309" lon="11.311761872380828"><ele>516.3333333333334</ele><time>2026-03-22T09:57:43.999Z</time></trkpt><trkpt lat="42.69443173019599" lon="11.311934671199117"><ele>522.0</ele><time>2026-03-22T09:57:44.999Z</time></trkpt><trkpt lat="42.694589630805275" lon="11.312131198508004"><ele>525.0</ele><time>2026-03-22T09:57:45.999Z</time></trkpt><trkpt lat="42.69473135069329" lon="11.312351913055716"><ele>528.0</ele><time>2026-03-22T09:57:46.999Z</time></trkpt><trkpt lat="42.69485510881635" lon="11.312595099486453"><ele>531.0</ele><time>2026-03-22T09:57:47.999Z</time></trkpt><trkpt lat="42.69496440634253" lon="11.312844610754441"><ele>533.6666666666666</ele><time>2026-03-22T09:57:48.999Z</time></trkpt><trkpt lat="42.695083055130674" lon="11.313091376920902"><ele>536.3333333333333</ele><time>2026-03-22T09:57:49.999Z</time></trkpt><trkpt lat="42.69521227498116" lon="11.313341036145673"><ele>539.0</ele><time>2026-03-22T09:57:50.998Z</time></trkpt><trkpt lat="42.69534173973097" lon="11.313581563952264"><ele>537.3333333333333</ele><time>2026-03-22T09:57:51.998Z</time></trkpt><trkpt lat="42.69546336656212" lon="11.313822390161539"><ele>535.6666666666666</ele><time>2026-03-22T09:57:52.998Z</time></trkpt><trkpt lat="42.695576328373676" lon="11.314068880991842"><ele>534.0</ele><time>2026-03-22T09:57:53.998Z</time></trkpt><trkpt lat="42.695673117114715" lon="11.314325306885188"><ele>534.0</ele><time>2026-03-22T09:57:54.998Z</time></trkpt><trkpt lat="42.69573626666369" lon="11.314602204867564"><ele>534.0</ele><time>2026-03-22T09:57:55.998Z</time></trkpt><trkpt lat="42.69575947827839" lon="11.31488927118465"><ele>534.0</ele><time>2026-03-22T09:57:56.998Z</time></trkpt><trkpt lat="42.69575613152711" lon="11.315187203982381"><ele>535.0</ele><time>2026-03-22T09:57:57.998Z</time></trkpt><trkpt lat="42.69573454688971" lon="11.31548584673477"><ele>536.0</ele><time>2026-03-22T09:57:58.998Z</time></trkpt><trkpt lat="42.69568774565418" lon="11.315778490457989"><ele>537.0</ele><time>2026-03-22T09:57:59.998Z</time></trkpt><trkpt lat="42.695603183048675" lon="11.316055430269525"><ele>537.0</ele><time>2026-03-22T09:58:00.998Z</time></trkpt><trkpt lat="42.69548788778042" lon="11.316322288816458"><ele>537.0</ele><time>2026-03-22T09:58:01.998Z</time></trkpt><trkpt lat="42.69536140744078" lon="11.316579468289678"><ele>541.0</ele><time>2026-03-22T09:58:02.998Z</time></trkpt><trkpt lat="42.69523191513877" lon="11.316836159725652"><ele>545.0</ele><time>2026-03-22T09:58:03.998Z</time></trkpt><trkpt lat="42.69511511162793" lon="11.317095353099923"><ele>544.6666666666666</ele><time>2026-03-22T09:58:04.998Z</time></trkpt><trkpt lat="42.694987418821825" lon="11.31734139120526"><ele>544.3333333333334</ele><time>2026-03-22T09:58:05.998Z</time></trkpt><trkpt lat="42.69486029402899" lon="11.317586152172987"><ele>544.0</ele><time>2026-03-22T09:58:06.998Z</time></trkpt><trkpt lat="42.69472869320887" lon="11.317851772166314"><ele>543.0</ele><time>2026-03-22T09:58:07.998Z</time></trkpt><trkpt lat="42.694593687433574" lon="11.318122423513342"><ele>542.0</ele><time>2026-03-22T09:58:08.998Z</time></trkpt><trkpt lat="42.69445710868651" lon="11.318391415550703"><ele>542.0</ele><time>2026-03-22T09:58:09.998Z</time></trkpt><trkpt lat="42.69432196192913" lon="11.318659261231051"><ele>542.0</ele><time>2026-03-22T09:58:10.998Z</time></trkpt><trkpt lat="42.69418458780274" lon="11.318930427631757"><ele>542.0</ele><time>2026-03-22T09:58:11.998Z</time></trkpt><trkpt lat="42.69404580360317" lon="11.319207598208036"><ele>542.0</ele><time>2026-03-22T09:58:12.998Z</time></trkpt><trkpt lat="42.69390929483132" lon="11.319483707440329"><ele>542.0</ele><time>2026-03-22T09:58:14Z</time></trkpt><trkpt lat="42.693781004360666" lon="11.319761857802032"><ele>542.0</ele><time>2026-03-22T09:58:15Z</time></trkpt><trkpt lat="42.69365988681211" lon="11.32003948722307"><ele>543.5</ele><time>2026-03-22T09:58:16Z</time></trkpt><trkpt lat="42.693548247791334" lon="11.320323796988502"><ele>545.0</ele><time>2026-03-22T09:58:17Z</time></trkpt><trkpt lat="42.69344670374533" lon="11.320611012910986"><ele>546.5</ele><time>2026-03-22T09:58:18Z</time></trkpt><trkpt lat="42.69333951151371" lon="11.320891747730794"><ele>548.0</ele><time>2026-03-22T09:58:19Z</time></trkpt><trkpt lat="42.693228742528255" lon="11.321163467834406"><ele>549.0</ele><time>2026-03-22T09:58:20Z</time></trkpt><trkpt lat="42.69311393058603" lon="11.32143298850352"><ele>550.0</ele><time>2026-03-22T09:58:21Z</time></trkpt><trkpt lat="42.69299366730842" lon="11.321696779165858"><ele>550.0</ele><time>2026-03-22T09:58:22Z</time></trkpt><trkpt lat="42.69285961307281" lon="11.321942101400007"><ele>550.0</ele><time>2026-03-22T09:58:23Z</time></trkpt><trkpt lat="42.69270613006313" lon="11.322163648872815"><ele>550.0</ele><time>2026-03-22T09:58:24Z</time></trkpt><trkpt lat="42.69254560670744" lon="11.322367916503044"><ele>552.6666666666667</ele><time>2026-03-22T09:58:25Z</time></trkpt><trkpt lat="42.69238204724539" lon="11.322566189515577"><ele>555.3333333333334</ele><time>2026-03-22T09:58:26Z</time></trkpt><trkpt lat="42.692218298475495" lon="11.322761192067725"><ele>558.0</ele><time>2026-03-22T09:58:27Z</time></trkpt><trkpt lat="42.69204152034861" lon="11.322943519086529"><ele>558.3333333333334</ele><time>2026-03-22T09:58:28Z</time></trkpt><trkpt lat="42.69187837400409" lon="11.323129349324399"><ele>558.6666666666667</ele><time>2026-03-22T09:58:29Z</time></trkpt><trkpt lat="42.691726337558855" lon="11.323311357466721"><ele>559.0</ele><time>2026-03-22T09:58:30Z</time></trkpt><trkpt lat="42.6915886649086" lon="11.323484385693314"><ele>559.0</ele><time>2026-03-22T09:58:31Z</time></trkpt><trkpt lat="42.691455394752886" lon="11.323651582333543"><ele>559.0</ele><time>2026-03-22T09:58:32Z</time></trkpt><trkpt lat="42.691328536647525" lon="11.323806959110192"><ele>559.0</ele><time>2026-03-22T09:58:33Z</time></trkpt><trkpt lat="42.69121095572858" lon="11.323944138932829"><ele>559.25</ele><time>2026-03-22T09:58:34Z</time></trkpt><trkpt lat="42.69109147607139" lon="11.324056693508702"><ele>559.5</ele><time>2026-03-22T09:58:35Z</time></trkpt><trkpt lat="42.690967148274744" lon="11.324131189258402"><ele>559.75</ele><time>2026-03-22T09:58:36Z</time></trkpt><trkpt lat="42.69084524306888" lon="11.32415820833404"><ele>560.0</ele><time>2026-03-22T09:58:37Z</time></trkpt><trkpt lat="42.690738420943134" lon="11.324187686800077"><ele>560.0</ele><time>2026-03-22T09:58:38Z</time></trkpt><trkpt lat="42.690652311374514" lon="11.32426114026877"><ele>560.0</ele><time>2026-03-22T09:58:39Z</time></trkpt><trkpt lat="42.69058793672263" lon="11.32438265738639"><ele>560.0</ele><time>2026-03-22T09:58:40Z</time></trkpt><trkpt lat="42.690540309650224" lon="11.324522824278754"><ele>560.0</ele><time>2026-03-22T09:58:41Z</time></trkpt><trkpt lat="42.6904646958624" lon="11.324688337538007"><ele>560.0</ele><time>2026-03-22T09:58:42Z</time></trkpt><trkpt lat="42.69037231722957" lon="11.324839119929848"><ele>560.0</ele><time>2026-03-22T09:58:43Z</time></trkpt><trkpt lat="42.69026176617472" lon="11.324987194529863"><ele>560.0</ele><time>2026-03-22T09:58:44Z</time></trkpt><trkpt lat="42.69015392492567" lon="11.32513913000691"><ele>558.0</ele><time>2026-03-22T09:58:45Z</time></trkpt><trkpt lat="42.6900387765007" lon="11.325291142127625"><ele>556.0</ele><time>2026-03-22T09:58:46Z</time></trkpt><trkpt lat="42.689934314276556" lon="11.325451488162532"><ele>554.0</ele><time>2026-03-22T09:58:47Z</time></trkpt><trkpt lat="42.68983590977362" lon="11.325632933715143"><ele>554.0</ele><time>2026-03-22T09:58:47.999Z</time></trkpt><trkpt lat="42.689746222955776" lon="11.32582672630219"><ele>554.0</ele><time>2026-03-22T09:58:48.999Z</time></trkpt><trkpt lat="42.68966523468286" lon="11.326036616420097"><ele>554.0</ele><time>2026-03-22T09:58:49.999Z</time></trkpt><trkpt lat="42.68958995406357" lon="11.326250439117064"><ele>554.0</ele><time>2026-03-22T09:58:50.999Z</time></trkpt><trkpt lat="42.689517497466696" lon="11.326472899834508"><ele>554.0</ele><time>2026-03-22T09:58:51.999Z</time></trkpt><trkpt lat="42.68945410593724" lon="11.326704693618524"><ele>554.0</ele><time>2026-03-22T09:58:52.999Z</time></trkpt><trkpt lat="42.68940470412846" lon="11.326948993509358"><ele>554.0</ele><time>2026-03-22T09:58:53.999Z</time></trkpt><trkpt lat="42.68936458701247" lon="11.327196796972228"><ele>554.0</ele><time>2026-03-22T09:58:54.999Z</time></trkpt><trkpt lat="42.689321729347654" lon="11.32744096801177"><ele>554.0</ele><time>2026-03-22T09:58:55.999Z</time></trkpt><trkpt lat="42.68925789170254" lon="11.327678123695375"><ele>554.0</ele><time>2026-03-22T09:58:56.999Z</time></trkpt><trkpt lat="42.68919667285899" lon="11.327905765972359"><ele>554.0</ele><time>2026-03-22T09:58:57.999Z</time></trkpt><trkpt lat="42.68914407539426" lon="11.328140735010352"><ele>554.0</ele><time>2026-03-22T09:58:58.999Z</time></trkpt><trkpt lat="42.689104708624505" lon="11.328383461040481"><ele>553.0</ele><time>2026-03-22T09:58:59.999Z</time></trkpt><trkpt lat="42.68906577203267" lon="11.328600936087494"><ele>552.0</ele><time>2026-03-22T09:59:00.999Z</time></trkpt><trkpt lat="42.689009605668765" lon="11.328799643876156"><ele>551.0</ele><time>2026-03-22T09:59:01.999Z</time></trkpt><trkpt lat="42.68896223493976" lon="11.32898701512671"><ele>550.75</ele><time>2026-03-22T09:59:02.999Z</time></trkpt><trkpt lat="42.68889713293208" lon="11.329153854843309"><ele>550.5</ele><time>2026-03-22T09:59:03.999Z</time></trkpt><trkpt lat="42.68880575551859" lon="11.329260918771027"><ele>550.25</ele><time>2026-03-22T09:59:04.999Z</time></trkpt><trkpt lat="42.6886853286101" lon="11.329326398758726"><ele>550.0</ele><time>2026-03-22T09:59:05.999Z</time></trkpt><trkpt lat="42.6885404099939" lon="11.329400890890653"><ele>550.0</ele><time>2026-03-22T09:59:06.999Z</time></trkpt><trkpt lat="42.68841018821475" lon="11.329474737698298"><ele>550.0</ele><time>2026-03-22T09:59:07.999Z</time></trkpt><trkpt lat="42.68827391662187" lon="11.32953503308513"><ele>550.0</ele><time>2026-03-22T09:59:08.999Z</time></trkpt><trkpt lat="42.688114336122716" lon="11.329508531976996"><ele>550.0</ele><time>2026-03-22T09:59:09.999Z</time></trkpt><trkpt lat="42.68798910080187" lon="11.329577276620217"><ele>550.0</ele><time>2026-03-22T09:59:10.999Z</time></trkpt><trkpt lat="42.68786788942995" lon="11.329648453797786"><ele>550.0</ele><time>2026-03-22T09:59:11.999Z</time></trkpt><trkpt lat="42.68775155588026" lon="11.329751736662148"><ele>550.0</ele><time>2026-03-22T09:59:12.999Z</time></trkpt><trkpt lat="42.68765951159419" lon="11.329905210065435"><ele>550.0</ele><time>2026-03-22T09:59:13.999Z</time></trkpt><trkpt lat="42.68761341199135" lon="11.330055190835907"><ele>549.5</ele><time>2026-03-22T09:59:14.999Z</time></trkpt><trkpt lat="42.68760840392033" lon="11.330217032802377"><ele>549.0</ele><time>2026-03-22T09:59:15.999Z</time></trkpt><trkpt lat="42.68760691802311" lon="11.330378344743238"><ele>548.5</ele><time>2026-03-22T09:59:16.999Z</time></trkpt><trkpt lat="42.68760695016234" lon="11.330529444484407"><ele>548.0</ele><time>2026-03-22T09:59:17.999Z</time></trkpt><trkpt lat="42.687595122800985" lon="11.330676393497512"><ele>547.1999999999999</ele><time>2026-03-22T09:59:18.999Z</time></trkpt><trkpt lat="42.68758857860254" lon="11.33085831952547"><ele>546.4</ele><time>2026-03-22T09:59:19.999Z</time></trkpt><trkpt lat="42.68753062771297" lon="11.33093997828424"><ele>545.5999999999999</ele><time>2026-03-22T09:59:20.999Z</time></trkpt><trkpt lat="42.687437300134874" lon="11.330997095558512"><ele>544.8</ele><time>2026-03-22T09:59:21.999Z</time></trkpt><trkpt lat="42.68732339500424" lon="11.331006462295154"><ele>544.0</ele><time>2026-03-22T09:59:22.999Z</time></trkpt><trkpt lat="42.68717979181454" lon="11.330971751968002"><ele>544.0</ele><time>2026-03-22T09:59:23.999Z</time></trkpt><trkpt lat="42.68704924635123" lon="11.330944936389214"><ele>544.0</ele><time>2026-03-22T09:59:24.999Z</time></trkpt><trkpt lat="42.68691524803551" lon="11.330933746508455"><ele>544.0</ele><time>2026-03-22T09:59:25.999Z</time></trkpt><trkpt lat="42.68677682196533" lon="11.33093574865291"><ele>544.0</ele><time>2026-03-22T09:59:26.999Z</time></trkpt><trkpt lat="42.68662329897966" lon="11.330926658434027"><ele>543.0</ele><time>2026-03-22T09:59:27.999Z</time></trkpt><trkpt lat="42.68648995095103" lon="11.330927163601102"><ele>542.0</ele><time>2026-03-22T09:59:28.999Z</time></trkpt><trkpt lat="42.68636067226715" lon="11.330925029287464"><ele>541.0</ele><time>2026-03-22T09:59:29.999Z</time></trkpt><trkpt lat="42.68623227402171" lon="11.330996591662394"><ele>540.0</ele><time>2026-03-22T09:59:30.999Z</time></trkpt><trkpt lat="42.68613298908452" lon="11.33112693507569"><ele>539.6</ele><time>2026-03-22T09:59:31.999Z</time></trkpt><trkpt lat="42.68606282912407" lon="11.331230791974916"><ele>539.2</ele><time>2026-03-22T09:59:32.999Z</time></trkpt><trkpt lat="42.68601358954975" lon="11.331342552309673"><ele>538.8</ele><time>2026-03-22T09:59:33.999Z</time></trkpt><trkpt lat="42.68589474015013" lon="11.33136640945755"><ele>538.4</ele><time>2026-03-22T09:59:34.999Z</time></trkpt><trkpt lat="42.685766892765876" lon="11.331383752308923"><ele>538.0</ele><time>2026-03-22T09:59:35.999Z</time></trkpt><trkpt lat="42.68565656870775" lon="11.331379780416045"><ele>538.0</ele><time>2026-03-22T09:59:36.999Z</time></trkpt><trkpt lat="42.68556144307196" lon="11.331377866805708"><ele>538.0</ele><time>2026-03-22T09:59:37.999Z</time></trkpt><trkpt lat="42.68548575266853" lon="11.331280417083217"><ele>538.0</ele><time>2026-03-22T09:59:38.999Z</time></trkpt><trkpt lat="42.685405934603295" lon="11.33126318272612"><ele>538.0</ele><time>2026-03-22T09:59:39.999Z</time></trkpt><trkpt lat="42.68534055815367" lon="11.331249444173338"><ele>538.0</ele><time>2026-03-22T09:59:40.999Z</time></trkpt><trkpt lat="42.68525612478033" lon="11.331252054098924"><ele>538.0</ele><time>2026-03-22T09:59:41.999Z</time></trkpt><trkpt lat="42.68518054209142" lon="11.331304125743781"><ele>536.8333333333334</ele><time>2026-03-22T09:59:42.999Z</time></trkpt><trkpt lat="42.68513839740188" lon="11.331398804246405"><ele>535.6666666666667</ele><time>2026-03-22T09:59:43.999Z</time></trkpt><trkpt lat="42.685144191312176" lon="11.331530718983368"><ele>534.5</ele><time>2026-03-22T09:59:44.999Z</time></trkpt><trkpt lat="42.68517428485148" lon="11.331635570048734"><ele>533.3333333333334</ele><time>2026-03-22T09:59:45.999Z</time></trkpt><trkpt lat="42.68523681242954" lon="11.331722050102597"><ele>532.1666666666666</ele><time>2026-03-22T09:59:46.999Z</time></trkpt><trkpt lat="42.685280924825" lon="11.331829319416254"><ele>531.0</ele><time>2026-03-22T09:59:47.999Z</time></trkpt><trkpt lat="42.68534732773467" lon="11.331944745330862"><ele>531.0</ele><time>2026-03-22T09:59:48.999Z</time></trkpt><trkpt lat="42.68539619380965" lon="11.33205991136146"><ele>531.0</ele><time>2026-03-22T09:59:49.999Z</time></trkpt><trkpt lat="42.68547984520057" lon="11.332206408672997"><ele>531.0</ele><time>2026-03-22T09:59:50.999Z</time></trkpt><trkpt lat="42.68556340683997" lon="11.332344540768837"><ele>531.0</ele><time>2026-03-22T09:59:51.999Z</time></trkpt><trkpt lat="42.68562066424518" lon="11.332460687306378"><ele>529.75</ele><time>2026-03-22T09:59:52.999Z</time></trkpt><trkpt lat="42.68567165778584" lon="11.332605512948094"><ele>528.5</ele><time>2026-03-22T09:59:53.999Z</time></trkpt><trkpt lat="42.68567581461117" lon="11.332756546061944"><ele>527.25</ele><time>2026-03-22T09:59:54.999Z</time></trkpt><trkpt lat="42.68568826520468" lon="11.332914624158333"><ele>526.0</ele><time>2026-03-22T09:59:55.999Z</time></trkpt><trkpt lat="42.68569906039065" lon="11.33306651755135"><ele>524.0</ele><time>2026-03-22T09:59:56.998Z</time></trkpt><trkpt lat="42.68570254875177" lon="11.333208550294968"><ele>522.0</ele><time>2026-03-22T09:59:57.998Z</time></trkpt><trkpt lat="42.68570256711385" lon="11.333346046723523"><ele>520.0</ele><time>2026-03-22T09:59:58.998Z</time></trkpt><trkpt lat="42.68571742956026" lon="11.333475651458789"><ele>518.0</ele><time>2026-03-22T09:59:59.998Z</time></trkpt><trkpt lat="42.68574449749454" lon="11.33360173972681"><ele>516.0</ele><time>2026-03-22T10:00:00.998Z</time></trkpt><trkpt lat="42.68579069105687" lon="11.333728553543267"><ele>516.0</ele><time>2026-03-22T10:00:01.998Z</time></trkpt><trkpt lat="42.685872305428106" lon="11.333819828116594"><ele>516.0</ele><time>2026-03-22T10:00:02.998Z</time></trkpt><trkpt lat="42.68596218651948" lon="11.333854408625207"><ele>516.0</ele><time>2026-03-22T10:00:03.998Z</time></trkpt><trkpt lat="42.6860670041823" lon="11.33386524051737"><ele>516.0</ele><time>2026-03-22T10:00:04.998Z</time></trkpt><trkpt lat="42.686174204101256" lon="11.333870481818202"><ele>516.0</ele><time>2026-03-22T10:00:05.998Z</time></trkpt><trkpt lat="42.68627842579307" lon="11.333831785996068"><ele>514.0</ele><time>2026-03-22T10:00:06.998Z</time></trkpt><trkpt lat="42.68636235125476" lon="11.333755431725375"><ele>512.0</ele><time>2026-03-22T10:00:07.998Z</time></trkpt><trkpt lat="42.686437617688476" lon="11.333644865586656"><ele>510.0</ele><time>2026-03-22T10:00:08.998Z</time></trkpt><trkpt lat="42.68649809742609" lon="11.33351974519923"><ele>508.0</ele><time>2026-03-22T10:00:09.998Z</time></trkpt><trkpt lat="42.68655630515904" lon="11.33340047949308"><ele>506.0</ele><time>2026-03-22T10:00:10.998Z</time></trkpt><trkpt lat="42.68661331755877" lon="11.333265132585062"><ele>506.0</ele><time>2026-03-22T10:00:11.998Z</time></trkpt><trkpt lat="42.68666898914389" lon="11.333131499851795"><ele>506.0</ele><time>2026-03-22T10:00:12.998Z</time></trkpt><trkpt lat="42.68670786290845" lon="11.33300515645352"><ele>506.0</ele><time>2026-03-22T10:00:13.998Z</time></trkpt><trkpt lat="42.68672912754182" lon="11.332872922623359"><ele>506.0</ele><time>2026-03-22T10:00:14.998Z</time></trkpt><trkpt lat="42.68677600660376" lon="11.332762562735759"><ele>506.0</ele><time>2026-03-22T10:00:15.998Z</time></trkpt><trkpt lat="42.68685110895724" lon="11.332713272261802"><ele>507.1428571428572</ele><time>2026-03-22T10:00:16.998Z</time></trkpt><trkpt lat="42.686916931510765" lon="11.332711380991018"><ele>508.28571428571433</ele><time>2026-03-22T10:00:17.998Z</time></trkpt><trkpt lat="42.68696461785363" lon="11.33277133887571"><ele>509.42857142857144</ele><time>2026-03-22T10:00:18.998Z</time></trkpt><trkpt lat="42.687012439136595" lon="11.332840180657131"><ele>510.5714285714286</ele><time>2026-03-22T10:00:20Z</time></trkpt><trkpt lat="42.687062684311506" lon="11.332912931899308"><ele>511.7142857142858</ele><time>2026-03-22T10:00:21Z</time></trkpt><trkpt lat="42.68710637021884" lon="11.332974990608928"><ele>512.8571428571429</ele><time>2026-03-22T10:00:22Z</time></trkpt><trkpt lat="42.687154234786384" lon="11.333038927815887"><ele>514.0</ele><time>2026-03-22T10:00:23Z</time></trkpt><trkpt lat="42.687229415172105" lon="11.333102525451318"><ele>514.0</ele><time>2026-03-22T10:00:24Z</time></trkpt><trkpt lat="42.687321962267085" lon="11.333137464025743"><ele>514.0</ele><time>2026-03-22T10:00:25Z</time></trkpt><trkpt lat="42.68741341704674" lon="11.333134148332249"><ele>514.0</ele><time>2026-03-22T10:00:26Z</time></trkpt><trkpt lat="42.687505095301816" lon="11.333112255948725"><ele>514.0</ele><time>2026-03-22T10:00:27Z</time></trkpt><trkpt lat="42.6875926318246" lon="11.333067163730396"><ele>514.0</ele><time>2026-03-22T10:00:28Z</time></trkpt><trkpt lat="42.68765832577606" lon="11.333047649519774"><ele>514.0</ele><time>2026-03-22T10:00:29Z</time></trkpt><trkpt lat="42.68772490599706" lon="11.333057856744327"><ele>513.6666666666667</ele><time>2026-03-22T10:00:30Z</time></trkpt><trkpt lat="42.68779756638975" lon="11.333069996256718"><ele>513.3333333333334</ele><time>2026-03-22T10:00:32Z</time></trkpt><trkpt lat="42.68778886474828" lon="11.333160682976262"><ele>513.0</ele><time>2026-03-22T10:00:36Z</time></trkpt><trkpt lat="42.68765105976601" lon="11.333112513707754"><ele>512.6666666666666</ele><time>2026-03-22T10:00:38Z</time></trkpt><trkpt lat="42.68758327928844" lon="11.333127121687845"><ele>512.3333333333333</ele><time>2026-03-22T10:00:39Z</time></trkpt><trkpt lat="42.68750173401656" lon="11.33313563582321"><ele>512.0</ele><time>2026-03-22T10:00:40Z</time></trkpt><trkpt lat="42.687418421510976" lon="11.333158987072057"><ele>509.0</ele><time>2026-03-22T10:00:41Z</time></trkpt><trkpt lat="42.6873366251181" lon="11.333195533357236"><ele>506.00000000000006</ele><time>2026-03-22T10:00:42Z</time></trkpt><trkpt lat="42.687252175479784" lon="11.333228373302372"><ele>503.00000000000006</ele><time>2026-03-22T10:00:43Z</time></trkpt><trkpt lat="42.68716653338445" lon="11.333269365091418"><ele>500.0</ele><time>2026-03-22T10:00:44Z</time></trkpt><trkpt lat="42.68707658135395" lon="11.333312001028455"><ele>497.0</ele><time>2026-03-22T10:00:45Z</time></trkpt><trkpt lat="42.68699000945075" lon="11.333376260850232"><ele>496.6</ele><time>2026-03-22T10:00:46Z</time></trkpt><trkpt lat="42.68691415147172" lon="11.33344467644645"><ele>496.20000000000005</ele><time>2026-03-22T10:00:47Z</time></trkpt><trkpt lat="42.686883221317885" lon="11.333552872303525"><ele>495.8</ele><time>2026-03-22T10:00:48Z</time></trkpt><trkpt lat="42.68684251870815" lon="11.333697105279764"><ele>495.4</ele><time>2026-03-22T10:00:49Z</time></trkpt><trkpt lat="42.68682529106532" lon="11.333844900947147"><ele>495.0</ele><time>2026-03-22T10:00:50Z</time></trkpt><trkpt lat="42.686826339541476" lon="11.334003744186539"><ele>495.0</ele><time>2026-03-22T10:00:51Z</time></trkpt><trkpt lat="42.68677846178384" lon="11.334184888190862"><ele>495.0</ele><time>2026-03-22T10:00:51.999Z</time></trkpt><trkpt lat="42.68672493328352" lon="11.334337438822805"><ele>495.0</ele><time>2026-03-22T10:00:52.999Z</time></trkpt><trkpt lat="42.686643681026716" lon="11.33446603970038"><ele>495.0</ele><time>2026-03-22T10:00:53.999Z</time></trkpt><trkpt lat="42.686549304749626" lon="11.334586534709834"><ele>495.0</ele><time>2026-03-22T10:00:54.999Z</time></trkpt><trkpt lat="42.68644679973853" lon="11.334712404979232"><ele>495.0</ele><time>2026-03-22T10:00:55.999Z</time></trkpt><trkpt lat="42.68634315413918" lon="11.334830277934438"><ele>495.0</ele><time>2026-03-22T10:00:56.999Z</time></trkpt><trkpt lat="42.68623060903403" lon="11.334953460400046"><ele>495.0</ele><time>2026-03-22T10:00:57.999Z</time></trkpt><trkpt lat="42.686130459211775" lon="11.33508594140408"><ele>494.25</ele><time>2026-03-22T10:00:58.999Z</time></trkpt><trkpt lat="42.686013396399886" lon="11.3351959328955"><ele>493.5</ele><time>2026-03-22T10:00:59.999Z</time></trkpt><trkpt lat="42.68590418280428" lon="11.335301948102419"><ele>492.75</ele><time>2026-03-22T10:01:00.999Z</time></trkpt><trkpt lat="42.685787996625265" lon="11.335401673622835"><ele>492.0</ele><time>2026-03-22T10:01:01.999Z</time></trkpt><trkpt lat="42.685683895232295" lon="11.335455276103682"><ele>492.0</ele><time>2026-03-22T10:01:02.999Z</time></trkpt><trkpt lat="42.68554961998895" lon="11.335422198665329"><ele>492.0</ele><time>2026-03-22T10:01:03.999Z</time></trkpt><trkpt lat="42.68546753740595" lon="11.335356883603815"><ele>492.0</ele><time>2026-03-22T10:01:04.999Z</time></trkpt><trkpt lat="42.68540562482258" lon="11.3352414517875"><ele>492.0</ele><time>2026-03-22T10:01:05.999Z</time></trkpt><trkpt lat="42.6853344311079" lon="11.335108039535209"><ele>492.0</ele><time>2026-03-22T10:01:06.999Z</time></trkpt><trkpt lat="42.68526332616584" lon="11.334969134273386"><ele>492.0</ele><time>2026-03-22T10:01:07.999Z</time></trkpt><trkpt lat="42.685174053274196" lon="11.334787221164664"><ele>492.0</ele><time>2026-03-22T10:01:08.999Z</time></trkpt><trkpt lat="42.685096081434885" lon="11.334609851530473"><ele>492.0</ele><time>2026-03-22T10:01:09.999Z</time></trkpt><trkpt lat="42.68504228737641" lon="11.33442116889757"><ele>491.0</ele><time>2026-03-22T10:01:10.999Z</time></trkpt><trkpt lat="42.684970342185" lon="11.334243230335899"><ele>490.0</ele><time>2026-03-22T10:01:11.999Z</time></trkpt><trkpt lat="42.68489538960188" lon="11.334054877238481"><ele>489.0</ele><time>2026-03-22T10:01:12.999Z</time></trkpt><trkpt lat="42.68480456113428" lon="11.333914921862686"><ele>488.0</ele><time>2026-03-22T10:01:13.999Z</time></trkpt><trkpt lat="42.68468841073736" lon="11.333806381534865"><ele>489.0</ele><time>2026-03-22T10:01:14.999Z</time></trkpt><trkpt lat="42.68458132049625" lon="11.333701234929585"><ele>490.0</ele><time>2026-03-22T10:01:15.999Z</time></trkpt><trkpt lat="42.6844521604147" lon="11.333639231827098"><ele>491.0</ele><time>2026-03-22T10:01:16.999Z</time></trkpt><trkpt lat="42.684333084360865" lon="11.333579759469139"><ele>492.0</ele><time>2026-03-22T10:01:17.999Z</time></trkpt><trkpt lat="42.68424186979665" lon="11.333574596358234"><ele>492.0</ele><time>2026-03-22T10:01:18.999Z</time></trkpt><trkpt lat="42.684139749428724" lon="11.333598336177987"><ele>492.00000000000006</ele><time>2026-03-22T10:01:19.999Z</time></trkpt><trkpt lat="42.68408693753842" lon="11.33370466361398"><ele>492.00000000000006</ele><time>2026-03-22T10:01:20.999Z</time></trkpt><trkpt lat="42.68403057236393" lon="11.333819218503976"><ele>492.0</ele><time>2026-03-22T10:01:21.999Z</time></trkpt><trkpt lat="42.684094999472265" lon="11.333972131902721"><ele>492.0</ele><time>2026-03-22T10:01:22.999Z</time></trkpt><trkpt lat="42.68412383210367" lon="11.33411580459391"><ele>489.25</ele><time>2026-03-22T10:01:23.999Z</time></trkpt><trkpt lat="42.6841645345681" lon="11.334232441814061"><ele>486.5</ele><time>2026-03-22T10:01:24.999Z</time></trkpt><trkpt lat="42.68417905771301" lon="11.334387834886428"><ele>483.75</ele><time>2026-03-22T10:01:25.999Z</time></trkpt><trkpt lat="42.68413879303719" lon="11.334572619383064"><ele>481.0</ele><time>2026-03-22T10:01:26.999Z</time></trkpt><trkpt lat="42.68411537171303" lon="11.334722466095553"><ele>478.0</ele><time>2026-03-22T10:01:27.999Z</time></trkpt><trkpt lat="42.684003068389025" lon="11.334977657624004"><ele>475.0</ele><time>2026-03-22T10:01:28.999Z</time></trkpt><trkpt lat="42.68388157246809" lon="11.335146433061736"><ele>472.0</ele><time>2026-03-22T10:01:29.999Z</time></trkpt><trkpt lat="42.683738257102696" lon="11.335323842310455"><ele>472.0</ele><time>2026-03-22T10:01:30.999Z</time></trkpt><trkpt lat="42.68362146378169" lon="11.335441622373175"><ele>472.0</ele><time>2026-03-22T10:01:31.999Z</time></trkpt><trkpt lat="42.6834945777648" lon="11.335500022042998"><ele>472.0</ele><time>2026-03-22T10:01:32.999Z</time></trkpt><trkpt lat="42.68335771171102" lon="11.335543574636173"><ele>472.0</ele><time>2026-03-22T10:01:33.999Z</time></trkpt><trkpt lat="42.68320183449972" lon="11.335449818130263"><ele>473.75</ele><time>2026-03-22T10:01:34.999Z</time></trkpt><trkpt lat="42.68311066497392" lon="11.33534349955033"><ele>475.5</ele><time>2026-03-22T10:01:35.999Z</time></trkpt><trkpt lat="42.68313776792589" lon="11.335136543137851"><ele>477.25</ele><time>2026-03-22T10:01:36.999Z</time></trkpt><trkpt lat="42.68309141575196" lon="11.335038018800107"><ele>479.0</ele><time>2026-03-22T10:01:37.999Z</time></trkpt><trkpt lat="42.68300428744265" lon="11.334826670830642"><ele>482.3333333333333</ele><time>2026-03-22T10:01:39.999Z</time></trkpt><trkpt lat="42.6829154092288" lon="11.334628716007654"><ele>485.66666666666663</ele><time>2026-03-22T10:01:40.999Z</time></trkpt><trkpt lat="42.682835837526" lon="11.334445190290479"><ele>489.0</ele><time>2026-03-22T10:01:41.999Z</time></trkpt><trkpt lat="42.68275476203503" lon="11.334218543935023"><ele>487.5</ele><time>2026-03-22T10:01:42.999Z</time></trkpt><trkpt lat="42.68271305771833" lon="11.3340411495429"><ele>486.0</ele><time>2026-03-22T10:01:43.999Z</time></trkpt><trkpt lat="42.682700704831994" lon="11.333869354744724"><ele>484.5</ele><time>2026-03-22T10:01:44.999Z</time></trkpt><trkpt lat="42.682651113106864" lon="11.333722663143163"><ele>483.0</ele><time>2026-03-22T10:01:45.999Z</time></trkpt><trkpt lat="42.682541615186985" lon="11.333589535626913"><ele>483.0</ele><time>2026-03-22T10:01:46.999Z</time></trkpt><trkpt lat="42.68245591754117" lon="11.333534464370011"><ele>483.0</ele><time>2026-03-22T10:01:47.999Z</time></trkpt><trkpt lat="42.682371877783346" lon="11.33343206710067"><ele>483.0</ele><time>2026-03-22T10:01:48.999Z</time></trkpt><trkpt lat="42.682205403512036" lon="11.333522893404126"><ele>483.0</ele><time>2026-03-22T10:01:49.999Z</time></trkpt><trkpt lat="42.68206138537408" lon="11.333373787939806"><ele>483.0</ele><time>2026-03-22T10:01:50.999Z</time></trkpt><trkpt lat="42.68193700430245" lon="11.3332077998074"><ele>483.0</ele><time>2026-03-22T10:01:51.999Z</time></trkpt><trkpt lat="42.68184576479173" lon="11.333061183103982"><ele>483.0</ele><time>2026-03-22T10:01:52.999Z</time></trkpt><trkpt lat="42.681736496121346" lon="11.332906145400623"><ele>481.5</ele><time>2026-03-22T10:01:53.999Z</time></trkpt><trkpt lat="42.681627713980134" lon="11.33278584100176"><ele>480.0</ele><time>2026-03-22T10:01:54.999Z</time></trkpt><trkpt lat="42.681488570942975" lon="11.332672827012264"><ele>478.5</ele><time>2026-03-22T10:01:55.999Z</time></trkpt><trkpt lat="42.68141496250304" lon="11.332516691858096"><ele>477.0</ele><time>2026-03-22T10:01:56.999Z</time></trkpt><trkpt lat="42.681346524978174" lon="11.33236628463361"><ele>482.33333333333337</ele><time>2026-03-22T10:01:57.999Z</time></trkpt><trkpt lat="42.6812895470097" lon="11.332185250605766"><ele>487.6666666666667</ele><time>2026-03-22T10:01:58.999Z</time></trkpt><trkpt lat="42.68120713362366" lon="11.331984165004222"><ele>493.0</ele><time>2026-03-22T10:01:59.999Z</time></trkpt><trkpt lat="42.68105983089074" lon="11.331810412950812"><ele>484.33333333333337</ele><time>2026-03-22T10:02:00.999Z</time></trkpt><trkpt lat="42.68095419140585" lon="11.331618104657089"><ele>475.66666666666663</ele><time>2026-03-22T10:02:01.999Z</time></trkpt><trkpt lat="42.68084758398208" lon="11.331377224070172"><ele>467.0</ele><time>2026-03-22T10:02:02.998Z</time></trkpt><trkpt lat="42.68079965520108" lon="11.331146219943054"><ele>467.0</ele><time>2026-03-22T10:02:03.998Z</time></trkpt><trkpt lat="42.68075904453287" lon="11.330943959425607"><ele>467.0</ele><time>2026-03-22T10:02:04.998Z</time></trkpt><trkpt lat="42.68069037008345" lon="11.33072034119432"><ele>467.0</ele><time>2026-03-22T10:02:05.998Z</time></trkpt><trkpt lat="42.68065701675656" lon="11.330507046179397"><ele>464.5</ele><time>2026-03-22T10:02:06.998Z</time></trkpt><trkpt lat="42.680669872714745" lon="11.330317412107169"><ele>462.0</ele><time>2026-03-22T10:02:07.998Z</time></trkpt><trkpt lat="42.68070272672342" lon="11.330138114519784"><ele>459.5</ele><time>2026-03-22T10:02:08.998Z</time></trkpt><trkpt lat="42.68076884708282" lon="11.330000129385317"><ele>457.0</ele><time>2026-03-22T10:02:09.998Z</time></trkpt><trkpt lat="42.68084480804797" lon="11.329995679876408"><ele>457.0</ele><time>2026-03-22T10:02:10.998Z</time></trkpt><trkpt lat="42.68097740953621" lon="11.329835443832392"><ele>457.0</ele><time>2026-03-22T10:02:11.998Z</time></trkpt><trkpt lat="42.68106654589712" lon="11.329654176285052"><ele>457.0</ele><time>2026-03-22T10:02:12.998Z</time></trkpt><trkpt lat="42.68112822370461" lon="11.329458774728213"><ele>458.25</ele><time>2026-03-22T10:02:13.998Z</time></trkpt><trkpt lat="42.68116069618877" lon="11.3292588478315"><ele>459.5</ele><time>2026-03-22T10:02:14.998Z</time></trkpt><trkpt lat="42.6812043555357" lon="11.329117273248867"><ele>460.75</ele><time>2026-03-22T10:02:15.998Z</time></trkpt><trkpt lat="42.68119464924598" lon="11.328950142907678"><ele>462.0</ele><time>2026-03-22T10:02:16.998Z</time></trkpt><trkpt lat="42.681170886359496" lon="11.328640415882127"><ele>462.0</ele><time>2026-03-22T10:02:17.998Z</time></trkpt><trkpt lat="42.68121587754027" lon="11.3283104865216"><ele>462.0</ele><time>2026-03-22T10:02:18.998Z</time></trkpt><trkpt lat="42.68126353524386" lon="11.328113942740023"><ele>462.0</ele><time>2026-03-22T10:02:19.998Z</time></trkpt><trkpt lat="42.68129090179673" lon="11.328019939392815"><ele>456.0</ele><time>2026-03-22T10:02:20.998Z</time></trkpt><trkpt lat="42.68136470620331" lon="11.327851956345741"><ele>450.0</ele><time>2026-03-22T10:02:21.998Z</time></trkpt><trkpt lat="42.681501363707966" lon="11.32778038852977"><ele>444.0</ele><time>2026-03-22T10:02:22.998Z</time></trkpt><trkpt lat="42.68171018336599" lon="11.32786449522846"><ele>444.0</ele><time>2026-03-22T10:02:23.998Z</time></trkpt><trkpt lat="42.681798739469414" lon="11.327762086323471"><ele>444.0</ele><time>2026-03-22T10:02:26Z</time></trkpt><trkpt lat="42.68187557893019" lon="11.327705979206527"><ele>444.0</ele><time>2026-03-22T10:02:27Z</time></trkpt><trkpt lat="42.68192202482621" lon="11.327570055345635"><ele>444.0</ele><time>2026-03-22T10:02:28Z</time></trkpt><trkpt lat="42.68189925682793" lon="11.327459400050822"><ele>444.0</ele><time>2026-03-22T10:02:29Z</time></trkpt><trkpt lat="42.68185181210427" lon="11.327349393558983"><ele>444.0</ele><time>2026-03-22T10:02:30Z</time></trkpt><trkpt lat="42.6817743152874" lon="11.327320005815"><ele>444.0</ele><time>2026-03-22T10:02:31Z</time></trkpt><trkpt lat="42.681713075439" lon="11.327179402374272"><ele>444.0</ele><time>2026-03-22T10:02:32Z</time></trkpt><trkpt lat="42.68165293831541" lon="11.326989513720363"><ele>444.0</ele><time>2026-03-22T10:02:33Z</time></trkpt><trkpt lat="42.681665327208464" lon="11.326740286156909"><ele>443.25</ele><time>2026-03-22T10:02:34Z</time></trkpt><trkpt lat="42.68170068941424" lon="11.326606562682688"><ele>442.5</ele><time>2026-03-22T10:02:35Z</time></trkpt><trkpt lat="42.68178856438074" lon="11.3264583394194"><ele>441.75</ele><time>2026-03-22T10:02:36Z</time></trkpt><trkpt lat="42.68184345149898" lon="11.326331984166298"><ele>441.0</ele><time>2026-03-22T10:02:37Z</time></trkpt><trkpt lat="42.681881141078996" lon="11.326172108120092"><ele>439.66666666666663</ele><time>2026-03-22T10:02:38Z</time></trkpt><trkpt lat="42.68193427035493" lon="11.325960118355065"><ele>438.3333333333333</ele><time>2026-03-22T10:02:39Z</time></trkpt><trkpt lat="42.681935502327015" lon="11.325728280149379"><ele>437.0</ele><time>2026-03-22T10:02:40Z</time></trkpt><trkpt lat="42.68201923874403" lon="11.32552956529788"><ele>437.0</ele><time>2026-03-22T10:02:41Z</time></trkpt><trkpt lat="42.68210345188607" lon="11.325419997627302"><ele>437.0</ele><time>2026-03-22T10:02:42Z</time></trkpt><trkpt lat="42.68221949581502" lon="11.325279905184741"><ele>437.0</ele><time>2026-03-22T10:02:43Z</time></trkpt><trkpt lat="42.682359279360234" lon="11.325130900135168"><ele>437.0</ele><time>2026-03-22T10:02:44Z</time></trkpt><trkpt lat="42.68253383537195" lon="11.325076287740009"><ele>437.0</ele><time>2026-03-22T10:02:45Z</time></trkpt><trkpt lat="42.68262649440848" lon="11.324980279727772"><ele>437.0</ele><time>2026-03-22T10:02:46Z</time></trkpt><trkpt lat="42.68273465005261" lon="11.324891854836322"><ele>437.0</ele><time>2026-03-22T10:02:47Z</time></trkpt><trkpt lat="42.682744111136515" lon="11.324681508021577"><ele>437.0</ele><time>2026-03-22T10:02:48Z</time></trkpt><trkpt lat="42.68280526131977" lon="11.324578335416033"><ele>439.75</ele><time>2026-03-22T10:02:49Z</time></trkpt><trkpt lat="42.68288438612183" lon="11.3244408392686"><ele>442.5</ele><time>2026-03-22T10:02:50Z</time></trkpt><trkpt lat="42.68293204418761" lon="11.324357164653392"><ele>445.25</ele><time>2026-03-22T10:02:51Z</time></trkpt><trkpt lat="42.683067536551" lon="11.32425845701842"><ele>448.0</ele><time>2026-03-22T10:02:52Z</time></trkpt><trkpt lat="42.6831848054025" lon="11.324113962595597"><ele>448.0</ele><time>2026-03-22T10:02:53Z</time></trkpt><trkpt lat="42.68329367996315" lon="11.3240426025018"><ele>448.0</ele><time>2026-03-22T10:02:54Z</time></trkpt><trkpt lat="42.683378955666534" lon="11.323828404052714"><ele>448.0</ele><time>2026-03-22T10:02:55Z</time></trkpt><trkpt lat="42.683413612710304" lon="11.323663027924026"><ele>448.0</ele><time>2026-03-22T10:02:56Z</time></trkpt><trkpt lat="42.68341113148412" lon="11.323523233939854"><ele>445.59999999999997</ele><time>2026-03-22T10:02:57Z</time></trkpt><trkpt lat="42.68334789056952" lon="11.32340805571107"><ele>443.19999999999993</ele><time>2026-03-22T10:02:58Z</time></trkpt><trkpt lat="42.683264285590845" lon="11.323382068342593"><ele>440.8</ele><time>2026-03-22T10:03:00Z</time></trkpt><trkpt lat="42.6832054479348" lon="11.323341925408151"><ele>438.4</ele><time>2026-03-22T10:03:01Z</time></trkpt><trkpt lat="42.68310178192476" lon="11.323313457499284"><ele>436.0</ele><time>2026-03-22T10:03:02Z</time></trkpt><trkpt lat="42.68300213460464" lon="11.323283811676308"><ele>436.0</ele><time>2026-03-22T10:03:03Z</time></trkpt><trkpt lat="42.6829411311128" lon="11.323316725160506"><ele>436.0</ele><time>2026-03-22T10:03:04Z</time></trkpt><trkpt lat="42.682790726944425" lon="11.323327302171444"><ele>436.0</ele><time>2026-03-22T10:03:05Z</time></trkpt><trkpt lat="42.68278541358196" lon="11.323448999104173"><ele>436.0</ele><time>2026-03-22T10:03:06Z</time></trkpt><trkpt lat="42.68264924789469" lon="11.32359100849895"><ele>439.0</ele><time>2026-03-22T10:03:07Z</time></trkpt><trkpt lat="42.68256318805199" lon="11.323645409512467"><ele>442.0</ele><time>2026-03-22T10:03:07.999Z</time></trkpt><trkpt lat="42.682470289691565" lon="11.323699691680629"><ele>445.0</ele><time>2026-03-22T10:03:08.999Z</time></trkpt><trkpt lat="42.682365873191955" lon="11.3237574708089"><ele>448.0</ele><time>2026-03-22T10:03:09.999Z</time></trkpt><trkpt lat="42.68224131930401" lon="11.323830089280213"><ele>451.0</ele><time>2026-03-22T10:03:11.999Z</time></trkpt><trkpt lat="42.68214898454822" lon="11.323848792884865"><ele>449.6666666666667</ele><time>2026-03-22T10:03:12.999Z</time></trkpt><trkpt lat="42.6820194514182" lon="11.32391595353456"><ele>448.33333333333337</ele><time>2026-03-22T10:03:14.999Z</time></trkpt><trkpt lat="42.68188958092883" lon="11.324062972846823"><ele>447.0</ele><time>2026-03-22T10:03:17.039Z</time></trkpt><trkpt lat="42.68167606742237" lon="11.32422068467754"><ele>472.0</ele><time>2026-03-22T10:03:18.034Z</time></trkpt><trkpt lat="42.68062226008761" lon="11.32468389286926"><ele>472.0</ele><time>2026-03-22T10:03:31.459Z</time></trkpt><trkpt lat="42.680517798636934" lon="11.324629154512039"><ele>472.0</ele><time>2026-03-22T10:03:32.879Z</time></trkpt><trkpt lat="42.68037741331063" lon="11.324573651385442"><ele>472.0</ele><time>2026-03-22T10:03:34.776Z</time></trkpt><trkpt lat="42.68020815730097" lon="11.324613493758008"><ele>472.0</ele><time>2026-03-22T10:03:37.074Z</time></trkpt><trkpt lat="42.67820375123397" lon="11.327280140215933"><ele>465.25</ele><time>2026-03-22T10:03:40.999Z</time></trkpt><trkpt lat="42.67809404383167" lon="11.327429435994404"><ele>458.5</ele><time>2026-03-22T10:03:41.999Z</time></trkpt><trkpt lat="42.67804562470144" lon="11.327594432116495"><ele>451.75</ele><time>2026-03-22T10:03:42.999Z</time></trkpt><trkpt lat="42.677942615676" lon="11.327693167518932"><ele>445.0</ele><time>2026-03-22T10:03:43.999Z</time></trkpt><trkpt lat="42.677874252629934" lon="11.327732809000853"><ele>445.0</ele><time>2026-03-22T10:03:44.999Z</time></trkpt><trkpt lat="42.67779520114287" lon="11.3277375429773"><ele>445.0</ele><time>2026-03-22T10:03:45.999Z</time></trkpt><trkpt lat="42.67769651880464" lon="11.327715977078544"><ele>445.0</ele><time>2026-03-22T10:03:46.999Z</time></trkpt><trkpt lat="42.677564897280185" lon="11.327605832076108"><ele>445.0</ele><time>2026-03-22T10:03:48.999Z</time></trkpt><trkpt lat="42.67752445460579" lon="11.327509487776554"><ele>445.0</ele><time>2026-03-22T10:03:50.999Z</time></trkpt><trkpt lat="42.67719990508522" lon="11.327926383797333"><ele>444.6666666666667</ele><time>2026-03-22T10:03:51.999Z</time></trkpt><trkpt lat="42.67718304105854" lon="11.327524929034203"><ele>444.33333333333337</ele><time>2026-03-22T10:03:53.999Z</time></trkpt><trkpt lat="42.67721891899261" lon="11.327326009863121"><ele>444.0</ele><time>2026-03-22T10:03:54.999Z</time></trkpt><trkpt lat="42.67722466357848" lon="11.327151836442683"><ele>449.0</ele><time>2026-03-22T10:03:55.999Z</time></trkpt><trkpt lat="42.67728530523514" lon="11.32691969272015"><ele>454.0</ele><time>2026-03-22T10:03:56.999Z</time></trkpt><trkpt lat="42.67736492814671" lon="11.326678564507475"><ele>459.0</ele><time>2026-03-22T10:03:57.999Z</time></trkpt><trkpt lat="42.67744229262302" lon="11.326438518484153"><ele>460.33333333333337</ele><time>2026-03-22T10:03:58.999Z</time></trkpt><trkpt lat="42.67749611862952" lon="11.326231293692064"><ele>461.6666666666667</ele><time>2026-03-22T10:03:59.999Z</time></trkpt><trkpt lat="42.677427224109145" lon="11.325983570466404"><ele>463.0</ele><time>2026-03-22T10:04:00.999Z</time></trkpt><trkpt lat="42.67746141739563" lon="11.32583935010663"><ele>463.0</ele><time>2026-03-22T10:04:01.999Z</time></trkpt><trkpt lat="42.677492777771036" lon="11.325719161104562"><ele>463.0</ele><time>2026-03-22T10:04:02.999Z</time></trkpt><trkpt lat="42.67753409558573" lon="11.325561298037991"><ele>463.0</ele><time>2026-03-22T10:04:04.999Z</time></trkpt><trkpt lat="42.67752981990219" lon="11.32509303356866"><ele>466.5</ele><time>2026-03-22T10:04:05.999Z</time></trkpt><trkpt lat="42.67739538252175" lon="11.324925672327469"><ele>470.0</ele><time>2026-03-22T10:04:06.999Z</time></trkpt><trkpt lat="42.677067727884605" lon="11.325105749598327"><ele>471.5</ele><time>2026-03-22T10:04:07.999Z</time></trkpt><trkpt lat="42.67678358117617" lon="11.325149563414586"><ele>473.0</ele><time>2026-03-22T10:04:08.999Z</time></trkpt><trkpt lat="42.67660252557708" lon="11.325184190556882"><ele>473.0</ele><time>2026-03-22T10:04:09.999Z</time></trkpt><trkpt lat="42.67646533779042" lon="11.32523700312183"><ele>473.0</ele><time>2026-03-22T10:04:10.999Z</time></trkpt><trkpt lat="42.67630625420045" lon="11.325379589126872"><ele>473.0</ele><time>2026-03-22T10:04:11.999Z</time></trkpt><trkpt lat="42.67621777896184" lon="11.325558385096857"><ele>473.3333333333333</ele><time>2026-03-22T10:04:12.999Z</time></trkpt><trkpt lat="42.676117481627195" lon="11.3257200906352"><ele>473.66666666666663</ele><time>2026-03-22T10:04:13.999Z</time></trkpt><trkpt lat="42.676046740307655" lon="11.32586419229134"><ele>474.0</ele><time>2026-03-22T10:04:14.999Z</time></trkpt><trkpt lat="42.67593558957322" lon="11.326050541287067"><ele>474.0</ele><time>2026-03-22T10:04:15.999Z</time></trkpt><trkpt lat="42.67581686205256" lon="11.326190850520215"><ele>474.0</ele><time>2026-03-22T10:04:16.999Z</time></trkpt><trkpt lat="42.67569669857369" lon="11.326303976448438"><ele>474.0</ele><time>2026-03-22T10:04:17.999Z</time></trkpt><trkpt lat="42.675596002126014" lon="11.326375234725566"><ele>474.0</ele><time>2026-03-22T10:04:18.999Z</time></trkpt><trkpt lat="42.675442752051005" lon="11.326414995025289"><ele>474.0</ele><time>2026-03-22T10:04:19.999Z</time></trkpt><trkpt lat="42.67527922907151" lon="11.326221819241526"><ele>474.0</ele><time>2026-03-22T10:04:20.998Z</time></trkpt><trkpt lat="42.67507276478814" lon="11.3262195879249"><ele>474.0</ele><time>2026-03-22T10:04:21.998Z</time></trkpt><trkpt lat="42.674894785869725" lon="11.326217664473246"><ele>474.66666666666663</ele><time>2026-03-22T10:04:22.998Z</time></trkpt><trkpt lat="42.674712730401566" lon="11.326216431150769"><ele>475.3333333333333</ele><time>2026-03-22T10:04:23.998Z</time></trkpt><trkpt lat="42.6745395442509" lon="11.326216431154618"><ele>476.0</ele><time>2026-03-22T10:04:24.998Z</time></trkpt><trkpt lat="42.67437540000182" lon="11.326216431150641"><ele>474.5</ele><time>2026-03-22T10:04:25.998Z</time></trkpt><trkpt lat="42.6742173139552" lon="11.32619553744067"><ele>473.0</ele><time>2026-03-22T10:04:26.998Z</time></trkpt><trkpt lat="42.67408243389967" lon="11.326119974235946"><ele>471.5</ele><time>2026-03-22T10:04:27.998Z</time></trkpt><trkpt lat="42.67399459896562" lon="11.326025767818761"><ele>470.0</ele><time>2026-03-22T10:04:28.998Z</time></trkpt><trkpt lat="42.67393372002135" lon="11.325866779680565"><ele>470.0</ele><time>2026-03-22T10:04:29.998Z</time></trkpt><trkpt lat="42.673893321471446" lon="11.325699455039521"><ele>470.0</ele><time>2026-03-22T10:04:31Z</time></trkpt><trkpt lat="42.67384813220451" lon="11.325505670787898"><ele>470.0</ele><time>2026-03-22T10:04:32Z</time></trkpt><trkpt lat="42.67377347626078" lon="11.325280090677"><ele>467.3333333333333</ele><time>2026-03-22T10:04:33Z</time></trkpt><trkpt lat="42.67364538584984" lon="11.325104737542594"><ele>464.66666666666663</ele><time>2026-03-22T10:04:34Z</time></trkpt><trkpt lat="42.67350873825435" lon="11.324986523222966"><ele>462.0</ele><time>2026-03-22T10:04:35Z</time></trkpt><trkpt lat="42.673420775511964" lon="11.324873766049524"><ele>462.0</ele><time>2026-03-22T10:04:36Z</time></trkpt><trkpt lat="42.673280710364814" lon="11.32476668062405"><ele>462.0</ele><time>2026-03-22T10:04:37Z</time></trkpt><trkpt lat="42.67314053902696" lon="11.32466245942017"><ele>462.0</ele><time>2026-03-22T10:04:38Z</time></trkpt><trkpt lat="42.67299311304199" lon="11.324553086855373"><ele>460.0</ele><time>2026-03-22T10:04:39Z</time></trkpt><trkpt lat="42.672837356244465" lon="11.324437533685067"><ele>458.0</ele><time>2026-03-22T10:04:40Z</time></trkpt><trkpt lat="42.672664621558766" lon="11.324307000248734"><ele>456.0</ele><time>2026-03-22T10:04:41Z</time></trkpt><trkpt lat="42.67250809836606" lon="11.324185074221568"><ele>456.0</ele><time>2026-03-22T10:04:42Z</time></trkpt><trkpt lat="42.67236167407541" lon="11.32400783805633"><ele>456.0</ele><time>2026-03-22T10:04:43Z</time></trkpt><trkpt lat="42.67228006651821" lon="11.323847599077281"><ele>456.0</ele><time>2026-03-22T10:04:44Z</time></trkpt><trkpt lat="42.67226623691361" lon="11.323562167064411"><ele>457.0</ele><time>2026-03-22T10:04:45Z</time></trkpt><trkpt lat="42.672312758294936" lon="11.323327871162778"><ele>458.0</ele><time>2026-03-22T10:04:46Z</time></trkpt><trkpt lat="42.67236496682744" lon="11.323116791032074"><ele>459.0</ele><time>2026-03-22T10:04:47Z</time></trkpt><trkpt lat="42.67240476893889" lon="11.32286549297322"><ele>457.0</ele><time>2026-03-22T10:04:48Z</time></trkpt><trkpt lat="42.67244629447053" lon="11.3226347070946"><ele>455.0</ele><time>2026-03-22T10:04:49Z</time></trkpt><trkpt lat="42.67250197993019" lon="11.32240912907221"><ele>453.0</ele><time>2026-03-22T10:04:50Z</time></trkpt><trkpt lat="42.67253482388028" lon="11.322193789870417"><ele>456.33333333333337</ele><time>2026-03-22T10:04:51Z</time></trkpt><trkpt lat="42.67257193980807" lon="11.321995606332697"><ele>459.6666666666667</ele><time>2026-03-22T10:04:52Z</time></trkpt><trkpt lat="42.67267549735751" lon="11.321914927766965"><ele>463.0</ele><time>2026-03-22T10:04:53Z</time></trkpt><trkpt lat="42.67289731786121" lon="11.321953541805323"><ele>463.0</ele><time>2026-03-22T10:04:55Z</time></trkpt><trkpt lat="42.67305478910826" lon="11.32150345606016"><ele>463.0</ele><time>2026-03-22T10:04:57Z</time></trkpt><trkpt lat="42.67312698245978" lon="11.321626692402074"><ele>462.75</ele><time>2026-03-22T10:04:58Z</time></trkpt><trkpt lat="42.67303435662933" lon="11.321380279497877"><ele>462.5</ele><time>2026-03-22T10:04:59Z</time></trkpt><trkpt lat="42.67301506344877" lon="11.32124992002564"><ele>462.25</ele><time>2026-03-22T10:05:00Z</time></trkpt><trkpt lat="42.672969083754985" lon="11.321109965325954"><ele>462.0</ele><time>2026-03-22T10:05:01Z</time></trkpt><trkpt lat="42.67289881168342" lon="11.320966620405452"><ele>462.0</ele><time>2026-03-22T10:05:02Z</time></trkpt><trkpt lat="42.67283906421731" lon="11.320824762496814"><ele>462.0</ele><time>2026-03-22T10:05:03Z</time></trkpt><trkpt lat="42.67270583406449" lon="11.320555141894907"><ele>462.0</ele><time>2026-03-22T10:05:04Z</time></trkpt><trkpt lat="42.672625623273234" lon="11.32017741957559"><ele>455.25</ele><time>2026-03-22T10:05:05Z</time></trkpt><trkpt lat="42.672620699668926" lon="11.319989334675775"><ele>448.5</ele><time>2026-03-22T10:05:06Z</time></trkpt><trkpt lat="42.67269774404704" lon="11.319785928818387"><ele>441.75</ele><time>2026-03-22T10:05:07Z</time></trkpt><trkpt lat="42.67273412285559" lon="11.31963652041227"><ele>435.0</ele><time>2026-03-22T10:05:08Z</time></trkpt><trkpt lat="42.672741464279504" lon="11.319459870334848"><ele>435.6</ele><time>2026-03-22T10:05:09Z</time></trkpt><trkpt lat="42.67278576606592" lon="11.319304838257116"><ele>436.2</ele><time>2026-03-22T10:05:10Z</time></trkpt><trkpt lat="42.67284562054085" lon="11.3191723134555"><ele>436.79999999999995</ele><time>2026-03-22T10:05:11Z</time></trkpt><trkpt lat="42.672913771067996" lon="11.319097218964195"><ele>437.4</ele><time>2026-03-22T10:05:12Z</time></trkpt><trkpt lat="42.67297660781226" lon="11.319053142094768"><ele>438.0</ele><time>2026-03-22T10:05:13Z</time></trkpt><trkpt lat="42.673207615915224" lon="11.319020142710215"><ele>438.0</ele><time>2026-03-22T10:05:15Z</time></trkpt><trkpt lat="42.67337855259053" lon="11.318976181942489"><ele>438.0</ele><time>2026-03-22T10:05:16Z</time></trkpt><trkpt lat="42.67350051748095" lon="11.318984534417504"><ele>438.0</ele><time>2026-03-22T10:05:17Z</time></trkpt><trkpt lat="42.67359515535137" lon="11.31902185473747"><ele>438.0</ele><time>2026-03-22T10:05:18Z</time></trkpt><trkpt lat="42.67373034192077" lon="11.319024365096306"><ele>436.33333333333337</ele><time>2026-03-22T10:05:19Z</time></trkpt><trkpt lat="42.673896517863156" lon="11.318633313407798"><ele>434.6666666666667</ele><time>2026-03-22T10:05:20Z</time></trkpt><trkpt lat="42.67398543098177" lon="11.318573710359287"><ele>433.0</ele><time>2026-03-22T10:05:20.999Z</time></trkpt><trkpt lat="42.67404727899926" lon="11.318491709251564"><ele>433.0</ele><time>2026-03-22T10:05:21.999Z</time></trkpt><trkpt lat="42.674167184839895" lon="11.318372167727324"><ele>433.0</ele><time>2026-03-22T10:05:22.999Z</time></trkpt><trkpt lat="42.67427029166465" lon="11.318274033195229"><ele>433.0</ele><time>2026-03-22T10:05:23.999Z</time></trkpt><trkpt lat="42.674386446539685" lon="11.318138248183345"><ele>433.0</ele><time>2026-03-22T10:05:24.999Z</time></trkpt><trkpt lat="42.67446716510307" lon="11.318028186360898"><ele>433.75</ele><time>2026-03-22T10:05:25.999Z</time></trkpt><trkpt lat="42.674558202590994" lon="11.317866503016726"><ele>434.5</ele><time>2026-03-22T10:05:26.999Z</time></trkpt><trkpt lat="42.674624722825115" lon="11.317696381750004"><ele>435.25</ele><time>2026-03-22T10:05:27.999Z</time></trkpt><trkpt lat="42.67466921305203" lon="11.317506375557127"><ele>436.0</ele><time>2026-03-22T10:05:28.999Z</time></trkpt><trkpt lat="42.674685334052235" lon="11.317349058918406"><ele>427.0</ele><time>2026-03-22T10:05:29.999Z</time></trkpt><trkpt lat="42.67465336413089" lon="11.317225441461728"><ele>418.0</ele><time>2026-03-22T10:05:30.999Z</time></trkpt><trkpt lat="42.67474374323317" lon="11.316678698258942"><ele>418.0</ele><time>2026-03-22T10:05:31.999Z</time></trkpt><trkpt lat="42.674891716465055" lon="11.316584787550175"><ele>418.0</ele><time>2026-03-22T10:05:32.999Z</time></trkpt><trkpt lat="42.67497812941519" lon="11.316549209417525"><ele>418.0</ele><time>2026-03-22T10:05:33.999Z</time></trkpt><trkpt lat="42.67503995814439" lon="11.316442648033263"><ele>418.0</ele><time>2026-03-22T10:05:34.999Z</time></trkpt><trkpt lat="42.67505879248904" lon="11.316173961360239"><ele>412.75</ele><time>2026-03-22T10:05:35.999Z</time></trkpt><trkpt lat="42.67513214947551" lon="11.315967516467506"><ele>407.5</ele><time>2026-03-22T10:05:36.999Z</time></trkpt><trkpt lat="42.67522110215541" lon="11.315876134237906"><ele>402.25</ele><time>2026-03-22T10:05:37.999Z</time></trkpt><trkpt lat="42.675341707803966" lon="11.31574682440499"><ele>397.0</ele><time>2026-03-22T10:05:38.999Z</time></trkpt><trkpt lat="42.6754822740873" lon="11.315774785926248"><ele>393.33333333333337</ele><time>2026-03-22T10:05:39.999Z</time></trkpt><trkpt lat="42.6755860223121" lon="11.315752338492441"><ele>389.66666666666663</ele><time>2026-03-22T10:05:40.999Z</time></trkpt><trkpt lat="42.67578606834106" lon="11.315776112939325"><ele>386.0</ele><time>2026-03-22T10:05:41.999Z</time></trkpt><trkpt lat="42.6759482629202" lon="11.315821767262925"><ele>389.66666666666663</ele><time>2026-03-22T10:05:42.999Z</time></trkpt><trkpt lat="42.676117466140106" lon="11.31590512032761"><ele>393.33333333333337</ele><time>2026-03-22T10:05:43.999Z</time></trkpt><trkpt lat="42.67624750227199" lon="11.31617698483415"><ele>397.0</ele><time>2026-03-22T10:05:44.999Z</time></trkpt><trkpt lat="42.676385832583996" lon="11.316303595107309"><ele>397.0</ele><time>2026-03-22T10:05:45.999Z</time></trkpt><trkpt lat="42.67655754212282" lon="11.316339143022168"><ele>397.0</ele><time>2026-03-22T10:05:46.999Z</time></trkpt><trkpt lat="42.67670952671004" lon="11.316342714832674"><ele>397.0</ele><time>2026-03-22T10:05:47.999Z</time></trkpt><trkpt lat="42.676680835152155" lon="11.316571511675654"><ele>400.0</ele><time>2026-03-22T10:05:48.999Z</time></trkpt><trkpt lat="42.67677375216212" lon="11.31666368946444"><ele>403.0</ele><time>2026-03-22T10:05:49.999Z</time></trkpt><trkpt lat="42.67663335758528" lon="11.3170215104129"><ele>406.0</ele><time>2026-03-22T10:05:50.999Z</time></trkpt><trkpt lat="42.67679234892804" lon="11.317075857213238"><ele>406.0</ele><time>2026-03-22T10:05:51.999Z</time></trkpt><trkpt lat="42.676859208937564" lon="11.31692451404563"><ele>406.0</ele><time>2026-03-22T10:05:52.999Z</time></trkpt><trkpt lat="42.677006101678714" lon="11.316837612630112"><ele>406.0</ele><time>2026-03-22T10:05:53.999Z</time></trkpt><trkpt lat="42.67718959451975" lon="11.31677558050095"><ele>407.25</ele><time>2026-03-22T10:05:54.999Z</time></trkpt><trkpt lat="42.67733774464552" lon="11.316741422301412"><ele>408.5</ele><time>2026-03-22T10:05:55.999Z</time></trkpt><trkpt lat="42.67747512433092" lon="11.316731362183114"><ele>409.75</ele><time>2026-03-22T10:05:56.999Z</time></trkpt><trkpt lat="42.677612237357266" lon="11.316744189096333"><ele>411.0</ele><time>2026-03-22T10:05:57.999Z</time></trkpt><trkpt lat="42.67776712508618" lon="11.3167768530258"><ele>411.25</ele><time>2026-03-22T10:05:58.999Z</time></trkpt><trkpt lat="42.67788924333122" lon="11.316828455881465"><ele>411.5</ele><time>2026-03-22T10:05:59.999Z</time></trkpt><trkpt lat="42.677999615355276" lon="11.316906370702032"><ele>411.75</ele><time>2026-03-22T10:06:00.999Z</time></trkpt><trkpt lat="42.678122750860275" lon="11.317009855902114"><ele>412.0</ele><time>2026-03-22T10:06:01.999Z</time></trkpt><trkpt lat="42.678254992267625" lon="11.31711894526129"><ele>412.0</ele><time>2026-03-22T10:06:02.999Z</time></trkpt><trkpt lat="42.678378368474895" lon="11.317220721511354"><ele>412.0</ele><time>2026-03-22T10:06:03.999Z</time></trkpt><trkpt lat="42.678490835111816" lon="11.317331039400322"><ele>412.0</ele><time>2026-03-22T10:06:04.999Z</time></trkpt><trkpt lat="42.67858010825588" lon="11.31741533007184"><ele>412.0</ele><time>2026-03-22T10:06:05.999Z</time></trkpt><trkpt lat="42.67867557232917" lon="11.317390491732898"><ele>414.5</ele><time>2026-03-22T10:06:06.999Z</time></trkpt><trkpt lat="42.678754220610564" lon="11.31734937082018"><ele>417.0</ele><time>2026-03-22T10:06:07.999Z</time></trkpt><trkpt lat="42.6787984381432" lon="11.317149748954181"><ele>419.5</ele><time>2026-03-22T10:06:09.999Z</time></trkpt><trkpt lat="42.67878948140907" lon="11.316995100623872"><ele>422.0</ele><time>2026-03-22T10:06:11.999Z</time></trkpt><trkpt lat="42.67866260473994" lon="11.316814548560293"><ele>418.66666666666663</ele><time>2026-03-22T10:06:17.999Z</time></trkpt><trkpt lat="42.67853580466339" lon="11.31671055980298"><ele>415.33333333333337</ele><time>2026-03-22T10:06:18.999Z</time></trkpt><trkpt lat="42.678380111717836" lon="11.316573254963506"><ele>412.0</ele><time>2026-03-22T10:06:19.999Z</time></trkpt><trkpt lat="42.67819660114066" lon="11.316379816993361"><ele>433.0</ele><time>2026-03-22T10:06:20.999Z</time></trkpt><trkpt lat="42.67778649220465" lon="11.316052499075804"><ele>427.0</ele><time>2026-03-22T10:06:21.999Z</time></trkpt><trkpt lat="42.67760538911102" lon="11.315964622702506"><ele>421.0</ele><time>2026-03-22T10:06:22.999Z</time></trkpt><trkpt lat="42.67741695725149" lon="11.315885986513136"><ele>415.0</ele><time>2026-03-22T10:06:23.999Z</time></trkpt><trkpt lat="42.677225063155234" lon="11.315845331175144"><ele>415.0</ele><time>2026-03-22T10:06:24.999Z</time></trkpt><trkpt lat="42.67705358989403" lon="11.315820991264893"><ele>415.0</ele><time>2026-03-22T10:06:25.999Z</time></trkpt><trkpt lat="42.67686401764623" lon="11.315796609804643"><ele>415.0</ele><time>2026-03-22T10:06:26.999Z</time></trkpt><trkpt lat="42.67664286497999" lon="11.315755336845609"><ele>415.33333333333337</ele><time>2026-03-22T10:06:27.999Z</time></trkpt><trkpt lat="42.67647737178991" lon="11.315630195365408"><ele>415.66666666666663</ele><time>2026-03-22T10:06:28.999Z</time></trkpt><trkpt lat="42.67632665863322" lon="11.315459010600707"><ele>416.0</ele><time>2026-03-22T10:06:29.999Z</time></trkpt><trkpt lat="42.67623046686534" lon="11.315273816571564"><ele>416.0</ele><time>2026-03-22T10:06:30.999Z</time></trkpt><trkpt lat="42.676139251423784" lon="11.315096669126829"><ele>416.0</ele><time>2026-03-22T10:06:31.999Z</time></trkpt><trkpt lat="42.67603008068335" lon="11.314888901717637"><ele>416.0</ele><time>2026-03-22T10:06:32.999Z</time></trkpt><trkpt lat="42.67591033377968" lon="11.314695844408286"><ele>411.3333333333333</ele><time>2026-03-22T10:06:33.998Z</time></trkpt><trkpt lat="42.675769324892116" lon="11.31453870175148"><ele>406.66666666666663</ele><time>2026-03-22T10:06:34.998Z</time></trkpt><trkpt lat="42.67562899535913" lon="11.314425358954573"><ele>402.0</ele><time>2026-03-22T10:06:35.998Z</time></trkpt><trkpt lat="42.675441965107986" lon="11.314311772385198"><ele>397.66666666666663</ele><time>2026-03-22T10:06:37Z</time></trkpt><trkpt lat="42.675263226721285" lon="11.314135142336788"><ele>393.3333333333333</ele><time>2026-03-22T10:06:38Z</time></trkpt><trkpt lat="42.6751688702232" lon="11.314025032561023"><ele>389.0</ele><time>2026-03-22T10:06:39Z</time></trkpt><trkpt lat="42.674956983781854" lon="11.313864667502447"><ele>389.0</ele><time>2026-03-22T10:06:40Z</time></trkpt><trkpt lat="42.674778983425824" lon="11.313775463186563"><ele>389.0</ele><time>2026-03-22T10:06:41Z</time></trkpt><trkpt lat="42.674642258061276" lon="11.31370838658493"><ele>389.0</ele><time>2026-03-22T10:06:42Z</time></trkpt><trkpt lat="42.67452653714095" lon="11.313638114114932"><ele>389.0</ele><time>2026-03-22T10:06:43Z</time></trkpt><trkpt lat="42.674451432141964" lon="11.313497357243604"><ele>389.0</ele><time>2026-03-22T10:06:44Z</time></trkpt><trkpt lat="42.67438443461401" lon="11.313319485343655"><ele>389.0</ele><time>2026-03-22T10:06:45Z</time></trkpt><trkpt lat="42.67435180832595" lon="11.313005028416269"><ele>385.0</ele><time>2026-03-22T10:06:46Z</time></trkpt><trkpt lat="42.67426906226788" lon="11.31283965100996"><ele>381.0</ele><time>2026-03-22T10:06:47Z</time></trkpt><trkpt lat="42.67411864246279" lon="11.312664939836832"><ele>377.0</ele><time>2026-03-22T10:06:49Z</time></trkpt><trkpt lat="42.673980041290825" lon="11.312664941439216"><ele>377.0</ele><time>2026-03-22T10:06:51Z</time></trkpt><trkpt lat="42.67378676154712" lon="11.31262418745841"><ele>377.0</ele><time>2026-03-22T10:06:52Z</time></trkpt><trkpt lat="42.673685005355296" lon="11.312097588592282"><ele>375.6666666666667</ele><time>2026-03-22T10:06:53Z</time></trkpt><trkpt lat="42.67348501503369" lon="11.31203490691779"><ele>374.3333333333333</ele><time>2026-03-22T10:06:54Z</time></trkpt><trkpt lat="42.67331142224705" lon="11.311988456114923"><ele>373.0</ele><time>2026-03-22T10:06:55Z</time></trkpt><trkpt lat="42.67315084708161" lon="11.311862478495168"><ele>378.0</ele><time>2026-03-22T10:06:56Z</time></trkpt><trkpt lat="42.672846335212796" lon="11.312353105706869"><ele>377.3333333333333</ele><time>2026-03-22T10:06:57Z</time></trkpt><trkpt lat="42.672654795334886" lon="11.312296616100525"><ele>376.66666666666663</ele><time>2026-03-22T10:06:58Z</time></trkpt><trkpt lat="42.672475608437466" lon="11.312243657694582"><ele>376.0</ele><time>2026-03-22T10:06:59Z</time></trkpt><trkpt lat="42.672266051895555" lon="11.312179565222676"><ele>374.66666666666663</ele><time>2026-03-22T10:07:00Z</time></trkpt><trkpt lat="42.67209308712069" lon="11.312129129356501"><ele>373.3333333333333</ele><time>2026-03-22T10:07:01Z</time></trkpt><trkpt lat="42.67188149796275" lon="11.312082774565113"><ele>372.0</ele><time>2026-03-22T10:07:02Z</time></trkpt><trkpt lat="42.67165156658011" lon="11.312041870492951"><ele>370.5</ele><time>2026-03-22T10:07:03Z</time></trkpt><trkpt lat="42.671425806227454" lon="11.312002727232061"><ele>369.0</ele><time>2026-03-22T10:07:04Z</time></trkpt><trkpt lat="42.67119692163324" lon="11.311964562071347"><ele>367.5</ele><time>2026-03-22T10:07:05Z</time></trkpt><trkpt lat="42.67097634681733" lon="11.311929467348438"><ele>366.0</ele><time>2026-03-22T10:07:06Z</time></trkpt><trkpt lat="42.670719945464114" lon="11.311892778506428"><ele>366.0</ele><time>2026-03-22T10:07:07Z</time></trkpt><trkpt lat="42.67049020926948" lon="11.31185990521949"><ele>366.0</ele><time>2026-03-22T10:07:08Z</time></trkpt><trkpt lat="42.67022769807438" lon="11.31182222415237"><ele>363.5</ele><time>2026-03-22T10:07:09Z</time></trkpt><trkpt lat="42.66994633680256" lon="11.31178156842971"><ele>361.0</ele><time>2026-03-22T10:07:10Z</time></trkpt><trkpt lat="42.66971552089065" lon="11.311749770403473"><ele>361.0</ele><time>2026-03-22T10:07:11Z</time></trkpt><trkpt lat="42.66947631050923" lon="11.311717609012069"><ele>361.0</ele><time>2026-03-22T10:07:12Z</time></trkpt><trkpt lat="42.66925514978716" lon="11.311698215814454"><ele>362.0</ele><time>2026-03-22T10:07:13Z</time></trkpt><trkpt lat="42.66903149964212" lon="11.311727024211798"><ele>363.0</ele><time>2026-03-22T10:07:14Z</time></trkpt><trkpt lat="42.66881389941753" lon="11.31183462192192"><ele>363.0</ele><time>2026-03-22T10:07:15Z</time></trkpt><trkpt lat="42.668625590678204" lon="11.311982173415561"><ele>363.0</ele><time>2026-03-22T10:07:16Z</time></trkpt><trkpt lat="42.668433517305864" lon="11.31215719391619"><ele>363.0</ele><time>2026-03-22T10:07:17Z</time></trkpt><trkpt lat="42.66820977268179" lon="11.312322805983701"><ele>364.6666666666667</ele><time>2026-03-22T10:07:18Z</time></trkpt><trkpt lat="42.66796214531924" lon="11.312402572320703"><ele>366.33333333333337</ele><time>2026-03-22T10:07:19Z</time></trkpt><trkpt lat="42.6678129187825" lon="11.312450589062172"><ele>368.0</ele><time>2026-03-22T10:07:20Z</time></trkpt><trkpt lat="42.667701874043615" lon="11.312413138748337"><ele>368.6666666666667</ele><time>2026-03-22T10:07:21Z</time></trkpt><trkpt lat="42.66754487695305" lon="11.312365928826692"><ele>369.3333333333333</ele><time>2026-03-22T10:07:22Z</time></trkpt><trkpt lat="42.66732992380379" lon="11.31230491756309"><ele>370.0</ele><time>2026-03-22T10:07:23Z</time></trkpt><trkpt lat="42.66711092798833" lon="11.312295493199413"><ele>370.0</ele><time>2026-03-22T10:07:24Z</time></trkpt><trkpt lat="42.66696336657068" lon="11.312371030736045"><ele>370.0</ele><time>2026-03-22T10:07:25Z</time></trkpt><trkpt lat="42.66680620063853" lon="11.312432981676324"><ele>370.0</ele><time>2026-03-22T10:07:26Z</time></trkpt><trkpt lat="42.66668773027981" lon="11.312580097467746"><ele>369.66666666666663</ele><time>2026-03-22T10:07:27Z</time></trkpt><trkpt lat="42.66655834462944" lon="11.312718336427745"><ele>369.3333333333333</ele><time>2026-03-22T10:07:28Z</time></trkpt><trkpt lat="42.6664035505718" lon="11.3128859634212"><ele>369.0</ele><time>2026-03-22T10:07:29Z</time></trkpt><trkpt lat="42.66622310976122" lon="11.313081339921554"><ele>368.3333333333333</ele><time>2026-03-22T10:07:30Z</time></trkpt><trkpt lat="42.666074629039" lon="11.313241965432688"><ele>367.66666666666663</ele><time>2026-03-22T10:07:30.999Z</time></trkpt><trkpt lat="42.66591856727484" lon="11.313395303145025"><ele>367.0</ele><time>2026-03-22T10:07:31.999Z</time></trkpt><trkpt lat="42.66575359919328" lon="11.313479037055599"><ele>367.0</ele><time>2026-03-22T10:07:32.999Z</time></trkpt><trkpt lat="42.66559775102158" lon="11.31359055173561"><ele>367.0</ele><time>2026-03-22T10:07:33.999Z</time></trkpt><trkpt lat="42.665421531305554" lon="11.313650109178742"><ele>367.0</ele><time>2026-03-22T10:07:34.999Z</time></trkpt><trkpt lat="42.66523126029678" lon="11.313714420901698"><ele>365.66666666666663</ele><time>2026-03-22T10:07:35.999Z</time></trkpt><trkpt lat="42.665032344365144" lon="11.3137726782771"><ele>364.3333333333333</ele><time>2026-03-22T10:07:36.999Z</time></trkpt><trkpt lat="42.664838286029884" lon="11.31379478572371"><ele>363.0</ele><time>2026-03-22T10:07:37.999Z</time></trkpt><trkpt lat="42.66466970241285" lon="11.313779730799506"><ele>362.0</ele><time>2026-03-22T10:07:38.999Z</time></trkpt><trkpt lat="42.66443438360954" lon="11.313733483729806"><ele>361.0</ele><time>2026-03-22T10:07:39.999Z</time></trkpt><trkpt lat="42.664183084919536" lon="11.313684834630484"><ele>361.0</ele><time>2026-03-22T10:07:40.999Z</time></trkpt><trkpt lat="42.663972994657044" lon="11.313644163080458"><ele>361.0</ele><time>2026-03-22T10:07:41.999Z</time></trkpt><trkpt lat="42.663757651947556" lon="11.313601389760976"><ele>361.0</ele><time>2026-03-22T10:07:42.999Z</time></trkpt><trkpt lat="42.663540850424134" lon="11.31355823756929"><ele>360.5</ele><time>2026-03-22T10:07:43.999Z</time></trkpt><trkpt lat="42.66331760896653" lon="11.31351380199173"><ele>360.0</ele><time>2026-03-22T10:07:44.999Z</time></trkpt><trkpt lat="42.663092087357484" lon="11.313468912465417"><ele>360.0</ele><time>2026-03-22T10:07:45.999Z</time></trkpt><trkpt lat="42.662855118892914" lon="11.313421744469995"><ele>360.0</ele><time>2026-03-22T10:07:46.999Z</time></trkpt><trkpt lat="42.662619366579534" lon="11.313374818537685"><ele>361.0</ele><time>2026-03-22T10:07:47.999Z</time></trkpt><trkpt lat="42.66238012844706" lon="11.313328257050546"><ele>362.0</ele><time>2026-03-22T10:07:48.999Z</time></trkpt><trkpt lat="42.662146865894144" lon="11.3132837637933"><ele>361.5</ele><time>2026-03-22T10:07:49.999Z</time></trkpt><trkpt lat="42.66191040790012" lon="11.313237705668001"><ele>361.0</ele><time>2026-03-22T10:07:50.999Z</time></trkpt><trkpt lat="42.66167395721022" lon="11.313190300918224"><ele>361.0</ele><time>2026-03-22T10:07:51.999Z</time></trkpt><trkpt lat="42.66143736902699" lon="11.313142868580606"><ele>361.0</ele><time>2026-03-22T10:07:52.999Z</time></trkpt><trkpt lat="42.661197633170794" lon="11.313146194047743"><ele>360.0</ele><time>2026-03-22T10:07:53.999Z</time></trkpt><trkpt lat="42.66096258508266" lon="11.313100358192697"><ele>359.0</ele><time>2026-03-22T10:07:54.999Z</time></trkpt><trkpt lat="42.66072175332467" lon="11.313056251781452"><ele>357.5</ele><time>2026-03-22T10:07:55.999Z</time></trkpt><trkpt lat="42.66047998095761" lon="11.31300288288265"><ele>356.0</ele><time>2026-03-22T10:07:56.999Z</time></trkpt><trkpt lat="42.66023812725229" lon="11.312946116326929"><ele>355.0</ele><time>2026-03-22T10:07:57.999Z</time></trkpt><trkpt lat="42.66001197261249" lon="11.312853376102943"><ele>354.0</ele><time>2026-03-22T10:07:58.999Z</time></trkpt><trkpt lat="42.659778695497025" lon="11.31280757969634"><ele>354.0</ele><time>2026-03-22T10:07:59.999Z</time></trkpt><trkpt lat="42.6595532232902" lon="11.312762971479865"><ele>354.0</ele><time>2026-03-22T10:08:00.999Z</time></trkpt><trkpt lat="42.65933242955993" lon="11.31269952631849"><ele>355.0</ele><time>2026-03-22T10:08:01.999Z</time></trkpt><trkpt lat="42.65914722510374" lon="11.312598905539673"><ele>356.0</ele><time>2026-03-22T10:08:02.999Z</time></trkpt><trkpt lat="42.659006522773595" lon="11.312463304258069"><ele>357.0</ele><time>2026-03-22T10:08:03.999Z</time></trkpt><trkpt lat="42.65887103770998" lon="11.312294068876616"><ele>356.3333333333333</ele><time>2026-03-22T10:08:04.999Z</time></trkpt><trkpt lat="42.65871987388713" lon="11.312108149054415"><ele>355.66666666666663</ele><time>2026-03-22T10:08:05.999Z</time></trkpt><trkpt lat="42.658555286378004" lon="11.311938935471678"><ele>355.0</ele><time>2026-03-22T10:08:06.999Z</time></trkpt><trkpt lat="42.65837643528454" lon="11.311821290813779"><ele>354.3333333333333</ele><time>2026-03-22T10:08:07.999Z</time></trkpt><trkpt lat="42.6581957751799" lon="11.31170172258431"><ele>353.6666666666667</ele><time>2026-03-22T10:08:08.999Z</time></trkpt><trkpt lat="42.6580010634904" lon="11.311621269931454"><ele>353.0</ele><time>2026-03-22T10:08:09.999Z</time></trkpt><trkpt lat="42.657813820016905" lon="11.311543903064932"><ele>353.5</ele><time>2026-03-22T10:08:10.999Z</time></trkpt><trkpt lat="42.65756437841694" lon="11.311748186678091"><ele>354.0</ele><time>2026-03-22T10:08:11.999Z</time></trkpt><trkpt lat="42.65736325767704" lon="11.311792614524457"><ele>354.0</ele><time>2026-03-22T10:08:12.999Z</time></trkpt><trkpt lat="42.65718267214128" lon="11.311857220853165"><ele>354.0</ele><time>2026-03-22T10:08:13.999Z</time></trkpt><trkpt lat="42.656985710026106" lon="11.311913594799629"><ele>354.0</ele><time>2026-03-22T10:08:14.999Z</time></trkpt><trkpt lat="42.65678053653191" lon="11.31198067639621"><ele>354.6666666666667</ele><time>2026-03-22T10:08:15.999Z</time></trkpt><trkpt lat="42.65657939935259" lon="11.31203965145173"><ele>355.33333333333337</ele><time>2026-03-22T10:08:16.999Z</time></trkpt><trkpt lat="42.65637708897222" lon="11.312089658772265"><ele>356.0</ele><time>2026-03-22T10:08:17.999Z</time></trkpt><trkpt lat="42.65618014459345" lon="11.312147054773316"><ele>355.0</ele><time>2026-03-22T10:08:18.999Z</time></trkpt><trkpt lat="42.65598520547465" lon="11.31220766878283"><ele>354.0</ele><time>2026-03-22T10:08:19.999Z</time></trkpt><trkpt lat="42.65577644832319" lon="11.312244282800755"><ele>353.0</ele><time>2026-03-22T10:08:20.999Z</time></trkpt><trkpt lat="42.655562770822925" lon="11.312261062857823"><ele>353.0</ele><time>2026-03-22T10:08:21.999Z</time></trkpt><trkpt lat="42.655347982562596" lon="11.312266808481457"><ele>353.0</ele><time>2026-03-22T10:08:22.999Z</time></trkpt><trkpt lat="42.65514156681896" lon="11.31225879731987"><ele>353.0</ele><time>2026-03-22T10:08:23.999Z</time></trkpt><trkpt lat="42.6549310335637" lon="11.312317168586285"><ele>351.6666666666667</ele><time>2026-03-22T10:08:24.999Z</time></trkpt><trkpt lat="42.65471556455085" lon="11.312370126662431"><ele>350.3333333333333</ele><time>2026-03-22T10:08:25.999Z</time></trkpt><trkpt lat="42.65452662141593" lon="11.312430691413233"><ele>349.0</ele><time>2026-03-22T10:08:26.999Z</time></trkpt><trkpt lat="42.654337656054764" lon="11.312458094002752"><ele>347.0</ele><time>2026-03-22T10:08:27.999Z</time></trkpt><trkpt lat="42.654159804420566" lon="11.312495680206125"><ele>345.0</ele><time>2026-03-22T10:08:28.999Z</time></trkpt><trkpt lat="42.65401367518438" lon="11.312542733468886"><ele>343.0</ele><time>2026-03-22T10:08:29.999Z</time></trkpt><trkpt lat="42.653869352293086" lon="11.3126285930926"><ele>343.0</ele><time>2026-03-22T10:08:30.999Z</time></trkpt><trkpt lat="42.65377155917921" lon="11.312753003787806"><ele>343.0</ele><time>2026-03-22T10:08:31.999Z</time></trkpt><trkpt lat="42.65364977672296" lon="11.312861404569915"><ele>343.0</ele><time>2026-03-22T10:08:32.999Z</time></trkpt><trkpt lat="42.653538001099086" lon="11.312971461338384"><ele>343.0</ele><time>2026-03-22T10:08:33.999Z</time></trkpt><trkpt lat="42.65340374414662" lon="11.312976707051263"><ele>342.5</ele><time>2026-03-22T10:08:34.999Z</time></trkpt><trkpt lat="42.65327840508047" lon="11.312992238593237"><ele>342.0</ele><time>2026-03-22T10:08:35.999Z</time></trkpt><trkpt lat="42.65313604736093" lon="11.313022447670354"><ele>341.5</ele><time>2026-03-22T10:08:36.999Z</time></trkpt><trkpt lat="42.65299258013154" lon="11.313088968213039"><ele>341.0</ele><time>2026-03-22T10:08:37.999Z</time></trkpt><trkpt lat="42.652768378214816" lon="11.312952442347036"><ele>339.33333333333337</ele><time>2026-03-22T10:08:38.999Z</time></trkpt><trkpt lat="42.65254910219422" lon="11.312992354816354"><ele>337.6666666666667</ele><time>2026-03-22T10:08:39.999Z</time></trkpt><trkpt lat="42.65237904847883" lon="11.313161928217749"><ele>336.0</ele><time>2026-03-22T10:08:40.999Z</time></trkpt><trkpt lat="42.65225281241327" lon="11.31334832166428"><ele>336.0</ele><time>2026-03-22T10:08:41.999Z</time></trkpt><trkpt lat="42.652087490811" lon="11.313486407550828"><ele>336.0</ele><time>2026-03-22T10:08:43Z</time></trkpt><trkpt lat="42.65190573274332" lon="11.31360809435804"><ele>336.0</ele><time>2026-03-22T10:08:44Z</time></trkpt><trkpt lat="42.651732114585315" lon="11.313717027268657"><ele>334.0</ele><time>2026-03-22T10:08:45Z</time></trkpt><trkpt lat="42.65154658285394" lon="11.313822612447854"><ele>332.0</ele><time>2026-03-22T10:08:46Z</time></trkpt><trkpt lat="42.651356092329735" lon="11.313902442132468"><ele>330.0</ele><time>2026-03-22T10:08:47Z</time></trkpt><trkpt lat="42.65116601099395" lon="11.314003374983141"><ele>329.0</ele><time>2026-03-22T10:08:48Z</time></trkpt><trkpt lat="42.650985184415106" lon="11.31410448051115"><ele>328.0</ele><time>2026-03-22T10:08:49Z</time></trkpt><trkpt lat="42.65081934192615" lon="11.314210973640662"><ele>327.0</ele><time>2026-03-22T10:08:50Z</time></trkpt><trkpt lat="42.65068497087303" lon="11.314381255564724"><ele>327.0</ele><time>2026-03-22T10:08:51Z</time></trkpt><trkpt lat="42.65060912091343" lon="11.314590908694672"><ele>327.0</ele><time>2026-03-22T10:08:52Z</time></trkpt><trkpt lat="42.6505965865524" lon="11.314834153256506"><ele>327.0</ele><time>2026-03-22T10:08:53Z</time></trkpt><trkpt lat="42.65059462065254" lon="11.31504000082269"><ele>326.3333333333333</ele><time>2026-03-22T10:08:54Z</time></trkpt><trkpt lat="42.650660899142196" lon="11.315284495429879"><ele>325.66666666666663</ele><time>2026-03-22T10:08:55Z</time></trkpt><trkpt lat="42.650680809528396" lon="11.315515027551891"><ele>325.0</ele><time>2026-03-22T10:08:56Z</time></trkpt><trkpt lat="42.650694877409464" lon="11.315758185154765"><ele>325.0</ele><time>2026-03-22T10:08:57Z</time></trkpt><trkpt lat="42.65073586064081" lon="11.315992451026197"><ele>325.0</ele><time>2026-03-22T10:08:58Z</time></trkpt><trkpt lat="42.65081526990102" lon="11.316214962145013"><ele>325.0</ele><time>2026-03-22T10:08:59Z</time></trkpt><trkpt lat="42.650917308837165" lon="11.316403478416227"><ele>324.66666666666663</ele><time>2026-03-22T10:09:00Z</time></trkpt><trkpt lat="42.65098883569376" lon="11.316608346961731"><ele>324.3333333333333</ele><time>2026-03-22T10:09:01Z</time></trkpt><trkpt lat="42.65102027531186" lon="11.316817718981332"><ele>324.0</ele><time>2026-03-22T10:09:02Z</time></trkpt><trkpt lat="42.65101418232945" lon="11.31703510847246"><ele>324.0</ele><time>2026-03-22T10:09:03Z</time></trkpt><trkpt lat="42.650967258678676" lon="11.317212783419988"><ele>324.0</ele><time>2026-03-22T10:09:04Z</time></trkpt><trkpt lat="42.65090515422471" lon="11.31739034929973"><ele>324.0</ele><time>2026-03-22T10:09:05Z</time></trkpt><trkpt lat="42.65085126514411" lon="11.317576903612077"><ele>324.0</ele><time>2026-03-22T10:09:06Z</time></trkpt><trkpt lat="42.65078109800106" lon="11.317700243132247"><ele>323.75</ele><time>2026-03-22T10:09:07Z</time></trkpt><trkpt lat="42.65069238381165" lon="11.317754771086184"><ele>323.5</ele><time>2026-03-22T10:09:08Z</time></trkpt><trkpt lat="42.65057257899079" lon="11.317798779442487"><ele>323.25</ele><time>2026-03-22T10:09:09Z</time></trkpt><trkpt lat="42.650392185800804" lon="11.317786252255763"><ele>323.0</ele><time>2026-03-22T10:09:10Z</time></trkpt><trkpt lat="42.65021062764967" lon="11.31783096981953"><ele>323.0</ele><time>2026-03-22T10:09:11Z</time></trkpt><trkpt lat="42.65002404258925" lon="11.317899555600778"><ele>323.0</ele><time>2026-03-22T10:09:12Z</time></trkpt><trkpt lat="42.64988987996055" lon="11.31802745991486"><ele>323.0</ele><time>2026-03-22T10:09:13Z</time></trkpt><trkpt lat="42.6497601251787" lon="11.31811829219305"><ele>321.5</ele><time>2026-03-22T10:09:14Z</time></trkpt><trkpt lat="42.64962747181658" lon="11.318220480722713"><ele>320.0</ele><time>2026-03-22T10:09:15Z</time></trkpt><trkpt lat="42.649604110802" lon="11.318375814363614"><ele>318.5</ele><time>2026-03-22T10:09:16Z</time></trkpt><trkpt lat="42.64966069746318" lon="11.318590457629076"><ele>317.0</ele><time>2026-03-22T10:09:17Z</time></trkpt><trkpt lat="42.64973865434832" lon="11.318865284188288"><ele>315.6666666666667</ele><time>2026-03-22T10:09:18Z</time></trkpt><trkpt lat="42.649853719756045" lon="11.319117277300847"><ele>314.3333333333333</ele><time>2026-03-22T10:09:19Z</time></trkpt><trkpt lat="42.64997719334739" lon="11.31935157643099"><ele>313.0</ele><time>2026-03-22T10:09:20Z</time></trkpt><trkpt lat="42.65007620316897" lon="11.319554179765776"><ele>312.0</ele><time>2026-03-22T10:09:21Z</time></trkpt><trkpt lat="42.65019118028628" lon="11.319786917357701"><ele>311.0</ele><time>2026-03-22T10:09:22Z</time></trkpt><trkpt lat="42.65030888070504" lon="11.319928746216046"><ele>310.0</ele><time>2026-03-22T10:09:23Z</time></trkpt><trkpt lat="42.65032647749137" lon="11.320138515989997"><ele>310.0</ele><time>2026-03-22T10:09:24Z</time></trkpt><trkpt lat="42.65029194467675" lon="11.320277533176169"><ele>310.0</ele><time>2026-03-22T10:09:25Z</time></trkpt><trkpt lat="42.65023830318353" lon="11.320401371652768"><ele>310.0</ele><time>2026-03-22T10:09:26Z</time></trkpt><trkpt lat="42.650172972136275" lon="11.320535254772695"><ele>310.0</ele><time>2026-03-22T10:09:27Z</time></trkpt><trkpt lat="42.65008440324682" lon="11.32064835520977"><ele>308.25</ele><time>2026-03-22T10:09:28Z</time></trkpt><trkpt lat="42.65002158726889" lon="11.320846261662982"><ele>306.5</ele><time>2026-03-22T10:09:29Z</time></trkpt><trkpt lat="42.64989492066158" lon="11.32094592407522"><ele>304.75</ele><time>2026-03-22T10:09:30Z</time></trkpt><trkpt lat="42.649806473701176" lon="11.32102148866962"><ele>303.0</ele><time>2026-03-22T10:09:31Z</time></trkpt><trkpt lat="42.64973648885955" lon="11.321183914591604"><ele>303.0</ele><time>2026-03-22T10:09:32Z</time></trkpt><trkpt lat="42.64969207043413" lon="11.321385149723952"><ele>303.0</ele><time>2026-03-22T10:09:33Z</time></trkpt><trkpt lat="42.6496642622551" lon="11.321608068486048"><ele>303.0</ele><time>2026-03-22T10:09:34Z</time></trkpt><trkpt lat="42.64958813205662" lon="11.321786050370585"><ele>303.0</ele><time>2026-03-22T10:09:35Z</time></trkpt><trkpt lat="42.649486122624346" lon="11.321978171026021"><ele>303.0</ele><time>2026-03-22T10:09:36Z</time></trkpt><trkpt lat="42.64939594597164" lon="11.322163346480583"><ele>303.0</ele><time>2026-03-22T10:09:37Z</time></trkpt><trkpt lat="42.649321860021594" lon="11.32236114812951"><ele>303.0</ele><time>2026-03-22T10:09:38Z</time></trkpt><trkpt lat="42.649279803523804" lon="11.322553017420484"><ele>303.0</ele><time>2026-03-22T10:09:39Z</time></trkpt><trkpt lat="42.64927079919727" lon="11.322768004988975"><ele>303.0</ele><time>2026-03-22T10:09:40Z</time></trkpt><trkpt lat="42.64929040624626" lon="11.322973648062286"><ele>300.75</ele><time>2026-03-22T10:09:40.999Z</time></trkpt><trkpt lat="42.64927824688752" lon="11.323177011436751"><ele>298.5</ele><time>2026-03-22T10:09:41.999Z</time></trkpt><trkpt lat="42.64918892207265" lon="11.323368481871094"><ele>296.25</ele><time>2026-03-22T10:09:42.999Z</time></trkpt><trkpt lat="42.64908990641328" lon="11.323457763166807"><ele>294.0</ele><time>2026-03-22T10:09:43.999Z</time></trkpt><trkpt lat="42.648945539203254" lon="11.323520664114866"><ele>294.0</ele><time>2026-03-22T10:09:44.999Z</time></trkpt><trkpt lat="42.64879330333328" lon="11.323573179177684"><ele>294.0</ele><time>2026-03-22T10:09:45.999Z</time></trkpt><trkpt lat="42.64863340012132" lon="11.323603582723093"><ele>294.0</ele><time>2026-03-22T10:09:46.999Z</time></trkpt><trkpt lat="42.6485263407621" lon="11.323672661490713"><ele>294.0</ele><time>2026-03-22T10:09:47.999Z</time></trkpt><trkpt lat="42.64842123164927" lon="11.323783865584312"><ele>290.75</ele><time>2026-03-22T10:09:48.999Z</time></trkpt><trkpt lat="42.64832937175331" lon="11.323917905491603"><ele>287.5</ele><time>2026-03-22T10:09:49.999Z</time></trkpt><trkpt lat="42.648232129178375" lon="11.323995489242895"><ele>284.25</ele><time>2026-03-22T10:09:50.999Z</time></trkpt><trkpt lat="42.64811267162068" lon="11.324015113228839"><ele>281.0</ele><time>2026-03-22T10:09:51.999Z</time></trkpt><trkpt lat="42.64800062601789" lon="11.32397749047154"><ele>281.0</ele><time>2026-03-22T10:09:52.999Z</time></trkpt><trkpt lat="42.64791218123439" lon="11.323921433025646"><ele>281.0</ele><time>2026-03-22T10:09:53.999Z</time></trkpt><trkpt lat="42.647815369023846" lon="11.323809043787227"><ele>281.0</ele><time>2026-03-22T10:09:54.999Z</time></trkpt><trkpt lat="42.64775890130011" lon="11.323655022701058"><ele>281.0</ele><time>2026-03-22T10:09:55.999Z</time></trkpt><trkpt lat="42.647721348331864" lon="11.323492480613687"><ele>279.6</ele><time>2026-03-22T10:09:56.999Z</time></trkpt><trkpt lat="42.64767328067453" lon="11.32334403779723"><ele>278.20000000000005</ele><time>2026-03-22T10:09:57.999Z</time></trkpt><trkpt lat="42.64761045498694" lon="11.323238456132296"><ele>276.79999999999995</ele><time>2026-03-22T10:09:58.999Z</time></trkpt><trkpt lat="42.64757212880803" lon="11.32313700799608"><ele>275.4</ele><time>2026-03-22T10:09:59.999Z</time></trkpt><trkpt lat="42.64754606657175" lon="11.322945156311578"><ele>274.0</ele><time>2026-03-22T10:10:00.999Z</time></trkpt><trkpt lat="42.64758351376608" lon="11.322742256355081"><ele>274.0</ele><time>2026-03-22T10:10:01.999Z</time></trkpt><trkpt lat="42.64766947910348" lon="11.322576137437718"><ele>274.0</ele><time>2026-03-22T10:10:02.999Z</time></trkpt><trkpt lat="42.64776361993438" lon="11.322432026763568"><ele>274.0</ele><time>2026-03-22T10:10:03.999Z</time></trkpt><trkpt lat="42.647857190431445" lon="11.322316981314021"><ele>274.0</ele><time>2026-03-22T10:10:04.999Z</time></trkpt><trkpt lat="42.64791769939157" lon="11.32222105676313"><ele>276.59999999999997</ele><time>2026-03-22T10:10:05.999Z</time></trkpt><trkpt lat="42.647912946835405" lon="11.322128544942508"><ele>279.2</ele><time>2026-03-22T10:10:06.999Z</time></trkpt><trkpt lat="42.64787017190886" lon="11.321988889755467"><ele>281.79999999999995</ele><time>2026-03-22T10:10:07.999Z</time></trkpt><trkpt lat="42.647806300183944" lon="11.321881032286376"><ele>284.4</ele><time>2026-03-22T10:10:08.999Z</time></trkpt><trkpt lat="42.6477169949364" lon="11.321805868669871"><ele>287.0</ele><time>2026-03-22T10:10:09.999Z</time></trkpt><trkpt lat="42.647599259216605" lon="11.321782669146698"><ele>287.0</ele><time>2026-03-22T10:10:10.999Z</time></trkpt><trkpt lat="42.64747924123142" lon="11.321809232495271"><ele>287.0</ele><time>2026-03-22T10:10:11.999Z</time></trkpt><trkpt lat="42.647363423852596" lon="11.321840171791806"><ele>287.0</ele><time>2026-03-22T10:10:12.999Z</time></trkpt><trkpt lat="42.6472315311202" lon="11.321870075049619"><ele>287.0</ele><time>2026-03-22T10:10:13.999Z</time></trkpt><trkpt lat="42.64710869591156" lon="11.321922397818046"><ele>287.0</ele><time>2026-03-22T10:10:14.999Z</time></trkpt><trkpt lat="42.64699608446196" lon="11.321990838074688"><ele>287.0</ele><time>2026-03-22T10:10:15.999Z</time></trkpt><trkpt lat="42.64684600940783" lon="11.322134105338762"><ele>287.0</ele><time>2026-03-22T10:10:16.999Z</time></trkpt><trkpt lat="42.64669719527587" lon="11.32228823132852"><ele>282.6666666666667</ele><time>2026-03-22T10:10:17.999Z</time></trkpt><trkpt lat="42.64655851042905" lon="11.322421314257586"><ele>278.3333333333333</ele><time>2026-03-22T10:10:18.999Z</time></trkpt><trkpt lat="42.64647244994294" lon="11.322606843098942"><ele>274.0</ele><time>2026-03-22T10:10:19.999Z</time></trkpt><trkpt lat="42.6464095475908" lon="11.322791500718747"><ele>274.0</ele><time>2026-03-22T10:10:20.999Z</time></trkpt><trkpt lat="42.64628632634777" lon="11.322930026536298"><ele>274.0</ele><time>2026-03-22T10:10:21.999Z</time></trkpt><trkpt lat="42.646194620766586" lon="11.32299583064148"><ele>274.0</ele><time>2026-03-22T10:10:22.999Z</time></trkpt><trkpt lat="42.64611528080717" lon="11.322860137568401"><ele>274.0</ele><time>2026-03-22T10:10:24.999Z</time></trkpt><trkpt lat="42.64601324922926" lon="11.32277515194167"><ele>273.75</ele><time>2026-03-22T10:10:25.999Z</time></trkpt><trkpt lat="42.64589726507709" lon="11.322684055914607"><ele>273.5</ele><time>2026-03-22T10:10:26.999Z</time></trkpt><trkpt lat="42.64575780516947" lon="11.322575429686573"><ele>273.25</ele><time>2026-03-22T10:10:27.999Z</time></trkpt><trkpt lat="42.64562755472036" lon="11.322475439435276"><ele>273.0</ele><time>2026-03-22T10:10:28.999Z</time></trkpt><trkpt lat="42.64550328688441" lon="11.322380041899336"><ele>273.0</ele><time>2026-03-22T10:10:29.999Z</time></trkpt><trkpt lat="42.6453863672395" lon="11.322291354298539"><ele>273.0</ele><time>2026-03-22T10:10:30.999Z</time></trkpt><trkpt lat="42.64526976828898" lon="11.322201070627987"><ele>273.0</ele><time>2026-03-22T10:10:31.999Z</time></trkpt><trkpt lat="42.64516838328711" lon="11.322122567266963"><ele>273.0</ele><time>2026-03-22T10:10:32.999Z</time></trkpt><trkpt lat="42.64508064735333" lon="11.322054632508891"><ele>271.8333333333333</ele><time>2026-03-22T10:10:33.999Z</time></trkpt><trkpt lat="42.64500935847059" lon="11.321992483798226"><ele>270.6666666666667</ele><time>2026-03-22T10:10:34.999Z</time></trkpt><trkpt lat="42.644952042318494" lon="11.321919090441149"><ele>269.5</ele><time>2026-03-22T10:10:35.999Z</time></trkpt><trkpt lat="42.644936417749335" lon="11.321804265428758"><ele>268.33333333333337</ele><time>2026-03-22T10:10:36.999Z</time></trkpt><trkpt lat="42.64491634540671" lon="11.321687626469908"><ele>267.1666666666667</ele><time>2026-03-22T10:10:37.999Z</time></trkpt><trkpt lat="42.644882007516266" lon="11.321569978539152"><ele>266.0</ele><time>2026-03-22T10:10:38.999Z</time></trkpt><trkpt lat="42.6448427929069" lon="11.321441467710285"><ele>267.75</ele><time>2026-03-22T10:10:39.999Z</time></trkpt><trkpt lat="42.64480206235172" lon="11.321300732851208"><ele>269.5</ele><time>2026-03-22T10:10:40.999Z</time></trkpt><trkpt lat="42.644768450759926" lon="11.321151324942425"><ele>271.25</ele><time>2026-03-22T10:10:41.999Z</time></trkpt><trkpt lat="42.64473534341593" lon="11.32099595703852"><ele>273.0</ele><time>2026-03-22T10:10:42.999Z</time></trkpt><trkpt lat="42.644697210415664" lon="11.320837271908083"><ele>273.0</ele><time>2026-03-22T10:10:43.999Z</time></trkpt><trkpt lat="42.64465591141247" lon="11.320673306240172"><ele>273.0</ele><time>2026-03-22T10:10:44.999Z</time></trkpt><trkpt lat="42.64461647847029" lon="11.320509068269017"><ele>273.0</ele><time>2026-03-22T10:10:45.999Z</time></trkpt><trkpt lat="42.64457812686176" lon="11.320337461565304"><ele>273.0</ele><time>2026-03-22T10:10:46.999Z</time></trkpt><trkpt lat="42.64453809686968" lon="11.320166858875979"><ele>275.75</ele><time>2026-03-22T10:10:47.999Z</time></trkpt><trkpt lat="42.64449891166814" lon="11.320000507805853"><ele>278.5</ele><time>2026-03-22T10:10:49Z</time></trkpt><trkpt lat="42.64445739447155" lon="11.31983701571042"><ele>281.25</ele><time>2026-03-22T10:10:50Z</time></trkpt><trkpt lat="42.64441454141314" lon="11.31967134780869"><ele>284.0</ele><time>2026-03-22T10:10:51Z</time></trkpt><trkpt lat="42.64437588261025" lon="11.319495578619245"><ele>279.5</ele><time>2026-03-22T10:10:52Z</time></trkpt><trkpt lat="42.64433797196184" lon="11.319315871551005"><ele>275.0</ele><time>2026-03-22T10:10:53Z</time></trkpt><trkpt lat="42.644301136498" lon="11.31913164243135"><ele>270.5</ele><time>2026-03-22T10:10:54Z</time></trkpt><trkpt lat="42.64426123762472" lon="11.318945044612123"><ele>266.0</ele><time>2026-03-22T10:10:55Z</time></trkpt><trkpt lat="42.64422174588084" lon="11.318755391436005"><ele>266.0</ele><time>2026-03-22T10:10:56Z</time></trkpt><trkpt lat="42.64418083526271" lon="11.318561889601398"><ele>266.0</ele><time>2026-03-22T10:10:57Z</time></trkpt><trkpt lat="42.64414035883608" lon="11.31836587757745"><ele>266.0</ele><time>2026-03-22T10:10:58Z</time></trkpt><trkpt lat="42.64410028784108" lon="11.318168508891128"><ele>266.0</ele><time>2026-03-22T10:10:59Z</time></trkpt><trkpt lat="42.64406655764737" lon="11.317972054267312"><ele>266.25</ele><time>2026-03-22T10:11:00Z</time></trkpt><trkpt lat="42.644041362122934" lon="11.317766568188308"><ele>266.5</ele><time>2026-03-22T10:11:01Z</time></trkpt><trkpt lat="42.644014904882596" lon="11.317582826205589"><ele>266.75</ele><time>2026-03-22T10:11:02Z</time></trkpt><trkpt lat="42.64399065220707" lon="11.317386937917748"><ele>267.0</ele><time>2026-03-22T10:11:03Z</time></trkpt><trkpt lat="42.643974943874156" lon="11.317194154896573"><ele>266.0</ele><time>2026-03-22T10:11:04Z</time></trkpt><trkpt lat="42.643991768870166" lon="11.317002568590128"><ele>265.0</ele><time>2026-03-22T10:11:05Z</time></trkpt><trkpt lat="42.644043641233026" lon="11.316818014118976"><ele>264.0</ele><time>2026-03-22T10:11:06Z</time></trkpt><trkpt lat="42.6441406951039" lon="11.316687285930554"><ele>263.0</ele><time>2026-03-22T10:11:07Z</time></trkpt><trkpt lat="42.64425156228564" lon="11.316536865082696"><ele>263.0</ele><time>2026-03-22T10:11:08Z</time></trkpt><trkpt lat="42.64435552381824" lon="11.316403563820687"><ele>263.0</ele><time>2026-03-22T10:11:09Z</time></trkpt><trkpt lat="42.64446436537152" lon="11.31627139184341"><ele>263.0</ele><time>2026-03-22T10:11:10Z</time></trkpt><trkpt lat="42.64456367225748" lon="11.31614296256431"><ele>263.0</ele><time>2026-03-22T10:11:11Z</time></trkpt><trkpt lat="42.64465101831692" lon="11.31600765051975"><ele>264.6</ele><time>2026-03-22T10:11:12Z</time></trkpt><trkpt lat="42.644718956800986" lon="11.315870626419654"><ele>266.20000000000005</ele><time>2026-03-22T10:11:13Z</time></trkpt><trkpt lat="42.64471276253086" lon="11.315720447517151"><ele>267.8</ele><time>2026-03-22T10:11:14Z</time></trkpt><trkpt lat="42.644659100506225" lon="11.315613288790876"><ele>269.40000000000003</ele><time>2026-03-22T10:11:15Z</time></trkpt><trkpt lat="42.64459791382721" lon="11.315507441109578"><ele>271.0</ele><time>2026-03-22T10:11:16Z</time></trkpt><trkpt lat="42.644519804947144" lon="11.315421825943414"><ele>272.75</ele><time>2026-03-22T10:11:17Z</time></trkpt><trkpt lat="42.64437000120137" lon="11.315403662435074"><ele>274.5</ele><time>2026-03-22T10:11:19Z</time></trkpt><trkpt lat="42.64426598782618" lon="11.315413199632141"><ele>276.25</ele><time>2026-03-22T10:11:20Z</time></trkpt><trkpt lat="42.64408476100031" lon="11.315421855782137"><ele>278.0</ele><time>2026-03-22T10:11:21Z</time></trkpt><trkpt lat="42.643931049300015" lon="11.31542919769345"><ele>278.0</ele><time>2026-03-22T10:11:22Z</time></trkpt><trkpt lat="42.643778496026364" lon="11.31545246202699"><ele>278.0</ele><time>2026-03-22T10:11:23Z</time></trkpt><trkpt lat="42.6436442646091" lon="11.315495634030075"><ele>278.0</ele><time>2026-03-22T10:11:24Z</time></trkpt><trkpt lat="42.643453241924576" lon="11.3155320586047"><ele>277.0</ele><time>2026-03-22T10:11:25Z</time></trkpt><trkpt lat="42.64327046643388" lon="11.315532163581103"><ele>276.0</ele><time>2026-03-22T10:11:26Z</time></trkpt><trkpt lat="42.64308735550138" lon="11.315495909400845"><ele>275.0</ele><time>2026-03-22T10:11:27Z</time></trkpt><trkpt lat="42.6429479878839" lon="11.315351255176525"><ele>275.0</ele><time>2026-03-22T10:11:28Z</time></trkpt><trkpt lat="42.642837984988496" lon="11.315212357575685"><ele>275.0</ele><time>2026-03-22T10:11:29Z</time></trkpt><trkpt lat="42.6427292190116" lon="11.315043893231369"><ele>275.0</ele><time>2026-03-22T10:11:30Z</time></trkpt><trkpt lat="42.6426309870505" lon="11.314872544593662"><ele>270.0</ele><time>2026-03-22T10:11:31Z</time></trkpt><trkpt lat="42.64253465322434" lon="11.314699937361464"><ele>265.0</ele><time>2026-03-22T10:11:32Z</time></trkpt><trkpt lat="42.642470043505874" lon="11.314524663281505"><ele>260.0</ele><time>2026-03-22T10:11:33Z</time></trkpt><trkpt lat="42.642486166908384" lon="11.314343139253502"><ele>255.0</ele><time>2026-03-22T10:11:34Z</time></trkpt><trkpt lat="42.64252495244109" lon="11.314193479761377"><ele>255.0</ele><time>2026-03-22T10:11:35Z</time></trkpt><trkpt lat="42.642617849902294" lon="11.314081181272334"><ele>255.0</ele><time>2026-03-22T10:11:36Z</time></trkpt><trkpt lat="42.64274211830454" lon="11.31402695837561"><ele>255.0</ele><time>2026-03-22T10:11:37Z</time></trkpt><trkpt lat="42.64287104421453" lon="11.313950997411217"><ele>255.0</ele><time>2026-03-22T10:11:38Z</time></trkpt><trkpt lat="42.64299617467418" lon="11.313894137464432"><ele>255.25</ele><time>2026-03-22T10:11:39Z</time></trkpt><trkpt lat="42.643129408561194" lon="11.313861537422412"><ele>255.5</ele><time>2026-03-22T10:11:40Z</time></trkpt><trkpt lat="42.64327951450384" lon="11.313847681673373"><ele>255.75</ele><time>2026-03-22T10:11:41Z</time></trkpt><trkpt lat="42.64343344032743" lon="11.313829096051032"><ele>256.0</ele><time>2026-03-22T10:11:42Z</time></trkpt><trkpt lat="42.643588588637485" lon="11.313778519359271"><ele>257.66666666666663</ele><time>2026-03-22T10:11:43Z</time></trkpt><trkpt lat="42.643740984303236" lon="11.31368051097141"><ele>259.3333333333333</ele><time>2026-03-22T10:11:44Z</time></trkpt><trkpt lat="42.64388983645023" lon="11.313571601459019"><ele>261.0</ele><time>2026-03-22T10:11:45Z</time></trkpt><trkpt lat="42.64403429163693" lon="11.313482324058844"><ele>261.0</ele><time>2026-03-22T10:11:46Z</time></trkpt><trkpt lat="42.64418301538036" lon="11.313394732917377"><ele>261.0</ele><time>2026-03-22T10:11:47Z</time></trkpt><trkpt lat="42.644326294347735" lon="11.313301479399946"><ele>261.0</ele><time>2026-03-22T10:11:48Z</time></trkpt><trkpt lat="42.6444529137282" lon="11.313228742679291"><ele>262.2</ele><time>2026-03-22T10:11:49Z</time></trkpt><trkpt lat="42.64456019160438" lon="11.31313518750912"><ele>263.40000000000003</ele><time>2026-03-22T10:11:50Z</time></trkpt><trkpt lat="42.64461565598037" lon="11.313014296631808"><ele>264.6</ele><time>2026-03-22T10:11:51Z</time></trkpt><trkpt lat="42.64462213481688" lon="11.3129174180382"><ele>265.8</ele><time>2026-03-22T10:11:51.999Z</time></trkpt><trkpt lat="42.64461262206039" lon="11.312825451231461"><ele>267.0</ele><time>2026-03-22T10:11:53.999Z</time></trkpt><trkpt lat="42.644532208196786" lon="11.312802833297052"><ele>266.25</ele><time>2026-03-22T10:11:54.999Z</time></trkpt><trkpt lat="42.644419567896016" lon="11.312747736276533"><ele>265.5</ele><time>2026-03-22T10:11:55.999Z</time></trkpt><trkpt lat="42.64432085110916" lon="11.312761455424225"><ele>264.75</ele><time>2026-03-22T10:11:56.999Z</time></trkpt><trkpt lat="42.644203859885906" lon="11.312729977518421"><ele>264.0</ele><time>2026-03-22T10:11:57.999Z</time></trkpt><trkpt lat="42.64408143222205" lon="11.312748114562012"><ele>264.0</ele><time>2026-03-22T10:11:58.999Z</time></trkpt><trkpt lat="42.64393963680307" lon="11.31276538964966"><ele>264.0</ele><time>2026-03-22T10:11:59.999Z</time></trkpt><trkpt lat="42.64375362931233" lon="11.312776879579355"><ele>264.0</ele><time>2026-03-22T10:12:00.999Z</time></trkpt><trkpt lat="42.64360909453744" lon="11.31273508066661"><ele>264.0</ele><time>2026-03-22T10:12:01.999Z</time></trkpt><trkpt lat="42.64344202456795" lon="11.312725104924937"><ele>264.0</ele><time>2026-03-22T10:12:02.999Z</time></trkpt><trkpt lat="42.643306939435256" lon="11.312705231853032"><ele>264.0</ele><time>2026-03-22T10:12:03.999Z</time></trkpt><trkpt lat="42.64316853695267" lon="11.31260377890131"><ele>264.0</ele><time>2026-03-22T10:12:04.999Z</time></trkpt><trkpt lat="42.64301285177537" lon="11.31252458848625"><ele>264.0</ele><time>2026-03-22T10:12:05.999Z</time></trkpt><trkpt lat="42.64289003906065" lon="11.312453903660753"><ele>264.0</ele><time>2026-03-22T10:12:06.999Z</time></trkpt><trkpt lat="42.64273512365251" lon="11.31239506269198"><ele>265.0</ele><time>2026-03-22T10:12:07.999Z</time></trkpt><trkpt lat="42.64260791946832" lon="11.312380628414056"><ele>266.0</ele><time>2026-03-22T10:12:08.999Z</time></trkpt><trkpt lat="42.64250441584241" lon="11.312339634197873"><ele>267.0</ele><time>2026-03-22T10:12:09.999Z</time></trkpt><trkpt lat="42.642427807881745" lon="11.312264564779431"><ele>268.0</ele><time>2026-03-22T10:12:10.999Z</time></trkpt><trkpt lat="42.64234238272804" lon="11.312057660888406"><ele>268.0</ele><time>2026-03-22T10:12:11.999Z</time></trkpt><trkpt lat="42.642276385914165" lon="11.311887203845764"><ele>268.0</ele><time>2026-03-22T10:12:12.999Z</time></trkpt><trkpt lat="42.642199113875215" lon="11.311766929811705"><ele>268.0</ele><time>2026-03-22T10:12:13.999Z</time></trkpt><trkpt lat="42.64209637192301" lon="11.31165920402857"><ele>268.0</ele><time>2026-03-22T10:12:14.999Z</time></trkpt><trkpt lat="42.64193749841483" lon="11.311629320378255"><ele>267.0</ele><time>2026-03-22T10:12:15.999Z</time></trkpt><trkpt lat="42.64177054966695" lon="11.311622038346576"><ele>266.0</ele><time>2026-03-22T10:12:16.999Z</time></trkpt><trkpt lat="42.64160971079282" lon="11.311603337484122"><ele>265.0</ele><time>2026-03-22T10:12:17.999Z</time></trkpt><trkpt lat="42.64145110082475" lon="11.311551520067304"><ele>265.0</ele><time>2026-03-22T10:12:18.999Z</time></trkpt><trkpt lat="42.64129096035086" lon="11.311517635851457"><ele>265.0</ele><time>2026-03-22T10:12:19.999Z</time></trkpt><trkpt lat="42.64112516482997" lon="11.311482555080206"><ele>265.0</ele><time>2026-03-22T10:12:20.999Z</time></trkpt><trkpt lat="42.64095739565096" lon="11.31144702669823"><ele>263.66666666666663</ele><time>2026-03-22T10:12:21.999Z</time></trkpt><trkpt lat="42.640789328200434" lon="11.311417656742812"><ele>262.3333333333333</ele><time>2026-03-22T10:12:22.999Z</time></trkpt><trkpt lat="42.640619649569395" lon="11.311366273060756"><ele>261.0</ele><time>2026-03-22T10:12:23.999Z</time></trkpt><trkpt lat="42.64044437263278" lon="11.311330927386825"><ele>259.6666666666667</ele><time>2026-03-22T10:12:24.999Z</time></trkpt><trkpt lat="42.6402767125964" lon="11.311296005404628"><ele>258.33333333333337</ele><time>2026-03-22T10:12:25.999Z</time></trkpt><trkpt lat="42.64011544935939" lon="11.31126271464087"><ele>257.0</ele><time>2026-03-22T10:12:26.999Z</time></trkpt><trkpt lat="42.63996082737346" lon="11.311257496081575"><ele>257.0</ele><time>2026-03-22T10:12:27.999Z</time></trkpt><trkpt lat="42.639802945147764" lon="11.311281681347669"><ele>257.0</ele><time>2026-03-22T10:12:28.999Z</time></trkpt><trkpt lat="42.63964599087198" lon="11.31136632024547"><ele>257.0</ele><time>2026-03-22T10:12:29.999Z</time></trkpt><trkpt lat="42.63951084685663" lon="11.31151718102435"><ele>259.0</ele><time>2026-03-22T10:12:30.999Z</time></trkpt><trkpt lat="42.63940890397625" lon="11.311721889041207"><ele>261.0</ele><time>2026-03-22T10:12:31.999Z</time></trkpt><trkpt lat="42.639323439992936" lon="11.31191423260678"><ele>263.0</ele><time>2026-03-22T10:12:32.999Z</time></trkpt><trkpt lat="42.639239340029036" lon="11.312114350574177"><ele>264.6666666666667</ele><time>2026-03-22T10:12:33.999Z</time></trkpt><trkpt lat="42.63915725188324" lon="11.312309046778457"><ele>266.3333333333333</ele><time>2026-03-22T10:12:34.999Z</time></trkpt><trkpt lat="42.639063496193536" lon="11.312488892060975"><ele>268.0</ele><time>2026-03-22T10:12:35.999Z</time></trkpt><trkpt lat="42.63893769738218" lon="11.312628754663962"><ele>268.0</ele><time>2026-03-22T10:12:36.999Z</time></trkpt><trkpt lat="42.6387959310555" lon="11.312763407412518"><ele>268.0</ele><time>2026-03-22T10:12:37.999Z</time></trkpt><trkpt lat="42.63864758705856" lon="11.312899760037928"><ele>268.0</ele><time>2026-03-22T10:12:38.999Z</time></trkpt><trkpt lat="42.63849893561798" lon="11.313038809687148"><ele>267.3333333333333</ele><time>2026-03-22T10:12:39.999Z</time></trkpt><trkpt lat="42.63835172302469" lon="11.313179425770482"><ele>266.6666666666667</ele><time>2026-03-22T10:12:40.999Z</time></trkpt><trkpt lat="42.638205063340806" lon="11.313320804061364"><ele>266.0</ele><time>2026-03-22T10:12:41.999Z</time></trkpt><trkpt lat="42.6380545371485" lon="11.313462219942586"><ele>266.0</ele><time>2026-03-22T10:12:42.999Z</time></trkpt><trkpt lat="42.63790831146354" lon="11.31360275823557"><ele>266.0</ele><time>2026-03-22T10:12:43.999Z</time></trkpt><trkpt lat="42.637765267660384" lon="11.313737549638981"><ele>266.0</ele><time>2026-03-22T10:12:44.999Z</time></trkpt><trkpt lat="42.63761932054976" lon="11.313860419753833"><ele>265.33333333333337</ele><time>2026-03-22T10:12:45.999Z</time></trkpt><trkpt lat="42.637466767355654" lon="11.313970462540164"><ele>264.6666666666667</ele><time>2026-03-22T10:12:46.999Z</time></trkpt><trkpt lat="42.63731116076433" lon="11.314071248335326"><ele>264.0</ele><time>2026-03-22T10:12:47.999Z</time></trkpt><trkpt lat="42.63715281577457" lon="11.31416289708958"><ele>264.0</ele><time>2026-03-22T10:12:48.999Z</time></trkpt><trkpt lat="42.63700482461921" lon="11.314250443462242"><ele>264.0</ele><time>2026-03-22T10:12:49.999Z</time></trkpt><trkpt lat="42.63686619435431" lon="11.314334760026387"><ele>264.0</ele><time>2026-03-22T10:12:50.999Z</time></trkpt><trkpt lat="42.63674529344575" lon="11.314397526075403"><ele>264.0</ele><time>2026-03-22T10:12:51.999Z</time></trkpt><trkpt lat="42.636615383118716" lon="11.314394543271474"><ele>263.0</ele><time>2026-03-22T10:12:52.999Z</time></trkpt><trkpt lat="42.63647346019092" lon="11.314357815851462"><ele>262.0</ele><time>2026-03-22T10:12:53.999Z</time></trkpt><trkpt lat="42.636337317035824" lon="11.314258912048775"><ele>261.0</ele><time>2026-03-22T10:12:55Z</time></trkpt><trkpt lat="42.63621049534069" lon="11.314123383818606"><ele>259.3333333333333</ele><time>2026-03-22T10:12:56Z</time></trkpt><trkpt lat="42.636127019320256" lon="11.313966536846138"><ele>257.66666666666663</ele><time>2026-03-22T10:12:57Z</time></trkpt><trkpt lat="42.636010392213976" lon="11.313828680312774"><ele>256.0</ele><time>2026-03-22T10:12:58Z</time></trkpt><trkpt lat="42.635849307967455" lon="11.313756941978546"><ele>256.0</ele><time>2026-03-22T10:12:59Z</time></trkpt><trkpt lat="42.635682510168074" lon="11.313769570832534"><ele>256.0</ele><time>2026-03-22T10:13:00Z</time></trkpt><trkpt lat="42.63553809776238" lon="11.313771761134541"><ele>256.0</ele><time>2026-03-22T10:13:01Z</time></trkpt><trkpt lat="42.63537602505515" lon="11.313776012810262"><ele>256.0</ele><time>2026-03-22T10:13:02Z</time></trkpt><trkpt lat="42.63521065778342" lon="11.31382047480699"><ele>256.0</ele><time>2026-03-22T10:13:03Z</time></trkpt><trkpt lat="42.63505143906903" lon="11.313890859027822"><ele>256.0</ele><time>2026-03-22T10:13:04Z</time></trkpt><trkpt lat="42.63488518527599" lon="11.313952119553534"><ele>256.3333333333333</ele><time>2026-03-22T10:13:05Z</time></trkpt><trkpt lat="42.6347280149387" lon="11.314035285121529"><ele>256.6666666666667</ele><time>2026-03-22T10:13:06Z</time></trkpt><trkpt lat="42.63454403989654" lon="11.314087997344672"><ele>257.0</ele><time>2026-03-22T10:13:07Z</time></trkpt><trkpt lat="42.63435733466108" lon="11.314094567217133"><ele>255.33333333333334</ele><time>2026-03-22T10:13:08Z</time></trkpt><trkpt lat="42.63416613665493" lon="11.314088335818537"><ele>253.66666666666669</ele><time>2026-03-22T10:13:09Z</time></trkpt><trkpt lat="42.63397808081151" lon="11.314106953788576"><ele>252.0</ele><time>2026-03-22T10:13:10Z</time></trkpt><trkpt lat="42.63378321014093" lon="11.31412236370143"><ele>251.33333333333331</ele><time>2026-03-22T10:13:11Z</time></trkpt><trkpt lat="42.633589469091845" lon="11.314154937444764"><ele>250.66666666666666</ele><time>2026-03-22T10:13:12Z</time></trkpt><trkpt lat="42.63338914644607" lon="11.314205585376364"><ele>250.0</ele><time>2026-03-22T10:13:13Z</time></trkpt><trkpt lat="42.63318904580516" lon="11.314275241288474"><ele>250.0</ele><time>2026-03-22T10:13:14Z</time></trkpt><trkpt lat="42.63300793774957" lon="11.314369221983014"><ele>250.0</ele><time>2026-03-22T10:13:15Z</time></trkpt><trkpt lat="42.632835713888966" lon="11.314503419894566"><ele>250.0</ele><time>2026-03-22T10:13:16Z</time></trkpt><trkpt lat="42.63266946516468" lon="11.31464283962469"><ele>248.33333333333331</ele><time>2026-03-22T10:13:17Z</time></trkpt><trkpt lat="42.63250588159537" lon="11.314794131302905"><ele>246.66666666666669</ele><time>2026-03-22T10:13:18Z</time></trkpt><trkpt lat="42.63233325731305" lon="11.314929208042042"><ele>245.0</ele><time>2026-03-22T10:13:19Z</time></trkpt><trkpt lat="42.63216157495444" lon="11.315010658290225"><ele>245.0</ele><time>2026-03-22T10:13:20Z</time></trkpt><trkpt lat="42.63199299978816" lon="11.31500786937311"><ele>245.0</ele><time>2026-03-22T10:13:21Z</time></trkpt><trkpt lat="42.6318370409423" lon="11.314936895711421"><ele>245.0</ele><time>2026-03-22T10:13:22Z</time></trkpt><trkpt lat="42.63168923291085" lon="11.314828979756578"><ele>245.0</ele><time>2026-03-22T10:13:23Z</time></trkpt><trkpt lat="42.631550046406446" lon="11.31476324388481"><ele>245.0</ele><time>2026-03-22T10:13:24Z</time></trkpt><trkpt lat="42.63139537467861" lon="11.314780749756288"><ele>245.0</ele><time>2026-03-22T10:13:25Z</time></trkpt><trkpt lat="42.63124414838407" lon="11.314849913329526"><ele>244.33333333333334</ele><time>2026-03-22T10:13:26Z</time></trkpt><trkpt lat="42.631082954813316" lon="11.314884216530368"><ele>243.66666666666669</ele><time>2026-03-22T10:13:27Z</time></trkpt><trkpt lat="42.63092608403728" lon="11.314864618693017"><ele>243.0</ele><time>2026-03-22T10:13:28Z</time></trkpt><trkpt lat="42.63076933374754" lon="11.314827738352221"><ele>243.0</ele><time>2026-03-22T10:13:29Z</time></trkpt><trkpt lat="42.6306104905736" lon="11.31477884950625"><ele>243.0</ele><time>2026-03-22T10:13:30Z</time></trkpt><trkpt lat="42.63044593655393" lon="11.314716141151637"><ele>243.0</ele><time>2026-03-22T10:13:31Z</time></trkpt><trkpt lat="42.63029641489889" lon="11.314650507856506"><ele>242.0</ele><time>2026-03-22T10:13:32Z</time></trkpt><trkpt lat="42.63014450894847" lon="11.314605441234537"><ele>241.0</ele><time>2026-03-22T10:13:33Z</time></trkpt><trkpt lat="42.62999600373671" lon="11.314597805923006"><ele>240.0</ele><time>2026-03-22T10:13:34Z</time></trkpt><trkpt lat="42.62985899570491" lon="11.314651650359501"><ele>239.0</ele><time>2026-03-22T10:13:35Z</time></trkpt><trkpt lat="42.62974170720641" lon="11.314770684995768"><ele>239.0</ele><time>2026-03-22T10:13:36Z</time></trkpt><trkpt lat="42.62964159722897" lon="11.314938809948085"><ele>239.0</ele><time>2026-03-22T10:13:37Z</time></trkpt><trkpt lat="42.62952405133964" lon="11.31510983860858"><ele>239.0</ele><time>2026-03-22T10:13:38Z</time></trkpt><trkpt lat="42.62939510232881" lon="11.315246746741272"><ele>237.5</ele><time>2026-03-22T10:13:39Z</time></trkpt><trkpt lat="42.62923964834824" lon="11.315303021164851"><ele>236.0</ele><time>2026-03-22T10:13:40Z</time></trkpt><trkpt lat="42.62909745578878" lon="11.31527960900951"><ele>234.5</ele><time>2026-03-22T10:13:41Z</time></trkpt><trkpt lat="42.628964588588616" lon="11.31524950864961"><ele>233.0</ele><time>2026-03-22T10:13:42Z</time></trkpt><trkpt lat="42.628857918538536" lon="11.31529708948734"><ele>233.0</ele><time>2026-03-22T10:13:43Z</time></trkpt><trkpt lat="42.62875378735048" lon="11.31540010896387"><ele>233.0</ele><time>2026-03-22T10:13:44Z</time></trkpt><trkpt lat="42.62868835603697" lon="11.315558653830536"><ele>233.0</ele><time>2026-03-22T10:13:45Z</time></trkpt><trkpt lat="42.628691614751006" lon="11.315701943122612"><ele>233.0</ele><time>2026-03-22T10:13:46Z</time></trkpt><trkpt lat="42.62871210945969" lon="11.315857907403835"><ele>234.0</ele><time>2026-03-22T10:13:47Z</time></trkpt><trkpt lat="42.62875292038859" lon="11.316011307649537"><ele>235.0</ele><time>2026-03-22T10:13:48Z</time></trkpt><trkpt lat="42.628826843575496" lon="11.316180181064135"><ele>236.0</ele><time>2026-03-22T10:13:49Z</time></trkpt><trkpt lat="42.628940436551154" lon="11.31632955336181"><ele>237.0</ele><time>2026-03-22T10:13:50Z</time></trkpt><trkpt lat="42.62905602084299" lon="11.316515136776566"><ele>236.0</ele><time>2026-03-22T10:13:51Z</time></trkpt><trkpt lat="42.62920903341852" lon="11.316687893663318"><ele>235.0</ele><time>2026-03-22T10:13:52Z</time></trkpt><trkpt lat="42.62935307794257" lon="11.316860460436768"><ele>234.0</ele><time>2026-03-22T10:13:53Z</time></trkpt><trkpt lat="42.629481839280615" lon="11.317059617407805"><ele>231.33333333333331</ele><time>2026-03-22T10:13:53.999Z</time></trkpt><trkpt lat="42.62958388085674" lon="11.317257075880526"><ele>228.66666666666666</ele><time>2026-03-22T10:13:54.999Z</time></trkpt><trkpt lat="42.629673114338395" lon="11.317465173797475"><ele>226.0</ele><time>2026-03-22T10:13:55.999Z</time></trkpt><trkpt lat="42.62972870842118" lon="11.31768756778672"><ele>226.0</ele><time>2026-03-22T10:13:56.999Z</time></trkpt><trkpt lat="42.629738717024495" lon="11.31790507558894"><ele>226.0</ele><time>2026-03-22T10:13:57.999Z</time></trkpt><trkpt lat="42.62969647824323" lon="11.318117533556228"><ele>226.0</ele><time>2026-03-22T10:13:58.999Z</time></trkpt><trkpt lat="42.62959776002458" lon="11.31829117563382"><ele>222.66666666666666</ele><time>2026-03-22T10:13:59.999Z</time></trkpt><trkpt lat="42.62948204484552" lon="11.318452835916034"><ele>219.33333333333331</ele><time>2026-03-22T10:14:00.999Z</time></trkpt><trkpt lat="42.62934520009685" lon="11.318568384836869"><ele>216.0</ele><time>2026-03-22T10:14:01.999Z</time></trkpt><trkpt lat="42.62919600286912" lon="11.318653809533801"><ele>215.33333333333331</ele><time>2026-03-22T10:14:02.999Z</time></trkpt><trkpt lat="42.629044729102425" lon="11.31868764600623"><ele>214.66666666666666</ele><time>2026-03-22T10:14:03.999Z</time></trkpt><trkpt lat="42.62887008004648" lon="11.31871957967209"><ele>214.0</ele><time>2026-03-22T10:14:04.999Z</time></trkpt><trkpt lat="42.62869031169048" lon="11.31875923066183"><ele>210.66666666666666</ele><time>2026-03-22T10:14:05.999Z</time></trkpt><trkpt lat="42.62850802250392" lon="11.31879728826692"><ele>207.33333333333331</ele><time>2026-03-22T10:14:06.999Z</time></trkpt><trkpt lat="42.62832916329964" lon="11.31881257597137"><ele>204.0</ele><time>2026-03-22T10:14:07.999Z</time></trkpt><trkpt lat="42.62815195632924" lon="11.318861481589776"><ele>206.66666666666669</ele><time>2026-03-22T10:14:08.999Z</time></trkpt><trkpt lat="42.62797838999811" lon="11.318958331405343"><ele>209.33333333333334</ele><time>2026-03-22T10:14:09.999Z</time></trkpt><trkpt lat="42.62779631961672" lon="11.319054113446528"><ele>212.0</ele><time>2026-03-22T10:14:10.999Z</time></trkpt><trkpt lat="42.627622801334546" lon="11.319116489212375"><ele>212.0</ele><time>2026-03-22T10:14:11.999Z</time></trkpt><trkpt lat="42.62747045432517" lon="11.319151734754978"><ele>212.0</ele><time>2026-03-22T10:14:12.999Z</time></trkpt><trkpt lat="42.62733244193458" lon="11.31922372260852"><ele>212.0</ele><time>2026-03-22T10:14:13.999Z</time></trkpt><trkpt lat="42.627173536563895" lon="11.319258378808437"><ele>212.0</ele><time>2026-03-22T10:14:14.999Z</time></trkpt><trkpt lat="42.62700190604263" lon="11.319266709441722"><ele>212.0</ele><time>2026-03-22T10:14:15.999Z</time></trkpt><trkpt lat="42.62682866416611" lon="11.31926348733631"><ele>212.0</ele><time>2026-03-22T10:14:16.999Z</time></trkpt><trkpt lat="42.62665871648668" lon="11.319253117541598"><ele>209.33333333333334</ele><time>2026-03-22T10:14:17.999Z</time></trkpt><trkpt lat="42.62649370523016" lon="11.31922790255934"><ele>206.66666666666669</ele><time>2026-03-22T10:14:18.999Z</time></trkpt><trkpt lat="42.626324736426916" lon="11.319184499207442"><ele>204.0</ele><time>2026-03-22T10:14:19.999Z</time></trkpt><trkpt lat="42.6261554780068" lon="11.319125576675729"><ele>204.0</ele><time>2026-03-22T10:14:20.999Z</time></trkpt><trkpt lat="42.625994297634826" lon="11.319035155548509"><ele>204.0</ele><time>2026-03-22T10:14:21.999Z</time></trkpt><trkpt lat="42.62583867603699" lon="11.3189286585732"><ele>204.0</ele><time>2026-03-22T10:14:22.999Z</time></trkpt><trkpt lat="42.62568999896775" lon="11.318797405658943"><ele>202.0</ele><time>2026-03-22T10:14:23.999Z</time></trkpt><trkpt lat="42.62554720890073" lon="11.31862790289659"><ele>200.0</ele><time>2026-03-22T10:14:24.999Z</time></trkpt><trkpt lat="42.62541213030561" lon="11.318461929934221"><ele>198.0</ele><time>2026-03-22T10:14:25.999Z</time></trkpt><trkpt lat="42.625266964462604" lon="11.318327666655327"><ele>198.0</ele><time>2026-03-22T10:14:26.999Z</time></trkpt><trkpt lat="42.6251072098954" lon="11.31821907261357"><ele>198.0</ele><time>2026-03-22T10:14:27.999Z</time></trkpt><trkpt lat="42.62493901678337" lon="11.318128830581593"><ele>198.0</ele><time>2026-03-22T10:14:28.999Z</time></trkpt><trkpt lat="42.62476896973153" lon="11.318051257769623"><ele>195.0</ele><time>2026-03-22T10:14:29.999Z</time></trkpt><trkpt lat="42.62459418860667" lon="11.317976160389021"><ele>192.0</ele><time>2026-03-22T10:14:30.999Z</time></trkpt><trkpt lat="42.62442353328528" lon="11.317907438780717"><ele>189.0</ele><time>2026-03-22T10:14:31.999Z</time></trkpt><trkpt lat="42.62425140683861" lon="11.317854465643753"><ele>189.0</ele><time>2026-03-22T10:14:32.999Z</time></trkpt><trkpt lat="42.624084748171676" lon="11.317835483543224"><ele>189.0</ele><time>2026-03-22T10:14:33.999Z</time></trkpt><trkpt lat="42.62392522074422" lon="11.317875794834823"><ele>189.0</ele><time>2026-03-22T10:14:34.999Z</time></trkpt><trkpt lat="42.62378017648635" lon="11.317981325798979"><ele>189.33333333333334</ele><time>2026-03-22T10:14:35.999Z</time></trkpt><trkpt lat="42.62365168308022" lon="11.318151315863277"><ele>189.66666666666669</ele><time>2026-03-22T10:14:36.999Z</time></trkpt><trkpt lat="42.62353121177742" lon="11.318326628485748"><ele>190.0</ele><time>2026-03-22T10:14:37.999Z</time></trkpt><trkpt lat="42.62337872036064" lon="11.31848898808802"><ele>190.0</ele><time>2026-03-22T10:14:38.999Z</time></trkpt><trkpt lat="42.62321263773917" lon="11.318620716760336"><ele>190.0</ele><time>2026-03-22T10:14:39.999Z</time></trkpt><trkpt lat="42.6230524068982" lon="11.318711273843636"><ele>190.0</ele><time>2026-03-22T10:14:40.999Z</time></trkpt><trkpt lat="42.62289275279293" lon="11.318795573260887"><ele>187.33333333333334</ele><time>2026-03-22T10:14:41.999Z</time></trkpt><trkpt lat="42.62274837320783" lon="11.318863958147134"><ele>184.66666666666666</ele><time>2026-03-22T10:14:42.999Z</time></trkpt><trkpt lat="42.62259727679056" lon="11.318894262131295"><ele>182.0</ele><time>2026-03-22T10:14:43.999Z</time></trkpt><trkpt lat="42.62245067633195" lon="11.318862573735093"><ele>182.0</ele><time>2026-03-22T10:14:44.999Z</time></trkpt><trkpt lat="42.62231783456392" lon="11.31876917211842"><ele>182.0</ele><time>2026-03-22T10:14:45.999Z</time></trkpt><trkpt lat="42.622224373486645" lon="11.31862393128056"><ele>182.0</ele><time>2026-03-22T10:14:46.999Z</time></trkpt><trkpt lat="42.622177113996756" lon="11.318456589280165"><ele>182.0</ele><time>2026-03-22T10:14:47.999Z</time></trkpt><trkpt lat="42.62211767024149" lon="11.318265335997788"><ele>181.0</ele><time>2026-03-22T10:14:48.999Z</time></trkpt><trkpt lat="42.62205736606597" lon="11.318065320943859"><ele>180.0</ele><time>2026-03-22T10:14:49.999Z</time></trkpt><trkpt lat="42.62197444077431" lon="11.317821157503605"><ele>179.0</ele><time>2026-03-22T10:14:50.999Z</time></trkpt><trkpt lat="42.621912164217036" lon="11.317594449875"><ele>181.66666666666666</ele><time>2026-03-22T10:14:51.999Z</time></trkpt><trkpt lat="42.621861835999134" lon="11.317328978242719"><ele>184.33333333333334</ele><time>2026-03-22T10:14:52.999Z</time></trkpt><trkpt lat="42.62179878993829" lon="11.31709980881006"><ele>187.0</ele><time>2026-03-22T10:14:53.999Z</time></trkpt><trkpt lat="42.62173209267788" lon="11.316791481615843"><ele>187.0</ele><time>2026-03-22T10:14:54.999Z</time></trkpt><trkpt lat="42.62165031701597" lon="11.31653024667189"><ele>187.0</ele><time>2026-03-22T10:14:55.999Z</time></trkpt><trkpt lat="42.62155661302621" lon="11.316284778251434"><ele>187.0</ele><time>2026-03-22T10:14:56.999Z</time></trkpt><trkpt lat="42.62146729862826" lon="11.316039199415698"><ele>186.33333333333334</ele><time>2026-03-22T10:14:57.999Z</time></trkpt><trkpt lat="42.62137570372804" lon="11.315817301351489"><ele>185.66666666666666</ele><time>2026-03-22T10:14:58.999Z</time></trkpt><trkpt lat="42.62128941526982" lon="11.315569983371173"><ele>185.0</ele><time>2026-03-22T10:14:59.999Z</time></trkpt><trkpt lat="42.621192317870715" lon="11.315335315833297"><ele>185.0</ele><time>2026-03-22T10:15:01Z</time></trkpt><trkpt lat="42.621096293393336" lon="11.315078536041657"><ele>185.0</ele><time>2026-03-22T10:15:02Z</time></trkpt><trkpt lat="42.6209937754646" lon="11.314859006724996"><ele>185.0</ele><time>2026-03-22T10:15:03Z</time></trkpt><trkpt lat="42.62088204288242" lon="11.314652450387761"><ele>185.0</ele><time>2026-03-22T10:15:04Z</time></trkpt><trkpt lat="42.62077843637057" lon="11.314439996728355"><ele>185.0</ele><time>2026-03-22T10:15:05Z</time></trkpt><trkpt lat="42.620680046933415" lon="11.314209012865133"><ele>185.0</ele><time>2026-03-22T10:15:06Z</time></trkpt><trkpt lat="42.62057811881335" lon="11.31398573266967"><ele>184.33333333333331</ele><time>2026-03-22T10:15:07Z</time></trkpt><trkpt lat="42.62046411157453" lon="11.313784802859724"><ele>183.66666666666666</ele><time>2026-03-22T10:15:08Z</time></trkpt><trkpt lat="42.620327374519285" lon="11.313613696148675"><ele>183.0</ele><time>2026-03-22T10:15:09Z</time></trkpt><trkpt lat="42.62015707720816" lon="11.313481174490875"><ele>182.0</ele><time>2026-03-22T10:15:10Z</time></trkpt><trkpt lat="42.619971513433335" lon="11.313377400843033"><ele>181.0</ele><time>2026-03-22T10:15:11Z</time></trkpt><trkpt lat="42.61978188345302" lon="11.313293371938556"><ele>180.0</ele><time>2026-03-22T10:15:12Z</time></trkpt><trkpt lat="42.61959456734927" lon="11.313205297594111"><ele>180.66666666666666</ele><time>2026-03-22T10:15:13Z</time></trkpt><trkpt lat="42.619413771930894" lon="11.313098922009729"><ele>181.33333333333331</ele><time>2026-03-22T10:15:14Z</time></trkpt><trkpt lat="42.61923445659757" lon="11.312976544060271"><ele>182.0</ele><time>2026-03-22T10:15:15Z</time></trkpt><trkpt lat="42.619061233147804" lon="11.312847079485863"><ele>183.33333333333331</ele><time>2026-03-22T10:15:16Z</time></trkpt><trkpt lat="42.61889267841639" lon="11.31271090703192"><ele>184.66666666666666</ele><time>2026-03-22T10:15:17Z</time></trkpt><trkpt lat="42.61872551047866" lon="11.312566092073771"><ele>186.0</ele><time>2026-03-22T10:15:18Z</time></trkpt><trkpt lat="42.61856220913345" lon="11.312407190907274"><ele>186.66666666666666</ele><time>2026-03-22T10:15:19Z</time></trkpt><trkpt lat="42.61839186896944" lon="11.312246504065671"><ele>187.33333333333331</ele><time>2026-03-22T10:15:20Z</time></trkpt><trkpt lat="42.618219657968766" lon="11.312090950779904"><ele>188.0</ele><time>2026-03-22T10:15:21Z</time></trkpt><trkpt lat="42.61804500298729" lon="11.311939018471412"><ele>184.66666666666666</ele><time>2026-03-22T10:15:22Z</time></trkpt><trkpt lat="42.617871725033076" lon="11.311784115406814"><ele>181.33333333333334</ele><time>2026-03-22T10:15:23Z</time></trkpt><trkpt lat="42.617703212301166" lon="11.311648409781997"><ele>178.0</ele><time>2026-03-22T10:15:24Z</time></trkpt><trkpt lat="42.61754125896224" lon="11.311514835673186"><ele>176.0</ele><time>2026-03-22T10:15:25Z</time></trkpt><trkpt lat="42.617387999238915" lon="11.311372938255422"><ele>174.0</ele><time>2026-03-22T10:15:26Z</time></trkpt><trkpt lat="42.61724395169333" lon="11.311222414828881"><ele>172.0</ele><time>2026-03-22T10:15:27Z</time></trkpt><trkpt lat="42.61712777990093" lon="11.311052190612967"><ele>172.0</ele><time>2026-03-22T10:15:28Z</time></trkpt><trkpt lat="42.61705589787376" lon="11.310845132025442"><ele>172.0</ele><time>2026-03-22T10:15:29Z</time></trkpt><trkpt lat="42.61702190143317" lon="11.31062110695774"><ele>172.0</ele><time>2026-03-22T10:15:30Z</time></trkpt><trkpt lat="42.61704629670793" lon="11.310369150927114"><ele>169.33333333333334</ele><time>2026-03-22T10:15:31Z</time></trkpt><trkpt lat="42.61711088545833" lon="11.310139329329527"><ele>166.66666666666666</ele><time>2026-03-22T10:15:32Z</time></trkpt><trkpt lat="42.61722466251344" lon="11.309942248467044"><ele>164.0</ele><time>2026-03-22T10:15:33Z</time></trkpt><trkpt lat="42.61736329244592" lon="11.30978118442554"><ele>164.33333333333331</ele><time>2026-03-22T10:15:34Z</time></trkpt><trkpt lat="42.61750460126726" lon="11.309640710306368"><ele>164.66666666666666</ele><time>2026-03-22T10:15:35Z</time></trkpt><trkpt lat="42.617629846107675" lon="11.309490953889323"><ele>165.0</ele><time>2026-03-22T10:15:36Z</time></trkpt><trkpt lat="42.61772401104315" lon="11.309299912807493"><ele>165.0</ele><time>2026-03-22T10:15:37Z</time></trkpt><trkpt lat="42.61779126522251" lon="11.309086246990544"><ele>165.0</ele><time>2026-03-22T10:15:38Z</time></trkpt><trkpt lat="42.617820649795874" lon="11.308883993751424"><ele>165.0</ele><time>2026-03-22T10:15:39Z</time></trkpt><trkpt lat="42.617836369286735" lon="11.308676536948452"><ele>156.33333333333334</ele><time>2026-03-22T10:15:40Z</time></trkpt><trkpt lat="42.61793361326462" lon="11.308556797617001"><ele>147.66666666666669</ele><time>2026-03-22T10:15:41Z</time></trkpt><trkpt lat="42.61787343597232" lon="11.308326564395445"><ele>139.0</ele><time>2026-03-22T10:15:42Z</time></trkpt><trkpt lat="42.617858375101505" lon="11.308129411142597"><ele>135.66666666666669</ele><time>2026-03-22T10:15:43Z</time></trkpt><trkpt lat="42.617579225377575" lon="11.308043289354853"><ele>132.33333333333334</ele><time>2026-03-22T10:15:44Z</time></trkpt><trkpt lat="42.61744882771944" lon="11.307962008788449"><ele>129.0</ele><time>2026-03-22T10:15:45Z</time></trkpt><trkpt lat="42.617288336168514" lon="11.307981658870604"><ele>129.0</ele><time>2026-03-22T10:15:46Z</time></trkpt><trkpt lat="42.617116272219526" lon="11.308027449647485"><ele>129.0</ele><time>2026-03-22T10:15:47Z</time></trkpt><trkpt lat="42.61694037537464" lon="11.308100920510492"><ele>129.0</ele><time>2026-03-22T10:15:48Z</time></trkpt><trkpt lat="42.61676035252516" lon="11.308182300811982"><ele>136.0</ele><time>2026-03-22T10:15:49Z</time></trkpt><trkpt lat="42.61659921368637" lon="11.308301935247004"><ele>143.0</ele><time>2026-03-22T10:15:50Z</time></trkpt><trkpt lat="42.616424556348505" lon="11.308516386560914"><ele>150.0</ele><time>2026-03-22T10:15:51Z</time></trkpt><trkpt lat="42.61622243591471" lon="11.308668352203753"><ele>150.66666666666666</ele><time>2026-03-22T10:15:52Z</time></trkpt><trkpt lat="42.61601418074535" lon="11.308731383577632"><ele>151.33333333333331</ele><time>2026-03-22T10:15:53Z</time></trkpt><trkpt lat="42.615829428284925" lon="11.308743000423823"><ele>152.0</ele><time>2026-03-22T10:15:54Z</time></trkpt><trkpt lat="42.6156867275121" lon="11.308686797434381"><ele>152.0</ele><time>2026-03-22T10:15:55Z</time></trkpt><trkpt lat="42.61556855270525" lon="11.308586620878998"><ele>152.0</ele><time>2026-03-22T10:15:56Z</time></trkpt><trkpt lat="42.61557077122112" lon="11.308429219482592"><ele>152.0</ele><time>2026-03-22T10:15:57Z</time></trkpt><trkpt lat="42.61566563332136" lon="11.308280938580713"><ele>152.0</ele><time>2026-03-22T10:15:58Z</time></trkpt><trkpt lat="42.61577985608776" lon="11.308170311644934"><ele>152.0</ele><time>2026-03-22T10:15:59Z</time></trkpt><trkpt lat="42.61591228425269" lon="11.308074441457187"><ele>152.0</ele><time>2026-03-22T10:16:00Z</time></trkpt><trkpt lat="42.61603608867348" lon="11.3079432683241"><ele>152.0</ele><time>2026-03-22T10:16:01Z</time></trkpt><trkpt lat="42.616168754832366" lon="11.307768038329652"><ele>146.33333333333331</ele><time>2026-03-22T10:16:02Z</time></trkpt><trkpt lat="42.61625961440549" lon="11.30756868823336"><ele>140.66666666666666</ele><time>2026-03-22T10:16:03Z</time></trkpt><trkpt lat="42.61632691219107" lon="11.307358162166997"><ele>135.0</ele><time>2026-03-22T10:16:03.999Z</time></trkpt><trkpt lat="42.61638450379001" lon="11.30712670840064"><ele>130.66666666666666</ele><time>2026-03-22T10:16:04.999Z</time></trkpt><trkpt lat="42.616409843415276" lon="11.306897238308407"><ele>126.33333333333333</ele><time>2026-03-22T10:16:05.999Z</time></trkpt><trkpt lat="42.61641469758424" lon="11.30668335316867"><ele>122.0</ele><time>2026-03-22T10:16:06.999Z</time></trkpt><trkpt lat="42.61638101158528" lon="11.306443561139321"><ele>122.75</ele><time>2026-03-22T10:16:07.999Z</time></trkpt><trkpt lat="42.61632253893084" lon="11.30623534275763"><ele>123.5</ele><time>2026-03-22T10:16:08.999Z</time></trkpt><trkpt lat="42.6162129506979" lon="11.306116928206333"><ele>124.25</ele><time>2026-03-22T10:16:09.999Z</time></trkpt><trkpt lat="42.61608133442057" lon="11.306072313671583"><ele>125.0</ele><time>2026-03-22T10:16:10.999Z</time></trkpt><trkpt lat="42.615953380075325" lon="11.30597815887392"><ele>125.0</ele><time>2026-03-22T10:16:11.999Z</time></trkpt><trkpt lat="42.615807620308516" lon="11.305879610348658"><ele>125.0</ele><time>2026-03-22T10:16:12.999Z</time></trkpt><trkpt lat="42.615652855685916" lon="11.305791442055128"><ele>125.0</ele><time>2026-03-22T10:16:13.999Z</time></trkpt><trkpt lat="42.61550165916876" lon="11.305670842382597"><ele>122.66666666666666</ele><time>2026-03-22T10:16:14.999Z</time></trkpt><trkpt lat="42.61532931286185" lon="11.305521472028211"><ele>120.33333333333334</ele><time>2026-03-22T10:16:15.999Z</time></trkpt><trkpt lat="42.6151690729482" lon="11.305385640222939"><ele>118.0</ele><time>2026-03-22T10:16:16.999Z</time></trkpt><trkpt lat="42.61499180943069" lon="11.30523596933471"><ele>118.0</ele><time>2026-03-22T10:16:17.999Z</time></trkpt><trkpt lat="42.614828424029206" lon="11.305112935151445"><ele>118.0</ele><time>2026-03-22T10:16:18.999Z</time></trkpt><trkpt lat="42.614668346967946" lon="11.305016157271721"><ele>118.0</ele><time>2026-03-22T10:16:19.999Z</time></trkpt><trkpt lat="42.614519617124614" lon="11.30496427034514"><ele>119.66666666666667</ele><time>2026-03-22T10:16:20.999Z</time></trkpt><trkpt lat="42.614334560185995" lon="11.304945741078239"><ele>121.33333333333334</ele><time>2026-03-22T10:16:21.999Z</time></trkpt><trkpt lat="42.61411212967246" lon="11.304899548644915"><ele>123.0</ele><time>2026-03-22T10:16:22.999Z</time></trkpt><trkpt lat="42.61391493555379" lon="11.304831610872325"><ele>119.33333333333334</ele><time>2026-03-22T10:16:23.999Z</time></trkpt><trkpt lat="42.61371706430703" lon="11.304735483367923"><ele>115.66666666666667</ele><time>2026-03-22T10:16:24.999Z</time></trkpt><trkpt lat="42.6135230438993" lon="11.30462259847772"><ele>112.0</ele><time>2026-03-22T10:16:25.999Z</time></trkpt><trkpt lat="42.61333036984722" lon="11.304490751674386"><ele>112.0</ele><time>2026-03-22T10:16:26.999Z</time></trkpt><trkpt lat="42.61316279479145" lon="11.304356320073122"><ele>112.0</ele><time>2026-03-22T10:16:27.999Z</time></trkpt><trkpt lat="42.61299251960714" lon="11.304213966224125"><ele>112.0</ele><time>2026-03-22T10:16:28.999Z</time></trkpt><trkpt lat="42.61281993799143" lon="11.30402959426967"><ele>110.33333333333334</ele><time>2026-03-22T10:16:29.999Z</time></trkpt><trkpt lat="42.612654839577544" lon="11.303876876287895"><ele>108.66666666666666</ele><time>2026-03-22T10:16:30.999Z</time></trkpt><trkpt lat="42.61250627536899" lon="11.303698328726178"><ele>107.0</ele><time>2026-03-22T10:16:31.999Z</time></trkpt><trkpt lat="42.612371984224815" lon="11.303505851851947"><ele>107.0</ele><time>2026-03-22T10:16:32.999Z</time></trkpt><trkpt lat="42.61224854344681" lon="11.30328234670059"><ele>107.0</ele><time>2026-03-22T10:16:33.999Z</time></trkpt><trkpt lat="42.61214355926044" lon="11.303048341283116"><ele>107.0</ele><time>2026-03-22T10:16:34.999Z</time></trkpt><trkpt lat="42.61204653423533" lon="11.302793482879174"><ele>108.33333333333333</ele><time>2026-03-22T10:16:35.999Z</time></trkpt><trkpt lat="42.61197429496452" lon="11.302512057774809"><ele>109.66666666666666</ele><time>2026-03-22T10:16:36.999Z</time></trkpt><trkpt lat="42.61191559453775" lon="11.302233456533"><ele>111.0</ele><time>2026-03-22T10:16:37.999Z</time></trkpt><trkpt lat="42.611868861114075" lon="11.301968104534938"><ele>107.0</ele><time>2026-03-22T10:16:38.999Z</time></trkpt><trkpt lat="42.61180851508403" lon="11.301717235090601"><ele>103.0</ele><time>2026-03-22T10:16:39.999Z</time></trkpt><trkpt lat="42.61172642693069" lon="11.30149986565048"><ele>99.0</ele><time>2026-03-22T10:16:40.999Z</time></trkpt><trkpt lat="42.61159760728629" lon="11.301323555772713"><ele>94.66666666666667</ele><time>2026-03-22T10:16:41.999Z</time></trkpt><trkpt lat="42.61147363598859" lon="11.301149823038324"><ele>90.33333333333334</ele><time>2026-03-22T10:16:42.999Z</time></trkpt><trkpt lat="42.61135625475498" lon="11.3009540909175"><ele>86.0</ele><time>2026-03-22T10:16:43.999Z</time></trkpt><trkpt lat="42.61122762459449" lon="11.300708169188137"><ele>85.0</ele><time>2026-03-22T10:16:44.999Z</time></trkpt><trkpt lat="42.61107508007375" lon="11.30049412871184"><ele>84.0</ele><time>2026-03-22T10:16:45.999Z</time></trkpt><trkpt lat="42.610885886134376" lon="11.300323169593902"><ele>83.0</ele><time>2026-03-22T10:16:46.999Z</time></trkpt><trkpt lat="42.6106835033681" lon="11.300189058914514"><ele>83.0</ele><time>2026-03-22T10:16:47.999Z</time></trkpt><trkpt lat="42.610468343022426" lon="11.300152867446569"><ele>83.0</ele><time>2026-03-22T10:16:48.999Z</time></trkpt><trkpt lat="42.610270350788426" lon="11.30005289056339"><ele>83.0</ele><time>2026-03-22T10:16:49.999Z</time></trkpt><trkpt lat="42.61006610499128" lon="11.299966049859803"><ele>83.33333333333334</ele><time>2026-03-22T10:16:50.999Z</time></trkpt><trkpt lat="42.60989434036481" lon="11.299874639428882"><ele>83.66666666666667</ele><time>2026-03-22T10:16:51.999Z</time></trkpt><trkpt lat="42.609687230344385" lon="11.299795212340825"><ele>84.0</ele><time>2026-03-22T10:16:52.999Z</time></trkpt><trkpt lat="42.6094720394886" lon="11.299805571894487"><ele>81.0</ele><time>2026-03-22T10:16:53.999Z</time></trkpt><trkpt lat="42.60925931942536" lon="11.299692048523507"><ele>78.0</ele><time>2026-03-22T10:16:54.999Z</time></trkpt><trkpt lat="42.60905891894887" lon="11.299567151521341"><ele>75.0</ele><time>2026-03-22T10:16:55.999Z</time></trkpt><trkpt lat="42.6089261557841" lon="11.299577318973782"><ele>75.0</ele><time>2026-03-22T10:16:56.999Z</time></trkpt><trkpt lat="42.60876035762113" lon="11.299509909299358"><ele>75.0</ele><time>2026-03-22T10:16:57.999Z</time></trkpt><trkpt lat="42.608588369243236" lon="11.299456509226331"><ele>75.0</ele><time>2026-03-22T10:16:58.999Z</time></trkpt><trkpt lat="42.60841130128553" lon="11.299335691669564"><ele>75.33333333333333</ele><time>2026-03-22T10:16:59.999Z</time></trkpt><trkpt lat="42.60824553722627" lon="11.299148775483804"><ele>75.66666666666666</ele><time>2026-03-22T10:17:00.999Z</time></trkpt><trkpt lat="42.6080771555359" lon="11.29899582813488"><ele>76.0</ele><time>2026-03-22T10:17:01.999Z</time></trkpt><trkpt lat="42.60792106191065" lon="11.298828343995812"><ele>75.33333333333333</ele><time>2026-03-22T10:17:02.999Z</time></trkpt><trkpt lat="42.60776454753128" lon="11.298646579119893"><ele>74.66666666666667</ele><time>2026-03-22T10:17:03.999Z</time></trkpt><trkpt lat="42.60762700994433" lon="11.29844297684279"><ele>74.0</ele><time>2026-03-22T10:17:04.999Z</time></trkpt><trkpt lat="42.60748458949864" lon="11.29824765015062"><ele>75.66666666666667</ele><time>2026-03-22T10:17:05.999Z</time></trkpt><trkpt lat="42.60735259215689" lon="11.29806697883394"><ele>77.33333333333333</ele><time>2026-03-22T10:17:07Z</time></trkpt><trkpt lat="42.60722576504862" lon="11.297893502371302"><ele>79.0</ele><time>2026-03-22T10:17:08Z</time></trkpt><trkpt lat="42.60710361052511" lon="11.297724500715708"><ele>80.0</ele><time>2026-03-22T10:17:09Z</time></trkpt><trkpt lat="42.606990497268605" lon="11.297576308864906"><ele>81.0</ele><time>2026-03-22T10:17:10Z</time></trkpt><trkpt lat="42.60690459826134" lon="11.297399450087777"><ele>82.0</ele><time>2026-03-22T10:17:11Z</time></trkpt><trkpt lat="42.6068055098526" lon="11.297222622123776"><ele>82.0</ele><time>2026-03-22T10:17:12Z</time></trkpt><trkpt lat="42.60668262104756" lon="11.297053180300255"><ele>82.0</ele><time>2026-03-22T10:17:13Z</time></trkpt><trkpt lat="42.606555795981365" lon="11.296892445165307"><ele>82.0</ele><time>2026-03-22T10:17:14Z</time></trkpt><trkpt lat="42.60643315518966" lon="11.296731077127337"><ele>82.0</ele><time>2026-03-22T10:17:15Z</time></trkpt><trkpt lat="42.60629949096832" lon="11.296584383937962"><ele>82.0</ele><time>2026-03-22T10:17:16Z</time></trkpt><trkpt lat="42.6061471303703" lon="11.296462233063776"><ele>82.0</ele><time>2026-03-22T10:17:17Z</time></trkpt><trkpt lat="42.60597737033435" lon="11.296373769492535"><ele>84.66666666666666</ele><time>2026-03-22T10:17:18Z</time></trkpt><trkpt lat="42.60580599987288" lon="11.296285853689751"><ele>87.33333333333333</ele><time>2026-03-22T10:17:19Z</time></trkpt><trkpt lat="42.60564126005143" lon="11.29617606188852"><ele>90.0</ele><time>2026-03-22T10:17:20Z</time></trkpt><trkpt lat="42.60549893755027" lon="11.296020387248873"><ele>90.0</ele><time>2026-03-22T10:17:21Z</time></trkpt><trkpt lat="42.60536939156707" lon="11.295841274649922"><ele>90.0</ele><time>2026-03-22T10:17:22Z</time></trkpt><trkpt lat="42.60526055659159" lon="11.295646803639055"><ele>90.0</ele><time>2026-03-22T10:17:23Z</time></trkpt><trkpt lat="42.6051797375838" lon="11.29542366618164"><ele>89.33333333333333</ele><time>2026-03-22T10:17:24Z</time></trkpt><trkpt lat="42.60510603715161" lon="11.29520417230418"><ele>88.66666666666666</ele><time>2026-03-22T10:17:25Z</time></trkpt><trkpt lat="42.60502646256712" lon="11.294989908921478"><ele>88.0</ele><time>2026-03-22T10:17:26Z</time></trkpt><trkpt lat="42.60494111548397" lon="11.294769930521948"><ele>89.66666666666666</ele><time>2026-03-22T10:17:27Z</time></trkpt><trkpt lat="42.60485291905654" lon="11.29455236013727"><ele>91.33333333333333</ele><time>2026-03-22T10:17:28Z</time></trkpt><trkpt lat="42.60476632751407" lon="11.294324545890104"><ele>93.0</ele><time>2026-03-22T10:17:29Z</time></trkpt><trkpt lat="42.60468723585213" lon="11.294096420561603"><ele>94.0</ele><time>2026-03-22T10:17:30Z</time></trkpt><trkpt lat="42.604609617363195" lon="11.293872710778034"><ele>95.0</ele><time>2026-03-22T10:17:31Z</time></trkpt><trkpt lat="42.604528484649" lon="11.29365462454821"><ele>96.0</ele><time>2026-03-22T10:17:32Z</time></trkpt><trkpt lat="42.604445924731074" lon="11.293436984478262"><ele>93.33333333333333</ele><time>2026-03-22T10:17:33Z</time></trkpt><trkpt lat="42.60436816003006" lon="11.293223104381589"><ele>90.66666666666666</ele><time>2026-03-22T10:17:34Z</time></trkpt><trkpt lat="42.60429566043423" lon="11.293016493920232"><ele>88.0</ele><time>2026-03-22T10:17:35Z</time></trkpt><trkpt lat="42.60422278274337" lon="11.292813806207699"><ele>88.0</ele><time>2026-03-22T10:17:36Z</time></trkpt><trkpt lat="42.60414941772902" lon="11.292614541394556"><ele>88.0</ele><time>2026-03-22T10:17:37Z</time></trkpt><trkpt lat="42.60406284020704" lon="11.292421679794765"><ele>88.0</ele><time>2026-03-22T10:17:38Z</time></trkpt><trkpt lat="42.60394358661792" lon="11.29227099479809"><ele>87.66666666666666</ele><time>2026-03-22T10:17:39Z</time></trkpt><trkpt lat="42.60379352973748" lon="11.292157171277191"><ele>87.33333333333333</ele><time>2026-03-22T10:17:40Z</time></trkpt><trkpt lat="42.603622035133995" lon="11.292112173636413"><ele>87.0</ele><time>2026-03-22T10:17:41Z</time></trkpt><trkpt lat="42.60344838946277" lon="11.29210565259783"><ele>86.33333333333333</ele><time>2026-03-22T10:17:42Z</time></trkpt><trkpt lat="42.60329182146098" lon="11.292062982207527"><ele>85.66666666666666</ele><time>2026-03-22T10:17:43Z</time></trkpt><trkpt lat="42.60312639606325" lon="11.29197403780985"><ele>85.0</ele><time>2026-03-22T10:17:44Z</time></trkpt><trkpt lat="42.60297770848095" lon="11.291866041073208"><ele>85.0</ele><time>2026-03-22T10:17:45Z</time></trkpt><trkpt lat="42.60285344987279" lon="11.291698871937385"><ele>85.0</ele><time>2026-03-22T10:17:46Z</time></trkpt><trkpt lat="42.60272991120117" lon="11.291547896888895"><ele>85.0</ele><time>2026-03-22T10:17:47Z</time></trkpt><trkpt lat="42.602606556069986" lon="11.29132248957981"><ele>84.33333333333333</ele><time>2026-03-22T10:17:48Z</time></trkpt><trkpt lat="42.60254220355196" lon="11.291120857943616"><ele>83.66666666666667</ele><time>2026-03-22T10:17:49Z</time></trkpt><trkpt lat="42.60246005703908" lon="11.290906908853465"><ele>83.0</ele><time>2026-03-22T10:17:50Z</time></trkpt><trkpt lat="42.60236598527326" lon="11.290708199709"><ele>81.66666666666667</ele><time>2026-03-22T10:17:51Z</time></trkpt><trkpt lat="42.60226416485015" lon="11.290514658923506"><ele>80.33333333333333</ele><time>2026-03-22T10:17:52Z</time></trkpt><trkpt lat="42.60216938787909" lon="11.29031821177985"><ele>79.0</ele><time>2026-03-22T10:17:53Z</time></trkpt><trkpt lat="42.60207401804252" lon="11.290117753281518"><ele>81.33333333333333</ele><time>2026-03-22T10:17:54Z</time></trkpt><trkpt lat="42.60199596642298" lon="11.289903833204313"><ele>83.66666666666667</ele><time>2026-03-22T10:17:55Z</time></trkpt><trkpt lat="42.601921094321106" lon="11.289692119139186"><ele>86.0</ele><time>2026-03-22T10:17:56Z</time></trkpt><trkpt lat="42.6018387380101" lon="11.289477648542372"><ele>86.0</ele><time>2026-03-22T10:17:57Z</time></trkpt><trkpt lat="42.60174219714467" lon="11.289276469633496"><ele>86.0</ele><time>2026-03-22T10:17:58Z</time></trkpt><trkpt lat="42.60163668270799" lon="11.289084901163253"><ele>86.0</ele><time>2026-03-22T10:17:59Z</time></trkpt><trkpt lat="42.6015202256897" lon="11.288921348105465"><ele>86.0</ele><time>2026-03-22T10:18:00Z</time></trkpt><trkpt lat="42.601384860445016" lon="11.288785690763495"><ele>86.0</ele><time>2026-03-22T10:18:01Z</time></trkpt><trkpt lat="42.60123466967206" lon="11.288686953365001"><ele>86.0</ele><time>2026-03-22T10:18:02Z</time></trkpt><trkpt lat="42.6010767205668" lon="11.28862239978747"><ele>86.0</ele><time>2026-03-22T10:18:03Z</time></trkpt><trkpt lat="42.6009161252992" lon="11.28857663866799"><ele>86.0</ele><time>2026-03-22T10:18:04Z</time></trkpt><trkpt lat="42.60074434081133" lon="11.288556001905599"><ele>86.0</ele><time>2026-03-22T10:18:05Z</time></trkpt><trkpt lat="42.60056870791271" lon="11.288508423177158"><ele>86.0</ele><time>2026-03-22T10:18:06Z</time></trkpt><trkpt lat="42.60039679407728" lon="11.28848096567188"><ele>86.0</ele><time>2026-03-22T10:18:07Z</time></trkpt><trkpt lat="42.600226574262535" lon="11.288454009313869"><ele>86.0</ele><time>2026-03-22T10:18:08Z</time></trkpt><trkpt lat="42.60005933827962" lon="11.28842812054844"><ele>86.66666666666667</ele><time>2026-03-22T10:18:09Z</time></trkpt><trkpt lat="42.59990062437629" lon="11.288399573315331"><ele>87.33333333333333</ele><time>2026-03-22T10:18:09.999Z</time></trkpt><trkpt lat="42.599743816981174" lon="11.288369434259634"><ele>88.0</ele><time>2026-03-22T10:18:10.999Z</time></trkpt><trkpt lat="42.59958900461575" lon="11.288359744662325"><ele>89.0</ele><time>2026-03-22T10:18:11.999Z</time></trkpt><trkpt lat="42.599438508404724" lon="11.2883178089465"><ele>90.0</ele><time>2026-03-22T10:18:12.999Z</time></trkpt><trkpt lat="42.59928445252677" lon="11.288301779136761"><ele>91.0</ele><time>2026-03-22T10:18:13.999Z</time></trkpt><trkpt lat="42.59912881853978" lon="11.288309624598034"><ele>91.0</ele><time>2026-03-22T10:18:14.999Z</time></trkpt><trkpt lat="42.598971978612596" lon="11.288344756625003"><ele>91.0</ele><time>2026-03-22T10:18:15.999Z</time></trkpt><trkpt lat="42.598825037418976" lon="11.28842222037032"><ele>91.0</ele><time>2026-03-22T10:18:16.999Z</time></trkpt><trkpt lat="42.598672004545925" lon="11.288531908291857"><ele>90.0</ele><time>2026-03-22T10:18:17.999Z</time></trkpt><trkpt lat="42.59852199441353" lon="11.28864970210008"><ele>89.0</ele><time>2026-03-22T10:18:18.999Z</time></trkpt><trkpt lat="42.5983951709484" lon="11.288795288250531"><ele>88.0</ele><time>2026-03-22T10:18:19.999Z</time></trkpt><trkpt lat="42.59824848249667" lon="11.288897764818659"><ele>89.66666666666666</ele><time>2026-03-22T10:18:20.999Z</time></trkpt><trkpt lat="42.59811752194628" lon="11.289010536890203"><ele>91.33333333333333</ele><time>2026-03-22T10:18:21.999Z</time></trkpt><trkpt lat="42.59798513280334" lon="11.289115356484233"><ele>93.0</ele><time>2026-03-22T10:18:22.999Z</time></trkpt><trkpt lat="42.59784122795716" lon="11.289175291624709"><ele>91.0</ele><time>2026-03-22T10:18:23.999Z</time></trkpt><trkpt lat="42.59770318683992" lon="11.289181358438546"><ele>89.0</ele><time>2026-03-22T10:18:24.999Z</time></trkpt><trkpt lat="42.597547885937416" lon="11.289167332616582"><ele>87.0</ele><time>2026-03-22T10:18:25.999Z</time></trkpt><trkpt lat="42.59740417348646" lon="11.289072609169079"><ele>87.0</ele><time>2026-03-22T10:18:26.999Z</time></trkpt><trkpt lat="42.597274994097184" lon="11.288927339532545"><ele>87.0</ele><time>2026-03-22T10:18:27.999Z</time></trkpt><trkpt lat="42.59717256402439" lon="11.288760804605563"><ele>87.0</ele><time>2026-03-22T10:18:28.999Z</time></trkpt><trkpt lat="42.597084167441956" lon="11.288563775917279"><ele>86.33333333333333</ele><time>2026-03-22T10:18:29.999Z</time></trkpt><trkpt lat="42.59701653744812" lon="11.288357022900566"><ele>85.66666666666666</ele><time>2026-03-22T10:18:30.999Z</time></trkpt><trkpt lat="42.59698438108656" lon="11.28814862843274"><ele>85.0</ele><time>2026-03-22T10:18:31.999Z</time></trkpt><trkpt lat="42.59692377716554" lon="11.28794362610755"><ele>85.0</ele><time>2026-03-22T10:18:32.999Z</time></trkpt><trkpt lat="42.59684726421267" lon="11.287750915845079"><ele>85.0</ele><time>2026-03-22T10:18:33.999Z</time></trkpt><trkpt lat="42.59675980082378" lon="11.287571036550872"><ele>85.0</ele><time>2026-03-22T10:18:34.999Z</time></trkpt><trkpt lat="42.5966624416102" lon="11.287404208080341"><ele>83.0</ele><time>2026-03-22T10:18:35.999Z</time></trkpt><trkpt lat="42.5965513126228" lon="11.287240813701015"><ele>81.0</ele><time>2026-03-22T10:18:36.999Z</time></trkpt><trkpt lat="42.59642783784276" lon="11.287091672364472"><ele>79.0</ele><time>2026-03-22T10:18:37.999Z</time></trkpt><trkpt lat="42.596290081451" lon="11.28696366542957"><ele>79.66666666666666</ele><time>2026-03-22T10:18:38.999Z</time></trkpt><trkpt lat="42.59613763858512" lon="11.286869240405743"><ele>80.33333333333333</ele><time>2026-03-22T10:18:39.999Z</time></trkpt><trkpt lat="42.59597333107662" lon="11.28680656285345"><ele>81.0</ele><time>2026-03-22T10:18:40.999Z</time></trkpt><trkpt lat="42.59580289720742" lon="11.286759324225278"><ele>81.0</ele><time>2026-03-22T10:18:41.999Z</time></trkpt><trkpt lat="42.59563135444518" lon="11.286700707269055"><ele>81.0</ele><time>2026-03-22T10:18:42.999Z</time></trkpt><trkpt lat="42.59545342840221" lon="11.28668081671886"><ele>81.0</ele><time>2026-03-22T10:18:43.999Z</time></trkpt><trkpt lat="42.595273657254076" lon="11.28666582411015"><ele>81.66666666666667</ele><time>2026-03-22T10:18:44.999Z</time></trkpt><trkpt lat="42.59508935017206" lon="11.286653923472484"><ele>82.33333333333334</ele><time>2026-03-22T10:18:45.999Z</time></trkpt><trkpt lat="42.594899802035414" lon="11.286643264076215"><ele>83.0</ele><time>2026-03-22T10:18:46.999Z</time></trkpt><trkpt lat="42.594706477146794" lon="11.286632854151652"><ele>83.0</ele><time>2026-03-22T10:18:47.999Z</time></trkpt><trkpt lat="42.59451175253245" lon="11.286623113073412"><ele>83.0</ele><time>2026-03-22T10:18:48.999Z</time></trkpt><trkpt lat="42.594313651324626" lon="11.286612242706829"><ele>83.0</ele><time>2026-03-22T10:18:49.999Z</time></trkpt><trkpt lat="42.59411360147291" lon="11.286600605554217"><ele>81.66666666666667</ele><time>2026-03-22T10:18:50.999Z</time></trkpt><trkpt lat="42.59390924715456" lon="11.28658887109537"><ele>80.33333333333333</ele><time>2026-03-22T10:18:51.999Z</time></trkpt><trkpt lat="42.593707671469055" lon="11.28657729442263"><ele>79.0</ele><time>2026-03-22T10:18:52.999Z</time></trkpt><trkpt lat="42.59350093300525" lon="11.286565291233504"><ele>78.33333333333333</ele><time>2026-03-22T10:18:53.999Z</time></trkpt><trkpt lat="42.59329199173904" lon="11.28657566646847"><ele>77.66666666666667</ele><time>2026-03-22T10:18:54.999Z</time></trkpt><trkpt lat="42.59308135150469" lon="11.286563769321003"><ele>77.0</ele><time>2026-03-22T10:18:55.999Z</time></trkpt><trkpt lat="42.59286906171359" lon="11.286550642893172"><ele>76.0</ele><time>2026-03-22T10:18:56.999Z</time></trkpt><trkpt lat="42.59265556371553" lon="11.28651906357032"><ele>75.0</ele><time>2026-03-22T10:18:57.999Z</time></trkpt><trkpt lat="42.59244192454363" lon="11.286508267370863"><ele>74.0</ele><time>2026-03-22T10:18:58.999Z</time></trkpt><trkpt lat="42.59222923376611" lon="11.286495661334754"><ele>74.0</ele><time>2026-03-22T10:18:59.999Z</time></trkpt><trkpt lat="42.59201991812844" lon="11.286505352992107"><ele>74.0</ele><time>2026-03-22T10:19:00.999Z</time></trkpt><trkpt lat="42.591814158764535" lon="11.286471790306672"><ele>74.0</ele><time>2026-03-22T10:19:01.999Z</time></trkpt><trkpt lat="42.591609541429186" lon="11.286486077771432"><ele>73.0</ele><time>2026-03-22T10:19:02.999Z</time></trkpt><trkpt lat="42.5914062196433" lon="11.286472804855752"><ele>72.0</ele><time>2026-03-22T10:19:03.999Z</time></trkpt><trkpt lat="42.591204477205814" lon="11.286461457488466"><ele>71.0</ele><time>2026-03-22T10:19:04.999Z</time></trkpt><trkpt lat="42.59100354228531" lon="11.286447002855661"><ele>69.66666666666667</ele><time>2026-03-22T10:19:05.999Z</time></trkpt><trkpt lat="42.590805870919816" lon="11.286435004953631"><ele>68.33333333333333</ele><time>2026-03-22T10:19:06.999Z</time></trkpt><trkpt lat="42.59061279171002" lon="11.286401866727214"><ele>67.0</ele><time>2026-03-22T10:19:07.999Z</time></trkpt><trkpt lat="42.590422232072456" lon="11.286390748287005"><ele>65.0</ele><time>2026-03-22T10:19:08.999Z</time></trkpt><trkpt lat="42.590236944381445" lon="11.286402076103611"><ele>63.0</ele><time>2026-03-22T10:19:09.999Z</time></trkpt><trkpt lat="42.5900597576122" lon="11.28636926987567"><ele>61.0</ele><time>2026-03-22T10:19:10.999Z</time></trkpt><trkpt lat="42.58988865807515" lon="11.286359814269465"><ele>61.0</ele><time>2026-03-22T10:19:11.999Z</time></trkpt><trkpt lat="42.58973302218471" lon="11.286351250498111"><ele>61.0</ele><time>2026-03-22T10:19:13Z</time></trkpt><trkpt lat="42.58959236876753" lon="11.286343511128013"><ele>61.0</ele><time>2026-03-22T10:19:14Z</time></trkpt><trkpt lat="42.589467179220215" lon="11.286335779242075"><ele>61.0</ele><time>2026-03-22T10:19:15Z</time></trkpt><trkpt lat="42.58936517772533" lon="11.286328971315973"><ele>60.75</ele><time>2026-03-22T10:19:16Z</time></trkpt><trkpt lat="42.58929037235089" lon="11.286323978552153"><ele>60.5</ele><time>2026-03-22T10:19:17Z</time></trkpt><trkpt lat="42.58922940758428" lon="11.286579219016696"><ele>60.25</ele><time>2026-03-22T10:19:19Z</time></trkpt><trkpt lat="42.58920482759722" lon="11.28670418270103"><ele>60.0</ele><time>2026-03-22T10:19:20Z</time></trkpt><trkpt lat="42.58919716952313" lon="11.286855780001302"><ele>61.0</ele><time>2026-03-22T10:19:21Z</time></trkpt><trkpt lat="42.58919095658036" lon="11.287022813686562"><ele>62.0</ele><time>2026-03-22T10:19:22Z</time></trkpt><trkpt lat="42.58918425400853" lon="11.287203011004513"><ele>63.0</ele><time>2026-03-22T10:19:23Z</time></trkpt><trkpt lat="42.58917671357291" lon="11.287389421152534"><ele>64.0</ele><time>2026-03-22T10:19:24Z</time></trkpt><trkpt lat="42.58916731407921" lon="11.287579808493513"><ele>64.33333333333333</ele><time>2026-03-22T10:19:25Z</time></trkpt><trkpt lat="42.589157478021846" lon="11.287779038492436"><ele>64.66666666666667</ele><time>2026-03-22T10:19:26Z</time></trkpt><trkpt lat="42.589148078785364" lon="11.287991227985607"><ele>65.0</ele><time>2026-03-22T10:19:27Z</time></trkpt><trkpt lat="42.58914341930229" lon="11.288207002832872"><ele>65.33333333333334</ele><time>2026-03-22T10:19:28Z</time></trkpt><trkpt lat="42.58914533133446" lon="11.288425768948878"><ele>65.66666666666667</ele><time>2026-03-22T10:19:29Z</time></trkpt><trkpt lat="42.58916357167507" lon="11.288653900881457"><ele>66.0</ele><time>2026-03-22T10:19:30Z</time></trkpt><trkpt lat="42.58919329969439" lon="11.288883955407995"><ele>64.66666666666667</ele><time>2026-03-22T10:19:31Z</time></trkpt><trkpt lat="42.589230581558326" lon="11.289119006600101"><ele>63.333333333333336</ele><time>2026-03-22T10:19:32Z</time></trkpt><trkpt lat="42.589265532463784" lon="11.28934610528939"><ele>62.0</ele><time>2026-03-22T10:19:33Z</time></trkpt><trkpt lat="42.589299264036306" lon="11.289577598020813"><ele>61.333333333333336</ele><time>2026-03-22T10:19:34Z</time></trkpt><trkpt lat="42.58933309992558" lon="11.289809806645142"><ele>60.66666666666667</ele><time>2026-03-22T10:19:35Z</time></trkpt><trkpt lat="42.589366445537834" lon="11.290033587874545"><ele>60.0</ele><time>2026-03-22T10:19:36Z</time></trkpt><trkpt lat="42.589396300236956" lon="11.290251675972824"><ele>60.0</ele><time>2026-03-22T10:19:37Z</time></trkpt><trkpt lat="42.589406503333095" lon="11.290464113213197"><ele>60.0</ele><time>2026-03-22T10:19:38Z</time></trkpt><trkpt lat="42.58942378896433" lon="11.290698181116811"><ele>60.0</ele><time>2026-03-22T10:19:39Z</time></trkpt><trkpt lat="42.5893744213101" lon="11.290934283609095"><ele>60.0</ele><time>2026-03-22T10:19:40Z</time></trkpt><trkpt lat="42.58932215230147" lon="11.291173818366872"><ele>60.0</ele><time>2026-03-22T10:19:41Z</time></trkpt><trkpt lat="42.58927499952442" lon="11.291412802410441"><ele>60.0</ele><time>2026-03-22T10:19:42Z</time></trkpt><trkpt lat="42.58917839787731" lon="11.291639883967433"><ele>59.66666666666667</ele><time>2026-03-22T10:19:43Z</time></trkpt><trkpt lat="42.589128465558616" lon="11.291882949764425"><ele>59.333333333333336</ele><time>2026-03-22T10:19:44Z</time></trkpt><trkpt lat="42.58908476135834" lon="11.29212705038292"><ele>59.0</ele><time>2026-03-22T10:19:45Z</time></trkpt><trkpt lat="42.58906800885047" lon="11.29237340087454"><ele>58.333333333333336</ele><time>2026-03-22T10:19:46Z</time></trkpt><trkpt lat="42.58907815640262" lon="11.292619820843704"><ele>57.66666666666667</ele><time>2026-03-22T10:19:47Z</time></trkpt><trkpt lat="42.5891037936874" lon="11.292859103604709"><ele>57.0</ele><time>2026-03-22T10:19:48Z</time></trkpt><trkpt lat="42.589128248277746" lon="11.293117028424545"><ele>55.0</ele><time>2026-03-22T10:19:49Z</time></trkpt><trkpt lat="42.58915263177303" lon="11.293371485247313"><ele>53.0</ele><time>2026-03-22T10:19:50Z</time></trkpt><trkpt lat="42.589180479321705" lon="11.293643693393417"><ele>51.0</ele><time>2026-03-22T10:19:51Z</time></trkpt><trkpt lat="42.58920839629238" lon="11.293914383906944"><ele>50.33333333333333</ele><time>2026-03-22T10:19:52Z</time></trkpt><trkpt lat="42.58923655722724" lon="11.29420426181793"><ele>49.666666666666664</ele><time>2026-03-22T10:19:53Z</time></trkpt><trkpt lat="42.58926058595361" lon="11.294484000759397"><ele>49.0</ele><time>2026-03-22T10:19:54Z</time></trkpt><trkpt lat="42.58927608461436" lon="11.29474402671"><ele>49.33333333333333</ele><time>2026-03-22T10:19:55Z</time></trkpt><trkpt lat="42.58928465890149" lon="11.294992627879983"><ele>49.66666666666667</ele><time>2026-03-22T10:19:56Z</time></trkpt><trkpt lat="42.589287616578325" lon="11.29522049142912"><ele>50.0</ele><time>2026-03-22T10:19:57Z</time></trkpt><trkpt lat="42.58928306662891" lon="11.295438841666883"><ele>48.75</ele><time>2026-03-22T10:19:58Z</time></trkpt><trkpt lat="42.58924610969625" lon="11.295604075009432"><ele>47.5</ele><time>2026-03-22T10:19:59Z</time></trkpt><trkpt lat="42.5891808184449" lon="11.295746653982308"><ele>46.25</ele><time>2026-03-22T10:20:00Z</time></trkpt><trkpt lat="42.589092301565735" lon="11.295852668880944"><ele>45.0</ele><time>2026-03-22T10:20:01Z</time></trkpt><trkpt lat="42.588999439125004" lon="11.295921426361296"><ele>45.0</ele><time>2026-03-22T10:20:02Z</time></trkpt><trkpt lat="42.58890212917715" lon="11.295978932995123"><ele>45.0</ele><time>2026-03-22T10:20:03Z</time></trkpt><trkpt lat="42.58876022336416" lon="11.296061932334425"><ele>45.0</ele><time>2026-03-22T10:20:04Z</time></trkpt><trkpt lat="42.588595763358526" lon="11.29615812340315"><ele>45.0</ele><time>2026-03-22T10:20:05Z</time></trkpt><trkpt lat="42.58842249053862" lon="11.296262169845418"><ele>44.666666666666664</ele><time>2026-03-22T10:20:06Z</time></trkpt><trkpt lat="42.588212273585405" lon="11.296386555063183"><ele>44.33333333333333</ele><time>2026-03-22T10:20:07Z</time></trkpt><trkpt lat="42.588024845755015" lon="11.296496348983258"><ele>44.0</ele><time>2026-03-22T10:20:08Z</time></trkpt><trkpt lat="42.58782440454802" lon="11.296614960828547"><ele>44.0</ele><time>2026-03-22T10:20:09Z</time></trkpt><trkpt lat="42.587634307336884" lon="11.296728390164795"><ele>44.0</ele><time>2026-03-22T10:20:10Z</time></trkpt><trkpt lat="42.58744957971693" lon="11.29683945423691"><ele>44.0</ele><time>2026-03-22T10:20:11Z</time></trkpt><trkpt lat="42.58728523694138" lon="11.296954934767424"><ele>44.0</ele><time>2026-03-22T10:20:12Z</time></trkpt><trkpt lat="42.587133877747455" lon="11.297115566987628"><ele>44.0</ele><time>2026-03-22T10:20:13Z</time></trkpt><trkpt lat="42.587025852221636" lon="11.297326494128601"><ele>44.0</ele><time>2026-03-22T10:20:14Z</time></trkpt><trkpt lat="42.5869503195692" lon="11.297504256631369"><ele>44.33333333333333</ele><time>2026-03-22T10:20:15Z</time></trkpt><trkpt lat="42.5868754931273" lon="11.2976459057246"><ele>44.666666666666664</ele><time>2026-03-22T10:20:16Z</time></trkpt><trkpt lat="42.586796559141135" lon="11.29783293983543"><ele>45.0</ele><time>2026-03-22T10:20:17Z</time></trkpt><trkpt lat="42.58672035631005" lon="11.29807715379135"><ele>46.66666666666667</ele><time>2026-03-22T10:20:18Z</time></trkpt><trkpt lat="42.58662509864113" lon="11.298309054205907"><ele>48.333333333333336</ele><time>2026-03-22T10:20:18.999Z</time></trkpt><trkpt lat="42.586534540724735" lon="11.298529530551289"><ele>50.0</ele><time>2026-03-22T10:20:19.999Z</time></trkpt><trkpt lat="42.58644500152964" lon="11.298748212814084"><ele>52.0</ele><time>2026-03-22T10:20:20.999Z</time></trkpt><trkpt lat="42.58635651189954" lon="11.29896433172016"><ele>54.0</ele><time>2026-03-22T10:20:21.999Z</time></trkpt><trkpt lat="42.58626870443284" lon="11.299178784582825"><ele>56.0</ele><time>2026-03-22T10:20:22.999Z</time></trkpt><trkpt lat="42.586180993684906" lon="11.299390749673965"><ele>57.333333333333336</ele><time>2026-03-22T10:20:23.999Z</time></trkpt><trkpt lat="42.58609068236334" lon="11.299602480688671"><ele>58.66666666666667</ele><time>2026-03-22T10:20:24.999Z</time></trkpt><trkpt lat="42.58599950430367" lon="11.299816244007314"><ele>60.0</ele><time>2026-03-22T10:20:25.999Z</time></trkpt><trkpt lat="42.58591010170791" lon="11.30003557029571"><ele>60.66666666666667</ele><time>2026-03-22T10:20:26.999Z</time></trkpt><trkpt lat="42.585821138863466" lon="11.300252911400525"><ele>61.333333333333336</ele><time>2026-03-22T10:20:27.999Z</time></trkpt><trkpt lat="42.585731396780105" lon="11.300471018750917"><ele>62.0</ele><time>2026-03-22T10:20:28.999Z</time></trkpt><trkpt lat="42.58564051683674" lon="11.300691527142927"><ele>62.0</ele><time>2026-03-22T10:20:29.999Z</time></trkpt><trkpt lat="42.5855508932913" lon="11.300913921186286"><ele>62.0</ele><time>2026-03-22T10:20:30.999Z</time></trkpt><trkpt lat="42.585460459611475" lon="11.301146456708244"><ele>62.0</ele><time>2026-03-22T10:20:31.999Z</time></trkpt><trkpt lat="42.585368575701025" lon="11.301385453482952"><ele>61.0</ele><time>2026-03-22T10:20:32.999Z</time></trkpt><trkpt lat="42.585273055503045" lon="11.301635349401606"><ele>60.0</ele><time>2026-03-22T10:20:33.999Z</time></trkpt><trkpt lat="42.5851757585243" lon="11.301889893670255"><ele>59.0</ele><time>2026-03-22T10:20:34.999Z</time></trkpt><trkpt lat="42.585076375875396" lon="11.302149894409055"><ele>58.66666666666667</ele><time>2026-03-22T10:20:35.999Z</time></trkpt><trkpt lat="42.58497536245026" lon="11.302414161480932"><ele>58.33333333333333</ele><time>2026-03-22T10:20:36.999Z</time></trkpt><trkpt lat="42.58487301508001" lon="11.30268191838082"><ele>58.0</ele><time>2026-03-22T10:20:37.999Z</time></trkpt><trkpt lat="42.58476894153684" lon="11.302950430297502"><ele>58.0</ele><time>2026-03-22T10:20:38.999Z</time></trkpt><trkpt lat="42.58466448481554" lon="11.303219016526032"><ele>58.0</ele><time>2026-03-22T10:20:39.999Z</time></trkpt><trkpt lat="42.58455971353945" lon="11.303488411568493"><ele>58.0</ele><time>2026-03-22T10:20:40.999Z</time></trkpt><trkpt lat="42.58445766909942" lon="11.303750795265138"><ele>58.666666666666664</ele><time>2026-03-22T10:20:41.999Z</time></trkpt><trkpt lat="42.58435881030654" lon="11.30400665872758"><ele>59.33333333333333</ele><time>2026-03-22T10:20:42.999Z</time></trkpt><trkpt lat="42.58426121757767" lon="11.30426072509236"><ele>60.0</ele><time>2026-03-22T10:20:43.999Z</time></trkpt><trkpt lat="42.58416324217811" lon="11.304515698735742"><ele>60.66666666666667</ele><time>2026-03-22T10:20:44.999Z</time></trkpt><trkpt lat="42.58406528131228" lon="11.304770634594071"><ele>61.333333333333336</ele><time>2026-03-22T10:20:45.999Z</time></trkpt><trkpt lat="42.58396799274359" lon="11.305023845595413"><ele>62.0</ele><time>2026-03-22T10:20:46.999Z</time></trkpt><trkpt lat="42.5838710109522" lon="11.305276294381295"><ele>62.0</ele><time>2026-03-22T10:20:47.999Z</time></trkpt><trkpt lat="42.583775237698724" lon="11.30552559726409"><ele>62.0</ele><time>2026-03-22T10:20:48.999Z</time></trkpt><trkpt lat="42.583678665455786" lon="11.305768105833707"><ele>62.0</ele><time>2026-03-22T10:20:49.999Z</time></trkpt><trkpt lat="42.583590284992745" lon="11.305993439092871"><ele>62.333333333333336</ele><time>2026-03-22T10:20:50.999Z</time></trkpt><trkpt lat="42.583520588282376" lon="11.306201960817335"><ele>62.66666666666667</ele><time>2026-03-22T10:20:51.999Z</time></trkpt><trkpt lat="42.58346417238857" lon="11.30640808282789"><ele>63.0</ele><time>2026-03-22T10:20:52.999Z</time></trkpt><trkpt lat="42.58342644681389" lon="11.30663046615649"><ele>63.33333333333333</ele><time>2026-03-22T10:20:53.999Z</time></trkpt><trkpt lat="42.583447901286426" lon="11.306868339070745"><ele>63.666666666666664</ele><time>2026-03-22T10:20:54.999Z</time></trkpt><trkpt lat="42.583468511864076" lon="11.307103646769383"><ele>64.0</ele><time>2026-03-22T10:20:55.999Z</time></trkpt><trkpt lat="42.58351383051928" lon="11.307338751751065"><ele>64.0</ele><time>2026-03-22T10:20:56.999Z</time></trkpt><trkpt lat="42.58355604976184" lon="11.307585039524835"><ele>64.0</ele><time>2026-03-22T10:20:57.999Z</time></trkpt><trkpt lat="42.583606650443755" lon="11.307820638229515"><ele>64.0</ele><time>2026-03-22T10:20:58.999Z</time></trkpt><trkpt lat="42.58365492787041" lon="11.308046703148845"><ele>65.0</ele><time>2026-03-22T10:20:59.999Z</time></trkpt><trkpt lat="42.583701903161796" lon="11.3082666704157"><ele>66.0</ele><time>2026-03-22T10:21:00.999Z</time></trkpt><trkpt lat="42.5837480431613" lon="11.308481501806591"><ele>67.0</ele><time>2026-03-22T10:21:01.999Z</time></trkpt><trkpt lat="42.583795252798545" lon="11.308689730016505"><ele>67.0</ele><time>2026-03-22T10:21:02.999Z</time></trkpt><trkpt lat="42.583837439299295" lon="11.308899309646511"><ele>67.0</ele><time>2026-03-22T10:21:03.999Z</time></trkpt><trkpt lat="42.583860066096825" lon="11.309102172157267"><ele>67.0</ele><time>2026-03-22T10:21:04.999Z</time></trkpt><trkpt lat="42.58384747733251" lon="11.309283684822939"><ele>67.0</ele><time>2026-03-22T10:21:05.999Z</time></trkpt><trkpt lat="42.58380820755681" lon="11.309460233963136"><ele>66.0</ele><time>2026-03-22T10:21:06.999Z</time></trkpt><trkpt lat="42.58375491602216" lon="11.309633085403433"><ele>65.0</ele><time>2026-03-22T10:21:07.999Z</time></trkpt><trkpt lat="42.58368009245102" lon="11.309830768101437"><ele>64.0</ele><time>2026-03-22T10:21:08.999Z</time></trkpt><trkpt lat="42.58360293725468" lon="11.310023847916858"><ele>64.0</ele><time>2026-03-22T10:21:09.999Z</time></trkpt><trkpt lat="42.58352407474009" lon="11.31021525291476"><ele>64.0</ele><time>2026-03-22T10:21:10.999Z</time></trkpt><trkpt lat="42.58344441557154" lon="11.310407301735994"><ele>64.0</ele><time>2026-03-22T10:21:11.999Z</time></trkpt><trkpt lat="42.58336645812542" lon="11.310595247899503"><ele>65.33333333333333</ele><time>2026-03-22T10:21:12.999Z</time></trkpt><trkpt lat="42.583290740081026" lon="11.31077779510892"><ele>66.66666666666667</ele><time>2026-03-22T10:21:13.999Z</time></trkpt><trkpt lat="42.58321541828051" lon="11.31095938726089"><ele>68.0</ele><time>2026-03-22T10:21:14.999Z</time></trkpt><trkpt lat="42.58313971399149" lon="11.31114190122694"><ele>68.0</ele><time>2026-03-22T10:21:15.999Z</time></trkpt><trkpt lat="42.583063909894435" lon="11.311324655726116"><ele>68.0</ele><time>2026-03-22T10:21:16.999Z</time></trkpt><trkpt lat="42.58298861698484" lon="11.311506178006562"><ele>68.0</ele><time>2026-03-22T10:21:17.999Z</time></trkpt><trkpt lat="42.58291303623542" lon="11.311688394298312"><ele>69.5</ele><time>2026-03-22T10:21:19Z</time></trkpt><trkpt lat="42.58283880782188" lon="11.311867350127333"><ele>71.0</ele><time>2026-03-22T10:21:20Z</time></trkpt><trkpt lat="42.58276612510468" lon="11.312042579542954"><ele>72.5</ele><time>2026-03-22T10:21:21Z</time></trkpt><trkpt lat="42.58269433650999" lon="11.312215653443818"><ele>74.0</ele><time>2026-03-22T10:21:22Z</time></trkpt><trkpt lat="42.582621314549485" lon="11.312391700560884"><ele>74.66666666666667</ele><time>2026-03-22T10:21:23Z</time></trkpt><trkpt lat="42.58254726454095" lon="11.312570226408516"><ele>75.33333333333333</ele><time>2026-03-22T10:21:24Z</time></trkpt><trkpt lat="42.58247412330564" lon="11.31275427774131"><ele>76.0</ele><time>2026-03-22T10:21:25Z</time></trkpt><trkpt lat="42.58240638860298" lon="11.312948281555862"><ele>77.0</ele><time>2026-03-22T10:21:26Z</time></trkpt><trkpt lat="42.58234958202764" lon="11.313156552354423"><ele>78.0</ele><time>2026-03-22T10:21:27Z</time></trkpt><trkpt lat="42.582308618672506" lon="11.313369740837674"><ele>79.0</ele><time>2026-03-22T10:21:28Z</time></trkpt><trkpt lat="42.58227688909426" lon="11.313593019316654"><ele>79.0</ele><time>2026-03-22T10:21:29Z</time></trkpt><trkpt lat="42.5822506867616" lon="11.313812065474867"><ele>79.0</ele><time>2026-03-22T10:21:30Z</time></trkpt><trkpt lat="42.582226462162595" lon="11.314030122785429"><ele>79.0</ele><time>2026-03-22T10:21:31Z</time></trkpt><trkpt lat="42.58220171071594" lon="11.314252922788919"><ele>80.0</ele><time>2026-03-22T10:21:32Z</time></trkpt><trkpt lat="42.582177764757155" lon="11.31447846369148"><ele>81.0</ele><time>2026-03-22T10:21:33Z</time></trkpt><trkpt lat="42.58215436108453" lon="11.314703974050882"><ele>82.0</ele><time>2026-03-22T10:21:34Z</time></trkpt><trkpt lat="42.58213097884422" lon="11.314929278066343"><ele>82.66666666666666</ele><time>2026-03-22T10:21:35Z</time></trkpt><trkpt lat="42.58210778946956" lon="11.315152723723452"><ele>83.33333333333333</ele><time>2026-03-22T10:21:36Z</time></trkpt><trkpt lat="42.58208436615699" lon="11.315381069774842"><ele>84.0</ele><time>2026-03-22T10:21:37Z</time></trkpt><trkpt lat="42.58206686339241" lon="11.315612311927335"><ele>84.66666666666667</ele><time>2026-03-22T10:21:38Z</time></trkpt><trkpt lat="42.58205434309213" lon="11.315840631619839"><ele>85.33333333333334</ele><time>2026-03-22T10:21:39Z</time></trkpt><trkpt lat="42.58204841799993" lon="11.31607600514096"><ele>86.0</ele><time>2026-03-22T10:21:40Z</time></trkpt><trkpt lat="42.582054242812056" lon="11.316310031277327"><ele>86.66666666666667</ele><time>2026-03-22T10:21:41Z</time></trkpt><trkpt lat="42.582062448779084" lon="11.316543004099996"><ele>87.33333333333333</ele><time>2026-03-22T10:21:42Z</time></trkpt><trkpt lat="42.58207548606297" lon="11.316777865950915"><ele>88.0</ele><time>2026-03-22T10:21:43Z</time></trkpt><trkpt lat="42.58209000970364" lon="11.317015029227624"><ele>88.0</ele><time>2026-03-22T10:21:44Z</time></trkpt><trkpt lat="42.582104468230305" lon="11.317254052527518"><ele>88.0</ele><time>2026-03-22T10:21:45Z</time></trkpt><trkpt lat="42.58211897988467" lon="11.317493954085874"><ele>88.0</ele><time>2026-03-22T10:21:46Z</time></trkpt><trkpt lat="42.5821325402525" lon="11.317718129186485"><ele>88.0</ele><time>2026-03-22T10:21:47Z</time></trkpt><trkpt lat="42.58214396343541" lon="11.317933954458333"><ele>88.0</ele><time>2026-03-22T10:21:48Z</time></trkpt><trkpt lat="42.58214010369834" lon="11.318113102806022"><ele>88.0</ele><time>2026-03-22T10:21:49Z</time></trkpt><trkpt lat="42.58211513501712" lon="11.318277048874995"><ele>88.0</ele><time>2026-03-22T10:21:50Z</time></trkpt><trkpt lat="42.582056174246524" lon="11.318409059220693"><ele>88.25</ele><time>2026-03-22T10:21:51Z</time></trkpt><trkpt lat="42.58197092240507" lon="11.318543237406393"><ele>88.5</ele><time>2026-03-22T10:21:52Z</time></trkpt><trkpt lat="42.58186562419318" lon="11.318674346899455"><ele>88.75</ele><time>2026-03-22T10:21:53Z</time></trkpt><trkpt lat="42.58173972748917" lon="11.318811745780389"><ele>89.0</ele><time>2026-03-22T10:21:54Z</time></trkpt><trkpt lat="42.58160645552758" lon="11.318934054874823"><ele>89.0</ele><time>2026-03-22T10:21:55Z</time></trkpt><trkpt lat="42.58146197421564" lon="11.319063443028401"><ele>89.0</ele><time>2026-03-22T10:21:56Z</time></trkpt><trkpt lat="42.58131744375528" lon="11.3191944504193"><ele>89.0</ele><time>2026-03-22T10:21:57Z</time></trkpt><trkpt lat="42.58116774694493" lon="11.319329571342166"><ele>89.33333333333334</ele><time>2026-03-22T10:21:58Z</time></trkpt><trkpt lat="42.58101680766381" lon="11.31946396983887"><ele>89.66666666666667</ele><time>2026-03-22T10:21:59Z</time></trkpt><trkpt lat="42.58086673981204" lon="11.319597592374139"><ele>90.0</ele><time>2026-03-22T10:22:00Z</time></trkpt><trkpt lat="42.58071466931638" lon="11.319734229947429"><ele>90.0</ele><time>2026-03-22T10:22:01Z</time></trkpt><trkpt lat="42.58056606201418" lon="11.319872246374164"><ele>90.0</ele><time>2026-03-22T10:22:02Z</time></trkpt><trkpt lat="42.58042135896368" lon="11.320032918103207"><ele>90.0</ele><time>2026-03-22T10:22:03Z</time></trkpt><trkpt lat="42.58028231718825" lon="11.320209734172073"><ele>90.0</ele><time>2026-03-22T10:22:04Z</time></trkpt><trkpt lat="42.580148269621276" lon="11.320398171059612"><ele>90.0</ele><time>2026-03-22T10:22:05Z</time></trkpt><trkpt lat="42.58001573168663" lon="11.320586321811142"><ele>90.0</ele><time>2026-03-22T10:22:06Z</time></trkpt><trkpt lat="42.579883416926286" lon="11.320774155748097"><ele>90.0</ele><time>2026-03-22T10:22:07Z</time></trkpt><trkpt lat="42.579752878794295" lon="11.320964747681579"><ele>90.0</ele><time>2026-03-22T10:22:08Z</time></trkpt><trkpt lat="42.579623165585566" lon="11.321166052533057"><ele>90.0</ele><time>2026-03-22T10:22:09Z</time></trkpt><trkpt lat="42.57949659144672" lon="11.32137916048049"><ele>87.66666666666667</ele><time>2026-03-22T10:22:10Z</time></trkpt><trkpt lat="42.579377766299096" lon="11.321607800405056"><ele>85.33333333333334</ele><time>2026-03-22T10:22:11Z</time></trkpt><trkpt lat="42.579258088825256" lon="11.321842466078913"><ele>83.0</ele><time>2026-03-22T10:22:12Z</time></trkpt><trkpt lat="42.57913868868249" lon="11.32208413911225"><ele>84.0</ele><time>2026-03-22T10:22:13Z</time></trkpt><trkpt lat="42.57901352324053" lon="11.322321399904554"><ele>85.0</ele><time>2026-03-22T10:22:14Z</time></trkpt><trkpt lat="42.57887048127153" lon="11.322533405019444"><ele>86.0</ele><time>2026-03-22T10:22:15Z</time></trkpt><trkpt lat="42.57871849920256" lon="11.322742187454239"><ele>86.0</ele><time>2026-03-22T10:22:16Z</time></trkpt><trkpt lat="42.57856954021268" lon="11.322944791832079"><ele>86.0</ele><time>2026-03-22T10:22:17Z</time></trkpt><trkpt lat="42.57841855445978" lon="11.32314644242721"><ele>86.0</ele><time>2026-03-22T10:22:18Z</time></trkpt><trkpt lat="42.578270308822155" lon="11.323349071955533"><ele>86.0</ele><time>2026-03-22T10:22:19Z</time></trkpt><trkpt lat="42.578124429039306" lon="11.323548688316416"><ele>86.0</ele><time>2026-03-22T10:22:20Z</time></trkpt><trkpt lat="42.57797797530522" lon="11.323749089783425"><ele>86.0</ele><time>2026-03-22T10:22:21Z</time></trkpt><trkpt lat="42.577831890394606" lon="11.323947754585918"><ele>87.0</ele><time>2026-03-22T10:22:21.999Z</time></trkpt><trkpt lat="42.57768477396312" lon="11.324145604658257"><ele>88.0</ele><time>2026-03-22T10:22:22.999Z</time></trkpt><trkpt lat="42.57753961627649" lon="11.324343083983702"><ele>89.0</ele><time>2026-03-22T10:22:23.999Z</time></trkpt><trkpt lat="42.577396514824564" lon="11.32453800476056"><ele>89.0</ele><time>2026-03-22T10:22:24.999Z</time></trkpt><trkpt lat="42.57725315767406" lon="11.324728423384064"><ele>89.0</ele><time>2026-03-22T10:22:25.999Z</time></trkpt><trkpt lat="42.57710983374293" lon="11.324913621618649"><ele>89.0</ele><time>2026-03-22T10:22:26.999Z</time></trkpt><trkpt lat="42.57695708885323" lon="11.325076620758386"><ele>90.33333333333334</ele><time>2026-03-22T10:22:27.999Z</time></trkpt><trkpt lat="42.576792553151165" lon="11.32520244021547"><ele>91.66666666666667</ele><time>2026-03-22T10:22:28.999Z</time></trkpt><trkpt lat="42.57661151339628" lon="11.325323195535205"><ele>93.0</ele><time>2026-03-22T10:22:29.999Z</time></trkpt><trkpt lat="42.576425865988234" lon="11.32542625016197"><ele>93.0</ele><time>2026-03-22T10:22:30.999Z</time></trkpt><trkpt lat="42.57623783623626" lon="11.325519395492815"><ele>93.0</ele><time>2026-03-22T10:22:31.999Z</time></trkpt><trkpt lat="42.576050834679904" lon="11.325612157783075"><ele>93.0</ele><time>2026-03-22T10:22:32.999Z</time></trkpt><trkpt lat="42.57586467893217" lon="11.325704500392542"><ele>94.0</ele><time>2026-03-22T10:22:33.999Z</time></trkpt><trkpt lat="42.57567740808194" lon="11.32580555326589"><ele>95.0</ele><time>2026-03-22T10:22:34.999Z</time></trkpt><trkpt lat="42.5754937350099" lon="11.325926524565105"><ele>96.0</ele><time>2026-03-22T10:22:35.999Z</time></trkpt><trkpt lat="42.57531452190915" lon="11.326054631095698"><ele>96.0</ele><time>2026-03-22T10:22:36.999Z</time></trkpt><trkpt lat="42.57513470852719" lon="11.326186242435265"><ele>96.0</ele><time>2026-03-22T10:22:37.999Z</time></trkpt><trkpt lat="42.574955379542615" lon="11.326320186124928"><ele>96.0</ele><time>2026-03-22T10:22:38.999Z</time></trkpt><trkpt lat="42.57477707533969" lon="11.326453396754836"><ele>97.66666666666666</ele><time>2026-03-22T10:22:39.999Z</time></trkpt><trkpt lat="42.574597089070146" lon="11.326590719647053"><ele>99.33333333333333</ele><time>2026-03-22T10:22:40.999Z</time></trkpt><trkpt lat="42.57442094929058" lon="11.3267357880819"><ele>101.0</ele><time>2026-03-22T10:22:41.999Z</time></trkpt><trkpt lat="42.57424477707411" lon="11.326892314409964"><ele>101.0</ele><time>2026-03-22T10:22:42.999Z</time></trkpt><trkpt lat="42.574073732921576" lon="11.327058961594728"><ele>101.0</ele><time>2026-03-22T10:22:43.999Z</time></trkpt><trkpt lat="42.573907297427695" lon="11.327229944368149"><ele>101.0</ele><time>2026-03-22T10:22:44.999Z</time></trkpt><trkpt lat="42.57374247566282" lon="11.327399366938037"><ele>101.33333333333333</ele><time>2026-03-22T10:22:45.999Z</time></trkpt><trkpt lat="42.57357828977812" lon="11.327567800129886"><ele>101.66666666666666</ele><time>2026-03-22T10:22:46.999Z</time></trkpt><trkpt lat="42.573409312557324" lon="11.327740917439689"><ele>102.0</ele><time>2026-03-22T10:22:47.999Z</time></trkpt><trkpt lat="42.57323790248817" lon="11.327912735228315"><ele>101.66666666666666</ele><time>2026-03-22T10:22:48.999Z</time></trkpt><trkpt lat="42.573071763855395" lon="11.328074637587305"><ele>101.33333333333333</ele><time>2026-03-22T10:22:49.999Z</time></trkpt><trkpt lat="42.572910272871304" lon="11.328223425480655"><ele>101.0</ele><time>2026-03-22T10:22:50.999Z</time></trkpt><trkpt lat="42.5727435448834" lon="11.328347292507466"><ele>101.0</ele><time>2026-03-22T10:22:51.999Z</time></trkpt><trkpt lat="42.57256157592654" lon="11.328452412891334"><ele>101.0</ele><time>2026-03-22T10:22:52.999Z</time></trkpt><trkpt lat="42.57236797503145" lon="11.328531331076015"><ele>101.0</ele><time>2026-03-22T10:22:53.999Z</time></trkpt><trkpt lat="42.57217054154387" lon="11.328600913108826"><ele>99.66666666666666</ele><time>2026-03-22T10:22:54.999Z</time></trkpt><trkpt lat="42.57196752631649" lon="11.328670436687545"><ele>98.33333333333334</ele><time>2026-03-22T10:22:55.999Z</time></trkpt><trkpt lat="42.5717590919132" lon="11.32874181607293"><ele>97.0</ele><time>2026-03-22T10:22:56.999Z</time></trkpt><trkpt lat="42.57154956928882" lon="11.328813568146733"><ele>97.0</ele><time>2026-03-22T10:22:57.999Z</time></trkpt><trkpt lat="42.571343191234654" lon="11.32888424330837"><ele>97.0</ele><time>2026-03-22T10:22:58.999Z</time></trkpt><trkpt lat="42.5711409906326" lon="11.328953487931091"><ele>97.0</ele><time>2026-03-22T10:22:59.999Z</time></trkpt><trkpt lat="42.57094171156022" lon="11.329020913674034"><ele>96.33333333333334</ele><time>2026-03-22T10:23:00.999Z</time></trkpt><trkpt lat="42.57074296170221" lon="11.329087677655599"><ele>95.66666666666667</ele><time>2026-03-22T10:23:01.999Z</time></trkpt><trkpt lat="42.57054750494868" lon="11.329153335523683"><ele>95.0</ele><time>2026-03-22T10:23:02.999Z</time></trkpt><trkpt lat="42.57035370006205" lon="11.329218438442624"><ele>95.0</ele><time>2026-03-22T10:23:03.999Z</time></trkpt><trkpt lat="42.57015939728538" lon="11.329284101435308"><ele>95.0</ele><time>2026-03-22T10:23:04.999Z</time></trkpt><trkpt lat="42.56996389087563" lon="11.329351116940368"><ele>95.0</ele><time>2026-03-22T10:23:05.999Z</time></trkpt><trkpt lat="42.56977080939115" lon="11.329404968591392"><ele>95.0</ele><time>2026-03-22T10:23:06.999Z</time></trkpt><trkpt lat="42.56957201737654" lon="11.329443716956911"><ele>95.0</ele><time>2026-03-22T10:23:07.999Z</time></trkpt><trkpt lat="42.5693711131409" lon="11.329473581035632"><ele>95.0</ele><time>2026-03-22T10:23:08.999Z</time></trkpt><trkpt lat="42.569174239922575" lon="11.329502100509837"><ele>95.0</ele><time>2026-03-22T10:23:09.999Z</time></trkpt><trkpt lat="42.568988202021686" lon="11.329529049685771"><ele>95.0</ele><time>2026-03-22T10:23:10.999Z</time></trkpt><trkpt lat="42.56881563691226" lon="11.329554047212815"><ele>95.0</ele><time>2026-03-22T10:23:11.999Z</time></trkpt><trkpt lat="42.56866041597713" lon="11.329664277769735"><ele>93.0</ele><time>2026-03-22T10:23:12.999Z</time></trkpt><trkpt lat="42.568525306770525" lon="11.329747722335792"><ele>91.0</ele><time>2026-03-22T10:23:13.999Z</time></trkpt><trkpt lat="42.568414036935856" lon="11.329874481712332"><ele>89.0</ele><time>2026-03-22T10:23:14.999Z</time></trkpt><trkpt lat="42.56830436194127" lon="11.330043674815682"><ele>89.0</ele><time>2026-03-22T10:23:15.999Z</time></trkpt><trkpt lat="42.56821092325013" lon="11.330235451589822"><ele>89.0</ele><time>2026-03-22T10:23:16.999Z</time></trkpt><trkpt lat="42.56810598805653" lon="11.330436344328747"><ele>89.0</ele><time>2026-03-22T10:23:17.999Z</time></trkpt><trkpt lat="42.56801278784705" lon="11.33064377745857"><ele>89.66666666666667</ele><time>2026-03-22T10:23:18.999Z</time></trkpt><trkpt lat="42.56791240314348" lon="11.330859155920637"><ele>90.33333333333333</ele><time>2026-03-22T10:23:19.999Z</time></trkpt><trkpt lat="42.567813290525145" lon="11.331071780657139"><ele>91.0</ele><time>2026-03-22T10:23:20.999Z</time></trkpt><trkpt lat="42.567721312051596" lon="11.331263099480694"><ele>89.25</ele><time>2026-03-22T10:23:21.999Z</time></trkpt><trkpt lat="42.56763627079732" lon="11.33141774781953"><ele>87.5</ele><time>2026-03-22T10:23:22.999Z</time></trkpt><trkpt lat="42.56755233480988" lon="11.33153453432613"><ele>85.75</ele><time>2026-03-22T10:23:23.999Z</time></trkpt><trkpt lat="42.56746142441847" lon="11.33161602768735"><ele>84.0</ele><time>2026-03-22T10:23:25Z</time></trkpt><trkpt lat="42.567351682982526" lon="11.33164086513583"><ele>84.0</ele><time>2026-03-22T10:23:26Z</time></trkpt><trkpt lat="42.56724187269242" lon="11.331624898164574"><ele>84.0</ele><time>2026-03-22T10:23:27Z</time></trkpt><trkpt lat="42.56712958639115" lon="11.331544076078503"><ele>84.0</ele><time>2026-03-22T10:23:28Z</time></trkpt><trkpt lat="42.5670216366336" lon="11.33144655554146"><ele>84.0</ele><time>2026-03-22T10:23:29Z</time></trkpt><trkpt lat="42.56689649578695" lon="11.331341602798595"><ele>86.0</ele><time>2026-03-22T10:23:30Z</time></trkpt><trkpt lat="42.566754962396104" lon="11.331252594507433"><ele>88.0</ele><time>2026-03-22T10:23:31Z</time></trkpt><trkpt lat="42.566600621768956" lon="11.331182420520204"><ele>90.0</ele><time>2026-03-22T10:23:32Z</time></trkpt><trkpt lat="42.56643810446694" lon="11.331113324792971"><ele>90.0</ele><time>2026-03-22T10:23:33Z</time></trkpt><trkpt lat="42.566277022146934" lon="11.331043386611897"><ele>90.0</ele><time>2026-03-22T10:23:34Z</time></trkpt><trkpt lat="42.56611312701262" lon="11.33099296009966"><ele>90.0</ele><time>2026-03-22T10:23:35Z</time></trkpt><trkpt lat="42.56594207715288" lon="11.330980305967106"><ele>87.33333333333333</ele><time>2026-03-22T10:23:36Z</time></trkpt><trkpt lat="42.56576024635179" lon="11.331006128359546"><ele>84.66666666666666</ele><time>2026-03-22T10:23:37Z</time></trkpt><trkpt lat="42.56557455468199" lon="11.331060822150684"><ele>82.0</ele><time>2026-03-22T10:23:38Z</time></trkpt><trkpt lat="42.565384812442545" lon="11.331124645639294"><ele>81.33333333333333</ele><time>2026-03-22T10:23:39Z</time></trkpt><trkpt lat="42.56518943937775" lon="11.331179829923014"><ele>80.66666666666667</ele><time>2026-03-22T10:23:40Z</time></trkpt><trkpt lat="42.564992078712216" lon="11.33123500792432"><ele>80.0</ele><time>2026-03-22T10:23:41Z</time></trkpt><trkpt lat="42.56479332872651" lon="11.331296088230141"><ele>80.0</ele><time>2026-03-22T10:23:42Z</time></trkpt><trkpt lat="42.564594887273984" lon="11.33135711357575"><ele>80.0</ele><time>2026-03-22T10:23:43Z</time></trkpt><trkpt lat="42.56440154231444" lon="11.331414004401815"><ele>80.0</ele><time>2026-03-22T10:23:44Z</time></trkpt><trkpt lat="42.5642104399811" lon="11.331478180801732"><ele>77.0</ele><time>2026-03-22T10:23:45Z</time></trkpt><trkpt lat="42.564021102955934" lon="11.331554726952822"><ele>74.0</ele><time>2026-03-22T10:23:46Z</time></trkpt><trkpt lat="42.56383503425586" lon="11.331652183739198"><ele>71.0</ele><time>2026-03-22T10:23:47Z</time></trkpt><trkpt lat="42.563659761494996" lon="11.331785465538387"><ele>70.0</ele><time>2026-03-22T10:23:48Z</time></trkpt><trkpt lat="42.563485868000875" lon="11.331938673925471"><ele>69.0</ele><time>2026-03-22T10:23:49Z</time></trkpt><trkpt lat="42.563310480636645" lon="11.33209884061431"><ele>68.0</ele><time>2026-03-22T10:23:50Z</time></trkpt><trkpt lat="42.56313204554782" lon="11.332258817753672"><ele>67.66666666666667</ele><time>2026-03-22T10:23:51Z</time></trkpt><trkpt lat="42.562949670858515" lon="11.332418550904718"><ele>67.33333333333333</ele><time>2026-03-22T10:23:52Z</time></trkpt><trkpt lat="42.5627656966928" lon="11.332576613249302"><ele>67.0</ele><time>2026-03-22T10:23:53Z</time></trkpt><trkpt lat="42.56258259135328" lon="11.33273684318748"><ele>67.0</ele><time>2026-03-22T10:23:54Z</time></trkpt><trkpt lat="42.56239867071275" lon="11.332897031715518"><ele>67.0</ele><time>2026-03-22T10:23:55Z</time></trkpt><trkpt lat="42.562215988362794" lon="11.333059837492767"><ele>67.0</ele><time>2026-03-22T10:23:56Z</time></trkpt><trkpt lat="42.56203501889648" lon="11.333220047867735"><ele>67.0</ele><time>2026-03-22T10:23:57Z</time></trkpt><trkpt lat="42.56185664889109" lon="11.333374395596294"><ele>67.0</ele><time>2026-03-22T10:23:58Z</time></trkpt><trkpt lat="42.56168425360001" lon="11.33353041551485"><ele>67.0</ele><time>2026-03-22T10:23:59Z</time></trkpt><trkpt lat="42.5615176997429" lon="11.333680990462092"><ele>67.0</ele><time>2026-03-22T10:24:00Z</time></trkpt><trkpt lat="42.561354496309114" lon="11.333827047090931"><ele>67.0</ele><time>2026-03-22T10:24:01Z</time></trkpt><trkpt lat="42.56119298618816" lon="11.333969814820257"><ele>67.0</ele><time>2026-03-22T10:24:02Z</time></trkpt><trkpt lat="42.56103790216669" lon="11.334109531607716"><ele>66.0</ele><time>2026-03-22T10:24:03Z</time></trkpt><trkpt lat="42.56088895021012" lon="11.334237966105277"><ele>65.0</ele><time>2026-03-22T10:24:04Z</time></trkpt><trkpt lat="42.56074185381762" lon="11.33434682482322"><ele>64.0</ele><time>2026-03-22T10:24:05Z</time></trkpt><trkpt lat="42.560593435330595" lon="11.33440995073864"><ele>64.0</ele><time>2026-03-22T10:24:06Z</time></trkpt><trkpt lat="42.56043758446265" lon="11.334436566004701"><ele>64.0</ele><time>2026-03-22T10:24:07Z</time></trkpt><trkpt lat="42.56027600396493" lon="11.334421212840637"><ele>64.0</ele><time>2026-03-22T10:24:08Z</time></trkpt><trkpt lat="42.56010705381898" lon="11.334373853091943"><ele>64.0</ele><time>2026-03-22T10:24:09Z</time></trkpt><trkpt lat="42.55993751947035" lon="11.334321796800912"><ele>64.0</ele><time>2026-03-22T10:24:10Z</time></trkpt><trkpt lat="42.55976080362722" lon="11.334274426730717"><ele>64.0</ele><time>2026-03-22T10:24:11Z</time></trkpt><trkpt lat="42.55957852443396" lon="11.334222628964177"><ele>61.666666666666664</ele><time>2026-03-22T10:24:12Z</time></trkpt><trkpt lat="42.559392904603044" lon="11.334166185175787"><ele>59.33333333333333</ele><time>2026-03-22T10:24:13Z</time></trkpt><trkpt lat="42.55919703221972" lon="11.334113858817839"><ele>57.0</ele><time>2026-03-22T10:24:14Z</time></trkpt><trkpt lat="42.55899950854697" lon="11.334058734208703"><ele>57.0</ele><time>2026-03-22T10:24:15Z</time></trkpt><trkpt lat="42.55879720323565" lon="11.333999174062727"><ele>57.0</ele><time>2026-03-22T10:24:16Z</time></trkpt><trkpt lat="42.5585917352269" lon="11.333941184506562"><ele>57.0</ele><time>2026-03-22T10:24:17Z</time></trkpt><trkpt lat="42.558389224819834" lon="11.333847558476537"><ele>55.66666666666667</ele><time>2026-03-22T10:24:18Z</time></trkpt><trkpt lat="42.55817746432013" lon="11.333787063839436"><ele>54.333333333333336</ele><time>2026-03-22T10:24:19Z</time></trkpt><trkpt lat="42.55796297278186" lon="11.333727653107227"><ele>53.0</ele><time>2026-03-22T10:24:20Z</time></trkpt><trkpt lat="42.557747047186396" lon="11.33366830324062"><ele>52.66666666666667</ele><time>2026-03-22T10:24:21Z</time></trkpt><trkpt lat="42.55752876699233" lon="11.333612948697413"><ele>52.33333333333333</ele><time>2026-03-22T10:24:22Z</time></trkpt><trkpt lat="42.5573064959676" lon="11.333567637114582"><ele>52.0</ele><time>2026-03-22T10:24:23Z</time></trkpt><trkpt lat="42.55708067729822" lon="11.333555518504225"><ele>51.0</ele><time>2026-03-22T10:24:24Z</time></trkpt><trkpt lat="42.55685380803224" lon="11.333560137062616"><ele>50.0</ele><time>2026-03-22T10:24:25Z</time></trkpt><trkpt lat="42.55662730794224" lon="11.333566104992356"><ele>50.0</ele><time>2026-03-22T10:24:26Z</time></trkpt><trkpt lat="42.55640101268023" lon="11.333571844168558"><ele>50.0</ele><time>2026-03-22T10:24:27Z</time></trkpt><trkpt lat="42.556172777405074" lon="11.333579073607897"><ele>46.5</ele><time>2026-03-22T10:24:27.999Z</time></trkpt><trkpt lat="42.55594422150887" lon="11.333586347275231"><ele>43.0</ele><time>2026-03-22T10:24:28.999Z</time></trkpt><trkpt lat="42.55571475194733" lon="11.333592946388377"><ele>43.0</ele><time>2026-03-22T10:24:29.999Z</time></trkpt><trkpt lat="42.55548360724487" lon="11.33359937349769"><ele>43.0</ele><time>2026-03-22T10:24:30.999Z</time></trkpt><trkpt lat="42.55525092220494" lon="11.333605843436013"><ele>43.5</ele><time>2026-03-22T10:24:31.999Z</time></trkpt><trkpt lat="42.55501729813037" lon="11.333612339485166"><ele>44.0</ele><time>2026-03-22T10:24:32.999Z</time></trkpt><trkpt lat="42.554784500332644" lon="11.33361881255909"><ele>44.0</ele><time>2026-03-22T10:24:33.999Z</time></trkpt><trkpt lat="42.554549018650086" lon="11.333625360259651"><ele>44.0</ele><time>2026-03-22T10:24:34.999Z</time></trkpt><trkpt lat="42.55431374664846" lon="11.333631521633013"><ele>42.0</ele><time>2026-03-22T10:24:35.999Z</time></trkpt><trkpt lat="42.55407561759657" lon="11.33363763313496"><ele>40.0</ele><time>2026-03-22T10:24:36.999Z</time></trkpt><trkpt lat="42.55383721103309" lon="11.333643750020844"><ele>38.0</ele><time>2026-03-22T10:24:37.999Z</time></trkpt><trkpt lat="42.553601003379434" lon="11.333649810487046"><ele>36.0</ele><time>2026-03-22T10:24:38.999Z</time></trkpt><trkpt lat="42.55336431631062" lon="11.333655883255059"><ele>36.0</ele><time>2026-03-22T10:24:39.999Z</time></trkpt><trkpt lat="42.55312683460601" lon="11.333661976410383"><ele>36.0</ele><time>2026-03-22T10:24:40.999Z</time></trkpt><trkpt lat="42.55288875728284" lon="11.333668512325046"><ele>34.5</ele><time>2026-03-22T10:24:41.999Z</time></trkpt><trkpt lat="42.552651508534964" lon="11.333675129901051"><ele>33.0</ele><time>2026-03-22T10:24:42.999Z</time></trkpt><trkpt lat="42.5524150340679" lon="11.333681725878774"><ele>33.0</ele><time>2026-03-22T10:24:43.999Z</time></trkpt><trkpt lat="42.552179612345086" lon="11.333688292491859"><ele>33.0</ele><time>2026-03-22T10:24:44.999Z</time></trkpt><trkpt lat="42.55194467891596" lon="11.333694797239863"><ele>32.5</ele><time>2026-03-22T10:24:45.999Z</time></trkpt><trkpt lat="42.55170966602829" lon="11.333701286096876"><ele>32.0</ele><time>2026-03-22T10:24:46.999Z</time></trkpt><trkpt lat="42.551476496463586" lon="11.333707724058103"><ele>32.0</ele><time>2026-03-22T10:24:47.999Z</time></trkpt><trkpt lat="42.55124441038352" lon="11.333714132104026"><ele>32.0</ele><time>2026-03-22T10:24:48.999Z</time></trkpt><trkpt lat="42.55101391955308" lon="11.333720496103496"><ele>31.666666666666664</ele><time>2026-03-22T10:24:49.999Z</time></trkpt><trkpt lat="42.55078824126608" lon="11.333726369220429"><ele>31.333333333333336</ele><time>2026-03-22T10:24:50.999Z</time></trkpt><trkpt lat="42.550567780545045" lon="11.333731764180135"><ele>31.0</ele><time>2026-03-22T10:24:51.999Z</time></trkpt><trkpt lat="42.55035150624584" lon="11.333791542832017"><ele>30.666666666666668</ele><time>2026-03-22T10:24:52.999Z</time></trkpt><trkpt lat="42.55013845676874" lon="11.333798425632901"><ele>30.333333333333336</ele><time>2026-03-22T10:24:53.999Z</time></trkpt><trkpt lat="42.549928400975325" lon="11.333804304385225"><ele>30.0</ele><time>2026-03-22T10:24:54.999Z</time></trkpt><trkpt lat="42.54972075491711" lon="11.333809313730514"><ele>30.0</ele><time>2026-03-22T10:24:55.999Z</time></trkpt><trkpt lat="42.54951707836084" lon="11.333757439865034"><ele>30.0</ele><time>2026-03-22T10:24:56.999Z</time></trkpt><trkpt lat="42.54931867919248" lon="11.333762619863021"><ele>30.0</ele><time>2026-03-22T10:24:57.999Z</time></trkpt><trkpt lat="42.54912756211356" lon="11.333767746925455"><ele>30.0</ele><time>2026-03-22T10:24:58.999Z</time></trkpt><trkpt lat="42.54895371222377" lon="11.33377139511248"><ele>30.0</ele><time>2026-03-22T10:24:59.999Z</time></trkpt><trkpt lat="42.54879208787301" lon="11.3337732485986"><ele>30.0</ele><time>2026-03-22T10:25:00.999Z</time></trkpt><trkpt lat="42.548644380142974" lon="11.333778934291953"><ele>28.666666666666664</ele><time>2026-03-22T10:25:01.999Z</time></trkpt><trkpt lat="42.54851071017581" lon="11.333814554712644"><ele>27.333333333333332</ele><time>2026-03-22T10:25:02.999Z</time></trkpt><trkpt lat="42.54838152616772" lon="11.333903285402535"><ele>26.0</ele><time>2026-03-22T10:25:03.999Z</time></trkpt><trkpt lat="42.54827128699578" lon="11.334113330428814"><ele>25.0</ele><time>2026-03-22T10:25:04.999Z</time></trkpt><trkpt lat="42.548181609968196" lon="11.334302129206588"><ele>24.0</ele><time>2026-03-22T10:25:05.999Z</time></trkpt><trkpt lat="42.54809454397425" lon="11.334489126334299"><ele>23.0</ele><time>2026-03-22T10:25:06.999Z</time></trkpt><trkpt lat="42.54800523690696" lon="11.334662142705364"><ele>23.0</ele><time>2026-03-22T10:25:07.999Z</time></trkpt><trkpt lat="42.54790801233751" lon="11.334831104170302"><ele>23.0</ele><time>2026-03-22T10:25:08.999Z</time></trkpt><trkpt lat="42.547812515827566" lon="11.334964208906474"><ele>23.0</ele><time>2026-03-22T10:25:09.999Z</time></trkpt><trkpt lat="42.54770532636606" lon="11.335094209929487"><ele>23.0</ele><time>2026-03-22T10:25:10.999Z</time></trkpt><trkpt lat="42.54758679472321" lon="11.335203706094187"><ele>22.0</ele><time>2026-03-22T10:25:11.999Z</time></trkpt><trkpt lat="42.54745104947324" lon="11.335297563180873"><ele>21.0</ele><time>2026-03-22T10:25:12.999Z</time></trkpt><trkpt lat="42.54729647245726" lon="11.335377183446695"><ele>20.0</ele><time>2026-03-22T10:25:13.999Z</time></trkpt><trkpt lat="42.54712914640585" lon="11.335436176405311"><ele>19.0</ele><time>2026-03-22T10:25:14.999Z</time></trkpt><trkpt lat="42.54694930156533" lon="11.335488371839602"><ele>18.0</ele><time>2026-03-22T10:25:15.999Z</time></trkpt><trkpt lat="42.546763079839934" lon="11.33554268876509"><ele>17.0</ele><time>2026-03-22T10:25:16.999Z</time></trkpt><trkpt lat="42.54657486694829" lon="11.335598780796815"><ele>17.0</ele><time>2026-03-22T10:25:17.999Z</time></trkpt><trkpt lat="42.546381945240135" lon="11.335656535840995"><ele>17.0</ele><time>2026-03-22T10:25:18.999Z</time></trkpt><trkpt lat="42.54618642425368" lon="11.33571506902491"><ele>17.0</ele><time>2026-03-22T10:25:19.999Z</time></trkpt><trkpt lat="42.545988903751535" lon="11.335774200808562"><ele>17.333333333333336</ele><time>2026-03-22T10:25:20.999Z</time></trkpt><trkpt lat="42.545787467759276" lon="11.335834504772107"><ele>17.666666666666668</ele><time>2026-03-22T10:25:21.999Z</time></trkpt><trkpt lat="42.545585432217585" lon="11.335894988223668"><ele>18.0</ele><time>2026-03-22T10:25:22.999Z</time></trkpt><trkpt lat="42.54538225849376" lon="11.335955812413065"><ele>18.333333333333332</ele><time>2026-03-22T10:25:23.999Z</time></trkpt><trkpt lat="42.54517673116747" lon="11.336017341199387"><ele>18.666666666666664</ele><time>2026-03-22T10:25:24.999Z</time></trkpt><trkpt lat="42.54496965768714" lon="11.336079250668641"><ele>19.0</ele><time>2026-03-22T10:25:25.999Z</time></trkpt><trkpt lat="42.54476126092132" lon="11.336140661821899"><ele>19.0</ele><time>2026-03-22T10:25:26.999Z</time></trkpt><trkpt lat="42.54455164202664" lon="11.336203424377821"><ele>19.0</ele><time>2026-03-22T10:25:27.999Z</time></trkpt><trkpt lat="42.5443409440715" lon="11.336266508349146"><ele>19.0</ele><time>2026-03-22T10:25:28.999Z</time></trkpt><trkpt lat="42.54413259364181" lon="11.336328876457538"><ele>18.333333333333332</ele><time>2026-03-22T10:25:29.999Z</time></trkpt><trkpt lat="42.54392693959904" lon="11.336389871466391"><ele>17.666666666666668</ele><time>2026-03-22T10:25:31Z</time></trkpt><trkpt lat="42.543726977110325" lon="11.336449178419583"><ele>17.0</ele><time>2026-03-22T10:25:32Z</time></trkpt><trkpt lat="42.543535720605696" lon="11.336505903255647"><ele>17.0</ele><time>2026-03-22T10:25:33Z</time></trkpt><trkpt lat="42.543352474599715" lon="11.336560337275639"><ele>17.0</ele><time>2026-03-22T10:25:34Z</time></trkpt><trkpt lat="42.54317412333913" lon="11.336613907174467"><ele>17.0</ele><time>2026-03-22T10:25:35Z</time></trkpt><trkpt lat="42.542997345188404" lon="11.336681481296903"><ele>17.333333333333336</ele><time>2026-03-22T10:25:36Z</time></trkpt><trkpt lat="42.542815768100255" lon="11.336769008729101"><ele>17.666666666666668</ele><time>2026-03-22T10:25:37Z</time></trkpt><trkpt lat="42.542639758266496" lon="11.33688418533462"><ele>18.0</ele><time>2026-03-22T10:25:38Z</time></trkpt><trkpt lat="42.54246958011238" lon="11.337023408902025"><ele>18.0</ele><time>2026-03-22T10:25:39Z</time></trkpt><trkpt lat="42.542303619400734" lon="11.337183276839191"><ele>18.0</ele><time>2026-03-22T10:25:40Z</time></trkpt><trkpt lat="42.54215037984167" lon="11.337367229110448"><ele>18.0</ele><time>2026-03-22T10:25:41Z</time></trkpt><trkpt lat="42.54201085350699" lon="11.33757726823026"><ele>18.0</ele><time>2026-03-22T10:25:42Z</time></trkpt><trkpt lat="42.541884788467954" lon="11.337803252859613"><ele>18.0</ele><time>2026-03-22T10:25:43Z</time></trkpt><trkpt lat="42.54177353104761" lon="11.338045202472157"><ele>18.0</ele><time>2026-03-22T10:25:44Z</time></trkpt><trkpt lat="42.54166811214136" lon="11.338285696198158"><ele>18.0</ele><time>2026-03-22T10:25:45Z</time></trkpt><trkpt lat="42.541559901743724" lon="11.338525534378965"><ele>18.0</ele><time>2026-03-22T10:25:46Z</time></trkpt><trkpt lat="42.541450265099364" lon="11.338768533702087"><ele>18.0</ele><time>2026-03-22T10:25:47Z</time></trkpt><trkpt lat="42.54134105136536" lon="11.339013150776385"><ele>18.333333333333332</ele><time>2026-03-22T10:25:48Z</time></trkpt><trkpt lat="42.54123259969916" lon="11.339256483825995"><ele>18.666666666666664</ele><time>2026-03-22T10:25:49Z</time></trkpt><trkpt lat="42.541125143837085" lon="11.339497582732903"><ele>19.0</ele><time>2026-03-22T10:25:50Z</time></trkpt><trkpt lat="42.54102194002567" lon="11.33972914117677"><ele>19.333333333333332</ele><time>2026-03-22T10:25:51Z</time></trkpt><trkpt lat="42.540923872375934" lon="11.339948874572174"><ele>19.666666666666668</ele><time>2026-03-22T10:25:52Z</time></trkpt><trkpt lat="42.54083007125224" lon="11.340158273542679"><ele>20.0</ele><time>2026-03-22T10:25:53Z</time></trkpt><trkpt lat="42.54074154396569" lon="11.34035589944798"><ele>20.0</ele><time>2026-03-22T10:25:54Z</time></trkpt><trkpt lat="42.54065791916325" lon="11.340542581054867"><ele>20.0</ele><time>2026-03-22T10:25:55Z</time></trkpt><trkpt lat="42.54057924317608" lon="11.340718215018091"><ele>20.0</ele><time>2026-03-22T10:25:56Z</time></trkpt><trkpt lat="42.54050576093083" lon="11.340882255312135"><ele>20.4</ele><time>2026-03-22T10:25:57Z</time></trkpt><trkpt lat="42.5404397102943" lon="11.34102860176531"><ele>20.8</ele><time>2026-03-22T10:25:58Z</time></trkpt><trkpt lat="42.540379247497704" lon="11.3411647101741"><ele>21.200000000000003</ele><time>2026-03-22T10:25:59Z</time></trkpt><trkpt lat="42.5403252489759" lon="11.341286039721957"><ele>21.6</ele><time>2026-03-22T10:26:00Z</time></trkpt><trkpt lat="42.54027746779348" lon="11.341387925802639"><ele>22.0</ele><time>2026-03-22T10:26:01Z</time></trkpt><trkpt lat="42.54027251698714" lon="11.341500468538806"><ele>22.5</ele><time>2026-03-22T10:26:02Z</time></trkpt><trkpt lat="42.54023583555814" lon="11.341595573497571"><ele>23.0</ele><time>2026-03-22T10:26:04Z</time></trkpt><trkpt lat="42.54016882320965" lon="11.341619597514253"><ele>23.5</ele><time>2026-03-22T10:26:07Z</time></trkpt><trkpt lat="42.54029065051894" lon="11.341853880217153"><ele>24.0</ele><time>2026-03-22T10:26:10Z</time></trkpt><trkpt lat="42.54036756872129" lon="11.341921694092616"><ele>23.5</ele><time>2026-03-22T10:26:11Z</time></trkpt><trkpt lat="42.540438009593736" lon="11.342014353286174"><ele>23.0</ele><time>2026-03-22T10:26:12Z</time></trkpt><trkpt lat="42.540534448361626" lon="11.342122671032433"><ele>22.5</ele><time>2026-03-22T10:26:13Z</time></trkpt><trkpt lat="42.54064300206003" lon="11.342230325561687"><ele>22.0</ele><time>2026-03-22T10:26:14Z</time></trkpt><trkpt lat="42.54075946557707" lon="11.342347437691366"><ele>23.333333333333332</ele><time>2026-03-22T10:26:15Z</time></trkpt><trkpt lat="42.540876593377405" lon="11.342468325562978"><ele>24.666666666666664</ele><time>2026-03-22T10:26:16Z</time></trkpt><trkpt lat="42.541008062947085" lon="11.342599793699069"><ele>26.0</ele><time>2026-03-22T10:26:17Z</time></trkpt><trkpt lat="42.54113475171713" lon="11.342732383275253"><ele>26.333333333333332</ele><time>2026-03-22T10:26:18Z</time></trkpt><trkpt lat="42.54127035718894" lon="11.3428711436066"><ele>26.666666666666664</ele><time>2026-03-22T10:26:19Z</time></trkpt><trkpt lat="42.54141249736246" lon="11.343014512919591"><ele>27.0</ele><time>2026-03-22T10:26:20Z</time></trkpt><trkpt lat="42.5415597004436" lon="11.343159154083004"><ele>27.0</ele><time>2026-03-22T10:26:21Z</time></trkpt><trkpt lat="42.54171202003146" lon="11.343303641859679"><ele>27.0</ele><time>2026-03-22T10:26:22Z</time></trkpt><trkpt lat="42.54186746443709" lon="11.343452386548126"><ele>27.0</ele><time>2026-03-22T10:26:23Z</time></trkpt><trkpt lat="42.54201789695672" lon="11.343597916138314"><ele>28.0</ele><time>2026-03-22T10:26:24Z</time></trkpt><trkpt lat="42.54217211812917" lon="11.343753861463446"><ele>29.0</ele><time>2026-03-22T10:26:25Z</time></trkpt><trkpt lat="42.5423261745003" lon="11.34391478607749"><ele>30.0</ele><time>2026-03-22T10:26:26Z</time></trkpt><trkpt lat="42.54248178410903" lon="11.344081689422858"><ele>30.0</ele><time>2026-03-22T10:26:27Z</time></trkpt><trkpt lat="42.542640440058186" lon="11.344253066079107"><ele>30.0</ele><time>2026-03-22T10:26:28Z</time></trkpt><trkpt lat="42.54279691713087" lon="11.34443427998474"><ele>30.0</ele><time>2026-03-22T10:26:29Z</time></trkpt><trkpt lat="42.54295017567193" lon="11.3446238427877"><ele>29.333333333333336</ele><time>2026-03-22T10:26:30Z</time></trkpt><trkpt lat="42.543102127495274" lon="11.34481958170202"><ele>28.666666666666668</ele><time>2026-03-22T10:26:31Z</time></trkpt><trkpt lat="42.54325400540774" lon="11.34501609978276"><ele>28.0</ele><time>2026-03-22T10:26:32Z</time></trkpt><trkpt lat="42.54340995453686" lon="11.345213082247668"><ele>28.0</ele><time>2026-03-22T10:26:33Z</time></trkpt><trkpt lat="42.54356804808872" lon="11.345406091716368"><ele>28.0</ele><time>2026-03-22T10:26:34Z</time></trkpt><trkpt lat="42.5437289023972" lon="11.345599347059428"><ele>28.0</ele><time>2026-03-22T10:26:35Z</time></trkpt><trkpt lat="42.54389353478769" lon="11.345789394068658"><ele>26.666666666666668</ele><time>2026-03-22T10:26:36Z</time></trkpt><trkpt lat="42.5440620645745" lon="11.34597625552898"><ele>25.333333333333336</ele><time>2026-03-22T10:26:36.999Z</time></trkpt><trkpt lat="42.54423206425207" lon="11.346161378268336"><ele>24.0</ele><time>2026-03-22T10:26:37.999Z</time></trkpt><trkpt lat="42.54440037461159" lon="11.346343550277117"><ele>23.0</ele><time>2026-03-22T10:26:38.999Z</time></trkpt><trkpt lat="42.54456822699543" lon="11.346525785218095"><ele>22.0</ele><time>2026-03-22T10:26:39.999Z</time></trkpt><trkpt lat="42.54473866958413" lon="11.346711900533174"><ele>21.0</ele><time>2026-03-22T10:26:40.999Z</time></trkpt><trkpt lat="42.54490728061033" lon="11.346895397685886"><ele>21.0</ele><time>2026-03-22T10:26:41.999Z</time></trkpt><trkpt lat="42.545074558052676" lon="11.347077901604438"><ele>21.0</ele><time>2026-03-22T10:26:42.999Z</time></trkpt><trkpt lat="42.54524645372056" lon="11.347259389877914"><ele>21.0</ele><time>2026-03-22T10:26:43.999Z</time></trkpt><trkpt lat="42.54541659751282" lon="11.347435541812546"><ele>20.666666666666668</ele><time>2026-03-22T10:26:44.999Z</time></trkpt><trkpt lat="42.54558336802986" lon="11.34760129778067"><ele>20.333333333333336</ele><time>2026-03-22T10:26:45.999Z</time></trkpt><trkpt lat="42.54574746818267" lon="11.347756121273928"><ele>20.0</ele><time>2026-03-22T10:26:46.999Z</time></trkpt><trkpt lat="42.545897562139686" lon="11.347922408224976"><ele>21.0</ele><time>2026-03-22T10:26:47.999Z</time></trkpt><trkpt lat="42.54600121065954" lon="11.34813259141914"><ele>22.0</ele><time>2026-03-22T10:26:48.999Z</time></trkpt><trkpt lat="42.54609822018284" lon="11.348357538772825"><ele>23.0</ele><time>2026-03-22T10:26:49.999Z</time></trkpt><trkpt lat="42.546159351540076" lon="11.348598162778746"><ele>22.333333333333336</ele><time>2026-03-22T10:26:50.999Z</time></trkpt><trkpt lat="42.54624443190324" lon="11.348834039610011"><ele>21.666666666666668</ele><time>2026-03-22T10:26:51.999Z</time></trkpt><trkpt lat="42.546270787550476" lon="11.349103129270151"><ele>21.0</ele><time>2026-03-22T10:26:52.999Z</time></trkpt><trkpt lat="42.546293058660666" lon="11.349380745468114"><ele>21.0</ele><time>2026-03-22T10:26:53.999Z</time></trkpt><trkpt lat="42.54632070851803" lon="11.349653282807216"><ele>21.0</ele><time>2026-03-22T10:26:54.999Z</time></trkpt><trkpt lat="42.54631791236468" lon="11.349946785446148"><ele>21.0</ele><time>2026-03-22T10:26:55.999Z</time></trkpt><trkpt lat="42.54635583871801" lon="11.350232791144583"><ele>21.0</ele><time>2026-03-22T10:26:56.999Z</time></trkpt><trkpt lat="42.5464007285234" lon="11.350519650170853"><ele>21.0</ele><time>2026-03-22T10:26:57.999Z</time></trkpt><trkpt lat="42.54644866882647" lon="11.350805292783855"><ele>21.0</ele><time>2026-03-22T10:26:58.999Z</time></trkpt><trkpt lat="42.54650093291031" lon="11.351093607640905"><ele>22.333333333333336</ele><time>2026-03-22T10:26:59.999Z</time></trkpt><trkpt lat="42.54655724842644" lon="11.351375614511063"><ele>23.666666666666668</ele><time>2026-03-22T10:27:00.999Z</time></trkpt><trkpt lat="42.5466356912565" lon="11.351658043167854"><ele>25.0</ele><time>2026-03-22T10:27:01.999Z</time></trkpt><trkpt lat="42.5467357546229" lon="11.351918606163405"><ele>25.0</ele><time>2026-03-22T10:27:02.999Z</time></trkpt><trkpt lat="42.546874013928736" lon="11.35214786099568"><ele>25.0</ele><time>2026-03-22T10:27:03.999Z</time></trkpt><trkpt lat="42.54698921289397" lon="11.35239405836011"><ele>25.0</ele><time>2026-03-22T10:27:04.999Z</time></trkpt><trkpt lat="42.547111442530024" lon="11.352634322319771"><ele>25.333333333333336</ele><time>2026-03-22T10:27:05.999Z</time></trkpt><trkpt lat="42.54724568964712" lon="11.35285859493996"><ele>25.666666666666664</ele><time>2026-03-22T10:27:06.999Z</time></trkpt><trkpt lat="42.54739464363743" lon="11.353067490167422"><ele>26.0</ele><time>2026-03-22T10:27:07.999Z</time></trkpt><trkpt lat="42.54754634404609" lon="11.353264054529804"><ele>27.0</ele><time>2026-03-22T10:27:08.999Z</time></trkpt><trkpt lat="42.54767356772703" lon="11.353492666820777"><ele>28.0</ele><time>2026-03-22T10:27:09.999Z</time></trkpt><trkpt lat="42.54781549596671" lon="11.353691785493782"><ele>29.0</ele><time>2026-03-22T10:27:10.999Z</time></trkpt><trkpt lat="42.54794289650055" lon="11.353903970686607"><ele>30.0</ele><time>2026-03-22T10:27:11.999Z</time></trkpt><trkpt lat="42.548057730993406" lon="11.354138056675131"><ele>31.0</ele><time>2026-03-22T10:27:12.999Z</time></trkpt><trkpt lat="42.548166403174775" lon="11.354384028670042"><ele>32.0</ele><time>2026-03-22T10:27:13.999Z</time></trkpt><trkpt lat="42.548274180631566" lon="11.354631274843111"><ele>33.0</ele><time>2026-03-22T10:27:14.999Z</time></trkpt><trkpt lat="42.548382583412014" lon="11.35487995536379"><ele>34.0</ele><time>2026-03-22T10:27:15.999Z</time></trkpt><trkpt lat="42.548490672962764" lon="11.355125724891266"><ele>35.0</ele><time>2026-03-22T10:27:16.999Z</time></trkpt><trkpt lat="42.54859830858186" lon="11.355369917118278"><ele>35.0</ele><time>2026-03-22T10:27:17.999Z</time></trkpt><trkpt lat="42.54870267354816" lon="11.355606689842636"><ele>35.0</ele><time>2026-03-22T10:27:18.999Z</time></trkpt><trkpt lat="42.5488051859581" lon="11.355839259042291"><ele>35.0</ele><time>2026-03-22T10:27:19.999Z</time></trkpt><trkpt lat="42.548921194654156" lon="11.356070064541967"><ele>35.0</ele><time>2026-03-22T10:27:20.999Z</time></trkpt><trkpt lat="42.5490572366744" lon="11.35627940798205"><ele>35.0</ele><time>2026-03-22T10:27:21.999Z</time></trkpt><trkpt lat="42.549201156462516" lon="11.356474363407832"><ele>35.0</ele><time>2026-03-22T10:27:22.999Z</time></trkpt><trkpt lat="42.54934148390036" lon="11.356662338527597"><ele>35.0</ele><time>2026-03-22T10:27:23.999Z</time></trkpt><trkpt lat="42.54947727292001" lon="11.356843211457392"><ele>35.0</ele><time>2026-03-22T10:27:24.999Z</time></trkpt><trkpt lat="42.549607627057696" lon="11.35701629905164"><ele>35.0</ele><time>2026-03-22T10:27:25.999Z</time></trkpt><trkpt lat="42.549732885269385" lon="11.357182620130008"><ele>35.33333333333333</ele><time>2026-03-22T10:27:26.999Z</time></trkpt><trkpt lat="42.54985659956089" lon="11.357346891"><ele>35.666666666666664</ele><time>2026-03-22T10:27:27.999Z</time></trkpt><trkpt lat="42.549978853310435" lon="11.357509223780957"><ele>36.0</ele><time>2026-03-22T10:27:28.999Z</time></trkpt><trkpt lat="42.5500997830789" lon="11.357669650286404"><ele>36.0</ele><time>2026-03-22T10:27:29.999Z</time></trkpt><trkpt lat="42.55021952033947" lon="11.357828088984034"><ele>36.0</ele><time>2026-03-22T10:27:30.999Z</time></trkpt><trkpt lat="42.55033692302706" lon="11.357983438495147"><ele>36.0</ele><time>2026-03-22T10:27:31.999Z</time></trkpt><trkpt lat="42.55045446033062" lon="11.358138966117814"><ele>37.0</ele><time>2026-03-22T10:27:32.999Z</time></trkpt><trkpt lat="42.55057341000717" lon="11.358296362675931"><ele>38.0</ele><time>2026-03-22T10:27:33.999Z</time></trkpt><trkpt lat="42.550691086133725" lon="11.358452076531114"><ele>39.0</ele><time>2026-03-22T10:27:34.999Z</time></trkpt><trkpt lat="42.550811008214076" lon="11.358610763902426"><ele>39.0</ele><time>2026-03-22T10:27:35.999Z</time></trkpt><trkpt lat="42.55093172814108" lon="11.358770507027485"><ele>39.0</ele><time>2026-03-22T10:27:37Z</time></trkpt><trkpt lat="42.55106895082342" lon="11.358912914777152"><ele>39.0</ele><time>2026-03-22T10:27:38Z</time></trkpt><trkpt lat="42.55119095204738" lon="11.359082527226649"><ele>39.333333333333336</ele><time>2026-03-22T10:27:39Z</time></trkpt><trkpt lat="42.55131316636435" lon="11.35924719779"><ele>39.66666666666667</ele><time>2026-03-22T10:27:40Z</time></trkpt><trkpt lat="42.551432633995795" lon="11.359428136854902"><ele>40.0</ele><time>2026-03-22T10:27:41Z</time></trkpt><trkpt lat="42.55154710844099" lon="11.359616963187527"><ele>40.66666666666667</ele><time>2026-03-22T10:27:42Z</time></trkpt><trkpt lat="42.551653047280645" lon="11.35981376393243"><ele>41.333333333333336</ele><time>2026-03-22T10:27:43Z</time></trkpt><trkpt lat="42.551753999722635" lon="11.360024284373308"><ele>42.0</ele><time>2026-03-22T10:27:44Z</time></trkpt><trkpt lat="42.551848571594235" lon="11.36023906013139"><ele>42.0</ele><time>2026-03-22T10:27:45Z</time></trkpt><trkpt lat="42.55193873166593" lon="11.360453095681754"><ele>42.0</ele><time>2026-03-22T10:27:46Z</time></trkpt><trkpt lat="42.55202494359303" lon="11.360673179223802"><ele>42.0</ele><time>2026-03-22T10:27:47Z</time></trkpt><trkpt lat="42.55211054284257" lon="11.36090683868174"><ele>42.666666666666664</ele><time>2026-03-22T10:27:48Z</time></trkpt><trkpt lat="42.55218838134876" lon="11.361159178244192"><ele>43.33333333333333</ele><time>2026-03-22T10:27:49Z</time></trkpt><trkpt lat="42.55226647970663" lon="11.361423464683888"><ele>44.0</ele><time>2026-03-22T10:27:50Z</time></trkpt><trkpt lat="42.55234973781414" lon="11.361693678626189"><ele>44.0</ele><time>2026-03-22T10:27:51Z</time></trkpt><trkpt lat="42.552433471278064" lon="11.361970786636826"><ele>44.0</ele><time>2026-03-22T10:27:52Z</time></trkpt><trkpt lat="42.55251359528074" lon="11.362254405779941"><ele>44.0</ele><time>2026-03-22T10:27:53Z</time></trkpt><trkpt lat="42.552591333214174" lon="11.362544198290232"><ele>45.0</ele><time>2026-03-22T10:27:54Z</time></trkpt><trkpt lat="42.55266628712709" lon="11.362833675358493"><ele>46.0</ele><time>2026-03-22T10:27:55Z</time></trkpt><trkpt lat="42.55274421622067" lon="11.363121898617882"><ele>47.0</ele><time>2026-03-22T10:27:56Z</time></trkpt><trkpt lat="42.5528259668385" lon="11.363407367861111"><ele>48.0</ele><time>2026-03-22T10:27:57Z</time></trkpt><trkpt lat="42.552909116657524" lon="11.36369109087809"><ele>47.666666666666664</ele><time>2026-03-22T10:27:58Z</time></trkpt><trkpt lat="42.55299225710859" lon="11.363971763977611"><ele>47.33333333333333</ele><time>2026-03-22T10:27:59Z</time></trkpt><trkpt lat="42.55307391239003" lon="11.364241193116852"><ele>47.0</ele><time>2026-03-22T10:28:00Z</time></trkpt><trkpt lat="42.553156300347176" lon="11.364492063079485"><ele>47.0</ele><time>2026-03-22T10:28:01Z</time></trkpt><trkpt lat="42.55324392833799" lon="11.364733793224298"><ele>47.0</ele><time>2026-03-22T10:28:02Z</time></trkpt><trkpt lat="42.553335284900975" lon="11.364959194007344"><ele>47.0</ele><time>2026-03-22T10:28:03Z</time></trkpt><trkpt lat="42.55342790717126" lon="11.36516844234476"><ele>47.0</ele><time>2026-03-22T10:28:04Z</time></trkpt><trkpt lat="42.55351437546239" lon="11.365364558430482"><ele>47.0</ele><time>2026-03-22T10:28:05Z</time></trkpt><trkpt lat="42.55358555569112" lon="11.365552745972417"><ele>47.0</ele><time>2026-03-22T10:28:06Z</time></trkpt><trkpt lat="42.553638881545695" lon="11.365731710543626"><ele>47.0</ele><time>2026-03-22T10:28:07Z</time></trkpt><trkpt lat="42.55366267128426" lon="11.365912867234421"><ele>47.0</ele><time>2026-03-22T10:28:08Z</time></trkpt><trkpt lat="42.55367261578118" lon="11.366088094439428"><ele>47.0</ele><time>2026-03-22T10:28:09Z</time></trkpt><trkpt lat="42.5537227076467" lon="11.366249473965548"><ele>47.0</ele><time>2026-03-22T10:28:10Z</time></trkpt><trkpt lat="42.553801117715345" lon="11.366410085090639"><ele>47.33333333333333</ele><time>2026-03-22T10:28:11Z</time></trkpt><trkpt lat="42.55386874611938" lon="11.366587616552906"><ele>47.666666666666664</ele><time>2026-03-22T10:28:12Z</time></trkpt><trkpt lat="42.553904065855434" lon="11.366789848980899"><ele>48.0</ele><time>2026-03-22T10:28:13Z</time></trkpt><trkpt lat="42.55392611923765" lon="11.367007516946481"><ele>48.0</ele><time>2026-03-22T10:28:14Z</time></trkpt><trkpt lat="42.55396293241435" lon="11.367232741862665"><ele>48.0</ele><time>2026-03-22T10:28:15Z</time></trkpt><trkpt lat="42.55401802438933" lon="11.367459913886758"><ele>48.0</ele><time>2026-03-22T10:28:16Z</time></trkpt><trkpt lat="42.554082013267355" lon="11.367692954920347"><ele>48.0</ele><time>2026-03-22T10:28:17Z</time></trkpt><trkpt lat="42.55414893580432" lon="11.367931201678676"><ele>48.0</ele><time>2026-03-22T10:28:18Z</time></trkpt><trkpt lat="42.55421041571192" lon="11.368176261814039"><ele>48.0</ele><time>2026-03-22T10:28:19Z</time></trkpt><trkpt lat="42.55425891250823" lon="11.36842905218757"><ele>48.33333333333333</ele><time>2026-03-22T10:28:20Z</time></trkpt><trkpt lat="42.5542902320079" lon="11.36869027146791"><ele>48.666666666666664</ele><time>2026-03-22T10:28:21Z</time></trkpt><trkpt lat="42.55430710380293" lon="11.36895929337893"><ele>49.0</ele><time>2026-03-22T10:28:22Z</time></trkpt><trkpt lat="42.554312446665485" lon="11.369233871028543"><ele>48.666666666666664</ele><time>2026-03-22T10:28:23Z</time></trkpt><trkpt lat="42.55430855631336" lon="11.369513808805122"><ele>48.33333333333333</ele><time>2026-03-22T10:28:24Z</time></trkpt><trkpt lat="42.55430127981581" lon="11.369800833891412"><ele>48.0</ele><time>2026-03-22T10:28:25Z</time></trkpt><trkpt lat="42.554298128945774" lon="11.370085994772179"><ele>48.0</ele><time>2026-03-22T10:28:26Z</time></trkpt><trkpt lat="42.55429802552355" lon="11.370373012931303"><ele>48.0</ele><time>2026-03-22T10:28:27Z</time></trkpt><trkpt lat="42.55429669346398" lon="11.370659478934016"><ele>48.0</ele><time>2026-03-22T10:28:28Z</time></trkpt><trkpt lat="42.55429653747143" lon="11.37094679028594"><ele>48.0</ele><time>2026-03-22T10:28:29Z</time></trkpt><trkpt lat="42.55430053081948" lon="11.371237798556127"><ele>48.0</ele><time>2026-03-22T10:28:30Z</time></trkpt><trkpt lat="42.55430927818872" lon="11.371534012170969"><ele>48.0</ele><time>2026-03-22T10:28:31Z</time></trkpt><trkpt lat="42.554323173666766" lon="11.371841026840753"><ele>48.0</ele><time>2026-03-22T10:28:32Z</time></trkpt><trkpt lat="42.55434059823305" lon="11.37214999710423"><ele>48.0</ele><time>2026-03-22T10:28:33Z</time></trkpt><trkpt lat="42.55436177515144" lon="11.372465061769482"><ele>46.0</ele><time>2026-03-22T10:28:34Z</time></trkpt><trkpt lat="42.55438698542462" lon="11.37278534845384"><ele>44.0</ele><time>2026-03-22T10:28:35Z</time></trkpt><trkpt lat="42.554415172795316" lon="11.373111795386881"><ele>42.0</ele><time>2026-03-22T10:28:36Z</time></trkpt><trkpt lat="42.5544479656448" lon="11.373441155421467"><ele>40.0</ele><time>2026-03-22T10:28:37Z</time></trkpt><trkpt lat="42.554435069800114" lon="11.373787225266849"><ele>37.0</ele><time>2026-03-22T10:28:38Z</time></trkpt><trkpt lat="42.55446765270395" lon="11.37412767536996"><ele>34.0</ele><time>2026-03-22T10:28:39Z</time></trkpt><trkpt lat="42.55450173715964" lon="11.374473381385835"><ele>34.5</ele><time>2026-03-22T10:28:40Z</time></trkpt><trkpt lat="42.55453583224809" lon="11.37482140193626"><ele>35.0</ele><time>2026-03-22T10:28:41Z</time></trkpt><trkpt lat="42.55456884348202" lon="11.375170641990389"><ele>35.0</ele><time>2026-03-22T10:28:42Z</time></trkpt><trkpt lat="42.55460181133138" lon="11.375515316608624"><ele>35.0</ele><time>2026-03-22T10:28:43Z</time></trkpt><trkpt lat="42.55463473088294" lon="11.375859196883592"><ele>34.5</ele><time>2026-03-22T10:28:44Z</time></trkpt><trkpt lat="42.55466753050811" lon="11.376201824367437"><ele>34.0</ele><time>2026-03-22T10:28:45Z</time></trkpt><trkpt lat="42.55470033766595" lon="11.376544529609939"><ele>34.0</ele><time>2026-03-22T10:28:46Z</time></trkpt><trkpt lat="42.554732957855585" lon="11.37688528216724"><ele>34.0</ele><time>2026-03-22T10:28:47Z</time></trkpt><trkpt lat="42.55475932184488" lon="11.377222608066571"><ele>33.5</ele><time>2026-03-22T10:28:48Z</time></trkpt><trkpt lat="42.554772211571475" lon="11.377559604927352"><ele>33.0</ele><time>2026-03-22T10:28:48.999Z</time></trkpt><trkpt lat="42.554771898897265" lon="11.37789072796485"><ele>32.5</ele><time>2026-03-22T10:28:49.999Z</time></trkpt><trkpt lat="42.55476354018062" lon="11.378223326965188"><ele>32.0</ele><time>2026-03-22T10:28:50.999Z</time></trkpt><trkpt lat="42.55475686212135" lon="11.378551486005593"><ele>32.5</ele><time>2026-03-22T10:28:51.999Z</time></trkpt><trkpt lat="42.55475020073502" lon="11.378878825885723"><ele>33.0</ele><time>2026-03-22T10:28:52.999Z</time></trkpt><trkpt lat="42.554743536934865" lon="11.379206284201638"><ele>33.0</ele><time>2026-03-22T10:28:53.999Z</time></trkpt><trkpt lat="42.55473688042706" lon="11.379533384267678"><ele>33.0</ele><time>2026-03-22T10:28:54.999Z</time></trkpt><trkpt lat="42.554730168470016" lon="11.379863201569545"><ele>34.0</ele><time>2026-03-22T10:28:55.999Z</time></trkpt><trkpt lat="42.554722130505965" lon="11.380188354519028"><ele>35.0</ele><time>2026-03-22T10:28:56.999Z</time></trkpt><trkpt lat="42.55471593482583" lon="11.380510269837762"><ele>35.5</ele><time>2026-03-22T10:28:57.999Z</time></trkpt><trkpt lat="42.554709738763506" lon="11.380830862643721"><ele>36.0</ele><time>2026-03-22T10:28:58.999Z</time></trkpt><trkpt lat="42.554710538718574" lon="11.381153350722608"><ele>37.5</ele><time>2026-03-22T10:28:59.999Z</time></trkpt><trkpt lat="42.554732831900516" lon="11.381469828147571"><ele>39.0</ele><time>2026-03-22T10:29:00.999Z</time></trkpt><trkpt lat="42.55477131486843" lon="11.381778862817203"><ele>39.0</ele><time>2026-03-22T10:29:01.999Z</time></trkpt><trkpt lat="42.554809407737565" lon="11.382079013242985"><ele>39.0</ele><time>2026-03-22T10:29:02.999Z</time></trkpt><trkpt lat="42.55484464270786" lon="11.382359087062301"><ele>39.0</ele><time>2026-03-22T10:29:03.999Z</time></trkpt><trkpt lat="42.55487504378308" lon="11.38263195835627"><ele>38.666666666666664</ele><time>2026-03-22T10:29:04.999Z</time></trkpt><trkpt lat="42.55487647117162" lon="11.382889477108462"><ele>38.33333333333333</ele><time>2026-03-22T10:29:05.999Z</time></trkpt><trkpt lat="42.55483382906473" lon="11.383126661458368"><ele>38.0</ele><time>2026-03-22T10:29:06.999Z</time></trkpt><trkpt lat="42.55475866203613" lon="11.383353359104955"><ele>38.0</ele><time>2026-03-22T10:29:07.999Z</time></trkpt><trkpt lat="42.554643796643134" lon="11.383538478642969"><ele>38.0</ele><time>2026-03-22T10:29:08.999Z</time></trkpt><trkpt lat="42.55450880817083" lon="11.383688317788174"><ele>38.0</ele><time>2026-03-22T10:29:09.999Z</time></trkpt><trkpt lat="42.55435384332702" lon="11.383788683343012"><ele>38.666666666666664</ele><time>2026-03-22T10:29:10.999Z</time></trkpt><trkpt lat="42.554176609207055" lon="11.383863700701186"><ele>39.333333333333336</ele><time>2026-03-22T10:29:11.999Z</time></trkpt><trkpt lat="42.553988346327685" lon="11.383940359425578"><ele>40.0</ele><time>2026-03-22T10:29:12.999Z</time></trkpt><trkpt lat="42.55379204364686" lon="11.384020248322843"><ele>38.333333333333336</ele><time>2026-03-22T10:29:13.999Z</time></trkpt><trkpt lat="42.553590091991026" lon="11.384102436181022"><ele>36.666666666666664</ele><time>2026-03-22T10:29:14.999Z</time></trkpt><trkpt lat="42.553388064851724" lon="11.384183901036101"><ele>35.0</ele><time>2026-03-22T10:29:15.999Z</time></trkpt><trkpt lat="42.553183821976084" lon="11.384265730628536"><ele>35.0</ele><time>2026-03-22T10:29:16.999Z</time></trkpt><trkpt lat="42.55298063059992" lon="11.384348474336518"><ele>35.0</ele><time>2026-03-22T10:29:17.999Z</time></trkpt><trkpt lat="42.552762363514034" lon="11.384438995280663"><ele>35.0</ele><time>2026-03-22T10:29:18.999Z</time></trkpt><trkpt lat="42.55255112647057" lon="11.384526600682326"><ele>34.666666666666664</ele><time>2026-03-22T10:29:19.999Z</time></trkpt><trkpt lat="42.552338752875976" lon="11.384614677448361"><ele>34.333333333333336</ele><time>2026-03-22T10:29:20.999Z</time></trkpt><trkpt lat="42.552125891243776" lon="11.3847004716886"><ele>34.0</ele><time>2026-03-22T10:29:21.999Z</time></trkpt><trkpt lat="42.55191315136987" lon="11.384786091004608"><ele>38.0</ele><time>2026-03-22T10:29:22.999Z</time></trkpt><trkpt lat="42.55169591401941" lon="11.384881388751575"><ele>42.0</ele><time>2026-03-22T10:29:23.999Z</time></trkpt><trkpt lat="42.55148174308832" lon="11.385005612584136"><ele>42.0</ele><time>2026-03-22T10:29:24.999Z</time></trkpt><trkpt lat="42.55128109740123" lon="11.38517610412473"><ele>42.0</ele><time>2026-03-22T10:29:25.999Z</time></trkpt><trkpt lat="42.55110071694816" lon="11.385386567145643"><ele>44.5</ele><time>2026-03-22T10:29:26.999Z</time></trkpt><trkpt lat="42.55094934790365" lon="11.385637928207883"><ele>47.0</ele><time>2026-03-22T10:29:27.999Z</time></trkpt><trkpt lat="42.55082694981893" lon="11.38591378864914"><ele>47.0</ele><time>2026-03-22T10:29:28.999Z</time></trkpt><trkpt lat="42.55074939100532" lon="11.386206816437564"><ele>47.0</ele><time>2026-03-22T10:29:29.999Z</time></trkpt><trkpt lat="42.55069800524463" lon="11.386510337962658"><ele>47.0</ele><time>2026-03-22T10:29:30.999Z</time></trkpt><trkpt lat="42.550664351370344" lon="11.386828140080393"><ele>47.0</ele><time>2026-03-22T10:29:31.999Z</time></trkpt><trkpt lat="42.55062812623626" lon="11.38714480891709"><ele>46.0</ele><time>2026-03-22T10:29:32.999Z</time></trkpt><trkpt lat="42.55059064200185" lon="11.387466725213892"><ele>45.0</ele><time>2026-03-22T10:29:33.999Z</time></trkpt><trkpt lat="42.550552798145034" lon="11.387791729948015"><ele>45.5</ele><time>2026-03-22T10:29:34.999Z</time></trkpt><trkpt lat="42.55051274401424" lon="11.388135716526902"><ele>46.0</ele><time>2026-03-22T10:29:35.999Z</time></trkpt><trkpt lat="42.55047363301363" lon="11.388471603764762"><ele>46.0</ele><time>2026-03-22T10:29:36.999Z</time></trkpt><trkpt lat="42.55043447887624" lon="11.38881035992616"><ele>46.0</ele><time>2026-03-22T10:29:37.999Z</time></trkpt><trkpt lat="42.55039558877502" lon="11.389147614139576"><ele>42.0</ele><time>2026-03-22T10:29:38.999Z</time></trkpt><trkpt lat="42.550356113248554" lon="11.389489945383616"><ele>38.0</ele><time>2026-03-22T10:29:39.999Z</time></trkpt><trkpt lat="42.55031647725599" lon="11.38983366804449"><ele>38.0</ele><time>2026-03-22T10:29:40.999Z</time></trkpt><trkpt lat="42.550276670879704" lon="11.390178868282685"><ele>38.0</ele><time>2026-03-22T10:29:41.999Z</time></trkpt><trkpt lat="42.55023713690835" lon="11.390527021437629"><ele>38.5</ele><time>2026-03-22T10:29:43Z</time></trkpt><trkpt lat="42.55019711780585" lon="11.390874730925594"><ele>39.0</ele><time>2026-03-22T10:29:44Z</time></trkpt><trkpt lat="42.55015609779934" lon="11.391224321009044"><ele>39.0</ele><time>2026-03-22T10:29:45Z</time></trkpt><trkpt lat="42.55011076617354" lon="11.391573747266117"><ele>39.0</ele><time>2026-03-22T10:29:46Z</time></trkpt><trkpt lat="42.55005782247623" lon="11.391923034413365"><ele>40.5</ele><time>2026-03-22T10:29:47Z</time></trkpt><trkpt lat="42.55000316422303" lon="11.392271731742737"><ele>42.0</ele><time>2026-03-22T10:29:48Z</time></trkpt><trkpt lat="42.54994735772823" lon="11.392621272045737"><ele>42.0</ele><time>2026-03-22T10:29:49Z</time></trkpt><trkpt lat="42.54989174446337" lon="11.392969591382549"><ele>42.0</ele><time>2026-03-22T10:29:50Z</time></trkpt><trkpt lat="42.54983615252736" lon="11.393317764045936"><ele>43.5</ele><time>2026-03-22T10:29:51Z</time></trkpt><trkpt lat="42.549782171123084" lon="11.393667134554992"><ele>45.0</ele><time>2026-03-22T10:29:52Z</time></trkpt><trkpt lat="42.54975964871457" lon="11.394024766468782"><ele>46.0</ele><time>2026-03-22T10:29:53Z</time></trkpt><trkpt lat="42.54970176031941" lon="11.394372772478302"><ele>47.0</ele><time>2026-03-22T10:29:54Z</time></trkpt><trkpt lat="42.549641553895285" lon="11.394719913915784"><ele>49.5</ele><time>2026-03-22T10:29:55Z</time></trkpt><trkpt lat="42.549580743558515" lon="11.395066988028981"><ele>52.0</ele><time>2026-03-22T10:29:56Z</time></trkpt><trkpt lat="42.549517804947705" lon="11.395412485309118"><ele>46.0</ele><time>2026-03-22T10:29:57Z</time></trkpt><trkpt lat="42.549451162033584" lon="11.395757258056959"><ele>40.0</ele><time>2026-03-22T10:29:58Z</time></trkpt><trkpt lat="42.54938246020813" lon="11.396101444632704"><ele>40.5</ele><time>2026-03-22T10:29:59Z</time></trkpt><trkpt lat="42.54931471237674" lon="11.396444976228283"><ele>41.0</ele><time>2026-03-22T10:30:00Z</time></trkpt><trkpt lat="42.54924956973314" lon="11.396788910985041"><ele>41.0</ele><time>2026-03-22T10:30:01Z</time></trkpt><trkpt lat="42.54919127115606" lon="11.397129092449173"><ele>41.0</ele><time>2026-03-22T10:30:02Z</time></trkpt><trkpt lat="42.54913070192378" lon="11.397465557665283"><ele>42.0</ele><time>2026-03-22T10:30:03Z</time></trkpt><trkpt lat="42.54905356355267" lon="11.397794899928344"><ele>43.0</ele><time>2026-03-22T10:30:04Z</time></trkpt><trkpt lat="42.548950737258416" lon="11.398113889817147"><ele>42.0</ele><time>2026-03-22T10:30:05Z</time></trkpt><trkpt lat="42.548833976139896" lon="11.398426704598155"><ele>41.0</ele><time>2026-03-22T10:30:06Z</time></trkpt><trkpt lat="42.54870692354293" lon="11.398731215776573"><ele>42.5</ele><time>2026-03-22T10:30:07Z</time></trkpt><trkpt lat="42.54857158099371" lon="11.399027777025662"><ele>44.0</ele><time>2026-03-22T10:30:08Z</time></trkpt><trkpt lat="42.548420832128784" lon="11.399307161369473"><ele>44.0</ele><time>2026-03-22T10:30:09Z</time></trkpt><trkpt lat="42.54826025660971" lon="11.399572725427424"><ele>44.0</ele><time>2026-03-22T10:30:10Z</time></trkpt><trkpt lat="42.5481043256702" lon="11.399838618942045"><ele>43.0</ele><time>2026-03-22T10:30:11Z</time></trkpt><trkpt lat="42.547950021104505" lon="11.40010928961516"><ele>42.0</ele><time>2026-03-22T10:30:12Z</time></trkpt><trkpt lat="42.547794389096175" lon="11.400380103524888"><ele>43.5</ele><time>2026-03-22T10:30:13Z</time></trkpt><trkpt lat="42.5476396732395" lon="11.400651534454319"><ele>45.0</ele><time>2026-03-22T10:30:14Z</time></trkpt><trkpt lat="42.54749279371632" lon="11.400926148752301"><ele>45.0</ele><time>2026-03-22T10:30:15Z</time></trkpt><trkpt lat="42.547348568031104" lon="11.401202626253161"><ele>45.0</ele><time>2026-03-22T10:30:16Z</time></trkpt><trkpt lat="42.54720777506298" lon="11.401480300218488"><ele>43.0</ele><time>2026-03-22T10:30:17Z</time></trkpt><trkpt lat="42.54708382905144" lon="11.401771486549235"><ele>41.0</ele><time>2026-03-22T10:30:18Z</time></trkpt><trkpt lat="42.5469760032963" lon="11.402074518808925"><ele>42.0</ele><time>2026-03-22T10:30:19Z</time></trkpt><trkpt lat="42.546872481872676" lon="11.402383843762847"><ele>43.0</ele><time>2026-03-22T10:30:20Z</time></trkpt><trkpt lat="42.54676917852862" lon="11.402696630723705"><ele>45.0</ele><time>2026-03-22T10:30:21Z</time></trkpt><trkpt lat="42.54665960557081" lon="11.403009924435596"><ele>47.0</ele><time>2026-03-22T10:30:22Z</time></trkpt><trkpt lat="42.546544368782996" lon="11.403319184738672"><ele>47.0</ele><time>2026-03-22T10:30:23Z</time></trkpt><trkpt lat="42.54642497740287" lon="11.403623339717528"><ele>47.0</ele><time>2026-03-22T10:30:24Z</time></trkpt><trkpt lat="42.546303486236184" lon="11.403925945637795"><ele>45.0</ele><time>2026-03-22T10:30:25Z</time></trkpt><trkpt lat="42.54617434838345" lon="11.40422341999255"><ele>43.0</ele><time>2026-03-22T10:30:26Z</time></trkpt><trkpt lat="42.54603279410615" lon="11.404510525079086"><ele>45.0</ele><time>2026-03-22T10:30:27Z</time></trkpt><trkpt lat="42.54588390355264" lon="11.404788394077302"><ele>47.0</ele><time>2026-03-22T10:30:28Z</time></trkpt><trkpt lat="42.545741324974905" lon="11.405067675471946"><ele>47.0</ele><time>2026-03-22T10:30:29Z</time></trkpt><trkpt lat="42.545605549453086" lon="11.405345894032296"><ele>47.0</ele><time>2026-03-22T10:30:30Z</time></trkpt><trkpt lat="42.54547444143246" lon="11.405619932420695"><ele>46.5</ele><time>2026-03-22T10:30:31Z</time></trkpt><trkpt lat="42.545352359124415" lon="11.405897232880024"><ele>46.0</ele><time>2026-03-22T10:30:32Z</time></trkpt><trkpt lat="42.545237933272695" lon="11.406170763816212"><ele>46.333333333333336</ele><time>2026-03-22T10:30:33Z</time></trkpt><trkpt lat="42.545129514190016" lon="11.406432374876465"><ele>46.666666666666664</ele><time>2026-03-22T10:30:34Z</time></trkpt><trkpt lat="42.54503357596734" lon="11.406677806578939"><ele>47.0</ele><time>2026-03-22T10:30:35Z</time></trkpt><trkpt lat="42.54496255249869" lon="11.406913999799421"><ele>47.0</ele><time>2026-03-22T10:30:36Z</time></trkpt><trkpt lat="42.544919467803005" lon="11.407172288494444"><ele>47.0</ele><time>2026-03-22T10:30:37Z</time></trkpt><trkpt lat="42.544917102947" lon="11.407437959899521"><ele>47.0</ele><time>2026-03-22T10:30:38Z</time></trkpt><trkpt lat="42.54494624680727" lon="11.40770696798676"><ele>47.0</ele><time>2026-03-22T10:30:39Z</time></trkpt><trkpt lat="42.545022623937776" lon="11.40796600868917"><ele>47.0</ele><time>2026-03-22T10:30:40Z</time></trkpt><trkpt lat="42.54512392520278" lon="11.408222366377117"><ele>47.0</ele><time>2026-03-22T10:30:41Z</time></trkpt><trkpt lat="42.54524036014581" lon="11.40847790591596"><ele>46.5</ele><time>2026-03-22T10:30:42Z</time></trkpt><trkpt lat="42.54535447652967" lon="11.408738345845006"><ele>46.0</ele><time>2026-03-22T10:30:43Z</time></trkpt><trkpt lat="42.54546364941475" lon="11.40901283258411"><ele>46.66666666666667</ele><time>2026-03-22T10:30:44Z</time></trkpt><trkpt lat="42.54556935879836" lon="11.409284684107936"><ele>47.333333333333336</ele><time>2026-03-22T10:30:45Z</time></trkpt><trkpt lat="42.54566275844942" lon="11.409554073358565"><ele>48.0</ele><time>2026-03-22T10:30:46Z</time></trkpt><trkpt lat="42.54571541685478" lon="11.409833488291117"><ele>48.0</ele><time>2026-03-22T10:30:47Z</time></trkpt><trkpt lat="42.54572217922739" lon="11.410126984001614"><ele>48.0</ele><time>2026-03-22T10:30:48Z</time></trkpt><trkpt lat="42.54569878410111" lon="11.410418100150219"><ele>48.0</ele><time>2026-03-22T10:30:49Z</time></trkpt><trkpt lat="42.54567987536697" lon="11.41071206401779"><ele>48.0</ele><time>2026-03-22T10:30:50Z</time></trkpt><trkpt lat="42.545668345373336" lon="11.411019492761719"><ele>48.0</ele><time>2026-03-22T10:30:51Z</time></trkpt><trkpt lat="42.54566276493182" lon="11.411326197605646"><ele>48.0</ele><time>2026-03-22T10:30:52Z</time></trkpt><trkpt lat="42.54568199508352" lon="11.411634972707672"><ele>48.0</ele><time>2026-03-22T10:30:53Z</time></trkpt><trkpt lat="42.545729615603335" lon="11.411938375986773"><ele>47.0</ele><time>2026-03-22T10:30:54Z</time></trkpt><trkpt lat="42.545792335164734" lon="11.412239715695375"><ele>46.0</ele><time>2026-03-22T10:30:55Z</time></trkpt><trkpt lat="42.54585209141869" lon="11.412540463393357"><ele>46.0</ele><time>2026-03-22T10:30:56Z</time></trkpt><trkpt lat="42.54590636271444" lon="11.412843272613507"><ele>46.0</ele><time>2026-03-22T10:30:57Z</time></trkpt><trkpt lat="42.54591472834902" lon="11.413165133519895"><ele>47.0</ele><time>2026-03-22T10:30:57.999Z</time></trkpt><trkpt lat="42.54597148067329" lon="11.41347488571395"><ele>48.0</ele><time>2026-03-22T10:30:58.999Z</time></trkpt><trkpt lat="42.54602856357259" lon="11.413786441907773"><ele>47.5</ele><time>2026-03-22T10:30:59.999Z</time></trkpt><trkpt lat="42.546085551302475" lon="11.414097479087772"><ele>47.0</ele><time>2026-03-22T10:31:00.999Z</time></trkpt><trkpt lat="42.54614145531177" lon="11.414402600789481"><ele>47.0</ele><time>2026-03-22T10:31:01.999Z</time></trkpt><trkpt lat="42.5461924256061" lon="11.414692321743322"><ele>47.0</ele><time>2026-03-22T10:31:02.999Z</time></trkpt><trkpt lat="42.546243145850056" lon="11.414973763008481"><ele>47.0</ele><time>2026-03-22T10:31:03.999Z</time></trkpt><trkpt lat="42.54631333283014" lon="11.415249627638413"><ele>47.33333333333333</ele><time>2026-03-22T10:31:04.999Z</time></trkpt><trkpt lat="42.54643684509403" lon="11.415497806037024"><ele>47.666666666666664</ele><time>2026-03-22T10:31:05.999Z</time></trkpt><trkpt lat="42.54659672839566" lon="11.415708962033344"><ele>48.0</ele><time>2026-03-22T10:31:06.999Z</time></trkpt><trkpt lat="42.54675795361484" lon="11.415914595495144"><ele>48.0</ele><time>2026-03-22T10:31:07.999Z</time></trkpt><trkpt lat="42.54692332637873" lon="11.416125519004868"><ele>48.0</ele><time>2026-03-22T10:31:08.999Z</time></trkpt><trkpt lat="42.54709244015765" lon="11.41634121292807"><ele>50.5</ele><time>2026-03-22T10:31:09.999Z</time></trkpt><trkpt lat="42.5472608868764" lon="11.41655677121131"><ele>53.0</ele><time>2026-03-22T10:31:10.999Z</time></trkpt><trkpt lat="42.54742920825195" lon="11.41677749724325"><ele>53.0</ele><time>2026-03-22T10:31:11.999Z</time></trkpt><trkpt lat="42.54759343071083" lon="11.417006529890664"><ele>53.0</ele><time>2026-03-22T10:31:12.999Z</time></trkpt><trkpt lat="42.547746096192576" lon="11.417243235744236"><ele>59.0</ele><time>2026-03-22T10:31:13.999Z</time></trkpt><trkpt lat="42.54788999822176" lon="11.417485353320691"><ele>65.0</ele><time>2026-03-22T10:31:14.999Z</time></trkpt><trkpt lat="42.54803598201372" lon="11.417721595246157"><ele>65.0</ele><time>2026-03-22T10:31:15.999Z</time></trkpt><trkpt lat="42.54820214348859" lon="11.417932577038133"><ele>65.0</ele><time>2026-03-22T10:31:16.999Z</time></trkpt><trkpt lat="42.548397146111" lon="11.4180868635623"><ele>63.0</ele><time>2026-03-22T10:31:17.999Z</time></trkpt><trkpt lat="42.54859204106136" lon="11.418234402770517"><ele>61.0</ele><time>2026-03-22T10:31:18.999Z</time></trkpt><trkpt lat="42.548798073709676" lon="11.418354574647815"><ele>59.0</ele><time>2026-03-22T10:31:19.999Z</time></trkpt><trkpt lat="42.549030810425165" lon="11.418447854554586"><ele>59.0</ele><time>2026-03-22T10:31:20.999Z</time></trkpt><trkpt lat="42.549262181909754" lon="11.418525323126744"><ele>59.0</ele><time>2026-03-22T10:31:21.999Z</time></trkpt><trkpt lat="42.54950056427324" lon="11.4185970866038"><ele>57.5</ele><time>2026-03-22T10:31:22.999Z</time></trkpt><trkpt lat="42.54974302734648" lon="11.41867175576382"><ele>56.0</ele><time>2026-03-22T10:31:23.999Z</time></trkpt><trkpt lat="42.54998113270888" lon="11.418750498866645"><ele>57.0</ele><time>2026-03-22T10:31:24.999Z</time></trkpt><trkpt lat="42.550220346989626" lon="11.41883604865586"><ele>58.0</ele><time>2026-03-22T10:31:25.999Z</time></trkpt><trkpt lat="42.55045674486069" lon="11.418930580547734"><ele>56.0</ele><time>2026-03-22T10:31:26.999Z</time></trkpt><trkpt lat="42.55069478730302" lon="11.419036455818835"><ele>54.0</ele><time>2026-03-22T10:31:27.999Z</time></trkpt><trkpt lat="42.550927363363364" lon="11.419156909235937"><ele>54.0</ele><time>2026-03-22T10:31:28.999Z</time></trkpt><trkpt lat="42.55116153511009" lon="11.419285294364897"><ele>54.0</ele><time>2026-03-22T10:31:29.999Z</time></trkpt><trkpt lat="42.55139632305269" lon="11.419415830879462"><ele>54.5</ele><time>2026-03-22T10:31:30.999Z</time></trkpt><trkpt lat="42.55163559707034" lon="11.419546830995607"><ele>55.0</ele><time>2026-03-22T10:31:31.999Z</time></trkpt><trkpt lat="42.55187819526182" lon="11.419674466719002"><ele>57.0</ele><time>2026-03-22T10:31:32.999Z</time></trkpt><trkpt lat="42.552112993837355" lon="11.419826142754058"><ele>59.0</ele><time>2026-03-22T10:31:33.999Z</time></trkpt><trkpt lat="42.55236068292647" lon="11.41993788305179"><ele>59.0</ele><time>2026-03-22T10:31:34.999Z</time></trkpt><trkpt lat="42.552603179471284" lon="11.420074044138492"><ele>59.0</ele><time>2026-03-22T10:31:35.999Z</time></trkpt><trkpt lat="42.55284616224585" lon="11.420209990637588"><ele>58.0</ele><time>2026-03-22T10:31:36.999Z</time></trkpt><trkpt lat="42.553084987758204" lon="11.420366755966162"><ele>57.0</ele><time>2026-03-22T10:31:37.999Z</time></trkpt><trkpt lat="42.55333687200835" lon="11.420484184665652"><ele>56.5</ele><time>2026-03-22T10:31:38.999Z</time></trkpt><trkpt lat="42.553583476599485" lon="11.420621611705053"><ele>56.0</ele><time>2026-03-22T10:31:39.999Z</time></trkpt><trkpt lat="42.55383048623508" lon="11.42076109190646"><ele>55.0</ele><time>2026-03-22T10:31:40.999Z</time></trkpt><trkpt lat="42.55407697007272" lon="11.42090182671627"><ele>54.0</ele><time>2026-03-22T10:31:41.999Z</time></trkpt><trkpt lat="42.554324562683526" lon="11.421040675567397"><ele>55.0</ele><time>2026-03-22T10:31:42.999Z</time></trkpt><trkpt lat="42.554573292318025" lon="11.421180747488933"><ele>56.0</ele><time>2026-03-22T10:31:43.999Z</time></trkpt><trkpt lat="42.55482102144763" lon="11.42131766691248"><ele>56.0</ele><time>2026-03-22T10:31:44.999Z</time></trkpt><trkpt lat="42.555069242914854" lon="11.42145351967274"><ele>56.0</ele><time>2026-03-22T10:31:45.999Z</time></trkpt><trkpt lat="42.55531656174488" lon="11.421589919413867"><ele>57.0</ele><time>2026-03-22T10:31:46.999Z</time></trkpt><trkpt lat="42.555562971233186" lon="11.421725501387291"><ele>58.0</ele><time>2026-03-22T10:31:47.999Z</time></trkpt><trkpt lat="42.55580982228876" lon="11.421863606351195"><ele>58.0</ele><time>2026-03-22T10:31:49Z</time></trkpt><trkpt lat="42.55605643724104" lon="11.422000090744355"><ele>58.0</ele><time>2026-03-22T10:31:50Z</time></trkpt><trkpt lat="42.556303913442655" lon="11.422135106248566"><ele>60.5</ele><time>2026-03-22T10:31:51Z</time></trkpt><trkpt lat="42.55655026514617" lon="11.422270339079416"><ele>63.0</ele><time>2026-03-22T10:31:52Z</time></trkpt><trkpt lat="42.55679576077012" lon="11.422406595829765"><ele>64.0</ele><time>2026-03-22T10:31:53Z</time></trkpt><trkpt lat="42.55704009335573" lon="11.422544461501568"><ele>65.0</ele><time>2026-03-22T10:31:54Z</time></trkpt><trkpt lat="42.55728506141009" lon="11.422683178962847"><ele>65.0</ele><time>2026-03-22T10:31:55Z</time></trkpt><trkpt lat="42.55752997375423" lon="11.42281892166206"><ele>65.0</ele><time>2026-03-22T10:31:56Z</time></trkpt><trkpt lat="42.55777580936871" lon="11.422954774108975"><ele>63.5</ele><time>2026-03-22T10:31:57Z</time></trkpt><trkpt lat="42.55802194205275" lon="11.423090525896571"><ele>62.0</ele><time>2026-03-22T10:31:58Z</time></trkpt><trkpt lat="42.558269185956775" lon="11.423227127649554"><ele>62.0</ele><time>2026-03-22T10:31:59Z</time></trkpt><trkpt lat="42.558516010205956" lon="11.42336371355521"><ele>62.0</ele><time>2026-03-22T10:32:00Z</time></trkpt><trkpt lat="42.55876433516674" lon="11.423502274089365"><ele>62.0</ele><time>2026-03-22T10:32:01Z</time></trkpt><trkpt lat="42.55901283409982" lon="11.423635987139907"><ele>62.0</ele><time>2026-03-22T10:32:02Z</time></trkpt><trkpt lat="42.55926132211951" lon="11.423768169578409"><ele>62.5</ele><time>2026-03-22T10:32:03Z</time></trkpt><trkpt lat="42.55950888946525" lon="11.423901064258136"><ele>63.0</ele><time>2026-03-22T10:32:04Z</time></trkpt><trkpt lat="42.559758423093925" lon="11.424037399761126"><ele>63.0</ele><time>2026-03-22T10:32:05Z</time></trkpt><trkpt lat="42.560005555281506" lon="11.424175468369343"><ele>63.0</ele><time>2026-03-22T10:32:06Z</time></trkpt><trkpt lat="42.56025185910841" lon="11.424314931938646"><ele>64.0</ele><time>2026-03-22T10:32:07Z</time></trkpt><trkpt lat="42.56049894324034" lon="11.424454324066657"><ele>65.0</ele><time>2026-03-22T10:32:08Z</time></trkpt><trkpt lat="42.56074568052795" lon="11.424590852415925"><ele>65.0</ele><time>2026-03-22T10:32:09Z</time></trkpt><trkpt lat="42.56099178711205" lon="11.424725303516448"><ele>65.0</ele><time>2026-03-22T10:32:10Z</time></trkpt><trkpt lat="42.561236390807196" lon="11.424859189623383"><ele>64.0</ele><time>2026-03-22T10:32:11Z</time></trkpt><trkpt lat="42.56148014089564" lon="11.424993716996685"><ele>63.0</ele><time>2026-03-22T10:32:12Z</time></trkpt><trkpt lat="42.561719449256906" lon="11.425126298950293"><ele>63.0</ele><time>2026-03-22T10:32:13Z</time></trkpt><trkpt lat="42.56195390429512" lon="11.425258565043139"><ele>63.0</ele><time>2026-03-22T10:32:14Z</time></trkpt><trkpt lat="42.56217871403389" lon="11.425418991699612"><ele>65.5</ele><time>2026-03-22T10:32:15Z</time></trkpt><trkpt lat="42.56237982049831" lon="11.425630911094533"><ele>68.0</ele><time>2026-03-22T10:32:16Z</time></trkpt><trkpt lat="42.56256462123518" lon="11.425865820996886"><ele>68.0</ele><time>2026-03-22T10:32:17Z</time></trkpt><trkpt lat="42.56273784612492" lon="11.426121658892685"><ele>68.0</ele><time>2026-03-22T10:32:18Z</time></trkpt><trkpt lat="42.562904792566556" lon="11.42638608533181"><ele>69.5</ele><time>2026-03-22T10:32:19Z</time></trkpt><trkpt lat="42.563070956324815" lon="11.426655162829984"><ele>71.0</ele><time>2026-03-22T10:32:20Z</time></trkpt><trkpt lat="42.56324009341473" lon="11.426918965406951"><ele>69.0</ele><time>2026-03-22T10:32:21Z</time></trkpt><trkpt lat="42.56341532961229" lon="11.427182765172528"><ele>67.0</ele><time>2026-03-22T10:32:22Z</time></trkpt><trkpt lat="42.56359078744629" lon="11.427445951526158"><ele>68.5</ele><time>2026-03-22T10:32:23Z</time></trkpt><trkpt lat="42.563765126361204" lon="11.42771316931205"><ele>70.0</ele><time>2026-03-22T10:32:24Z</time></trkpt><trkpt lat="42.563935841218566" lon="11.427981501353736"><ele>70.0</ele><time>2026-03-22T10:32:25Z</time></trkpt><trkpt lat="42.564106911443474" lon="11.428250912890388"><ele>70.0</ele><time>2026-03-22T10:32:26Z</time></trkpt><trkpt lat="42.56427763359287" lon="11.428519812812047"><ele>70.0</ele><time>2026-03-22T10:32:27Z</time></trkpt><trkpt lat="42.56444921319864" lon="11.428789305614226"><ele>70.0</ele><time>2026-03-22T10:32:28Z</time></trkpt><trkpt lat="42.56461889276508" lon="11.42906063525761"><ele>70.0</ele><time>2026-03-22T10:32:29Z</time></trkpt><trkpt lat="42.56478644284588" lon="11.429330141824726"><ele>70.0</ele><time>2026-03-22T10:32:30Z</time></trkpt><trkpt lat="42.56495464904" lon="11.429598452164488"><ele>69.5</ele><time>2026-03-22T10:32:31Z</time></trkpt><trkpt lat="42.56512176410782" lon="11.429866629918271"><ele>69.0</ele><time>2026-03-22T10:32:32Z</time></trkpt><trkpt lat="42.565296338355296" lon="11.430122325472677"><ele>69.5</ele><time>2026-03-22T10:32:33Z</time></trkpt><trkpt lat="42.56548460760485" lon="11.43035558990332"><ele>70.0</ele><time>2026-03-22T10:32:34Z</time></trkpt><trkpt lat="42.56568580882765" lon="11.430569412590232"><ele>70.0</ele><time>2026-03-22T10:32:35Z</time></trkpt><trkpt lat="42.56588997014138" lon="11.430754885574297"><ele>70.0</ele><time>2026-03-22T10:32:36Z</time></trkpt><trkpt lat="42.56610131751791" lon="11.43091300227541"><ele>71.0</ele><time>2026-03-22T10:32:37Z</time></trkpt><trkpt lat="42.56632471292228" lon="11.431029371566158"><ele>72.0</ele><time>2026-03-22T10:32:38Z</time></trkpt><trkpt lat="42.56656275001453" lon="11.431101159335627"><ele>72.0</ele><time>2026-03-22T10:32:39Z</time></trkpt><trkpt lat="42.566808704613216" lon="11.431146052110858"><ele>72.0</ele><time>2026-03-22T10:32:40Z</time></trkpt><trkpt lat="42.5670580691361" lon="11.431154424161715"><ele>72.5</ele><time>2026-03-22T10:32:41Z</time></trkpt><trkpt lat="42.56731475426862" lon="11.431157254246454"><ele>73.0</ele><time>2026-03-22T10:32:42Z</time></trkpt><trkpt lat="42.567574291175184" lon="11.431175932797236"><ele>73.0</ele><time>2026-03-22T10:32:43Z</time></trkpt><trkpt lat="42.567831379269556" lon="11.431195445013241"><ele>73.0</ele><time>2026-03-22T10:32:44Z</time></trkpt><trkpt lat="42.568088718305376" lon="11.431211805849014"><ele>73.0</ele><time>2026-03-22T10:32:45Z</time></trkpt><trkpt lat="42.56834591071019" lon="11.431223468490725"><ele>73.0</ele><time>2026-03-22T10:32:46Z</time></trkpt><trkpt lat="42.568595993511025" lon="11.431236790415785"><ele>74.0</ele><time>2026-03-22T10:32:47Z</time></trkpt><trkpt lat="42.568834424305535" lon="11.431251139108907"><ele>75.0</ele><time>2026-03-22T10:32:48Z</time></trkpt><trkpt lat="42.5690587000612" lon="11.431275610857194"><ele>75.0</ele><time>2026-03-22T10:32:49Z</time></trkpt><trkpt lat="42.56927791060551" lon="11.431322492935202"><ele>75.0</ele><time>2026-03-22T10:32:50Z</time></trkpt><trkpt lat="42.56946391480218" lon="11.43145157234469"><ele>75.0</ele><time>2026-03-22T10:32:51Z</time></trkpt><trkpt lat="42.56962673801324" lon="11.431605534614977"><ele>75.33333333333333</ele><time>2026-03-22T10:32:52Z</time></trkpt><trkpt lat="42.569795596322706" lon="11.431771414633138"><ele>75.66666666666666</ele><time>2026-03-22T10:32:53Z</time></trkpt><trkpt lat="42.5699676230207" lon="11.431943955836058"><ele>76.0</ele><time>2026-03-22T10:32:54Z</time></trkpt><trkpt lat="42.5701464943175" lon="11.432123602847504"><ele>75.5</ele><time>2026-03-22T10:32:55Z</time></trkpt><trkpt lat="42.570328397318185" lon="11.432305451827393"><ele>75.0</ele><time>2026-03-22T10:32:56Z</time></trkpt><trkpt lat="42.570508399108576" lon="11.432489374544632"><ele>76.5</ele><time>2026-03-22T10:32:57Z</time></trkpt><trkpt lat="42.570682816976266" lon="11.432687995640524"><ele>78.0</ele><time>2026-03-22T10:32:58Z</time></trkpt><trkpt lat="42.570844437484396" lon="11.432908894436956"><ele>77.0</ele><time>2026-03-22T10:32:59Z</time></trkpt><trkpt lat="42.57099562318742" lon="11.433145342100323"><ele>76.0</ele><time>2026-03-22T10:33:00Z</time></trkpt><trkpt lat="42.5711447552034" lon="11.433383382996896"><ele>78.5</ele><time>2026-03-22T10:33:01Z</time></trkpt><trkpt lat="42.57129400300786" lon="11.433621845608021"><ele>81.0</ele><time>2026-03-22T10:33:02Z</time></trkpt><trkpt lat="42.57144394840515" lon="11.433859642720405"><ele>81.0</ele><time>2026-03-22T10:33:03Z</time></trkpt><trkpt lat="42.5715977731905" lon="11.434103592208222"><ele>81.0</ele><time>2026-03-22T10:33:04Z</time></trkpt><trkpt lat="42.57175068972983" lon="11.434346665354207"><ele>81.0</ele><time>2026-03-22T10:33:05Z</time></trkpt><trkpt lat="42.57190153990218" lon="11.434586710302124"><ele>81.0</ele><time>2026-03-22T10:33:06Z</time></trkpt><trkpt lat="42.57205083365736" lon="11.434824278556173"><ele>82.0</ele><time>2026-03-22T10:33:06.999Z</time></trkpt><trkpt lat="42.572193359218865" lon="11.435052361161679"><ele>83.0</ele><time>2026-03-22T10:33:07.999Z</time></trkpt><trkpt lat="42.57232583326204" lon="11.435265586051688"><ele>84.0</ele><time>2026-03-22T10:33:08.999Z</time></trkpt><trkpt lat="42.57245044104136" lon="11.4354623211545"><ele>84.33333333333333</ele><time>2026-03-22T10:33:09.999Z</time></trkpt><trkpt lat="42.57259382924447" lon="11.435617651806018"><ele>84.66666666666666</ele><time>2026-03-22T10:33:10.999Z</time></trkpt><trkpt lat="42.57276000638164" lon="11.435717280892986"><ele>85.0</ele><time>2026-03-22T10:33:11.999Z</time></trkpt><trkpt lat="42.57294488930962" lon="11.435748876802617"><ele>85.0</ele><time>2026-03-22T10:33:12.999Z</time></trkpt><trkpt lat="42.57312773537461" lon="11.435775103120136"><ele>85.0</ele><time>2026-03-22T10:33:13.999Z</time></trkpt><trkpt lat="42.573293768668925" lon="11.435845151542015"><ele>85.0</ele><time>2026-03-22T10:33:14.999Z</time></trkpt><trkpt lat="42.57344365143656" lon="11.435958814274693"><ele>85.0</ele><time>2026-03-22T10:33:15.999Z</time></trkpt><trkpt lat="42.573553236208745" lon="11.436124144556622"><ele>85.0</ele><time>2026-03-22T10:33:16.999Z</time></trkpt><trkpt lat="42.5736525311835" lon="11.436318039862124"><ele>85.0</ele><time>2026-03-22T10:33:17.999Z</time></trkpt><trkpt lat="42.57375430004671" lon="11.436522034698845"><ele>86.33333333333333</ele><time>2026-03-22T10:33:18.999Z</time></trkpt><trkpt lat="42.57385130429524" lon="11.436716478876184"><ele>87.66666666666667</ele><time>2026-03-22T10:33:19.999Z</time></trkpt><trkpt lat="42.57395623576528" lon="11.43692612743968"><ele>89.0</ele><time>2026-03-22T10:33:20.999Z</time></trkpt><trkpt lat="42.574065242842465" lon="11.43714360902278"><ele>89.33333333333334</ele><time>2026-03-22T10:33:21.999Z</time></trkpt><trkpt lat="42.574179196507664" lon="11.437370959653709"><ele>89.66666666666667</ele><time>2026-03-22T10:33:22.999Z</time></trkpt><trkpt lat="42.574294409855305" lon="11.437600823520683"><ele>90.0</ele><time>2026-03-22T10:33:23.999Z</time></trkpt><trkpt lat="42.574410786411704" lon="11.43783300812478"><ele>90.66666666666667</ele><time>2026-03-22T10:33:24.999Z</time></trkpt><trkpt lat="42.57452438632579" lon="11.43805965304531"><ele>91.33333333333334</ele><time>2026-03-22T10:33:25.999Z</time></trkpt><trkpt lat="42.57463809755101" lon="11.438286519921663"><ele>92.0</ele><time>2026-03-22T10:33:26.999Z</time></trkpt><trkpt lat="42.5747521104772" lon="11.438511666934678"><ele>92.0</ele><time>2026-03-22T10:33:27.999Z</time></trkpt><trkpt lat="42.57486523036291" lon="11.438729704723096"><ele>92.0</ele><time>2026-03-22T10:33:28.999Z</time></trkpt><trkpt lat="42.57498285068591" lon="11.438945224591249"><ele>92.0</ele><time>2026-03-22T10:33:29.999Z</time></trkpt><trkpt lat="42.57512105184265" lon="11.439149549679698"><ele>92.66666666666667</ele><time>2026-03-22T10:33:30.999Z</time></trkpt><trkpt lat="42.575276910519925" lon="11.43933985036355"><ele>93.33333333333333</ele><time>2026-03-22T10:33:31.999Z</time></trkpt><trkpt lat="42.5754363840921" lon="11.439524783932294"><ele>94.0</ele><time>2026-03-22T10:33:32.999Z</time></trkpt><trkpt lat="42.57559893400535" lon="11.43971328563018"><ele>94.66666666666666</ele><time>2026-03-22T10:33:33.999Z</time></trkpt><trkpt lat="42.57576428337329" lon="11.439905033727893"><ele>95.33333333333333</ele><time>2026-03-22T10:33:34.999Z</time></trkpt><trkpt lat="42.575928776187105" lon="11.440094048001022"><ele>96.0</ele><time>2026-03-22T10:33:35.999Z</time></trkpt><trkpt lat="42.57610456200915" lon="11.440260689388268"><ele>98.0</ele><time>2026-03-22T10:33:36.999Z</time></trkpt><trkpt lat="42.5762608930623" lon="11.440447448441718"><ele>100.0</ele><time>2026-03-22T10:33:37.999Z</time></trkpt><trkpt lat="42.576395162970336" lon="11.440651909751615"><ele>102.0</ele><time>2026-03-22T10:33:38.999Z</time></trkpt><trkpt lat="42.57650656294223" lon="11.440876751901444"><ele>102.0</ele><time>2026-03-22T10:33:39.999Z</time></trkpt><trkpt lat="42.57658464625082" lon="11.441123015214885"><ele>102.0</ele><time>2026-03-22T10:33:40.999Z</time></trkpt><trkpt lat="42.57662325818405" lon="11.44139044181434"><ele>102.0</ele><time>2026-03-22T10:33:41.999Z</time></trkpt><trkpt lat="42.576618714575154" lon="11.441670423090875"><ele>101.0</ele><time>2026-03-22T10:33:42.999Z</time></trkpt><trkpt lat="42.576597944172924" lon="11.441940393892635"><ele>100.0</ele><time>2026-03-22T10:33:43.999Z</time></trkpt><trkpt lat="42.57658217067926" lon="11.442204994812453"><ele>99.0</ele><time>2026-03-22T10:33:44.999Z</time></trkpt><trkpt lat="42.576562446156956" lon="11.44245069781677"><ele>99.33333333333334</ele><time>2026-03-22T10:33:45.999Z</time></trkpt><trkpt lat="42.576541912397566" lon="11.44268970811885"><ele>99.66666666666667</ele><time>2026-03-22T10:33:46.999Z</time></trkpt><trkpt lat="42.5764943621345" lon="11.442908332904949"><ele>100.0</ele><time>2026-03-22T10:33:47.999Z</time></trkpt><trkpt lat="42.576415511464084" lon="11.443104129006864"><ele>100.0</ele><time>2026-03-22T10:33:48.999Z</time></trkpt><trkpt lat="42.5763036554062" lon="11.443278803121807"><ele>100.0</ele><time>2026-03-22T10:33:49.999Z</time></trkpt><trkpt lat="42.576172755109056" lon="11.443426760693281"><ele>100.0</ele><time>2026-03-22T10:33:50.999Z</time></trkpt><trkpt lat="42.5760483179746" lon="11.443542019924212"><ele>99.0</ele><time>2026-03-22T10:33:51.999Z</time></trkpt><trkpt lat="42.575921714705586" lon="11.443640947891486"><ele>98.0</ele><time>2026-03-22T10:33:52.999Z</time></trkpt><trkpt lat="42.57579464272021" lon="11.443703963564246"><ele>97.0</ele><time>2026-03-22T10:33:53.999Z</time></trkpt><trkpt lat="42.575667381523274" lon="11.44373048486568"><ele>96.0</ele><time>2026-03-22T10:33:55Z</time></trkpt><trkpt lat="42.57555653693921" lon="11.443769947848484"><ele>96.8</ele><time>2026-03-22T10:33:56Z</time></trkpt><trkpt lat="42.57547305622532" lon="11.443859540189148"><ele>97.6</ele><time>2026-03-22T10:33:57Z</time></trkpt><trkpt lat="42.575420127024444" lon="11.443981648050034"><ele>98.4</ele><time>2026-03-22T10:33:58Z</time></trkpt><trkpt lat="42.57541056703796" lon="11.444127711745761"><ele>99.2</ele><time>2026-03-22T10:33:59Z</time></trkpt><trkpt lat="42.57544111888516" lon="11.444296731916458"><ele>100.0</ele><time>2026-03-22T10:34:00Z</time></trkpt><trkpt lat="42.57545529035261" lon="11.444468765568855"><ele>99.75</ele><time>2026-03-22T10:34:01Z</time></trkpt><trkpt lat="42.57540741627076" lon="11.444651263759255"><ele>99.5</ele><time>2026-03-22T10:34:02Z</time></trkpt><trkpt lat="42.57533880574078" lon="11.444834569452942"><ele>99.25</ele><time>2026-03-22T10:34:03Z</time></trkpt><trkpt lat="42.57526685757307" lon="11.445019498948037"><ele>99.0</ele><time>2026-03-22T10:34:04Z</time></trkpt><trkpt lat="42.5751999458572" lon="11.445222980612858"><ele>99.0</ele><time>2026-03-22T10:34:05Z</time></trkpt><trkpt lat="42.57513019318232" lon="11.445431896220581"><ele>99.0</ele><time>2026-03-22T10:34:06Z</time></trkpt><trkpt lat="42.57505680761796" lon="11.4456490299921"><ele>99.0</ele><time>2026-03-22T10:34:07Z</time></trkpt><trkpt lat="42.574983235403415" lon="11.445872080534501"><ele>101.33333333333334</ele><time>2026-03-22T10:34:08Z</time></trkpt><trkpt lat="42.57491493019833" lon="11.44610620428226"><ele>103.66666666666667</ele><time>2026-03-22T10:34:09Z</time></trkpt><trkpt lat="42.57485816302044" lon="11.446339193787837"><ele>106.0</ele><time>2026-03-22T10:34:10Z</time></trkpt><trkpt lat="42.57480815988219" lon="11.446580100710529"><ele>109.33333333333334</ele><time>2026-03-22T10:34:11Z</time></trkpt><trkpt lat="42.574763064861514" lon="11.44682767461987"><ele>112.66666666666666</ele><time>2026-03-22T10:34:12Z</time></trkpt><trkpt lat="42.574722509827005" lon="11.447080784623555"><ele>116.0</ele><time>2026-03-22T10:34:13Z</time></trkpt><trkpt lat="42.574683564008254" lon="11.447339138143565"><ele>119.33333333333333</ele><time>2026-03-22T10:34:14Z</time></trkpt><trkpt lat="42.57464214241267" lon="11.447603520899905"><ele>122.66666666666666</ele><time>2026-03-22T10:34:15Z</time></trkpt><trkpt lat="42.57459861637526" lon="11.447872435365046"><ele>126.0</ele><time>2026-03-22T10:34:16Z</time></trkpt><trkpt lat="42.57455292862535" lon="11.448146138311602"><ele>125.0</ele><time>2026-03-22T10:34:17Z</time></trkpt><trkpt lat="42.574506336501344" lon="11.448422213666586"><ele>124.0</ele><time>2026-03-22T10:34:18Z</time></trkpt><trkpt lat="42.57445809841457" lon="11.448702331633909"><ele>123.0</ele><time>2026-03-22T10:34:19Z</time></trkpt><trkpt lat="42.57440887815741" lon="11.448986022095697"><ele>123.0</ele><time>2026-03-22T10:34:20Z</time></trkpt><trkpt lat="42.57436112407926" lon="11.449268841011472"><ele>123.0</ele><time>2026-03-22T10:34:21Z</time></trkpt><trkpt lat="42.574316723555484" lon="11.449551403212212"><ele>123.0</ele><time>2026-03-22T10:34:22Z</time></trkpt><trkpt lat="42.574278300552194" lon="11.449836156530846"><ele>125.33333333333334</ele><time>2026-03-22T10:34:23Z</time></trkpt><trkpt lat="42.574256788719325" lon="11.450127341951253"><ele>127.66666666666667</ele><time>2026-03-22T10:34:24Z</time></trkpt><trkpt lat="42.57424789201926" lon="11.450422751308574"><ele>130.0</ele><time>2026-03-22T10:34:25Z</time></trkpt><trkpt lat="42.57424492584612" lon="11.450713800044314"><ele>131.33333333333334</ele><time>2026-03-22T10:34:26Z</time></trkpt><trkpt lat="42.57424082299662" lon="11.450992573376361"><ele>132.66666666666666</ele><time>2026-03-22T10:34:27Z</time></trkpt><trkpt lat="42.5742504027526" lon="11.451263455185467"><ele>134.0</ele><time>2026-03-22T10:34:28Z</time></trkpt><trkpt lat="42.57429480256375" lon="11.45153604464384"><ele>135.0</ele><time>2026-03-22T10:34:29Z</time></trkpt><trkpt lat="42.57435919410289" lon="11.451812298594911"><ele>136.0</ele><time>2026-03-22T10:34:30Z</time></trkpt><trkpt lat="42.57444236407403" lon="11.452084946980007"><ele>137.0</ele><time>2026-03-22T10:34:31Z</time></trkpt><trkpt lat="42.57454635165201" lon="11.452352021783822"><ele>142.0</ele><time>2026-03-22T10:34:32Z</time></trkpt><trkpt lat="42.57467268851696" lon="11.45260434996579"><ele>147.0</ele><time>2026-03-22T10:34:33Z</time></trkpt><trkpt lat="42.57481425440649" lon="11.452843539437218"><ele>146.5</ele><time>2026-03-22T10:34:34Z</time></trkpt><trkpt lat="42.57492840335735" lon="11.453110344590783"><ele>146.0</ele><time>2026-03-22T10:34:35Z</time></trkpt><trkpt lat="42.57505873680338" lon="11.453355290678116"><ele>146.0</ele><time>2026-03-22T10:34:36Z</time></trkpt><trkpt lat="42.57517085712957" lon="11.453614392578558"><ele>146.0</ele><time>2026-03-22T10:34:37Z</time></trkpt><trkpt lat="42.575252518698186" lon="11.453885541685864"><ele>146.0</ele><time>2026-03-22T10:34:38Z</time></trkpt><trkpt lat="42.57531325749222" lon="11.454175010199783"><ele>148.33333333333331</ele><time>2026-03-22T10:34:39Z</time></trkpt><trkpt lat="42.5753490088903" lon="11.45446805405131"><ele>150.66666666666666</ele><time>2026-03-22T10:34:40Z</time></trkpt><trkpt lat="42.57535553525867" lon="11.45476494561169"><ele>153.0</ele><time>2026-03-22T10:34:41Z</time></trkpt><trkpt lat="42.575335421135705" lon="11.455064500011567"><ele>155.0</ele><time>2026-03-22T10:34:42Z</time></trkpt><trkpt lat="42.575284858807706" lon="11.455354659886567"><ele>157.0</ele><time>2026-03-22T10:34:43Z</time></trkpt><trkpt lat="42.57521068817838" lon="11.455639589359993"><ele>159.0</ele><time>2026-03-22T10:34:44Z</time></trkpt><trkpt lat="42.575110255156815" lon="11.455906986380242"><ele>160.0</ele><time>2026-03-22T10:34:45Z</time></trkpt><trkpt lat="42.574985732863134" lon="11.45616049278725"><ele>161.0</ele><time>2026-03-22T10:34:46Z</time></trkpt><trkpt lat="42.57483863442017" lon="11.456392375376645"><ele>161.0</ele><time>2026-03-22T10:34:47Z</time></trkpt><trkpt lat="42.57466855986698" lon="11.456584732443044"><ele>161.0</ele><time>2026-03-22T10:34:48Z</time></trkpt><trkpt lat="42.57449689342523" lon="11.456774874401946"><ele>161.0</ele><time>2026-03-22T10:34:49Z</time></trkpt><trkpt lat="42.57432239140749" lon="11.45696395871729"><ele>165.0</ele><time>2026-03-22T10:34:50Z</time></trkpt><trkpt lat="42.57414623654298" lon="11.457154810724603"><ele>169.0</ele><time>2026-03-22T10:34:51Z</time></trkpt><trkpt lat="42.57396829039142" lon="11.457347602054565"><ele>169.0</ele><time>2026-03-22T10:34:52Z</time></trkpt><trkpt lat="42.57378650564867" lon="11.457544784166473"><ele>169.0</ele><time>2026-03-22T10:34:53Z</time></trkpt><trkpt lat="42.5736015703747" lon="11.457746008102836"><ele>166.0</ele><time>2026-03-22T10:34:54Z</time></trkpt><trkpt lat="42.57341383270051" lon="11.457959854970799"><ele>163.0</ele><time>2026-03-22T10:34:55Z</time></trkpt><trkpt lat="42.573242784578554" lon="11.458198427471704"><ele>163.0</ele><time>2026-03-22T10:34:56Z</time></trkpt><trkpt lat="42.573089011259725" lon="11.458459560744888"><ele>163.0</ele><time>2026-03-22T10:34:57Z</time></trkpt><trkpt lat="42.5729580327926" lon="11.458742800025009"><ele>156.5</ele><time>2026-03-22T10:34:58Z</time></trkpt><trkpt lat="42.57285052972555" lon="11.459045882331536"><ele>150.0</ele><time>2026-03-22T10:34:59Z</time></trkpt><trkpt lat="42.572764661833006" lon="11.459361760382183"><ele>148.5</ele><time>2026-03-22T10:35:00Z</time></trkpt><trkpt lat="42.572686545764896" lon="11.459680290262233"><ele>147.0</ele><time>2026-03-22T10:35:01Z</time></trkpt><trkpt lat="42.572608046239374" lon="11.460001434341303"><ele>147.0</ele><time>2026-03-22T10:35:02Z</time></trkpt><trkpt lat="42.57252888807347" lon="11.46031973161365"><ele>147.0</ele><time>2026-03-22T10:35:03Z</time></trkpt><trkpt lat="42.572449874032955" lon="11.460639138584185"><ele>149.0</ele><time>2026-03-22T10:35:04Z</time></trkpt><trkpt lat="42.572371262751254" lon="11.460956917436368"><ele>151.0</ele><time>2026-03-22T10:35:05Z</time></trkpt><trkpt lat="42.57229321913057" lon="11.461273327836329"><ele>156.0</ele><time>2026-03-22T10:35:06Z</time></trkpt><trkpt lat="42.57221656929261" lon="11.461585688046194"><ele>161.0</ele><time>2026-03-22T10:35:07Z</time></trkpt><trkpt lat="42.57214129720914" lon="11.461890073772562"><ele>165.5</ele><time>2026-03-22T10:35:08Z</time></trkpt><trkpt lat="42.57207376660111" lon="11.462195815803318"><ele>170.0</ele><time>2026-03-22T10:35:09Z</time></trkpt><trkpt lat="42.572025164576544" lon="11.462506885001877"><ele>163.5</ele><time>2026-03-22T10:35:10Z</time></trkpt><trkpt lat="42.572001357014784" lon="11.462830606730556"><ele>157.0</ele><time>2026-03-22T10:35:11Z</time></trkpt><trkpt lat="42.57199923662078" lon="11.463148653936566"><ele>166.5</ele><time>2026-03-22T10:35:11.999Z</time></trkpt><trkpt lat="42.57202358711832" lon="11.46346847892316"><ele>176.0</ele><time>2026-03-22T10:35:12.999Z</time></trkpt><trkpt lat="42.572059877264316" lon="11.463784886413814"><ele>176.0</ele><time>2026-03-22T10:35:13.999Z</time></trkpt><trkpt lat="42.572095985962406" lon="11.464100989582018"><ele>176.0</ele><time>2026-03-22T10:35:14.999Z</time></trkpt><trkpt lat="42.57213298330685" lon="11.464418880899155"><ele>171.5</ele><time>2026-03-22T10:35:15.999Z</time></trkpt><trkpt lat="42.572170128055745" lon="11.464736719156617"><ele>167.0</ele><time>2026-03-22T10:35:16.999Z</time></trkpt><trkpt lat="42.572206642487096" lon="11.465054922003732"><ele>167.0</ele><time>2026-03-22T10:35:17.999Z</time></trkpt><trkpt lat="42.57224048772184" lon="11.465372197017357"><ele>167.0</ele><time>2026-03-22T10:35:18.999Z</time></trkpt><trkpt lat="42.57226681854848" lon="11.465692327239429"><ele>169.0</ele><time>2026-03-22T10:35:19.999Z</time></trkpt><trkpt lat="42.5722877761525" lon="11.466008453114096"><ele>171.0</ele><time>2026-03-22T10:35:20.999Z</time></trkpt><trkpt lat="42.57230719973684" lon="11.466320829598718"><ele>173.5</ele><time>2026-03-22T10:35:21.999Z</time></trkpt><trkpt lat="42.57232637258656" lon="11.466629173686643"><ele>176.0</ele><time>2026-03-22T10:35:22.999Z</time></trkpt><trkpt lat="42.57234448943813" lon="11.46693417421075"><ele>178.0</ele><time>2026-03-22T10:35:23.999Z</time></trkpt><trkpt lat="42.572361871104896" lon="11.467235484814744"><ele>180.0</ele><time>2026-03-22T10:35:24.999Z</time></trkpt><trkpt lat="42.572379033468565" lon="11.467532993757175"><ele>182.0</ele><time>2026-03-22T10:35:25.999Z</time></trkpt><trkpt lat="42.57239533119844" lon="11.467819101920778"><ele>184.66666666666666</ele><time>2026-03-22T10:35:26.999Z</time></trkpt><trkpt lat="42.57239571175596" lon="11.468092995092949"><ele>187.33333333333334</ele><time>2026-03-22T10:35:27.999Z</time></trkpt><trkpt lat="42.57236005656985" lon="11.468349539125846"><ele>190.0</ele><time>2026-03-22T10:35:28.999Z</time></trkpt><trkpt lat="42.57230242300451" lon="11.46860362824221"><ele>191.66666666666669</ele><time>2026-03-22T10:35:29.999Z</time></trkpt><trkpt lat="42.57224797374328" lon="11.46884611675946"><ele>193.33333333333334</ele><time>2026-03-22T10:35:30.999Z</time></trkpt><trkpt lat="42.57219895557311" lon="11.469064418038124"><ele>195.0</ele><time>2026-03-22T10:35:31.999Z</time></trkpt><trkpt lat="42.572155324400896" lon="11.469258728446924"><ele>195.0</ele><time>2026-03-22T10:35:32.999Z</time></trkpt><trkpt lat="42.572391354928996" lon="11.469529198485846"><ele>195.0</ele><time>2026-03-22T10:35:33.999Z</time></trkpt><trkpt lat="42.57250345160952" lon="11.46969600615508"><ele>193.33333333333334</ele><time>2026-03-22T10:35:34.999Z</time></trkpt><trkpt lat="42.57264518888883" lon="11.469819580147142"><ele>191.66666666666669</ele><time>2026-03-22T10:35:35.999Z</time></trkpt><trkpt lat="42.5727972778725" lon="11.46990290048032"><ele>190.0</ele><time>2026-03-22T10:35:36.999Z</time></trkpt><trkpt lat="42.57294728331953" lon="11.46999807889444"><ele>193.66666666666669</ele><time>2026-03-22T10:35:37.999Z</time></trkpt><trkpt lat="42.57306818076567" lon="11.470134169942655"><ele>197.33333333333334</ele><time>2026-03-22T10:35:38.999Z</time></trkpt><trkpt lat="42.573150617832184" lon="11.470313343240052"><ele>201.0</ele><time>2026-03-22T10:35:39.999Z</time></trkpt><trkpt lat="42.57319455984719" lon="11.47052336392658"><ele>201.0</ele><time>2026-03-22T10:35:40.999Z</time></trkpt><trkpt lat="42.57323457623082" lon="11.470723596074105"><ele>201.0</ele><time>2026-03-22T10:35:41.999Z</time></trkpt><trkpt lat="42.57329938305119" lon="11.470915632091087"><ele>201.0</ele><time>2026-03-22T10:35:42.999Z</time></trkpt><trkpt lat="42.573403651568604" lon="11.471082437890903"><ele>201.0</ele><time>2026-03-22T10:35:43.999Z</time></trkpt><trkpt lat="42.57354041591978" lon="11.471210223712237"><ele>201.0</ele><time>2026-03-22T10:35:44.999Z</time></trkpt><trkpt lat="42.57369274779427" lon="11.471304949935957"><ele>201.0</ele><time>2026-03-22T10:35:45.999Z</time></trkpt><trkpt lat="42.573849027634054" lon="11.471405840728217"><ele>204.66666666666669</ele><time>2026-03-22T10:35:46.999Z</time></trkpt><trkpt lat="42.57398719455916" lon="11.471548787970805"><ele>208.33333333333334</ele><time>2026-03-22T10:35:47.999Z</time></trkpt><trkpt lat="42.57411010423096" lon="11.47172491545195"><ele>212.0</ele><time>2026-03-22T10:35:48.999Z</time></trkpt><trkpt lat="42.57420573708073" lon="11.471936492628423"><ele>210.66666666666669</ele><time>2026-03-22T10:35:49.999Z</time></trkpt><trkpt lat="42.574285464046774" lon="11.472164900691808"><ele>209.33333333333331</ele><time>2026-03-22T10:35:50.999Z</time></trkpt><trkpt lat="42.574373059124945" lon="11.472384971466642"><ele>208.0</ele><time>2026-03-22T10:35:51.999Z</time></trkpt><trkpt lat="42.57449425383562" lon="11.472584022461112"><ele>211.0</ele><time>2026-03-22T10:35:52.999Z</time></trkpt><trkpt lat="42.57462694599128" lon="11.472779980824347"><ele>214.0</ele><time>2026-03-22T10:35:53.999Z</time></trkpt><trkpt lat="42.57477012809744" lon="11.472963353210416"><ele>217.0</ele><time>2026-03-22T10:35:54.999Z</time></trkpt><trkpt lat="42.57491767361653" lon="11.473141347578906"><ele>217.0</ele><time>2026-03-22T10:35:55.999Z</time></trkpt><trkpt lat="42.57507283736101" lon="11.473300860778092"><ele>217.0</ele><time>2026-03-22T10:35:56.999Z</time></trkpt><trkpt lat="42.57523109560831" lon="11.473443317905845"><ele>217.0</ele><time>2026-03-22T10:35:57.999Z</time></trkpt><trkpt lat="42.575377026916165" lon="11.47356789617933"><ele>220.33333333333331</ele><time>2026-03-22T10:35:58.999Z</time></trkpt><trkpt lat="42.575513860628" lon="11.473687645598446"><ele>223.66666666666669</ele><time>2026-03-22T10:36:00Z</time></trkpt><trkpt lat="42.57563596624207" lon="11.473817513297137"><ele>227.0</ele><time>2026-03-22T10:36:01Z</time></trkpt><trkpt lat="42.57572681610639" lon="11.473992554033508"><ele>227.0</ele><time>2026-03-22T10:36:02Z</time></trkpt><trkpt lat="42.57579871867026" lon="11.474196289042037"><ele>227.0</ele><time>2026-03-22T10:36:03Z</time></trkpt><trkpt lat="42.57585553993547" lon="11.474412280034016"><ele>227.0</ele><time>2026-03-22T10:36:04Z</time></trkpt><trkpt lat="42.5759060023683" lon="11.474643006008735"><ele>227.66666666666669</ele><time>2026-03-22T10:36:05Z</time></trkpt><trkpt lat="42.57596515795133" lon="11.474877931232353"><ele>228.33333333333331</ele><time>2026-03-22T10:36:06Z</time></trkpt><trkpt lat="42.57602761739962" lon="11.475115860235205"><ele>229.0</ele><time>2026-03-22T10:36:07Z</time></trkpt><trkpt lat="42.57609756777349" lon="11.475353377123575"><ele>231.0</ele><time>2026-03-22T10:36:08Z</time></trkpt><trkpt lat="42.57616588716709" lon="11.475593549563591"><ele>233.0</ele><time>2026-03-22T10:36:09Z</time></trkpt><trkpt lat="42.57623316797199" lon="11.475839964601226"><ele>235.0</ele><time>2026-03-22T10:36:10Z</time></trkpt><trkpt lat="42.576304143448596" lon="11.476091525981365"><ele>236.33333333333331</ele><time>2026-03-22T10:36:11Z</time></trkpt><trkpt lat="42.57637832447094" lon="11.476346412572672"><ele>237.66666666666669</ele><time>2026-03-22T10:36:12Z</time></trkpt><trkpt lat="42.57645726628848" lon="11.476606232554039"><ele>239.0</ele><time>2026-03-22T10:36:13Z</time></trkpt><trkpt lat="42.57652892219246" lon="11.476873039170655"><ele>238.0</ele><time>2026-03-22T10:36:14Z</time></trkpt><trkpt lat="42.57658763793882" lon="11.477149085146213"><ele>237.0</ele><time>2026-03-22T10:36:15Z</time></trkpt><trkpt lat="42.57662788790051" lon="11.477436947231768"><ele>236.0</ele><time>2026-03-22T10:36:16Z</time></trkpt><trkpt lat="42.5766476556056" lon="11.477735105226973"><ele>235.5</ele><time>2026-03-22T10:36:17Z</time></trkpt><trkpt lat="42.576662558215475" lon="11.478040135320052"><ele>235.0</ele><time>2026-03-22T10:36:18Z</time></trkpt><trkpt lat="42.57668469012269" lon="11.478348181309231"><ele>235.0</ele><time>2026-03-22T10:36:19Z</time></trkpt><trkpt lat="42.5767108869807" lon="11.478659229041359"><ele>235.0</ele><time>2026-03-22T10:36:20Z</time></trkpt><trkpt lat="42.57673658513146" lon="11.478968103630514"><ele>237.5</ele><time>2026-03-22T10:36:21Z</time></trkpt><trkpt lat="42.57676275457734" lon="11.479272197262512"><ele>240.0</ele><time>2026-03-22T10:36:22Z</time></trkpt><trkpt lat="42.576785342039" lon="11.47957500309013"><ele>242.5</ele><time>2026-03-22T10:36:23Z</time></trkpt><trkpt lat="42.5768086143217" lon="11.47987930032779"><ele>245.0</ele><time>2026-03-22T10:36:24Z</time></trkpt><trkpt lat="42.576829597141504" lon="11.48018484796101"><ele>245.5</ele><time>2026-03-22T10:36:25Z</time></trkpt><trkpt lat="42.576848153677616" lon="11.480492441285495"><ele>246.0</ele><time>2026-03-22T10:36:26Z</time></trkpt><trkpt lat="42.576877427118106" lon="11.480795027170393"><ele>246.0</ele><time>2026-03-22T10:36:27Z</time></trkpt><trkpt lat="42.576923726964154" lon="11.481094756510853"><ele>246.0</ele><time>2026-03-22T10:36:28Z</time></trkpt><trkpt lat="42.57698337583097" lon="11.481390561929814"><ele>246.0</ele><time>2026-03-22T10:36:29Z</time></trkpt><trkpt lat="42.577050702274434" lon="11.481686771779609"><ele>246.0</ele><time>2026-03-22T10:36:30Z</time></trkpt><trkpt lat="42.57712727554804" lon="11.481975549336218"><ele>247.5</ele><time>2026-03-22T10:36:31Z</time></trkpt><trkpt lat="42.57720710661591" lon="11.482267355036246"><ele>249.0</ele><time>2026-03-22T10:36:32Z</time></trkpt><trkpt lat="42.57728637693003" lon="11.482556210662388"><ele>249.0</ele><time>2026-03-22T10:36:33Z</time></trkpt><trkpt lat="42.57736636751821" lon="11.4828490047879"><ele>249.0</ele><time>2026-03-22T10:36:34Z</time></trkpt><trkpt lat="42.57744568738675" lon="11.483139780208937"><ele>251.5</ele><time>2026-03-22T10:36:35Z</time></trkpt><trkpt lat="42.577523809330124" lon="11.483430025433625"><ele>254.0</ele><time>2026-03-22T10:36:36Z</time></trkpt><trkpt lat="42.57760335930919" lon="11.483718907890962"><ele>254.0</ele><time>2026-03-22T10:36:37Z</time></trkpt><trkpt lat="42.57768780280295" lon="11.484008297738876"><ele>254.0</ele><time>2026-03-22T10:36:38Z</time></trkpt><trkpt lat="42.57777231693576" lon="11.484300827858997"><ele>255.0</ele><time>2026-03-22T10:36:39Z</time></trkpt><trkpt lat="42.57785587537513" lon="11.484597386510833"><ele>256.0</ele><time>2026-03-22T10:36:40Z</time></trkpt><trkpt lat="42.577935036346716" lon="11.484897405204999"><ele>256.0</ele><time>2026-03-22T10:36:41Z</time></trkpt><trkpt lat="42.57801310585055" lon="11.485201209850656"><ele>256.0</ele><time>2026-03-22T10:36:42Z</time></trkpt><trkpt lat="42.578090592183344" lon="11.48550690660974"><ele>255.0</ele><time>2026-03-22T10:36:43Z</time></trkpt><trkpt lat="42.57816971590058" lon="11.48581640600363"><ele>254.0</ele><time>2026-03-22T10:36:44Z</time></trkpt><trkpt lat="42.57824833671003" lon="11.486131191363103"><ele>253.5</ele><time>2026-03-22T10:36:45Z</time></trkpt><trkpt lat="42.578328295275774" lon="11.48644898905202"><ele>253.0</ele><time>2026-03-22T10:36:46Z</time></trkpt><trkpt lat="42.57841598497397" lon="11.48676557613417"><ele>253.0</ele><time>2026-03-22T10:36:47Z</time></trkpt><trkpt lat="42.57851455066722" lon="11.487078098959287"><ele>253.0</ele><time>2026-03-22T10:36:48Z</time></trkpt><trkpt lat="42.578625863284024" lon="11.487391501325028"><ele>254.0</ele><time>2026-03-22T10:36:49Z</time></trkpt><trkpt lat="42.57874489973038" lon="11.487703074428486"><ele>255.0</ele><time>2026-03-22T10:36:50Z</time></trkpt><trkpt lat="42.57886563583906" lon="11.488019636937405"><ele>252.5</ele><time>2026-03-22T10:36:51Z</time></trkpt><trkpt lat="42.578985132264386" lon="11.488337578951228"><ele>250.0</ele><time>2026-03-22T10:36:52Z</time></trkpt><trkpt lat="42.57910427797874" lon="11.488659892202964"><ele>249.0</ele><time>2026-03-22T10:36:53Z</time></trkpt><trkpt lat="42.57922016725347" lon="11.488983794457955"><ele>248.0</ele><time>2026-03-22T10:36:54Z</time></trkpt><trkpt lat="42.579333500011906" lon="11.489309607078296"><ele>250.0</ele><time>2026-03-22T10:36:55Z</time></trkpt><trkpt lat="42.57944255943353" lon="11.489636789732364"><ele>252.0</ele><time>2026-03-22T10:36:56Z</time></trkpt><trkpt lat="42.57954624303923" lon="11.489969922408706"><ele>252.0</ele><time>2026-03-22T10:36:57Z</time></trkpt><trkpt lat="42.57964150908479" lon="11.490306036543048"><ele>252.0</ele><time>2026-03-22T10:36:58Z</time></trkpt><trkpt lat="42.579736621273454" lon="11.490626866987022"><ele>249.5</ele><time>2026-03-22T10:36:59Z</time></trkpt><trkpt lat="42.5798327931148" lon="11.490928946200649"><ele>247.0</ele><time>2026-03-22T10:37:00Z</time></trkpt><trkpt lat="42.579926431720125" lon="11.491207643509128"><ele>245.66666666666666</ele><time>2026-03-22T10:37:01Z</time></trkpt><trkpt lat="42.580033357524925" lon="11.491450576455167"><ele>244.33333333333331</ele><time>2026-03-22T10:37:02Z</time></trkpt><trkpt lat="42.580167614036874" lon="11.49167085185314"><ele>243.0</ele><time>2026-03-22T10:37:03Z</time></trkpt><trkpt lat="42.580327687379" lon="11.491859301297923"><ele>245.66666666666669</ele><time>2026-03-22T10:37:04Z</time></trkpt><trkpt lat="42.58049868081483" lon="11.492011229939681"><ele>248.33333333333334</ele><time>2026-03-22T10:37:05Z</time></trkpt><trkpt lat="42.58067492994587" lon="11.492130956313481"><ele>251.0</ele><time>2026-03-22T10:37:06Z</time></trkpt><trkpt lat="42.58084240830303" lon="11.49223273734337"><ele>251.0</ele><time>2026-03-22T10:37:07Z</time></trkpt><trkpt lat="42.580990644979615" lon="11.492341738541336"><ele>251.0</ele><time>2026-03-22T10:37:08Z</time></trkpt><trkpt lat="42.581109471187624" lon="11.492464865076629"><ele>251.0</ele><time>2026-03-22T10:37:09Z</time></trkpt><trkpt lat="42.58119430075069" lon="11.492612043067336"><ele>256.33333333333337</ele><time>2026-03-22T10:37:10Z</time></trkpt><trkpt lat="42.58122426048097" lon="11.492808775034709"><ele>261.6666666666667</ele><time>2026-03-22T10:37:11Z</time></trkpt><trkpt lat="42.58121876239575" lon="11.493008004952593"><ele>267.0</ele><time>2026-03-22T10:37:12Z</time></trkpt><trkpt lat="42.5812217430119" lon="11.493227560220395"><ele>267.0</ele><time>2026-03-22T10:37:13Z</time></trkpt><trkpt lat="42.58124777073446" lon="11.493447528938917"><ele>267.0</ele><time>2026-03-22T10:37:14Z</time></trkpt><trkpt lat="42.58130283733742" lon="11.493672126653735"><ele>267.0</ele><time>2026-03-22T10:37:15Z</time></trkpt><trkpt lat="42.581394461357256" lon="11.49391280056623"><ele>265.6666666666667</ele><time>2026-03-22T10:37:16Z</time></trkpt><trkpt lat="42.58150327247848" lon="11.494123387295252"><ele>264.33333333333337</ele><time>2026-03-22T10:37:17Z</time></trkpt><trkpt lat="42.58163480037919" lon="11.494317640342395"><ele>263.0</ele><time>2026-03-22T10:37:18Z</time></trkpt><trkpt lat="42.58177638036379" lon="11.494511053223194"><ele>262.6666666666667</ele><time>2026-03-22T10:37:19Z</time></trkpt><trkpt lat="42.5819142668083" lon="11.49471398731408"><ele>262.3333333333333</ele><time>2026-03-22T10:37:20Z</time></trkpt><trkpt lat="42.582051279746565" lon="11.494918047494192"><ele>262.0</ele><time>2026-03-22T10:37:21Z</time></trkpt><trkpt lat="42.58218882678301" lon="11.495113182933405"><ele>263.3333333333333</ele><time>2026-03-22T10:37:22Z</time></trkpt><trkpt lat="42.58231236661071" lon="11.495324511948443"><ele>264.6666666666667</ele><time>2026-03-22T10:37:23Z</time></trkpt><trkpt lat="42.58241649170878" lon="11.495547233759318"><ele>266.0</ele><time>2026-03-22T10:37:23.999Z</time></trkpt><trkpt lat="42.58251357525607" lon="11.495763282292806"><ele>266.0</ele><time>2026-03-22T10:37:24.999Z</time></trkpt><trkpt lat="42.58262463111468" lon="11.495968259381856"><ele>266.0</ele><time>2026-03-22T10:37:25.999Z</time></trkpt><trkpt lat="42.582764394387574" lon="11.496137498382586"><ele>266.0</ele><time>2026-03-22T10:37:26.999Z</time></trkpt><trkpt lat="42.58292929445538" lon="11.496264900418227"><ele>267.33333333333337</ele><time>2026-03-22T10:37:27.999Z</time></trkpt><trkpt lat="42.58310960510552" lon="11.496344903087213"><ele>268.6666666666667</ele><time>2026-03-22T10:37:28.998Z</time></trkpt><trkpt lat="42.58329925295134" lon="11.496366104351809"><ele>270.0</ele><time>2026-03-22T10:37:29.998Z</time></trkpt><trkpt lat="42.583486324044685" lon="11.496375861271165"><ele>270.0</ele><time>2026-03-22T10:37:30.998Z</time></trkpt><trkpt lat="42.58365725919025" lon="11.49645908414295"><ele>270.0</ele><time>2026-03-22T10:37:31.998Z</time></trkpt><trkpt lat="42.58381825607512" lon="11.496574044897649"><ele>270.0</ele><time>2026-03-22T10:37:32.998Z</time></trkpt><trkpt lat="42.58396674707192" lon="11.496711107154221"><ele>270.3333333333333</ele><time>2026-03-22T10:37:33.998Z</time></trkpt><trkpt lat="42.58413584246155" lon="11.496839247018338"><ele>270.66666666666663</ele><time>2026-03-22T10:37:34.998Z</time></trkpt><trkpt lat="42.5843105596679" lon="11.49696469640154"><ele>271.0</ele><time>2026-03-22T10:37:35.998Z</time></trkpt><trkpt lat="42.5844812598729" lon="11.497089494674746"><ele>272.0</ele><time>2026-03-22T10:37:36.998Z</time></trkpt><trkpt lat="42.58465692372317" lon="11.497222644028946"><ele>273.0</ele><time>2026-03-22T10:37:37.998Z</time></trkpt><trkpt lat="42.58483450395612" lon="11.497345799672084"><ele>274.0</ele><time>2026-03-22T10:37:38.998Z</time></trkpt><trkpt lat="42.58502456135362" lon="11.497446271401007"><ele>274.0</ele><time>2026-03-22T10:37:39.998Z</time></trkpt><trkpt lat="42.5852236628649" lon="11.497530179528933"><ele>274.0</ele><time>2026-03-22T10:37:40.998Z</time></trkpt><trkpt lat="42.585424274955315" lon="11.497602033125245"><ele>274.0</ele><time>2026-03-22T10:37:41.998Z</time></trkpt><trkpt lat="42.585629083208765" lon="11.497679637718834"><ele>275.66666666666663</ele><time>2026-03-22T10:37:42.998Z</time></trkpt><trkpt lat="42.585833479853136" lon="11.497759079623894"><ele>277.3333333333333</ele><time>2026-03-22T10:37:43.998Z</time></trkpt><trkpt lat="42.586035241518296" lon="11.497837252266876"><ele>279.0</ele><time>2026-03-22T10:37:44.998Z</time></trkpt><trkpt lat="42.58623617737939" lon="11.497916657823076"><ele>279.3333333333333</ele><time>2026-03-22T10:37:45.998Z</time></trkpt><trkpt lat="42.586434449987685" lon="11.498010060053106"><ele>279.66666666666663</ele><time>2026-03-22T10:37:46.998Z</time></trkpt><trkpt lat="42.58662702472129" lon="11.49812251279963"><ele>280.0</ele><time>2026-03-22T10:37:47.998Z</time></trkpt><trkpt lat="42.58680280469204" lon="11.498279095570119"><ele>280.0</ele><time>2026-03-22T10:37:48.998Z</time></trkpt><trkpt lat="42.58698980153475" lon="11.49840272400964"><ele>280.0</ele><time>2026-03-22T10:37:49.998Z</time></trkpt><trkpt lat="42.587179010365816" lon="11.498527890620156"><ele>280.0</ele><time>2026-03-22T10:37:50.998Z</time></trkpt><trkpt lat="42.58736844910823" lon="11.498653573368316"><ele>280.0</ele><time>2026-03-22T10:37:51.998Z</time></trkpt><trkpt lat="42.58755833507912" lon="11.498779552817176"><ele>280.0</ele><time>2026-03-22T10:37:52.998Z</time></trkpt><trkpt lat="42.58774470494494" lon="11.49891267458086"><ele>280.0</ele><time>2026-03-22T10:37:53.998Z</time></trkpt><trkpt lat="42.587919120355835" lon="11.499064265825135"><ele>282.3333333333333</ele><time>2026-03-22T10:37:54.998Z</time></trkpt><trkpt lat="42.588079997769455" lon="11.499239875408946"><ele>284.6666666666667</ele><time>2026-03-22T10:37:55.998Z</time></trkpt><trkpt lat="42.58822182643432" lon="11.499438452501222"><ele>287.0</ele><time>2026-03-22T10:37:56.998Z</time></trkpt><trkpt lat="42.588354343215485" lon="11.499663985184016"><ele>287.0</ele><time>2026-03-22T10:37:57.998Z</time></trkpt><trkpt lat="42.588480244086476" lon="11.499902141531598"><ele>287.0</ele><time>2026-03-22T10:37:58.998Z</time></trkpt><trkpt lat="42.58860409968664" lon="11.50014211107211"><ele>287.0</ele><time>2026-03-22T10:37:59.998Z</time></trkpt><trkpt lat="42.588721268020066" lon="11.500368385689576"><ele>289.33333333333337</ele><time>2026-03-22T10:38:00.998Z</time></trkpt><trkpt lat="42.58883431256634" lon="11.50058526996957"><ele>291.6666666666667</ele><time>2026-03-22T10:38:01.998Z</time></trkpt><trkpt lat="42.58894083892226" lon="11.500789316188627"><ele>294.0</ele><time>2026-03-22T10:38:02.998Z</time></trkpt><trkpt lat="42.58904313825963" lon="11.500985265693878"><ele>294.0</ele><time>2026-03-22T10:38:03.998Z</time></trkpt><trkpt lat="42.589140130685266" lon="11.501170193842661"><ele>294.0</ele><time>2026-03-22T10:38:04.998Z</time></trkpt><trkpt lat="42.589227223525036" lon="11.501336367118107"><ele>294.0</ele><time>2026-03-22T10:38:06Z</time></trkpt><trkpt lat="42.589308547918584" lon="11.501491321890256"><ele>292.4</ele><time>2026-03-22T10:38:07Z</time></trkpt><trkpt lat="42.58938221600324" lon="11.501631245486347"><ele>290.79999999999995</ele><time>2026-03-22T10:38:07.999Z</time></trkpt><trkpt lat="42.58944879198917" lon="11.501758004505332"><ele>289.20000000000005</ele><time>2026-03-22T10:38:09Z</time></trkpt><trkpt lat="42.58950672520282" lon="11.50187253522019"><ele>287.6</ele><time>2026-03-22T10:38:10Z</time></trkpt><trkpt lat="42.58955527785151" lon="11.501968522392282"><ele>286.0</ele><time>2026-03-22T10:38:10.999Z</time></trkpt><trkpt lat="42.58958940136943" lon="11.502046459395565"><ele>288.66666666666663</ele><time>2026-03-22T10:38:12Z</time></trkpt><trkpt lat="42.58962030710097" lon="11.50212127426817"><ele>291.3333333333333</ele><time>2026-03-22T10:38:13Z</time></trkpt><trkpt lat="42.589672992448186" lon="11.502262016975202"><ele>294.0</ele><time>2026-03-22T10:38:14.999Z</time></trkpt><trkpt lat="42.58970521961094" lon="11.5023674394118"><ele>296.6666666666667</ele><time>2026-03-22T10:38:16.999Z</time></trkpt><trkpt lat="42.58972842380693" lon="11.502453238286773"><ele>299.33333333333337</ele><time>2026-03-22T10:38:19Z</time></trkpt><trkpt lat="42.58974878393709" lon="11.502539006600777"><ele>302.0</ele><time>2026-03-22T10:38:19.999Z</time></trkpt><trkpt lat="42.58977032077738" lon="11.502644310250416"><ele>302.0</ele><time>2026-03-22T10:38:20.999Z</time></trkpt><trkpt lat="42.589794727960225" lon="11.502763411896074"><ele>302.0</ele><time>2026-03-22T10:38:21.999Z</time></trkpt><trkpt lat="42.589788838534844" lon="11.50293337424812"><ele>302.0</ele><time>2026-03-22T10:38:22.999Z</time></trkpt><trkpt lat="42.58978054197206" lon="11.503105929803501"><ele>302.0</ele><time>2026-03-22T10:38:23.999Z</time></trkpt><trkpt lat="42.58975000140051" lon="11.503296812705079"><ele>300.6666666666667</ele><time>2026-03-22T10:38:24.999Z</time></trkpt><trkpt lat="42.589723422910176" lon="11.5034960884913"><ele>299.3333333333333</ele><time>2026-03-22T10:38:25.999Z</time></trkpt><trkpt lat="42.58968092814978" lon="11.503702982472975"><ele>298.0</ele><time>2026-03-22T10:38:26.999Z</time></trkpt><trkpt lat="42.589644175507495" lon="11.503897847617655"><ele>297.0</ele><time>2026-03-22T10:38:27.999Z</time></trkpt><trkpt lat="42.589606350884665" lon="11.504098396480906"><ele>296.0</ele><time>2026-03-22T10:38:28.999Z</time></trkpt><trkpt lat="42.58956603322202" lon="11.504312163588873"><ele>295.0</ele><time>2026-03-22T10:38:29.999Z</time></trkpt><trkpt lat="42.58952685774676" lon="11.504519874796086"><ele>299.0</ele><time>2026-03-22T10:38:30.999Z</time></trkpt><trkpt lat="42.58948787171789" lon="11.504726914958907"><ele>303.0</ele><time>2026-03-22T10:38:31.999Z</time></trkpt><trkpt lat="42.58944739038951" lon="11.504927218315826"><ele>307.0</ele><time>2026-03-22T10:38:32.999Z</time></trkpt><trkpt lat="42.58939241279804" lon="11.505100342284598"><ele>311.0</ele><time>2026-03-22T10:38:33.999Z</time></trkpt><trkpt lat="42.589317244767145" lon="11.505257134566353"><ele>311.0</ele><time>2026-03-22T10:38:34.999Z</time></trkpt><trkpt lat="42.58921661437989" lon="11.505371655012853"><ele>311.0</ele><time>2026-03-22T10:38:35.999Z</time></trkpt><trkpt lat="42.589092990647416" lon="11.505458239478246"><ele>311.0</ele><time>2026-03-22T10:38:36.999Z</time></trkpt><trkpt lat="42.58894974559954" lon="11.505547841484091"><ele>311.0</ele><time>2026-03-22T10:38:37.999Z</time></trkpt><trkpt lat="42.588810581997194" lon="11.505639457166339"><ele>312.33333333333337</ele><time>2026-03-22T10:38:38.999Z</time></trkpt><trkpt lat="42.5886685772278" lon="11.505732943279297"><ele>313.6666666666667</ele><time>2026-03-22T10:38:39.999Z</time></trkpt><trkpt lat="42.588521030436226" lon="11.505829215820398"><ele>315.0</ele><time>2026-03-22T10:38:40.999Z</time></trkpt><trkpt lat="42.58837906225661" lon="11.505921701999421"><ele>315.0</ele><time>2026-03-22T10:38:41.999Z</time></trkpt><trkpt lat="42.58822128990248" lon="11.506022067822308"><ele>315.0</ele><time>2026-03-22T10:38:42.999Z</time></trkpt><trkpt lat="42.588070982572006" lon="11.506103465826483"><ele>315.0</ele><time>2026-03-22T10:38:43.999Z</time></trkpt><trkpt lat="42.58791708305076" lon="11.50614330224358"><ele>314.6666666666667</ele><time>2026-03-22T10:38:44.999Z</time></trkpt><trkpt lat="42.58775403805589" lon="11.506143302638355"><ele>314.33333333333337</ele><time>2026-03-22T10:38:45.999Z</time></trkpt><trkpt lat="42.58759323485706" lon="11.506134006658664"><ele>314.0</ele><time>2026-03-22T10:38:46.999Z</time></trkpt><trkpt lat="42.587433576387255" lon="11.5061284513486"><ele>314.0</ele><time>2026-03-22T10:38:47.999Z</time></trkpt><trkpt lat="42.58726818614018" lon="11.50615164155283"><ele>314.0</ele><time>2026-03-22T10:38:48.999Z</time></trkpt><trkpt lat="42.587110009902155" lon="11.506204598910738"><ele>314.0</ele><time>2026-03-22T10:38:49.999Z</time></trkpt><trkpt lat="42.58695975651509" lon="11.506287037811184"><ele>317.0</ele><time>2026-03-22T10:38:50.999Z</time></trkpt><trkpt lat="42.58679644596444" lon="11.50641038556052"><ele>320.0</ele><time>2026-03-22T10:38:51.999Z</time></trkpt><trkpt lat="42.586644452491484" lon="11.506558241972202"><ele>323.0</ele><time>2026-03-22T10:38:52.999Z</time></trkpt><trkpt lat="42.58648124078183" lon="11.50664722324627"><ele>323.0</ele><time>2026-03-22T10:38:53.999Z</time></trkpt><trkpt lat="42.58631794496201" lon="11.506704745499045"><ele>323.0</ele><time>2026-03-22T10:38:54.999Z</time></trkpt><trkpt lat="42.586150959643135" lon="11.506737471697312"><ele>323.0</ele><time>2026-03-22T10:38:55.999Z</time></trkpt><trkpt lat="42.586045577128196" lon="11.506899794586927"><ele>322.5</ele><time>2026-03-22T10:38:56.999Z</time></trkpt><trkpt lat="42.585915472335614" lon="11.506972150446598"><ele>322.0</ele><time>2026-03-22T10:38:57.999Z</time></trkpt><trkpt lat="42.585811197202965" lon="11.5070722368287"><ele>321.5</ele><time>2026-03-22T10:38:58.999Z</time></trkpt><trkpt lat="42.58572579844515" lon="11.507242789840744"><ele>321.0</ele><time>2026-03-22T10:38:59.999Z</time></trkpt><trkpt lat="42.58576239481391" lon="11.507384390691527"><ele>321.0</ele><time>2026-03-22T10:39:00.999Z</time></trkpt><trkpt lat="42.58580197387714" lon="11.507499363665989"><ele>321.0</ele><time>2026-03-22T10:39:01.999Z</time></trkpt><trkpt lat="42.58586499584312" lon="11.50758268412425"><ele>321.0</ele><time>2026-03-22T10:39:02.999Z</time></trkpt><trkpt lat="42.585942328700774" lon="11.507684325560298"><ele>321.0</ele><time>2026-03-22T10:39:03.999Z</time></trkpt><trkpt lat="42.586037741260604" lon="11.507790619223677"><ele>321.0</ele><time>2026-03-22T10:39:04.999Z</time></trkpt><trkpt lat="42.58614012968744" lon="11.507895980750398"><ele>324.0</ele><time>2026-03-22T10:39:05.999Z</time></trkpt><trkpt lat="42.58631031033405" lon="11.507998160259055"><ele>327.0</ele><time>2026-03-22T10:39:06.999Z</time></trkpt><trkpt lat="42.586505645033235" lon="11.508048936054307"><ele>330.0</ele><time>2026-03-22T10:39:07.999Z</time></trkpt><trkpt lat="42.58671629041755" lon="11.50808131421362"><ele>330.0</ele><time>2026-03-22T10:39:08.999Z</time></trkpt><trkpt lat="42.58693744257293" lon="11.508130291074531"><ele>330.0</ele><time>2026-03-22T10:39:09.999Z</time></trkpt><trkpt lat="42.587106895229226" lon="11.50816483181248"><ele>330.0</ele><time>2026-03-22T10:39:10.999Z</time></trkpt><trkpt lat="42.58729102512243" lon="11.508138128090847"><ele>333.3333333333333</ele><time>2026-03-22T10:39:11.999Z</time></trkpt><trkpt lat="42.58749350460344" lon="11.508277304049898"><ele>336.66666666666663</ele><time>2026-03-22T10:39:12.999Z</time></trkpt><trkpt lat="42.58769358499818" lon="11.50824221400856"><ele>340.0</ele><time>2026-03-22T10:39:13.999Z</time></trkpt><trkpt lat="42.587915490801876" lon="11.508273340752657"><ele>343.66666666666663</ele><time>2026-03-22T10:39:14.999Z</time></trkpt><trkpt lat="42.58811077046163" lon="11.50825905581374"><ele>347.3333333333333</ele><time>2026-03-22T10:39:15.999Z</time></trkpt><trkpt lat="42.58829743887216" lon="11.508240548429407"><ele>351.0</ele><time>2026-03-22T10:39:16.999Z</time></trkpt><trkpt lat="42.588480062714396" lon="11.508224413214306"><ele>351.0</ele><time>2026-03-22T10:39:17.999Z</time></trkpt><trkpt lat="42.588659809806146" lon="11.508136023127346"><ele>351.0</ele><time>2026-03-22T10:39:18.999Z</time></trkpt><trkpt lat="42.58882614976399" lon="11.508104844656105"><ele>351.0</ele><time>2026-03-22T10:39:19.999Z</time></trkpt><trkpt lat="42.58897609611806" lon="11.508065434801113"><ele>352.25</ele><time>2026-03-22T10:39:20.999Z</time></trkpt><trkpt lat="42.589113272369595" lon="11.508052410616727"><ele>353.5</ele><time>2026-03-22T10:39:21.999Z</time></trkpt><trkpt lat="42.58923695502504" lon="11.508108622710893"><ele>354.75</ele><time>2026-03-22T10:39:22.999Z</time></trkpt><trkpt lat="42.58929983924341" lon="11.508227769524488"><ele>356.0</ele><time>2026-03-22T10:39:23.999Z</time></trkpt><trkpt lat="42.58940833406407" lon="11.508324744753658"><ele>355.25</ele><time>2026-03-22T10:39:24.999Z</time></trkpt><trkpt lat="42.58953350848485" lon="11.508405490630055"><ele>354.5</ele><time>2026-03-22T10:39:25.999Z</time></trkpt><trkpt lat="42.58968346545751" lon="11.508415287018211"><ele>353.75</ele><time>2026-03-22T10:39:26.999Z</time></trkpt><trkpt lat="42.58982794750375" lon="11.508375541590885"><ele>353.0</ele><time>2026-03-22T10:39:27.999Z</time></trkpt><trkpt lat="42.5899553020997" lon="11.508273351411438"><ele>353.0</ele><time>2026-03-22T10:39:28.999Z</time></trkpt><trkpt lat="42.59005472924416" lon="11.508205848361692"><ele>353.0</ele><time>2026-03-22T10:39:29.999Z</time></trkpt><trkpt lat="42.59015478453371" lon="11.508237457462506"><ele>353.0</ele><time>2026-03-22T10:39:30.999Z</time></trkpt><trkpt lat="42.590203499143506" lon="11.50835328673369"><ele>353.0</ele><time>2026-03-22T10:39:31.999Z</time></trkpt><trkpt lat="42.59015500535126" lon="11.508459219604195"><ele>353.0</ele><time>2026-03-22T10:39:32.998Z</time></trkpt><trkpt lat="42.59010246809401" lon="11.508519344022684"><ele>353.0</ele><time>2026-03-22T10:39:33.998Z</time></trkpt><trkpt lat="42.590033233231345" lon="11.508555772009634"><ele>353.0</ele><time>2026-03-22T10:39:34.998Z</time></trkpt><trkpt lat="42.58993637337582" lon="11.508602539914584"><ele>353.0</ele><time>2026-03-22T10:39:35.998Z</time></trkpt><trkpt lat="42.589841110825645" lon="11.508640051165195"><ele>353.0</ele><time>2026-03-22T10:39:36.998Z</time></trkpt><trkpt lat="42.5897325728542" lon="11.508691331268464"><ele>353.0</ele><time>2026-03-22T10:39:37.998Z</time></trkpt><trkpt lat="42.589540307756586" lon="11.508831039938238"><ele>357.33333333333337</ele><time>2026-03-22T10:39:38.998Z</time></trkpt><trkpt lat="42.58944587124756" lon="11.50896921607877"><ele>361.6666666666667</ele><time>2026-03-22T10:39:39.998Z</time></trkpt><trkpt lat="42.589341574038194" lon="11.50912890023083"><ele>366.0</ele><time>2026-03-22T10:39:40.998Z</time></trkpt><trkpt lat="42.58922178886247" lon="11.509298971439035"><ele>366.0</ele><time>2026-03-22T10:39:41.998Z</time></trkpt><trkpt lat="42.58911858748872" lon="11.50948223832254"><ele>366.0</ele><time>2026-03-22T10:39:42.998Z</time></trkpt><trkpt lat="42.589037626303636" lon="11.509677879394085"><ele>366.0</ele><time>2026-03-22T10:39:43.998Z</time></trkpt><trkpt lat="42.58897241207112" lon="11.50986313975319"><ele>367.0</ele><time>2026-03-22T10:39:44.998Z</time></trkpt><trkpt lat="42.58895837869135" lon="11.510043248034762"><ele>368.0</ele><time>2026-03-22T10:39:45.998Z</time></trkpt><trkpt lat="42.58898216091311" lon="11.51024918180927"><ele>369.0</ele><time>2026-03-22T10:39:46.998Z</time></trkpt><trkpt lat="42.589074916524496" lon="11.510493400500856"><ele>370.6666666666667</ele><time>2026-03-22T10:39:47.998Z</time></trkpt><trkpt lat="42.58915152824871" lon="11.510716267018177"><ele>372.33333333333337</ele><time>2026-03-22T10:39:48.998Z</time></trkpt><trkpt lat="42.58919606281687" lon="11.510925895825993"><ele>374.0</ele><time>2026-03-22T10:39:49.998Z</time></trkpt><trkpt lat="42.58925124115558" lon="11.511173150948833"><ele>375.75</ele><time>2026-03-22T10:39:50.998Z</time></trkpt><trkpt lat="42.589258147044745" lon="11.511368828706672"><ele>377.5</ele><time>2026-03-22T10:39:51.998Z</time></trkpt><trkpt lat="42.58924617343367" lon="11.511521884500313"><ele>379.25</ele><time>2026-03-22T10:39:52.998Z</time></trkpt><trkpt lat="42.589163643849304" lon="11.511674665492354"><ele>381.0</ele><time>2026-03-22T10:39:53.998Z</time></trkpt><trkpt lat="42.58910910256587" lon="11.511857692733647"><ele>383.33333333333337</ele><time>2026-03-22T10:39:54.998Z</time></trkpt><trkpt lat="42.58908373212355" lon="11.512084116255497"><ele>385.6666666666667</ele><time>2026-03-22T10:39:55.998Z</time></trkpt><trkpt lat="42.58908930146778" lon="11.512298996844915"><ele>388.0</ele><time>2026-03-22T10:39:56.998Z</time></trkpt><trkpt lat="42.58912043840567" lon="11.51250802575731"><ele>388.0</ele><time>2026-03-22T10:39:57.998Z</time></trkpt><trkpt lat="42.5891775616997" lon="11.512705693309918"><ele>388.0</ele><time>2026-03-22T10:39:58.998Z</time></trkpt><trkpt lat="42.589245567850405" lon="11.51286506456199"><ele>388.0</ele><time>2026-03-22T10:39:59.998Z</time></trkpt><trkpt lat="42.58933673821735" lon="11.51302891180799"><ele>388.0</ele><time>2026-03-22T10:40:00.998Z</time></trkpt><trkpt lat="42.58942142847338" lon="11.513182780147313"><ele>387.75</ele><time>2026-03-22T10:40:01.998Z</time></trkpt><trkpt lat="42.58948929822577" lon="11.513314540394969"><ele>387.5</ele><time>2026-03-22T10:40:02.998Z</time></trkpt><trkpt lat="42.58954339981845" lon="11.513455754776963"><ele>387.25</ele><time>2026-03-22T10:40:03.998Z</time></trkpt><trkpt lat="42.589582565705406" lon="11.513612269468052"><ele>387.0</ele><time>2026-03-22T10:40:04.998Z</time></trkpt><trkpt lat="42.58958542518216" lon="11.513775215656164"><ele>386.0</ele><time>2026-03-22T10:40:05.998Z</time></trkpt><trkpt lat="42.58957319697655" lon="11.51395120347733"><ele>385.0</ele><time>2026-03-22T10:40:06.998Z</time></trkpt><trkpt lat="42.58952495479833" lon="11.514105539465104"><ele>384.0</ele><time>2026-03-22T10:40:07.998Z</time></trkpt><trkpt lat="42.58946106220033" lon="11.514291856307343"><ele>383.0</ele><time>2026-03-22T10:40:08.998Z</time></trkpt><trkpt lat="42.5893992308952" lon="11.51447745767669"><ele>389.33333333333337</ele><time>2026-03-22T10:40:09.998Z</time></trkpt><trkpt lat="42.58933574762362" lon="11.514668017874476"><ele>395.6666666666667</ele><time>2026-03-22T10:40:10.998Z</time></trkpt><trkpt lat="42.58927142332015" lon="11.514861102606925"><ele>402.0</ele><time>2026-03-22T10:40:12Z</time></trkpt><trkpt lat="42.5892114914595" lon="11.515049333655325"><ele>402.0</ele><time>2026-03-22T10:40:13Z</time></trkpt><trkpt lat="42.589157454403065" lon="11.5152278005551"><ele>402.0</ele><time>2026-03-22T10:40:14Z</time></trkpt><trkpt lat="42.58911065868006" lon="11.515412545408076"><ele>402.0</ele><time>2026-03-22T10:40:15Z</time></trkpt><trkpt lat="42.58907338499396" lon="11.515588465063157"><ele>402.0</ele><time>2026-03-22T10:40:16Z</time></trkpt><trkpt lat="42.589038890267275" lon="11.51578158682965"><ele>401.75</ele><time>2026-03-22T10:40:17Z</time></trkpt><trkpt lat="42.5890045235239" lon="11.515967931205058"><ele>401.5</ele><time>2026-03-22T10:40:18Z</time></trkpt><trkpt lat="42.588968853823886" lon="11.516154679350958"><ele>401.25</ele><time>2026-03-22T10:40:19Z</time></trkpt><trkpt lat="42.5889332212834" lon="11.516341232947585"><ele>401.0</ele><time>2026-03-22T10:40:20Z</time></trkpt><trkpt lat="42.58889711809273" lon="11.516530250585548"><ele>399.75</ele><time>2026-03-22T10:40:21Z</time></trkpt><trkpt lat="42.588930570444724" lon="11.516738843416869"><ele>398.5</ele><time>2026-03-22T10:40:22Z</time></trkpt><trkpt lat="42.588896233360856" lon="11.516914362750102"><ele>397.25</ele><time>2026-03-22T10:40:23Z</time></trkpt><trkpt lat="42.588861569429895" lon="11.517073745372937"><ele>396.0</ele><time>2026-03-22T10:40:24Z</time></trkpt><trkpt lat="42.58883288592893" lon="11.51722026674266"><ele>394.4</ele><time>2026-03-22T10:40:25Z</time></trkpt><trkpt lat="42.58880913986214" lon="11.517354748959619"><ele>392.8</ele><time>2026-03-22T10:40:26Z</time></trkpt><trkpt lat="42.588703667057054" lon="11.517440060475552"><ele>391.2</ele><time>2026-03-22T10:40:27Z</time></trkpt><trkpt lat="42.58866714407223" lon="11.517550253295573"><ele>389.59999999999997</ele><time>2026-03-22T10:40:28Z</time></trkpt><trkpt lat="42.58863267925508" lon="11.517655287622082"><ele>388.0</ele><time>2026-03-22T10:40:28.999Z</time></trkpt><trkpt lat="42.58860112175428" lon="11.517750120565424"><ele>389.0</ele><time>2026-03-22T10:40:29.999Z</time></trkpt><trkpt lat="42.58857247935767" lon="11.517834086342083"><ele>390.0</ele><time>2026-03-22T10:40:30.999Z</time></trkpt><trkpt lat="42.58852159768524" lon="11.51798324694978"><ele>391.0</ele><time>2026-03-22T10:40:32.999Z</time></trkpt><trkpt lat="42.58847760796918" lon="11.518115267911488"><ele>392.0</ele><time>2026-03-22T10:40:34.999Z</time></trkpt><trkpt lat="42.58843998678661" lon="11.518236219502214"><ele>393.0</ele><time>2026-03-22T10:40:36.999Z</time></trkpt><trkpt lat="42.58840216577068" lon="11.51836882835226"><ele>393.0</ele><time>2026-03-22T10:40:38.999Z</time></trkpt><trkpt lat="42.58836506691865" lon="11.518511365118956"><ele>393.0</ele><time>2026-03-22T10:40:40.999Z</time></trkpt><trkpt lat="42.58833041371646" lon="11.518657017082843"><ele>393.0</ele><time>2026-03-22T10:40:42.999Z</time></trkpt><trkpt lat="42.588322232593114" lon="11.518798595090763"><ele>393.0</ele><time>2026-03-22T10:40:44.999Z</time></trkpt><trkpt lat="42.58829686202656" lon="11.518881470633348"><ele>393.0</ele><time>2026-03-22T10:40:46.999Z</time></trkpt><trkpt lat="42.588266826623446" lon="11.51900256709166"><ele>392.8333333333333</ele><time>2026-03-22T10:40:51.999Z</time></trkpt><trkpt lat="42.58825085342729" lon="11.519117702916047"><ele>392.66666666666663</ele><time>2026-03-22T10:40:53.999Z</time></trkpt><trkpt lat="42.588238827196015" lon="11.519221304514684"><ele>392.5</ele><time>2026-03-22T10:40:55.999Z</time></trkpt><trkpt lat="42.58822918738086" lon="11.519379255074234"><ele>392.3333333333333</ele><time>2026-03-22T10:40:57.999Z</time></trkpt><trkpt lat="42.58825996374534" lon="11.519464124254563"><ele>392.16666666666663</ele><time>2026-03-22T10:40:58.999Z</time></trkpt><trkpt lat="42.588280680933025" lon="11.519547821198849"><ele>392.0</ele><time>2026-03-22T10:40:59.999Z</time></trkpt><trkpt lat="42.58825613931421" lon="11.519679786397301"><ele>393.0</ele><time>2026-03-22T10:41:01.999Z</time></trkpt><trkpt lat="42.5882262266376" lon="11.5198170772716"><ele>394.0</ele><time>2026-03-22T10:41:03.999Z</time></trkpt><trkpt lat="42.588170637506806" lon="11.519939668926503"><ele>395.0</ele><time>2026-03-22T10:41:05.999Z</time></trkpt><trkpt lat="42.58807532584006" lon="11.52007976416727"><ele>396.0</ele><time>2026-03-22T10:41:07.999Z</time></trkpt><trkpt lat="42.58803146980986" lon="11.52014405201242"><ele>397.0</ele><time>2026-03-22T10:41:08.999Z</time></trkpt><trkpt lat="42.587982718977656" lon="11.520217669741246"><ele>397.00000000000006</ele><time>2026-03-22T10:41:09.999Z</time></trkpt><trkpt lat="42.58793888846243" lon="11.520284376849487"><ele>397.0</ele><time>2026-03-22T10:41:10.999Z</time></trkpt><trkpt lat="42.58789460180136" lon="11.52036125988274"><ele>397.0</ele><time>2026-03-22T10:41:11.999Z</time></trkpt><trkpt lat="42.58784884877935" lon="11.520444703748645"><ele>397.0</ele><time>2026-03-22T10:41:12.999Z</time></trkpt><trkpt lat="42.58780047954899" lon="11.520539358226479"><ele>397.00000000000006</ele><time>2026-03-22T10:41:13.999Z</time></trkpt><trkpt lat="42.58775730864468" lon="11.520624652382555"><ele>397.0</ele><time>2026-03-22T10:41:14.999Z</time></trkpt><trkpt lat="42.587714605984964" lon="11.520709021406748"><ele>397.00000000000006</ele><time>2026-03-22T10:41:15.999Z</time></trkpt><trkpt lat="42.58767721850989" lon="11.520782951725431"><ele>397.0</ele><time>2026-03-22T10:41:16.999Z</time></trkpt><trkpt lat="42.587631265863514" lon="11.520873823172463"><ele>397.0</ele><time>2026-03-22T10:41:18.999Z</time></trkpt><trkpt lat="42.58768675361698" lon="11.520926747288424"><ele>397.0</ele><time>2026-03-22T10:42:15.998Z</time></trkpt><trkpt lat="42.587633068612156" lon="11.521038996600602"><ele>397.00000000000006</ele><time>2026-03-22T10:47:12.999Z</time></trkpt><trkpt lat="42.587583371391425" lon="11.521162064957032"><ele>397.0</ele><time>2026-03-22T10:47:14.999Z</time></trkpt><trkpt lat="42.587519905648" lon="11.521307677909064"><ele>396.8</ele><time>2026-03-22T10:47:16.999Z</time></trkpt><trkpt lat="42.58747948436008" lon="11.521382927576978"><ele>396.6</ele><time>2026-03-22T10:47:17.999Z</time></trkpt><trkpt lat="42.58744620223022" lon="11.52146832866251"><ele>396.40000000000003</ele><time>2026-03-22T10:47:18.999Z</time></trkpt><trkpt lat="42.58739510054498" lon="11.521561614783156"><ele>396.20000000000005</ele><time>2026-03-22T10:47:19.999Z</time></trkpt><trkpt lat="42.58726726048149" lon="11.521589777372744"><ele>396.0</ele><time>2026-03-22T10:47:20.999Z</time></trkpt><trkpt lat="42.58729104221057" lon="11.521740349519357"><ele>396.0</ele><time>2026-03-22T10:47:21.999Z</time></trkpt><trkpt lat="42.58724171744468" lon="11.52183045297205"><ele>396.0</ele><time>2026-03-22T10:47:22.999Z</time></trkpt><trkpt lat="42.58718710584057" lon="11.521918030082345"><ele>396.0</ele><time>2026-03-22T10:47:23.999Z</time></trkpt><trkpt lat="42.58711937693037" lon="11.522000358949459"><ele>396.0</ele><time>2026-03-22T10:47:24.999Z</time></trkpt><trkpt lat="42.58700171280553" lon="11.521996565326825"><ele>396.0</ele><time>2026-03-22T10:47:25.999Z</time></trkpt><trkpt lat="42.58693018007617" lon="11.522050182879893"><ele>395.4</ele><time>2026-03-22T10:47:26.999Z</time></trkpt><trkpt lat="42.586850661748045" lon="11.522093139814057"><ele>394.8</ele><time>2026-03-22T10:47:27.999Z</time></trkpt><trkpt lat="42.58676300275971" lon="11.52213495456296"><ele>394.2</ele><time>2026-03-22T10:47:28.999Z</time></trkpt><trkpt lat="42.58667269916541" lon="11.52217397546968"><ele>393.59999999999997</ele><time>2026-03-22T10:47:29.999Z</time></trkpt><trkpt lat="42.58657057085185" lon="11.52222086331009"><ele>393.0</ele><time>2026-03-22T10:47:30.999Z</time></trkpt><trkpt lat="42.586474597204884" lon="11.52226661675193"><ele>393.0</ele><time>2026-03-22T10:47:31.999Z</time></trkpt><trkpt lat="42.58637152463565" lon="11.522316835278906"><ele>393.0</ele><time>2026-03-22T10:47:32.999Z</time></trkpt><trkpt lat="42.58626402746108" lon="11.522379008461476"><ele>393.0</ele><time>2026-03-22T10:47:33.999Z</time></trkpt><trkpt lat="42.586158062218416" lon="11.522463369669804"><ele>393.0</ele><time>2026-03-22T10:47:34.999Z</time></trkpt><trkpt lat="42.58605959052735" lon="11.522562674069984"><ele>392.25</ele><time>2026-03-22T10:47:35.999Z</time></trkpt><trkpt lat="42.58596908234863" lon="11.522679038134704"><ele>391.5</ele><time>2026-03-22T10:47:36.999Z</time></trkpt><trkpt lat="42.585883709787325" lon="11.522796100985557"><ele>390.75</ele><time>2026-03-22T10:47:37.999Z</time></trkpt><trkpt lat="42.58580389904471" lon="11.522908891410347"><ele>390.0</ele><time>2026-03-22T10:47:38.999Z</time></trkpt><trkpt lat="42.585726164487774" lon="11.52301874126744"><ele>388.75</ele><time>2026-03-22T10:47:39.999Z</time></trkpt><trkpt lat="42.585642175504574" lon="11.523135881838947"><ele>387.5</ele><time>2026-03-22T10:47:40.999Z</time></trkpt><trkpt lat="42.58556120555599" lon="11.523244406996374"><ele>386.25</ele><time>2026-03-22T10:47:41.999Z</time></trkpt><trkpt lat="42.58546669019339" lon="11.52334243486685"><ele>385.0</ele><time>2026-03-22T10:47:42.999Z</time></trkpt><trkpt lat="42.58536065491719" lon="11.523430766402342"><ele>384.25</ele><time>2026-03-22T10:47:43.999Z</time></trkpt><trkpt lat="42.58526047045712" lon="11.523509890883266"><ele>383.5</ele><time>2026-03-22T10:47:44.999Z</time></trkpt><trkpt lat="42.585164277474675" lon="11.52358547681609"><ele>382.75</ele><time>2026-03-22T10:47:45.999Z</time></trkpt><trkpt lat="42.58506566977375" lon="11.523664184388474"><ele>382.0</ele><time>2026-03-22T10:47:46.999Z</time></trkpt><trkpt lat="42.58497204888716" lon="11.523740746221934"><ele>381.20000000000005</ele><time>2026-03-22T10:47:47.999Z</time></trkpt><trkpt lat="42.58488551094485" lon="11.523811515721414"><ele>380.4</ele><time>2026-03-22T10:47:48.999Z</time></trkpt><trkpt lat="42.58480894055505" lon="11.523872490049595"><ele>379.6</ele><time>2026-03-22T10:47:49.999Z</time></trkpt><trkpt lat="42.58474885657402" lon="11.523912179301535"><ele>378.79999999999995</ele><time>2026-03-22T10:47:50.999Z</time></trkpt><trkpt lat="42.58464088889445" lon="11.523944106292179"><ele>378.0</ele><time>2026-03-22T10:47:52.999Z</time></trkpt><trkpt lat="42.5845745939819" lon="11.524041930173887"><ele>378.0</ele><time>2026-03-22T10:47:53.999Z</time></trkpt><trkpt lat="42.5845433428699" lon="11.524135244799822"><ele>378.0</ele><time>2026-03-22T10:47:54.999Z</time></trkpt><trkpt lat="42.58446257714293" lon="11.524204763729479"><ele>378.0</ele><time>2026-03-22T10:47:55.999Z</time></trkpt><trkpt lat="42.584398938951594" lon="11.52429510682986"><ele>378.0</ele><time>2026-03-22T10:47:56.999Z</time></trkpt><trkpt lat="42.584331905155736" lon="11.524420133798065"><ele>378.0</ele><time>2026-03-22T10:47:57.999Z</time></trkpt><trkpt lat="42.58426858781111" lon="11.524544399929685"><ele>374.75</ele><time>2026-03-22T10:47:58.999Z</time></trkpt><trkpt lat="42.58418490038545" lon="11.524670825088059"><ele>371.5</ele><time>2026-03-22T10:47:59.999Z</time></trkpt><trkpt lat="42.58409671273615" lon="11.524785764558645"><ele>368.25</ele><time>2026-03-22T10:48:00.999Z</time></trkpt><trkpt lat="42.5839890244498" lon="11.52490677593368"><ele>365.0</ele><time>2026-03-22T10:48:01.999Z</time></trkpt><trkpt lat="42.583860416218705" lon="11.525023372866368"><ele>365.0</ele><time>2026-03-22T10:48:02.999Z</time></trkpt><trkpt lat="42.58375948426791" lon="11.525135134525186"><ele>365.0</ele><time>2026-03-22T10:48:03.999Z</time></trkpt><trkpt lat="42.58365655283581" lon="11.52524881025555"><ele>365.0</ele><time>2026-03-22T10:48:04.998Z</time></trkpt><trkpt lat="42.58355253156644" lon="11.525363220823126"><ele>365.0</ele><time>2026-03-22T10:48:05.998Z</time></trkpt><trkpt lat="42.58345488563625" lon="11.525478055904875"><ele>364.5</ele><time>2026-03-22T10:48:06.998Z</time></trkpt><trkpt lat="42.583358535449484" lon="11.525586486767883"><ele>364.0</ele><time>2026-03-22T10:48:07.998Z</time></trkpt><trkpt lat="42.58325811681346" lon="11.52568726358884"><ele>363.5</ele><time>2026-03-22T10:48:08.998Z</time></trkpt><trkpt lat="42.583147096618156" lon="11.52577044975889"><ele>363.0</ele><time>2026-03-22T10:48:09.998Z</time></trkpt><trkpt lat="42.58302778297006" lon="11.52582904043445"><ele>363.0</ele><time>2026-03-22T10:48:10.998Z</time></trkpt><trkpt lat="42.58290800686103" lon="11.525812716411012"><ele>363.0</ele><time>2026-03-22T10:48:11.998Z</time></trkpt><trkpt lat="42.5827874536741" lon="11.525809421531434"><ele>363.0</ele><time>2026-03-22T10:48:12.998Z</time></trkpt><trkpt lat="42.58267270581731" lon="11.52580374288082"><ele>363.0</ele><time>2026-03-22T10:48:13.998Z</time></trkpt><trkpt lat="42.582555304994436" lon="11.525797932941662"><ele>362.0</ele><time>2026-03-22T10:48:14.998Z</time></trkpt><trkpt lat="42.5824413436114" lon="11.52579327297562"><ele>361.0</ele><time>2026-03-22T10:48:15.998Z</time></trkpt><trkpt lat="42.582320772113896" lon="11.525798147134298"><ele>360.0</ele><time>2026-03-22T10:48:16.998Z</time></trkpt><trkpt lat="42.582214694377285" lon="11.525816467594128"><ele>359.0</ele><time>2026-03-22T10:48:17.998Z</time></trkpt><trkpt lat="42.582112851731196" lon="11.525873976676786"><ele>359.0</ele><time>2026-03-22T10:48:18.998Z</time></trkpt><trkpt lat="42.58203634378461" lon="11.525985597333985"><ele>359.0</ele><time>2026-03-22T10:48:19.998Z</time></trkpt><trkpt lat="42.58195808792916" lon="11.526086407594379"><ele>359.0</ele><time>2026-03-22T10:48:20.998Z</time></trkpt><trkpt lat="42.58186472904774" lon="11.52617961206331"><ele>359.0</ele><time>2026-03-22T10:48:21.998Z</time></trkpt><trkpt lat="42.58177879068209" lon="11.52629127819489"><ele>355.5</ele><time>2026-03-22T10:48:22.998Z</time></trkpt><trkpt lat="42.58168823413661" lon="11.526399269845282"><ele>352.0</ele><time>2026-03-22T10:48:23.998Z</time></trkpt><trkpt lat="42.58159189864462" lon="11.526511165337519"><ele>348.5</ele><time>2026-03-22T10:48:24.998Z</time></trkpt><trkpt lat="42.58149447277094" lon="11.526623926436052"><ele>345.0</ele><time>2026-03-22T10:48:25.998Z</time></trkpt><trkpt lat="42.58139345665037" lon="11.526735165697048"><ele>345.0</ele><time>2026-03-22T10:48:26.998Z</time></trkpt><trkpt lat="42.5812916176069" lon="11.526843085183346"><ele>345.0</ele><time>2026-03-22T10:48:27.998Z</time></trkpt><trkpt lat="42.58118859774045" lon="11.526949023731861"><ele>345.0</ele><time>2026-03-22T10:48:28.998Z</time></trkpt><trkpt lat="42.58108566060794" lon="11.527053412733709"><ele>345.0</ele><time>2026-03-22T10:48:29.998Z</time></trkpt><trkpt lat="42.58098133363492" lon="11.527159211173712"><ele>345.25</ele><time>2026-03-22T10:48:30.998Z</time></trkpt><trkpt lat="42.58087964833663" lon="11.527262330675153"><ele>345.5</ele><time>2026-03-22T10:48:31.998Z</time></trkpt><trkpt lat="42.580778433983674" lon="11.527365102693429"><ele>345.75</ele><time>2026-03-22T10:48:32.998Z</time></trkpt><trkpt lat="42.580676798359576" lon="11.527468302387836"><ele>346.0</ele><time>2026-03-22T10:48:33.998Z</time></trkpt><trkpt lat="42.58057596004972" lon="11.52757069253316"><ele>346.0</ele><time>2026-03-22T10:48:34.998Z</time></trkpt><trkpt lat="42.58047462120052" lon="11.527671276381865"><ele>346.0</ele><time>2026-03-22T10:48:36Z</time></trkpt><trkpt lat="42.58037192290356" lon="11.527767776227032"><ele>346.0</ele><time>2026-03-22T10:48:37Z</time></trkpt><trkpt lat="42.58027418534123" lon="11.527837199931483"><ele>346.0</ele><time>2026-03-22T10:48:38Z</time></trkpt><trkpt lat="42.580166974005785" lon="11.527879930083262"><ele>343.75</ele><time>2026-03-22T10:48:39Z</time></trkpt><trkpt lat="42.580053319528496" lon="11.527890965994287"><ele>341.5</ele><time>2026-03-22T10:48:40Z</time></trkpt><trkpt lat="42.579928911031956" lon="11.527865631631618"><ele>339.25</ele><time>2026-03-22T10:48:41Z</time></trkpt><trkpt lat="42.5798009476405" lon="11.527825372437672"><ele>337.0</ele><time>2026-03-22T10:48:42Z</time></trkpt><trkpt lat="42.579668586093966" lon="11.5277822069564"><ele>337.0</ele><time>2026-03-22T10:48:43Z</time></trkpt><trkpt lat="42.579535421530466" lon="11.52773895859642"><ele>337.0</ele><time>2026-03-22T10:48:44Z</time></trkpt><trkpt lat="42.579403815202944" lon="11.527696216313492"><ele>337.0</ele><time>2026-03-22T10:48:45Z</time></trkpt><trkpt lat="42.5792663105416" lon="11.527665619080288"><ele>337.0</ele><time>2026-03-22T10:48:46Z</time></trkpt><trkpt lat="42.57911681124701" lon="11.527672115667507"><ele>335.5</ele><time>2026-03-22T10:48:47Z</time></trkpt><trkpt lat="42.57897699186858" lon="11.52771078198951"><ele>334.0</ele><time>2026-03-22T10:48:48Z</time></trkpt><trkpt lat="42.5788345570458" lon="11.527765967947605"><ele>332.5</ele><time>2026-03-22T10:48:49Z</time></trkpt><trkpt lat="42.57870117514198" lon="11.527811245183136"><ele>331.0</ele><time>2026-03-22T10:48:50Z</time></trkpt><trkpt lat="42.578570201731964" lon="11.52783056598292"><ele>329.25</ele><time>2026-03-22T10:48:51Z</time></trkpt><trkpt lat="42.57843756878911" lon="11.527795055986951"><ele>327.5</ele><time>2026-03-22T10:48:52Z</time></trkpt><trkpt lat="42.57830804858382" lon="11.527752031857714"><ele>325.75</ele><time>2026-03-22T10:48:53Z</time></trkpt><trkpt lat="42.578180996302414" lon="11.527706576151115"><ele>324.0</ele><time>2026-03-22T10:48:54Z</time></trkpt><trkpt lat="42.578051814575225" lon="11.527660467838071"><ele>324.0</ele><time>2026-03-22T10:48:55Z</time></trkpt><trkpt lat="42.577910760825375" lon="11.52767866264145"><ele>324.0</ele><time>2026-03-22T10:48:56Z</time></trkpt><trkpt lat="42.57776630085494" lon="11.527756181826224"><ele>324.0</ele><time>2026-03-22T10:48:57Z</time></trkpt><trkpt lat="42.57764965403997" lon="11.527880453411194"><ele>324.0</ele><time>2026-03-22T10:48:58Z</time></trkpt><trkpt lat="42.57754790153861" lon="11.527997135420689"><ele>326.75</ele><time>2026-03-22T10:48:59Z</time></trkpt><trkpt lat="42.57744566109483" lon="11.528086086475705"><ele>329.5</ele><time>2026-03-22T10:49:00Z</time></trkpt><trkpt lat="42.57733064624697" lon="11.528138400024211"><ele>332.25</ele><time>2026-03-22T10:49:01Z</time></trkpt><trkpt lat="42.577205447947364" lon="11.528140882976405"><ele>335.0</ele><time>2026-03-22T10:49:02Z</time></trkpt><trkpt lat="42.57706586738846" lon="11.52811399560688"><ele>333.25</ele><time>2026-03-22T10:49:02.999Z</time></trkpt><trkpt lat="42.5769305899092" lon="11.528036831464878"><ele>331.5</ele><time>2026-03-22T10:49:03.999Z</time></trkpt><trkpt lat="42.57679506523709" lon="11.52795865913821"><ele>329.75</ele><time>2026-03-22T10:49:04.999Z</time></trkpt><trkpt lat="42.57665878853203" lon="11.52788414561315"><ele>328.0</ele><time>2026-03-22T10:49:05.999Z</time></trkpt><trkpt lat="42.57648969236929" lon="11.527878423797778"><ele>324.0</ele><time>2026-03-22T10:49:06.999Z</time></trkpt><trkpt lat="42.576350591268884" lon="11.527819745954304"><ele>320.0</ele><time>2026-03-22T10:49:07.999Z</time></trkpt><trkpt lat="42.576208946441064" lon="11.527792037369025"><ele>316.0</ele><time>2026-03-22T10:49:08.999Z</time></trkpt><trkpt lat="42.57606639716839" lon="11.527792246878674"><ele>312.0</ele><time>2026-03-22T10:49:09.999Z</time></trkpt><trkpt lat="42.57591901536136" lon="11.52781456461815"><ele>312.75</ele><time>2026-03-22T10:49:10.999Z</time></trkpt><trkpt lat="42.57577083362271" lon="11.527837234975086"><ele>313.5</ele><time>2026-03-22T10:49:11.999Z</time></trkpt><trkpt lat="42.575623421812175" lon="11.52785914624735"><ele>314.25</ele><time>2026-03-22T10:49:12.999Z</time></trkpt><trkpt lat="42.57547568174783" lon="11.527881328564938"><ele>315.0</ele><time>2026-03-22T10:49:13.999Z</time></trkpt><trkpt lat="42.57532586666309" lon="11.52789591572905"><ele>315.0</ele><time>2026-03-22T10:49:14.999Z</time></trkpt><trkpt lat="42.57517847010786" lon="11.527907203620627"><ele>315.0</ele><time>2026-03-22T10:49:15.999Z</time></trkpt><trkpt lat="42.57503104149226" lon="11.527920855695388"><ele>315.0</ele><time>2026-03-22T10:49:16.999Z</time></trkpt><trkpt lat="42.57488507109059" lon="11.527957810574222"><ele>315.0</ele><time>2026-03-22T10:49:17.999Z</time></trkpt><trkpt lat="42.57475188633952" lon="11.528027973596055"><ele>315.0</ele><time>2026-03-22T10:49:18.999Z</time></trkpt><trkpt lat="42.57464020426771" lon="11.528148615130013"><ele>315.0</ele><time>2026-03-22T10:49:19.999Z</time></trkpt><trkpt lat="42.574547659373685" lon="11.52830665862583"><ele>315.0</ele><time>2026-03-22T10:49:20.999Z</time></trkpt><trkpt lat="42.57446634989728" lon="11.528480982016902"><ele>315.0</ele><time>2026-03-22T10:49:21.999Z</time></trkpt><trkpt lat="42.57437878672272" lon="11.528644318965261"><ele>312.5</ele><time>2026-03-22T10:49:22.999Z</time></trkpt><trkpt lat="42.574284501469684" lon="11.528797686465566"><ele>310.0</ele><time>2026-03-22T10:49:23.999Z</time></trkpt><trkpt lat="42.57419482587304" lon="11.528955409714541"><ele>307.5</ele><time>2026-03-22T10:49:24.999Z</time></trkpt><trkpt lat="42.57411355130047" lon="11.529123654540076"><ele>305.0</ele><time>2026-03-22T10:49:25.999Z</time></trkpt><trkpt lat="42.57405243208112" lon="11.529314788534803"><ele>305.0</ele><time>2026-03-22T10:49:26.999Z</time></trkpt><trkpt lat="42.574004569101284" lon="11.52952025684625"><ele>305.0</ele><time>2026-03-22T10:49:27.999Z</time></trkpt><trkpt lat="42.57396464994737" lon="11.529737931992146"><ele>305.0</ele><time>2026-03-22T10:49:28.999Z</time></trkpt><trkpt lat="42.57392641473255" lon="11.52994692134231"><ele>306.0</ele><time>2026-03-22T10:49:29.999Z</time></trkpt><trkpt lat="42.57388913434605" lon="11.53015715344773"><ele>307.0</ele><time>2026-03-22T10:49:30.999Z</time></trkpt><trkpt lat="42.57385217326048" lon="11.530367362747869"><ele>308.0</ele><time>2026-03-22T10:49:31.999Z</time></trkpt><trkpt lat="42.57381517204735" lon="11.530577800245052"><ele>308.0</ele><time>2026-03-22T10:49:32.999Z</time></trkpt><trkpt lat="42.57377746090404" lon="11.53079227534532"><ele>308.0</ele><time>2026-03-22T10:49:33.999Z</time></trkpt><trkpt lat="42.57373889112498" lon="11.531008417601193"><ele>308.0</ele><time>2026-03-22T10:49:34.999Z</time></trkpt><trkpt lat="42.57369940258307" lon="11.531221986515696"><ele>307.33333333333337</ele><time>2026-03-22T10:49:35.999Z</time></trkpt><trkpt lat="42.5736575502214" lon="11.531425907530132"><ele>306.6666666666667</ele><time>2026-03-22T10:49:36.999Z</time></trkpt><trkpt lat="42.57361068770366" lon="11.531620354325957"><ele>306.0</ele><time>2026-03-22T10:49:37.999Z</time></trkpt><trkpt lat="42.573549765759346" lon="11.531802819331054"><ele>306.0</ele><time>2026-03-22T10:49:38.999Z</time></trkpt><trkpt lat="42.57345683841517" lon="11.531950662941986"><ele>306.0</ele><time>2026-03-22T10:49:39.999Z</time></trkpt><trkpt lat="42.57334677097808" lon="11.53208264001746"><ele>306.0</ele><time>2026-03-22T10:49:40.999Z</time></trkpt><trkpt lat="42.57319709637536" lon="11.53211045919007"><ele>306.0</ele><time>2026-03-22T10:49:41.999Z</time></trkpt><trkpt lat="42.57304913714764" lon="11.532144886182293"><ele>305.6666666666667</ele><time>2026-03-22T10:49:42.999Z</time></trkpt><trkpt lat="42.572902967654" lon="11.532194347184324"><ele>305.33333333333337</ele><time>2026-03-22T10:49:43.999Z</time></trkpt><trkpt lat="42.57275309940011" lon="11.532214913649193"><ele>305.0</ele><time>2026-03-22T10:49:44.999Z</time></trkpt><trkpt lat="42.57259924517952" lon="11.5322353565858"><ele>305.0</ele><time>2026-03-22T10:49:45.999Z</time></trkpt><trkpt lat="42.57244553593326" lon="11.532263958760073"><ele>305.0</ele><time>2026-03-22T10:49:46.999Z</time></trkpt><trkpt lat="42.57228684800094" lon="11.532294707334238"><ele>305.0</ele><time>2026-03-22T10:49:47.999Z</time></trkpt><trkpt lat="42.572128135734935" lon="11.53232295396879"><ele>304.0</ele><time>2026-03-22T10:49:48.999Z</time></trkpt><trkpt lat="42.57197034874396" lon="11.53235399558544"><ele>303.0</ele><time>2026-03-22T10:49:49.999Z</time></trkpt><trkpt lat="42.571811773280174" lon="11.532384159695768"><ele>302.0</ele><time>2026-03-22T10:49:50.999Z</time></trkpt><trkpt lat="42.57165654198476" lon="11.53241961281203"><ele>302.0</ele><time>2026-03-22T10:49:51.999Z</time></trkpt><trkpt lat="42.57150463651917" lon="11.53247267078637"><ele>302.0</ele><time>2026-03-22T10:49:52.999Z</time></trkpt><trkpt lat="42.5713590300234" lon="11.53255354140816"><ele>302.0</ele><time>2026-03-22T10:49:53.999Z</time></trkpt><trkpt lat="42.57122074527596" lon="11.532657925014968"><ele>300.33333333333337</ele><time>2026-03-22T10:49:54.999Z</time></trkpt><trkpt lat="42.571088945396745" lon="11.532782593763072"><ele>298.6666666666667</ele><time>2026-03-22T10:49:55.999Z</time></trkpt><trkpt lat="42.5709579029184" lon="11.532914058451881"><ele>297.0</ele><time>2026-03-22T10:49:56.999Z</time></trkpt><trkpt lat="42.57082670587512" lon="11.533037501263479"><ele>297.0</ele><time>2026-03-22T10:49:57.999Z</time></trkpt><trkpt lat="42.57070306425135" lon="11.533154520243551"><ele>297.0</ele><time>2026-03-22T10:49:58.999Z</time></trkpt><trkpt lat="42.570600304897965" lon="11.533292984874198"><ele>297.0</ele><time>2026-03-22T10:49:59.999Z</time></trkpt><trkpt lat="42.57053718746912" lon="11.533462700389702"><ele>297.0</ele><time>2026-03-22T10:50:00.999Z</time></trkpt><trkpt lat="42.570509643321216" lon="11.533649919754076"><ele>296.5</ele><time>2026-03-22T10:50:01.999Z</time></trkpt><trkpt lat="42.5705120001552" lon="11.533847778271001"><ele>296.0</ele><time>2026-03-22T10:50:02.999Z</time></trkpt><trkpt lat="42.57053967500974" lon="11.534043035406055"><ele>295.5</ele><time>2026-03-22T10:50:03.999Z</time></trkpt><trkpt lat="42.57059542707163" lon="11.534229868072892"><ele>295.0</ele><time>2026-03-22T10:50:04.999Z</time></trkpt><trkpt lat="42.57067315212964" lon="11.534399733614954"><ele>295.0</ele><time>2026-03-22T10:50:05.999Z</time></trkpt><trkpt lat="42.570767189811384" lon="11.534550717853003"><ele>295.0</ele><time>2026-03-22T10:50:06.999Z</time></trkpt><trkpt lat="42.57087324597524" lon="11.534684142416397"><ele>295.0</ele><time>2026-03-22T10:50:07.999Z</time></trkpt><trkpt lat="42.57098692296229" lon="11.534795228133596"><ele>295.0</ele><time>2026-03-22T10:50:08.999Z</time></trkpt><trkpt lat="42.57110207081734" lon="11.53488415060547"><ele>296.0</ele><time>2026-03-22T10:50:09.999Z</time></trkpt><trkpt lat="42.57121243295098" lon="11.534953096197915"><ele>297.0</ele><time>2026-03-22T10:50:10.999Z</time></trkpt><trkpt lat="42.57130916081717" lon="11.535014182965257"><ele>298.0</ele><time>2026-03-22T10:50:11.999Z</time></trkpt><trkpt lat="42.57139388529064" lon="11.535079833398642"><ele>299.0</ele><time>2026-03-22T10:50:12.999Z</time></trkpt><trkpt lat="42.57146820305299" lon="11.53515545344881"><ele>300.0</ele><time>2026-03-22T10:50:13.999Z</time></trkpt><trkpt lat="42.57151347852293" lon="11.535255059014432"><ele>300.0</ele><time>2026-03-22T10:50:14.999Z</time></trkpt><trkpt lat="42.571556175751766" lon="11.535343306569116"><ele>300.0</ele><time>2026-03-22T10:50:15.999Z</time></trkpt><trkpt lat="42.57160319904827" lon="11.53541688428889"><ele>300.0</ele><time>2026-03-22T10:50:16.999Z</time></trkpt><trkpt lat="42.57164472110138" lon="11.535548082635025"><ele>300.0</ele><time>2026-03-22T10:50:18.998Z</time></trkpt><trkpt lat="42.57167764585953" lon="11.535646598558149"><ele>300.0</ele><time>2026-03-22T10:52:37.999Z</time></trkpt><trkpt lat="42.57174208792912" lon="11.535769431514142"><ele>300.0</ele><time>2026-03-22T10:52:39.998Z</time></trkpt><trkpt lat="42.57180531915369" lon="11.535891991716078"><ele>299.0</ele><time>2026-03-22T10:52:41.998Z</time></trkpt><trkpt lat="42.57182604019797" lon="11.53597995734341"><ele>298.0</ele><time>2026-03-22T10:52:52Z</time></trkpt><trkpt lat="42.57186350074608" lon="11.536090176413369"><ele>297.0</ele><time>2026-03-22T10:52:58Z</time></trkpt><trkpt lat="42.57189326384607" lon="11.536205708894155"><ele>296.0</ele><time>2026-03-22T10:53:00Z</time></trkpt><trkpt lat="42.57192455823203" lon="11.536290840899715"><ele>295.0</ele><time>2026-03-22T10:53:01Z</time></trkpt><trkpt lat="42.57196018343135" lon="11.536390172338498"><ele>294.0</ele><time>2026-03-22T10:53:02Z</time></trkpt><trkpt lat="42.57200000855642" lon="11.536501214188684"><ele>294.59999999999997</ele><time>2026-03-22T10:53:03Z</time></trkpt><trkpt lat="42.57204205635978" lon="11.536620117064476"><ele>295.2</ele><time>2026-03-22T10:53:04Z</time></trkpt><trkpt lat="42.57207906766524" lon="11.53674056483752"><ele>295.79999999999995</ele><time>2026-03-22T10:53:05Z</time></trkpt><trkpt lat="42.57210146386824" lon="11.536862037854725"><ele>296.4</ele><time>2026-03-22T10:53:06Z</time></trkpt><trkpt lat="42.57210493133029" lon="11.536991940539052"><ele>297.0</ele><time>2026-03-22T10:53:07Z</time></trkpt><trkpt lat="42.572098286158045" lon="11.537118415287827"><ele>294.5</ele><time>2026-03-22T10:53:08Z</time></trkpt><trkpt lat="42.57206700346251" lon="11.537259928533874"><ele>292.0</ele><time>2026-03-22T10:53:09Z</time></trkpt><trkpt lat="42.57200484213296" lon="11.537397856472996"><ele>289.5</ele><time>2026-03-22T10:53:10Z</time></trkpt><trkpt lat="42.57191460323699" lon="11.537524552183699"><ele>287.0</ele><time>2026-03-22T10:53:11Z</time></trkpt><trkpt lat="42.57180640195359" lon="11.537629407548598"><ele>283.0</ele><time>2026-03-22T10:53:12Z</time></trkpt><trkpt lat="42.57166876948961" lon="11.537750981582015"><ele>279.0</ele><time>2026-03-22T10:53:13Z</time></trkpt><trkpt lat="42.57151680243698" lon="11.537882604587217"><ele>275.0</ele><time>2026-03-22T10:53:14Z</time></trkpt><trkpt lat="42.5713713141072" lon="11.538006154463181"><ele>274.6666666666667</ele><time>2026-03-22T10:53:15Z</time></trkpt><trkpt lat="42.571221880420204" lon="11.538134145713533"><ele>274.3333333333333</ele><time>2026-03-22T10:53:16Z</time></trkpt><trkpt lat="42.57106833679495" lon="11.538269861502785"><ele>274.0</ele><time>2026-03-22T10:53:17Z</time></trkpt><trkpt lat="42.570908463976544" lon="11.53841117040835"><ele>271.66666666666663</ele><time>2026-03-22T10:53:18Z</time></trkpt><trkpt lat="42.570744569330735" lon="11.53855580466946"><ele>269.3333333333333</ele><time>2026-03-22T10:53:19Z</time></trkpt><trkpt lat="42.57057529846022" lon="11.538703981106691"><ele>267.0</ele><time>2026-03-22T10:53:20Z</time></trkpt><trkpt lat="42.57040336319518" lon="11.53885448964072"><ele>264.3333333333333</ele><time>2026-03-22T10:53:21Z</time></trkpt><trkpt lat="42.570227925731515" lon="11.53900806399437"><ele>261.66666666666663</ele><time>2026-03-22T10:53:22Z</time></trkpt><trkpt lat="42.57004479729409" lon="11.539169159057309"><ele>259.0</ele><time>2026-03-22T10:53:23Z</time></trkpt><trkpt lat="42.56986215156849" lon="11.53933116283364"><ele>259.0</ele><time>2026-03-22T10:53:24Z</time></trkpt><trkpt lat="42.56967744587344" lon="11.53949499379547"><ele>259.0</ele><time>2026-03-22T10:53:25Z</time></trkpt><trkpt lat="42.56949325807297" lon="11.539658365386824"><ele>259.0</ele><time>2026-03-22T10:53:26Z</time></trkpt><trkpt lat="42.569314780218726" lon="11.53984268715749"><ele>256.5</ele><time>2026-03-22T10:53:27Z</time></trkpt><trkpt lat="42.56912324597034" lon="11.540006902508818"><ele>254.0</ele><time>2026-03-22T10:53:28Z</time></trkpt><trkpt lat="42.56893151658067" lon="11.54017326819131"><ele>254.0</ele><time>2026-03-22T10:53:29Z</time></trkpt><trkpt lat="42.56874016093384" lon="11.540344393430171"><ele>254.0</ele><time>2026-03-22T10:53:30Z</time></trkpt><trkpt lat="42.56854948669787" lon="11.540519476866805"><ele>255.0</ele><time>2026-03-22T10:53:31Z</time></trkpt><trkpt lat="42.56835160264827" lon="11.540667918385058"><ele>256.0</ele><time>2026-03-22T10:53:32Z</time></trkpt><trkpt lat="42.56816350307748" lon="11.540833985960221"><ele>256.0</ele><time>2026-03-22T10:53:33Z</time></trkpt><trkpt lat="42.567971802599374" lon="11.541003232679726"><ele>256.0</ele><time>2026-03-22T10:53:34Z</time></trkpt><trkpt lat="42.56777746203704" lon="11.54117357054214"><ele>255.0</ele><time>2026-03-22T10:53:35Z</time></trkpt><trkpt lat="42.56758955511487" lon="11.541338253316946"><ele>254.0</ele><time>2026-03-22T10:53:36Z</time></trkpt><trkpt lat="42.56740129239264" lon="11.541503247902273"><ele>253.0</ele><time>2026-03-22T10:53:37Z</time></trkpt><trkpt lat="42.567211217608836" lon="11.541669941671872"><ele>253.33333333333331</ele><time>2026-03-22T10:53:38Z</time></trkpt><trkpt lat="42.56702358762069" lon="11.541836244109462"><ele>253.66666666666669</ele><time>2026-03-22T10:53:39Z</time></trkpt><trkpt lat="42.56683700826179" lon="11.542001615336567"><ele>254.0</ele><time>2026-03-22T10:53:39.999Z</time></trkpt><trkpt lat="42.566646929924005" lon="11.542170087835549"><ele>254.0</ele><time>2026-03-22T10:53:40.999Z</time></trkpt><trkpt lat="42.56646200245151" lon="11.54233447229138"><ele>254.0</ele><time>2026-03-22T10:53:41.999Z</time></trkpt><trkpt lat="42.56628283135687" lon="11.542494006721572"><ele>254.0</ele><time>2026-03-22T10:53:42.999Z</time></trkpt><trkpt lat="42.5661114678868" lon="11.542670418399952"><ele>253.33333333333334</ele><time>2026-03-22T10:53:43.999Z</time></trkpt><trkpt lat="42.56592972452213" lon="11.5428320484237"><ele>252.66666666666669</ele><time>2026-03-22T10:53:44.999Z</time></trkpt><trkpt lat="42.56574669912139" lon="11.542993159931665"><ele>252.0</ele><time>2026-03-22T10:53:45.999Z</time></trkpt><trkpt lat="42.56556373398961" lon="11.543153691828039"><ele>252.0</ele><time>2026-03-22T10:53:46.999Z</time></trkpt><trkpt lat="42.565378646324156" lon="11.543311648935179"><ele>252.0</ele><time>2026-03-22T10:53:47.999Z</time></trkpt><trkpt lat="42.565198748835904" lon="11.54346238039712"><ele>252.0</ele><time>2026-03-22T10:53:48.999Z</time></trkpt><trkpt lat="42.56500470906636" lon="11.543588146015269"><ele>252.0</ele><time>2026-03-22T10:53:49.999Z</time></trkpt><trkpt lat="42.56481312044026" lon="11.5437346436609"><ele>252.0</ele><time>2026-03-22T10:53:50.999Z</time></trkpt><trkpt lat="42.56462337007056" lon="11.543879735694594"><ele>252.0</ele><time>2026-03-22T10:53:51.999Z</time></trkpt><trkpt lat="42.564439141679635" lon="11.544044864040117"><ele>254.33333333333331</ele><time>2026-03-22T10:53:52.999Z</time></trkpt><trkpt lat="42.564248489521965" lon="11.544190925577388"><ele>256.66666666666663</ele><time>2026-03-22T10:53:53.999Z</time></trkpt><trkpt lat="42.56405594141615" lon="11.5443370536644"><ele>259.0</ele><time>2026-03-22T10:53:54.999Z</time></trkpt><trkpt lat="42.56386191869633" lon="11.54448593184106"><ele>257.5</ele><time>2026-03-22T10:53:55.999Z</time></trkpt><trkpt lat="42.563677679671564" lon="11.544646820308946"><ele>256.0</ele><time>2026-03-22T10:53:56.999Z</time></trkpt><trkpt lat="42.5634880952817" lon="11.544827281201208"><ele>256.0</ele><time>2026-03-22T10:53:57.999Z</time></trkpt><trkpt lat="42.56332692728882" lon="11.544999671665288"><ele>256.0</ele><time>2026-03-22T10:53:58.999Z</time></trkpt><trkpt lat="42.56316609183389" lon="11.545177210046406"><ele>256.0</ele><time>2026-03-22T10:53:59.999Z</time></trkpt><trkpt lat="42.563014723578135" lon="11.545377725057705"><ele>255.66666666666666</ele><time>2026-03-22T10:54:00.999Z</time></trkpt><trkpt lat="42.56286559141937" lon="11.545570188255708"><ele>255.33333333333331</ele><time>2026-03-22T10:54:01.999Z</time></trkpt><trkpt lat="42.56271739606392" lon="11.545757248915312"><ele>255.0</ele><time>2026-03-22T10:54:02.999Z</time></trkpt><trkpt lat="42.5625674330781" lon="11.54593272372914"><ele>255.0</ele><time>2026-03-22T10:54:03.999Z</time></trkpt><trkpt lat="42.56242518480421" lon="11.546083006909706"><ele>255.0</ele><time>2026-03-22T10:54:04.999Z</time></trkpt><trkpt lat="42.562258248828876" lon="11.546199408607995"><ele>255.0</ele><time>2026-03-22T10:54:05.999Z</time></trkpt><trkpt lat="42.562079120071296" lon="11.54629886792496"><ele>253.0</ele><time>2026-03-22T10:54:06.999Z</time></trkpt><trkpt lat="42.561892795353856" lon="11.546401353297906"><ele>251.0</ele><time>2026-03-22T10:54:07.999Z</time></trkpt><trkpt lat="42.56170106364748" lon="11.546505130579355"><ele>249.0</ele><time>2026-03-22T10:54:08.999Z</time></trkpt><trkpt lat="42.56150271527259" lon="11.546608293525036"><ele>249.0</ele><time>2026-03-22T10:54:09.999Z</time></trkpt><trkpt lat="42.56130353717556" lon="11.546716317591105"><ele>249.0</ele><time>2026-03-22T10:54:10.999Z</time></trkpt><trkpt lat="42.56110362811951" lon="11.546825762685051"><ele>249.0</ele><time>2026-03-22T10:54:11.999Z</time></trkpt><trkpt lat="42.56089952298514" lon="11.546931735202628"><ele>249.0</ele><time>2026-03-22T10:54:12.999Z</time></trkpt><trkpt lat="42.5607000557475" lon="11.54703856624751"><ele>249.0</ele><time>2026-03-22T10:54:13.999Z</time></trkpt><trkpt lat="42.56049238947932" lon="11.547148043418028"><ele>249.0</ele><time>2026-03-22T10:54:14.999Z</time></trkpt><trkpt lat="42.56028427175396" lon="11.547256992884257"><ele>249.0</ele><time>2026-03-22T10:54:15.999Z</time></trkpt><trkpt lat="42.56007722580081" lon="11.547366497074943"><ele>249.0</ele><time>2026-03-22T10:54:16.999Z</time></trkpt><trkpt lat="42.559871598948384" lon="11.547474788607754"><ele>249.0</ele><time>2026-03-22T10:54:17.999Z</time></trkpt><trkpt lat="42.55965775003648" lon="11.547584471309813"><ele>246.5</ele><time>2026-03-22T10:54:18.999Z</time></trkpt><trkpt lat="42.559449267632104" lon="11.547693015032978"><ele>244.0</ele><time>2026-03-22T10:54:19.999Z</time></trkpt><trkpt lat="42.55923882801126" lon="11.547806789743618"><ele>245.33333333333331</ele><time>2026-03-22T10:54:20.999Z</time></trkpt><trkpt lat="42.55903464516527" lon="11.547916659237972"><ele>246.66666666666669</ele><time>2026-03-22T10:54:21.999Z</time></trkpt><trkpt lat="42.55882369250472" lon="11.548029970870898"><ele>248.0</ele><time>2026-03-22T10:54:22.999Z</time></trkpt><trkpt lat="42.55861580193728" lon="11.548143376011913"><ele>248.0</ele><time>2026-03-22T10:54:23.999Z</time></trkpt><trkpt lat="42.55841431231561" lon="11.548248336584399"><ele>248.0</ele><time>2026-03-22T10:54:24.999Z</time></trkpt><trkpt lat="42.55821598444099" lon="11.548351937836918"><ele>248.0</ele><time>2026-03-22T10:54:25.999Z</time></trkpt><trkpt lat="42.55801870388212" lon="11.548457094198934"><ele>248.0</ele><time>2026-03-22T10:54:26.999Z</time></trkpt><trkpt lat="42.557810433907825" lon="11.548577635691384"><ele>248.0</ele><time>2026-03-22T10:54:27.999Z</time></trkpt><trkpt lat="42.55763532941119" lon="11.548706118672762"><ele>248.0</ele><time>2026-03-22T10:54:28.999Z</time></trkpt><trkpt lat="42.557471210184644" lon="11.548859350246799"><ele>248.0</ele><time>2026-03-22T10:54:29.999Z</time></trkpt><trkpt lat="42.55732157172403" lon="11.549022936493916"><ele>248.0</ele><time>2026-03-22T10:54:30.999Z</time></trkpt><trkpt lat="42.55713333321829" lon="11.549199097085896"><ele>248.0</ele><time>2026-03-22T10:54:31.999Z</time></trkpt><trkpt lat="42.55694657480274" lon="11.549384048178807"><ele>249.0</ele><time>2026-03-22T10:54:32.999Z</time></trkpt><trkpt lat="42.5567639039592" lon="11.549574938359752"><ele>250.0</ele><time>2026-03-22T10:54:33.999Z</time></trkpt><trkpt lat="42.55661743010979" lon="11.54976336464329"><ele>251.0</ele><time>2026-03-22T10:54:34.999Z</time></trkpt><trkpt lat="42.55645381718228" lon="11.549952371698868"><ele>251.0</ele><time>2026-03-22T10:54:35.999Z</time></trkpt><trkpt lat="42.55628375765215" lon="11.55013679185566"><ele>251.0</ele><time>2026-03-22T10:54:36.999Z</time></trkpt><trkpt lat="42.55611346445437" lon="11.550313170719884"><ele>251.0</ele><time>2026-03-22T10:54:37.999Z</time></trkpt><trkpt lat="42.55594084611593" lon="11.550492292408409"><ele>251.0</ele><time>2026-03-22T10:54:38.999Z</time></trkpt><trkpt lat="42.55577163359974" lon="11.550680915232526"><ele>251.0</ele><time>2026-03-22T10:54:39.999Z</time></trkpt><trkpt lat="42.55560692427073" lon="11.55086453996199"><ele>251.0</ele><time>2026-03-22T10:54:40.999Z</time></trkpt><trkpt lat="42.555440643735245" lon="11.551045101682217"><ele>251.33333333333334</ele><time>2026-03-22T10:54:41.999Z</time></trkpt><trkpt lat="42.55527508777428" lon="11.551220939144011"><ele>251.66666666666669</ele><time>2026-03-22T10:54:42.999Z</time></trkpt><trkpt lat="42.555103936985375" lon="11.551406207810443"><ele>252.0</ele><time>2026-03-22T10:54:43.998Z</time></trkpt><trkpt lat="42.554937180210004" lon="11.551587948322478"><ele>252.0</ele><time>2026-03-22T10:54:44.998Z</time></trkpt><trkpt lat="42.5547657205735" lon="11.551766306048375"><ele>252.0</ele><time>2026-03-22T10:54:45.998Z</time></trkpt><trkpt lat="42.554589620664444" lon="11.551950480015835"><ele>252.0</ele><time>2026-03-22T10:54:46.998Z</time></trkpt><trkpt lat="42.55441682912202" lon="11.552131959307957"><ele>252.33333333333331</ele><time>2026-03-22T10:54:47.998Z</time></trkpt><trkpt lat="42.55424022618293" lon="11.552314689124131"><ele>252.66666666666666</ele><time>2026-03-22T10:54:48.998Z</time></trkpt><trkpt lat="42.55406757926078" lon="11.552494380192533"><ele>253.0</ele><time>2026-03-22T10:54:49.998Z</time></trkpt><trkpt lat="42.553894213175646" lon="11.552679601833189"><ele>253.0</ele><time>2026-03-22T10:54:50.998Z</time></trkpt><trkpt lat="42.55371984143196" lon="11.55286110931421"><ele>253.0</ele><time>2026-03-22T10:54:52Z</time></trkpt><trkpt lat="42.55354252077842" lon="11.553046623327196"><ele>253.0</ele><time>2026-03-22T10:54:53Z</time></trkpt><trkpt lat="42.553368139627736" lon="11.5532317166768"><ele>253.0</ele><time>2026-03-22T10:54:54Z</time></trkpt><trkpt lat="42.55319316672374" lon="11.553416646171957"><ele>253.0</ele><time>2026-03-22T10:54:55Z</time></trkpt><trkpt lat="42.55301992268134" lon="11.553599892988577"><ele>253.0</ele><time>2026-03-22T10:54:56Z</time></trkpt><trkpt lat="42.55284416585373" lon="11.553781545014871"><ele>253.66666666666666</ele><time>2026-03-22T10:54:57Z</time></trkpt><trkpt lat="42.55266778023088" lon="11.553962710167628"><ele>254.33333333333331</ele><time>2026-03-22T10:54:58Z</time></trkpt><trkpt lat="42.552493008188335" lon="11.554141228780543"><ele>255.0</ele><time>2026-03-22T10:54:59Z</time></trkpt><trkpt lat="42.55231529527739" lon="11.554328054176855"><ele>255.0</ele><time>2026-03-22T10:55:00Z</time></trkpt><trkpt lat="42.55214297530972" lon="11.554504646789134"><ele>255.0</ele><time>2026-03-22T10:55:01Z</time></trkpt><trkpt lat="42.551972499066224" lon="11.554683632757934"><ele>255.0</ele><time>2026-03-22T10:55:02Z</time></trkpt><trkpt lat="42.5518031809309" lon="11.5548597708493"><ele>255.33333333333331</ele><time>2026-03-22T10:55:03Z</time></trkpt><trkpt lat="42.551635957055396" lon="11.555031958290764"><ele>255.66666666666666</ele><time>2026-03-22T10:55:04Z</time></trkpt><trkpt lat="42.55146957517301" lon="11.5552062972872"><ele>256.0</ele><time>2026-03-22T10:55:05Z</time></trkpt><trkpt lat="42.55130182373384" lon="11.55538334405569"><ele>253.66666666666666</ele><time>2026-03-22T10:55:06Z</time></trkpt><trkpt lat="42.551142852521025" lon="11.555559933539923"><ele>251.33333333333331</ele><time>2026-03-22T10:55:07Z</time></trkpt><trkpt lat="42.55099296062165" lon="11.555723973101417"><ele>249.0</ele><time>2026-03-22T10:55:08Z</time></trkpt><trkpt lat="42.550850702210894" lon="11.555877851291495"><ele>249.0</ele><time>2026-03-22T10:55:09Z</time></trkpt><trkpt lat="42.550705424736314" lon="11.556025390281922"><ele>249.0</ele><time>2026-03-22T10:55:10Z</time></trkpt><trkpt lat="42.55056746114782" lon="11.556147636080548"><ele>249.0</ele><time>2026-03-22T10:55:11Z</time></trkpt><trkpt lat="42.55042370989012" lon="11.556242569074831"><ele>248.66666666666669</ele><time>2026-03-22T10:55:12Z</time></trkpt><trkpt lat="42.550265327459" lon="11.556316632327519"><ele>248.33333333333334</ele><time>2026-03-22T10:55:13Z</time></trkpt><trkpt lat="42.550097860176415" lon="11.556371101531546"><ele>248.0</ele><time>2026-03-22T10:55:14Z</time></trkpt><trkpt lat="42.54992188486984" lon="11.55641683168403"><ele>248.0</ele><time>2026-03-22T10:55:15Z</time></trkpt><trkpt lat="42.549736675430886" lon="11.556463421895169"><ele>248.0</ele><time>2026-03-22T10:55:16Z</time></trkpt><trkpt lat="42.549552379514374" lon="11.556514349894831"><ele>248.0</ele><time>2026-03-22T10:55:17Z</time></trkpt><trkpt lat="42.5493712603126" lon="11.55656495035038"><ele>245.33333333333334</ele><time>2026-03-22T10:55:18Z</time></trkpt><trkpt lat="42.54918859025871" lon="11.556608837664848"><ele>242.66666666666669</ele><time>2026-03-22T10:55:19Z</time></trkpt><trkpt lat="42.54900656667504" lon="11.556631239603625"><ele>240.0</ele><time>2026-03-22T10:55:20Z</time></trkpt><trkpt lat="42.54883002013838" lon="11.556611689909184"><ele>237.66666666666669</ele><time>2026-03-22T10:55:21Z</time></trkpt><trkpt lat="42.548653953682106" lon="11.556571680900657"><ele>235.33333333333334</ele><time>2026-03-22T10:55:22Z</time></trkpt><trkpt lat="42.54847012337996" lon="11.55653890384724"><ele>233.0</ele><time>2026-03-22T10:55:23Z</time></trkpt><trkpt lat="42.54828280682153" lon="11.556517078630883"><ele>233.0</ele><time>2026-03-22T10:55:24Z</time></trkpt><trkpt lat="42.548098592980175" lon="11.556486092874342"><ele>233.0</ele><time>2026-03-22T10:55:25Z</time></trkpt><trkpt lat="42.54791324548101" lon="11.556451381266037"><ele>233.0</ele><time>2026-03-22T10:55:26Z</time></trkpt><trkpt lat="42.547737710310756" lon="11.556415472316132"><ele>233.0</ele><time>2026-03-22T10:55:27Z</time></trkpt><trkpt lat="42.54755431577716" lon="11.556383632251425"><ele>233.0</ele><time>2026-03-22T10:55:28Z</time></trkpt><trkpt lat="42.547387456574455" lon="11.55635320399033"><ele>233.0</ele><time>2026-03-22T10:55:29Z</time></trkpt><trkpt lat="42.547219746968835" lon="11.556328982721473"><ele>233.0</ele><time>2026-03-22T10:55:30Z</time></trkpt><trkpt lat="42.54707110330785" lon="11.556323302961415"><ele>233.0</ele><time>2026-03-22T10:55:31Z</time></trkpt><trkpt lat="42.5469391451761" lon="11.556354899653593"><ele>233.0</ele><time>2026-03-22T10:55:32Z</time></trkpt><trkpt lat="42.54683282223954" lon="11.556433926066207"><ele>233.0</ele><time>2026-03-22T10:55:32.999Z</time></trkpt><trkpt lat="42.54675356148882" lon="11.556545570852794"><ele>230.25</ele><time>2026-03-22T10:55:33.999Z</time></trkpt><trkpt lat="42.54669188284705" lon="11.55672527494873"><ele>227.5</ele><time>2026-03-22T10:55:34.999Z</time></trkpt><trkpt lat="42.546658219978085" lon="11.55688851260734"><ele>224.75</ele><time>2026-03-22T10:55:35.999Z</time></trkpt><trkpt lat="42.54663504888796" lon="11.557118278720912"><ele>222.0</ele><time>2026-03-22T10:55:36.999Z</time></trkpt><trkpt lat="42.546677741576794" lon="11.557388585527992"><ele>222.0</ele><time>2026-03-22T10:55:37.999Z</time></trkpt><trkpt lat="42.546647910964595" lon="11.557605946117448"><ele>222.0</ele><time>2026-03-22T10:55:38.999Z</time></trkpt><trkpt lat="42.54660738020679" lon="11.557814823821428"><ele>222.0</ele><time>2026-03-22T10:55:39.999Z</time></trkpt><trkpt lat="42.54654253085675" lon="11.558010472744764"><ele>220.25</ele><time>2026-03-22T10:55:40.999Z</time></trkpt><trkpt lat="42.54645123896483" lon="11.558166266190952"><ele>218.5</ele><time>2026-03-22T10:55:41.999Z</time></trkpt><trkpt lat="42.5463530344429" lon="11.558307970720303"><ele>216.75</ele><time>2026-03-22T10:55:42.999Z</time></trkpt><trkpt lat="42.546252254873274" lon="11.558410343659336"><ele>215.0</ele><time>2026-03-22T10:55:43.999Z</time></trkpt><trkpt lat="42.54611371706878" lon="11.558489881905246"><ele>215.0</ele><time>2026-03-22T10:55:44.999Z</time></trkpt><trkpt lat="42.545990895371624" lon="11.558588188360078"><ele>215.0</ele><time>2026-03-22T10:55:45.999Z</time></trkpt><trkpt lat="42.54585287604203" lon="11.558660881350857"><ele>215.0</ele><time>2026-03-22T10:55:46.999Z</time></trkpt><trkpt lat="42.545720959911925" lon="11.55878425547607"><ele>218.5</ele><time>2026-03-22T10:55:47.999Z</time></trkpt><trkpt lat="42.54560454655559" lon="11.558875430585742"><ele>222.0</ele><time>2026-03-22T10:55:48.999Z</time></trkpt><trkpt lat="42.54558793118791" lon="11.559090963923826"><ele>225.5</ele><time>2026-03-22T10:55:49.999Z</time></trkpt><trkpt lat="42.54552028604597" lon="11.559200036684103"><ele>229.0</ele><time>2026-03-22T10:55:50.999Z</time></trkpt><trkpt lat="42.54543101548489" lon="11.559281323171737"><ele>227.2</ele><time>2026-03-22T10:55:51.999Z</time></trkpt><trkpt lat="42.54534406157815" lon="11.559355757986689"><ele>225.39999999999998</ele><time>2026-03-22T10:55:52.999Z</time></trkpt><trkpt lat="42.545266994127324" lon="11.559379195620384"><ele>223.6</ele><time>2026-03-22T10:55:53.999Z</time></trkpt><trkpt lat="42.545188301061636" lon="11.559426253580881"><ele>221.8</ele><time>2026-03-22T10:55:54.999Z</time></trkpt><trkpt lat="42.54504797047572" lon="11.559437132155592"><ele>220.0</ele><time>2026-03-22T10:55:56.999Z</time></trkpt><trkpt lat="42.5448811417204" lon="11.559354508679338"><ele>220.0</ele><time>2026-03-22T10:55:57.999Z</time></trkpt><trkpt lat="42.54462042515924" lon="11.559237190661385"><ele>220.0</ele><time>2026-03-22T10:55:58.999Z</time></trkpt><trkpt lat="42.54444732140562" lon="11.559288217403145"><ele>215.66666666666666</ele><time>2026-03-22T10:55:59.999Z</time></trkpt><trkpt lat="42.5442786164842" lon="11.559338813304606"><ele>211.33333333333331</ele><time>2026-03-22T10:56:00.999Z</time></trkpt><trkpt lat="42.544124050993794" lon="11.559420187680098"><ele>207.0</ele><time>2026-03-22T10:56:01.999Z</time></trkpt><trkpt lat="42.54397053910145" lon="11.559507460885786"><ele>205.0</ele><time>2026-03-22T10:56:02.999Z</time></trkpt><trkpt lat="42.543804099974324" lon="11.559614611874258"><ele>203.0</ele><time>2026-03-22T10:56:03.999Z</time></trkpt><trkpt lat="42.54365462901841" lon="11.559746769063624"><ele>201.0</ele><time>2026-03-22T10:56:04.999Z</time></trkpt><trkpt lat="42.54354143575228" lon="11.559884069761122"><ele>201.0</ele><time>2026-03-22T10:56:05.999Z</time></trkpt><trkpt lat="42.54340288837177" lon="11.560023290205827"><ele>201.0</ele><time>2026-03-22T10:56:06.999Z</time></trkpt><trkpt lat="42.54323267001807" lon="11.560164033851049"><ele>201.0</ele><time>2026-03-22T10:56:07.999Z</time></trkpt><trkpt lat="42.54310291477917" lon="11.560279395659984"><ele>201.0</ele><time>2026-03-22T10:56:08.999Z</time></trkpt><trkpt lat="42.54297157896531" lon="11.56035912722835"><ele>201.0</ele><time>2026-03-22T10:56:09.999Z</time></trkpt><trkpt lat="42.542842996050105" lon="11.560466782353672"><ele>201.0</ele><time>2026-03-22T10:56:10.999Z</time></trkpt><trkpt lat="42.54272294034152" lon="11.560568811312368"><ele>201.0</ele><time>2026-03-22T10:56:11.999Z</time></trkpt><trkpt lat="42.542608805667044" lon="11.560682590075324"><ele>197.8</ele><time>2026-03-22T10:56:12.999Z</time></trkpt><trkpt lat="42.542505551084936" lon="11.560801494698227"><ele>194.60000000000002</ele><time>2026-03-22T10:56:13.999Z</time></trkpt><trkpt lat="42.54245185600668" lon="11.560929504924257"><ele>191.4</ele><time>2026-03-22T10:56:14.999Z</time></trkpt><trkpt lat="42.5423724119322" lon="11.561002370729302"><ele>188.2</ele><time>2026-03-22T10:56:15.999Z</time></trkpt><trkpt lat="42.54233019827707" lon="11.561128357735889"><ele>185.0</ele><time>2026-03-22T10:56:16.999Z</time></trkpt><trkpt lat="42.54229519393924" lon="11.561301155905229"><ele>183.33333333333331</ele><time>2026-03-22T10:56:17.999Z</time></trkpt><trkpt lat="42.54223730606422" lon="11.561442920206087"><ele>181.66666666666666</ele><time>2026-03-22T10:56:18.999Z</time></trkpt><trkpt lat="42.54222820580969" lon="11.561714374968306"><ele>180.0</ele><time>2026-03-22T10:56:19.999Z</time></trkpt><trkpt lat="42.54237073153906" lon="11.561956781942758"><ele>180.66666666666666</ele><time>2026-03-22T10:56:20.999Z</time></trkpt><trkpt lat="42.54237576855745" lon="11.562222177837342"><ele>181.33333333333331</ele><time>2026-03-22T10:56:21.999Z</time></trkpt><trkpt lat="42.542348388414766" lon="11.562486292476057"><ele>182.0</ele><time>2026-03-22T10:56:22.999Z</time></trkpt><trkpt lat="42.542285095622624" lon="11.56272315665623"><ele>177.33333333333331</ele><time>2026-03-22T10:56:23.999Z</time></trkpt><trkpt lat="42.542202287902775" lon="11.56299174169306"><ele>172.66666666666666</ele><time>2026-03-22T10:56:24.999Z</time></trkpt><trkpt lat="42.542095074957565" lon="11.563228486491022"><ele>168.0</ele><time>2026-03-22T10:56:25.999Z</time></trkpt><trkpt lat="42.5420089200988" lon="11.563503034750852"><ele>169.0</ele><time>2026-03-22T10:56:26.999Z</time></trkpt><trkpt lat="42.54188920889218" lon="11.563719790698507"><ele>170.0</ele><time>2026-03-22T10:56:27.999Z</time></trkpt><trkpt lat="42.54180084920627" lon="11.563927666164645"><ele>171.0</ele><time>2026-03-22T10:56:28.999Z</time></trkpt><trkpt lat="42.541711423663706" lon="11.564149444606894"><ele>171.0</ele><time>2026-03-22T10:56:29.999Z</time></trkpt><trkpt lat="42.54166249342886" lon="11.564374189579164"><ele>171.0</ele><time>2026-03-22T10:56:30.999Z</time></trkpt><trkpt lat="42.54159701825397" lon="11.564592057175977"><ele>171.0</ele><time>2026-03-22T10:56:31.999Z</time></trkpt><trkpt lat="42.54157593381366" lon="11.564770654702453"><ele>171.66666666666666</ele><time>2026-03-22T10:56:32.998Z</time></trkpt><trkpt lat="42.541591217210176" lon="11.564972141914648"><ele>172.33333333333331</ele><time>2026-03-22T10:56:33.998Z</time></trkpt><trkpt lat="42.54160814816115" lon="11.565167698059282"><ele>173.0</ele><time>2026-03-22T10:56:34.998Z</time></trkpt><trkpt lat="42.541650544634464" lon="11.56537756598208"><ele>173.66666666666666</ele><time>2026-03-22T10:56:35.998Z</time></trkpt><trkpt lat="42.54165571778457" lon="11.565574602965842"><ele>174.33333333333334</ele><time>2026-03-22T10:56:36.998Z</time></trkpt><trkpt lat="42.541607860987355" lon="11.565787241524339"><ele>175.0</ele><time>2026-03-22T10:56:37.998Z</time></trkpt><trkpt lat="42.541549000870006" lon="11.565995238432986"><ele>175.0</ele><time>2026-03-22T10:56:38.998Z</time></trkpt><trkpt lat="42.541492477514396" lon="11.56622438186553"><ele>175.0</ele><time>2026-03-22T10:56:39.998Z</time></trkpt><trkpt lat="42.54147640960527" lon="11.566474416029395"><ele>175.0</ele><time>2026-03-22T10:56:40.998Z</time></trkpt><trkpt lat="42.54148045336756" lon="11.566736490044585"><ele>175.0</ele><time>2026-03-22T10:56:41.998Z</time></trkpt><trkpt lat="42.54148647243545" lon="11.566983670821127"><ele>175.0</ele><time>2026-03-22T10:56:42.998Z</time></trkpt><trkpt lat="42.54144424302817" lon="11.567274200262505"><ele>175.0</ele><time>2026-03-22T10:56:43.998Z</time></trkpt><trkpt lat="42.54143850095312" lon="11.567523139848467"><ele>176.66666666666669</ele><time>2026-03-22T10:56:44.998Z</time></trkpt><trkpt lat="42.541427498447156" lon="11.56778379667408"><ele>178.33333333333334</ele><time>2026-03-22T10:56:45.998Z</time></trkpt><trkpt lat="42.541385701280824" lon="11.5680258952843"><ele>180.0</ele><time>2026-03-22T10:56:46.998Z</time></trkpt><trkpt lat="42.54135667750165" lon="11.56829096817858"><ele>186.5</ele><time>2026-03-22T10:56:47.998Z</time></trkpt><trkpt lat="42.54131634920885" lon="11.568561347729569"><ele>193.0</ele><time>2026-03-22T10:56:48.998Z</time></trkpt><trkpt lat="42.541062740900585" lon="11.568653187113808"><ele>178.33333333333331</ele><time>2026-03-22T10:56:49.998Z</time></trkpt><trkpt lat="42.540943366567426" lon="11.56878219000073"><ele>163.66666666666666</ele><time>2026-03-22T10:56:50.998Z</time></trkpt><trkpt lat="42.54087195065068" lon="11.569015216146703"><ele>149.0</ele><time>2026-03-22T10:56:51.998Z</time></trkpt><trkpt lat="42.54085792490876" lon="11.569264390659107"><ele>149.0</ele><time>2026-03-22T10:56:52.998Z</time></trkpt><trkpt lat="42.5408507431862" lon="11.56948695794276"><ele>149.0</ele><time>2026-03-22T10:56:53.998Z</time></trkpt><trkpt lat="42.5408712743028" lon="11.569730923921245"><ele>149.0</ele><time>2026-03-22T10:56:54.998Z</time></trkpt><trkpt lat="42.540897946612084" lon="11.569968493650617"><ele>148.33333333333331</ele><time>2026-03-22T10:56:55.998Z</time></trkpt><trkpt lat="42.540925037829766" lon="11.570229312465552"><ele>147.66666666666666</ele><time>2026-03-22T10:56:56.998Z</time></trkpt><trkpt lat="42.54094564275623" lon="11.570497103238015"><ele>147.0</ele><time>2026-03-22T10:56:58Z</time></trkpt><trkpt lat="42.5409528761483" lon="11.570785871408527"><ele>146.33333333333334</ele><time>2026-03-22T10:56:59Z</time></trkpt><trkpt lat="42.540975875962275" lon="11.571043520563387"><ele>145.66666666666669</ele><time>2026-03-22T10:57:00Z</time></trkpt><trkpt lat="42.54099715614664" lon="11.571317539898347"><ele>145.0</ele><time>2026-03-22T10:57:01Z</time></trkpt><trkpt lat="42.541015692391554" lon="11.5715712666206"><ele>144.66666666666669</ele><time>2026-03-22T10:57:02Z</time></trkpt><trkpt lat="42.54105648770449" lon="11.57180986115223"><ele>144.33333333333334</ele><time>2026-03-22T10:57:03Z</time></trkpt><trkpt lat="42.541108754069555" lon="11.572039682726398"><ele>144.0</ele><time>2026-03-22T10:57:04Z</time></trkpt><trkpt lat="42.54118147437493" lon="11.572296574958786"><ele>144.66666666666666</ele><time>2026-03-22T10:57:05Z</time></trkpt><trkpt lat="42.541251660946" lon="11.572578426180742"><ele>145.33333333333331</ele><time>2026-03-22T10:57:06Z</time></trkpt><trkpt lat="42.54131369393053" lon="11.572786876788857"><ele>146.0</ele><time>2026-03-22T10:57:07Z</time></trkpt><trkpt lat="42.5413960237635" lon="11.573073582243252"><ele>146.0</ele><time>2026-03-22T10:57:08Z</time></trkpt><trkpt lat="42.54146815591153" lon="11.573353237651306"><ele>146.0</ele><time>2026-03-22T10:57:09Z</time></trkpt><trkpt lat="42.54152022993071" lon="11.573590984263092"><ele>146.0</ele><time>2026-03-22T10:57:10Z</time></trkpt><trkpt lat="42.54158658515593" lon="11.57385320421526"><ele>142.33333333333331</ele><time>2026-03-22T10:57:11Z</time></trkpt><trkpt lat="42.541665792963585" lon="11.574123293493754"><ele>138.66666666666666</ele><time>2026-03-22T10:57:12Z</time></trkpt><trkpt lat="42.54171531695088" lon="11.574390798330466"><ele>135.0</ele><time>2026-03-22T10:57:13Z</time></trkpt><trkpt lat="42.54178731232368" lon="11.57462013590971"><ele>133.0</ele><time>2026-03-22T10:57:14Z</time></trkpt><trkpt lat="42.54178904624866" lon="11.574807605948541"><ele>131.0</ele><time>2026-03-22T10:57:15Z</time></trkpt><trkpt lat="42.541768369615696" lon="11.574977715913093"><ele>129.0</ele><time>2026-03-22T10:57:16Z</time></trkpt><trkpt lat="42.54172331392106" lon="11.575158118449652"><ele>127.0</ele><time>2026-03-22T10:57:17Z</time></trkpt><trkpt lat="42.54168297615164" lon="11.57531434786034"><ele>125.0</ele><time>2026-03-22T10:57:18Z</time></trkpt><trkpt lat="42.54163035656403" lon="11.57552309094336"><ele>123.0</ele><time>2026-03-22T10:57:19Z</time></trkpt><trkpt lat="42.5415829460455" lon="11.575711856452502"><ele>121.0</ele><time>2026-03-22T10:57:20Z</time></trkpt><trkpt lat="42.54150987349171" lon="11.576002795470856"><ele>120.66666666666667</ele><time>2026-03-22T10:57:21Z</time></trkpt><trkpt lat="42.541440147836326" lon="11.576280409147335"><ele>120.33333333333334</ele><time>2026-03-22T10:57:22Z</time></trkpt><trkpt lat="42.54137591002325" lon="11.576537619532202"><ele>120.0</ele><time>2026-03-22T10:57:23Z</time></trkpt><trkpt lat="42.54131163499857" lon="11.576794787821077"><ele>118.66666666666666</ele><time>2026-03-22T10:57:24Z</time></trkpt><trkpt lat="42.54124434397718" lon="11.577064023322134"><ele>117.33333333333333</ele><time>2026-03-22T10:57:25Z</time></trkpt><trkpt lat="42.54117594374138" lon="11.577337696895114"><ele>116.0</ele><time>2026-03-22T10:57:26Z</time></trkpt><trkpt lat="42.54110646079721" lon="11.577614427713662"><ele>115.33333333333333</ele><time>2026-03-22T10:57:27Z</time></trkpt><trkpt lat="42.541038019393724" lon="11.57788683261104"><ele>114.66666666666666</ele><time>2026-03-22T10:57:28Z</time></trkpt><trkpt lat="42.540969262029336" lon="11.57816049508469"><ele>114.0</ele><time>2026-03-22T10:57:29Z</time></trkpt><trkpt lat="42.54090352760345" lon="11.578422125869997"><ele>113.33333333333334</ele><time>2026-03-22T10:57:30Z</time></trkpt><trkpt lat="42.540836067915464" lon="11.57869062345345"><ele>112.66666666666667</ele><time>2026-03-22T10:57:31Z</time></trkpt><trkpt lat="42.54076890577613" lon="11.578952832200267"><ele>112.0</ele><time>2026-03-22T10:57:32Z</time></trkpt><trkpt lat="42.54070029202256" lon="11.579220222840842"><ele>112.0</ele><time>2026-03-22T10:57:33Z</time></trkpt><trkpt lat="42.54063125762593" lon="11.579490604378133"><ele>112.0</ele><time>2026-03-22T10:57:34Z</time></trkpt><trkpt lat="42.540564869639844" lon="11.579754164398429"><ele>112.0</ele><time>2026-03-22T10:57:35Z</time></trkpt><trkpt lat="42.540498415613975" lon="11.580018995835388"><ele>112.0</ele><time>2026-03-22T10:57:35.999Z</time></trkpt><trkpt lat="42.54043048228832" lon="11.580289722564276"><ele>112.0</ele><time>2026-03-22T10:57:36.999Z</time></trkpt><trkpt lat="42.540359956530104" lon="11.580570780591632"><ele>112.0</ele><time>2026-03-22T10:57:37.999Z</time></trkpt><trkpt lat="42.540290008626776" lon="11.58084953577522"><ele>110.66666666666667</ele><time>2026-03-22T10:57:38.999Z</time></trkpt><trkpt lat="42.54022158994166" lon="11.581122196725808"><ele>109.33333333333334</ele><time>2026-03-22T10:57:39.999Z</time></trkpt><trkpt lat="42.54015438354675" lon="11.58139002647527"><ele>108.0</ele><time>2026-03-22T10:57:40.999Z</time></trkpt><trkpt lat="42.54008574391075" lon="11.58166356796915"><ele>107.33333333333334</ele><time>2026-03-22T10:57:41.999Z</time></trkpt><trkpt lat="42.54001629910449" lon="11.581940318199594"><ele>106.66666666666667</ele><time>2026-03-22T10:57:42.999Z</time></trkpt><trkpt lat="42.53994629255873" lon="11.582219307074494"><ele>106.0</ele><time>2026-03-22T10:57:43.999Z</time></trkpt><trkpt lat="42.53987697907537" lon="11.582495533965368"><ele>106.0</ele><time>2026-03-22T10:57:44.999Z</time></trkpt><trkpt lat="42.539807476312646" lon="11.582772515230532"><ele>106.0</ele><time>2026-03-22T10:57:45.999Z</time></trkpt><trkpt lat="42.5397373080087" lon="11.583052148655115"><ele>106.0</ele><time>2026-03-22T10:57:46.999Z</time></trkpt><trkpt lat="42.53966785781145" lon="11.583328446165245"><ele>105.66666666666667</ele><time>2026-03-22T10:57:47.999Z</time></trkpt><trkpt lat="42.53959939945207" lon="11.583600144728804"><ele>105.33333333333334</ele><time>2026-03-22T10:57:48.999Z</time></trkpt><trkpt lat="42.539532879363406" lon="11.583862651305965"><ele>105.0</ele><time>2026-03-22T10:57:49.999Z</time></trkpt><trkpt lat="42.53946698544651" lon="11.58411914999663"><ele>106.66666666666666</ele><time>2026-03-22T10:57:50.999Z</time></trkpt><trkpt lat="42.539403426211905" lon="11.584366560823776"><ele>108.33333333333333</ele><time>2026-03-22T10:57:51.999Z</time></trkpt><trkpt lat="42.539346409889276" lon="11.584588502638384"><ele>110.0</ele><time>2026-03-22T10:57:52.999Z</time></trkpt><trkpt lat="42.53928589852355" lon="11.584770938244562"><ele>110.0</ele><time>2026-03-22T10:57:53.999Z</time></trkpt><trkpt lat="42.53919174282779" lon="11.584918159018196"><ele>110.0</ele><time>2026-03-22T10:57:54.999Z</time></trkpt><trkpt lat="42.53908292780862" lon="11.58505212364222"><ele>110.0</ele><time>2026-03-22T10:57:55.999Z</time></trkpt><trkpt lat="42.53895110672396" lon="11.585180854939802"><ele>110.0</ele><time>2026-03-22T10:57:56.999Z</time></trkpt><trkpt lat="42.53881129995365" lon="11.585311992014152"><ele>110.0</ele><time>2026-03-22T10:57:57.999Z</time></trkpt><trkpt lat="42.53867844465748" lon="11.585450136537975"><ele>110.0</ele><time>2026-03-22T10:57:58.999Z</time></trkpt><trkpt lat="42.53853198209046" lon="11.58559918428684"><ele>111.33333333333333</ele><time>2026-03-22T10:57:59.999Z</time></trkpt><trkpt lat="42.53837453022072" lon="11.585729088773952"><ele>112.66666666666666</ele><time>2026-03-22T10:58:00.999Z</time></trkpt><trkpt lat="42.53823433393204" lon="11.585867731102903"><ele>114.0</ele><time>2026-03-22T10:58:01.999Z</time></trkpt><trkpt lat="42.538087544573976" lon="11.586027210788586"><ele>114.0</ele><time>2026-03-22T10:58:02.999Z</time></trkpt><trkpt lat="42.53793681098922" lon="11.58616805224001"><ele>114.0</ele><time>2026-03-22T10:58:03.999Z</time></trkpt><trkpt lat="42.53778961108356" lon="11.586313512833836"><ele>114.0</ele><time>2026-03-22T10:58:04.999Z</time></trkpt><trkpt lat="42.537662662264864" lon="11.58648410941843"><ele>114.66666666666666</ele><time>2026-03-22T10:58:05.999Z</time></trkpt><trkpt lat="42.53755582252743" lon="11.586692522674557"><ele>115.33333333333333</ele><time>2026-03-22T10:58:06.999Z</time></trkpt><trkpt lat="42.537461140361906" lon="11.586920627623671"><ele>116.0</ele><time>2026-03-22T10:58:07.999Z</time></trkpt><trkpt lat="42.53736259004746" lon="11.587155248082583"><ele>114.0</ele><time>2026-03-22T10:58:08.999Z</time></trkpt><trkpt lat="42.537257542504385" lon="11.587389577818042"><ele>112.0</ele><time>2026-03-22T10:58:09.999Z</time></trkpt><trkpt lat="42.53715445592616" lon="11.58760912374409"><ele>110.0</ele><time>2026-03-22T10:58:10.999Z</time></trkpt><trkpt lat="42.537048652680376" lon="11.587816794613165"><ele>110.5</ele><time>2026-03-22T10:58:11.999Z</time></trkpt><trkpt lat="42.53692862957037" lon="11.587920962128182"><ele>111.0</ele><time>2026-03-22T10:58:12.999Z</time></trkpt><trkpt lat="42.53680082247337" lon="11.587983889316748"><ele>111.5</ele><time>2026-03-22T10:58:13.999Z</time></trkpt><trkpt lat="42.536660187197626" lon="11.588038390261463"><ele>112.0</ele><time>2026-03-22T10:58:14.999Z</time></trkpt><trkpt lat="42.53652033447491" lon="11.588077535587882"><ele>112.0</ele><time>2026-03-22T10:58:15.999Z</time></trkpt><trkpt lat="42.53638059685942" lon="11.588154473934889"><ele>112.0</ele><time>2026-03-22T10:58:16.999Z</time></trkpt><trkpt lat="42.53618157686894" lon="11.588086543417244"><ele>112.0</ele><time>2026-03-22T10:58:17.999Z</time></trkpt><trkpt lat="42.53599662370799" lon="11.588173183909658"><ele>112.0</ele><time>2026-03-22T10:58:18.999Z</time></trkpt><trkpt lat="42.53583398682619" lon="11.588294178953667"><ele>112.0</ele><time>2026-03-22T10:58:19.999Z</time></trkpt><trkpt lat="42.535678885201875" lon="11.588431696854242"><ele>112.0</ele><time>2026-03-22T10:58:20.999Z</time></trkpt><trkpt lat="42.535564382686445" lon="11.588599342465926"><ele>112.33333333333334</ele><time>2026-03-22T10:58:21.999Z</time></trkpt><trkpt lat="42.535431647850615" lon="11.588752524870143"><ele>112.66666666666666</ele><time>2026-03-22T10:58:22.999Z</time></trkpt><trkpt lat="42.53528844263427" lon="11.588907204675964"><ele>113.0</ele><time>2026-03-22T10:58:23.999Z</time></trkpt><trkpt lat="42.535142549232994" lon="11.589057747910536"><ele>113.0</ele><time>2026-03-22T10:58:24.999Z</time></trkpt><trkpt lat="42.53499596318224" lon="11.589219804161347"><ele>113.0</ele><time>2026-03-22T10:58:25.999Z</time></trkpt><trkpt lat="42.53484627092842" lon="11.589376680650853"><ele>113.0</ele><time>2026-03-22T10:58:26.999Z</time></trkpt><trkpt lat="42.53469490401885" lon="11.589535861026983"><ele>115.0</ele><time>2026-03-22T10:58:27.999Z</time></trkpt><trkpt lat="42.53454566043854" lon="11.5896897914349"><ele>117.0</ele><time>2026-03-22T10:58:28.999Z</time></trkpt><trkpt lat="42.534395883682315" lon="11.58981716310423"><ele>119.0</ele><time>2026-03-22T10:58:29.999Z</time></trkpt><trkpt lat="42.53425178831601" lon="11.589903347311195"><ele>119.0</ele><time>2026-03-22T10:58:30.999Z</time></trkpt><trkpt lat="42.53409929968554" lon="11.589930752306323"><ele>119.0</ele><time>2026-03-22T10:58:31.999Z</time></trkpt><trkpt lat="42.53391352057274" lon="11.589927947385965"><ele>119.0</ele><time>2026-03-22T10:58:32.999Z</time></trkpt><trkpt lat="42.53375100242978" lon="11.589929296953189"><ele>121.0</ele><time>2026-03-22T10:58:33.999Z</time></trkpt><trkpt lat="42.533577519785204" lon="11.589921052186535"><ele>123.0</ele><time>2026-03-22T10:58:34.999Z</time></trkpt><trkpt lat="42.533401895839084" lon="11.589896000894049"><ele>125.0</ele><time>2026-03-22T10:58:35.999Z</time></trkpt><trkpt lat="42.53322551782634" lon="11.589892435317314"><ele>125.0</ele><time>2026-03-22T10:58:36.999Z</time></trkpt><trkpt lat="42.5330623954293" lon="11.589921659296317"><ele>125.0</ele><time>2026-03-22T10:58:37.998Z</time></trkpt><trkpt lat="42.53291322425161" lon="11.589972680926548"><ele>125.0</ele><time>2026-03-22T10:58:38.998Z</time></trkpt><trkpt lat="42.53276523818262" lon="11.590033764933576"><ele>124.0</ele><time>2026-03-22T10:58:39.998Z</time></trkpt><trkpt lat="42.53260549766569" lon="11.590135499689689"><ele>123.0</ele><time>2026-03-22T10:58:40.998Z</time></trkpt><trkpt lat="42.5324356486225" lon="11.590230617113026"><ele>122.0</ele><time>2026-03-22T10:58:41.998Z</time></trkpt><trkpt lat="42.53225546927855" lon="11.590360006378253"><ele>122.0</ele><time>2026-03-22T10:58:42.998Z</time></trkpt><trkpt lat="42.53209371495802" lon="11.590476014784638"><ele>122.0</ele><time>2026-03-22T10:58:43.998Z</time></trkpt><trkpt lat="42.53195281264539" lon="11.59062776073483"><ele>122.0</ele><time>2026-03-22T10:58:44.998Z</time></trkpt><trkpt lat="42.53182842115798" lon="11.59081327280689"><ele>121.33333333333333</ele><time>2026-03-22T10:58:45.998Z</time></trkpt><trkpt lat="42.531707436193734" lon="11.591017594254017"><ele>120.66666666666666</ele><time>2026-03-22T10:58:46.998Z</time></trkpt><trkpt lat="42.53158114086772" lon="11.591229289573038"><ele>120.0</ele><time>2026-03-22T10:58:47.998Z</time></trkpt><trkpt lat="42.53145241555498" lon="11.591440069737738"><ele>120.0</ele><time>2026-03-22T10:58:48.998Z</time></trkpt><trkpt lat="42.53131492432091" lon="11.591653611416097"><ele>120.0</ele><time>2026-03-22T10:58:49.998Z</time></trkpt><trkpt lat="42.53117595086035" lon="11.591870599377415"><ele>120.0</ele><time>2026-03-22T10:58:50.998Z</time></trkpt><trkpt lat="42.53104913422421" lon="11.592091023313468"><ele>122.33333333333334</ele><time>2026-03-22T10:58:51.998Z</time></trkpt><trkpt lat="42.530908885229195" lon="11.59231871223295"><ele>124.66666666666667</ele><time>2026-03-22T10:58:52.998Z</time></trkpt><trkpt lat="42.5307678663472" lon="11.59254470944953"><ele>127.0</ele><time>2026-03-22T10:58:53.998Z</time></trkpt><trkpt lat="42.53063174355329" lon="11.592768406808235"><ele>123.0</ele><time>2026-03-22T10:58:54.998Z</time></trkpt><trkpt lat="42.530502784159374" lon="11.592980045076665"><ele>119.0</ele><time>2026-03-22T10:58:55.998Z</time></trkpt><trkpt lat="42.5303712966943" lon="11.593163912138793"><ele>115.0</ele><time>2026-03-22T10:58:56.998Z</time></trkpt><trkpt lat="42.530226225507484" lon="11.593314153840637"><ele>118.66666666666667</ele><time>2026-03-22T10:58:57.998Z</time></trkpt><trkpt lat="42.530116200840254" lon="11.593444923427942"><ele>122.33333333333334</ele><time>2026-03-22T10:58:58.998Z</time></trkpt><trkpt lat="42.530037751482766" lon="11.593619388247513"><ele>126.0</ele><time>2026-03-22T10:58:59.998Z</time></trkpt><trkpt lat="42.52997489592788" lon="11.593819981576223"><ele>126.0</ele><time>2026-03-22T10:59:00.998Z</time></trkpt><trkpt lat="42.52995102104336" lon="11.594018998771311"><ele>126.0</ele><time>2026-03-22T10:59:01.998Z</time></trkpt><trkpt lat="42.52990122002883" lon="11.594219560759631"><ele>126.0</ele><time>2026-03-22T10:59:02.998Z</time></trkpt><trkpt lat="42.52985144659746" lon="11.594437875791678"><ele>124.0</ele><time>2026-03-22T10:59:04Z</time></trkpt><trkpt lat="42.529807651944346" lon="11.594675915413028"><ele>122.0</ele><time>2026-03-22T10:59:05Z</time></trkpt><trkpt lat="42.529767407380966" lon="11.594903915806704"><ele>120.0</ele><time>2026-03-22T10:59:06Z</time></trkpt><trkpt lat="42.52971937300379" lon="11.595123696947418"><ele>120.0</ele><time>2026-03-22T10:59:07Z</time></trkpt><trkpt lat="42.5296531421408" lon="11.595325233975721"><ele>120.0</ele><time>2026-03-22T10:59:08Z</time></trkpt><trkpt lat="42.52956912045186" lon="11.595494942019663"><ele>120.0</ele><time>2026-03-22T10:59:09Z</time></trkpt><trkpt lat="42.52947665407187" lon="11.595666492011599"><ele>125.0</ele><time>2026-03-22T10:59:10Z</time></trkpt><trkpt lat="42.52940754955655" lon="11.59586901319111"><ele>130.0</ele><time>2026-03-22T10:59:11Z</time></trkpt><trkpt lat="42.52935942758823" lon="11.596089739244674"><ele>135.0</ele><time>2026-03-22T10:59:12Z</time></trkpt><trkpt lat="42.52933887632356" lon="11.59631408169665"><ele>136.0</ele><time>2026-03-22T10:59:13Z</time></trkpt><trkpt lat="42.529337712623146" lon="11.596548550052097"><ele>137.0</ele><time>2026-03-22T10:59:14Z</time></trkpt><trkpt lat="42.52932961536782" lon="11.596755074607099"><ele>138.0</ele><time>2026-03-22T10:59:15Z</time></trkpt><trkpt lat="42.52930821875028" lon="11.59697052922481"><ele>135.33333333333334</ele><time>2026-03-22T10:59:16Z</time></trkpt><trkpt lat="42.52925781080988" lon="11.59720211274861"><ele>132.66666666666669</ele><time>2026-03-22T10:59:17Z</time></trkpt><trkpt lat="42.52917878494729" lon="11.597422559088"><ele>130.0</ele><time>2026-03-22T10:59:18Z</time></trkpt><trkpt lat="42.52908889462495" lon="11.597646518097845"><ele>124.33333333333334</ele><time>2026-03-22T10:59:19Z</time></trkpt><trkpt lat="42.528993448046705" lon="11.597853228704727"><ele>118.66666666666666</ele><time>2026-03-22T10:59:20Z</time></trkpt><trkpt lat="42.528894471771366" lon="11.598064284421138"><ele>113.0</ele><time>2026-03-22T10:59:21Z</time></trkpt><trkpt lat="42.528785748866625" lon="11.598266134059644"><ele>116.0</ele><time>2026-03-22T10:59:22Z</time></trkpt><trkpt lat="42.52865548096656" lon="11.598444966621269"><ele>119.0</ele><time>2026-03-22T10:59:23Z</time></trkpt><trkpt lat="42.528526093072" lon="11.598608028778237"><ele>122.0</ele><time>2026-03-22T10:59:24Z</time></trkpt><trkpt lat="42.5284255720782" lon="11.598779585465646"><ele>122.0</ele><time>2026-03-22T10:59:25Z</time></trkpt><trkpt lat="42.52833583243208" lon="11.598959277625482"><ele>122.0</ele><time>2026-03-22T10:59:26Z</time></trkpt><trkpt lat="42.52827393374581" lon="11.599164710115843"><ele>122.0</ele><time>2026-03-22T10:59:27Z</time></trkpt><trkpt lat="42.52822175366431" lon="11.59938292758519"><ele>117.66666666666666</ele><time>2026-03-22T10:59:28Z</time></trkpt><trkpt lat="42.52813648994499" lon="11.599592063787997"><ele>113.33333333333334</ele><time>2026-03-22T10:59:29Z</time></trkpt><trkpt lat="42.528030920363285" lon="11.599787321028296"><ele>109.0</ele><time>2026-03-22T10:59:30Z</time></trkpt><trkpt lat="42.52792405943815" lon="11.599995711365402"><ele>116.0</ele><time>2026-03-22T10:59:31Z</time></trkpt><trkpt lat="42.527819681330854" lon="11.600209675725752"><ele>123.0</ele><time>2026-03-22T10:59:32Z</time></trkpt><trkpt lat="42.52771544563802" lon="11.600425889188772"><ele>130.0</ele><time>2026-03-22T10:59:33Z</time></trkpt><trkpt lat="42.52760593760069" lon="11.600637340237643"><ele>130.0</ele><time>2026-03-22T10:59:34Z</time></trkpt><trkpt lat="42.52751590068778" lon="11.600833321620145"><ele>130.0</ele><time>2026-03-22T10:59:34.999Z</time></trkpt><trkpt lat="42.52743733605289" lon="11.600996415214796"><ele>130.0</ele><time>2026-03-22T10:59:35.999Z</time></trkpt><trkpt lat="42.52739265007355" lon="11.60114387348834"><ele>130.0</ele><time>2026-03-22T10:59:36.999Z</time></trkpt><trkpt lat="42.52738644483128" lon="11.601287511588668"><ele>125.25</ele><time>2026-03-22T10:59:37.999Z</time></trkpt><trkpt lat="42.52742481853824" lon="11.601415577580568"><ele>120.5</ele><time>2026-03-22T10:59:38.999Z</time></trkpt><trkpt lat="42.52749331263283" lon="11.601530941138188"><ele>115.75</ele><time>2026-03-22T10:59:39.999Z</time></trkpt><trkpt lat="42.52758248242497" lon="11.601652599937307"><ele>111.0</ele><time>2026-03-22T10:59:40.999Z</time></trkpt><trkpt lat="42.527672339788005" lon="11.601806559823256"><ele>111.0</ele><time>2026-03-22T10:59:41.999Z</time></trkpt><trkpt lat="42.527767979783114" lon="11.60194072403664"><ele>111.0</ele><time>2026-03-22T10:59:42.999Z</time></trkpt><trkpt lat="42.52786945284412" lon="11.60208376780332"><ele>111.0</ele><time>2026-03-22T10:59:43.999Z</time></trkpt><trkpt lat="42.52796918599016" lon="11.60220171168374"><ele>111.0</ele><time>2026-03-22T10:59:44.999Z</time></trkpt><trkpt lat="42.52806517591834" lon="11.602317823562522"><ele>114.0</ele><time>2026-03-22T10:59:45.999Z</time></trkpt><trkpt lat="42.528126904775796" lon="11.60244288273953"><ele>117.0</ele><time>2026-03-22T10:59:46.999Z</time></trkpt><trkpt lat="42.52813973067842" lon="11.602568179057801"><ele>120.0</ele><time>2026-03-22T10:59:47.999Z</time></trkpt><trkpt lat="42.52809888156454" lon="11.602686288067376"><ele>123.0</ele><time>2026-03-22T10:59:48.999Z</time></trkpt><trkpt lat="42.528047642139896" lon="11.6028026660847"><ele>126.0</ele><time>2026-03-22T10:59:49.999Z</time></trkpt><trkpt lat="42.52801327807912" lon="11.602925577506246"><ele>127.6</ele><time>2026-03-22T10:59:50.999Z</time></trkpt><trkpt lat="42.52800230375289" lon="11.603062203556147"><ele>129.2</ele><time>2026-03-22T10:59:51.999Z</time></trkpt><trkpt lat="42.52801451373507" lon="11.60320594508383"><ele>130.8</ele><time>2026-03-22T10:59:52.999Z</time></trkpt><trkpt lat="42.52803366821365" lon="11.603352722721523"><ele>132.4</ele><time>2026-03-22T10:59:53.999Z</time></trkpt><trkpt lat="42.528049409850695" lon="11.603503612582202"><ele>134.0</ele><time>2026-03-22T10:59:54.999Z</time></trkpt><trkpt lat="42.52806465358464" lon="11.603661267488187"><ele>133.75</ele><time>2026-03-22T10:59:55.999Z</time></trkpt><trkpt lat="42.5280763645633" lon="11.60382052666777"><ele>133.5</ele><time>2026-03-22T10:59:56.999Z</time></trkpt><trkpt lat="42.528088159831086" lon="11.603985955427252"><ele>133.25</ele><time>2026-03-22T10:59:57.999Z</time></trkpt><trkpt lat="42.52810075202462" lon="11.604156145852409"><ele>133.0</ele><time>2026-03-22T10:59:58.999Z</time></trkpt><trkpt lat="42.5281132308045" lon="11.604331532116358"><ele>132.75</ele><time>2026-03-22T10:59:59.999Z</time></trkpt><trkpt lat="42.52813349746445" lon="11.60451108180563"><ele>132.5</ele><time>2026-03-22T11:00:00.999Z</time></trkpt><trkpt lat="42.528153111196254" lon="11.604691546956964"><ele>132.25</ele><time>2026-03-22T11:00:01.999Z</time></trkpt><trkpt lat="42.52817419967277" lon="11.604878028629283"><ele>132.0</ele><time>2026-03-22T11:00:02.999Z</time></trkpt><trkpt lat="42.528187464138604" lon="11.605069445911408"><ele>132.0</ele><time>2026-03-22T11:00:03.999Z</time></trkpt><trkpt lat="42.5281940129537" lon="11.605261429336986"><ele>132.0</ele><time>2026-03-22T11:00:04.999Z</time></trkpt><trkpt lat="42.52821742724843" lon="11.605440333699137"><ele>132.0</ele><time>2026-03-22T11:00:05.999Z</time></trkpt><trkpt lat="42.52826374166817" lon="11.605610081330623"><ele>132.0</ele><time>2026-03-22T11:00:06.999Z</time></trkpt><trkpt lat="42.52834608169924" lon="11.605764729738759"><ele>130.0</ele><time>2026-03-22T11:00:07.999Z</time></trkpt><trkpt lat="42.528452614776874" lon="11.605892740984569"><ele>128.0</ele><time>2026-03-22T11:00:08.999Z</time></trkpt><trkpt lat="42.528578784820795" lon="11.605977729776034"><ele>126.0</ele><time>2026-03-22T11:00:09.999Z</time></trkpt><trkpt lat="42.52871468157671" lon="11.606021766854594"><ele>124.0</ele><time>2026-03-22T11:00:10.999Z</time></trkpt><trkpt lat="42.52886323873518" lon="11.606040727041028"><ele>128.5</ele><time>2026-03-22T11:00:11.999Z</time></trkpt><trkpt lat="42.52901355153064" lon="11.606037722816826"><ele>133.0</ele><time>2026-03-22T11:00:12.999Z</time></trkpt><trkpt lat="42.52915709505321" lon="11.60605398436449"><ele>137.5</ele><time>2026-03-22T11:00:13.999Z</time></trkpt><trkpt lat="42.529297526793265" lon="11.60606653679666"><ele>142.0</ele><time>2026-03-22T11:00:14.999Z</time></trkpt><trkpt lat="42.52942808094573" lon="11.606096301705303"><ele>143.25</ele><time>2026-03-22T11:00:15.999Z</time></trkpt><trkpt lat="42.52957315188899" lon="11.606132678937934"><ele>144.5</ele><time>2026-03-22T11:00:16.999Z</time></trkpt><trkpt lat="42.52971170266865" lon="11.606160240722687"><ele>145.75</ele><time>2026-03-22T11:00:17.999Z</time></trkpt><trkpt lat="42.52985318032674" lon="11.606220993551924"><ele>147.0</ele><time>2026-03-22T11:00:18.999Z</time></trkpt><trkpt lat="42.52997450447428" lon="11.60630938127095"><ele>144.4</ele><time>2026-03-22T11:00:19.999Z</time></trkpt><trkpt lat="42.53007428005673" lon="11.606380249993299"><ele>141.79999999999998</ele><time>2026-03-22T11:00:20.999Z</time></trkpt><trkpt lat="42.53016008774525" lon="11.606474469101647"><ele>139.2</ele><time>2026-03-22T11:00:21.999Z</time></trkpt><trkpt lat="42.530210800556134" lon="11.606584924271658"><ele>136.6</ele><time>2026-03-22T11:00:22.999Z</time></trkpt><trkpt lat="42.53028151395338" lon="11.606672206974347"><ele>134.0</ele><time>2026-03-22T11:00:23.999Z</time></trkpt><trkpt lat="42.530370622377966" lon="11.606746545073984"><ele>137.25</ele><time>2026-03-22T11:00:24.999Z</time></trkpt><trkpt lat="42.53047284634413" lon="11.606880034569143"><ele>140.5</ele><time>2026-03-22T11:00:25.999Z</time></trkpt><trkpt lat="42.53057322500956" lon="11.607012171741856"><ele>143.75</ele><time>2026-03-22T11:00:26.999Z</time></trkpt><trkpt lat="42.53067986184459" lon="11.607146744547162"><ele>147.0</ele><time>2026-03-22T11:00:27.999Z</time></trkpt><trkpt lat="42.53079244204508" lon="11.607261531871407"><ele>147.0</ele><time>2026-03-22T11:00:28.999Z</time></trkpt><trkpt lat="42.53092787051517" lon="11.607367330862369"><ele>147.0</ele><time>2026-03-22T11:00:29.999Z</time></trkpt><trkpt lat="42.53109177870437" lon="11.607466904036146"><ele>147.0</ele><time>2026-03-22T11:00:30.999Z</time></trkpt><trkpt lat="42.531219397458784" lon="11.607542557409861"><ele>149.75</ele><time>2026-03-22T11:00:31.999Z</time></trkpt><trkpt lat="42.531346558230865" lon="11.60764062781449"><ele>152.5</ele><time>2026-03-22T11:00:32.999Z</time></trkpt><trkpt lat="42.53145364481472" lon="11.607774875911359"><ele>155.25</ele><time>2026-03-22T11:00:33.999Z</time></trkpt><trkpt lat="42.53156377485087" lon="11.60791709788613"><ele>158.0</ele><time>2026-03-22T11:00:34.999Z</time></trkpt><trkpt lat="42.531652609034346" lon="11.608066259992494"><ele>158.0</ele><time>2026-03-22T11:00:35.998Z</time></trkpt><trkpt lat="42.53175584134581" lon="11.608190132855267"><ele>158.0</ele><time>2026-03-22T11:00:36.998Z</time></trkpt><trkpt lat="42.53187665464748" lon="11.608300097589288"><ele>158.0</ele><time>2026-03-22T11:00:37.998Z</time></trkpt><trkpt lat="42.53202384416695" lon="11.608373570841334"><ele>158.0</ele><time>2026-03-22T11:00:38.998Z</time></trkpt><trkpt lat="42.53217047467118" lon="11.608412302342153"><ele>158.75</ele><time>2026-03-22T11:00:39.998Z</time></trkpt><trkpt lat="42.53230129319791" lon="11.608434054016337"><ele>159.5</ele><time>2026-03-22T11:00:40.998Z</time></trkpt><trkpt lat="42.532455903139756" lon="11.608462890787422"><ele>160.25</ele><time>2026-03-22T11:00:41.998Z</time></trkpt><trkpt lat="42.532594704149155" lon="11.608464126908636"><ele>161.0</ele><time>2026-03-22T11:00:42.998Z</time></trkpt><trkpt lat="42.53274089941987" lon="11.608491281078335"><ele>160.33333333333331</ele><time>2026-03-22T11:00:43.998Z</time></trkpt><trkpt lat="42.532894492425434" lon="11.608531548122436"><ele>159.66666666666666</ele><time>2026-03-22T11:00:44.998Z</time></trkpt><trkpt lat="42.53304590452288" lon="11.608581115199764"><ele>159.0</ele><time>2026-03-22T11:00:45.998Z</time></trkpt><trkpt lat="42.533208680137314" lon="11.608649420472872"><ele>159.0</ele><time>2026-03-22T11:00:46.998Z</time></trkpt><trkpt lat="42.533381701368" lon="11.608724989434382"><ele>159.0</ele><time>2026-03-22T11:00:47.998Z</time></trkpt><trkpt lat="42.53354064329722" lon="11.60881697630503"><ele>159.0</ele><time>2026-03-22T11:00:48.998Z</time></trkpt><trkpt lat="42.533688500110486" lon="11.608930319033858"><ele>161.0</ele><time>2026-03-22T11:00:49.998Z</time></trkpt><trkpt lat="42.53383214013893" lon="11.609063547099414"><ele>163.0</ele><time>2026-03-22T11:00:50.998Z</time></trkpt><trkpt lat="42.53397175937809" lon="11.60920948456247"><ele>165.0</ele><time>2026-03-22T11:00:51.998Z</time></trkpt><trkpt lat="42.53411578104465" lon="11.609355312140801"><ele>163.33333333333334</ele><time>2026-03-22T11:00:52.998Z</time></trkpt><trkpt lat="42.534260735663345" lon="11.609501581236056"><ele>161.66666666666669</ele><time>2026-03-22T11:00:53.998Z</time></trkpt><trkpt lat="42.53440579919312" lon="11.609654030982462"><ele>160.0</ele><time>2026-03-22T11:00:54.998Z</time></trkpt><trkpt lat="42.53455010153735" lon="11.609805348422814"><ele>161.0</ele><time>2026-03-22T11:00:55.998Z</time></trkpt><trkpt lat="42.5346978610701" lon="11.609962183721551"><ele>162.0</ele><time>2026-03-22T11:00:56.998Z</time></trkpt><trkpt lat="42.53484545001302" lon="11.610113135305372"><ele>163.0</ele><time>2026-03-22T11:00:57.998Z</time></trkpt><trkpt lat="42.53497981777034" lon="11.61025265671296"><ele>162.33333333333334</ele><time>2026-03-22T11:00:58.998Z</time></trkpt><trkpt lat="42.535117118136455" lon="11.610382682957887"><ele>161.66666666666666</ele><time>2026-03-22T11:00:59.998Z</time></trkpt><trkpt lat="42.53523992642427" lon="11.610513011409182"><ele>161.0</ele><time>2026-03-22T11:01:00.998Z</time></trkpt><trkpt lat="42.53533119134185" lon="11.61066645177647"><ele>161.5</ele><time>2026-03-22T11:01:01.998Z</time></trkpt><trkpt lat="42.53538832954891" lon="11.610847668985512"><ele>162.0</ele><time>2026-03-22T11:01:02.998Z</time></trkpt><trkpt lat="42.535395280734136" lon="11.611045669664058"><ele>162.5</ele><time>2026-03-22T11:01:03.998Z</time></trkpt><trkpt lat="42.53534819097814" lon="11.611236074869156"><ele>163.0</ele><time>2026-03-22T11:01:04.998Z</time></trkpt><trkpt lat="42.535258253875696" lon="11.611410259465728"><ele>163.0</ele><time>2026-03-22T11:01:05.998Z</time></trkpt><trkpt lat="42.535168964566836" lon="11.611592646736288"><ele>163.0</ele><time>2026-03-22T11:01:06.998Z</time></trkpt><trkpt lat="42.53508004117341" lon="11.611782455271165"><ele>163.0</ele><time>2026-03-22T11:01:07.998Z</time></trkpt><trkpt lat="42.53499124373876" lon="11.611985220878472"><ele>164.33333333333334</ele><time>2026-03-22T11:01:09Z</time></trkpt><trkpt lat="42.53490194207436" lon="11.612201505775387"><ele>165.66666666666666</ele><time>2026-03-22T11:01:10Z</time></trkpt><trkpt lat="42.534805293220984" lon="11.612418629762473"><ele>167.0</ele><time>2026-03-22T11:01:11Z</time></trkpt><trkpt lat="42.53470593989301" lon="11.612630386208105"><ele>167.66666666666666</ele><time>2026-03-22T11:01:12Z</time></trkpt><trkpt lat="42.534607284119375" lon="11.612843575864515"><ele>168.33333333333334</ele><time>2026-03-22T11:01:13Z</time></trkpt><trkpt lat="42.53450888920723" lon="11.613058974356377"><ele>169.0</ele><time>2026-03-22T11:01:14Z</time></trkpt><trkpt lat="42.53441310262958" lon="11.613273944613352"><ele>168.0</ele><time>2026-03-22T11:01:15Z</time></trkpt><trkpt lat="42.534314880886186" lon="11.613480280840493"><ele>167.0</ele><time>2026-03-22T11:01:16Z</time></trkpt><trkpt lat="42.53422773575262" lon="11.613675631399156"><ele>166.0</ele><time>2026-03-22T11:01:17Z</time></trkpt><trkpt lat="42.53416175176805" lon="11.613883125800314"><ele>166.0</ele><time>2026-03-22T11:01:18Z</time></trkpt><trkpt lat="42.534125020192846" lon="11.614105077714479"><ele>166.0</ele><time>2026-03-22T11:01:19Z</time></trkpt><trkpt lat="42.53411648101861" lon="11.614331846626571"><ele>166.0</ele><time>2026-03-22T11:01:20Z</time></trkpt><trkpt lat="42.534127509213825" lon="11.614561120879177"><ele>167.0</ele><time>2026-03-22T11:01:21Z</time></trkpt><trkpt lat="42.53416458890871" lon="11.614800058235693"><ele>168.0</ele><time>2026-03-22T11:01:22Z</time></trkpt><trkpt lat="42.53421642742119" lon="11.615029749633225"><ele>169.0</ele><time>2026-03-22T11:01:23Z</time></trkpt><trkpt lat="42.53426346754716" lon="11.615270260725273"><ele>170.66666666666669</ele><time>2026-03-22T11:01:24Z</time></trkpt><trkpt lat="42.534302171716355" lon="11.615518113461803"><ele>172.33333333333334</ele><time>2026-03-22T11:01:25Z</time></trkpt><trkpt lat="42.534339802432704" lon="11.615770967000236"><ele>174.0</ele><time>2026-03-22T11:01:26Z</time></trkpt><trkpt lat="42.53437866528931" lon="11.616021072957857"><ele>174.33333333333334</ele><time>2026-03-22T11:01:27Z</time></trkpt><trkpt lat="42.53442017343235" lon="11.61627452616735"><ele>174.66666666666669</ele><time>2026-03-22T11:01:28Z</time></trkpt><trkpt lat="42.53446522307286" lon="11.616528601619251"><ele>175.0</ele><time>2026-03-22T11:01:29Z</time></trkpt><trkpt lat="42.53450771266378" lon="11.616783387838005"><ele>175.33333333333334</ele><time>2026-03-22T11:01:30Z</time></trkpt><trkpt lat="42.5345509671326" lon="11.617037992341151"><ele>175.66666666666666</ele><time>2026-03-22T11:01:31Z</time></trkpt><trkpt lat="42.53459271654654" lon="11.61729218234136"><ele>176.0</ele><time>2026-03-22T11:01:32Z</time></trkpt><trkpt lat="42.534634958113564" lon="11.617557476015811"><ele>177.33333333333331</ele><time>2026-03-22T11:01:33Z</time></trkpt><trkpt lat="42.53467607644516" lon="11.617821651779698"><ele>178.66666666666666</ele><time>2026-03-22T11:01:34Z</time></trkpt><trkpt lat="42.534713952850964" lon="11.618085131849904"><ele>180.0</ele><time>2026-03-22T11:01:35Z</time></trkpt><trkpt lat="42.53475382171539" lon="11.618350720961429"><ele>180.0</ele><time>2026-03-22T11:01:36Z</time></trkpt><trkpt lat="42.53481066602168" lon="11.61862024411158"><ele>180.0</ele><time>2026-03-22T11:01:36.999Z</time></trkpt><trkpt lat="42.534857452971096" lon="11.618894323553768"><ele>180.0</ele><time>2026-03-22T11:01:37.999Z</time></trkpt><trkpt lat="42.53490559651474" lon="11.61916845073088"><ele>179.66666666666666</ele><time>2026-03-22T11:01:38.999Z</time></trkpt><trkpt lat="42.534955557382155" lon="11.6194450032413"><ele>179.33333333333331</ele><time>2026-03-22T11:01:39.999Z</time></trkpt><trkpt lat="42.53500312432502" lon="11.619715902050574"><ele>179.0</ele><time>2026-03-22T11:01:40.999Z</time></trkpt><trkpt lat="42.535050975362495" lon="11.619991085018617"><ele>179.0</ele><time>2026-03-22T11:01:41.999Z</time></trkpt><trkpt lat="42.53509949170141" lon="11.62026890572104"><ele>179.0</ele><time>2026-03-22T11:01:42.999Z</time></trkpt><trkpt lat="42.535146463512476" lon="11.620543940198274"><ele>179.0</ele><time>2026-03-22T11:01:43.999Z</time></trkpt><trkpt lat="42.535191210341644" lon="11.620821461761123"><ele>179.0</ele><time>2026-03-22T11:01:44.999Z</time></trkpt><trkpt lat="42.535234792344305" lon="11.621097874539116"><ele>179.0</ele><time>2026-03-22T11:01:45.999Z</time></trkpt><trkpt lat="42.53528206651205" lon="11.621372678355902"><ele>179.0</ele><time>2026-03-22T11:01:46.999Z</time></trkpt><trkpt lat="42.5353304483388" lon="11.621641640149338"><ele>179.33333333333331</ele><time>2026-03-22T11:01:47.999Z</time></trkpt><trkpt lat="42.535379811594055" lon="11.621912201938116"><ele>179.66666666666666</ele><time>2026-03-22T11:01:48.999Z</time></trkpt><trkpt lat="42.53543050780861" lon="11.62217633936939"><ele>180.0</ele><time>2026-03-22T11:01:49.999Z</time></trkpt><trkpt lat="42.53550388098163" lon="11.622423716632087"><ele>181.66666666666666</ele><time>2026-03-22T11:01:50.999Z</time></trkpt><trkpt lat="42.53559651056976" lon="11.622660405597975"><ele>183.33333333333331</ele><time>2026-03-22T11:01:51.999Z</time></trkpt><trkpt lat="42.53570406182329" lon="11.622886530497297"><ele>185.0</ele><time>2026-03-22T11:01:52.999Z</time></trkpt><trkpt lat="42.53581396381714" lon="11.623100805315842"><ele>185.33333333333331</ele><time>2026-03-22T11:01:53.999Z</time></trkpt><trkpt lat="42.5359256567162" lon="11.623316671957198"><ele>185.66666666666666</ele><time>2026-03-22T11:01:54.999Z</time></trkpt><trkpt lat="42.53604108864695" lon="11.623537317518865"><ele>186.0</ele><time>2026-03-22T11:01:55.999Z</time></trkpt><trkpt lat="42.53615920797813" lon="11.623756594510219"><ele>186.66666666666666</ele><time>2026-03-22T11:01:56.999Z</time></trkpt><trkpt lat="42.536277832969716" lon="11.623977458442857"><ele>187.33333333333331</ele><time>2026-03-22T11:01:57.999Z</time></trkpt><trkpt lat="42.53639535800111" lon="11.624199519855992"><ele>188.0</ele><time>2026-03-22T11:01:58.999Z</time></trkpt><trkpt lat="42.53651290159661" lon="11.624425488866265"><ele>187.66666666666666</ele><time>2026-03-22T11:01:59.999Z</time></trkpt><trkpt lat="42.536632284713185" lon="11.624651670401045"><ele>187.33333333333334</ele><time>2026-03-22T11:02:00.999Z</time></trkpt><trkpt lat="42.53675442000941" lon="11.6248802100305"><ele>187.0</ele><time>2026-03-22T11:02:01.999Z</time></trkpt><trkpt lat="42.53687237644133" lon="11.625113712125028"><ele>188.0</ele><time>2026-03-22T11:02:02.999Z</time></trkpt><trkpt lat="42.53698828208477" lon="11.62534896301403"><ele>189.0</ele><time>2026-03-22T11:02:03.999Z</time></trkpt><trkpt lat="42.53710445202891" lon="11.62558291577557"><ele>190.0</ele><time>2026-03-22T11:02:04.999Z</time></trkpt><trkpt lat="42.53722113060117" lon="11.625819362266414"><ele>190.0</ele><time>2026-03-22T11:02:05.999Z</time></trkpt><trkpt lat="42.53733984815764" lon="11.626052339982365"><ele>190.0</ele><time>2026-03-22T11:02:06.999Z</time></trkpt><trkpt lat="42.537460859286504" lon="11.626284199463546"><ele>190.0</ele><time>2026-03-22T11:02:07.999Z</time></trkpt><trkpt lat="42.537562470724744" lon="11.626531647532444"><ele>190.0</ele><time>2026-03-22T11:02:08.999Z</time></trkpt><trkpt lat="42.53768274639585" lon="11.62676093862736"><ele>190.0</ele><time>2026-03-22T11:02:09.999Z</time></trkpt><trkpt lat="42.53780199366265" lon="11.626994116860534"><ele>190.0</ele><time>2026-03-22T11:02:10.999Z</time></trkpt><trkpt lat="42.53792281481191" lon="11.627230371937312"><ele>190.0</ele><time>2026-03-22T11:02:11.999Z</time></trkpt><trkpt lat="42.538044189639756" lon="11.627467710154907"><ele>190.0</ele><time>2026-03-22T11:02:12.999Z</time></trkpt><trkpt lat="42.53816610147765" lon="11.627706098434901"><ele>190.0</ele><time>2026-03-22T11:02:13.999Z</time></trkpt><trkpt lat="42.53829047070825" lon="11.62794561474396"><ele>189.33333333333334</ele><time>2026-03-22T11:02:14.999Z</time></trkpt><trkpt lat="42.53841583155755" lon="11.628186757251017"><ele>188.66666666666666</ele><time>2026-03-22T11:02:15.999Z</time></trkpt><trkpt lat="42.53854042331149" lon="11.628428793250182"><ele>188.0</ele><time>2026-03-22T11:02:16.999Z</time></trkpt><trkpt lat="42.53866486053077" lon="11.628671902435647"><ele>188.66666666666666</ele><time>2026-03-22T11:02:17.999Z</time></trkpt><trkpt lat="42.53878879556001" lon="11.628914896714159"><ele>189.33333333333334</ele><time>2026-03-22T11:02:18.999Z</time></trkpt><trkpt lat="42.538922130397246" lon="11.62914897160697"><ele>190.0</ele><time>2026-03-22T11:02:19.999Z</time></trkpt><trkpt lat="42.53904614077169" lon="11.629392348448214"><ele>190.0</ele><time>2026-03-22T11:02:20.999Z</time></trkpt><trkpt lat="42.53917039973362" lon="11.629630933109038"><ele>190.0</ele><time>2026-03-22T11:02:21.999Z</time></trkpt><trkpt lat="42.539280990376504" lon="11.629883896325639"><ele>190.0</ele><time>2026-03-22T11:02:22.999Z</time></trkpt><trkpt lat="42.539402405150426" lon="11.630122929505825"><ele>190.0</ele><time>2026-03-22T11:02:23.999Z</time></trkpt><trkpt lat="42.539539057814544" lon="11.630347960009093"><ele>190.0</ele><time>2026-03-22T11:02:24.999Z</time></trkpt><trkpt lat="42.53965484505993" lon="11.63059210895858"><ele>190.0</ele><time>2026-03-22T11:02:25.999Z</time></trkpt><trkpt lat="42.53977608880954" lon="11.630823167724943"><ele>191.0</ele><time>2026-03-22T11:02:26.999Z</time></trkpt><trkpt lat="42.53989655979823" lon="11.631057621847697"><ele>192.0</ele><time>2026-03-22T11:02:27.999Z</time></trkpt><trkpt lat="42.540020511011846" lon="11.631286689817701"><ele>193.0</ele><time>2026-03-22T11:02:28.999Z</time></trkpt><trkpt lat="42.54013906873218" lon="11.631518580378735"><ele>193.66666666666666</ele><time>2026-03-22T11:02:29.999Z</time></trkpt><trkpt lat="42.540255994536906" lon="11.63175065339585"><ele>194.33333333333331</ele><time>2026-03-22T11:02:30.999Z</time></trkpt><trkpt lat="42.540373490855636" lon="11.631978346460135"><ele>195.0</ele><time>2026-03-22T11:02:31.999Z</time></trkpt><trkpt lat="42.54049142674965" lon="11.63220827239068"><ele>196.33333333333331</ele><time>2026-03-22T11:02:32.999Z</time></trkpt><trkpt lat="42.54060880464328" lon="11.632435220049244"><ele>197.66666666666666</ele><time>2026-03-22T11:02:33.999Z</time></trkpt><trkpt lat="42.5407153432186" lon="11.632676305447312"><ele>199.0</ele><time>2026-03-22T11:02:34.999Z</time></trkpt><trkpt lat="42.54084566937732" lon="11.632890275144087"><ele>200.0</ele><time>2026-03-22T11:02:35.999Z</time></trkpt><trkpt lat="42.540964914933156" lon="11.633118489122296"><ele>201.0</ele><time>2026-03-22T11:02:36.999Z</time></trkpt><trkpt lat="42.541078042124504" lon="11.633354410682726"><ele>202.0</ele><time>2026-03-22T11:02:37.999Z</time></trkpt><trkpt lat="42.541195729628285" lon="11.633583041314987"><ele>202.0</ele><time>2026-03-22T11:02:38.999Z</time></trkpt><trkpt lat="42.541314416114155" lon="11.633813383570843"><ele>202.0</ele><time>2026-03-22T11:02:39.998Z</time></trkpt><trkpt lat="42.5414346344956" lon="11.63404061845723"><ele>202.0</ele><time>2026-03-22T11:02:40.998Z</time></trkpt><trkpt lat="42.54153517811252" lon="11.634274935231316"><ele>202.0</ele><time>2026-03-22T11:02:41.998Z</time></trkpt><trkpt lat="42.54165242932825" lon="11.634499990235696"><ele>202.0</ele><time>2026-03-22T11:02:42.998Z</time></trkpt><trkpt lat="42.54177133861515" lon="11.634728245504402"><ele>202.0</ele><time>2026-03-22T11:02:43.998Z</time></trkpt><trkpt lat="42.54189476830329" lon="11.63496539905725"><ele>202.0</ele><time>2026-03-22T11:02:44.998Z</time></trkpt><trkpt lat="42.542016560683486" lon="11.635200651387214"><ele>202.0</ele><time>2026-03-22T11:02:45.998Z</time></trkpt><trkpt lat="42.54213964676484" lon="11.635421907819023"><ele>202.0</ele><time>2026-03-22T11:02:46.998Z</time></trkpt><trkpt lat="42.542241196018765" lon="11.635653963608062"><ele>203.66666666666666</ele><time>2026-03-22T11:02:47.998Z</time></trkpt><trkpt lat="42.542322181576175" lon="11.635908019751957"><ele>205.33333333333331</ele><time>2026-03-22T11:02:48.998Z</time></trkpt><trkpt lat="42.542376836373435" lon="11.63615820126961"><ele>207.0</ele><time>2026-03-22T11:02:49.998Z</time></trkpt><trkpt lat="42.542410353231844" lon="11.63643075698113"><ele>207.0</ele><time>2026-03-22T11:02:50.998Z</time></trkpt><trkpt lat="42.54246403689874" lon="11.636701237643791"><ele>207.0</ele><time>2026-03-22T11:02:51.998Z</time></trkpt><trkpt lat="42.5424936342202" lon="11.636986346364619"><ele>207.0</ele><time>2026-03-22T11:02:52.998Z</time></trkpt><trkpt lat="42.54253275745578" lon="11.637270477838284"><ele>206.5</ele><time>2026-03-22T11:02:53.998Z</time></trkpt><trkpt lat="42.542576471929976" lon="11.63756958588268"><ele>206.0</ele><time>2026-03-22T11:02:54.998Z</time></trkpt><trkpt lat="42.54259698806778" lon="11.637880219177134"><ele>206.0</ele><time>2026-03-22T11:02:55.998Z</time></trkpt><trkpt lat="42.54263057998651" lon="11.638179154786092"><ele>206.0</ele><time>2026-03-22T11:02:56.998Z</time></trkpt><trkpt lat="42.54266444942883" lon="11.638480560101724"><ele>206.0</ele><time>2026-03-22T11:02:57.998Z</time></trkpt><trkpt lat="42.5426997121577" lon="11.638784735174147"><ele>205.5</ele><time>2026-03-22T11:02:58.998Z</time></trkpt><trkpt lat="42.54275840839766" lon="11.639083895732584"><ele>205.0</ele><time>2026-03-22T11:02:59.998Z</time></trkpt><trkpt lat="42.5428033973369" lon="11.63939093188791"><ele>204.5</ele><time>2026-03-22T11:03:00.998Z</time></trkpt><trkpt lat="42.54284626010058" lon="11.639698452031102"><ele>204.0</ele><time>2026-03-22T11:03:01.998Z</time></trkpt><trkpt lat="42.54288645920366" lon="11.640007993629697"><ele>204.0</ele><time>2026-03-22T11:03:02.998Z</time></trkpt><trkpt lat="42.54292711366627" lon="11.640320124663733"><ele>204.0</ele><time>2026-03-22T11:03:03.998Z</time></trkpt><trkpt lat="42.54297075892212" lon="11.640631154659301"><ele>204.0</ele><time>2026-03-22T11:03:04.998Z</time></trkpt><trkpt lat="42.54301316506623" lon="11.640943462050764"><ele>204.0</ele><time>2026-03-22T11:03:05.998Z</time></trkpt><trkpt lat="42.5430501375865" lon="11.64125776171829"><ele>204.0</ele><time>2026-03-22T11:03:06.998Z</time></trkpt><trkpt lat="42.54308436383101" lon="11.641572491766578"><ele>204.0</ele><time>2026-03-22T11:03:07.998Z</time></trkpt><trkpt lat="42.54312228073359" lon="11.641886099138183"><ele>207.0</ele><time>2026-03-22T11:03:08.998Z</time></trkpt><trkpt lat="42.54316213230692" lon="11.642194596472383"><ele>210.0</ele><time>2026-03-22T11:03:09.998Z</time></trkpt><trkpt lat="42.54320328314876" lon="11.642502769542755"><ele>210.0</ele><time>2026-03-22T11:03:10.998Z</time></trkpt><trkpt lat="42.543247728353755" lon="11.642807667761666"><ele>210.0</ele><time>2026-03-22T11:03:11.998Z</time></trkpt><trkpt lat="42.54329048746192" lon="11.64311498926496"><ele>210.0</ele><time>2026-03-22T11:03:12.998Z</time></trkpt><trkpt lat="42.543331082426626" lon="11.64342188087804"><ele>210.0</ele><time>2026-03-22T11:03:13.998Z</time></trkpt><trkpt lat="42.543370047822606" lon="11.643727169914243"><ele>210.0</ele><time>2026-03-22T11:03:15Z</time></trkpt><trkpt lat="42.543409285290934" lon="11.644031489427155"><ele>210.0</ele><time>2026-03-22T11:03:16Z</time></trkpt><trkpt lat="42.5434478754035" lon="11.644327871069342"><ele>210.0</ele><time>2026-03-22T11:03:17Z</time></trkpt><trkpt lat="42.543491617470586" lon="11.64462187430517"><ele>210.0</ele><time>2026-03-22T11:03:18Z</time></trkpt><trkpt lat="42.54353253692707" lon="11.644919502503278"><ele>210.0</ele><time>2026-03-22T11:03:19Z</time></trkpt><trkpt lat="42.54357254100762" lon="11.645215257270333"><ele>210.0</ele><time>2026-03-22T11:03:20Z</time></trkpt><trkpt lat="42.54361552896107" lon="11.645511745131019"><ele>210.33333333333331</ele><time>2026-03-22T11:03:21Z</time></trkpt><trkpt lat="42.54365617697721" lon="11.645810193143847"><ele>210.66666666666666</ele><time>2026-03-22T11:03:22Z</time></trkpt><trkpt lat="42.54369337218221" lon="11.646107948008142"><ele>211.0</ele><time>2026-03-22T11:03:23Z</time></trkpt><trkpt lat="42.543728800719734" lon="11.646404337688587"><ele>211.66666666666666</ele><time>2026-03-22T11:03:24Z</time></trkpt><trkpt lat="42.543764291618906" lon="11.646697416626703"><ele>212.33333333333331</ele><time>2026-03-22T11:03:25Z</time></trkpt><trkpt lat="42.54380402176911" lon="11.64699047123301"><ele>213.0</ele><time>2026-03-22T11:03:26Z</time></trkpt><trkpt lat="42.54383930544179" lon="11.647281174795511"><ele>213.33333333333331</ele><time>2026-03-22T11:03:27Z</time></trkpt><trkpt lat="42.54387727570662" lon="11.647572111464452"><ele>213.66666666666666</ele><time>2026-03-22T11:03:28Z</time></trkpt><trkpt lat="42.54391762442409" lon="11.647863249631618"><ele>214.0</ele><time>2026-03-22T11:03:29Z</time></trkpt><trkpt lat="42.543962317411705" lon="11.648148725697713"><ele>215.0</ele><time>2026-03-22T11:03:30Z</time></trkpt><trkpt lat="42.54400244115694" lon="11.64843726054333"><ele>216.0</ele><time>2026-03-22T11:03:31Z</time></trkpt><trkpt lat="42.54403895571389" lon="11.648728989782912"><ele>217.0</ele><time>2026-03-22T11:03:32Z</time></trkpt><trkpt lat="42.54407641697181" lon="11.649019622987774"><ele>218.0</ele><time>2026-03-22T11:03:33Z</time></trkpt><trkpt lat="42.5441125823971" lon="11.649317444277957"><ele>219.0</ele><time>2026-03-22T11:03:34Z</time></trkpt><trkpt lat="42.54414609317964" lon="11.64961137243926"><ele>220.0</ele><time>2026-03-22T11:03:35Z</time></trkpt><trkpt lat="42.54418050019866" lon="11.649906886045729"><ele>221.33333333333331</ele><time>2026-03-22T11:03:36Z</time></trkpt><trkpt lat="42.544213852942754" lon="11.650199183775275"><ele>222.66666666666669</ele><time>2026-03-22T11:03:37Z</time></trkpt><trkpt lat="42.54425078013629" lon="11.650482761538917"><ele>224.0</ele><time>2026-03-22T11:03:38Z</time></trkpt><trkpt lat="42.54428865503818" lon="11.650762512809218"><ele>224.33333333333334</ele><time>2026-03-22T11:03:39Z</time></trkpt><trkpt lat="42.5443271644423" lon="11.651035134684474"><ele>224.66666666666669</ele><time>2026-03-22T11:03:40Z</time></trkpt><trkpt lat="42.54436555687599" lon="11.651303511054987"><ele>225.0</ele><time>2026-03-22T11:03:41Z</time></trkpt><trkpt lat="42.544396426432044" lon="11.65154590185501"><ele>225.0</ele><time>2026-03-22T11:03:42Z</time></trkpt><trkpt lat="42.54442184761246" lon="11.651762836240732"><ele>225.0</ele><time>2026-03-22T11:03:43Z</time></trkpt><trkpt lat="42.5444418271272" lon="11.65196518634725"><ele>225.0</ele><time>2026-03-22T11:03:44Z</time></trkpt><trkpt lat="42.54445006614009" lon="11.652133124379807"><ele>225.0</ele><time>2026-03-22T11:03:45Z</time></trkpt><trkpt lat="42.54443792030708" lon="11.652271757425082"><ele>225.0</ele><time>2026-03-22T11:03:46Z</time></trkpt><trkpt lat="42.54440540950689" lon="11.65238415216228"><ele>225.0</ele><time>2026-03-22T11:03:47Z</time></trkpt><trkpt lat="42.54435629233078" lon="11.65250053683969"><ele>225.0</ele><time>2026-03-22T11:03:48Z</time></trkpt><trkpt lat="42.54428220608565" lon="11.65261832840582"><ele>225.0</ele><time>2026-03-22T11:03:49Z</time></trkpt><trkpt lat="42.54419969609487" lon="11.65274967898617"><ele>225.0</ele><time>2026-03-22T11:03:50Z</time></trkpt><trkpt lat="42.544104550254474" lon="11.652873347245706"><ele>225.75</ele><time>2026-03-22T11:03:51Z</time></trkpt><trkpt lat="42.544003834028715" lon="11.65298793187817"><ele>226.5</ele><time>2026-03-22T11:03:52Z</time></trkpt><trkpt lat="42.543909133933305" lon="11.653138658943986"><ele>227.25</ele><time>2026-03-22T11:03:52.999Z</time></trkpt><trkpt lat="42.54382919736952" lon="11.653298142964026"><ele>228.0</ele><time>2026-03-22T11:03:53.999Z</time></trkpt><trkpt lat="42.54376934114417" lon="11.653479659230825"><ele>228.66666666666669</ele><time>2026-03-22T11:03:54.999Z</time></trkpt><trkpt lat="42.5437195080103" lon="11.653675640275583"><ele>229.33333333333334</ele><time>2026-03-22T11:03:55.999Z</time></trkpt><trkpt lat="42.5436736418608" lon="11.653875821743942"><ele>230.0</ele><time>2026-03-22T11:03:56.999Z</time></trkpt><trkpt lat="42.543631191760674" lon="11.6540780965263"><ele>230.0</ele><time>2026-03-22T11:03:57.999Z</time></trkpt><trkpt lat="42.54358934877946" lon="11.654281475317092"><ele>230.0</ele><time>2026-03-22T11:03:58.999Z</time></trkpt><trkpt lat="42.54354766303692" lon="11.654472498489927"><ele>230.0</ele><time>2026-03-22T11:03:59.999Z</time></trkpt><trkpt lat="42.5435143254573" lon="11.654648635861896"><ele>230.0</ele><time>2026-03-22T11:04:00.999Z</time></trkpt><trkpt lat="42.543486020626816" lon="11.654818046307943"><ele>231.25</ele><time>2026-03-22T11:04:01.999Z</time></trkpt><trkpt lat="42.5434624917443" lon="11.654984229876229"><ele>232.5</ele><time>2026-03-22T11:04:02.999Z</time></trkpt><trkpt lat="42.54344269371642" lon="11.655154580574445"><ele>233.75</ele><time>2026-03-22T11:04:03.999Z</time></trkpt><trkpt lat="42.54344418258565" lon="11.655325568298215"><ele>235.0</ele><time>2026-03-22T11:04:04.999Z</time></trkpt><trkpt lat="42.54347223030484" lon="11.65550530453266"><ele>236.0</ele><time>2026-03-22T11:04:05.999Z</time></trkpt><trkpt lat="42.54350962613555" lon="11.655695536034408"><ele>237.0</ele><time>2026-03-22T11:04:06.999Z</time></trkpt><trkpt lat="42.543576232990056" lon="11.655872120705311"><ele>238.0</ele><time>2026-03-22T11:04:07.999Z</time></trkpt><trkpt lat="42.54366412171922" lon="11.656044100879882"><ele>239.0</ele><time>2026-03-22T11:04:08.999Z</time></trkpt><trkpt lat="42.54372841700385" lon="11.656235705886573"><ele>239.66666666666669</ele><time>2026-03-22T11:04:09.999Z</time></trkpt><trkpt lat="42.543808015149956" lon="11.656423051371624"><ele>240.33333333333331</ele><time>2026-03-22T11:04:10.999Z</time></trkpt><trkpt lat="42.5438907745395" lon="11.656619199941304"><ele>241.0</ele><time>2026-03-22T11:04:11.999Z</time></trkpt><trkpt lat="42.543987545501054" lon="11.65680379502895"><ele>240.33333333333331</ele><time>2026-03-22T11:04:12.999Z</time></trkpt><trkpt lat="42.54407252172556" lon="11.657007900501524"><ele>239.66666666666669</ele><time>2026-03-22T11:04:13.999Z</time></trkpt><trkpt lat="42.544154553218625" lon="11.657211679679259"><ele>239.0</ele><time>2026-03-22T11:04:14.999Z</time></trkpt><trkpt lat="42.54425184774779" lon="11.65744063521578"><ele>239.0</ele><time>2026-03-22T11:04:15.999Z</time></trkpt><trkpt lat="42.54434639892211" lon="11.65766521944621"><ele>239.0</ele><time>2026-03-22T11:04:16.999Z</time></trkpt><trkpt lat="42.54444155933474" lon="11.657894570705734"><ele>239.0</ele><time>2026-03-22T11:04:17.999Z</time></trkpt><trkpt lat="42.54453905108227" lon="11.658125050873362"><ele>240.33333333333334</ele><time>2026-03-22T11:04:18.999Z</time></trkpt><trkpt lat="42.54463903673459" lon="11.658361417405708"><ele>241.66666666666669</ele><time>2026-03-22T11:04:19.999Z</time></trkpt><trkpt lat="42.544739696463" lon="11.658598879765988"><ele>243.0</ele><time>2026-03-22T11:04:20.999Z</time></trkpt><trkpt lat="42.54483872628618" lon="11.658831389691853"><ele>243.33333333333331</ele><time>2026-03-22T11:04:21.999Z</time></trkpt><trkpt lat="42.54493529889068" lon="11.659058384966496"><ele>243.66666666666666</ele><time>2026-03-22T11:04:22.999Z</time></trkpt><trkpt lat="42.54503230748929" lon="11.659284022669855"><ele>244.0</ele><time>2026-03-22T11:04:23.999Z</time></trkpt><trkpt lat="42.545116019061275" lon="11.659524022736086"><ele>244.0</ele><time>2026-03-22T11:04:24.999Z</time></trkpt><trkpt lat="42.54521207368255" lon="11.659751267934015"><ele>244.0</ele><time>2026-03-22T11:04:25.999Z</time></trkpt><trkpt lat="42.54530826836851" lon="11.659978844502291"><ele>244.0</ele><time>2026-03-22T11:04:26.999Z</time></trkpt><trkpt lat="42.54540058839517" lon="11.66019778061396"><ele>246.33333333333331</ele><time>2026-03-22T11:04:27.999Z</time></trkpt><trkpt lat="42.545491712869776" lon="11.660414691844382"><ele>248.66666666666669</ele><time>2026-03-22T11:04:28.999Z</time></trkpt><trkpt lat="42.54558201564901" lon="11.660631375069363"><ele>251.0</ele><time>2026-03-22T11:04:29.999Z</time></trkpt><trkpt lat="42.54566930071279" lon="11.660845217326814"><ele>251.0</ele><time>2026-03-22T11:04:30.999Z</time></trkpt><trkpt lat="42.54574998862344" lon="11.661042896996232"><ele>251.0</ele><time>2026-03-22T11:04:31.999Z</time></trkpt><trkpt lat="42.545828011135185" lon="11.661234046644498"><ele>251.0</ele><time>2026-03-22T11:04:32.999Z</time></trkpt><trkpt lat="42.54589809300451" lon="11.661418393619096"><ele>249.66666666666669</ele><time>2026-03-22T11:04:33.999Z</time></trkpt><trkpt lat="42.54596201773364" lon="11.661605449242053"><ele>248.33333333333331</ele><time>2026-03-22T11:04:34.999Z</time></trkpt><trkpt lat="42.54599143245319" lon="11.661817645803726"><ele>247.0</ele><time>2026-03-22T11:04:35.999Z</time></trkpt><trkpt lat="42.545989538410346" lon="11.662042959114007"><ele>246.66666666666666</ele><time>2026-03-22T11:04:36.999Z</time></trkpt><trkpt lat="42.54595660251223" lon="11.662258952307408"><ele>246.33333333333331</ele><time>2026-03-22T11:04:37.999Z</time></trkpt><trkpt lat="42.545933391601054" lon="11.66249191193596"><ele>246.0</ele><time>2026-03-22T11:04:38.999Z</time></trkpt><trkpt lat="42.545912805525056" lon="11.662735395395094"><ele>247.0</ele><time>2026-03-22T11:04:39.999Z</time></trkpt><trkpt lat="42.545906846558594" lon="11.662975860083288"><ele>248.0</ele><time>2026-03-22T11:04:40.999Z</time></trkpt><trkpt lat="42.54593341348144" lon="11.663209712483315"><ele>249.0</ele><time>2026-03-22T11:04:41.999Z</time></trkpt><trkpt lat="42.54596313738288" lon="11.663457895695021"><ele>248.66666666666669</ele><time>2026-03-22T11:04:42.999Z</time></trkpt><trkpt lat="42.545989147167695" lon="11.663706618299399"><ele>248.33333333333334</ele><time>2026-03-22T11:04:43.999Z</time></trkpt><trkpt lat="42.54601832188661" lon="11.66395807726911"><ele>248.0</ele><time>2026-03-22T11:04:44.999Z</time></trkpt><trkpt lat="42.54606074268572" lon="11.664213408769559"><ele>246.33333333333334</ele><time>2026-03-22T11:04:45.999Z</time></trkpt><trkpt lat="42.54609647349195" lon="11.664447822031558"><ele>244.66666666666669</ele><time>2026-03-22T11:04:46.999Z</time></trkpt><trkpt lat="42.54611416287065" lon="11.664656652320168"><ele>243.0</ele><time>2026-03-22T11:04:47.999Z</time></trkpt><trkpt lat="42.54612247448763" lon="11.664880311188046"><ele>243.0</ele><time>2026-03-22T11:04:48.999Z</time></trkpt><trkpt lat="42.546109042010336" lon="11.665102956589015"><ele>243.0</ele><time>2026-03-22T11:04:49.999Z</time></trkpt><trkpt lat="42.54606806489769" lon="11.665310687604768"><ele>243.0</ele><time>2026-03-22T11:04:50.999Z</time></trkpt><trkpt lat="42.54602416206519" lon="11.665526336287073"><ele>244.0</ele><time>2026-03-22T11:04:51.999Z</time></trkpt><trkpt lat="42.5459728211048" lon="11.66577312099676"><ele>245.0</ele><time>2026-03-22T11:04:52.999Z</time></trkpt><trkpt lat="42.54592164338288" lon="11.666019104301757"><ele>246.0</ele><time>2026-03-22T11:04:53.999Z</time></trkpt><trkpt lat="42.545871731846525" lon="11.666259507533937"><ele>247.0</ele><time>2026-03-22T11:04:54.999Z</time></trkpt><trkpt lat="42.54581912423238" lon="11.66651307055839"><ele>248.0</ele><time>2026-03-22T11:04:55.999Z</time></trkpt><trkpt lat="42.54576452868502" lon="11.66678107733246"><ele>249.0</ele><time>2026-03-22T11:04:56.998Z</time></trkpt><trkpt lat="42.54572419069101" lon="11.66704875799083"><ele>249.33333333333331</ele><time>2026-03-22T11:04:57.998Z</time></trkpt><trkpt lat="42.54570278001907" lon="11.667330954619029"><ele>249.66666666666666</ele><time>2026-03-22T11:04:58.998Z</time></trkpt><trkpt lat="42.54568948460746" lon="11.66759881658586"><ele>250.0</ele><time>2026-03-22T11:04:59.998Z</time></trkpt><trkpt lat="42.54567537709179" lon="11.667869484812455"><ele>248.66666666666666</ele><time>2026-03-22T11:05:00.998Z</time></trkpt><trkpt lat="42.545659497987835" lon="11.668138080582137"><ele>247.33333333333331</ele><time>2026-03-22T11:05:01.998Z</time></trkpt><trkpt lat="42.54564340492724" lon="11.668420208026621"><ele>246.0</ele><time>2026-03-22T11:05:02.998Z</time></trkpt><trkpt lat="42.54562842693142" lon="11.668697395726934"><ele>246.0</ele><time>2026-03-22T11:05:03.998Z</time></trkpt><trkpt lat="42.54561229625764" lon="11.668990211837647"><ele>246.0</ele><time>2026-03-22T11:05:04.998Z</time></trkpt><trkpt lat="42.54559638153618" lon="11.66927464516945"><ele>246.0</ele><time>2026-03-22T11:05:05.998Z</time></trkpt><trkpt lat="42.545581117011984" lon="11.669543673227821"><ele>248.33333333333331</ele><time>2026-03-22T11:05:06.998Z</time></trkpt><trkpt lat="42.54556616242976" lon="11.669789019550667"><ele>250.66666666666666</ele><time>2026-03-22T11:05:07.998Z</time></trkpt><trkpt lat="42.54554062300766" lon="11.670023886282577"><ele>253.0</ele><time>2026-03-22T11:05:08.998Z</time></trkpt><trkpt lat="42.54549539235661" lon="11.670255152658106"><ele>252.33333333333331</ele><time>2026-03-22T11:05:09.998Z</time></trkpt><trkpt lat="42.54540597944114" lon="11.670451999531014"><ele>251.66666666666669</ele><time>2026-03-22T11:05:10.998Z</time></trkpt><trkpt lat="42.54528903440871" lon="11.670634300410807"><ele>251.0</ele><time>2026-03-22T11:05:11.998Z</time></trkpt><trkpt lat="42.54514280787241" lon="11.670809232400062"><ele>251.0</ele><time>2026-03-22T11:05:12.998Z</time></trkpt><trkpt lat="42.54499945871801" lon="11.670984785174644"><ele>251.0</ele><time>2026-03-22T11:05:13.998Z</time></trkpt><trkpt lat="42.5448641001973" lon="11.671172896415834"><ele>251.0</ele><time>2026-03-22T11:05:14.998Z</time></trkpt><trkpt lat="42.54473069666553" lon="11.671366812680885"><ele>251.66666666666669</ele><time>2026-03-22T11:05:15.998Z</time></trkpt><trkpt lat="42.54459411436834" lon="11.671571304422072"><ele>252.33333333333331</ele><time>2026-03-22T11:05:16.998Z</time></trkpt><trkpt lat="42.54445318020554" lon="11.671769418484393"><ele>253.0</ele><time>2026-03-22T11:05:17.998Z</time></trkpt><trkpt lat="42.544307127046196" lon="11.671962126578576"><ele>255.66666666666666</ele><time>2026-03-22T11:05:18.998Z</time></trkpt><trkpt lat="42.54416315604294" lon="11.672155075711974"><ele>258.3333333333333</ele><time>2026-03-22T11:05:19.998Z</time></trkpt><trkpt lat="42.544021995446265" lon="11.67234801913798"><ele>261.0</ele><time>2026-03-22T11:05:21Z</time></trkpt><trkpt lat="42.54388119021965" lon="11.67253606381434"><ele>261.0</ele><time>2026-03-22T11:05:22Z</time></trkpt><trkpt lat="42.54374201757157" lon="11.672720674137505"><ele>261.0</ele><time>2026-03-22T11:05:23Z</time></trkpt><trkpt lat="42.543605400229055" lon="11.672897021309566"><ele>261.0</ele><time>2026-03-22T11:05:24Z</time></trkpt><trkpt lat="42.543478625755625" lon="11.6730679735077"><ele>260.6666666666667</ele><time>2026-03-22T11:05:25Z</time></trkpt><trkpt lat="42.54335462284208" lon="11.673226545422887"><ele>260.33333333333337</ele><time>2026-03-22T11:05:26Z</time></trkpt><trkpt lat="42.54326830842107" lon="11.673426303695026"><ele>260.0</ele><time>2026-03-22T11:05:27Z</time></trkpt><trkpt lat="42.54322691715551" lon="11.673649106166305"><ele>259.0</ele><time>2026-03-22T11:05:28Z</time></trkpt><trkpt lat="42.54320681437056" lon="11.673885943108246"><ele>258.0</ele><time>2026-03-22T11:05:29Z</time></trkpt><trkpt lat="42.54321133959174" lon="11.674140807561166"><ele>257.0</ele><time>2026-03-22T11:05:30Z</time></trkpt><trkpt lat="42.543195246585505" lon="11.67440220149205"><ele>256.6666666666667</ele><time>2026-03-22T11:05:31Z</time></trkpt><trkpt lat="42.543195246585185" lon="11.674668571444919"><ele>256.3333333333333</ele><time>2026-03-22T11:05:32Z</time></trkpt><trkpt lat="42.54319524658467" lon="11.674942614317747"><ele>256.0</ele><time>2026-03-22T11:05:33Z</time></trkpt><trkpt lat="42.54319524658392" lon="11.675215945533553"><ele>255.33333333333331</ele><time>2026-03-22T11:05:34Z</time></trkpt><trkpt lat="42.543195246582805" lon="11.675492132262077"><ele>254.66666666666669</ele><time>2026-03-22T11:05:35Z</time></trkpt><trkpt lat="42.54319488076063" lon="11.675768545834488"><ele>254.0</ele><time>2026-03-22T11:05:36Z</time></trkpt><trkpt lat="42.543194503694856" lon="11.676048251943495"><ele>256.0</ele><time>2026-03-22T11:05:37Z</time></trkpt><trkpt lat="42.54319385770639" lon="11.676330384950647"><ele>258.0</ele><time>2026-03-22T11:05:38Z</time></trkpt><trkpt lat="42.543192658053876" lon="11.676612502900808"><ele>260.0</ele><time>2026-03-22T11:05:39Z</time></trkpt><trkpt lat="42.54319147479067" lon="11.676890766663599"><ele>260.6666666666667</ele><time>2026-03-22T11:05:40Z</time></trkpt><trkpt lat="42.54319173320262" lon="11.677165122541608"><ele>261.3333333333333</ele><time>2026-03-22T11:05:41Z</time></trkpt><trkpt lat="42.54319217148586" lon="11.677431705690896"><ele>262.0</ele><time>2026-03-22T11:05:42Z</time></trkpt><trkpt lat="42.5431915808828" lon="11.677698656723749"><ele>260.3333333333333</ele><time>2026-03-22T11:05:43Z</time></trkpt><trkpt lat="42.54320358239224" lon="11.677961356284376"><ele>258.6666666666667</ele><time>2026-03-22T11:05:44Z</time></trkpt><trkpt lat="42.54319247277419" lon="11.678221084870817"><ele>257.0</ele><time>2026-03-22T11:05:45Z</time></trkpt><trkpt lat="42.54316972202323" lon="11.678475729051879"><ele>256.0</ele><time>2026-03-22T11:05:46Z</time></trkpt><trkpt lat="42.54313685615343" lon="11.678729192812519"><ele>255.0</ele><time>2026-03-22T11:05:47Z</time></trkpt><trkpt lat="42.543111082265675" lon="11.678979483721728"><ele>254.0</ele><time>2026-03-22T11:05:48Z</time></trkpt><trkpt lat="42.54309498866464" lon="11.679232788809884"><ele>254.0</ele><time>2026-03-22T11:05:49Z</time></trkpt><trkpt lat="42.54307312501506" lon="11.679485083653148"><ele>254.0</ele><time>2026-03-22T11:05:50Z</time></trkpt><trkpt lat="42.543052426219155" lon="11.679734326353968"><ele>254.0</ele><time>2026-03-22T11:05:51Z</time></trkpt><trkpt lat="42.543044246399134" lon="11.679973977938438"><ele>254.0</ele><time>2026-03-22T11:05:52Z</time></trkpt><trkpt lat="42.543039987416186" lon="11.68021123529998"><ele>254.0</ele><time>2026-03-22T11:05:53Z</time></trkpt><trkpt lat="42.543051794351165" lon="11.680448753970115"><ele>254.0</ele><time>2026-03-22T11:05:54Z</time></trkpt><trkpt lat="42.543093387246465" lon="11.680683764361211"><ele>251.0</ele><time>2026-03-22T11:05:55Z</time></trkpt><trkpt lat="42.54316166583765" lon="11.680909387683363"><ele>248.0</ele><time>2026-03-22T11:05:56Z</time></trkpt><trkpt lat="42.543240667966245" lon="11.681143735394238"><ele>245.0</ele><time>2026-03-22T11:05:57Z</time></trkpt><trkpt lat="42.54331199823783" lon="11.681381615168677"><ele>240.33333333333334</ele><time>2026-03-22T11:05:58Z</time></trkpt><trkpt lat="42.54336900910548" lon="11.681641569221167"><ele>235.66666666666669</ele><time>2026-03-22T11:05:59Z</time></trkpt><trkpt lat="42.543445261224555" lon="11.68190960337559"><ele>231.0</ele><time>2026-03-22T11:06:00Z</time></trkpt><trkpt lat="42.54351955291872" lon="11.68217074639941"><ele>232.0</ele><time>2026-03-22T11:06:01Z</time></trkpt><trkpt lat="42.54359193700641" lon="11.682429642370927"><ele>233.0</ele><time>2026-03-22T11:06:02Z</time></trkpt><trkpt lat="42.543660156789855" lon="11.682679247114576"><ele>234.0</ele><time>2026-03-22T11:06:02.999Z</time></trkpt><trkpt lat="42.543721489060026" lon="11.682904337390271"><ele>234.0</ele><time>2026-03-22T11:06:03.999Z</time></trkpt><trkpt lat="42.54377644934051" lon="11.683126801553504"><ele>234.0</ele><time>2026-03-22T11:06:04.999Z</time></trkpt><trkpt lat="42.54381215625185" lon="11.683335924105997"><ele>234.0</ele><time>2026-03-22T11:06:05.999Z</time></trkpt><trkpt lat="42.543820746493935" lon="11.683541318864945"><ele>234.0</ele><time>2026-03-22T11:06:06.999Z</time></trkpt><trkpt lat="42.54380058465089" lon="11.68375251773978"><ele>234.0</ele><time>2026-03-22T11:06:07.999Z</time></trkpt><trkpt lat="42.54376573963623" lon="11.683971133714547"><ele>234.0</ele><time>2026-03-22T11:06:08.999Z</time></trkpt><trkpt lat="42.543721052168976" lon="11.68420170512541"><ele>231.33333333333331</ele><time>2026-03-22T11:06:09.999Z</time></trkpt><trkpt lat="42.543672126549644" lon="11.684450701639301"><ele>228.66666666666666</ele><time>2026-03-22T11:06:10.999Z</time></trkpt><trkpt lat="42.543624323442074" lon="11.684693985288577"><ele>226.0</ele><time>2026-03-22T11:06:11.999Z</time></trkpt><trkpt lat="42.543575650657466" lon="11.684945129201738"><ele>226.0</ele><time>2026-03-22T11:06:12.999Z</time></trkpt><trkpt lat="42.54352560113348" lon="11.685204351468283"><ele>226.0</ele><time>2026-03-22T11:06:13.999Z</time></trkpt><trkpt lat="42.54347541448979" lon="11.685464463041068"><ele>226.0</ele><time>2026-03-22T11:06:14.999Z</time></trkpt><trkpt lat="42.543425196926094" lon="11.685726822690237"><ele>226.66666666666666</ele><time>2026-03-22T11:06:15.999Z</time></trkpt><trkpt lat="42.54337532086024" lon="11.685987398178217"><ele>227.33333333333331</ele><time>2026-03-22T11:06:16.999Z</time></trkpt><trkpt lat="42.54332714007747" lon="11.686239116725169"><ele>228.0</ele><time>2026-03-22T11:06:17.999Z</time></trkpt><trkpt lat="42.543279925360224" lon="11.686485788114695"><ele>228.66666666666669</ele><time>2026-03-22T11:06:18.999Z</time></trkpt><trkpt lat="42.54323283563129" lon="11.686725330833394"><ele>229.33333333333334</ele><time>2026-03-22T11:06:19.999Z</time></trkpt><trkpt lat="42.54318685823553" lon="11.686958606886"><ele>230.0</ele><time>2026-03-22T11:06:20.999Z</time></trkpt><trkpt lat="42.543142070023336" lon="11.687187317635907"><ele>230.0</ele><time>2026-03-22T11:06:21.999Z</time></trkpt><trkpt lat="42.543097693299806" lon="11.687415555774887"><ele>230.0</ele><time>2026-03-22T11:06:22.999Z</time></trkpt><trkpt lat="42.54305372973252" lon="11.687641668978397"><ele>230.0</ele><time>2026-03-22T11:06:23.999Z</time></trkpt><trkpt lat="42.543009775000876" lon="11.68786773674024"><ele>227.66666666666669</ele><time>2026-03-22T11:06:24.999Z</time></trkpt><trkpt lat="42.54298511532481" lon="11.68809509814074"><ele>225.33333333333331</ele><time>2026-03-22T11:06:25.999Z</time></trkpt><trkpt lat="42.54297343067376" lon="11.688317884523425"><ele>223.0</ele><time>2026-03-22T11:06:26.999Z</time></trkpt><trkpt lat="42.54301282874654" lon="11.688528501338375"><ele>218.66666666666666</ele><time>2026-03-22T11:06:27.999Z</time></trkpt><trkpt lat="42.543091907195674" lon="11.688711857153967"><ele>214.33333333333331</ele><time>2026-03-22T11:06:28.999Z</time></trkpt><trkpt lat="42.543206709179415" lon="11.688864733285216"><ele>210.0</ele><time>2026-03-22T11:06:29.999Z</time></trkpt><trkpt lat="42.54334452503155" lon="11.688987361263287"><ele>210.0</ele><time>2026-03-22T11:06:30.999Z</time></trkpt><trkpt lat="42.5434925464026" lon="11.68911174023149"><ele>210.0</ele><time>2026-03-22T11:06:31.999Z</time></trkpt><trkpt lat="42.543648464740606" lon="11.68922566441826"><ele>210.0</ele><time>2026-03-22T11:06:32.999Z</time></trkpt><trkpt lat="42.543806654456546" lon="11.68933984571266"><ele>211.0</ele><time>2026-03-22T11:06:33.999Z</time></trkpt><trkpt lat="42.543971656134524" lon="11.689433820713836"><ele>212.0</ele><time>2026-03-22T11:06:34.999Z</time></trkpt><trkpt lat="42.544121868119774" lon="11.689548990031865"><ele>213.0</ele><time>2026-03-22T11:06:35.999Z</time></trkpt><trkpt lat="42.54427572785266" lon="11.689652598529856"><ele>213.0</ele><time>2026-03-22T11:06:36.999Z</time></trkpt><trkpt lat="42.54441967998638" lon="11.689760054933881"><ele>213.0</ele><time>2026-03-22T11:06:37.999Z</time></trkpt><trkpt lat="42.54454846341653" lon="11.689894694502676"><ele>213.0</ele><time>2026-03-22T11:06:38.999Z</time></trkpt><trkpt lat="42.5446533961253" lon="11.690063588322952"><ele>213.33333333333331</ele><time>2026-03-22T11:06:39.999Z</time></trkpt><trkpt lat="42.54472892598828" lon="11.690256975889348"><ele>213.66666666666666</ele><time>2026-03-22T11:06:40.999Z</time></trkpt><trkpt lat="42.544770115502494" lon="11.690466553176508"><ele>214.0</ele><time>2026-03-22T11:06:41.999Z</time></trkpt><trkpt lat="42.54478906973243" lon="11.690681617733105"><ele>213.0</ele><time>2026-03-22T11:06:42.999Z</time></trkpt><trkpt lat="42.544830117555385" lon="11.69088648308928"><ele>212.0</ele><time>2026-03-22T11:06:43.999Z</time></trkpt><trkpt lat="42.544912537322126" lon="11.691071200335369"><ele>211.0</ele><time>2026-03-22T11:06:44.999Z</time></trkpt><trkpt lat="42.545021821698214" lon="11.69123581865376"><ele>209.66666666666666</ele><time>2026-03-22T11:06:45.999Z</time></trkpt><trkpt lat="42.54516335557878" lon="11.69135960755878"><ele>208.33333333333331</ele><time>2026-03-22T11:06:46.999Z</time></trkpt><trkpt lat="42.54531649410232" lon="11.691458323044086"><ele>207.0</ele><time>2026-03-22T11:06:47.999Z</time></trkpt><trkpt lat="42.54547841693917" lon="11.691547730451784"><ele>207.0</ele><time>2026-03-22T11:06:48.999Z</time></trkpt><trkpt lat="42.54564174943667" lon="11.691652540268212"><ele>207.0</ele><time>2026-03-22T11:06:49.999Z</time></trkpt><trkpt lat="42.545806060664034" lon="11.69176644412255"><ele>207.0</ele><time>2026-03-22T11:06:50.999Z</time></trkpt><trkpt lat="42.54597221709956" lon="11.691883537755993"><ele>206.33333333333331</ele><time>2026-03-22T11:06:51.999Z</time></trkpt><trkpt lat="42.54614088726402" lon="11.691997854829134"><ele>205.66666666666666</ele><time>2026-03-22T11:06:52.999Z</time></trkpt><trkpt lat="42.54631385712738" lon="11.692112628815797"><ele>205.0</ele><time>2026-03-22T11:06:53.999Z</time></trkpt><trkpt lat="42.546485535077224" lon="11.692228417139173"><ele>206.33333333333331</ele><time>2026-03-22T11:06:54.999Z</time></trkpt><trkpt lat="42.54665739273382" lon="11.692344343473179"><ele>207.66666666666669</ele><time>2026-03-22T11:06:55.999Z</time></trkpt><trkpt lat="42.546826729438465" lon="11.692457180628082"><ele>209.0</ele><time>2026-03-22T11:06:56.999Z</time></trkpt><trkpt lat="42.54699311994096" lon="11.692575033362226"><ele>211.0</ele><time>2026-03-22T11:06:57.999Z</time></trkpt><trkpt lat="42.54715755223061" lon="11.692692884443021"><ele>213.0</ele><time>2026-03-22T11:06:58.999Z</time></trkpt><trkpt lat="42.54732450767449" lon="11.692805542820274"><ele>215.0</ele><time>2026-03-22T11:06:59.999Z</time></trkpt><trkpt lat="42.54749008583714" lon="11.692916452901619"><ele>215.0</ele><time>2026-03-22T11:07:00.999Z</time></trkpt><trkpt lat="42.54764797723229" lon="11.693036597184621"><ele>215.0</ele><time>2026-03-22T11:07:01.999Z</time></trkpt><trkpt lat="42.54778288339186" lon="11.693198525297515"><ele>215.0</ele><time>2026-03-22T11:07:02.999Z</time></trkpt><trkpt lat="42.54789916064821" lon="11.693385936753456"><ele>215.0</ele><time>2026-03-22T11:07:03.998Z</time></trkpt><trkpt lat="42.54800858204214" lon="11.693585573085617"><ele>215.0</ele><time>2026-03-22T11:07:04.998Z</time></trkpt><trkpt lat="42.54812066640868" lon="11.693779571304585"><ele>215.0</ele><time>2026-03-22T11:07:05.998Z</time></trkpt><trkpt lat="42.54823748194458" lon="11.693959104629913"><ele>215.0</ele><time>2026-03-22T11:07:06.998Z</time></trkpt><trkpt lat="42.548336255426314" lon="11.694131181928167"><ele>215.0</ele><time>2026-03-22T11:07:07.998Z</time></trkpt><trkpt lat="42.54843592750495" lon="11.69429968084173"><ele>215.0</ele><time>2026-03-22T11:07:08.998Z</time></trkpt><trkpt lat="42.54850914058757" lon="11.694472640569403"><ele>214.75</ele><time>2026-03-22T11:07:09.998Z</time></trkpt><trkpt lat="42.54855591708731" lon="11.69465929983721"><ele>214.5</ele><time>2026-03-22T11:07:10.998Z</time></trkpt><trkpt lat="42.54856685690077" lon="11.6948648310587"><ele>214.25</ele><time>2026-03-22T11:07:11.998Z</time></trkpt><trkpt lat="42.548531415192365" lon="11.695061781600561"><ele>214.0</ele><time>2026-03-22T11:07:12.998Z</time></trkpt><trkpt lat="42.5484700972661" lon="11.695275205684524"><ele>214.0</ele><time>2026-03-22T11:07:13.998Z</time></trkpt><trkpt lat="42.548406183715734" lon="11.695489389110378"><ele>214.0</ele><time>2026-03-22T11:07:14.998Z</time></trkpt><trkpt lat="42.54835610200942" lon="11.695716233653423"><ele>214.0</ele><time>2026-03-22T11:07:15.998Z</time></trkpt><trkpt lat="42.548308692622335" lon="11.695944167693256"><ele>215.66666666666666</ele><time>2026-03-22T11:07:16.998Z</time></trkpt><trkpt lat="42.5482579151548" lon="11.696174285872646"><ele>217.33333333333331</ele><time>2026-03-22T11:07:17.998Z</time></trkpt><trkpt lat="42.54820437431427" lon="11.69640132569818"><ele>219.0</ele><time>2026-03-22T11:07:18.998Z</time></trkpt><trkpt lat="42.54815090078601" lon="11.696625732787098"><ele>219.0</ele><time>2026-03-22T11:07:19.998Z</time></trkpt><trkpt lat="42.54809747735883" lon="11.696844886768382"><ele>219.0</ele><time>2026-03-22T11:07:20.998Z</time></trkpt><trkpt lat="42.5480413645235" lon="11.697056252981337"><ele>219.0</ele><time>2026-03-22T11:07:21.998Z</time></trkpt><trkpt lat="42.547988699244996" lon="11.69726526942719"><ele>224.33333333333331</ele><time>2026-03-22T11:07:22.998Z</time></trkpt><trkpt lat="42.5479462014398" lon="11.697477122283921"><ele>229.66666666666666</ele><time>2026-03-22T11:07:23.998Z</time></trkpt><trkpt lat="42.547909434381715" lon="11.697685688881267"><ele>235.0</ele><time>2026-03-22T11:07:24.998Z</time></trkpt><trkpt lat="42.5478832371715" lon="11.697877007000015"><ele>235.25</ele><time>2026-03-22T11:07:25.998Z</time></trkpt><trkpt lat="42.547872281198465" lon="11.698071140963942"><ele>235.5</ele><time>2026-03-22T11:07:27Z</time></trkpt><trkpt lat="42.5478777268898" lon="11.698260431172356"><ele>235.75</ele><time>2026-03-22T11:07:28Z</time></trkpt><trkpt lat="42.547884625150154" lon="11.698445904490482"><ele>236.0</ele><time>2026-03-22T11:07:29Z</time></trkpt><trkpt lat="42.547876340190115" lon="11.698633708500646"><ele>236.0</ele><time>2026-03-22T11:07:30Z</time></trkpt><trkpt lat="42.54784371064237" lon="11.698820476919787"><ele>236.0</ele><time>2026-03-22T11:07:31Z</time></trkpt><trkpt lat="42.547779354152794" lon="11.699001117898563"><ele>236.0</ele><time>2026-03-22T11:07:32Z</time></trkpt><trkpt lat="42.547696903935524" lon="11.699158801519737"><ele>236.0</ele><time>2026-03-22T11:07:33Z</time></trkpt><trkpt lat="42.54761240989032" lon="11.699307045905208"><ele>238.0</ele><time>2026-03-22T11:07:34Z</time></trkpt><trkpt lat="42.547532330029576" lon="11.699461027685777"><ele>240.0</ele><time>2026-03-22T11:07:35Z</time></trkpt><trkpt lat="42.54747460412238" lon="11.699634174306706"><ele>242.0</ele><time>2026-03-22T11:07:36Z</time></trkpt><trkpt lat="42.5474518256938" lon="11.699824190200419"><ele>244.0</ele><time>2026-03-22T11:07:37Z</time></trkpt><trkpt lat="42.5474558744288" lon="11.70001882579947"><ele>244.0</ele><time>2026-03-22T11:07:38Z</time></trkpt><trkpt lat="42.54747351851504" lon="11.70022278167846"><ele>244.0</ele><time>2026-03-22T11:07:39Z</time></trkpt><trkpt lat="42.547493495796424" lon="11.70041076480407"><ele>244.0</ele><time>2026-03-22T11:07:40Z</time></trkpt><trkpt lat="42.54751549944502" lon="11.700611286363676"><ele>244.0</ele><time>2026-03-22T11:07:41Z</time></trkpt><trkpt lat="42.547540757734744" lon="11.700812623950963"><ele>244.0</ele><time>2026-03-22T11:07:42Z</time></trkpt><trkpt lat="42.547566200051506" lon="11.701023894202486"><ele>244.0</ele><time>2026-03-22T11:07:43Z</time></trkpt><trkpt lat="42.5475900350944" lon="11.701234574769645"><ele>244.0</ele><time>2026-03-22T11:07:44Z</time></trkpt><trkpt lat="42.54761339420843" lon="11.701445745586172"><ele>244.0</ele><time>2026-03-22T11:07:45Z</time></trkpt><trkpt lat="42.54763260703373" lon="11.70165975263044"><ele>244.0</ele><time>2026-03-22T11:07:46Z</time></trkpt><trkpt lat="42.54765357879845" lon="11.701873954162648"><ele>244.0</ele><time>2026-03-22T11:07:47Z</time></trkpt><trkpt lat="42.54767714550595" lon="11.70208868070908"><ele>244.66666666666666</ele><time>2026-03-22T11:07:48Z</time></trkpt><trkpt lat="42.54770006386471" lon="11.702304840652083"><ele>245.33333333333331</ele><time>2026-03-22T11:07:49Z</time></trkpt><trkpt lat="42.54772243382257" lon="11.702521336398794"><ele>246.0</ele><time>2026-03-22T11:07:50Z</time></trkpt><trkpt lat="42.54774449020055" lon="11.702738046835904"><ele>246.33333333333331</ele><time>2026-03-22T11:07:51Z</time></trkpt><trkpt lat="42.54774715839802" lon="11.702960539548465"><ele>246.66666666666666</ele><time>2026-03-22T11:07:52Z</time></trkpt><trkpt lat="42.547769964464926" lon="11.70317931436958"><ele>247.0</ele><time>2026-03-22T11:07:53Z</time></trkpt><trkpt lat="42.54779267043757" lon="11.703396799907127"><ele>247.0</ele><time>2026-03-22T11:07:54Z</time></trkpt><trkpt lat="42.547813338522275" lon="11.703611825105554"><ele>247.0</ele><time>2026-03-22T11:07:55Z</time></trkpt><trkpt lat="42.54783776007032" lon="11.70382675599898"><ele>247.0</ele><time>2026-03-22T11:07:56Z</time></trkpt><trkpt lat="42.547887349480725" lon="11.704037765281516"><ele>249.66666666666666</ele><time>2026-03-22T11:07:57Z</time></trkpt><trkpt lat="42.547919946254495" lon="11.704259965561521"><ele>252.33333333333331</ele><time>2026-03-22T11:07:58Z</time></trkpt><trkpt lat="42.54798048777757" lon="11.704473397385161"><ele>255.0</ele><time>2026-03-22T11:07:59Z</time></trkpt><trkpt lat="42.548048221411406" lon="11.704685200383249"><ele>255.0</ele><time>2026-03-22T11:08:00Z</time></trkpt><trkpt lat="42.548122479696964" lon="11.704897926152869"><ele>255.0</ele><time>2026-03-22T11:08:01Z</time></trkpt><trkpt lat="42.54819828569586" lon="11.705110939720687"><ele>255.0</ele><time>2026-03-22T11:08:02Z</time></trkpt><trkpt lat="42.54827781555052" lon="11.705326843162172"><ele>254.0</ele><time>2026-03-22T11:08:03Z</time></trkpt><trkpt lat="42.54835574121856" lon="11.705544054594734"><ele>253.0</ele><time>2026-03-22T11:08:04Z</time></trkpt><trkpt lat="42.548418754625146" lon="11.70576425571181"><ele>252.0</ele><time>2026-03-22T11:08:05Z</time></trkpt><trkpt lat="42.54846292851576" lon="11.705984940296945"><ele>253.33333333333331</ele><time>2026-03-22T11:08:06Z</time></trkpt><trkpt lat="42.54850181004918" lon="11.706215330901125"><ele>254.66666666666666</ele><time>2026-03-22T11:08:07Z</time></trkpt><trkpt lat="42.54855209663676" lon="11.706442444580592"><ele>256.0</ele><time>2026-03-22T11:08:08Z</time></trkpt><trkpt lat="42.548590326412814" lon="11.706675882019763"><ele>256.0</ele><time>2026-03-22T11:08:09Z</time></trkpt><trkpt lat="42.54862797234599" lon="11.706910776026962"><ele>256.0</ele><time>2026-03-22T11:08:10Z</time></trkpt><trkpt lat="42.548666913565455" lon="11.707141915658005"><ele>256.0</ele><time>2026-03-22T11:08:10.999Z</time></trkpt><trkpt lat="42.54870442228015" lon="11.707378765888638"><ele>259.0</ele><time>2026-03-22T11:08:11.999Z</time></trkpt><trkpt lat="42.54874323981439" lon="11.707615283482385"><ele>262.0</ele><time>2026-03-22T11:08:12.999Z</time></trkpt><trkpt lat="42.54877025511027" lon="11.707855912900724"><ele>265.0</ele><time>2026-03-22T11:08:13.999Z</time></trkpt><trkpt lat="42.54881010942706" lon="11.708095243878844"><ele>265.3333333333333</ele><time>2026-03-22T11:08:14.999Z</time></trkpt><trkpt lat="42.548850014283914" lon="11.708334878366657"><ele>265.6666666666667</ele><time>2026-03-22T11:08:15.999Z</time></trkpt><trkpt lat="42.54890536789022" lon="11.708573613167086"><ele>266.0</ele><time>2026-03-22T11:08:16.999Z</time></trkpt><trkpt lat="42.548942433894005" lon="11.708816521583351"><ele>266.0</ele><time>2026-03-22T11:08:17.999Z</time></trkpt><trkpt lat="42.54897802673631" lon="11.709062057431533"><ele>266.0</ele><time>2026-03-22T11:08:18.999Z</time></trkpt><trkpt lat="42.549021830085756" lon="11.709308931917258"><ele>266.0</ele><time>2026-03-22T11:08:19.999Z</time></trkpt><trkpt lat="42.54904707790999" lon="11.709554386088817"><ele>266.0</ele><time>2026-03-22T11:08:20.999Z</time></trkpt><trkpt lat="42.54909579253571" lon="11.709793557614777"><ele>266.0</ele><time>2026-03-22T11:08:21.999Z</time></trkpt><trkpt lat="42.54913509103901" lon="11.710038458788688"><ele>266.0</ele><time>2026-03-22T11:08:22.999Z</time></trkpt><trkpt lat="42.549173824010445" lon="11.71028468173812"><ele>267.33333333333337</ele><time>2026-03-22T11:08:23.999Z</time></trkpt><trkpt lat="42.54921309132044" lon="11.7105255008702"><ele>268.6666666666667</ele><time>2026-03-22T11:08:24.999Z</time></trkpt><trkpt lat="42.54925066142234" lon="11.71075643284539"><ele>270.0</ele><time>2026-03-22T11:08:25.999Z</time></trkpt><trkpt lat="42.549291016581606" lon="11.710981463342973"><ele>272.0</ele><time>2026-03-22T11:08:26.999Z</time></trkpt><trkpt lat="42.54932743368121" lon="11.711203581638248"><ele>274.0</ele><time>2026-03-22T11:08:27.999Z</time></trkpt><trkpt lat="42.54935445783136" lon="11.711411775112202"><ele>276.0</ele><time>2026-03-22T11:08:28.999Z</time></trkpt><trkpt lat="42.549337479450166" lon="11.711614178066725"><ele>276.0</ele><time>2026-03-22T11:08:29.999Z</time></trkpt><trkpt lat="42.549295943697864" lon="11.711806429356232"><ele>276.0</ele><time>2026-03-22T11:08:30.999Z</time></trkpt><trkpt lat="42.54921824719023" lon="11.71198565595135"><ele>276.0</ele><time>2026-03-22T11:08:31.999Z</time></trkpt><trkpt lat="42.54912289901898" lon="11.712147271607197"><ele>274.6666666666667</ele><time>2026-03-22T11:08:32.999Z</time></trkpt><trkpt lat="42.54901790509965" lon="11.712311087381316"><ele>273.33333333333337</ele><time>2026-03-22T11:08:33.999Z</time></trkpt><trkpt lat="42.54890990798304" lon="11.71247754542862"><ele>272.0</ele><time>2026-03-22T11:08:34.999Z</time></trkpt><trkpt lat="42.54879960719271" lon="11.712653554587172"><ele>274.6666666666667</ele><time>2026-03-22T11:08:35.999Z</time></trkpt><trkpt lat="42.548689542861524" lon="11.712829567794007"><ele>277.3333333333333</ele><time>2026-03-22T11:08:36.999Z</time></trkpt><trkpt lat="42.548579437019654" lon="11.713005962824669"><ele>280.0</ele><time>2026-03-22T11:08:37.999Z</time></trkpt><trkpt lat="42.54846609370398" lon="11.71318841429456"><ele>280.0</ele><time>2026-03-22T11:08:38.999Z</time></trkpt><trkpt lat="42.5483538716104" lon="11.713368921282155"><ele>280.0</ele><time>2026-03-22T11:08:39.999Z</time></trkpt><trkpt lat="42.548245617386684" lon="11.713542624763418"><ele>280.0</ele><time>2026-03-22T11:08:40.999Z</time></trkpt><trkpt lat="42.54813639532177" lon="11.713717637513943"><ele>280.0</ele><time>2026-03-22T11:08:41.999Z</time></trkpt><trkpt lat="42.54802656164953" lon="11.713892679791229"><ele>280.0</ele><time>2026-03-22T11:08:42.999Z</time></trkpt><trkpt lat="42.54791788188418" lon="11.714065883080261"><ele>280.0</ele><time>2026-03-22T11:08:43.999Z</time></trkpt><trkpt lat="42.5478086792618" lon="11.714230396972022"><ele>282.3333333333333</ele><time>2026-03-22T11:08:44.999Z</time></trkpt><trkpt lat="42.5476938427342" lon="11.714371548033876"><ele>284.6666666666667</ele><time>2026-03-22T11:08:45.999Z</time></trkpt><trkpt lat="42.547563104550605" lon="11.714481155661638"><ele>287.0</ele><time>2026-03-22T11:08:46.999Z</time></trkpt><trkpt lat="42.54741853804242" lon="11.714571445640544"><ele>287.0</ele><time>2026-03-22T11:08:47.999Z</time></trkpt><trkpt lat="42.54726832368688" lon="11.714656247241368"><ele>287.0</ele><time>2026-03-22T11:08:48.999Z</time></trkpt><trkpt lat="42.54711706914851" lon="11.714740872054454"><ele>287.0</ele><time>2026-03-22T11:08:49.999Z</time></trkpt><trkpt lat="42.54696799936793" lon="11.714824274529779"><ele>287.0</ele><time>2026-03-22T11:08:50.999Z</time></trkpt><trkpt lat="42.546821084200545" lon="11.714906471524921"><ele>287.0</ele><time>2026-03-22T11:08:51.999Z</time></trkpt><trkpt lat="42.54666956795879" lon="11.714990218922539"><ele>287.0</ele><time>2026-03-22T11:08:52.999Z</time></trkpt><trkpt lat="42.54650713235264" lon="11.7150798102252"><ele>287.0</ele><time>2026-03-22T11:08:53.999Z</time></trkpt><trkpt lat="42.54636062128213" lon="11.715168057468567"><ele>287.0</ele><time>2026-03-22T11:08:54.999Z</time></trkpt><trkpt lat="42.54622684810218" lon="11.71527074557782"><ele>287.0</ele><time>2026-03-22T11:08:55.999Z</time></trkpt><trkpt lat="42.54610701857786" lon="11.715421606620199"><ele>289.6666666666667</ele><time>2026-03-22T11:08:56.999Z</time></trkpt><trkpt lat="42.54602771538295" lon="11.715629857918962"><ele>292.3333333333333</ele><time>2026-03-22T11:08:57.999Z</time></trkpt><trkpt lat="42.54599227244239" lon="11.715823910625351"><ele>295.0</ele><time>2026-03-22T11:08:58.999Z</time></trkpt><trkpt lat="42.54597122215411" lon="11.716010722402714"><ele>297.25</ele><time>2026-03-22T11:08:59.999Z</time></trkpt><trkpt lat="42.545949462681875" lon="11.716198288649872"><ele>299.5</ele><time>2026-03-22T11:09:00.999Z</time></trkpt><trkpt lat="42.54592954583418" lon="11.716377298397925"><ele>301.75</ele><time>2026-03-22T11:09:01.999Z</time></trkpt><trkpt lat="42.54591770269922" lon="11.71655754659468"><ele>304.0</ele><time>2026-03-22T11:09:02.999Z</time></trkpt><trkpt lat="42.54588601895497" lon="11.716753719165473"><ele>305.25</ele><time>2026-03-22T11:09:03.999Z</time></trkpt><trkpt lat="42.54586391589828" lon="11.716928284515793"><ele>306.5</ele><time>2026-03-22T11:09:04.999Z</time></trkpt><trkpt lat="42.54583755185621" lon="11.71712320325838"><ele>307.75</ele><time>2026-03-22T11:09:05.999Z</time></trkpt><trkpt lat="42.54581136284913" lon="11.717338180353861"><ele>309.0</ele><time>2026-03-22T11:09:06.999Z</time></trkpt><trkpt lat="42.54576575885791" lon="11.717533192351347"><ele>309.0</ele><time>2026-03-22T11:09:07.999Z</time></trkpt><trkpt lat="42.54572049838909" lon="11.717723414538774"><ele>309.0</ele><time>2026-03-22T11:09:08.999Z</time></trkpt><trkpt lat="42.54567013286404" lon="11.71790475077409"><ele>309.0</ele><time>2026-03-22T11:09:09.999Z</time></trkpt><trkpt lat="42.54561361572773" lon="11.718083221855894"><ele>309.0</ele><time>2026-03-22T11:09:10.999Z</time></trkpt><trkpt lat="42.545560523713796" lon="11.718277721338428"><ele>310.0</ele><time>2026-03-22T11:09:11.999Z</time></trkpt><trkpt lat="42.545531053957184" lon="11.718476759727222"><ele>311.0</ele><time>2026-03-22T11:09:12.999Z</time></trkpt><trkpt lat="42.54552540255617" lon="11.71868478886085"><ele>312.0</ele><time>2026-03-22T11:09:13.998Z</time></trkpt><trkpt lat="42.545508923563226" lon="11.718885621541283"><ele>314.25</ele><time>2026-03-22T11:09:14.998Z</time></trkpt><trkpt lat="42.545523903322966" lon="11.719099048528477"><ele>316.5</ele><time>2026-03-22T11:09:15.998Z</time></trkpt><trkpt lat="42.54552190344632" lon="11.719295945488284"><ele>318.75</ele><time>2026-03-22T11:09:16.998Z</time></trkpt><trkpt lat="42.545519226559875" lon="11.719490089510431"><ele>321.0</ele><time>2026-03-22T11:09:17.998Z</time></trkpt><trkpt lat="42.54552363854987" lon="11.719680769979794"><ele>322.25</ele><time>2026-03-22T11:09:18.998Z</time></trkpt><trkpt lat="42.545535566661584" lon="11.719878110613397"><ele>323.5</ele><time>2026-03-22T11:09:19.998Z</time></trkpt><trkpt lat="42.54553733745812" lon="11.720083622806365"><ele>324.75</ele><time>2026-03-22T11:09:20.998Z</time></trkpt><trkpt lat="42.54556452247348" lon="11.720273694730674"><ele>326.0</ele><time>2026-03-22T11:09:21.998Z</time></trkpt><trkpt lat="42.54559153598" lon="11.720451102099625"><ele>326.6</ele><time>2026-03-22T11:09:22.998Z</time></trkpt><trkpt lat="42.54563506591068" lon="11.720617170049318"><ele>327.20000000000005</ele><time>2026-03-22T11:09:23.998Z</time></trkpt><trkpt lat="42.545663014016824" lon="11.72075408091371"><ele>327.79999999999995</ele><time>2026-03-22T11:09:24.998Z</time></trkpt><trkpt lat="42.54570066599029" lon="11.720869726994378"><ele>328.4</ele><time>2026-03-22T11:09:25.998Z</time></trkpt><trkpt lat="42.54574340037676" lon="11.72096541447553"><ele>329.0</ele><time>2026-03-22T11:09:26.998Z</time></trkpt><trkpt lat="42.54579172939495" lon="11.721061535748573"><ele>329.4</ele><time>2026-03-22T11:09:27.998Z</time></trkpt><trkpt lat="42.54584229212578" lon="11.721163334329214"><ele>329.79999999999995</ele><time>2026-03-22T11:09:28.998Z</time></trkpt><trkpt lat="42.54589379472733" lon="11.7212498552036"><ele>330.20000000000005</ele><time>2026-03-22T11:09:29.998Z</time></trkpt><trkpt lat="42.54594722560759" lon="11.721356403097037"><ele>330.6</ele><time>2026-03-22T11:09:30.998Z</time></trkpt><trkpt lat="42.54601092320728" lon="11.721463994395005"><ele>331.0</ele><time>2026-03-22T11:09:31.998Z</time></trkpt><trkpt lat="42.546063764856456" lon="11.721579310772944"><ele>331.0</ele><time>2026-03-22T11:09:33Z</time></trkpt><trkpt lat="42.54611901127551" lon="11.72167338648148"><ele>331.0</ele><time>2026-03-22T11:09:34Z</time></trkpt><trkpt lat="42.546169984440695" lon="11.72175912289643"><ele>331.0</ele><time>2026-03-22T11:09:35Z</time></trkpt><trkpt lat="42.54621613430509" lon="11.72183674655026"><ele>331.0</ele><time>2026-03-22T11:09:36Z</time></trkpt><trkpt lat="42.54626119597494" lon="11.721912539883919"><ele>331.0</ele><time>2026-03-22T11:09:37Z</time></trkpt><trkpt lat="42.54630237734633" lon="11.721981806590325"><ele>331.0</ele><time>2026-03-22T11:09:38Z</time></trkpt><trkpt lat="42.54634590540832" lon="11.722055020401545"><ele>332.3333333333333</ele><time>2026-03-22T11:09:39Z</time></trkpt><trkpt lat="42.54638926814528" lon="11.72212795614431"><ele>333.66666666666663</ele><time>2026-03-22T11:09:40Z</time></trkpt><trkpt lat="42.54642993328513" lon="11.722196354551805"><ele>335.0</ele><time>2026-03-22T11:09:41Z</time></trkpt><trkpt lat="42.54650075348829" lon="11.722314169952332"><ele>336.3333333333333</ele><time>2026-03-22T11:09:43Z</time></trkpt><trkpt lat="42.54655005912604" lon="11.722392771837953"><ele>337.6666666666667</ele><time>2026-03-22T11:09:45Z</time></trkpt><trkpt lat="42.546566686339126" lon="11.722530658910365"><ele>339.0</ele><time>2026-03-22T11:09:47Z</time></trkpt><trkpt lat="42.54657921320893" lon="11.722616502036578"><ele>339.0</ele><time>2026-03-22T11:09:48Z</time></trkpt><trkpt lat="42.546586411289525" lon="11.722703698062235"><ele>339.0</ele><time>2026-03-22T11:09:49Z</time></trkpt><trkpt lat="42.54659512203835" lon="11.72283642161747"><ele>339.0</ele><time>2026-03-22T11:09:51Z</time></trkpt><trkpt lat="42.54659724957581" lon="11.722950373930763"><ele>339.0</ele><time>2026-03-22T11:09:53Z</time></trkpt><trkpt lat="42.546608466199395" lon="11.723044653189087"><ele>339.0</ele><time>2026-03-22T11:09:55Z</time></trkpt><trkpt lat="42.546612296276734" lon="11.72314891875488"><ele>339.0</ele><time>2026-03-22T11:09:58Z</time></trkpt><trkpt lat="42.5466060033884" lon="11.723283719824373"><ele>339.5</ele><time>2026-03-22T11:10:00Z</time></trkpt><trkpt lat="42.54660713335685" lon="11.723442143157554"><ele>340.0</ele><time>2026-03-22T11:10:02Z</time></trkpt><trkpt lat="42.54661819573205" lon="11.723593959667905"><ele>340.5</ele><time>2026-03-22T11:10:04Z</time></trkpt><trkpt lat="42.546613131948995" lon="11.723747673150703"><ele>341.0</ele><time>2026-03-22T11:10:06Z</time></trkpt><trkpt lat="42.546622672098806" lon="11.723902451427485"><ele>341.1666666666667</ele><time>2026-03-22T11:10:08Z</time></trkpt><trkpt lat="42.54662682167266" lon="11.723988764470997"><ele>341.33333333333337</ele><time>2026-03-22T11:10:09Z</time></trkpt><trkpt lat="42.5466212084611" lon="11.72408349030426"><ele>341.5</ele><time>2026-03-22T11:10:10Z</time></trkpt><trkpt lat="42.54662057571658" lon="11.72420005075383"><ele>341.6666666666667</ele><time>2026-03-22T11:10:11Z</time></trkpt><trkpt lat="42.54662855339941" lon="11.724325889993716"><ele>341.8333333333333</ele><time>2026-03-22T11:10:12Z</time></trkpt><trkpt lat="42.546638112229964" lon="11.724464268380617"><ele>342.0</ele><time>2026-03-22T11:10:13Z</time></trkpt><trkpt lat="42.54664604716776" lon="11.72461078207861"><ele>342.5</ele><time>2026-03-22T11:10:14Z</time></trkpt><trkpt lat="42.54666340641714" lon="11.724765288492545"><ele>343.0</ele><time>2026-03-22T11:10:14.999Z</time></trkpt><trkpt lat="42.54668070147766" lon="11.724928369135274"><ele>343.5</ele><time>2026-03-22T11:10:15.999Z</time></trkpt><trkpt lat="42.5467446500377" lon="11.725076281623501"><ele>344.0</ele><time>2026-03-22T11:10:16.999Z</time></trkpt><trkpt lat="42.546812566000575" lon="11.725239944983102"><ele>344.5</ele><time>2026-03-22T11:10:17.999Z</time></trkpt><trkpt lat="42.54687367994854" lon="11.725400995723906"><ele>345.0</ele><time>2026-03-22T11:10:18.999Z</time></trkpt><trkpt lat="42.546923387546705" lon="11.725578568751633"><ele>345.5</ele><time>2026-03-22T11:10:19.999Z</time></trkpt><trkpt lat="42.54699732922045" lon="11.725735120784435"><ele>346.0</ele><time>2026-03-22T11:10:20.999Z</time></trkpt><trkpt lat="42.547059958605175" lon="11.725904930793654"><ele>347.25</ele><time>2026-03-22T11:10:21.999Z</time></trkpt><trkpt lat="42.54711383450023" lon="11.726081038198542"><ele>348.5</ele><time>2026-03-22T11:10:22.999Z</time></trkpt><trkpt lat="42.54721464795807" lon="11.726231035934564"><ele>349.75</ele><time>2026-03-22T11:10:23.999Z</time></trkpt><trkpt lat="42.54731078616833" lon="11.726387829199401"><ele>351.0</ele><time>2026-03-22T11:10:24.999Z</time></trkpt><trkpt lat="42.54743430714584" lon="11.726515705308207"><ele>351.0</ele><time>2026-03-22T11:10:25.999Z</time></trkpt><trkpt lat="42.547545468114684" lon="11.726667274559722"><ele>351.0</ele><time>2026-03-22T11:10:26.999Z</time></trkpt><trkpt lat="42.54766445486012" lon="11.726816880382588"><ele>351.0</ele><time>2026-03-22T11:10:27.999Z</time></trkpt><trkpt lat="42.5477803493893" lon="11.72696259825102"><ele>352.25</ele><time>2026-03-22T11:10:28.999Z</time></trkpt><trkpt lat="42.54788882566491" lon="11.727070580895894"><ele>353.5</ele><time>2026-03-22T11:10:29.999Z</time></trkpt><trkpt lat="42.547980896102665" lon="11.727191116970525"><ele>354.75</ele><time>2026-03-22T11:10:30.999Z</time></trkpt><trkpt lat="42.54806990229945" lon="11.727305555277873"><ele>356.0</ele><time>2026-03-22T11:10:31.999Z</time></trkpt><trkpt lat="42.548153277978635" lon="11.727409736296776"><ele>356.0</ele><time>2026-03-22T11:10:32.999Z</time></trkpt><trkpt lat="42.54823279669949" lon="11.727509580778486"><ele>356.0</ele><time>2026-03-22T11:10:33.999Z</time></trkpt><trkpt lat="42.54830973910544" lon="11.727611963887938"><ele>356.0</ele><time>2026-03-22T11:10:34.999Z</time></trkpt><trkpt lat="42.548385723890455" lon="11.727703587612996"><ele>356.0</ele><time>2026-03-22T11:10:35.999Z</time></trkpt><trkpt lat="42.548458969062125" lon="11.727796003123894"><ele>356.0</ele><time>2026-03-22T11:10:36.999Z</time></trkpt><trkpt lat="42.5485356467904" lon="11.727886282863375"><ele>356.20000000000005</ele><time>2026-03-22T11:10:37.999Z</time></trkpt><trkpt lat="42.548609496892624" lon="11.727987788501212"><ele>356.40000000000003</ele><time>2026-03-22T11:10:38.999Z</time></trkpt><trkpt lat="42.548687314473945" lon="11.72809027407687"><ele>356.6</ele><time>2026-03-22T11:10:39.999Z</time></trkpt><trkpt lat="42.54877150721326" lon="11.728192823433272"><ele>356.8</ele><time>2026-03-22T11:10:40.999Z</time></trkpt><trkpt lat="42.54886195696635" lon="11.72830016467548"><ele>357.0</ele><time>2026-03-22T11:10:41.999Z</time></trkpt><trkpt lat="42.548954593660014" lon="11.72841401990615"><ele>357.5</ele><time>2026-03-22T11:10:42.999Z</time></trkpt><trkpt lat="42.549032344773856" lon="11.72855488936803"><ele>358.0</ele><time>2026-03-22T11:10:43.999Z</time></trkpt><trkpt lat="42.54912645439921" lon="11.728680317700846"><ele>358.5</ele><time>2026-03-22T11:10:44.999Z</time></trkpt><trkpt lat="42.549195578879164" lon="11.72884014755427"><ele>359.0</ele><time>2026-03-22T11:10:45.999Z</time></trkpt><trkpt lat="42.54924758941986" lon="11.729009758627326"><ele>359.5</ele><time>2026-03-22T11:10:46.999Z</time></trkpt><trkpt lat="42.54929684101197" lon="11.729189339288112"><ele>360.0</ele><time>2026-03-22T11:10:47.999Z</time></trkpt><trkpt lat="42.54935435928112" lon="11.729375769004504"><ele>360.5</ele><time>2026-03-22T11:10:48.999Z</time></trkpt><trkpt lat="42.54941464152771" lon="11.729561383710166"><ele>361.0</ele><time>2026-03-22T11:10:49.999Z</time></trkpt><trkpt lat="42.549473549330195" lon="11.729745001389908"><ele>361.25</ele><time>2026-03-22T11:10:50.999Z</time></trkpt><trkpt lat="42.54951260922382" lon="11.729937639071338"><ele>361.5</ele><time>2026-03-22T11:10:51.999Z</time></trkpt><trkpt lat="42.549567647895" lon="11.730124879413166"><ele>361.75</ele><time>2026-03-22T11:10:52.999Z</time></trkpt><trkpt lat="42.54963721906947" lon="11.730303652879671"><ele>362.0</ele><time>2026-03-22T11:10:53.999Z</time></trkpt><trkpt lat="42.5496825495922" lon="11.730496599528546"><ele>362.5</ele><time>2026-03-22T11:10:54.999Z</time></trkpt><trkpt lat="42.54977311088264" lon="11.730661148019674"><ele>363.0</ele><time>2026-03-22T11:10:55.999Z</time></trkpt><trkpt lat="42.54987498658141" lon="11.730805668382077"><ele>363.5</ele><time>2026-03-22T11:10:56.999Z</time></trkpt><trkpt lat="42.549993596501345" lon="11.73092033346382"><ele>364.0</ele><time>2026-03-22T11:10:57.999Z</time></trkpt><trkpt lat="42.55013018767339" lon="11.730998580797685"><ele>364.75</ele><time>2026-03-22T11:10:58.999Z</time></trkpt><trkpt lat="42.55026526997984" lon="11.73108075656352"><ele>365.5</ele><time>2026-03-22T11:10:59.999Z</time></trkpt><trkpt lat="42.55039342631637" lon="11.731143934034852"><ele>366.25</ele><time>2026-03-22T11:11:00.999Z</time></trkpt><trkpt lat="42.55051780661064" lon="11.731200344666"><ele>367.0</ele><time>2026-03-22T11:11:01.999Z</time></trkpt><trkpt lat="42.55060975950864" lon="11.731263578537444"><ele>367.6</ele><time>2026-03-22T11:11:02.999Z</time></trkpt><trkpt lat="42.55069731982449" lon="11.731324996059874"><ele>368.20000000000005</ele><time>2026-03-22T11:11:03.999Z</time></trkpt><trkpt lat="42.55078021180902" lon="11.73141765032005"><ele>368.8</ele><time>2026-03-22T11:11:04.999Z</time></trkpt><trkpt lat="42.55083869881557" lon="11.731548400212985"><ele>369.4</ele><time>2026-03-22T11:11:05.999Z</time></trkpt><trkpt lat="42.55086729553317" lon="11.731709440031823"><ele>370.0</ele><time>2026-03-22T11:11:06.999Z</time></trkpt><trkpt lat="42.55088051173317" lon="11.731879807410499"><ele>370.25</ele><time>2026-03-22T11:11:07.999Z</time></trkpt><trkpt lat="42.55089861683547" lon="11.732060176631386"><ele>370.5</ele><time>2026-03-22T11:11:08.999Z</time></trkpt><trkpt lat="42.55092320671019" lon="11.732243018855703"><ele>370.75</ele><time>2026-03-22T11:11:09.999Z</time></trkpt><trkpt lat="42.55093146665589" lon="11.732431860818116"><ele>371.0</ele><time>2026-03-22T11:11:10.999Z</time></trkpt><trkpt lat="42.55094853785302" lon="11.732627429233494"><ele>371.6666666666667</ele><time>2026-03-22T11:11:11.999Z</time></trkpt><trkpt lat="42.55096461825414" lon="11.732823161249385"><ele>372.3333333333333</ele><time>2026-03-22T11:11:12.999Z</time></trkpt><trkpt lat="42.550980416649246" lon="11.733022718573421"><ele>373.0</ele><time>2026-03-22T11:11:13.999Z</time></trkpt><trkpt lat="42.55099696697321" lon="11.733237563847236"><ele>373.0</ele><time>2026-03-22T11:11:14.999Z</time></trkpt><trkpt lat="42.55101370877319" lon="11.733456003259294"><ele>373.0</ele><time>2026-03-22T11:11:15.998Z</time></trkpt><trkpt lat="42.551030152595466" lon="11.733673833129107"><ele>373.0</ele><time>2026-03-22T11:11:16.998Z</time></trkpt><trkpt lat="42.55104671029321" lon="11.733893171489937"><ele>375.3333333333333</ele><time>2026-03-22T11:11:17.998Z</time></trkpt><trkpt lat="42.55106307052955" lon="11.734112724258146"><ele>377.6666666666667</ele><time>2026-03-22T11:11:18.998Z</time></trkpt><trkpt lat="42.55107955413022" lon="11.734334658939732"><ele>380.0</ele><time>2026-03-22T11:11:19.998Z</time></trkpt><trkpt lat="42.55109607457295" lon="11.73455708965238"><ele>380.33333333333337</ele><time>2026-03-22T11:11:20.998Z</time></trkpt><trkpt lat="42.55111215855044" lon="11.734773643811378"><ele>380.6666666666667</ele><time>2026-03-22T11:11:21.998Z</time></trkpt><trkpt lat="42.551127131061186" lon="11.73497523322547"><ele>381.0</ele><time>2026-03-22T11:11:22.998Z</time></trkpt><trkpt lat="42.551141013407616" lon="11.735164700355604"><ele>381.4</ele><time>2026-03-22T11:11:23.998Z</time></trkpt><trkpt lat="42.55115378705071" lon="11.735339431157511"><ele>381.8</ele><time>2026-03-22T11:11:24.998Z</time></trkpt><trkpt lat="42.551164828865744" lon="11.73549047226869"><ele>382.2</ele><time>2026-03-22T11:11:25.998Z</time></trkpt><trkpt lat="42.551175178312974" lon="11.735634497678712"><ele>382.59999999999997</ele><time>2026-03-22T11:11:26.998Z</time></trkpt><trkpt lat="42.55118468177412" lon="11.735768697426492"><ele>383.0</ele><time>2026-03-22T11:11:27.998Z</time></trkpt><trkpt lat="42.55119393701484" lon="11.73589939200796"><ele>383.0</ele><time>2026-03-22T11:11:28.998Z</time></trkpt><trkpt lat="42.551203568283626" lon="11.736035396542674"><ele>383.0</ele><time>2026-03-22T11:11:29.998Z</time></trkpt><trkpt lat="42.551213579734416" lon="11.736176769688376"><ele>383.0</ele><time>2026-03-22T11:11:30.998Z</time></trkpt><trkpt lat="42.55122338547787" lon="11.736322061657118"><ele>383.0</ele><time>2026-03-22T11:11:31.998Z</time></trkpt><trkpt lat="42.55123370951527" lon="11.736473172532527"><ele>383.0</ele><time>2026-03-22T11:11:32.998Z</time></trkpt><trkpt lat="42.55124446901683" lon="11.736631330277875"><ele>383.75</ele><time>2026-03-22T11:11:33.998Z</time></trkpt><trkpt lat="42.55125502803566" lon="11.736797673183915"><ele>384.5</ele><time>2026-03-22T11:11:34.998Z</time></trkpt><trkpt lat="42.551267857898594" lon="11.736969593987512"><ele>385.25</ele><time>2026-03-22T11:11:35.998Z</time></trkpt><trkpt lat="42.551282024104836" lon="11.737148773036182"><ele>386.0</ele><time>2026-03-22T11:11:36.998Z</time></trkpt><trkpt lat="42.55129704123514" lon="11.737333052140542"><ele>386.25</ele><time>2026-03-22T11:11:38Z</time></trkpt><trkpt lat="42.55131239485939" lon="11.737521460446711"><ele>386.5</ele><time>2026-03-22T11:11:39Z</time></trkpt><trkpt lat="42.55132798548288" lon="11.737712777031648"><ele>386.75</ele><time>2026-03-22T11:11:40Z</time></trkpt><trkpt lat="42.55136024830166" lon="11.737906431708081"><ele>387.0</ele><time>2026-03-22T11:11:41Z</time></trkpt><trkpt lat="42.55135998295225" lon="11.738105426267964"><ele>386.66666666666663</ele><time>2026-03-22T11:11:42Z</time></trkpt><trkpt lat="42.55137584115474" lon="11.738305269850713"><ele>386.3333333333333</ele><time>2026-03-22T11:11:43Z</time></trkpt><trkpt lat="42.55139142616536" lon="11.7385095417235"><ele>386.0</ele><time>2026-03-22T11:11:44Z</time></trkpt><trkpt lat="42.55140495285063" lon="11.738715481700927"><ele>386.0</ele><time>2026-03-22T11:11:45Z</time></trkpt><trkpt lat="42.55141620366315" lon="11.738920518919898"><ele>386.0</ele><time>2026-03-22T11:11:46Z</time></trkpt><trkpt lat="42.55142265270639" lon="11.739128057567491"><ele>386.0</ele><time>2026-03-22T11:11:47Z</time></trkpt><trkpt lat="42.55141727471524" lon="11.739336938447797"><ele>386.3333333333333</ele><time>2026-03-22T11:11:48Z</time></trkpt><trkpt lat="42.55139383756671" lon="11.739550485652298"><ele>386.66666666666663</ele><time>2026-03-22T11:11:49Z</time></trkpt><trkpt lat="42.551344494110744" lon="11.739759923213875"><ele>387.0</ele><time>2026-03-22T11:11:50Z</time></trkpt><trkpt lat="42.551290036540934" lon="11.739981258454309"><ele>387.0</ele><time>2026-03-22T11:11:51Z</time></trkpt><trkpt lat="42.55124170213539" lon="11.74021501808768"><ele>387.0</ele><time>2026-03-22T11:11:52Z</time></trkpt><trkpt lat="42.55121067889385" lon="11.740443364328861"><ele>387.0</ele><time>2026-03-22T11:11:53Z</time></trkpt><trkpt lat="42.55119193388918" lon="11.740677582239867"><ele>386.33333333333337</ele><time>2026-03-22T11:11:54Z</time></trkpt><trkpt lat="42.55119008607594" lon="11.740922382071199"><ele>385.6666666666667</ele><time>2026-03-22T11:11:55Z</time></trkpt><trkpt lat="42.55115660766602" lon="11.7411595915917"><ele>385.0</ele><time>2026-03-22T11:11:56Z</time></trkpt><trkpt lat="42.5511361900443" lon="11.741404836071009"><ele>385.0</ele><time>2026-03-22T11:11:57Z</time></trkpt><trkpt lat="42.55110395737072" lon="11.741646483700654"><ele>385.0</ele><time>2026-03-22T11:11:58Z</time></trkpt><trkpt lat="42.55105892263934" lon="11.741878101356777"><ele>385.0</ele><time>2026-03-22T11:11:59Z</time></trkpt><trkpt lat="42.55099108389417" lon="11.742090428608403"><ele>384.6666666666667</ele><time>2026-03-22T11:12:00Z</time></trkpt><trkpt lat="42.550900413257544" lon="11.742277229801154"><ele>384.33333333333337</ele><time>2026-03-22T11:12:01Z</time></trkpt><trkpt lat="42.550787225459075" lon="11.742445374080754"><ele>384.0</ele><time>2026-03-22T11:12:02Z</time></trkpt><trkpt lat="42.55065542944675" lon="11.742592986878893"><ele>384.0</ele><time>2026-03-22T11:12:03Z</time></trkpt><trkpt lat="42.55051715360842" lon="11.742733439969783"><ele>384.0</ele><time>2026-03-22T11:12:04Z</time></trkpt><trkpt lat="42.550369899249795" lon="11.742875020049627"><ele>384.0</ele><time>2026-03-22T11:12:05Z</time></trkpt><trkpt lat="42.55022502345091" lon="11.743013324367169"><ele>381.3333333333333</ele><time>2026-03-22T11:12:06Z</time></trkpt><trkpt lat="42.55007830744319" lon="11.743156228890701"><ele>378.66666666666663</ele><time>2026-03-22T11:12:07Z</time></trkpt><trkpt lat="42.54994389492368" lon="11.743334583959848"><ele>376.0</ele><time>2026-03-22T11:12:08Z</time></trkpt><trkpt lat="42.54984976488648" lon="11.743578100017407"><ele>375.0</ele><time>2026-03-22T11:12:09Z</time></trkpt><trkpt lat="42.549770156321784" lon="11.743812052534315"><ele>374.0</ele><time>2026-03-22T11:12:10Z</time></trkpt><trkpt lat="42.54974086547868" lon="11.74405937556244"><ele>373.0</ele><time>2026-03-22T11:12:11Z</time></trkpt><trkpt lat="42.54974326585671" lon="11.74430982880887"><ele>372.3333333333333</ele><time>2026-03-22T11:12:12Z</time></trkpt><trkpt lat="42.54978706878566" lon="11.744579163178857"><ele>371.6666666666667</ele><time>2026-03-22T11:12:13Z</time></trkpt><trkpt lat="42.54984854611324" lon="11.744812036029193"><ele>371.0</ele><time>2026-03-22T11:12:14Z</time></trkpt><trkpt lat="42.54990654374971" lon="11.74506806087193"><ele>370.6666666666667</ele><time>2026-03-22T11:12:15Z</time></trkpt><trkpt lat="42.54993854117227" lon="11.745352001351593"><ele>370.3333333333333</ele><time>2026-03-22T11:12:16Z</time></trkpt><trkpt lat="42.549938745037046" lon="11.745585985884114"><ele>370.0</ele><time>2026-03-22T11:12:17Z</time></trkpt><trkpt lat="42.54991223673413" lon="11.7458204510898"><ele>370.3333333333333</ele><time>2026-03-22T11:12:18Z</time></trkpt><trkpt lat="42.549876523854635" lon="11.74605804590651"><ele>370.6666666666667</ele><time>2026-03-22T11:12:18.999Z</time></trkpt><trkpt lat="42.549835998925644" lon="11.746306465170804"><ele>371.0</ele><time>2026-03-22T11:12:19.999Z</time></trkpt><trkpt lat="42.54983111508852" lon="11.746566631768056"><ele>371.0</ele><time>2026-03-22T11:12:20.999Z</time></trkpt><trkpt lat="42.54982711635578" lon="11.746824626146928"><ele>371.0</ele><time>2026-03-22T11:12:21.999Z</time></trkpt><trkpt lat="42.54981124312332" lon="11.747076309949023"><ele>371.0</ele><time>2026-03-22T11:12:22.999Z</time></trkpt><trkpt lat="42.54979117329948" lon="11.747318367758059"><ele>371.0</ele><time>2026-03-22T11:12:23.999Z</time></trkpt><trkpt lat="42.54975525972448" lon="11.747552666855748"><ele>371.0</ele><time>2026-03-22T11:12:24.999Z</time></trkpt><trkpt lat="42.549729022627986" lon="11.747789755727336"><ele>371.0</ele><time>2026-03-22T11:12:25.999Z</time></trkpt><trkpt lat="42.54978188740149" lon="11.748028869096906"><ele>372.33333333333337</ele><time>2026-03-22T11:12:26.999Z</time></trkpt><trkpt lat="42.54987470699306" lon="11.748234231906354"><ele>373.6666666666667</ele><time>2026-03-22T11:12:27.999Z</time></trkpt><trkpt lat="42.54998144714171" lon="11.748423998527942"><ele>375.0</ele><time>2026-03-22T11:12:28.999Z</time></trkpt><trkpt lat="42.550091366176545" lon="11.748608599728044"><ele>376.0</ele><time>2026-03-22T11:12:29.999Z</time></trkpt><trkpt lat="42.55018362435018" lon="11.748792573793889"><ele>377.0</ele><time>2026-03-22T11:12:30.999Z</time></trkpt><trkpt lat="42.5502450546094" lon="11.749000917624334"><ele>378.0</ele><time>2026-03-22T11:12:31.999Z</time></trkpt><trkpt lat="42.5502413631266" lon="11.749218974335427"><ele>379.6666666666667</ele><time>2026-03-22T11:12:32.999Z</time></trkpt><trkpt lat="42.55020420298566" lon="11.749435535140965"><ele>381.33333333333337</ele><time>2026-03-22T11:12:33.999Z</time></trkpt><trkpt lat="42.550124152470545" lon="11.749635972047086"><ele>383.0</ele><time>2026-03-22T11:12:34.999Z</time></trkpt><trkpt lat="42.55004473807889" lon="11.749849082604333"><ele>383.0</ele><time>2026-03-22T11:12:35.999Z</time></trkpt><trkpt lat="42.54997645388155" lon="11.75007629878061"><ele>383.0</ele><time>2026-03-22T11:12:36.999Z</time></trkpt><trkpt lat="42.54990771683757" lon="11.750301405795543"><ele>383.0</ele><time>2026-03-22T11:12:37.999Z</time></trkpt><trkpt lat="42.549838826609424" lon="11.75053239370636"><ele>385.6666666666667</ele><time>2026-03-22T11:12:38.999Z</time></trkpt><trkpt lat="42.549771091488275" lon="11.750768693448638"><ele>388.33333333333337</ele><time>2026-03-22T11:12:39.999Z</time></trkpt><trkpt lat="42.54969948291578" lon="11.75099874964844"><ele>391.0</ele><time>2026-03-22T11:12:40.999Z</time></trkpt><trkpt lat="42.54961336165892" lon="11.751220893299669"><ele>392.33333333333337</ele><time>2026-03-22T11:12:41.999Z</time></trkpt><trkpt lat="42.549513869193134" lon="11.751439499842942"><ele>393.66666666666663</ele><time>2026-03-22T11:12:42.999Z</time></trkpt><trkpt lat="42.54941152064478" lon="11.751657079952684"><ele>395.0</ele><time>2026-03-22T11:12:43.999Z</time></trkpt><trkpt lat="42.54933093196639" lon="11.751879153983705"><ele>395.66666666666663</ele><time>2026-03-22T11:12:44.999Z</time></trkpt><trkpt lat="42.54924913962709" lon="11.752099197183627"><ele>396.33333333333337</ele><time>2026-03-22T11:12:45.999Z</time></trkpt><trkpt lat="42.5492074326538" lon="11.752341575616633"><ele>397.0</ele><time>2026-03-22T11:12:46.999Z</time></trkpt><trkpt lat="42.54920414118979" lon="11.752587052695397"><ele>397.33333333333337</ele><time>2026-03-22T11:12:47.999Z</time></trkpt><trkpt lat="42.5492111158317" lon="11.752818562942316"><ele>397.66666666666663</ele><time>2026-03-22T11:12:48.999Z</time></trkpt><trkpt lat="42.5492226591678" lon="11.753059258164972"><ele>398.0</ele><time>2026-03-22T11:12:49.999Z</time></trkpt><trkpt lat="42.54923641974791" lon="11.753304979505568"><ele>398.0</ele><time>2026-03-22T11:12:50.999Z</time></trkpt><trkpt lat="42.5492801977517" lon="11.753527839789564"><ele>398.0</ele><time>2026-03-22T11:12:51.999Z</time></trkpt><trkpt lat="42.54932752954625" lon="11.753758021302206"><ele>398.0</ele><time>2026-03-22T11:12:52.999Z</time></trkpt><trkpt lat="42.549395593092136" lon="11.753983098260841"><ele>397.3333333333333</ele><time>2026-03-22T11:12:53.999Z</time></trkpt><trkpt lat="42.549466248013964" lon="11.75421355073598"><ele>396.66666666666663</ele><time>2026-03-22T11:12:54.999Z</time></trkpt><trkpt lat="42.54952462396895" lon="11.75444137315636"><ele>396.0</ele><time>2026-03-22T11:12:55.999Z</time></trkpt><trkpt lat="42.5495939735854" lon="11.754660832848245"><ele>395.0</ele><time>2026-03-22T11:12:56.999Z</time></trkpt><trkpt lat="42.54965695849277" lon="11.754882493226384"><ele>394.0</ele><time>2026-03-22T11:12:57.999Z</time></trkpt><trkpt lat="42.549708977301016" lon="11.755097739315827"><ele>393.0</ele><time>2026-03-22T11:12:58.999Z</time></trkpt><trkpt lat="42.54969772546385" lon="11.755323258871634"><ele>396.0</ele><time>2026-03-22T11:12:59.999Z</time></trkpt><trkpt lat="42.54961673900384" lon="11.755508620041859"><ele>399.0</ele><time>2026-03-22T11:13:00.999Z</time></trkpt><trkpt lat="42.54951262906644" lon="11.755659535485767"><ele>402.0</ele><time>2026-03-22T11:13:01.999Z</time></trkpt><trkpt lat="42.54937629265653" lon="11.755794478169847"><ele>401.33333333333337</ele><time>2026-03-22T11:13:02.999Z</time></trkpt><trkpt lat="42.54923440132618" lon="11.755946374122756"><ele>400.6666666666667</ele><time>2026-03-22T11:13:03.999Z</time></trkpt><trkpt lat="42.549075487318994" lon="11.756062549659685"><ele>400.0</ele><time>2026-03-22T11:13:04.999Z</time></trkpt><trkpt lat="42.548939738234985" lon="11.75617809663132"><ele>400.0</ele><time>2026-03-22T11:13:05.999Z</time></trkpt><trkpt lat="42.5487827163105" lon="11.756261641341235"><ele>400.0</ele><time>2026-03-22T11:13:06.999Z</time></trkpt><trkpt lat="42.5486123685705" lon="11.756274497210754"><ele>400.0</ele><time>2026-03-22T11:13:07.999Z</time></trkpt><trkpt lat="42.548444481611796" lon="11.756253623269075"><ele>397.33333333333337</ele><time>2026-03-22T11:13:08.999Z</time></trkpt><trkpt lat="42.54826480768296" lon="11.75622054427959"><ele>394.66666666666663</ele><time>2026-03-22T11:13:09.999Z</time></trkpt><trkpt lat="42.54809214247284" lon="11.75619329948755"><ele>392.0</ele><time>2026-03-22T11:13:10.999Z</time></trkpt><trkpt lat="42.547905565150145" lon="11.756163859540507"><ele>390.0</ele><time>2026-03-22T11:13:11.999Z</time></trkpt><trkpt lat="42.54772989096923" lon="11.75614966244595"><ele>388.0</ele><time>2026-03-22T11:13:12.999Z</time></trkpt><trkpt lat="42.547561437404916" lon="11.75618865619603"><ele>386.0</ele><time>2026-03-22T11:13:13.999Z</time></trkpt><trkpt lat="42.547409656320525" lon="11.756286028006613"><ele>386.0</ele><time>2026-03-22T11:13:14.999Z</time></trkpt><trkpt lat="42.54726942689449" lon="11.756380695293682"><ele>386.0</ele><time>2026-03-22T11:13:15.999Z</time></trkpt><trkpt lat="42.54712648965452" lon="11.756471672327299"><ele>386.0</ele><time>2026-03-22T11:13:16.999Z</time></trkpt><trkpt lat="42.546981406842164" lon="11.756558705251868"><ele>386.3333333333333</ele><time>2026-03-22T11:13:17.999Z</time></trkpt><trkpt lat="42.5468561402233" lon="11.756700003580603"><ele>386.66666666666663</ele><time>2026-03-22T11:13:18.999Z</time></trkpt><trkpt lat="42.54673892353285" lon="11.756864228731159"><ele>387.0</ele><time>2026-03-22T11:13:19.999Z</time></trkpt><trkpt lat="42.54666088696566" lon="11.757054667011348"><ele>387.0</ele><time>2026-03-22T11:13:20.998Z</time></trkpt><trkpt lat="42.546635279692794" lon="11.757251929372599"><ele>387.0</ele><time>2026-03-22T11:13:21.998Z</time></trkpt><trkpt lat="42.54660508030617" lon="11.757459221211626"><ele>387.0</ele><time>2026-03-22T11:13:22.998Z</time></trkpt><trkpt lat="42.54655958536334" lon="11.757642661386198"><ele>387.0</ele><time>2026-03-22T11:13:23.998Z</time></trkpt><trkpt lat="42.54649490173401" lon="11.75780302151479"><ele>388.5</ele><time>2026-03-22T11:13:24.998Z</time></trkpt><trkpt lat="42.546427758915236" lon="11.75795430525531"><ele>390.0</ele><time>2026-03-22T11:13:25.998Z</time></trkpt><trkpt lat="42.546337512319255" lon="11.758099548248511"><ele>391.5</ele><time>2026-03-22T11:13:26.998Z</time></trkpt><trkpt lat="42.546224257921644" lon="11.758188540824365"><ele>393.0</ele><time>2026-03-22T11:13:27.998Z</time></trkpt><trkpt lat="42.5461170564376" lon="11.758230331066738"><ele>393.0</ele><time>2026-03-22T11:13:28.998Z</time></trkpt><trkpt lat="42.54600946300295" lon="11.758285615563649"><ele>393.0</ele><time>2026-03-22T11:13:29.998Z</time></trkpt><trkpt lat="42.54590572154814" lon="11.758345257042667"><ele>393.0</ele><time>2026-03-22T11:13:30.998Z</time></trkpt><trkpt lat="42.545828054877084" lon="11.758442535385116"><ele>393.0</ele><time>2026-03-22T11:13:31.998Z</time></trkpt><trkpt lat="42.545785357890416" lon="11.75858042157257"><ele>393.0</ele><time>2026-03-22T11:13:32.998Z</time></trkpt><trkpt lat="42.545736733457375" lon="11.758705599909309"><ele>391.25</ele><time>2026-03-22T11:13:33.998Z</time></trkpt><trkpt lat="42.54566868466774" lon="11.758815992303335"><ele>389.5</ele><time>2026-03-22T11:13:34.998Z</time></trkpt><trkpt lat="42.54557679561868" lon="11.75892028379377"><ele>387.75</ele><time>2026-03-22T11:13:35.998Z</time></trkpt><trkpt lat="42.545474773493126" lon="11.759002100135223"><ele>386.0</ele><time>2026-03-22T11:13:36.998Z</time></trkpt><trkpt lat="42.54537314891241" lon="11.759078328860156"><ele>387.5</ele><time>2026-03-22T11:13:37.998Z</time></trkpt><trkpt lat="42.54526016789684" lon="11.759161591550644"><ele>389.0</ele><time>2026-03-22T11:13:38.998Z</time></trkpt><trkpt lat="42.545148628899085" lon="11.759243347267054"><ele>390.5</ele><time>2026-03-22T11:13:39.998Z</time></trkpt><trkpt lat="42.545035098264975" lon="11.759317329950575"><ele>392.0</ele><time>2026-03-22T11:13:40.998Z</time></trkpt><trkpt lat="42.54492676616778" lon="11.759416438746797"><ele>392.0</ele><time>2026-03-22T11:13:41.998Z</time></trkpt><trkpt lat="42.54483798815336" lon="11.759557093047718"><ele>392.0</ele><time>2026-03-22T11:13:42.998Z</time></trkpt><trkpt lat="42.544758032250385" lon="11.759692229227104"><ele>392.0</ele><time>2026-03-22T11:13:44Z</time></trkpt><trkpt lat="42.54468665339138" lon="11.759833279199755"><ele>392.0</ele><time>2026-03-22T11:13:45Z</time></trkpt><trkpt lat="42.544610037301304" lon="11.759965748423694"><ele>397.25</ele><time>2026-03-22T11:13:46Z</time></trkpt><trkpt lat="42.54453724521795" lon="11.760099735328692"><ele>402.5</ele><time>2026-03-22T11:13:47Z</time></trkpt><trkpt lat="42.54445891003937" lon="11.760233010654195"><ele>407.75</ele><time>2026-03-22T11:13:48Z</time></trkpt><trkpt lat="42.54441934302788" lon="11.760393803126064"><ele>413.0</ele><time>2026-03-22T11:13:49Z</time></trkpt><trkpt lat="42.54440185164968" lon="11.760559649380562"><ele>413.0</ele><time>2026-03-22T11:13:50Z</time></trkpt><trkpt lat="42.544400711407775" lon="11.760733294142673"><ele>413.0</ele><time>2026-03-22T11:13:51Z</time></trkpt><trkpt lat="42.544410489332634" lon="11.760916172870381"><ele>413.0</ele><time>2026-03-22T11:13:52Z</time></trkpt><trkpt lat="42.54442803032686" lon="11.761101823326511"><ele>413.0</ele><time>2026-03-22T11:13:53Z</time></trkpt><trkpt lat="42.54444551436375" lon="11.761288259784278"><ele>413.5</ele><time>2026-03-22T11:13:54Z</time></trkpt><trkpt lat="42.54443558609877" lon="11.761470580835237"><ele>414.0</ele><time>2026-03-22T11:13:55Z</time></trkpt><trkpt lat="42.544446589886846" lon="11.761666979209963"><ele>414.5</ele><time>2026-03-22T11:13:56Z</time></trkpt><trkpt lat="42.544457406063074" lon="11.761854501031845"><ele>415.0</ele><time>2026-03-22T11:13:57Z</time></trkpt><trkpt lat="42.544468690554666" lon="11.76204713532214"><ele>416.0</ele><time>2026-03-22T11:13:58Z</time></trkpt><trkpt lat="42.54451470382556" lon="11.762231558394717"><ele>417.0</ele><time>2026-03-22T11:13:59Z</time></trkpt><trkpt lat="42.54453647319743" lon="11.762418008489897"><ele>418.0</ele><time>2026-03-22T11:14:00Z</time></trkpt><trkpt lat="42.54459137002485" lon="11.762591465384801"><ele>419.0</ele><time>2026-03-22T11:14:01Z</time></trkpt><trkpt lat="42.54464458348075" lon="11.762765223750197"><ele>419.0</ele><time>2026-03-22T11:14:02Z</time></trkpt><trkpt lat="42.54469215050888" lon="11.76293876591443"><ele>419.0</ele><time>2026-03-22T11:14:03Z</time></trkpt><trkpt lat="42.54473265611492" lon="11.763111971700965"><ele>419.0</ele><time>2026-03-22T11:14:04Z</time></trkpt><trkpt lat="42.54477337488764" lon="11.76328540211604"><ele>419.0</ele><time>2026-03-22T11:14:05Z</time></trkpt><trkpt lat="42.544819510173376" lon="11.763453129470786"><ele>420.75</ele><time>2026-03-22T11:14:06Z</time></trkpt><trkpt lat="42.54486703216094" lon="11.763621413941932"><ele>422.5</ele><time>2026-03-22T11:14:07Z</time></trkpt><trkpt lat="42.544913920037295" lon="11.763790690931506"><ele>424.25</ele><time>2026-03-22T11:14:08Z</time></trkpt><trkpt lat="42.54495607133811" lon="11.763962414147507"><ele>426.0</ele><time>2026-03-22T11:14:09Z</time></trkpt><trkpt lat="42.54500040142388" lon="11.764128408419202"><ele>426.0</ele><time>2026-03-22T11:14:10Z</time></trkpt><trkpt lat="42.54504946634803" lon="11.764288538008438"><ele>426.0</ele><time>2026-03-22T11:14:11Z</time></trkpt><trkpt lat="42.54508858746216" lon="11.764437085984726"><ele>426.0</ele><time>2026-03-22T11:14:12Z</time></trkpt><trkpt lat="42.54512778996147" lon="11.764568446853021"><ele>426.0</ele><time>2026-03-22T11:14:13Z</time></trkpt><trkpt lat="42.54516931573955" lon="11.764694447612172"><ele>426.4</ele><time>2026-03-22T11:14:14Z</time></trkpt><trkpt lat="42.54522304822855" lon="11.764815418265583"><ele>426.8</ele><time>2026-03-22T11:14:15Z</time></trkpt><trkpt lat="42.54529262191439" lon="11.764934700362783"><ele>427.19999999999993</ele><time>2026-03-22T11:14:16Z</time></trkpt><trkpt lat="42.54536475518558" lon="11.765050757927598"><ele>427.59999999999997</ele><time>2026-03-22T11:14:17Z</time></trkpt><trkpt lat="42.545440998627306" lon="11.765162645277165"><ele>428.0</ele><time>2026-03-22T11:14:18Z</time></trkpt><trkpt lat="42.54551877231495" lon="11.765273658055357"><ele>428.25</ele><time>2026-03-22T11:14:19Z</time></trkpt><trkpt lat="42.54559264917818" lon="11.765390121404176"><ele>428.5</ele><time>2026-03-22T11:14:20Z</time></trkpt><trkpt lat="42.54566778539117" lon="11.765507145687273"><ele>428.75</ele><time>2026-03-22T11:14:21Z</time></trkpt><trkpt lat="42.54574610306286" lon="11.765630763452053"><ele>429.0</ele><time>2026-03-22T11:14:22Z</time></trkpt><trkpt lat="42.54582114092879" lon="11.765758012700132"><ele>429.0</ele><time>2026-03-22T11:14:23Z</time></trkpt><trkpt lat="42.5458873384611" lon="11.765890203541517"><ele>429.0</ele><time>2026-03-22T11:14:24Z</time></trkpt><trkpt lat="42.54594298565789" lon="11.766030285241564"><ele>429.0</ele><time>2026-03-22T11:14:25Z</time></trkpt><trkpt lat="42.54599351659691" lon="11.766173517506543"><ele>429.0</ele><time>2026-03-22T11:14:26Z</time></trkpt><trkpt lat="42.54604157058067" lon="11.76632449233598"><ele>428.75</ele><time>2026-03-22T11:14:26.999Z</time></trkpt><trkpt lat="42.54607934383626" lon="11.766482400887966"><ele>428.5</ele><time>2026-03-22T11:14:27.999Z</time></trkpt><trkpt lat="42.546112844826524" lon="11.766645381994904"><ele>428.25</ele><time>2026-03-22T11:14:28.999Z</time></trkpt><trkpt lat="42.54613365372365" lon="11.766809665425336"><ele>428.0</ele><time>2026-03-22T11:14:29.999Z</time></trkpt><trkpt lat="42.54615097731622" lon="11.76697875636711"><ele>428.0</ele><time>2026-03-22T11:14:30.999Z</time></trkpt><trkpt lat="42.54616267053828" lon="11.767148438819058"><ele>428.0</ele><time>2026-03-22T11:14:31.999Z</time></trkpt><trkpt lat="42.54616623251309" lon="11.767324280948474"><ele>428.0</ele><time>2026-03-22T11:14:32.999Z</time></trkpt><trkpt lat="42.546173149263524" lon="11.767501915058466"><ele>428.0</ele><time>2026-03-22T11:14:33.999Z</time></trkpt><trkpt lat="42.54616974468872" lon="11.767681536991775"><ele>429.0</ele><time>2026-03-22T11:14:34.999Z</time></trkpt><trkpt lat="42.546206319505444" lon="11.767859502864905"><ele>430.0</ele><time>2026-03-22T11:14:35.999Z</time></trkpt><trkpt lat="42.546221239762005" lon="11.768042562122869"><ele>431.0</ele><time>2026-03-22T11:14:36.999Z</time></trkpt><trkpt lat="42.54623129199126" lon="11.76822677599588"><ele>432.0</ele><time>2026-03-22T11:14:37.999Z</time></trkpt><trkpt lat="42.546231629230924" lon="11.76840763247414"><ele>433.25</ele><time>2026-03-22T11:14:38.999Z</time></trkpt><trkpt lat="42.5462199026101" lon="11.768588719932673"><ele>434.5</ele><time>2026-03-22T11:14:39.999Z</time></trkpt><trkpt lat="42.54619782552665" lon="11.768767465404432"><ele>435.75</ele><time>2026-03-22T11:14:40.999Z</time></trkpt><trkpt lat="42.5461553002993" lon="11.768937992709905"><ele>437.0</ele><time>2026-03-22T11:14:41.999Z</time></trkpt><trkpt lat="42.54612260858437" lon="11.769114342435653"><ele>437.0</ele><time>2026-03-22T11:14:42.999Z</time></trkpt><trkpt lat="42.54608512341452" lon="11.769283874014306"><ele>437.0</ele><time>2026-03-22T11:14:43.999Z</time></trkpt><trkpt lat="42.54603939535549" lon="11.769457501042627"><ele>437.0</ele><time>2026-03-22T11:14:44.999Z</time></trkpt><trkpt lat="42.5459999955415" lon="11.769635843481577"><ele>437.0</ele><time>2026-03-22T11:14:45.999Z</time></trkpt><trkpt lat="42.54591857264607" lon="11.769790457855056"><ele>438.0</ele><time>2026-03-22T11:14:46.999Z</time></trkpt><trkpt lat="42.54584246372293" lon="11.769953478400673"><ele>439.0</ele><time>2026-03-22T11:14:47.999Z</time></trkpt><trkpt lat="42.54575588235756" lon="11.770124933166972"><ele>440.0</ele><time>2026-03-22T11:14:48.999Z</time></trkpt><trkpt lat="42.545673502859195" lon="11.770288067144705"><ele>441.0</ele><time>2026-03-22T11:14:49.999Z</time></trkpt><trkpt lat="42.54558930540785" lon="11.770454801142945"><ele>441.0</ele><time>2026-03-22T11:14:50.999Z</time></trkpt><trkpt lat="42.545508782569286" lon="11.770628721266634"><ele>441.0</ele><time>2026-03-22T11:14:51.999Z</time></trkpt><trkpt lat="42.545420822917116" lon="11.770805731835527"><ele>441.0</ele><time>2026-03-22T11:14:52.999Z</time></trkpt><trkpt lat="42.54533272892968" lon="11.770986501796292"><ele>441.0</ele><time>2026-03-22T11:14:53.999Z</time></trkpt><trkpt lat="42.545244957319" lon="11.771170755200094"><ele>441.0</ele><time>2026-03-22T11:14:54.999Z</time></trkpt><trkpt lat="42.54515337918751" lon="11.77135613060506"><ele>441.0</ele><time>2026-03-22T11:14:55.999Z</time></trkpt><trkpt lat="42.545060430543884" lon="11.771544413359134"><ele>441.0</ele><time>2026-03-22T11:14:56.999Z</time></trkpt><trkpt lat="42.54496987031354" lon="11.771740446011032"><ele>441.0</ele><time>2026-03-22T11:14:57.999Z</time></trkpt><trkpt lat="42.54487237119044" lon="11.771934633388343"><ele>441.0</ele><time>2026-03-22T11:14:58.999Z</time></trkpt><trkpt lat="42.544805429859736" lon="11.772151899893947"><ele>440.0</ele><time>2026-03-22T11:14:59.999Z</time></trkpt><trkpt lat="42.54477394588878" lon="11.772376151871555"><ele>439.0</ele><time>2026-03-22T11:15:00.999Z</time></trkpt><trkpt lat="42.544776019354664" lon="11.772589900058616"><ele>438.0</ele><time>2026-03-22T11:15:01.999Z</time></trkpt><trkpt lat="42.54478221375317" lon="11.772819057813711"><ele>437.66666666666663</ele><time>2026-03-22T11:15:02.999Z</time></trkpt><trkpt lat="42.54480518998714" lon="11.773053659808127"><ele>437.3333333333333</ele><time>2026-03-22T11:15:03.999Z</time></trkpt><trkpt lat="42.544850099830185" lon="11.773285533050297"><ele>437.0</ele><time>2026-03-22T11:15:04.999Z</time></trkpt><trkpt lat="42.54487424785566" lon="11.77351885939468"><ele>437.66666666666663</ele><time>2026-03-22T11:15:05.999Z</time></trkpt><trkpt lat="42.54493182586846" lon="11.773750516715362"><ele>438.33333333333337</ele><time>2026-03-22T11:15:06.999Z</time></trkpt><trkpt lat="42.54499304246131" lon="11.773978978736618"><ele>439.0</ele><time>2026-03-22T11:15:07.999Z</time></trkpt><trkpt lat="42.54505600887259" lon="11.77420796682955"><ele>438.0</ele><time>2026-03-22T11:15:08.999Z</time></trkpt><trkpt lat="42.54511588237419" lon="11.774443010665074"><ele>437.0</ele><time>2026-03-22T11:15:09.999Z</time></trkpt><trkpt lat="42.545156771968365" lon="11.774688102343749"><ele>436.0</ele><time>2026-03-22T11:15:10.999Z</time></trkpt><trkpt lat="42.54517830929718" lon="11.774951457124251"><ele>435.6666666666667</ele><time>2026-03-22T11:15:11.999Z</time></trkpt><trkpt lat="42.54519091444599" lon="11.77521660519102"><ele>435.33333333333337</ele><time>2026-03-22T11:15:12.999Z</time></trkpt><trkpt lat="42.54520230691305" lon="11.775485818958973"><ele>435.0</ele><time>2026-03-22T11:15:13.999Z</time></trkpt><trkpt lat="42.54521563707452" lon="11.775743830107924"><ele>435.0</ele><time>2026-03-22T11:15:14.999Z</time></trkpt><trkpt lat="42.54522980780613" lon="11.776008865967649"><ele>435.0</ele><time>2026-03-22T11:15:15.999Z</time></trkpt><trkpt lat="42.54524539813731" lon="11.776273200899627"><ele>435.0</ele><time>2026-03-22T11:15:16.999Z</time></trkpt><trkpt lat="42.545260878676764" lon="11.776535673791116"><ele>436.0</ele><time>2026-03-22T11:15:17.999Z</time></trkpt><trkpt lat="42.54527829397583" lon="11.776796172515706"><ele>437.0</ele><time>2026-03-22T11:15:18.999Z</time></trkpt><trkpt lat="42.54531092775891" lon="11.777056130281807"><ele>438.0</ele><time>2026-03-22T11:15:19.999Z</time></trkpt><trkpt lat="42.54536937249604" lon="11.777303946159206"><ele>437.66666666666663</ele><time>2026-03-22T11:15:20.999Z</time></trkpt><trkpt lat="42.545447930662576" lon="11.777542423425485"><ele>437.3333333333333</ele><time>2026-03-22T11:15:21.999Z</time></trkpt><trkpt lat="42.545539381550476" lon="11.777772154750073"><ele>437.0</ele><time>2026-03-22T11:15:22.999Z</time></trkpt><trkpt lat="42.54564931101376" lon="11.777992141010884"><ele>437.0</ele><time>2026-03-22T11:15:23.999Z</time></trkpt><trkpt lat="42.54578664461663" lon="11.778184482191948"><ele>437.0</ele><time>2026-03-22T11:15:24.999Z</time></trkpt><trkpt lat="42.545957617697276" lon="11.778323727567471"><ele>437.0</ele><time>2026-03-22T11:15:25.999Z</time></trkpt><trkpt lat="42.546131878799336" lon="11.778453323613062"><ele>437.0</ele><time>2026-03-22T11:15:26.999Z</time></trkpt><trkpt lat="42.54631325207529" lon="11.778558628034935"><ele>437.0</ele><time>2026-03-22T11:15:27.999Z</time></trkpt><trkpt lat="42.54648390715325" lon="11.778692966093908"><ele>437.0</ele><time>2026-03-22T11:15:28.998Z</time></trkpt><trkpt lat="42.5466595615051" lon="11.778792296001392"><ele>437.0</ele><time>2026-03-22T11:15:29.998Z</time></trkpt><trkpt lat="42.54681979121496" lon="11.77894044960249"><ele>437.0</ele><time>2026-03-22T11:15:30.998Z</time></trkpt><trkpt lat="42.54695153243731" lon="11.779138134838146"><ele>437.0</ele><time>2026-03-22T11:15:31.998Z</time></trkpt><trkpt lat="42.547070359284405" lon="11.779354554743207"><ele>438.0</ele><time>2026-03-22T11:15:32.998Z</time></trkpt><trkpt lat="42.547178174388165" lon="11.779585708891778"><ele>439.0</ele><time>2026-03-22T11:15:33.998Z</time></trkpt><trkpt lat="42.54728443189388" lon="11.779818841220939"><ele>440.0</ele><time>2026-03-22T11:15:34.998Z</time></trkpt><trkpt lat="42.54739161964984" lon="11.780054436378016"><ele>442.0</ele><time>2026-03-22T11:15:35.998Z</time></trkpt><trkpt lat="42.54749773421725" lon="11.780287672737872"><ele>444.0</ele><time>2026-03-22T11:15:36.998Z</time></trkpt><trkpt lat="42.54760303902425" lon="11.780519129272976"><ele>446.0</ele><time>2026-03-22T11:15:37.998Z</time></trkpt><trkpt lat="42.54770745301205" lon="11.780748941476704"><ele>446.0</ele><time>2026-03-22T11:15:38.998Z</time></trkpt><trkpt lat="42.54781179212356" lon="11.780978983176444"><ele>446.0</ele><time>2026-03-22T11:15:39.998Z</time></trkpt><trkpt lat="42.547915238410994" lon="11.781207469860972"><ele>446.0</ele><time>2026-03-22T11:15:40.998Z</time></trkpt><trkpt lat="42.54801811956102" lon="11.781435273960547"><ele>448.0</ele><time>2026-03-22T11:15:41.998Z</time></trkpt><trkpt lat="42.54811672985505" lon="11.781667403700187"><ele>450.0</ele><time>2026-03-22T11:15:42.998Z</time></trkpt><trkpt lat="42.5482093256413" lon="11.781900010624069"><ele>452.0</ele><time>2026-03-22T11:15:43.998Z</time></trkpt><trkpt lat="42.54831010964727" lon="11.782131736998764"><ele>453.3333333333333</ele><time>2026-03-22T11:15:44.998Z</time></trkpt><trkpt lat="42.5483858942439" lon="11.782383197916472"><ele>454.66666666666663</ele><time>2026-03-22T11:15:45.998Z</time></trkpt><trkpt lat="42.54844170882034" lon="11.78264504134127"><ele>456.0</ele><time>2026-03-22T11:15:46.998Z</time></trkpt><trkpt lat="42.548513287456366" lon="11.782904925925987"><ele>456.0</ele><time>2026-03-22T11:15:47.998Z</time></trkpt><trkpt lat="42.54859875415585" lon="11.783153235101196"><ele>456.0</ele><time>2026-03-22T11:15:49Z</time></trkpt><trkpt lat="42.54865319805382" lon="11.783412200966271"><ele>456.0</ele><time>2026-03-22T11:15:50Z</time></trkpt><trkpt lat="42.54872486884385" lon="11.783674789056226"><ele>457.66666666666663</ele><time>2026-03-22T11:15:51Z</time></trkpt><trkpt lat="42.548796567385516" lon="11.783937478702533"><ele>459.3333333333333</ele><time>2026-03-22T11:15:52Z</time></trkpt><trkpt lat="42.54886787955766" lon="11.784199029361773"><ele>461.0</ele><time>2026-03-22T11:15:53Z</time></trkpt><trkpt lat="42.548939012225155" lon="11.78446011299468"><ele>462.66666666666663</ele><time>2026-03-22T11:15:54Z</time></trkpt><trkpt lat="42.54901080007629" lon="11.784723601400412"><ele>464.33333333333337</ele><time>2026-03-22T11:15:55Z</time></trkpt><trkpt lat="42.549082299950314" lon="11.784986032719637"><ele>466.0</ele><time>2026-03-22T11:15:56Z</time></trkpt><trkpt lat="42.549154419355006" lon="11.785249211701803"><ele>466.33333333333337</ele><time>2026-03-22T11:15:57Z</time></trkpt><trkpt lat="42.549227635473095" lon="11.785515219112266"><ele>466.66666666666663</ele><time>2026-03-22T11:15:58Z</time></trkpt><trkpt lat="42.54930225661232" lon="11.785780725575924"><ele>467.0</ele><time>2026-03-22T11:15:59Z</time></trkpt><trkpt lat="42.549378918349696" lon="11.786043626628524"><ele>465.0</ele><time>2026-03-22T11:16:00Z</time></trkpt><trkpt lat="42.549456803624054" lon="11.786306828397326"><ele>463.0</ele><time>2026-03-22T11:16:01Z</time></trkpt><trkpt lat="42.54953478479591" lon="11.78657035441666"><ele>461.0</ele><time>2026-03-22T11:16:02Z</time></trkpt><trkpt lat="42.549611466053015" lon="11.786836678807894"><ele>460.3333333333333</ele><time>2026-03-22T11:16:03Z</time></trkpt><trkpt lat="42.5496829315767" lon="11.787106936415642"><ele>459.66666666666663</ele><time>2026-03-22T11:16:04Z</time></trkpt><trkpt lat="42.54974700393361" lon="11.787384009512069"><ele>459.0</ele><time>2026-03-22T11:16:05Z</time></trkpt><trkpt lat="42.5498031188776" lon="11.787665929497399"><ele>459.33333333333337</ele><time>2026-03-22T11:16:06Z</time></trkpt><trkpt lat="42.54984650499636" lon="11.787951589362887"><ele>459.6666666666667</ele><time>2026-03-22T11:16:07Z</time></trkpt><trkpt lat="42.54986475789513" lon="11.788242501788824"><ele>460.0</ele><time>2026-03-22T11:16:08Z</time></trkpt><trkpt lat="42.549862560753716" lon="11.788533519063197"><ele>460.33333333333337</ele><time>2026-03-22T11:16:09Z</time></trkpt><trkpt lat="42.549857502114584" lon="11.788824491915829"><ele>460.66666666666663</ele><time>2026-03-22T11:16:10Z</time></trkpt><trkpt lat="42.54985228767642" lon="11.789117375215524"><ele>461.0</ele><time>2026-03-22T11:16:11Z</time></trkpt><trkpt lat="42.549850269733426" lon="11.789406947723085"><ele>462.3333333333333</ele><time>2026-03-22T11:16:12Z</time></trkpt><trkpt lat="42.54984827982065" lon="11.78969249604254"><ele>463.66666666666663</ele><time>2026-03-22T11:16:13Z</time></trkpt><trkpt lat="42.54984631311011" lon="11.789974714890048"><ele>465.0</ele><time>2026-03-22T11:16:14Z</time></trkpt><trkpt lat="42.549852788023394" lon="11.790250315892399"><ele>465.0</ele><time>2026-03-22T11:16:15Z</time></trkpt><trkpt lat="42.55010763822009" lon="11.790509171677726"><ele>465.0</ele><time>2026-03-22T11:16:16Z</time></trkpt><trkpt lat="42.55021893451979" lon="11.790756597882572"><ele>465.0</ele><time>2026-03-22T11:16:17Z</time></trkpt><trkpt lat="42.55033889924978" lon="11.790997074064652"><ele>465.0</ele><time>2026-03-22T11:16:18Z</time></trkpt><trkpt lat="42.55045792506776" lon="11.791236571022358"><ele>465.0</ele><time>2026-03-22T11:16:19Z</time></trkpt><trkpt lat="42.55057423756668" lon="11.791476966973258"><ele>466.0</ele><time>2026-03-22T11:16:20Z</time></trkpt><trkpt lat="42.55069096392499" lon="11.791715262531678"><ele>467.0</ele><time>2026-03-22T11:16:21Z</time></trkpt><trkpt lat="42.550808566151574" lon="11.79195089352571"><ele>468.0</ele><time>2026-03-22T11:16:22Z</time></trkpt><trkpt lat="42.55093166091242" lon="11.792181224922274"><ele>471.0</ele><time>2026-03-22T11:16:23Z</time></trkpt><trkpt lat="42.55106336232016" lon="11.792403167091313"><ele>474.0</ele><time>2026-03-22T11:16:24Z</time></trkpt><trkpt lat="42.55119870240167" lon="11.792619384520155"><ele>477.0</ele><time>2026-03-22T11:16:25Z</time></trkpt><trkpt lat="42.551335744285375" lon="11.79282990199448"><ele>478.0</ele><time>2026-03-22T11:16:26Z</time></trkpt><trkpt lat="42.55147182946979" lon="11.793035922512747"><ele>479.0</ele><time>2026-03-22T11:16:27Z</time></trkpt><trkpt lat="42.551604862496994" lon="11.793241399484033"><ele>480.0</ele><time>2026-03-22T11:16:28Z</time></trkpt><trkpt lat="42.55173273358968" lon="11.793447061713142"><ele>480.66666666666663</ele><time>2026-03-22T11:16:29Z</time></trkpt><trkpt lat="42.55185763896133" lon="11.793659393343958"><ele>481.3333333333333</ele><time>2026-03-22T11:16:30Z</time></trkpt><trkpt lat="42.55197562823599" lon="11.793875215628331"><ele>482.0</ele><time>2026-03-22T11:16:31Z</time></trkpt><trkpt lat="42.55208437779702" lon="11.794102017778659"><ele>482.0</ele><time>2026-03-22T11:16:32Z</time></trkpt><trkpt lat="42.55218520841021" lon="11.794332183062396"><ele>482.0</ele><time>2026-03-22T11:16:33Z</time></trkpt><trkpt lat="42.55228497770543" lon="11.794571312381407"><ele>482.0</ele><time>2026-03-22T11:16:33.999Z</time></trkpt><trkpt lat="42.552394038345746" lon="11.79479599336486"><ele>483.3333333333333</ele><time>2026-03-22T11:16:34.999Z</time></trkpt><trkpt lat="42.552519692549886" lon="11.795012922916799"><ele>484.66666666666663</ele><time>2026-03-22T11:16:35.999Z</time></trkpt><trkpt lat="42.552666969008705" lon="11.795209364262108"><ele>486.0</ele><time>2026-03-22T11:16:36.999Z</time></trkpt><trkpt lat="42.55282801152283" lon="11.795396183343028"><ele>487.66666666666663</ele><time>2026-03-22T11:16:37.999Z</time></trkpt><trkpt lat="42.55299495115294" lon="11.795575913430943"><ele>489.3333333333333</ele><time>2026-03-22T11:16:38.999Z</time></trkpt><trkpt lat="42.553154206877664" lon="11.795762913864483"><ele>491.0</ele><time>2026-03-22T11:16:39.999Z</time></trkpt><trkpt lat="42.553293442398726" lon="11.795964994317652"><ele>492.3333333333333</ele><time>2026-03-22T11:16:40.999Z</time></trkpt><trkpt lat="42.553429797835996" lon="11.796172268455658"><ele>493.66666666666663</ele><time>2026-03-22T11:16:41.999Z</time></trkpt><trkpt lat="42.55356386294849" lon="11.796378572282507"><ele>495.0</ele><time>2026-03-22T11:16:42.999Z</time></trkpt><trkpt lat="42.55369921398399" lon="11.796581719593254"><ele>494.66666666666663</ele><time>2026-03-22T11:16:43.999Z</time></trkpt><trkpt lat="42.55383343347985" lon="11.796787176354224"><ele>494.3333333333333</ele><time>2026-03-22T11:16:44.999Z</time></trkpt><trkpt lat="42.55396725367399" lon="11.797000963732067"><ele>494.0</ele><time>2026-03-22T11:16:45.999Z</time></trkpt><trkpt lat="42.55410097682064" lon="11.797216925874258"><ele>495.3333333333333</ele><time>2026-03-22T11:16:46.999Z</time></trkpt><trkpt lat="42.55423210065402" lon="11.79743332455091"><ele>496.66666666666663</ele><time>2026-03-22T11:16:47.999Z</time></trkpt><trkpt lat="42.554355971866556" lon="11.797653385510815"><ele>498.0</ele><time>2026-03-22T11:16:48.999Z</time></trkpt><trkpt lat="42.554471876707325" lon="11.797884416506877"><ele>497.0</ele><time>2026-03-22T11:16:49.999Z</time></trkpt><trkpt lat="42.554581658526004" lon="11.798127079940581"><ele>496.0</ele><time>2026-03-22T11:16:50.999Z</time></trkpt><trkpt lat="42.554696945466006" lon="11.79836960131517"><ele>495.0</ele><time>2026-03-22T11:16:51.999Z</time></trkpt><trkpt lat="42.55482592545151" lon="11.798603384391926"><ele>495.0</ele><time>2026-03-22T11:16:52.999Z</time></trkpt><trkpt lat="42.55496955246251" lon="11.798821467032534"><ele>495.0</ele><time>2026-03-22T11:16:53.999Z</time></trkpt><trkpt lat="42.55512402677675" lon="11.799026341851869"><ele>495.0</ele><time>2026-03-22T11:16:54.999Z</time></trkpt><trkpt lat="42.55528727393672" lon="11.799222018194573"><ele>496.0</ele><time>2026-03-22T11:16:55.999Z</time></trkpt><trkpt lat="42.555459199375946" lon="11.799408004896211"><ele>497.0</ele><time>2026-03-22T11:16:56.999Z</time></trkpt><trkpt lat="42.555641177447015" lon="11.799581849143392"><ele>498.0</ele><time>2026-03-22T11:16:57.999Z</time></trkpt><trkpt lat="42.555822871570456" lon="11.799751026339164"><ele>498.0</ele><time>2026-03-22T11:16:58.999Z</time></trkpt><trkpt lat="42.5560044251455" lon="11.799922265358683"><ele>498.0</ele><time>2026-03-22T11:16:59.999Z</time></trkpt><trkpt lat="42.556184596976784" lon="11.800095459265899"><ele>498.0</ele><time>2026-03-22T11:17:00.999Z</time></trkpt><trkpt lat="42.556364419382795" lon="11.800269377597482"><ele>498.66666666666663</ele><time>2026-03-22T11:17:01.999Z</time></trkpt><trkpt lat="42.55654639539943" lon="11.800445470927153"><ele>499.3333333333333</ele><time>2026-03-22T11:17:02.999Z</time></trkpt><trkpt lat="42.55672513663223" lon="11.800620917300723"><ele>500.0</ele><time>2026-03-22T11:17:03.999Z</time></trkpt><trkpt lat="42.55689692532999" lon="11.800792729468265"><ele>501.3333333333333</ele><time>2026-03-22T11:17:04.999Z</time></trkpt><trkpt lat="42.55705292522725" lon="11.800964839778816"><ele>502.66666666666663</ele><time>2026-03-22T11:17:05.999Z</time></trkpt><trkpt lat="42.557189250961" lon="11.801154932963117"><ele>504.0</ele><time>2026-03-22T11:17:06.999Z</time></trkpt><trkpt lat="42.557304777623195" lon="11.80137089882135"><ele>504.33333333333337</ele><time>2026-03-22T11:17:07.999Z</time></trkpt><trkpt lat="42.55740154594491" lon="11.80160414836124"><ele>504.6666666666667</ele><time>2026-03-22T11:17:08.999Z</time></trkpt><trkpt lat="42.55748432971248" lon="11.801850979744309"><ele>505.0</ele><time>2026-03-22T11:17:09.999Z</time></trkpt><trkpt lat="42.5575700631428" lon="11.802097638110547"><ele>505.0</ele><time>2026-03-22T11:17:10.999Z</time></trkpt><trkpt lat="42.55765878825658" lon="11.802345903609718"><ele>505.0</ele><time>2026-03-22T11:17:11.999Z</time></trkpt><trkpt lat="42.55775080327508" lon="11.802593186186396"><ele>505.0</ele><time>2026-03-22T11:17:12.999Z</time></trkpt><trkpt lat="42.5578481653784" lon="11.802836951527247"><ele>503.6666666666667</ele><time>2026-03-22T11:17:13.999Z</time></trkpt><trkpt lat="42.55796051054464" lon="11.803067252980554"><ele>502.33333333333337</ele><time>2026-03-22T11:17:14.999Z</time></trkpt><trkpt lat="42.558100678874546" lon="11.803265272544682"><ele>501.0</ele><time>2026-03-22T11:17:15.999Z</time></trkpt><trkpt lat="42.5582633768985" lon="11.803422124874139"><ele>502.0</ele><time>2026-03-22T11:17:16.999Z</time></trkpt><trkpt lat="42.55842022741359" lon="11.803566473726622"><ele>503.0</ele><time>2026-03-22T11:17:17.999Z</time></trkpt><trkpt lat="42.558569727688074" lon="11.803718807596583"><ele>504.0</ele><time>2026-03-22T11:17:18.999Z</time></trkpt><trkpt lat="42.558708424129655" lon="11.803903123757133"><ele>505.0</ele><time>2026-03-22T11:17:19.999Z</time></trkpt><trkpt lat="42.5588229194895" lon="11.804117716637089"><ele>506.0</ele><time>2026-03-22T11:17:20.999Z</time></trkpt><trkpt lat="42.558878948579405" lon="11.804379873012637"><ele>507.0</ele><time>2026-03-22T11:17:21.999Z</time></trkpt><trkpt lat="42.55892959627897" lon="11.804628529249802"><ele>508.0</ele><time>2026-03-22T11:17:22.999Z</time></trkpt><trkpt lat="42.55895182207596" lon="11.804889668165591"><ele>509.0</ele><time>2026-03-22T11:17:23.999Z</time></trkpt><trkpt lat="42.5589187416261" lon="11.805151383194952"><ele>510.0</ele><time>2026-03-22T11:17:24.999Z</time></trkpt><trkpt lat="42.558886107642316" lon="11.805413338596114"><ele>510.0</ele><time>2026-03-22T11:17:25.999Z</time></trkpt><trkpt lat="42.55886037262977" lon="11.805686573626046"><ele>510.0</ele><time>2026-03-22T11:17:26.999Z</time></trkpt><trkpt lat="42.5588338431516" lon="11.805954654815624"><ele>510.0</ele><time>2026-03-22T11:17:27.999Z</time></trkpt><trkpt lat="42.558825470869664" lon="11.806228407613814"><ele>510.66666666666663</ele><time>2026-03-22T11:17:28.999Z</time></trkpt><trkpt lat="42.55881575937886" lon="11.806502293326592"><ele>511.3333333333333</ele><time>2026-03-22T11:17:29.999Z</time></trkpt><trkpt lat="42.55880362780879" lon="11.806763662359382"><ele>512.0</ele><time>2026-03-22T11:17:30.999Z</time></trkpt><trkpt lat="42.558792793243576" lon="11.807018196804126"><ele>514.3333333333333</ele><time>2026-03-22T11:17:31.999Z</time></trkpt><trkpt lat="42.558800430846475" lon="11.807263608494043"><ele>516.6666666666666</ele><time>2026-03-22T11:17:32.999Z</time></trkpt><trkpt lat="42.55882812666626" lon="11.807502854946543"><ele>519.0</ele><time>2026-03-22T11:17:33.999Z</time></trkpt><trkpt lat="42.55887599955426" lon="11.807744071945779"><ele>519.3333333333334</ele><time>2026-03-22T11:17:34.999Z</time></trkpt><trkpt lat="42.558950776923645" lon="11.807964653029094"><ele>519.6666666666667</ele><time>2026-03-22T11:17:35.999Z</time></trkpt><trkpt lat="42.55906421785924" lon="11.808183352946875"><ele>520.0</ele><time>2026-03-22T11:17:36.998Z</time></trkpt><trkpt lat="42.5591796388243" lon="11.808394744581115"><ele>520.3333333333334</ele><time>2026-03-22T11:17:37.998Z</time></trkpt><trkpt lat="42.55927558320487" lon="11.80860250729193"><ele>520.6666666666666</ele><time>2026-03-22T11:17:38.998Z</time></trkpt><trkpt lat="42.559341815442444" lon="11.80884139672103"><ele>521.0</ele><time>2026-03-22T11:17:39.998Z</time></trkpt><trkpt lat="42.559385872923684" lon="11.809093260949433"><ele>520.0</ele><time>2026-03-22T11:17:40.998Z</time></trkpt><trkpt lat="42.559424888906484" lon="11.809349000004378"><ele>519.0</ele><time>2026-03-22T11:17:41.998Z</time></trkpt><trkpt lat="42.55947341847941" lon="11.809594205517165"><ele>518.0</ele><time>2026-03-22T11:17:42.998Z</time></trkpt><trkpt lat="42.55951133626073" lon="11.809826264347969"><ele>518.0</ele><time>2026-03-22T11:17:43.998Z</time></trkpt><trkpt lat="42.55952402701678" lon="11.810048027562674"><ele>518.0</ele><time>2026-03-22T11:17:44.998Z</time></trkpt><trkpt lat="42.55951383656061" lon="11.810242678401488"><ele>518.0</ele><time>2026-03-22T11:17:45.998Z</time></trkpt><trkpt lat="42.55948409884289" lon="11.81040644913025"><ele>518.0</ele><time>2026-03-22T11:17:46.998Z</time></trkpt><trkpt lat="42.5594489533182" lon="11.810549205520587"><ele>518.3333333333333</ele><time>2026-03-22T11:17:47.998Z</time></trkpt><trkpt lat="42.5594246841198" lon="11.810664697929298"><ele>518.6666666666666</ele><time>2026-03-22T11:17:48.998Z</time></trkpt><trkpt lat="42.559422185126635" lon="11.810754648386148"><ele>519.0</ele><time>2026-03-22T11:17:49.998Z</time></trkpt><trkpt lat="42.5594296750168" lon="11.810843174644463"><ele>519.3333333333334</ele><time>2026-03-22T11:17:53.998Z</time></trkpt><trkpt lat="42.55954263204048" lon="11.810935674180172"><ele>519.6666666666667</ele><time>2026-03-22T11:17:55Z</time></trkpt><trkpt lat="42.559608147587426" lon="11.81095000219272"><ele>520.0</ele><time>2026-03-22T11:17:56Z</time></trkpt><trkpt lat="42.55968877576009" lon="11.810958290276538"><ele>520.0</ele><time>2026-03-22T11:17:57Z</time></trkpt><trkpt lat="42.55978148280905" lon="11.810987143909356"><ele>520.0</ele><time>2026-03-22T11:17:58Z</time></trkpt><trkpt lat="42.55988532545496" lon="11.811016870702215"><ele>520.0</ele><time>2026-03-22T11:17:59Z</time></trkpt><trkpt lat="42.55999926094424" lon="11.811061232363505"><ele>520.0</ele><time>2026-03-22T11:18:00Z</time></trkpt><trkpt lat="42.560109184482506" lon="11.811108859068685"><ele>520.0</ele><time>2026-03-22T11:18:01Z</time></trkpt><trkpt lat="42.560226167477225" lon="11.811163673784195"><ele>520.75</ele><time>2026-03-22T11:18:02Z</time></trkpt><trkpt lat="42.56035370347814" lon="11.811226074918764"><ele>521.5</ele><time>2026-03-22T11:18:03Z</time></trkpt><trkpt lat="42.56047655974195" lon="11.811310918454684"><ele>522.25</ele><time>2026-03-22T11:18:04Z</time></trkpt><trkpt lat="42.560612794250574" lon="11.81139925073063"><ele>523.0</ele><time>2026-03-22T11:18:05Z</time></trkpt><trkpt lat="42.56074585656445" lon="11.811499908277492"><ele>521.0</ele><time>2026-03-22T11:18:06Z</time></trkpt><trkpt lat="42.56088627722382" lon="11.811613675851552"><ele>519.0</ele><time>2026-03-22T11:18:07Z</time></trkpt><trkpt lat="42.561029277855006" lon="11.811718249061064"><ele>517.0</ele><time>2026-03-22T11:18:08Z</time></trkpt><trkpt lat="42.56116347510881" lon="11.811853968567169"><ele>516.0</ele><time>2026-03-22T11:18:09Z</time></trkpt><trkpt lat="42.56128805982679" lon="11.812016310765726"><ele>515.0</ele><time>2026-03-22T11:18:10Z</time></trkpt><trkpt lat="42.56141912937804" lon="11.812169654142997"><ele>514.0</ele><time>2026-03-22T11:18:11Z</time></trkpt><trkpt lat="42.56154679166844" lon="11.81233922910563"><ele>514.0</ele><time>2026-03-22T11:18:12Z</time></trkpt><trkpt lat="42.56167128060345" lon="11.812520146230518"><ele>514.0</ele><time>2026-03-22T11:18:13Z</time></trkpt><trkpt lat="42.56178976364634" lon="11.812713387042535"><ele>514.0</ele><time>2026-03-22T11:18:14Z</time></trkpt><trkpt lat="42.56191527404893" lon="11.812911877094965"><ele>513.3333333333334</ele><time>2026-03-22T11:18:15Z</time></trkpt><trkpt lat="42.562021580912386" lon="11.8131363707725"><ele>512.6666666666666</ele><time>2026-03-22T11:18:16Z</time></trkpt><trkpt lat="42.56212667540469" lon="11.813365838791945"><ele>512.0</ele><time>2026-03-22T11:18:17Z</time></trkpt><trkpt lat="42.562233890454294" lon="11.81359674750356"><ele>511.66666666666663</ele><time>2026-03-22T11:18:18Z</time></trkpt><trkpt lat="42.56234440017278" lon="11.81383340133328"><ele>511.33333333333337</ele><time>2026-03-22T11:18:19Z</time></trkpt><trkpt lat="42.56245599440693" lon="11.814069989691479"><ele>511.0</ele><time>2026-03-22T11:18:20Z</time></trkpt><trkpt lat="42.562562286627134" lon="11.81429387199567"><ele>514.6666666666667</ele><time>2026-03-22T11:18:21Z</time></trkpt><trkpt lat="42.562666626315206" lon="11.814535204710715"><ele>518.3333333333334</ele><time>2026-03-22T11:18:22Z</time></trkpt><trkpt lat="42.56278518785879" lon="11.814767932277896"><ele>522.0</ele><time>2026-03-22T11:18:23Z</time></trkpt><trkpt lat="42.56289988816666" lon="11.815012074207953"><ele>521.3333333333334</ele><time>2026-03-22T11:18:24Z</time></trkpt><trkpt lat="42.563009786878716" lon="11.81525242698682"><ele>520.6666666666667</ele><time>2026-03-22T11:18:25Z</time></trkpt><trkpt lat="42.563121317124796" lon="11.81549295896173"><ele>520.0</ele><time>2026-03-22T11:18:26Z</time></trkpt><trkpt lat="42.56322939102715" lon="11.815730003357633"><ele>520.0</ele><time>2026-03-22T11:18:27Z</time></trkpt><trkpt lat="42.56333857022901" lon="11.81596341379568"><ele>520.0</ele><time>2026-03-22T11:18:28Z</time></trkpt><trkpt lat="42.56344538167009" lon="11.816192633628363"><ele>520.0</ele><time>2026-03-22T11:18:29Z</time></trkpt><trkpt lat="42.56355226207076" lon="11.816425643257016"><ele>519.0</ele><time>2026-03-22T11:18:30Z</time></trkpt><trkpt lat="42.56366082706309" lon="11.816651655689041"><ele>518.0</ele><time>2026-03-22T11:18:31Z</time></trkpt><trkpt lat="42.563768735863825" lon="11.816868744676642"><ele>517.0</ele><time>2026-03-22T11:18:32Z</time></trkpt><trkpt lat="42.56389284359472" lon="11.817071849541938"><ele>517.0</ele><time>2026-03-22T11:18:33Z</time></trkpt><trkpt lat="42.56403257094993" lon="11.817255801483286"><ele>517.0</ele><time>2026-03-22T11:18:34Z</time></trkpt><trkpt lat="42.564177831615005" lon="11.817428163446376"><ele>517.0</ele><time>2026-03-22T11:18:35Z</time></trkpt><trkpt lat="42.56431873850864" lon="11.81758865590112"><ele>517.3333333333334</ele><time>2026-03-22T11:18:36Z</time></trkpt><trkpt lat="42.564459392777884" lon="11.817742343157523"><ele>517.6666666666666</ele><time>2026-03-22T11:18:37Z</time></trkpt><trkpt lat="42.56459045878122" lon="11.817881842882919"><ele>518.0</ele><time>2026-03-22T11:18:38Z</time></trkpt><trkpt lat="42.56471785190026" lon="11.818000681023177"><ele>518.0</ele><time>2026-03-22T11:18:39Z</time></trkpt><trkpt lat="42.564850052847014" lon="11.818100645118049"><ele>518.0</ele><time>2026-03-22T11:18:40Z</time></trkpt><trkpt lat="42.564990861107255" lon="11.818177901166113"><ele>518.0</ele><time>2026-03-22T11:18:41Z</time></trkpt><trkpt lat="42.56513342181354" lon="11.818209806915831"><ele>518.0</ele><time>2026-03-22T11:18:42Z</time></trkpt><trkpt lat="42.565280654999455" lon="11.818257147510304"><ele>517.75</ele><time>2026-03-22T11:18:43Z</time></trkpt><trkpt lat="42.56543704980719" lon="11.818276741819076"><ele>517.5</ele><time>2026-03-22T11:18:43.999Z</time></trkpt><trkpt lat="42.56558172401986" lon="11.818283394460028"><ele>517.25</ele><time>2026-03-22T11:18:44.999Z</time></trkpt><trkpt lat="42.56571977986587" lon="11.818287613122347"><ele>517.0</ele><time>2026-03-22T11:18:45.999Z</time></trkpt><trkpt lat="42.56585114070968" lon="11.81829193305081"><ele>517.0</ele><time>2026-03-22T11:18:46.999Z</time></trkpt><trkpt lat="42.565980268981306" lon="11.818288905434589"><ele>517.0</ele><time>2026-03-22T11:18:47.999Z</time></trkpt><trkpt lat="42.56609383770782" lon="11.818297993729555"><ele>517.0</ele><time>2026-03-22T11:18:48.999Z</time></trkpt><trkpt lat="42.56618293561887" lon="11.818317730598286"><ele>517.0</ele><time>2026-03-22T11:18:49.999Z</time></trkpt><trkpt lat="42.566271643630685" lon="11.818353946677448"><ele>517.0</ele><time>2026-03-22T11:18:50.999Z</time></trkpt><trkpt lat="42.566359651961235" lon="11.818407336330928"><ele>517.0</ele><time>2026-03-22T11:18:51.999Z</time></trkpt><trkpt lat="42.56640795241679" lon="11.818480444249811"><ele>517.0</ele><time>2026-03-22T11:18:52.999Z</time></trkpt><trkpt lat="42.56642407773952" lon="11.818588432373843"><ele>517.0</ele><time>2026-03-22T11:18:53.999Z</time></trkpt><trkpt lat="42.56641722306874" lon="11.818679496991248"><ele>517.0</ele><time>2026-03-22T11:18:54.999Z</time></trkpt><trkpt lat="42.56640375536789" lon="11.818802856203542"><ele>517.0</ele><time>2026-03-22T11:18:55.999Z</time></trkpt><trkpt lat="42.56638693252439" lon="11.818929380830351"><ele>517.0</ele><time>2026-03-22T11:18:56.999Z</time></trkpt><trkpt lat="42.5663792933301" lon="11.819075119000377"><ele>517.0</ele><time>2026-03-22T11:18:57.999Z</time></trkpt><trkpt lat="42.56637512257389" lon="11.819214020599249"><ele>517.0</ele><time>2026-03-22T11:18:58.999Z</time></trkpt><trkpt lat="42.566369324783885" lon="11.8193562055718"><ele>517.0</ele><time>2026-03-22T11:18:59.999Z</time></trkpt><trkpt lat="42.56636500238527" lon="11.81950835850532"><ele>517.0</ele><time>2026-03-22T11:19:00.999Z</time></trkpt><trkpt lat="42.56636321515781" lon="11.819639780219354"><ele>517.0</ele><time>2026-03-22T11:19:01.999Z</time></trkpt><trkpt lat="42.566357869365675" lon="11.819792671160526"><ele>517.2</ele><time>2026-03-22T11:19:02.999Z</time></trkpt><trkpt lat="42.56633751356104" lon="11.81992515723702"><ele>517.4000000000001</ele><time>2026-03-22T11:19:03.999Z</time></trkpt><trkpt lat="42.56631575605043" lon="11.82005793760055"><ele>517.5999999999999</ele><time>2026-03-22T11:19:04.999Z</time></trkpt><trkpt lat="42.56630109401052" lon="11.8201961646702"><ele>517.8</ele><time>2026-03-22T11:19:05.999Z</time></trkpt><trkpt lat="42.56629082378281" lon="11.820339850257277"><ele>518.0</ele><time>2026-03-22T11:19:06.999Z</time></trkpt><trkpt lat="42.566278381899586" lon="11.820470647822706"><ele>519.0</ele><time>2026-03-22T11:19:07.999Z</time></trkpt><trkpt lat="42.56625984772499" lon="11.82062356116571"><ele>520.0</ele><time>2026-03-22T11:19:08.999Z</time></trkpt><trkpt lat="42.566248709906716" lon="11.820767575812308"><ele>521.0</ele><time>2026-03-22T11:19:09.999Z</time></trkpt><trkpt lat="42.56624062224601" lon="11.82093315580179"><ele>522.0</ele><time>2026-03-22T11:19:10.999Z</time></trkpt><trkpt lat="42.566234414945896" lon="11.821090200917425"><ele>522.25</ele><time>2026-03-22T11:19:11.999Z</time></trkpt><trkpt lat="42.566223368975045" lon="11.821253357627462"><ele>522.5</ele><time>2026-03-22T11:19:12.999Z</time></trkpt><trkpt lat="42.56621145512994" lon="11.821428628343012"><ele>522.75</ele><time>2026-03-22T11:19:13.999Z</time></trkpt><trkpt lat="42.56620311781592" lon="11.821587032286404"><ele>523.0</ele><time>2026-03-22T11:19:14.999Z</time></trkpt><trkpt lat="42.56619430885549" lon="11.821750609879729"><ele>526.0</ele><time>2026-03-22T11:19:15.999Z</time></trkpt><trkpt lat="42.56618672852147" lon="11.821909605496838"><ele>529.0</ele><time>2026-03-22T11:19:16.999Z</time></trkpt><trkpt lat="42.56617521053101" lon="11.822079900734954"><ele>532.0</ele><time>2026-03-22T11:19:17.999Z</time></trkpt><trkpt lat="42.566164024222516" lon="11.822259106853839"><ele>535.0</ele><time>2026-03-22T11:19:18.999Z</time></trkpt><trkpt lat="42.56614799491442" lon="11.822460005446928"><ele>534.5</ele><time>2026-03-22T11:19:19.999Z</time></trkpt><trkpt lat="42.56613619856059" lon="11.822648205902308"><ele>534.0</ele><time>2026-03-22T11:19:20.999Z</time></trkpt><trkpt lat="42.56612565768475" lon="11.822840083544564"><ele>533.5</ele><time>2026-03-22T11:19:21.999Z</time></trkpt><trkpt lat="42.566114920531156" lon="11.823006548923235"><ele>533.0</ele><time>2026-03-22T11:19:22.999Z</time></trkpt><trkpt lat="42.56611285513438" lon="11.823155196867349"><ele>533.0</ele><time>2026-03-22T11:19:23.999Z</time></trkpt><trkpt lat="42.56611400874827" lon="11.823297081245173"><ele>533.0</ele><time>2026-03-22T11:19:24.999Z</time></trkpt><trkpt lat="42.56609381808454" lon="11.82342850050233"><ele>533.0</ele><time>2026-03-22T11:19:25.999Z</time></trkpt><trkpt lat="42.566101435037076" lon="11.82358776434746"><ele>533.0</ele><time>2026-03-22T11:19:26.999Z</time></trkpt><trkpt lat="42.5661454666566" lon="11.823738537244857"><ele>533.0</ele><time>2026-03-22T11:19:27.999Z</time></trkpt><trkpt lat="42.56621324476216" lon="11.82386340853199"><ele>532.25</ele><time>2026-03-22T11:19:28.999Z</time></trkpt><trkpt lat="42.5663048726511" lon="11.823985966756029"><ele>531.5</ele><time>2026-03-22T11:19:29.999Z</time></trkpt><trkpt lat="42.56645927241981" lon="11.824016620493653"><ele>530.75</ele><time>2026-03-22T11:19:30.999Z</time></trkpt><trkpt lat="42.56655080439509" lon="11.824143496396717"><ele>530.0</ele><time>2026-03-22T11:19:31.999Z</time></trkpt><trkpt lat="42.56663515694227" lon="11.824257711994463"><ele>529.75</ele><time>2026-03-22T11:19:32.999Z</time></trkpt><trkpt lat="42.566725549215185" lon="11.824394813012914"><ele>529.5</ele><time>2026-03-22T11:19:33.999Z</time></trkpt><trkpt lat="42.56680741376215" lon="11.824499500566308"><ele>529.25</ele><time>2026-03-22T11:19:34.999Z</time></trkpt><trkpt lat="42.56689437186301" lon="11.824615371754401"><ele>529.0</ele><time>2026-03-22T11:19:35.999Z</time></trkpt><trkpt lat="42.56698101367047" lon="11.824721997896411"><ele>527.5</ele><time>2026-03-22T11:19:36.999Z</time></trkpt><trkpt lat="42.5670489098608" lon="11.824856243720344"><ele>526.0</ele><time>2026-03-22T11:19:37.999Z</time></trkpt><trkpt lat="42.56714000846797" lon="11.824959394428454"><ele>524.5</ele><time>2026-03-22T11:19:38.999Z</time></trkpt><trkpt lat="42.56722908502174" lon="11.825060289697836"><ele>523.0</ele><time>2026-03-22T11:19:39.999Z</time></trkpt><trkpt lat="42.567319982242" lon="11.825163416673888"><ele>522.25</ele><time>2026-03-22T11:19:40.999Z</time></trkpt><trkpt lat="42.56741049198662" lon="11.825266103999954"><ele>521.5</ele><time>2026-03-22T11:19:41.999Z</time></trkpt><trkpt lat="42.56750594744689" lon="11.825374402482561"><ele>520.75</ele><time>2026-03-22T11:19:42.999Z</time></trkpt><trkpt lat="42.567603897233425" lon="11.825485530906594"><ele>520.0</ele><time>2026-03-22T11:19:43.999Z</time></trkpt><trkpt lat="42.5677029865785" lon="11.825597952418004"><ele>520.0</ele><time>2026-03-22T11:19:44.999Z</time></trkpt><trkpt lat="42.5678027889218" lon="11.825709916227432"><ele>520.0</ele><time>2026-03-22T11:19:45.998Z</time></trkpt><trkpt lat="42.56790383579201" lon="11.825823547523418"><ele>520.0</ele><time>2026-03-22T11:19:46.998Z</time></trkpt><trkpt lat="42.568005900038955" lon="11.825938322907527"><ele>520.0</ele><time>2026-03-22T11:19:47.998Z</time></trkpt><trkpt lat="42.5681077758047" lon="11.826052680472126"><ele>520.0</ele><time>2026-03-22T11:19:48.998Z</time></trkpt><trkpt lat="42.568209194269656" lon="11.826165844673334"><ele>520.0</ele><time>2026-03-22T11:19:49.998Z</time></trkpt><trkpt lat="42.56831327504137" lon="11.82628260252956"><ele>520.0</ele><time>2026-03-22T11:19:50.998Z</time></trkpt><trkpt lat="42.56841717134479" lon="11.826401263046433"><ele>520.0</ele><time>2026-03-22T11:19:51.998Z</time></trkpt><trkpt lat="42.56852084516245" lon="11.82651966946135"><ele>520.0</ele><time>2026-03-22T11:19:52.998Z</time></trkpt><trkpt lat="42.568622507887184" lon="11.82663563079535"><ele>520.0</ele><time>2026-03-22T11:19:53.998Z</time></trkpt><trkpt lat="42.568726337036935" lon="11.826752661690653"><ele>520.0</ele><time>2026-03-22T11:19:54.998Z</time></trkpt><trkpt lat="42.56884067980329" lon="11.82685260062535"><ele>520.0</ele><time>2026-03-22T11:19:55.998Z</time></trkpt><trkpt lat="42.56893369084513" lon="11.826986380273528"><ele>519.25</ele><time>2026-03-22T11:19:56.998Z</time></trkpt><trkpt lat="42.569044160805205" lon="11.827102651641388"><ele>518.5</ele><time>2026-03-22T11:19:57.998Z</time></trkpt><trkpt lat="42.56915844527351" lon="11.827202107000188"><ele>517.75</ele><time>2026-03-22T11:19:58.998Z</time></trkpt><trkpt lat="42.56928858930828" lon="11.827278277603822"><ele>517.0</ele><time>2026-03-22T11:20:00Z</time></trkpt><trkpt lat="42.56940602649773" lon="11.827373471935116"><ele>517.0</ele><time>2026-03-22T11:20:01Z</time></trkpt><trkpt lat="42.56952350249807" lon="11.827487548177265"><ele>517.0</ele><time>2026-03-22T11:20:02Z</time></trkpt><trkpt lat="42.56964978373554" lon="11.827578001084415"><ele>517.0</ele><time>2026-03-22T11:20:03Z</time></trkpt><trkpt lat="42.569773129575296" lon="11.827670979608762"><ele>517.0</ele><time>2026-03-22T11:20:04Z</time></trkpt><trkpt lat="42.569899620168265" lon="11.827767539914376"><ele>514.5</ele><time>2026-03-22T11:20:05Z</time></trkpt><trkpt lat="42.57002777050897" lon="11.827866181676017"><ele>512.0</ele><time>2026-03-22T11:20:06Z</time></trkpt><trkpt lat="42.57015623860262" lon="11.827962586198478"><ele>509.5</ele><time>2026-03-22T11:20:07Z</time></trkpt><trkpt lat="42.57028960285978" lon="11.828060829034824"><ele>507.0</ele><time>2026-03-22T11:20:08Z</time></trkpt><trkpt lat="42.5704179504441" lon="11.828155029695795"><ele>507.0</ele><time>2026-03-22T11:20:09Z</time></trkpt><trkpt lat="42.57054975626152" lon="11.828249134370937"><ele>507.0</ele><time>2026-03-22T11:20:10Z</time></trkpt><trkpt lat="42.57068464809548" lon="11.828337300702444"><ele>507.0</ele><time>2026-03-22T11:20:11Z</time></trkpt><trkpt lat="42.57081578907571" lon="11.828441769991713"><ele>506.66666666666663</ele><time>2026-03-22T11:20:12Z</time></trkpt><trkpt lat="42.57095083859415" lon="11.82854157456972"><ele>506.3333333333333</ele><time>2026-03-22T11:20:13Z</time></trkpt><trkpt lat="42.571091989218345" lon="11.828645186893155"><ele>506.0</ele><time>2026-03-22T11:20:14Z</time></trkpt><trkpt lat="42.5712352567142" lon="11.828750353119446"><ele>505.0</ele><time>2026-03-22T11:20:15Z</time></trkpt><trkpt lat="42.57138749001912" lon="11.828841387777466"><ele>504.0</ele><time>2026-03-22T11:20:16Z</time></trkpt><trkpt lat="42.57153485068139" lon="11.828953718455846"><ele>503.0</ele><time>2026-03-22T11:20:17Z</time></trkpt><trkpt lat="42.57168284723468" lon="11.829068288583162"><ele>503.0</ele><time>2026-03-22T11:20:18Z</time></trkpt><trkpt lat="42.571824018929156" lon="11.829174644432804"><ele>503.0</ele><time>2026-03-22T11:20:19Z</time></trkpt><trkpt lat="42.57196242794927" lon="11.829271715661799"><ele>503.0</ele><time>2026-03-22T11:20:20Z</time></trkpt><trkpt lat="42.5720979569767" lon="11.829366389006188"><ele>499.0</ele><time>2026-03-22T11:20:21Z</time></trkpt><trkpt lat="42.57223286021945" lon="11.829468752750964"><ele>495.0</ele><time>2026-03-22T11:20:22Z</time></trkpt><trkpt lat="42.572369242242985" lon="11.829572392218385"><ele>491.0</ele><time>2026-03-22T11:20:23Z</time></trkpt><trkpt lat="42.572507484428435" lon="11.829678343972402"><ele>491.0</ele><time>2026-03-22T11:20:24Z</time></trkpt><trkpt lat="42.572650065835425" lon="11.829784054844344"><ele>491.0</ele><time>2026-03-22T11:20:25Z</time></trkpt><trkpt lat="42.572797556767746" lon="11.829894908051156"><ele>491.0</ele><time>2026-03-22T11:20:26Z</time></trkpt><trkpt lat="42.572946733707504" lon="11.830002337788795"><ele>491.0</ele><time>2026-03-22T11:20:27Z</time></trkpt><trkpt lat="42.573096260956476" lon="11.830115387226241"><ele>491.0</ele><time>2026-03-22T11:20:28Z</time></trkpt><trkpt lat="42.5732367751164" lon="11.83024887293625"><ele>491.0</ele><time>2026-03-22T11:20:29Z</time></trkpt><trkpt lat="42.57338825694316" lon="11.8303655288633"><ele>491.3333333333333</ele><time>2026-03-22T11:20:30Z</time></trkpt><trkpt lat="42.57354205830543" lon="11.830479588438427"><ele>491.66666666666663</ele><time>2026-03-22T11:20:31Z</time></trkpt><trkpt lat="42.57369526700386" lon="11.83059320851752"><ele>492.0</ele><time>2026-03-22T11:20:32Z</time></trkpt><trkpt lat="42.57384920200908" lon="11.830707367223283"><ele>492.0</ele><time>2026-03-22T11:20:33Z</time></trkpt><trkpt lat="42.574011969457146" lon="11.830802553612484"><ele>492.0</ele><time>2026-03-22T11:20:34Z</time></trkpt><trkpt lat="42.57415792212241" lon="11.830939074919609"><ele>492.0</ele><time>2026-03-22T11:20:35Z</time></trkpt><trkpt lat="42.57431355058189" lon="11.831051518298429"><ele>492.66666666666663</ele><time>2026-03-22T11:20:36Z</time></trkpt><trkpt lat="42.57447146373701" lon="11.831159689763211"><ele>493.3333333333333</ele><time>2026-03-22T11:20:37Z</time></trkpt><trkpt lat="42.57464367009538" lon="11.831235342384565"><ele>494.0</ele><time>2026-03-22T11:20:38Z</time></trkpt><trkpt lat="42.57481313807599" lon="11.831319785582144"><ele>494.0</ele><time>2026-03-22T11:20:39Z</time></trkpt><trkpt lat="42.57498992092935" lon="11.831389317734798"><ele>494.0</ele><time>2026-03-22T11:20:40Z</time></trkpt><trkpt lat="42.575172193441304" lon="11.831445681997117"><ele>494.0</ele><time>2026-03-22T11:20:41Z</time></trkpt><trkpt lat="42.575355760569764" lon="11.831521684728697"><ele>492.66666666666663</ele><time>2026-03-22T11:20:42Z</time></trkpt><trkpt lat="42.57554561290623" lon="11.831570834551517"><ele>491.33333333333337</ele><time>2026-03-22T11:20:43Z</time></trkpt><trkpt lat="42.57573440117224" lon="11.831617158172545"><ele>490.0</ele><time>2026-03-22T11:20:44Z</time></trkpt><trkpt lat="42.575917573973605" lon="11.831662103907949"><ele>490.0</ele><time>2026-03-22T11:20:45Z</time></trkpt><trkpt lat="42.57609230111518" lon="11.83170591059312"><ele>490.0</ele><time>2026-03-22T11:20:46Z</time></trkpt><trkpt lat="42.576267896011984" lon="11.831750643496447"><ele>490.0</ele><time>2026-03-22T11:20:47Z</time></trkpt><trkpt lat="42.57644981347068" lon="11.831797546032849"><ele>487.0</ele><time>2026-03-22T11:20:48Z</time></trkpt><trkpt lat="42.576634861131694" lon="11.831823354343301"><ele>484.0</ele><time>2026-03-22T11:20:48.999Z</time></trkpt><trkpt lat="42.57682346668243" lon="11.831881940341436"><ele>481.0</ele><time>2026-03-22T11:20:49.999Z</time></trkpt><trkpt lat="42.57701436807789" lon="11.831923709583892"><ele>483.33333333333337</ele><time>2026-03-22T11:20:50.999Z</time></trkpt><trkpt lat="42.57720238846952" lon="11.831987472910834"><ele>485.66666666666663</ele><time>2026-03-22T11:20:51.999Z</time></trkpt><trkpt lat="42.57739375107361" lon="11.832035800277827"><ele>488.0</ele><time>2026-03-22T11:20:52.999Z</time></trkpt><trkpt lat="42.577582679542516" lon="11.832083257953986"><ele>488.0</ele><time>2026-03-22T11:20:53.999Z</time></trkpt><trkpt lat="42.5777817330688" lon="11.832133258985897"><ele>488.0</ele><time>2026-03-22T11:20:54.999Z</time></trkpt><trkpt lat="42.57798144483613" lon="11.832183583593832"><ele>488.0</ele><time>2026-03-22T11:20:55.999Z</time></trkpt><trkpt lat="42.57818444479484" lon="11.83223487506146"><ele>487.66666666666663</ele><time>2026-03-22T11:20:56.999Z</time></trkpt><trkpt lat="42.578393194863274" lon="11.832272418521395"><ele>487.33333333333337</ele><time>2026-03-22T11:20:57.999Z</time></trkpt><trkpt lat="42.578597933783854" lon="11.832332443439526"><ele>487.0</ele><time>2026-03-22T11:20:58.999Z</time></trkpt><trkpt lat="42.578806577910996" lon="11.832380936930507"><ele>487.0</ele><time>2026-03-22T11:20:59.999Z</time></trkpt><trkpt lat="42.57901716099385" lon="11.832438602454923"><ele>487.0</ele><time>2026-03-22T11:21:00.999Z</time></trkpt><trkpt lat="42.57922856946237" lon="11.83249487939183"><ele>487.0</ele><time>2026-03-22T11:21:01.999Z</time></trkpt><trkpt lat="42.57943592414068" lon="11.832548177466295"><ele>487.0</ele><time>2026-03-22T11:21:02.999Z</time></trkpt><trkpt lat="42.57964373435228" lon="11.832601867100232"><ele>487.0</ele><time>2026-03-22T11:21:03.999Z</time></trkpt><trkpt lat="42.57985049264356" lon="11.832654601737811"><ele>487.0</ele><time>2026-03-22T11:21:04.999Z</time></trkpt><trkpt lat="42.58005820439313" lon="11.832704503099535"><ele>484.6666666666667</ele><time>2026-03-22T11:21:05.999Z</time></trkpt><trkpt lat="42.58026627368722" lon="11.832758436396318"><ele>482.33333333333337</ele><time>2026-03-22T11:21:06.999Z</time></trkpt><trkpt lat="42.5804731689695" lon="11.832810567127058"><ele>480.0</ele><time>2026-03-22T11:21:07.999Z</time></trkpt><trkpt lat="42.5806817595749" lon="11.832858369958485"><ele>478.0</ele><time>2026-03-22T11:21:08.999Z</time></trkpt><trkpt lat="42.58089099522516" lon="11.832896804544403"><ele>476.0</ele><time>2026-03-22T11:21:09.999Z</time></trkpt><trkpt lat="42.58110192402644" lon="11.83291601747167"><ele>474.0</ele><time>2026-03-22T11:21:10.999Z</time></trkpt><trkpt lat="42.581312891886654" lon="11.832917949623198"><ele>478.0</ele><time>2026-03-22T11:21:11.999Z</time></trkpt><trkpt lat="42.58152843208068" lon="11.832917266402571"><ele>482.0</ele><time>2026-03-22T11:21:12.999Z</time></trkpt><trkpt lat="42.58174029695935" lon="11.832903330430971"><ele>486.0</ele><time>2026-03-22T11:21:13.999Z</time></trkpt><trkpt lat="42.58194793512783" lon="11.832891300682633"><ele>489.33333333333337</ele><time>2026-03-22T11:21:14.999Z</time></trkpt><trkpt lat="42.58215073605547" lon="11.83287487980614"><ele>492.6666666666667</ele><time>2026-03-22T11:21:15.999Z</time></trkpt><trkpt lat="42.582355424183454" lon="11.83286851455575"><ele>496.0</ele><time>2026-03-22T11:21:16.999Z</time></trkpt><trkpt lat="42.582558783153196" lon="11.832878249401913"><ele>496.0</ele><time>2026-03-22T11:21:17.999Z</time></trkpt><trkpt lat="42.58276409683081" lon="11.83291699107635"><ele>496.0</ele><time>2026-03-22T11:21:18.999Z</time></trkpt><trkpt lat="42.582965772334546" lon="11.83299865935579"><ele>496.0</ele><time>2026-03-22T11:21:19.999Z</time></trkpt><trkpt lat="42.58315709795066" lon="11.833106745830634"><ele>493.6666666666667</ele><time>2026-03-22T11:21:20.999Z</time></trkpt><trkpt lat="42.58334677321266" lon="11.833220768096258"><ele>491.33333333333337</ele><time>2026-03-22T11:21:21.999Z</time></trkpt><trkpt lat="42.58354375126204" lon="11.83334265895545"><ele>489.0</ele><time>2026-03-22T11:21:22.999Z</time></trkpt><trkpt lat="42.58373533243316" lon="11.83347042013177"><ele>489.0</ele><time>2026-03-22T11:21:23.999Z</time></trkpt><trkpt lat="42.58393347673543" lon="11.83359486059703"><ele>489.0</ele><time>2026-03-22T11:21:24.999Z</time></trkpt><trkpt lat="42.58413029669513" lon="11.833712995621203"><ele>489.0</ele><time>2026-03-22T11:21:25.999Z</time></trkpt><trkpt lat="42.58432603137312" lon="11.833837287766979"><ele>486.33333333333337</ele><time>2026-03-22T11:21:26.999Z</time></trkpt><trkpt lat="42.5845261316085" lon="11.833968423881794"><ele>483.6666666666667</ele><time>2026-03-22T11:21:27.999Z</time></trkpt><trkpt lat="42.584724546475975" lon="11.834096411707081"><ele>481.0</ele><time>2026-03-22T11:21:28.999Z</time></trkpt><trkpt lat="42.58492459844286" lon="11.8342210448546"><ele>484.33333333333337</ele><time>2026-03-22T11:21:29.999Z</time></trkpt><trkpt lat="42.58512481624288" lon="11.834349089014122"><ele>487.66666666666663</ele><time>2026-03-22T11:21:30.999Z</time></trkpt><trkpt lat="42.58532398233615" lon="11.834477754359268"><ele>491.0</ele><time>2026-03-22T11:21:31.999Z</time></trkpt><trkpt lat="42.58551939675239" lon="11.834604335533744"><ele>491.0</ele><time>2026-03-22T11:21:32.999Z</time></trkpt><trkpt lat="42.58571702576305" lon="11.834729517299158"><ele>491.0</ele><time>2026-03-22T11:21:33.999Z</time></trkpt><trkpt lat="42.58591355082277" lon="11.83484905664669"><ele>491.0</ele><time>2026-03-22T11:21:34.999Z</time></trkpt><trkpt lat="42.586114921905484" lon="11.834959420568477"><ele>489.66666666666663</ele><time>2026-03-22T11:21:35.999Z</time></trkpt><trkpt lat="42.58632072778265" lon="11.835063299514998"><ele>488.33333333333337</ele><time>2026-03-22T11:21:36.999Z</time></trkpt><trkpt lat="42.58652956743523" lon="11.835155223748458"><ele>487.0</ele><time>2026-03-22T11:21:37.999Z</time></trkpt><trkpt lat="42.58674133380375" lon="11.835239374555519"><ele>488.6666666666667</ele><time>2026-03-22T11:21:38.999Z</time></trkpt><trkpt lat="42.58695417626366" lon="11.835316014779432"><ele>490.33333333333337</ele><time>2026-03-22T11:21:39.999Z</time></trkpt><trkpt lat="42.58716747157253" lon="11.835393667921101"><ele>492.0</ele><time>2026-03-22T11:21:40.999Z</time></trkpt><trkpt lat="42.58738157118218" lon="11.835472361594315"><ele>492.0</ele><time>2026-03-22T11:21:41.999Z</time></trkpt><trkpt lat="42.587597770874446" lon="11.83554754572764"><ele>492.0</ele><time>2026-03-22T11:21:42.999Z</time></trkpt><trkpt lat="42.5878153607373" lon="11.835625867239168"><ele>492.0</ele><time>2026-03-22T11:21:43.999Z</time></trkpt><trkpt lat="42.588033030964084" lon="11.835706036984643"><ele>492.5</ele><time>2026-03-22T11:21:44.999Z</time></trkpt><trkpt lat="42.58825130039892" lon="11.835783868588177"><ele>493.0</ele><time>2026-03-22T11:21:45.999Z</time></trkpt><trkpt lat="42.58847221008355" lon="11.835864332794726"><ele>493.5</ele><time>2026-03-22T11:21:46.999Z</time></trkpt><trkpt lat="42.58869241008857" lon="11.835947076771157"><ele>494.0</ele><time>2026-03-22T11:21:47.999Z</time></trkpt><trkpt lat="42.58891101895635" lon="11.836040206601249"><ele>496.0</ele><time>2026-03-22T11:21:48.999Z</time></trkpt><trkpt lat="42.58912670606767" lon="11.836141179965331"><ele>498.0</ele><time>2026-03-22T11:21:49.999Z</time></trkpt><trkpt lat="42.58934323963674" lon="11.836244623314919"><ele>495.5</ele><time>2026-03-22T11:21:50.999Z</time></trkpt><trkpt lat="42.58955689045252" lon="11.836351919384501"><ele>493.0</ele><time>2026-03-22T11:21:51.998Z</time></trkpt><trkpt lat="42.589772576357085" lon="11.836455221873168"><ele>493.0</ele><time>2026-03-22T11:21:52.998Z</time></trkpt><trkpt lat="42.58998885155184" lon="11.83655535038132"><ele>493.0</ele><time>2026-03-22T11:21:53.998Z</time></trkpt><trkpt lat="42.59020517610132" lon="11.836655445404507"><ele>494.5</ele><time>2026-03-22T11:21:54.998Z</time></trkpt><trkpt lat="42.59041872750388" lon="11.836752448943184"><ele>496.0</ele><time>2026-03-22T11:21:55.998Z</time></trkpt><trkpt lat="42.59063420136286" lon="11.83685578128085"><ele>496.0</ele><time>2026-03-22T11:21:56.998Z</time></trkpt><trkpt lat="42.59084862555489" lon="11.836962920153656"><ele>496.0</ele><time>2026-03-22T11:21:57.998Z</time></trkpt><trkpt lat="42.591063991823795" lon="11.837071659986988"><ele>498.5</ele><time>2026-03-22T11:21:58.998Z</time></trkpt><trkpt lat="42.59127879436347" lon="11.83717947262668"><ele>501.0</ele><time>2026-03-22T11:21:59.998Z</time></trkpt><trkpt lat="42.59149417516581" lon="11.837277822425216"><ele>501.0</ele><time>2026-03-22T11:22:00.998Z</time></trkpt><trkpt lat="42.59171167489882" lon="11.837371178852589"><ele>501.0</ele><time>2026-03-22T11:22:01.998Z</time></trkpt><trkpt lat="42.59193498844009" lon="11.83745328480582"><ele>501.0</ele><time>2026-03-22T11:22:02.998Z</time></trkpt><trkpt lat="42.59216478736887" lon="11.837513628298282"><ele>501.0</ele><time>2026-03-22T11:22:03.998Z</time></trkpt><trkpt lat="42.592399422001755" lon="11.837563209283472"><ele>501.0</ele><time>2026-03-22T11:22:04.998Z</time></trkpt><trkpt lat="42.59263582482873" lon="11.837595070686413"><ele>501.0</ele><time>2026-03-22T11:22:06Z</time></trkpt><trkpt lat="42.59287204630787" lon="11.83761567310875"><ele>503.5</ele><time>2026-03-22T11:22:07Z</time></trkpt><trkpt lat="42.59310528019908" lon="11.837641833714649"><ele>506.0</ele><time>2026-03-22T11:22:08Z</time></trkpt><trkpt lat="42.59333840528708" lon="11.837667101423387"><ele>506.0</ele><time>2026-03-22T11:22:09Z</time></trkpt><trkpt lat="42.59356343362141" lon="11.837695391840782"><ele>506.0</ele><time>2026-03-22T11:22:10Z</time></trkpt><trkpt lat="42.5937952229111" lon="11.83772395627125"><ele>508.5</ele><time>2026-03-22T11:22:11Z</time></trkpt><trkpt lat="42.594025022990216" lon="11.83775227668372"><ele>511.0</ele><time>2026-03-22T11:22:12Z</time></trkpt><trkpt lat="42.5942523088416" lon="11.83778214433564"><ele>511.0</ele><time>2026-03-22T11:22:13Z</time></trkpt><trkpt lat="42.59447880025211" lon="11.8378206847994"><ele>511.0</ele><time>2026-03-22T11:22:14Z</time></trkpt><trkpt lat="42.59470343585458" lon="11.837878965127667"><ele>514.5</ele><time>2026-03-22T11:22:15Z</time></trkpt><trkpt lat="42.5949249177435" lon="11.837954938892095"><ele>518.0</ele><time>2026-03-22T11:22:16Z</time></trkpt><trkpt lat="42.59514392023385" lon="11.838053784026641"><ele>515.5</ele><time>2026-03-22T11:22:17Z</time></trkpt><trkpt lat="42.59536094049779" lon="11.838163157813149"><ele>513.0</ele><time>2026-03-22T11:22:18Z</time></trkpt><trkpt lat="42.59557482947874" lon="11.83827945112074"><ele>513.0</ele><time>2026-03-22T11:22:19Z</time></trkpt><trkpt lat="42.59579134965799" lon="11.838398497425953"><ele>513.0</ele><time>2026-03-22T11:22:20Z</time></trkpt><trkpt lat="42.59601008984546" lon="11.838514245878937"><ele>515.0</ele><time>2026-03-22T11:22:21Z</time></trkpt><trkpt lat="42.596228092932726" lon="11.838636023574633"><ele>517.0</ele><time>2026-03-22T11:22:22Z</time></trkpt><trkpt lat="42.5964492196952" lon="11.838764087577156"><ele>517.0</ele><time>2026-03-22T11:22:23Z</time></trkpt><trkpt lat="42.596673426771595" lon="11.838892277861174"><ele>517.0</ele><time>2026-03-22T11:22:24Z</time></trkpt><trkpt lat="42.59689834367662" lon="11.839017117781328"><ele>517.0</ele><time>2026-03-22T11:22:25Z</time></trkpt><trkpt lat="42.59712651452337" lon="11.83914366199924"><ele>517.0</ele><time>2026-03-22T11:22:26Z</time></trkpt><trkpt lat="42.59735237937377" lon="11.83927144480665"><ele>519.0</ele><time>2026-03-22T11:22:27Z</time></trkpt><trkpt lat="42.5975760499411" lon="11.839397827657304"><ele>521.0</ele><time>2026-03-22T11:22:28Z</time></trkpt><trkpt lat="42.59779629022099" lon="11.839518277691042"><ele>522.0</ele><time>2026-03-22T11:22:29Z</time></trkpt><trkpt lat="42.59801706790441" lon="11.839643843309643"><ele>523.0</ele><time>2026-03-22T11:22:30Z</time></trkpt><trkpt lat="42.59823609196421" lon="11.839769841405996"><ele>523.0</ele><time>2026-03-22T11:22:31Z</time></trkpt><trkpt lat="42.598453121727374" lon="11.839891696100185"><ele>523.0</ele><time>2026-03-22T11:22:32Z</time></trkpt><trkpt lat="42.59866815850531" lon="11.84001550448737"><ele>524.0</ele><time>2026-03-22T11:22:33Z</time></trkpt><trkpt lat="42.59888475791492" lon="11.840143549662134"><ele>525.0</ele><time>2026-03-22T11:22:34Z</time></trkpt><trkpt lat="42.59910303741062" lon="11.840271134786752"><ele>525.0</ele><time>2026-03-22T11:22:35Z</time></trkpt><trkpt lat="42.599307303022286" lon="11.840432661934443"><ele>525.0</ele><time>2026-03-22T11:22:36Z</time></trkpt><trkpt lat="42.59952890545311" lon="11.840560145143725"><ele>525.0</ele><time>2026-03-22T11:22:37Z</time></trkpt><trkpt lat="42.5997491483443" lon="11.840686846229124"><ele>525.0</ele><time>2026-03-22T11:22:38Z</time></trkpt><trkpt lat="42.59997107131846" lon="11.840816329197212"><ele>525.0</ele><time>2026-03-22T11:22:39Z</time></trkpt><trkpt lat="42.6001923437888" lon="11.840945328100856"><ele>525.0</ele><time>2026-03-22T11:22:40Z</time></trkpt><trkpt lat="42.60041665275265" lon="11.841074821044469"><ele>527.5</ele><time>2026-03-22T11:22:41Z</time></trkpt><trkpt lat="42.60064044250487" lon="11.841206167031917"><ele>530.0</ele><time>2026-03-22T11:22:42Z</time></trkpt><trkpt lat="42.60086226569744" lon="11.84133713761585"><ele>530.0</ele><time>2026-03-22T11:22:43Z</time></trkpt><trkpt lat="42.601087896572274" lon="11.841467289815789"><ele>530.0</ele><time>2026-03-22T11:22:44Z</time></trkpt><trkpt lat="42.60130837160878" lon="11.841594649455123"><ele>532.0</ele><time>2026-03-22T11:22:45Z</time></trkpt><trkpt lat="42.601526823191406" lon="11.841720840225946"><ele>534.0</ele><time>2026-03-22T11:22:46Z</time></trkpt><trkpt lat="42.601743051819945" lon="11.841845435398499"><ele>534.0</ele><time>2026-03-22T11:22:47Z</time></trkpt><trkpt lat="42.60195938719988" lon="11.841969884082685"><ele>534.0</ele><time>2026-03-22T11:22:48Z</time></trkpt><trkpt lat="42.602176799415695" lon="11.842094507040942"><ele>534.0</ele><time>2026-03-22T11:22:49Z</time></trkpt><trkpt lat="42.60239648473463" lon="11.842219246719585"><ele>534.0</ele><time>2026-03-22T11:22:50Z</time></trkpt><trkpt lat="42.60261434900145" lon="11.84234423939795"><ele>533.5</ele><time>2026-03-22T11:22:51Z</time></trkpt><trkpt lat="42.60283225933024" lon="11.84246939323725"><ele>533.0</ele><time>2026-03-22T11:22:52Z</time></trkpt><trkpt lat="42.60305679822907" lon="11.842573801551875"><ele>532.0</ele><time>2026-03-22T11:22:53Z</time></trkpt><trkpt lat="42.603274770004894" lon="11.842700094946938"><ele>531.0</ele><time>2026-03-22T11:22:54Z</time></trkpt><trkpt lat="42.60349347842898" lon="11.842826829432635"><ele>533.0</ele><time>2026-03-22T11:22:54.999Z</time></trkpt><trkpt lat="42.603711876739" lon="11.842951166467493"><ele>535.0</ele><time>2026-03-22T11:22:55.999Z</time></trkpt><trkpt lat="42.603930099520184" lon="11.843077631781247"><ele>535.0</ele><time>2026-03-22T11:22:56.999Z</time></trkpt><trkpt lat="42.604145863266325" lon="11.843202961434235"><ele>535.0</ele><time>2026-03-22T11:22:57.999Z</time></trkpt><trkpt lat="42.604359148352245" lon="11.84333310404205"><ele>534.0</ele><time>2026-03-22T11:22:58.999Z</time></trkpt><trkpt lat="42.60456984497155" lon="11.843460943543551"><ele>533.0</ele><time>2026-03-22T11:22:59.999Z</time></trkpt><trkpt lat="42.60478002919578" lon="11.843579820886337"><ele>530.5</ele><time>2026-03-22T11:23:00.999Z</time></trkpt><trkpt lat="42.604987113785945" lon="11.84371772502537"><ele>528.0</ele><time>2026-03-22T11:23:01.999Z</time></trkpt><trkpt lat="42.60520380731737" lon="11.843825474456873"><ele>529.5</ele><time>2026-03-22T11:23:02.999Z</time></trkpt><trkpt lat="42.60543081089153" lon="11.843906389540747"><ele>531.0</ele><time>2026-03-22T11:23:03.999Z</time></trkpt><trkpt lat="42.60566085954228" lon="11.84391222920686"><ele>531.0</ele><time>2026-03-22T11:23:04.999Z</time></trkpt><trkpt lat="42.60589902923257" lon="11.843906494573528"><ele>531.0</ele><time>2026-03-22T11:23:05.999Z</time></trkpt><trkpt lat="42.60612872612885" lon="11.84386762255342"><ele>530.0</ele><time>2026-03-22T11:23:06.999Z</time></trkpt><trkpt lat="42.60634885298841" lon="11.843815774000577"><ele>529.0</ele><time>2026-03-22T11:23:07.999Z</time></trkpt><trkpt lat="42.60657524940141" lon="11.84380433262136"><ele>529.0</ele><time>2026-03-22T11:23:08.999Z</time></trkpt><trkpt lat="42.60680782512275" lon="11.843749711051048"><ele>529.0</ele><time>2026-03-22T11:23:09.999Z</time></trkpt><trkpt lat="42.607050960470396" lon="11.843705146936124"><ele>530.5</ele><time>2026-03-22T11:23:10.999Z</time></trkpt><trkpt lat="42.60730056747043" lon="11.84365570204056"><ele>532.0</ele><time>2026-03-22T11:23:11.999Z</time></trkpt><trkpt lat="42.60753987795131" lon="11.843608260242833"><ele>532.0</ele><time>2026-03-22T11:23:12.999Z</time></trkpt><trkpt lat="42.60776840286379" lon="11.843570808081934"><ele>532.0</ele><time>2026-03-22T11:23:13.999Z</time></trkpt><trkpt lat="42.60799541490376" lon="11.843526680028376"><ele>533.6666666666667</ele><time>2026-03-22T11:23:14.999Z</time></trkpt><trkpt lat="42.60822256777255" lon="11.84348593011362"><ele>535.3333333333334</ele><time>2026-03-22T11:23:15.999Z</time></trkpt><trkpt lat="42.60843894922403" lon="11.843445555414853"><ele>537.0</ele><time>2026-03-22T11:23:16.999Z</time></trkpt><trkpt lat="42.60867255479179" lon="11.843411334007966"><ele>541.0</ele><time>2026-03-22T11:23:17.999Z</time></trkpt><trkpt lat="42.60888641945004" lon="11.843378233444499"><ele>545.0</ele><time>2026-03-22T11:23:18.999Z</time></trkpt><trkpt lat="42.609103853671066" lon="11.84334701785983"><ele>549.0</ele><time>2026-03-22T11:23:19.999Z</time></trkpt><trkpt lat="42.60931724962785" lon="11.84330877117224"><ele>550.0</ele><time>2026-03-22T11:23:20.999Z</time></trkpt><trkpt lat="42.60953907679252" lon="11.843279628880797"><ele>551.0</ele><time>2026-03-22T11:23:21.999Z</time></trkpt><trkpt lat="42.609740981056355" lon="11.84323455928263"><ele>552.0</ele><time>2026-03-22T11:23:22.999Z</time></trkpt><trkpt lat="42.60995329587531" lon="11.843184995899444"><ele>552.0</ele><time>2026-03-22T11:23:23.999Z</time></trkpt><trkpt lat="42.61016577711451" lon="11.84314482185524"><ele>552.0</ele><time>2026-03-22T11:23:24.999Z</time></trkpt><trkpt lat="42.61037655250304" lon="11.84311815532586"><ele>552.0</ele><time>2026-03-22T11:23:25.999Z</time></trkpt><trkpt lat="42.610582647157756" lon="11.843081796137342"><ele>552.3333333333334</ele><time>2026-03-22T11:23:26.999Z</time></trkpt><trkpt lat="42.61079310242219" lon="11.843035431608604"><ele>552.6666666666667</ele><time>2026-03-22T11:23:27.999Z</time></trkpt><trkpt lat="42.611000174100205" lon="11.842982701073232"><ele>553.0</ele><time>2026-03-22T11:23:28.999Z</time></trkpt><trkpt lat="42.61119242341412" lon="11.84289966978675"><ele>554.0</ele><time>2026-03-22T11:23:29.999Z</time></trkpt><trkpt lat="42.611379615206644" lon="11.842778655873252"><ele>555.0</ele><time>2026-03-22T11:23:30.999Z</time></trkpt><trkpt lat="42.61154324309698" lon="11.842621245829175"><ele>556.0</ele><time>2026-03-22T11:23:31.999Z</time></trkpt><trkpt lat="42.61168722833965" lon="11.842438100451691"><ele>558.0</ele><time>2026-03-22T11:23:32.999Z</time></trkpt><trkpt lat="42.611817954523566" lon="11.842254037487487"><ele>560.0</ele><time>2026-03-22T11:23:33.999Z</time></trkpt><trkpt lat="42.61193845274302" lon="11.842067600321425"><ele>562.0</ele><time>2026-03-22T11:23:34.999Z</time></trkpt><trkpt lat="42.61204704861149" lon="11.841901204468982"><ele>565.3333333333334</ele><time>2026-03-22T11:23:35.999Z</time></trkpt><trkpt lat="42.61215774339416" lon="11.841730844650034"><ele>568.6666666666666</ele><time>2026-03-22T11:23:36.999Z</time></trkpt><trkpt lat="42.61227655416097" lon="11.841578149560549"><ele>572.0</ele><time>2026-03-22T11:23:37.999Z</time></trkpt><trkpt lat="42.61240639682378" lon="11.84141878289346"><ele>572.0</ele><time>2026-03-22T11:23:38.999Z</time></trkpt><trkpt lat="42.612549008152115" lon="11.841278263720772"><ele>572.0</ele><time>2026-03-22T11:23:39.999Z</time></trkpt><trkpt lat="42.61271586596425" lon="11.841151421725405"><ele>572.0</ele><time>2026-03-22T11:23:40.999Z</time></trkpt><trkpt lat="42.61289284754698" lon="11.841020444679094"><ele>572.6666666666666</ele><time>2026-03-22T11:23:41.999Z</time></trkpt><trkpt lat="42.61305897451864" lon="11.840895702870931"><ele>573.3333333333334</ele><time>2026-03-22T11:23:42.999Z</time></trkpt><trkpt lat="42.61323310212119" lon="11.840790299437328"><ele>574.0</ele><time>2026-03-22T11:23:43.999Z</time></trkpt><trkpt lat="42.61341991720713" lon="11.840700264299045"><ele>574.0</ele><time>2026-03-22T11:23:44.999Z</time></trkpt><trkpt lat="42.61360719834431" lon="11.84062733392951"><ele>574.0</ele><time>2026-03-22T11:23:45.999Z</time></trkpt><trkpt lat="42.613796698934514" lon="11.840568564367983"><ele>574.0</ele><time>2026-03-22T11:23:46.999Z</time></trkpt><trkpt lat="42.61397390625349" lon="11.840493505402707"><ele>571.6666666666667</ele><time>2026-03-22T11:23:47.999Z</time></trkpt><trkpt lat="42.61412216547335" lon="11.840326120895812"><ele>569.3333333333334</ele><time>2026-03-22T11:23:48.999Z</time></trkpt><trkpt lat="42.61426418099521" lon="11.840157920700642"><ele>567.0</ele><time>2026-03-22T11:23:49.999Z</time></trkpt><trkpt lat="42.61441354469679" lon="11.839998236980051"><ele>573.0</ele><time>2026-03-22T11:23:50.999Z</time></trkpt><trkpt lat="42.6145735520398" lon="11.839869804305101"><ele>579.0</ele><time>2026-03-22T11:23:51.999Z</time></trkpt><trkpt lat="42.61473996705341" lon="11.83976457006885"><ele>585.0</ele><time>2026-03-22T11:23:52.999Z</time></trkpt><trkpt lat="42.61490089195245" lon="11.839677975736777"><ele>585.0</ele><time>2026-03-22T11:23:53.999Z</time></trkpt><trkpt lat="42.61507202123442" lon="11.839591300370866"><ele>585.0</ele><time>2026-03-22T11:23:54.999Z</time></trkpt><trkpt lat="42.61528639115912" lon="11.839535151525077"><ele>585.0</ele><time>2026-03-22T11:23:55.999Z</time></trkpt><trkpt lat="42.61547109286596" lon="11.839461094987119"><ele>589.3333333333334</ele><time>2026-03-22T11:23:56.999Z</time></trkpt><trkpt lat="42.615665386967265" lon="11.839412968763861"><ele>593.6666666666667</ele><time>2026-03-22T11:23:57.999Z</time></trkpt><trkpt lat="42.61586087236434" lon="11.839377622742493"><ele>598.0</ele><time>2026-03-22T11:23:58.998Z</time></trkpt><trkpt lat="42.616058060116956" lon="11.839365056902222"><ele>600.3333333333334</ele><time>2026-03-22T11:23:59.998Z</time></trkpt><trkpt lat="42.616250947056244" lon="11.839363178193436"><ele>602.6666666666666</ele><time>2026-03-22T11:24:00.998Z</time></trkpt><trkpt lat="42.616440364463976" lon="11.839366871363445"><ele>605.0</ele><time>2026-03-22T11:24:01.998Z</time></trkpt><trkpt lat="42.61662772951867" lon="11.839396892583853"><ele>605.0</ele><time>2026-03-22T11:24:02.998Z</time></trkpt><trkpt lat="42.61681061526293" lon="11.839466126953074"><ele>605.0</ele><time>2026-03-22T11:24:03.998Z</time></trkpt><trkpt lat="42.6169940635632" lon="11.83956246311915"><ele>605.0</ele><time>2026-03-22T11:24:04.998Z</time></trkpt><trkpt lat="42.61716877029981" lon="11.839632055785094"><ele>604.6666666666666</ele><time>2026-03-22T11:24:05.998Z</time></trkpt><trkpt lat="42.61734913614225" lon="11.839676028556976"><ele>604.3333333333334</ele><time>2026-03-22T11:24:06.998Z</time></trkpt><trkpt lat="42.617541351476376" lon="11.839707414599415"><ele>604.0</ele><time>2026-03-22T11:24:07.998Z</time></trkpt><trkpt lat="42.61773485707994" lon="11.839735824089876"><ele>604.3333333333334</ele><time>2026-03-22T11:24:08.998Z</time></trkpt><trkpt lat="42.617918764404266" lon="11.839768786486832"><ele>604.6666666666666</ele><time>2026-03-22T11:24:09.998Z</time></trkpt><trkpt lat="42.6180963884562" lon="11.839798414701358"><ele>605.0</ele><time>2026-03-22T11:24:10.998Z</time></trkpt><trkpt lat="42.618270050438156" lon="11.839818706574043"><ele>605.0</ele><time>2026-03-22T11:24:12Z</time></trkpt><trkpt lat="42.618432988266804" lon="11.839795230825935"><ele>605.0</ele><time>2026-03-22T11:24:13Z</time></trkpt><trkpt lat="42.61857895820638" lon="11.839717696489451"><ele>605.0</ele><time>2026-03-22T11:24:14Z</time></trkpt><trkpt lat="42.61871068662003" lon="11.839593201119413"><ele>609.0</ele><time>2026-03-22T11:24:15Z</time></trkpt><trkpt lat="42.61884523386878" lon="11.839484997573203"><ele>613.0</ele><time>2026-03-22T11:24:16Z</time></trkpt><trkpt lat="42.619009799518636" lon="11.83937791943793"><ele>617.0</ele><time>2026-03-22T11:24:17Z</time></trkpt><trkpt lat="42.61917540184749" lon="11.839302492672525"><ele>611.6666666666666</ele><time>2026-03-22T11:24:18Z</time></trkpt><trkpt lat="42.619353885632485" lon="11.839254608595223"><ele>606.3333333333334</ele><time>2026-03-22T11:24:19Z</time></trkpt><trkpt lat="42.61953926562735" lon="11.839222086036223"><ele>601.0</ele><time>2026-03-22T11:24:20Z</time></trkpt><trkpt lat="42.61972296667532" lon="11.839233752560519"><ele>601.0</ele><time>2026-03-22T11:24:21Z</time></trkpt><trkpt lat="42.61990871535961" lon="11.839220055037124"><ele>601.0</ele><time>2026-03-22T11:24:22Z</time></trkpt><trkpt lat="42.620099431114106" lon="11.839207096396636"><ele>601.0</ele><time>2026-03-22T11:24:23Z</time></trkpt><trkpt lat="42.62029293362058" lon="11.83919436921629"><ele>602.3333333333334</ele><time>2026-03-22T11:24:24Z</time></trkpt><trkpt lat="42.62048653124851" lon="11.83918234840289"><ele>603.6666666666666</ele><time>2026-03-22T11:24:25Z</time></trkpt><trkpt lat="42.620677036024404" lon="11.839171966049182"><ele>605.0</ele><time>2026-03-22T11:24:26Z</time></trkpt><trkpt lat="42.62084967782025" lon="11.83916027630477"><ele>605.0</ele><time>2026-03-22T11:24:27Z</time></trkpt><trkpt lat="42.621012855882704" lon="11.839149227358908"><ele>605.0</ele><time>2026-03-22T11:24:28Z</time></trkpt><trkpt lat="42.62117089096751" lon="11.839133133346976"><ele>605.0</ele><time>2026-03-22T11:24:29Z</time></trkpt><trkpt lat="42.62131304873137" lon="11.839093903065544"><ele>607.6666666666666</ele><time>2026-03-22T11:24:30Z</time></trkpt><trkpt lat="42.62144534391627" lon="11.838999537249167"><ele>610.3333333333334</ele><time>2026-03-22T11:24:31Z</time></trkpt><trkpt lat="42.62158019316418" lon="11.838913155178483"><ele>613.0</ele><time>2026-03-22T11:24:32Z</time></trkpt><trkpt lat="42.62170479430604" lon="11.838793172355278"><ele>613.0</ele><time>2026-03-22T11:24:33Z</time></trkpt><trkpt lat="42.62182761173224" lon="11.83864995880591"><ele>613.0</ele><time>2026-03-22T11:24:34Z</time></trkpt><trkpt lat="42.62194933408815" lon="11.838519107578245"><ele>613.0</ele><time>2026-03-22T11:24:35Z</time></trkpt><trkpt lat="42.622092735984445" lon="11.838383773616387"><ele>614.6666666666667</ele><time>2026-03-22T11:24:36Z</time></trkpt><trkpt lat="42.62224165173066" lon="11.838247145864468"><ele>616.3333333333334</ele><time>2026-03-22T11:24:37Z</time></trkpt><trkpt lat="42.62239363437386" lon="11.83812002696444"><ele>618.0</ele><time>2026-03-22T11:24:38Z</time></trkpt><trkpt lat="42.62255255352757" lon="11.838018154089184"><ele>618.0</ele><time>2026-03-22T11:24:39Z</time></trkpt><trkpt lat="42.622713056777286" lon="11.837922660203928"><ele>618.0</ele><time>2026-03-22T11:24:40Z</time></trkpt><trkpt lat="42.6228857706173" lon="11.837850202720649"><ele>618.0</ele><time>2026-03-22T11:24:41Z</time></trkpt><trkpt lat="42.623053951227625" lon="11.837768572870877"><ele>620.6666666666666</ele><time>2026-03-22T11:24:42Z</time></trkpt><trkpt lat="42.62324087037277" lon="11.83768782172986"><ele>623.3333333333333</ele><time>2026-03-22T11:24:43Z</time></trkpt><trkpt lat="42.62341296379807" lon="11.837633784809164"><ele>626.0</ele><time>2026-03-22T11:24:44Z</time></trkpt><trkpt lat="42.62358888450107" lon="11.837605266231426"><ele>620.3333333333333</ele><time>2026-03-22T11:24:45Z</time></trkpt><trkpt lat="42.62376289004109" lon="11.837590159437656"><ele>614.6666666666666</ele><time>2026-03-22T11:24:46Z</time></trkpt><trkpt lat="42.6239388078825" lon="11.837561803915438"><ele>609.0</ele><time>2026-03-22T11:24:47Z</time></trkpt><trkpt lat="42.6241191380237" lon="11.837578372004016"><ele>609.0</ele><time>2026-03-22T11:24:48Z</time></trkpt><trkpt lat="42.62429801346607" lon="11.837609836848422"><ele>609.0</ele><time>2026-03-22T11:24:49Z</time></trkpt><trkpt lat="42.62448048216959" lon="11.837640497461654"><ele>609.0</ele><time>2026-03-22T11:24:50Z</time></trkpt><trkpt lat="42.624665204813695" lon="11.837670942593183"><ele>612.3333333333334</ele><time>2026-03-22T11:24:51Z</time></trkpt><trkpt lat="42.62485292302541" lon="11.837701837697486"><ele>615.6666666666667</ele><time>2026-03-22T11:24:52Z</time></trkpt><trkpt lat="42.62504255734282" lon="11.837734241329946"><ele>619.0</ele><time>2026-03-22T11:24:53Z</time></trkpt><trkpt lat="42.625228111848486" lon="11.837772634821226"><ele>618.0</ele><time>2026-03-22T11:24:54Z</time></trkpt><trkpt lat="42.62541867204702" lon="11.837751324670887"><ele>617.0</ele><time>2026-03-22T11:24:55Z</time></trkpt><trkpt lat="42.625612499008916" lon="11.83774073536032"><ele>616.0</ele><time>2026-03-22T11:24:56Z</time></trkpt><trkpt lat="42.62580595132728" lon="11.83771434628011"><ele>616.0</ele><time>2026-03-22T11:24:57Z</time></trkpt><trkpt lat="42.62599460354452" lon="11.837660590960809"><ele>616.0</ele><time>2026-03-22T11:24:58Z</time></trkpt><trkpt lat="42.62618312764164" lon="11.83760620351727"><ele>616.0</ele><time>2026-03-22T11:24:59Z</time></trkpt><trkpt lat="42.62637174494406" lon="11.83755304117807"><ele>613.3333333333334</ele><time>2026-03-22T11:25:00Z</time></trkpt><trkpt lat="42.62656203469333" lon="11.83750799174996"><ele>610.6666666666666</ele><time>2026-03-22T11:25:01Z</time></trkpt><trkpt lat="42.62675537501816" lon="11.837442144424234"><ele>608.0</ele><time>2026-03-22T11:25:01.999Z</time></trkpt><trkpt lat="42.626944663865245" lon="11.837368513334123"><ele>608.0</ele><time>2026-03-22T11:25:02.999Z</time></trkpt><trkpt lat="42.627125636748374" lon="11.837277668706188"><ele>608.0</ele><time>2026-03-22T11:25:03.999Z</time></trkpt><trkpt lat="42.62730891977548" lon="11.837191108919015"><ele>608.0</ele><time>2026-03-22T11:25:04.999Z</time></trkpt><trkpt lat="42.62749486795881" lon="11.837115555193595"><ele>608.0</ele><time>2026-03-22T11:25:05.999Z</time></trkpt><trkpt lat="42.62767959251406" lon="11.83705174881342"><ele>608.0</ele><time>2026-03-22T11:25:06.999Z</time></trkpt><trkpt lat="42.627868397272415" lon="11.837006152504276"><ele>608.0</ele><time>2026-03-22T11:25:07.999Z</time></trkpt><trkpt lat="42.628056226389965" lon="11.83696484892903"><ele>607.3333333333333</ele><time>2026-03-22T11:25:08.999Z</time></trkpt><trkpt lat="42.628249206399765" lon="11.836920679286568"><ele>606.6666666666666</ele><time>2026-03-22T11:25:09.999Z</time></trkpt><trkpt lat="42.628446282390215" lon="11.836861524020705"><ele>606.0</ele><time>2026-03-22T11:25:10.999Z</time></trkpt><trkpt lat="42.62864276641454" lon="11.836796385447865"><ele>604.3333333333334</ele><time>2026-03-22T11:25:11.999Z</time></trkpt><trkpt lat="42.62883337566152" lon="11.836724407931571"><ele>602.6666666666667</ele><time>2026-03-22T11:25:12.999Z</time></trkpt><trkpt lat="42.629013570350914" lon="11.836641651467334"><ele>601.0</ele><time>2026-03-22T11:25:13.999Z</time></trkpt><trkpt lat="42.62916675858013" lon="11.83652655705312"><ele>601.0</ele><time>2026-03-22T11:25:14.999Z</time></trkpt><trkpt lat="42.62932046063204" lon="11.836414557691533"><ele>601.0</ele><time>2026-03-22T11:25:15.999Z</time></trkpt><trkpt lat="42.629466263836825" lon="11.836302404752965"><ele>601.0</ele><time>2026-03-22T11:25:16.999Z</time></trkpt><trkpt lat="42.62961405907331" lon="11.836192559779807"><ele>601.3333333333334</ele><time>2026-03-22T11:25:17.999Z</time></trkpt><trkpt lat="42.62975664673236" lon="11.836080507335074"><ele>601.6666666666666</ele><time>2026-03-22T11:25:18.999Z</time></trkpt><trkpt lat="42.629898260309176" lon="11.835972093767586"><ele>602.0</ele><time>2026-03-22T11:25:19.999Z</time></trkpt><trkpt lat="42.63003584777545" lon="11.83586730506576"><ele>602.3333333333333</ele><time>2026-03-22T11:25:20.999Z</time></trkpt><trkpt lat="42.63017627244533" lon="11.835781685558459"><ele>602.6666666666666</ele><time>2026-03-22T11:25:21.999Z</time></trkpt><trkpt lat="42.63031447364974" lon="11.835702876269215"><ele>603.0</ele><time>2026-03-22T11:25:22.999Z</time></trkpt><trkpt lat="42.63046416977806" lon="11.835621729969422"><ele>603.0</ele><time>2026-03-22T11:25:23.999Z</time></trkpt><trkpt lat="42.63061592934066" lon="11.835540666702943"><ele>603.0</ele><time>2026-03-22T11:25:24.999Z</time></trkpt><trkpt lat="42.63077148900087" lon="11.835461359643986"><ele>603.0</ele><time>2026-03-22T11:25:25.999Z</time></trkpt><trkpt lat="42.630929453570374" lon="11.835381161957699"><ele>603.0</ele><time>2026-03-22T11:25:26.999Z</time></trkpt><trkpt lat="42.631086242044255" lon="11.835299785628356"><ele>603.0</ele><time>2026-03-22T11:25:27.999Z</time></trkpt><trkpt lat="42.63124264461779" lon="11.835218846469493"><ele>603.0</ele><time>2026-03-22T11:25:28.999Z</time></trkpt><trkpt lat="42.631398767521034" lon="11.83514355626967"><ele>599.6666666666666</ele><time>2026-03-22T11:25:29.999Z</time></trkpt><trkpt lat="42.63155527887963" lon="11.835074453332666"><ele>596.3333333333333</ele><time>2026-03-22T11:25:30.999Z</time></trkpt><trkpt lat="42.631703100553736" lon="11.835003610807544"><ele>593.0</ele><time>2026-03-22T11:25:31.999Z</time></trkpt><trkpt lat="42.63184324104161" lon="11.834933901325902"><ele>593.0</ele><time>2026-03-22T11:25:32.999Z</time></trkpt><trkpt lat="42.63198320672312" lon="11.83487009469196"><ele>593.0</ele><time>2026-03-22T11:25:33.999Z</time></trkpt><trkpt lat="42.63211310357862" lon="11.83480524459015"><ele>593.0</ele><time>2026-03-22T11:25:34.999Z</time></trkpt><trkpt lat="42.63222989528994" lon="11.834743984156544"><ele>593.0</ele><time>2026-03-22T11:25:35.999Z</time></trkpt><trkpt lat="42.632341707522244" lon="11.83467816811598"><ele>593.0</ele><time>2026-03-22T11:25:36.999Z</time></trkpt><trkpt lat="42.63244037923301" lon="11.834605282870054"><ele>593.0</ele><time>2026-03-22T11:25:37.999Z</time></trkpt><trkpt lat="42.63252768789776" lon="11.834518151218091"><ele>593.0</ele><time>2026-03-22T11:25:38.999Z</time></trkpt><trkpt lat="42.632603161061134" lon="11.834422138630886"><ele>593.0</ele><time>2026-03-22T11:25:39.999Z</time></trkpt><trkpt lat="42.63267078678716" lon="11.834345041358567"><ele>593.0</ele><time>2026-03-22T11:25:40.999Z</time></trkpt><trkpt lat="42.63271834006615" lon="11.834276229152929"><ele>593.6</ele><time>2026-03-22T11:25:41.999Z</time></trkpt><trkpt lat="42.63281225293865" lon="11.83435700811693"><ele>594.1999999999999</ele><time>2026-03-22T11:25:42.999Z</time></trkpt><trkpt lat="42.63287483001631" lon="11.834428375370672"><ele>594.8</ele><time>2026-03-22T11:25:43.999Z</time></trkpt><trkpt lat="42.63295001397403" lon="11.834510669661306"><ele>595.4</ele><time>2026-03-22T11:25:44.999Z</time></trkpt><trkpt lat="42.63303174876469" lon="11.834600134409225"><ele>596.0</ele><time>2026-03-22T11:25:45.999Z</time></trkpt><trkpt lat="42.633119635002444" lon="11.834696332283338"><ele>596.0</ele><time>2026-03-22T11:25:46.999Z</time></trkpt><trkpt lat="42.63321243444699" lon="11.83479790807776"><ele>596.0</ele><time>2026-03-22T11:25:47.999Z</time></trkpt><trkpt lat="42.63330518733073" lon="11.834899432890328"><ele>596.0</ele><time>2026-03-22T11:25:48.999Z</time></trkpt><trkpt lat="42.63340538183245" lon="11.835009977007525"><ele>596.0</ele><time>2026-03-22T11:25:49.999Z</time></trkpt><trkpt lat="42.63351079069354" lon="11.835126672498953"><ele>596.0</ele><time>2026-03-22T11:25:50.999Z</time></trkpt><trkpt lat="42.633620040057785" lon="11.83524761809694"><ele>596.0</ele><time>2026-03-22T11:25:51.999Z</time></trkpt><trkpt lat="42.63373220327624" lon="11.835371789648342"><ele>596.0</ele><time>2026-03-22T11:25:52.999Z</time></trkpt><trkpt lat="42.63385283227899" lon="11.83549842345148"><ele>596.0</ele><time>2026-03-22T11:25:53.999Z</time></trkpt><trkpt lat="42.63398657785448" lon="11.835621043516424"><ele>596.0</ele><time>2026-03-22T11:25:54.999Z</time></trkpt><trkpt lat="42.63412744199864" lon="11.835721631991609"><ele>596.0</ele><time>2026-03-22T11:25:55.999Z</time></trkpt><trkpt lat="42.6342800009503" lon="11.835764634461416"><ele>596.0</ele><time>2026-03-22T11:25:56.999Z</time></trkpt><trkpt lat="42.634434642917434" lon="11.835815649494926"><ele>595.6666666666666</ele><time>2026-03-22T11:25:57.999Z</time></trkpt><trkpt lat="42.63458662674762" lon="11.835865272200778"><ele>595.3333333333334</ele><time>2026-03-22T11:25:58.999Z</time></trkpt><trkpt lat="42.63473611432224" lon="11.835935041644499"><ele>595.0</ele><time>2026-03-22T11:25:59.999Z</time></trkpt><trkpt lat="42.63487620925151" lon="11.836047794992211"><ele>595.0</ele><time>2026-03-22T11:26:00.999Z</time></trkpt><trkpt lat="42.63502629034149" lon="11.83614552279614"><ele>595.0</ele><time>2026-03-22T11:26:01.999Z</time></trkpt><trkpt lat="42.63517947082293" lon="11.83621007109069"><ele>595.0</ele><time>2026-03-22T11:26:02.999Z</time></trkpt><trkpt lat="42.63534716841031" lon="11.83624377790356"><ele>594.3333333333334</ele><time>2026-03-22T11:26:03.999Z</time></trkpt><trkpt lat="42.63551571376158" lon="11.836263894121075"><ele>593.6666666666666</ele><time>2026-03-22T11:26:04.999Z</time></trkpt><trkpt lat="42.63568874940063" lon="11.83627523757729"><ele>593.0</ele><time>2026-03-22T11:26:05.999Z</time></trkpt><trkpt lat="42.63586318209509" lon="11.836307047317957"><ele>593.0</ele><time>2026-03-22T11:26:06.998Z</time></trkpt><trkpt lat="42.63604621197314" lon="11.83633203243014"><ele>593.0</ele><time>2026-03-22T11:26:07.998Z</time></trkpt><trkpt lat="42.636225504481786" lon="11.836371994546798"><ele>593.0</ele><time>2026-03-22T11:26:08.998Z</time></trkpt><trkpt lat="42.636395677039744" lon="11.836429643696482"><ele>588.3333333333333</ele><time>2026-03-22T11:26:09.998Z</time></trkpt><trkpt lat="42.63656474733185" lon="11.836490447053354"><ele>583.6666666666666</ele><time>2026-03-22T11:26:10.998Z</time></trkpt><trkpt lat="42.63673483780197" lon="11.836546457520553"><ele>579.0</ele><time>2026-03-22T11:26:11.998Z</time></trkpt><trkpt lat="42.63691497678623" lon="11.836592489720319"><ele>578.6666666666666</ele><time>2026-03-22T11:26:12.998Z</time></trkpt><trkpt lat="42.63710491100561" lon="11.836619104467928"><ele>578.3333333333333</ele><time>2026-03-22T11:26:13.998Z</time></trkpt><trkpt lat="42.63729019728804" lon="11.83663473790706"><ele>578.0</ele><time>2026-03-22T11:26:14.998Z</time></trkpt><trkpt lat="42.6374706419399" lon="11.83664381140843"><ele>578.0</ele><time>2026-03-22T11:26:15.998Z</time></trkpt><trkpt lat="42.63763919135645" lon="11.836648277303599"><ele>578.0</ele><time>2026-03-22T11:26:16.998Z</time></trkpt><trkpt lat="42.63779287366209" lon="11.836646362098305"><ele>578.0</ele><time>2026-03-22T11:26:18Z</time></trkpt><trkpt lat="42.63794521914662" lon="11.836660826258063"><ele>577.75</ele><time>2026-03-22T11:26:19Z</time></trkpt><trkpt lat="42.63808948109868" lon="11.836706973524914"><ele>577.5</ele><time>2026-03-22T11:26:20Z</time></trkpt><trkpt lat="42.63821447300776" lon="11.836797867686384"><ele>577.25</ele><time>2026-03-22T11:26:21Z</time></trkpt><trkpt lat="42.63829764353601" lon="11.836940044225921"><ele>577.0</ele><time>2026-03-22T11:26:22Z</time></trkpt><trkpt lat="42.63836477704142" lon="11.837092242851911"><ele>577.0</ele><time>2026-03-22T11:26:23Z</time></trkpt><trkpt lat="42.638450962453824" lon="11.837226552005042"><ele>577.0</ele><time>2026-03-22T11:26:24Z</time></trkpt><trkpt lat="42.63854271878407" lon="11.837361858275793"><ele>577.0</ele><time>2026-03-22T11:26:25Z</time></trkpt><trkpt lat="42.638662718366675" lon="11.837479105676731"><ele>577.0</ele><time>2026-03-22T11:26:26Z</time></trkpt><trkpt lat="42.63879828601188" lon="11.837571680432667"><ele>574.25</ele><time>2026-03-22T11:26:27Z</time></trkpt><trkpt lat="42.6389218191295" lon="11.837680199954061"><ele>571.5</ele><time>2026-03-22T11:26:28Z</time></trkpt><trkpt lat="42.639048932164144" lon="11.83777273613368"><ele>568.75</ele><time>2026-03-22T11:26:29Z</time></trkpt><trkpt lat="42.63916754393124" lon="11.837859254462844"><ele>566.0</ele><time>2026-03-22T11:26:30Z</time></trkpt><trkpt lat="42.63927101756234" lon="11.837941675479364"><ele>566.0</ele><time>2026-03-22T11:26:31Z</time></trkpt><trkpt lat="42.639364069493084" lon="11.838024688246007"><ele>566.0</ele><time>2026-03-22T11:26:32Z</time></trkpt><trkpt lat="42.63943578851562" lon="11.8381122514981"><ele>566.0</ele><time>2026-03-22T11:26:33Z</time></trkpt><trkpt lat="42.63949107263903" lon="11.838210333182419"><ele>566.0</ele><time>2026-03-22T11:26:34Z</time></trkpt><trkpt lat="42.63949180577424" lon="11.838340571089484"><ele>566.0</ele><time>2026-03-22T11:26:35Z</time></trkpt><trkpt lat="42.63944443386435" lon="11.83845730738968"><ele>565.0</ele><time>2026-03-22T11:26:36Z</time></trkpt><trkpt lat="42.63935579155877" lon="11.838552168797099"><ele>564.0</ele><time>2026-03-22T11:26:37Z</time></trkpt><trkpt lat="42.639274301521255" lon="11.838657226104095"><ele>563.0</ele><time>2026-03-22T11:26:38Z</time></trkpt><trkpt lat="42.639193553922276" lon="11.838760103292248"><ele>562.0</ele><time>2026-03-22T11:26:39Z</time></trkpt><trkpt lat="42.63912201755018" lon="11.838853480356963"><ele>561.0</ele><time>2026-03-22T11:26:40Z</time></trkpt><trkpt lat="42.63906165210411" lon="11.838942839727766"><ele>561.0</ele><time>2026-03-22T11:26:41Z</time></trkpt><trkpt lat="42.63905800280429" lon="11.83905674049573"><ele>561.0</ele><time>2026-03-22T11:26:42Z</time></trkpt><trkpt lat="42.639072822893105" lon="11.839143342056282"><ele>561.0</ele><time>2026-03-22T11:26:43Z</time></trkpt><trkpt lat="42.6391304536682" lon="11.839208625595395"><ele>561.0</ele><time>2026-03-22T11:26:44Z</time></trkpt><trkpt lat="42.63920944494708" lon="11.839236352441539"><ele>561.0</ele><time>2026-03-22T11:26:45Z</time></trkpt><trkpt lat="42.63927794155746" lon="11.839186618010388"><ele>561.0</ele><time>2026-03-22T11:26:46Z</time></trkpt><trkpt lat="42.63933942978589" lon="11.83912360493752"><ele>561.0</ele><time>2026-03-22T11:26:47Z</time></trkpt><trkpt lat="42.63937332800868" lon="11.83903437889055"><ele>561.0</ele><time>2026-03-22T11:26:48Z</time></trkpt><trkpt lat="42.63941864793258" lon="11.838926990669247"><ele>561.0</ele><time>2026-03-22T11:26:49Z</time></trkpt><trkpt lat="42.63947323608994" lon="11.83882814494198"><ele>561.0</ele><time>2026-03-22T11:26:50Z</time></trkpt><trkpt lat="42.63954515702328" lon="11.838726205501517"><ele>561.0</ele><time>2026-03-22T11:26:51Z</time></trkpt><trkpt lat="42.639629388954184" lon="11.838617420579116"><ele>559.75</ele><time>2026-03-22T11:26:52Z</time></trkpt><trkpt lat="42.63971712652442" lon="11.838514040618652"><ele>558.5</ele><time>2026-03-22T11:26:53Z</time></trkpt><trkpt lat="42.63981244506088" lon="11.83840399099888"><ele>557.25</ele><time>2026-03-22T11:26:54Z</time></trkpt><trkpt lat="42.639912564183845" lon="11.83828833059256"><ele>556.0</ele><time>2026-03-22T11:26:55Z</time></trkpt><trkpt lat="42.64002084408483" lon="11.838169746215117"><ele>556.0</ele><time>2026-03-22T11:26:56Z</time></trkpt><trkpt lat="42.64013161538307" lon="11.83804237847663"><ele>556.0</ele><time>2026-03-22T11:26:57Z</time></trkpt><trkpt lat="42.64024908662612" lon="11.837922561166954"><ele>556.0</ele><time>2026-03-22T11:26:58Z</time></trkpt><trkpt lat="42.64037991448161" lon="11.837844975379463"><ele>556.0</ele><time>2026-03-22T11:26:59Z</time></trkpt><trkpt lat="42.64051580496429" lon="11.837826784314096"><ele>554.25</ele><time>2026-03-22T11:27:00Z</time></trkpt><trkpt lat="42.640653600669836" lon="11.837893478159907"><ele>552.5</ele><time>2026-03-22T11:27:01Z</time></trkpt><trkpt lat="42.64078716011094" lon="11.837930518937547"><ele>550.75</ele><time>2026-03-22T11:27:02Z</time></trkpt><trkpt lat="42.64092797752555" lon="11.837997220601824"><ele>549.0</ele><time>2026-03-22T11:27:03Z</time></trkpt><trkpt lat="42.641076849764296" lon="11.838099446486032"><ele>550.0</ele><time>2026-03-22T11:27:04Z</time></trkpt><trkpt lat="42.641226376550016" lon="11.838181331240259"><ele>551.0</ele><time>2026-03-22T11:27:05Z</time></trkpt><trkpt lat="42.641381112002186" lon="11.838265542340878"><ele>552.0</ele><time>2026-03-22T11:27:06Z</time></trkpt><trkpt lat="42.64154581400393" lon="11.83833137260179"><ele>552.0</ele><time>2026-03-22T11:27:07Z</time></trkpt><trkpt lat="42.64170556995858" lon="11.838403360064818"><ele>552.0</ele><time>2026-03-22T11:27:08Z</time></trkpt><trkpt lat="42.6418691971612" lon="11.838458853539688"><ele>552.0</ele><time>2026-03-22T11:27:09Z</time></trkpt><trkpt lat="42.64203543823248" lon="11.838492261206067"><ele>553.0</ele><time>2026-03-22T11:27:10Z</time></trkpt><trkpt lat="42.64220764095276" lon="11.838513399453618"><ele>554.0</ele><time>2026-03-22T11:27:10.999Z</time></trkpt><trkpt lat="42.64238146455322" lon="11.838529947246904"><ele>555.0</ele><time>2026-03-22T11:27:11.999Z</time></trkpt><trkpt lat="42.64256240574924" lon="11.838547592493605"><ele>555.0</ele><time>2026-03-22T11:27:12.999Z</time></trkpt><trkpt lat="42.642736138345406" lon="11.838568770405367"><ele>555.0</ele><time>2026-03-22T11:27:13.999Z</time></trkpt><trkpt lat="42.64290189531001" lon="11.838593123076913"><ele>555.0</ele><time>2026-03-22T11:27:14.999Z</time></trkpt><trkpt lat="42.643061314742475" lon="11.838625535443015"><ele>554.3333333333334</ele><time>2026-03-22T11:27:15.999Z</time></trkpt><trkpt lat="42.6432147746411" lon="11.838691694954832"><ele>553.6666666666667</ele><time>2026-03-22T11:27:16.999Z</time></trkpt><trkpt lat="42.6433541377895" lon="11.838814648601492"><ele>553.0</ele><time>2026-03-22T11:27:17.999Z</time></trkpt><trkpt lat="42.643504488439504" lon="11.838929711392273"><ele>552.3333333333334</ele><time>2026-03-22T11:27:18.999Z</time></trkpt><trkpt lat="42.64363518313854" lon="11.839087515186922"><ele>551.6666666666666</ele><time>2026-03-22T11:27:19.999Z</time></trkpt><trkpt lat="42.643791971240006" lon="11.839204489248734"><ele>551.0</ele><time>2026-03-22T11:27:20.999Z</time></trkpt><trkpt lat="42.643961826019094" lon="11.839310396037494"><ele>551.0</ele><time>2026-03-22T11:27:21.999Z</time></trkpt><trkpt lat="42.64412868444431" lon="11.839407724228694"><ele>551.0</ele><time>2026-03-22T11:27:22.999Z</time></trkpt><trkpt lat="42.6442956828407" lon="11.839505690236606"><ele>551.0</ele><time>2026-03-22T11:27:23.999Z</time></trkpt><trkpt lat="42.64445991442761" lon="11.83960334622329"><ele>548.3333333333333</ele><time>2026-03-22T11:27:24.999Z</time></trkpt><trkpt lat="42.64462399495509" lon="11.83969941403838"><ele>545.6666666666666</ele><time>2026-03-22T11:27:25.999Z</time></trkpt><trkpt lat="42.64479125774938" lon="11.839797447504003"><ele>543.0</ele><time>2026-03-22T11:27:26.999Z</time></trkpt><trkpt lat="42.64496609086307" lon="11.839888088539945"><ele>543.0</ele><time>2026-03-22T11:27:27.999Z</time></trkpt><trkpt lat="42.64514904654891" lon="11.839976384167157"><ele>543.0</ele><time>2026-03-22T11:27:28.999Z</time></trkpt><trkpt lat="42.64534141969397" lon="11.840055079102621"><ele>543.0</ele><time>2026-03-22T11:27:29.999Z</time></trkpt><trkpt lat="42.64554569399288" lon="11.84011570271552"><ele>542.3333333333334</ele><time>2026-03-22T11:27:30.999Z</time></trkpt><trkpt lat="42.64574756271341" lon="11.840187061312026"><ele>541.6666666666667</ele><time>2026-03-22T11:27:31.999Z</time></trkpt><trkpt lat="42.645941193046056" lon="11.840237955988908"><ele>541.0</ele><time>2026-03-22T11:27:32.999Z</time></trkpt><trkpt lat="42.64614058966724" lon="11.840281796981047"><ele>539.3333333333334</ele><time>2026-03-22T11:27:33.999Z</time></trkpt><trkpt lat="42.64633664220308" lon="11.840305613685668"><ele>537.6666666666666</ele><time>2026-03-22T11:27:34.999Z</time></trkpt><trkpt lat="42.64653035194659" lon="11.840327054834866"><ele>536.0</ele><time>2026-03-22T11:27:35.999Z</time></trkpt><trkpt lat="42.64672284154761" lon="11.840362209811385"><ele>536.0</ele><time>2026-03-22T11:27:36.999Z</time></trkpt><trkpt lat="42.646915528118086" lon="11.840423939383607"><ele>536.0</ele><time>2026-03-22T11:27:37.999Z</time></trkpt><trkpt lat="42.64710996982568" lon="11.84050218764742"><ele>536.0</ele><time>2026-03-22T11:27:38.999Z</time></trkpt><trkpt lat="42.64730758486476" lon="11.840596040942259"><ele>535.6666666666666</ele><time>2026-03-22T11:27:39.999Z</time></trkpt><trkpt lat="42.64750874737351" lon="11.84069006524843"><ele>535.3333333333334</ele><time>2026-03-22T11:27:40.999Z</time></trkpt><trkpt lat="42.64771418848017" lon="11.840783649400553"><ele>535.0</ele><time>2026-03-22T11:27:41.999Z</time></trkpt><trkpt lat="42.64792070599148" lon="11.84087530902728"><ele>533.6666666666667</ele><time>2026-03-22T11:27:42.999Z</time></trkpt><trkpt lat="42.648115478381136" lon="11.840989177279283"><ele>532.3333333333334</ele><time>2026-03-22T11:27:43.999Z</time></trkpt><trkpt lat="42.64831111274704" lon="11.841079712801347"><ele>531.0</ele><time>2026-03-22T11:27:44.999Z</time></trkpt><trkpt lat="42.64850520292308" lon="11.841169533837169"><ele>529.0</ele><time>2026-03-22T11:27:45.999Z</time></trkpt><trkpt lat="42.648690753853685" lon="11.841254873544715"><ele>527.0</ele><time>2026-03-22T11:27:46.999Z</time></trkpt><trkpt lat="42.64888215354433" lon="11.841352404339592"><ele>525.0</ele><time>2026-03-22T11:27:47.999Z</time></trkpt><trkpt lat="42.64907204530843" lon="11.84146621750398"><ele>525.0</ele><time>2026-03-22T11:27:48.999Z</time></trkpt><trkpt lat="42.64925607535121" lon="11.84158364907357"><ele>525.0</ele><time>2026-03-22T11:27:49.999Z</time></trkpt><trkpt lat="42.64943530462491" lon="11.841698155297083"><ele>525.0</ele><time>2026-03-22T11:27:50.999Z</time></trkpt><trkpt lat="42.64961218853339" lon="11.841808027639686"><ele>523.3333333333334</ele><time>2026-03-22T11:27:51.999Z</time></trkpt><trkpt lat="42.64977927792539" lon="11.841918494014012"><ele>521.6666666666667</ele><time>2026-03-22T11:27:52.999Z</time></trkpt><trkpt lat="42.64993166980165" lon="11.842040258618157"><ele>520.0</ele><time>2026-03-22T11:27:53.999Z</time></trkpt><trkpt lat="42.65006170717037" lon="11.84219471371283"><ele>520.0</ele><time>2026-03-22T11:27:54.999Z</time></trkpt><trkpt lat="42.65019102654008" lon="11.84237104115568"><ele>520.0</ele><time>2026-03-22T11:27:55.999Z</time></trkpt><trkpt lat="42.650320195493826" lon="11.842556262273451"><ele>520.0</ele><time>2026-03-22T11:27:56.999Z</time></trkpt><trkpt lat="42.650468399598715" lon="11.842738605122333"><ele>518.6666666666667</ele><time>2026-03-22T11:27:57.999Z</time></trkpt><trkpt lat="42.65065045316362" lon="11.842872931785587"><ele>517.3333333333334</ele><time>2026-03-22T11:27:58.999Z</time></trkpt><trkpt lat="42.65083587086908" lon="11.842979428574845"><ele>516.0</ele><time>2026-03-22T11:27:59.999Z</time></trkpt><trkpt lat="42.651019838938375" lon="11.843072178710315"><ele>514.6666666666666</ele><time>2026-03-22T11:28:00.999Z</time></trkpt><trkpt lat="42.65120093763221" lon="11.843146363474657"><ele>513.3333333333333</ele><time>2026-03-22T11:28:01.999Z</time></trkpt><trkpt lat="42.65138861117907" lon="11.843212702133354"><ele>512.0</ele><time>2026-03-22T11:28:02.999Z</time></trkpt><trkpt lat="42.651561381142955" lon="11.843266115548124"><ele>512.0</ele><time>2026-03-22T11:28:03.999Z</time></trkpt><trkpt lat="42.651745209212855" lon="11.84330007462815"><ele>512.0</ele><time>2026-03-22T11:28:04.999Z</time></trkpt><trkpt lat="42.65191163017297" lon="11.843353457118726"><ele>512.0</ele><time>2026-03-22T11:28:05.999Z</time></trkpt><trkpt lat="42.65207314550584" lon="11.843414975384386"><ele>510.0</ele><time>2026-03-22T11:28:06.999Z</time></trkpt><trkpt lat="42.6522169826552" lon="11.843515380725874"><ele>508.0</ele><time>2026-03-22T11:28:07.999Z</time></trkpt><trkpt lat="42.652323428290934" lon="11.843649401116535"><ele>506.0</ele><time>2026-03-22T11:28:08.999Z</time></trkpt><trkpt lat="42.65242166401648" lon="11.843810369583393"><ele>506.0</ele><time>2026-03-22T11:28:09.999Z</time></trkpt><trkpt lat="42.65252008631883" lon="11.843984220496132"><ele>506.0</ele><time>2026-03-22T11:28:10.999Z</time></trkpt><trkpt lat="42.652619984501236" lon="11.844166443761178"><ele>506.0</ele><time>2026-03-22T11:28:11.999Z</time></trkpt><trkpt lat="42.65272340800212" lon="11.844355097868227"><ele>508.3333333333333</ele><time>2026-03-22T11:28:12.999Z</time></trkpt><trkpt lat="42.65282894737449" lon="11.844544734605023"><ele>510.66666666666663</ele><time>2026-03-22T11:28:13.999Z</time></trkpt><trkpt lat="42.65294767113565" lon="11.844732284898642"><ele>513.0</ele><time>2026-03-22T11:28:14.999Z</time></trkpt><trkpt lat="42.653093417312384" lon="11.844880209984808"><ele>513.0</ele><time>2026-03-22T11:28:15.999Z</time></trkpt><trkpt lat="42.65324438035352" lon="11.845018640105168"><ele>513.0</ele><time>2026-03-22T11:28:16.998Z</time></trkpt><trkpt lat="42.65339190906511" lon="11.84517525487341"><ele>513.0</ele><time>2026-03-22T11:28:17.998Z</time></trkpt><trkpt lat="42.65355732829838" lon="11.845300920244123"><ele>511.66666666666663</ele><time>2026-03-22T11:28:18.998Z</time></trkpt><trkpt lat="42.65371963976682" lon="11.845443232409847"><ele>510.3333333333333</ele><time>2026-03-22T11:28:19.998Z</time></trkpt><trkpt lat="42.65388108204443" lon="11.84560736886787"><ele>509.0</ele><time>2026-03-22T11:28:20.998Z</time></trkpt><trkpt lat="42.65405153290951" lon="11.845759837508378"><ele>509.0</ele><time>2026-03-22T11:28:21.998Z</time></trkpt><trkpt lat="42.65422825275065" lon="11.845916849078744"><ele>509.0</ele><time>2026-03-22T11:28:22.998Z</time></trkpt><trkpt lat="42.654406199102205" lon="11.84607323418811"><ele>509.0</ele><time>2026-03-22T11:28:24Z</time></trkpt><trkpt lat="42.65458801418886" lon="11.846232709460295"><ele>507.66666666666663</ele><time>2026-03-22T11:28:25Z</time></trkpt><trkpt lat="42.654781065785485" lon="11.846374131688842"><ele>506.33333333333337</ele><time>2026-03-22T11:28:26Z</time></trkpt><trkpt lat="42.654963985051964" lon="11.846536248412706"><ele>505.0</ele><time>2026-03-22T11:28:27Z</time></trkpt><trkpt lat="42.655148171366584" lon="11.846698398235175"><ele>503.6666666666667</ele><time>2026-03-22T11:28:28Z</time></trkpt><trkpt lat="42.65533201926152" lon="11.84685758468256"><ele>502.33333333333337</ele><time>2026-03-22T11:28:29Z</time></trkpt><trkpt lat="42.65551490712786" lon="11.847012486897308"><ele>501.0</ele><time>2026-03-22T11:28:30Z</time></trkpt><trkpt lat="42.65569671512378" lon="11.847159240808978"><ele>501.0</ele><time>2026-03-22T11:28:31Z</time></trkpt><trkpt lat="42.65588231890695" lon="11.847298018693944"><ele>501.0</ele><time>2026-03-22T11:28:32Z</time></trkpt><trkpt lat="42.65607318379021" lon="11.847408554137328"><ele>501.0</ele><time>2026-03-22T11:28:33Z</time></trkpt><trkpt lat="42.65628597147528" lon="11.847494405237496"><ele>502.5</ele><time>2026-03-22T11:28:34Z</time></trkpt><trkpt lat="42.65650328890937" lon="11.84758058715816"><ele>504.0</ele><time>2026-03-22T11:28:35Z</time></trkpt><trkpt lat="42.65671875249597" lon="11.847691005005304"><ele>501.66666666666663</ele><time>2026-03-22T11:28:36Z</time></trkpt><trkpt lat="42.65692674472912" lon="11.847781132542769"><ele>499.3333333333333</ele><time>2026-03-22T11:28:37Z</time></trkpt><trkpt lat="42.65712714999917" lon="11.847869328638886"><ele>497.0</ele><time>2026-03-22T11:28:38Z</time></trkpt><trkpt lat="42.65731787673528" lon="11.847954279712715"><ele>497.0</ele><time>2026-03-22T11:28:39Z</time></trkpt><trkpt lat="42.6574930969781" lon="11.848034584515913"><ele>497.0</ele><time>2026-03-22T11:28:40Z</time></trkpt><trkpt lat="42.657656926440694" lon="11.848122579900043"><ele>497.0</ele><time>2026-03-22T11:28:41Z</time></trkpt><trkpt lat="42.65781615663573" lon="11.848244477743068"><ele>498.0</ele><time>2026-03-22T11:28:42Z</time></trkpt><trkpt lat="42.65794764923816" lon="11.848372301764377"><ele>499.0</ele><time>2026-03-22T11:28:43Z</time></trkpt><trkpt lat="42.65806204291179" lon="11.848526536888839"><ele>500.0</ele><time>2026-03-22T11:28:44Z</time></trkpt><trkpt lat="42.658169109440266" lon="11.848694281456776"><ele>500.0</ele><time>2026-03-22T11:28:45Z</time></trkpt><trkpt lat="42.65827733354505" lon="11.84887388456953"><ele>500.0</ele><time>2026-03-22T11:28:46Z</time></trkpt><trkpt lat="42.65837645268098" lon="11.849038666329449"><ele>500.0</ele><time>2026-03-22T11:28:47Z</time></trkpt><trkpt lat="42.65848668834441" lon="11.849212075519233"><ele>500.0</ele><time>2026-03-22T11:28:48Z</time></trkpt><trkpt lat="42.658616011242444" lon="11.8493856398443"><ele>500.0</ele><time>2026-03-22T11:28:49Z</time></trkpt><trkpt lat="42.65875833529508" lon="11.849544859404814"><ele>500.0</ele><time>2026-03-22T11:28:50Z</time></trkpt><trkpt lat="42.65891491292357" lon="11.849668382240933"><ele>500.0</ele><time>2026-03-22T11:28:51Z</time></trkpt><trkpt lat="42.659103736405676" lon="11.849739415127848"><ele>500.0</ele><time>2026-03-22T11:28:52Z</time></trkpt><trkpt lat="42.65928319373671" lon="11.849749595079526"><ele>500.0</ele><time>2026-03-22T11:28:53Z</time></trkpt><trkpt lat="42.659452323321126" lon="11.849765228543433"><ele>501.25</ele><time>2026-03-22T11:28:54Z</time></trkpt><trkpt lat="42.65958802329537" lon="11.849811903040607"><ele>502.5</ele><time>2026-03-22T11:28:55Z</time></trkpt><trkpt lat="42.659701119032405" lon="11.849898513790436"><ele>503.75</ele><time>2026-03-22T11:28:56Z</time></trkpt><trkpt lat="42.659767065209955" lon="11.850038609095987"><ele>505.0</ele><time>2026-03-22T11:28:57Z</time></trkpt><trkpt lat="42.65980676626027" lon="11.850207752016317"><ele>505.0</ele><time>2026-03-22T11:28:58Z</time></trkpt><trkpt lat="42.65985043514444" lon="11.850427909963285"><ele>505.0</ele><time>2026-03-22T11:28:59Z</time></trkpt><trkpt lat="42.6598941759516" lon="11.850648311145354"><ele>505.0</ele><time>2026-03-22T11:29:00Z</time></trkpt><trkpt lat="42.65995448599071" lon="11.85087369661848"><ele>505.33333333333337</ele><time>2026-03-22T11:29:01Z</time></trkpt><trkpt lat="42.660034868236444" lon="11.85109131096864"><ele>505.66666666666663</ele><time>2026-03-22T11:29:02Z</time></trkpt><trkpt lat="42.66013704676067" lon="11.85129995624728"><ele>506.0</ele><time>2026-03-22T11:29:03Z</time></trkpt><trkpt lat="42.66024583104304" lon="11.85149599385086"><ele>505.66666666666663</ele><time>2026-03-22T11:29:04Z</time></trkpt><trkpt lat="42.66036289851074" lon="11.851674682355743"><ele>505.33333333333337</ele><time>2026-03-22T11:29:05Z</time></trkpt><trkpt lat="42.6604887367362" lon="11.851842269197494"><ele>505.0</ele><time>2026-03-22T11:29:06Z</time></trkpt><trkpt lat="42.66062544205711" lon="11.85199478038363"><ele>503.0</ele><time>2026-03-22T11:29:07Z</time></trkpt><trkpt lat="42.66078371623053" lon="11.85212653671539"><ele>501.0</ele><time>2026-03-22T11:29:08Z</time></trkpt><trkpt lat="42.6609617903747" lon="11.85221570802867"><ele>499.0</ele><time>2026-03-22T11:29:09Z</time></trkpt><trkpt lat="42.66114250383752" lon="11.852297633443547"><ele>498.0</ele><time>2026-03-22T11:29:10Z</time></trkpt><trkpt lat="42.66133564652454" lon="11.852374242776401"><ele>497.0</ele><time>2026-03-22T11:29:11Z</time></trkpt><trkpt lat="42.66152676557681" lon="11.8524303971722"><ele>496.0</ele><time>2026-03-22T11:29:12Z</time></trkpt><trkpt lat="42.661715815934734" lon="11.852476056822196"><ele>496.0</ele><time>2026-03-22T11:29:13Z</time></trkpt><trkpt lat="42.661909163613245" lon="11.852512039953655"><ele>496.0</ele><time>2026-03-22T11:29:14Z</time></trkpt><trkpt lat="42.66210110454438" lon="11.85255010644133"><ele>496.0</ele><time>2026-03-22T11:29:15Z</time></trkpt><trkpt lat="42.66228990048784" lon="11.852599624881735"><ele>495.6666666666667</ele><time>2026-03-22T11:29:16Z</time></trkpt><trkpt lat="42.6624772195312" lon="11.852656296374338"><ele>495.33333333333337</ele><time>2026-03-22T11:29:17Z</time></trkpt><trkpt lat="42.66266273857316" lon="11.852724677141397"><ele>495.0</ele><time>2026-03-22T11:29:18Z</time></trkpt><trkpt lat="42.66283652165232" lon="11.852840938224851"><ele>495.0</ele><time>2026-03-22T11:29:19Z</time></trkpt><trkpt lat="42.66302060072058" lon="11.852926504437798"><ele>495.0</ele><time>2026-03-22T11:29:20Z</time></trkpt><trkpt lat="42.66319748132299" lon="11.853036510085788"><ele>495.0</ele><time>2026-03-22T11:29:21Z</time></trkpt><trkpt lat="42.663378292228174" lon="11.853139224810393"><ele>495.0</ele><time>2026-03-22T11:29:21.999Z</time></trkpt><trkpt lat="42.663562046976104" lon="11.853245578744655"><ele>495.0</ele><time>2026-03-22T11:29:22.999Z</time></trkpt><trkpt lat="42.66374412203196" lon="11.853352840838463"><ele>495.0</ele><time>2026-03-22T11:29:23.999Z</time></trkpt><trkpt lat="42.6639295254363" lon="11.853464218375402"><ele>496.66666666666663</ele><time>2026-03-22T11:29:24.999Z</time></trkpt><trkpt lat="42.66410874663865" lon="11.853603530567607"><ele>498.3333333333333</ele><time>2026-03-22T11:29:25.999Z</time></trkpt><trkpt lat="42.66429097542013" lon="11.853729868391053"><ele>500.0</ele><time>2026-03-22T11:29:26.999Z</time></trkpt><trkpt lat="42.6644602349808" lon="11.853865835386353"><ele>501.0</ele><time>2026-03-22T11:29:27.999Z</time></trkpt><trkpt lat="42.66462439642355" lon="11.85399159985177"><ele>502.0</ele><time>2026-03-22T11:29:28.999Z</time></trkpt><trkpt lat="42.66477160354369" lon="11.854148480018063"><ele>503.0</ele><time>2026-03-22T11:29:29.999Z</time></trkpt><trkpt lat="42.66489246440054" lon="11.854333673448659"><ele>503.0</ele><time>2026-03-22T11:29:30.999Z</time></trkpt><trkpt lat="42.66501792385432" lon="11.854506482802607"><ele>503.0</ele><time>2026-03-22T11:29:31.999Z</time></trkpt><trkpt lat="42.66513431827388" lon="11.854677935939183"><ele>503.0</ele><time>2026-03-22T11:29:32.999Z</time></trkpt><trkpt lat="42.665263075401" lon="11.854852272504722"><ele>504.0</ele><time>2026-03-22T11:29:33.999Z</time></trkpt><trkpt lat="42.66540197981206" lon="11.855015302517707"><ele>505.0</ele><time>2026-03-22T11:29:34.999Z</time></trkpt><trkpt lat="42.66554720033246" lon="11.855179928714046"><ele>506.0</ele><time>2026-03-22T11:29:35.999Z</time></trkpt><trkpt lat="42.665701500666756" lon="11.855345517801489"><ele>506.0</ele><time>2026-03-22T11:29:36.999Z</time></trkpt><trkpt lat="42.66585714293567" lon="11.85550648149059"><ele>506.0</ele><time>2026-03-22T11:29:37.999Z</time></trkpt><trkpt lat="42.66601439983316" lon="11.855667375372317"><ele>506.0</ele><time>2026-03-22T11:29:38.999Z</time></trkpt><trkpt lat="42.666176469950024" lon="11.855828522740401"><ele>506.0</ele><time>2026-03-22T11:29:39.999Z</time></trkpt><trkpt lat="42.66634122153894" lon="11.855985781587655"><ele>506.0</ele><time>2026-03-22T11:29:40.999Z</time></trkpt><trkpt lat="42.666505802307135" lon="11.856139617642093"><ele>506.0</ele><time>2026-03-22T11:29:41.999Z</time></trkpt><trkpt lat="42.666670204738935" lon="11.856293281555711"><ele>506.0</ele><time>2026-03-22T11:29:42.999Z</time></trkpt><trkpt lat="42.66683610904233" lon="11.856448910855681"><ele>506.0</ele><time>2026-03-22T11:29:43.999Z</time></trkpt><trkpt lat="42.66700247916048" lon="11.85660619910166"><ele>506.0</ele><time>2026-03-22T11:29:44.999Z</time></trkpt><trkpt lat="42.66716713016638" lon="11.856768179518328"><ele>507.0</ele><time>2026-03-22T11:29:45.999Z</time></trkpt><trkpt lat="42.667327530231816" lon="11.856937970459413"><ele>508.0</ele><time>2026-03-22T11:29:46.999Z</time></trkpt><trkpt lat="42.6674870614647" lon="11.857107384650112"><ele>509.0</ele><time>2026-03-22T11:29:47.999Z</time></trkpt><trkpt lat="42.667643254169114" lon="11.857272246734148"><ele>508.66666666666663</ele><time>2026-03-22T11:29:48.999Z</time></trkpt><trkpt lat="42.66780871824814" lon="11.857415254980943"><ele>508.33333333333337</ele><time>2026-03-22T11:29:49.999Z</time></trkpt><trkpt lat="42.66797354368832" lon="11.857567571873595"><ele>508.0</ele><time>2026-03-22T11:29:50.999Z</time></trkpt><trkpt lat="42.66815425904024" lon="11.857699740692567"><ele>508.0</ele><time>2026-03-22T11:29:51.999Z</time></trkpt><trkpt lat="42.66834600657172" lon="11.857793798709157"><ele>508.0</ele><time>2026-03-22T11:29:52.999Z</time></trkpt><trkpt lat="42.66853959639852" lon="11.857891292732637"><ele>508.0</ele><time>2026-03-22T11:29:53.999Z</time></trkpt><trkpt lat="42.66872784440749" lon="11.857997293705441"><ele>507.33333333333337</ele><time>2026-03-22T11:29:54.999Z</time></trkpt><trkpt lat="42.66890724389755" lon="11.858102348147646"><ele>506.66666666666663</ele><time>2026-03-22T11:29:55.999Z</time></trkpt><trkpt lat="42.66907576596421" lon="11.858196613230497"><ele>506.0</ele><time>2026-03-22T11:29:56.999Z</time></trkpt><trkpt lat="42.66923758359695" lon="11.858297452530408"><ele>506.0</ele><time>2026-03-22T11:29:57.999Z</time></trkpt><trkpt lat="42.669389676990505" lon="11.858405813289874"><ele>506.0</ele><time>2026-03-22T11:29:58.999Z</time></trkpt><trkpt lat="42.66951405466814" lon="11.858560030526233"><ele>506.0</ele><time>2026-03-22T11:29:59.999Z</time></trkpt><trkpt lat="42.66963869477426" lon="11.858706889955846"><ele>505.66666666666663</ele><time>2026-03-22T11:30:00.999Z</time></trkpt><trkpt lat="42.669768136152285" lon="11.858846679661909"><ele>505.33333333333337</ele><time>2026-03-22T11:30:01.999Z</time></trkpt><trkpt lat="42.66988995541627" lon="11.859004607751688"><ele>505.0</ele><time>2026-03-22T11:30:02.999Z</time></trkpt><trkpt lat="42.670014495839986" lon="11.85916349083976"><ele>504.0</ele><time>2026-03-22T11:30:03.999Z</time></trkpt><trkpt lat="42.67012753369335" lon="11.85934291759363"><ele>503.0</ele><time>2026-03-22T11:30:04.999Z</time></trkpt><trkpt lat="42.67024462191946" lon="11.85949644398591"><ele>502.0</ele><time>2026-03-22T11:30:05.999Z</time></trkpt><trkpt lat="42.670362040781455" lon="11.859649737550606"><ele>501.33333333333337</ele><time>2026-03-22T11:30:06.999Z</time></trkpt><trkpt lat="42.67047285510739" lon="11.859795176811446"><ele>500.66666666666663</ele><time>2026-03-22T11:30:07.999Z</time></trkpt><trkpt lat="42.670590392034896" lon="11.859926290833986"><ele>500.0</ele><time>2026-03-22T11:30:08.999Z</time></trkpt><trkpt lat="42.670686342427395" lon="11.860079972503446"><ele>499.25</ele><time>2026-03-22T11:30:09.999Z</time></trkpt><trkpt lat="42.670770942570165" lon="11.860230954181645"><ele>498.5</ele><time>2026-03-22T11:30:10.999Z</time></trkpt><trkpt lat="42.67083699227324" lon="11.860377857627869"><ele>497.75</ele><time>2026-03-22T11:30:11.999Z</time></trkpt><trkpt lat="42.67087854424899" lon="11.860516671825065"><ele>497.0</ele><time>2026-03-22T11:30:12.999Z</time></trkpt><trkpt lat="42.67091077895596" lon="11.860639581895125"><ele>497.0</ele><time>2026-03-22T11:30:13.999Z</time></trkpt><trkpt lat="42.67092947990404" lon="11.860749295085695"><ele>497.00000000000006</ele><time>2026-03-22T11:30:14.999Z</time></trkpt><trkpt lat="42.67093897687349" lon="11.86083712771842"><ele>497.00000000000006</ele><time>2026-03-22T11:30:15.999Z</time></trkpt><trkpt lat="42.6711195254607" lon="11.860900464064972"><ele>497.0</ele><time>2026-03-22T11:30:17.999Z</time></trkpt><trkpt lat="42.67120981825365" lon="11.8608736821105"><ele>497.0</ele><time>2026-03-22T11:30:18.999Z</time></trkpt><trkpt lat="42.671310640965885" lon="11.86087260519221"><ele>496.75</ele><time>2026-03-22T11:30:19.999Z</time></trkpt><trkpt lat="42.67142474495743" lon="11.86085958806204"><ele>496.5</ele><time>2026-03-22T11:30:20.999Z</time></trkpt><trkpt lat="42.67154877877132" lon="11.860861029592247"><ele>496.25</ele><time>2026-03-22T11:30:21.999Z</time></trkpt><trkpt lat="42.671675320583745" lon="11.860869890122618"><ele>496.0</ele><time>2026-03-22T11:30:22.999Z</time></trkpt><trkpt lat="42.671808932010116" lon="11.860871156380522"><ele>494.75</ele><time>2026-03-22T11:30:23.999Z</time></trkpt><trkpt lat="42.671944024858746" lon="11.860832886015864"><ele>493.5</ele><time>2026-03-22T11:30:24.999Z</time></trkpt><trkpt lat="42.672071551053996" lon="11.860739085494862"><ele>492.25</ele><time>2026-03-22T11:30:25.999Z</time></trkpt><trkpt lat="42.67219984817075" lon="11.860673300896938"><ele>491.0</ele><time>2026-03-22T11:30:26.999Z</time></trkpt><trkpt lat="42.67232370898612" lon="11.860592272174795"><ele>491.0</ele><time>2026-03-22T11:30:27.999Z</time></trkpt><trkpt lat="42.67246477595405" lon="11.860542000441678"><ele>491.0</ele><time>2026-03-22T11:30:28.998Z</time></trkpt><trkpt lat="42.67261329019155" lon="11.86049440718846"><ele>491.0</ele><time>2026-03-22T11:30:30Z</time></trkpt><trkpt lat="42.67276296343099" lon="11.860479874300607"><ele>491.0</ele><time>2026-03-22T11:30:31Z</time></trkpt><trkpt lat="42.67290944607797" lon="11.860493654197805"><ele>489.5</ele><time>2026-03-22T11:30:32Z</time></trkpt><trkpt lat="42.67304858216189" lon="11.860544506526635"><ele>488.0</ele><time>2026-03-22T11:30:33Z</time></trkpt><trkpt lat="42.673186164389364" lon="11.860619483395578"><ele>486.5</ele><time>2026-03-22T11:30:34Z</time></trkpt><trkpt lat="42.67331724074847" lon="11.860729835679898"><ele>485.0</ele><time>2026-03-22T11:30:35Z</time></trkpt><trkpt lat="42.67343809093668" lon="11.860858778769973"><ele>486.66666666666663</ele><time>2026-03-22T11:30:36Z</time></trkpt><trkpt lat="42.67356644403065" lon="11.860982010736432"><ele>488.33333333333337</ele><time>2026-03-22T11:30:37Z</time></trkpt><trkpt lat="42.673689357402225" lon="11.861121821969645"><ele>490.0</ele><time>2026-03-22T11:30:38Z</time></trkpt><trkpt lat="42.673825082600075" lon="11.86125532424141"><ele>490.0</ele><time>2026-03-22T11:30:39Z</time></trkpt><trkpt lat="42.67396275472501" lon="11.861389837399667"><ele>490.0</ele><time>2026-03-22T11:30:40Z</time></trkpt><trkpt lat="42.674101071865834" lon="11.861524980769634"><ele>490.0</ele><time>2026-03-22T11:30:41Z</time></trkpt><trkpt lat="42.674242647582" lon="11.861666840610184"><ele>491.33333333333337</ele><time>2026-03-22T11:30:42Z</time></trkpt><trkpt lat="42.67438085057085" lon="11.861805204566679"><ele>492.66666666666663</ele><time>2026-03-22T11:30:43Z</time></trkpt><trkpt lat="42.67451914969628" lon="11.861942678430372"><ele>494.0</ele><time>2026-03-22T11:30:44Z</time></trkpt><trkpt lat="42.67465301308005" lon="11.862075743135865"><ele>495.0</ele><time>2026-03-22T11:30:45Z</time></trkpt><trkpt lat="42.67478270189954" lon="11.862202914111434"><ele>496.0</ele><time>2026-03-22T11:30:46Z</time></trkpt><trkpt lat="42.67490809722863" lon="11.862326621981392"><ele>497.0</ele><time>2026-03-22T11:30:47Z</time></trkpt><trkpt lat="42.675030269873346" lon="11.862447099408133"><ele>497.0</ele><time>2026-03-22T11:30:48Z</time></trkpt><trkpt lat="42.6751504353033" lon="11.862563353301312"><ele>497.0</ele><time>2026-03-22T11:30:49Z</time></trkpt><trkpt lat="42.67526520426047" lon="11.862675977193982"><ele>497.0</ele><time>2026-03-22T11:30:50Z</time></trkpt><trkpt lat="42.67538463193967" lon="11.86277914799151"><ele>497.0</ele><time>2026-03-22T11:30:51Z</time></trkpt><trkpt lat="42.67548160924075" lon="11.862927063959173"><ele>497.0</ele><time>2026-03-22T11:30:52Z</time></trkpt><trkpt lat="42.6755566112679" lon="11.863093994464434"><ele>497.0</ele><time>2026-03-22T11:30:53Z</time></trkpt><trkpt lat="42.6756115041546" lon="11.863267968353238"><ele>497.0</ele><time>2026-03-22T11:30:54Z</time></trkpt><trkpt lat="42.6756445344515" lon="11.863452614912177"><ele>497.0</ele><time>2026-03-22T11:30:55Z</time></trkpt><trkpt lat="42.675647397526184" lon="11.8636578699769"><ele>497.0</ele><time>2026-03-22T11:30:56Z</time></trkpt><trkpt lat="42.67562991345629" lon="11.86387380818736"><ele>497.0</ele><time>2026-03-22T11:30:57Z</time></trkpt><trkpt lat="42.675599243725564" lon="11.864087429121135"><ele>497.0</ele><time>2026-03-22T11:30:58Z</time></trkpt><trkpt lat="42.67557530589848" lon="11.864308469139146"><ele>496.3333333333333</ele><time>2026-03-22T11:30:59Z</time></trkpt><trkpt lat="42.67555356524329" lon="11.86453441410562"><ele>495.66666666666663</ele><time>2026-03-22T11:31:00Z</time></trkpt><trkpt lat="42.67553986482267" lon="11.864753613400527"><ele>495.0</ele><time>2026-03-22T11:31:01Z</time></trkpt><trkpt lat="42.675547127119245" lon="11.864969038328145"><ele>496.0</ele><time>2026-03-22T11:31:02Z</time></trkpt><trkpt lat="42.67558091820266" lon="11.865174241761885"><ele>497.0</ele><time>2026-03-22T11:31:03Z</time></trkpt><trkpt lat="42.67564011524821" lon="11.865367562699962"><ele>498.0</ele><time>2026-03-22T11:31:04Z</time></trkpt><trkpt lat="42.67571140175969" lon="11.86555495823854"><ele>498.0</ele><time>2026-03-22T11:31:05Z</time></trkpt><trkpt lat="42.67577225336636" lon="11.865749151738571"><ele>498.0</ele><time>2026-03-22T11:31:06Z</time></trkpt><trkpt lat="42.675861383845074" lon="11.865923272229583"><ele>498.0</ele><time>2026-03-22T11:31:07Z</time></trkpt><trkpt lat="42.67593168853193" lon="11.866110209549483"><ele>497.33333333333337</ele><time>2026-03-22T11:31:08Z</time></trkpt><trkpt lat="42.67600086636101" lon="11.866301241350492"><ele>496.6666666666667</ele><time>2026-03-22T11:31:09Z</time></trkpt><trkpt lat="42.67607204426064" lon="11.866488468518511"><ele>496.0</ele><time>2026-03-22T11:31:10Z</time></trkpt><trkpt lat="42.676139257898676" lon="11.866673537052806"><ele>495.0</ele><time>2026-03-22T11:31:11Z</time></trkpt><trkpt lat="42.67624093166891" lon="11.866829394208073"><ele>494.0</ele><time>2026-03-22T11:31:12Z</time></trkpt><trkpt lat="42.67636352262047" lon="11.866960397004904"><ele>493.0</ele><time>2026-03-22T11:31:13Z</time></trkpt><trkpt lat="42.67648396681329" lon="11.867093288992942"><ele>493.0</ele><time>2026-03-22T11:31:14Z</time></trkpt><trkpt lat="42.67661579282399" lon="11.867216593479206"><ele>493.0</ele><time>2026-03-22T11:31:15Z</time></trkpt><trkpt lat="42.676754715674114" lon="11.867333088243809"><ele>493.0</ele><time>2026-03-22T11:31:16Z</time></trkpt><trkpt lat="42.676895517514474" lon="11.867449887139024"><ele>493.0</ele><time>2026-03-22T11:31:17Z</time></trkpt><trkpt lat="42.67703386749159" lon="11.867574456769251"><ele>493.0</ele><time>2026-03-22T11:31:18Z</time></trkpt><trkpt lat="42.67717274440297" lon="11.86770039961619"><ele>493.0</ele><time>2026-03-22T11:31:19Z</time></trkpt><trkpt lat="42.67730927837367" lon="11.86783206968019"><ele>493.0</ele><time>2026-03-22T11:31:20Z</time></trkpt><trkpt lat="42.67743889396159" lon="11.86797400552789"><ele>493.0</ele><time>2026-03-22T11:31:21Z</time></trkpt><trkpt lat="42.677558197421305" lon="11.86813434333827"><ele>493.0</ele><time>2026-03-22T11:31:22Z</time></trkpt><trkpt lat="42.677665384836196" lon="11.86831590121995"><ele>492.33333333333337</ele><time>2026-03-22T11:31:23Z</time></trkpt><trkpt lat="42.67776485066089" lon="11.868497547377185"><ele>491.66666666666663</ele><time>2026-03-22T11:31:24Z</time></trkpt><trkpt lat="42.677862111541295" lon="11.86868772651388"><ele>491.0</ele><time>2026-03-22T11:31:25Z</time></trkpt><trkpt lat="42.67795557661158" lon="11.868883563895785"><ele>491.0</ele><time>2026-03-22T11:31:26Z</time></trkpt><trkpt lat="42.678045550716476" lon="11.86908338741274"><ele>491.0</ele><time>2026-03-22T11:31:27Z</time></trkpt><trkpt lat="42.67811849370092" lon="11.869294934103014"><ele>491.0</ele><time>2026-03-22T11:31:28Z</time></trkpt><trkpt lat="42.6781729424115" lon="11.869518205828363"><ele>490.0</ele><time>2026-03-22T11:31:29Z</time></trkpt><trkpt lat="42.67821325852747" lon="11.869750823489237"><ele>489.0</ele><time>2026-03-22T11:31:30Z</time></trkpt><trkpt lat="42.678264903279135" lon="11.869980232710867"><ele>488.0</ele><time>2026-03-22T11:31:30.999Z</time></trkpt><trkpt lat="42.6783336226462" lon="11.870200940909585"><ele>486.0</ele><time>2026-03-22T11:31:31.999Z</time></trkpt><trkpt lat="42.67839847128998" lon="11.870427804149609"><ele>484.0</ele><time>2026-03-22T11:31:32.999Z</time></trkpt><trkpt lat="42.678495799477425" lon="11.87064113223611"><ele>482.0</ele><time>2026-03-22T11:31:33.999Z</time></trkpt><trkpt lat="42.67862021702378" lon="11.870829897826528"><ele>479.66666666666663</ele><time>2026-03-22T11:31:34.999Z</time></trkpt><trkpt lat="42.67873893056777" lon="11.871028461591052"><ele>477.33333333333337</ele><time>2026-03-22T11:31:35.999Z</time></trkpt><trkpt lat="42.67883994360158" lon="11.871239228203637"><ele>475.0</ele><time>2026-03-22T11:31:36.999Z</time></trkpt><trkpt lat="42.67895240557254" lon="11.871431325829482"><ele>475.0</ele><time>2026-03-22T11:31:37.999Z</time></trkpt><trkpt lat="42.679067188610766" lon="11.871620802299804"><ele>475.0</ele><time>2026-03-22T11:31:38.999Z</time></trkpt><trkpt lat="42.679195487004925" lon="11.871785623636068"><ele>475.0</ele><time>2026-03-22T11:31:39.999Z</time></trkpt><trkpt lat="42.679300084287284" lon="11.87196750911524"><ele>475.33333333333337</ele><time>2026-03-22T11:31:40.999Z</time></trkpt><trkpt lat="42.67941855865079" lon="11.872122216966504"><ele>475.66666666666663</ele><time>2026-03-22T11:31:41.999Z</time></trkpt><trkpt lat="42.67953530543713" lon="11.872265928441031"><ele>476.0</ele><time>2026-03-22T11:31:42.999Z</time></trkpt><trkpt lat="42.679636409846985" lon="11.872421622563508"><ele>476.0</ele><time>2026-03-22T11:31:43.999Z</time></trkpt><trkpt lat="42.679703917410286" lon="11.872602071501296"><ele>476.0</ele><time>2026-03-22T11:31:44.999Z</time></trkpt><trkpt lat="42.679745638529056" lon="11.872792607645593"><ele>476.0</ele><time>2026-03-22T11:31:45.999Z</time></trkpt><trkpt lat="42.67978304486685" lon="11.872982889150865"><ele>476.0</ele><time>2026-03-22T11:31:46.999Z</time></trkpt><trkpt lat="42.67979544383465" lon="11.873168102080726"><ele>475.8</ele><time>2026-03-22T11:31:47.999Z</time></trkpt><trkpt lat="42.679816490837844" lon="11.873310944494255"><ele>475.6</ele><time>2026-03-22T11:31:48.999Z</time></trkpt><trkpt lat="42.67984014838914" lon="11.873416576872991"><ele>475.4</ele><time>2026-03-22T11:31:49.999Z</time></trkpt><trkpt lat="42.67985879082908" lon="11.873502455704758"><ele>475.2</ele><time>2026-03-22T11:31:51.999Z</time></trkpt><trkpt lat="42.68000794340498" lon="11.873589992195264"><ele>475.0</ele><time>2026-03-22T11:31:55.999Z</time></trkpt><trkpt lat="42.68008337261754" lon="11.873574165783243"><ele>475.0</ele><time>2026-03-22T11:31:56.999Z</time></trkpt><trkpt lat="42.680174044237596" lon="11.873595340610633"><ele>475.0</ele><time>2026-03-22T11:31:57.999Z</time></trkpt><trkpt lat="42.680272286408616" lon="11.873600207958525"><ele>475.0</ele><time>2026-03-22T11:31:58.999Z</time></trkpt><trkpt lat="42.68038523366815" lon="11.873601752122715"><ele>475.0</ele><time>2026-03-22T11:31:59.999Z</time></trkpt><trkpt lat="42.68049164053165" lon="11.87363669685489"><ele>475.0</ele><time>2026-03-22T11:32:00.999Z</time></trkpt><trkpt lat="42.680608446961166" lon="11.8736905146649"><ele>475.0</ele><time>2026-03-22T11:32:01.999Z</time></trkpt><trkpt lat="42.68072812813697" lon="11.873748625002657"><ele>475.0</ele><time>2026-03-22T11:32:02.999Z</time></trkpt><trkpt lat="42.68084999259904" lon="11.873814892554433"><ele>475.0</ele><time>2026-03-22T11:32:03.999Z</time></trkpt><trkpt lat="42.680978415657464" lon="11.87389312932595"><ele>475.0</ele><time>2026-03-22T11:32:04.999Z</time></trkpt><trkpt lat="42.68111304332259" lon="11.87397467568436"><ele>474.75</ele><time>2026-03-22T11:32:05.999Z</time></trkpt><trkpt lat="42.681237201033625" lon="11.874076432348355"><ele>474.5</ele><time>2026-03-22T11:32:06.999Z</time></trkpt><trkpt lat="42.68137060528269" lon="11.874163814850409"><ele>474.25</ele><time>2026-03-22T11:32:07.999Z</time></trkpt><trkpt lat="42.681504166462126" lon="11.874250823963305"><ele>474.0</ele><time>2026-03-22T11:32:08.999Z</time></trkpt><trkpt lat="42.68163918741036" lon="11.874337930663115"><ele>474.0</ele><time>2026-03-22T11:32:09.999Z</time></trkpt><trkpt lat="42.68177610597763" lon="11.874426261580643"><ele>474.0</ele><time>2026-03-22T11:32:10.999Z</time></trkpt><trkpt lat="42.681911238025315" lon="11.874516213489906"><ele>474.0</ele><time>2026-03-22T11:32:11.999Z</time></trkpt><trkpt lat="42.68205160331548" lon="11.874591864050764"><ele>473.66666666666663</ele><time>2026-03-22T11:32:12.999Z</time></trkpt><trkpt lat="42.68218184485064" lon="11.874696809082582"><ele>473.3333333333333</ele><time>2026-03-22T11:32:13.999Z</time></trkpt><trkpt lat="42.68229377513105" lon="11.874838965532566"><ele>473.0</ele><time>2026-03-22T11:32:14.999Z</time></trkpt><trkpt lat="42.682412120204745" lon="11.874979509495809"><ele>472.75</ele><time>2026-03-22T11:32:15.999Z</time></trkpt><trkpt lat="42.68252736597372" lon="11.875122107632668"><ele>472.5</ele><time>2026-03-22T11:32:16.999Z</time></trkpt><trkpt lat="42.6826356292876" lon="11.875268025115478"><ele>472.25</ele><time>2026-03-22T11:32:17.999Z</time></trkpt><trkpt lat="42.682717155979326" lon="11.875424796820207"><ele>472.0</ele><time>2026-03-22T11:32:18.999Z</time></trkpt><trkpt lat="42.68277506851953" lon="11.875591509436298"><ele>472.0</ele><time>2026-03-22T11:32:19.999Z</time></trkpt><trkpt lat="42.68282981426583" lon="11.875778600502858"><ele>472.0</ele><time>2026-03-22T11:32:20.999Z</time></trkpt><trkpt lat="42.68288714676154" lon="11.875980412372186"><ele>472.0</ele><time>2026-03-22T11:32:21.999Z</time></trkpt><trkpt lat="42.68294570300638" lon="11.876187866755703"><ele>472.0</ele><time>2026-03-22T11:32:22.999Z</time></trkpt><trkpt lat="42.68300771091418" lon="11.87639941920266"><ele>472.0</ele><time>2026-03-22T11:32:23.999Z</time></trkpt><trkpt lat="42.68307671232545" lon="11.876611929104028"><ele>472.0</ele><time>2026-03-22T11:32:24.999Z</time></trkpt><trkpt lat="42.683154744184804" lon="11.876826468254546"><ele>471.0</ele><time>2026-03-22T11:32:25.999Z</time></trkpt><trkpt lat="42.68323522506296" lon="11.877036832044395"><ele>470.0</ele><time>2026-03-22T11:32:26.999Z</time></trkpt><trkpt lat="42.683333844017575" lon="11.877233801375136"><ele>469.0</ele><time>2026-03-22T11:32:27.999Z</time></trkpt><trkpt lat="42.68347131608699" lon="11.877398583423528"><ele>469.0</ele><time>2026-03-22T11:32:28.999Z</time></trkpt><trkpt lat="42.6836132417727" lon="11.877552771405735"><ele>469.0</ele><time>2026-03-22T11:32:29.999Z</time></trkpt><trkpt lat="42.68375200339385" lon="11.877720353551789"><ele>469.0</ele><time>2026-03-22T11:32:30.999Z</time></trkpt><trkpt lat="42.68388533483991" lon="11.87790624801447"><ele>469.0</ele><time>2026-03-22T11:32:31.999Z</time></trkpt><trkpt lat="42.68401757379872" lon="11.87810140306255"><ele>469.0</ele><time>2026-03-22T11:32:32.999Z</time></trkpt><trkpt lat="42.68414495616495" lon="11.878309255101694"><ele>469.0</ele><time>2026-03-22T11:32:33.999Z</time></trkpt><trkpt lat="42.68426683399839" lon="11.878506978624664"><ele>468.0</ele><time>2026-03-22T11:32:34.999Z</time></trkpt><trkpt lat="42.68439189360801" lon="11.87870992180734"><ele>467.0</ele><time>2026-03-22T11:32:36Z</time></trkpt><trkpt lat="42.68451794102894" lon="11.878924317875217"><ele>466.0</ele><time>2026-03-22T11:32:37Z</time></trkpt><trkpt lat="42.684619834847055" lon="11.87914373685242"><ele>465.0</ele><time>2026-03-22T11:32:38Z</time></trkpt><trkpt lat="42.68469030806854" lon="11.87937778424005"><ele>464.0</ele><time>2026-03-22T11:32:39Z</time></trkpt><trkpt lat="42.68473826181861" lon="11.879618280039114"><ele>463.0</ele><time>2026-03-22T11:32:40Z</time></trkpt><trkpt lat="42.68475368601261" lon="11.879830043220725"><ele>463.0</ele><time>2026-03-22T11:32:41Z</time></trkpt><trkpt lat="42.68472302575662" lon="11.880005719315378"><ele>463.0</ele><time>2026-03-22T11:32:42Z</time></trkpt><trkpt lat="42.6846526096772" lon="11.880158043024144"><ele>463.0</ele><time>2026-03-22T11:32:43Z</time></trkpt><trkpt lat="42.68455860330548" lon="11.880319101860731"><ele>463.0</ele><time>2026-03-22T11:32:44Z</time></trkpt><trkpt lat="42.68446889342752" lon="11.880493959423495"><ele>463.33333333333337</ele><time>2026-03-22T11:32:45Z</time></trkpt><trkpt lat="42.684394817432214" lon="11.880697015042378"><ele>463.66666666666663</ele><time>2026-03-22T11:32:46Z</time></trkpt><trkpt lat="42.68434032742825" lon="11.880913623590478"><ele>464.0</ele><time>2026-03-22T11:32:47Z</time></trkpt><trkpt lat="42.684295736098" lon="11.881141681316977"><ele>464.3333333333333</ele><time>2026-03-22T11:32:48Z</time></trkpt><trkpt lat="42.68425755913334" lon="11.881369915368724"><ele>464.66666666666663</ele><time>2026-03-22T11:32:49Z</time></trkpt><trkpt lat="42.68421742522131" lon="11.881600346154247"><ele>465.0</ele><time>2026-03-22T11:32:50Z</time></trkpt><trkpt lat="42.68416963825847" lon="11.881834745456834"><ele>465.0</ele><time>2026-03-22T11:32:51Z</time></trkpt><trkpt lat="42.68411790704153" lon="11.882078268057198"><ele>465.0</ele><time>2026-03-22T11:32:52Z</time></trkpt><trkpt lat="42.684064249920254" lon="11.88233031421395"><ele>465.0</ele><time>2026-03-22T11:32:53Z</time></trkpt><trkpt lat="42.68400962979234" lon="11.882588857944247"><ele>464.66666666666663</ele><time>2026-03-22T11:32:54Z</time></trkpt><trkpt lat="42.683956181235445" lon="11.882855475721255"><ele>464.3333333333333</ele><time>2026-03-22T11:32:55Z</time></trkpt><trkpt lat="42.683915313414815" lon="11.883130441345724"><ele>464.0</ele><time>2026-03-22T11:32:56Z</time></trkpt><trkpt lat="42.68387937484839" lon="11.883397226756259"><ele>463.3333333333333</ele><time>2026-03-22T11:32:57Z</time></trkpt><trkpt lat="42.68384309052854" lon="11.883666578816626"><ele>462.66666666666663</ele><time>2026-03-22T11:32:58Z</time></trkpt><trkpt lat="42.683807493682515" lon="11.883935879599878"><ele>462.0</ele><time>2026-03-22T11:32:59Z</time></trkpt><trkpt lat="42.68377186451171" lon="11.884205770541431"><ele>462.0</ele><time>2026-03-22T11:33:00Z</time></trkpt><trkpt lat="42.68373768418116" lon="11.884477859465594"><ele>462.0</ele><time>2026-03-22T11:33:01Z</time></trkpt><trkpt lat="42.683704135095574" lon="11.884749271098574"><ele>462.0</ele><time>2026-03-22T11:33:02Z</time></trkpt><trkpt lat="42.683672227574476" lon="11.885017281585503"><ele>462.0</ele><time>2026-03-22T11:33:03Z</time></trkpt><trkpt lat="42.68365098429754" lon="11.885293748682752"><ele>462.0</ele><time>2026-03-22T11:33:04Z</time></trkpt><trkpt lat="42.6836670766259" lon="11.885579003713138"><ele>462.0</ele><time>2026-03-22T11:33:05Z</time></trkpt><trkpt lat="42.683711704582734" lon="11.885858007700001"><ele>462.33333333333337</ele><time>2026-03-22T11:33:06Z</time></trkpt><trkpt lat="42.683763831941285" lon="11.886137888211758"><ele>462.6666666666667</ele><time>2026-03-22T11:33:07Z</time></trkpt><trkpt lat="42.68382163385633" lon="11.886421014560625"><ele>463.0</ele><time>2026-03-22T11:33:08Z</time></trkpt><trkpt lat="42.683888167785135" lon="11.886703082951835"><ele>462.33333333333337</ele><time>2026-03-22T11:33:09Z</time></trkpt><trkpt lat="42.683957871855625" lon="11.886986399225382"><ele>461.66666666666663</ele><time>2026-03-22T11:33:10Z</time></trkpt><trkpt lat="42.684028192513814" lon="11.887272297464097"><ele>461.0</ele><time>2026-03-22T11:33:11Z</time></trkpt><trkpt lat="42.68409755764579" lon="11.887554604051665"><ele>461.66666666666663</ele><time>2026-03-22T11:33:12Z</time></trkpt><trkpt lat="42.68416682027694" lon="11.887836670047186"><ele>462.33333333333337</ele><time>2026-03-22T11:33:13Z</time></trkpt><trkpt lat="42.68423540017167" lon="11.888117529615508"><ele>463.0</ele><time>2026-03-22T11:33:14Z</time></trkpt><trkpt lat="42.684302061203866" lon="11.888397356032147"><ele>463.0</ele><time>2026-03-22T11:33:15Z</time></trkpt><trkpt lat="42.684344187464056" lon="11.888674220049182"><ele>463.0</ele><time>2026-03-22T11:33:16Z</time></trkpt><trkpt lat="42.684346277543106" lon="11.888951977419104"><ele>463.0</ele><time>2026-03-22T11:33:17Z</time></trkpt><trkpt lat="42.68429406402089" lon="11.889203007326651"><ele>463.33333333333337</ele><time>2026-03-22T11:33:18Z</time></trkpt><trkpt lat="42.68420890549346" lon="11.889448645371644"><ele>463.66666666666663</ele><time>2026-03-22T11:33:19Z</time></trkpt><trkpt lat="42.684121972781945" lon="11.88970102880231"><ele>464.0</ele><time>2026-03-22T11:33:20Z</time></trkpt><trkpt lat="42.684035352076485" lon="11.889952658908424"><ele>465.0</ele><time>2026-03-22T11:33:21Z</time></trkpt><trkpt lat="42.683950561931326" lon="11.890198971308385"><ele>466.0</ele><time>2026-03-22T11:33:22Z</time></trkpt><trkpt lat="42.68386772809" lon="11.890442179415874"><ele>467.0</ele><time>2026-03-22T11:33:23Z</time></trkpt><trkpt lat="42.683793623110994" lon="11.890683366774727"><ele>468.0</ele><time>2026-03-22T11:33:24Z</time></trkpt><trkpt lat="42.683757497692945" lon="11.890948187488728"><ele>469.0</ele><time>2026-03-22T11:33:25Z</time></trkpt><trkpt lat="42.68378848327043" lon="11.89121602892868"><ele>470.0</ele><time>2026-03-22T11:33:26Z</time></trkpt><trkpt lat="42.68389026052283" lon="11.89144896593619"><ele>470.0</ele><time>2026-03-22T11:33:27Z</time></trkpt><trkpt lat="42.68403418481036" lon="11.891594767516855"><ele>470.0</ele><time>2026-03-22T11:33:28Z</time></trkpt><trkpt lat="42.684169559119425" lon="11.891738536432403"><ele>470.0</ele><time>2026-03-22T11:33:29Z</time></trkpt><trkpt lat="42.68430168427841" lon="11.891861559982289"><ele>471.0</ele><time>2026-03-22T11:33:30Z</time></trkpt><trkpt lat="42.684414271742796" lon="11.892014288433362"><ele>472.0</ele><time>2026-03-22T11:33:31Z</time></trkpt><trkpt lat="42.68449071763373" lon="11.89220091728178"><ele>473.0</ele><time>2026-03-22T11:33:32Z</time></trkpt><trkpt lat="42.68454761974952" lon="11.89241657031549"><ele>473.66666666666663</ele><time>2026-03-22T11:33:33Z</time></trkpt><trkpt lat="42.68459457317785" lon="11.892644250852191"><ele>474.33333333333337</ele><time>2026-03-22T11:33:34Z</time></trkpt><trkpt lat="42.684640579436476" lon="11.89287386420156"><ele>475.0</ele><time>2026-03-22T11:33:35Z</time></trkpt><trkpt lat="42.68468609374814" lon="11.893104272047019"><ele>475.0</ele><time>2026-03-22T11:33:36Z</time></trkpt><trkpt lat="42.68472963547509" lon="11.89333346529181"><ele>475.0</ele><time>2026-03-22T11:33:37Z</time></trkpt><trkpt lat="42.684765272419085" lon="11.89356124139417"><ele>475.0</ele><time>2026-03-22T11:33:38Z</time></trkpt><trkpt lat="42.68478538172646" lon="11.893782713540798"><ele>477.0</ele><time>2026-03-22T11:33:39Z</time></trkpt><trkpt lat="42.68478198981849" lon="11.89401253550068"><ele>479.0</ele><time>2026-03-22T11:33:40Z</time></trkpt><trkpt lat="42.68473475351164" lon="11.894242016424332"><ele>481.0</ele><time>2026-03-22T11:33:41Z</time></trkpt><trkpt lat="42.68465645809232" lon="11.894449094496759"><ele>482.6666666666667</ele><time>2026-03-22T11:33:42Z</time></trkpt><trkpt lat="42.68457317934435" lon="11.894675721622248"><ele>484.33333333333337</ele><time>2026-03-22T11:33:43Z</time></trkpt><trkpt lat="42.684497591661376" lon="11.894919464349664"><ele>486.0</ele><time>2026-03-22T11:33:43.999Z</time></trkpt><trkpt lat="42.684438238458505" lon="11.895160232320526"><ele>491.0</ele><time>2026-03-22T11:33:44.999Z</time></trkpt><trkpt lat="42.68438159005771" lon="11.895412706826042"><ele>496.0</ele><time>2026-03-22T11:33:45.999Z</time></trkpt><trkpt lat="42.684326730540796" lon="11.895659520791943"><ele>501.0</ele><time>2026-03-22T11:33:46.999Z</time></trkpt><trkpt lat="42.684273600017136" lon="11.895907085427538"><ele>500.66666666666663</ele><time>2026-03-22T11:33:47.999Z</time></trkpt><trkpt lat="42.68422074286793" lon="11.896153376304959"><ele>500.3333333333333</ele><time>2026-03-22T11:33:48.999Z</time></trkpt><trkpt lat="42.684168052901285" lon="11.896398888148136"><ele>500.0</ele><time>2026-03-22T11:33:49.999Z</time></trkpt><trkpt lat="42.684116259467054" lon="11.896640222550683"><ele>500.3333333333333</ele><time>2026-03-22T11:33:50.999Z</time></trkpt><trkpt lat="42.68406909745389" lon="11.89688625643566"><ele>500.66666666666663</ele><time>2026-03-22T11:33:51.999Z</time></trkpt><trkpt lat="42.68403896966288" lon="11.89713540763875"><ele>501.0</ele><time>2026-03-22T11:33:52.999Z</time></trkpt><trkpt lat="42.68404528334403" lon="11.897388872029563"><ele>499.66666666666663</ele><time>2026-03-22T11:33:53.999Z</time></trkpt><trkpt lat="42.684092896349924" lon="11.897616805654952"><ele>498.3333333333333</ele><time>2026-03-22T11:33:54.999Z</time></trkpt><trkpt lat="42.68417490624977" lon="11.897817373185413"><ele>497.0</ele><time>2026-03-22T11:33:55.999Z</time></trkpt><trkpt lat="42.68430937174819" lon="11.89797280753481"><ele>498.66666666666663</ele><time>2026-03-22T11:33:56.999Z</time></trkpt><trkpt lat="42.68442998818692" lon="11.898118152042898"><ele>500.33333333333337</ele><time>2026-03-22T11:33:57.999Z</time></trkpt><trkpt lat="42.6845557962264" lon="11.898280633732924"><ele>502.0</ele><time>2026-03-22T11:33:58.999Z</time></trkpt><trkpt lat="42.684694674987064" lon="11.898422626132207"><ele>502.0</ele><time>2026-03-22T11:33:59.999Z</time></trkpt><trkpt lat="42.68484343306144" lon="11.898565180471547"><ele>502.0</ele><time>2026-03-22T11:34:00.999Z</time></trkpt><trkpt lat="42.68499807868365" lon="11.89869665806714"><ele>502.0</ele><time>2026-03-22T11:34:01.999Z</time></trkpt><trkpt lat="42.685152746315964" lon="11.898811234443881"><ele>503.6666666666667</ele><time>2026-03-22T11:34:02.999Z</time></trkpt><trkpt lat="42.685316379804476" lon="11.898930289496148"><ele>505.33333333333337</ele><time>2026-03-22T11:34:03.999Z</time></trkpt><trkpt lat="42.68548170820967" lon="11.89903753041674"><ele>507.0</ele><time>2026-03-22T11:34:04.999Z</time></trkpt><trkpt lat="42.6856311376039" lon="11.89916531027774"><ele>507.25</ele><time>2026-03-22T11:34:05.999Z</time></trkpt><trkpt lat="42.685722887928875" lon="11.899347489041089"><ele>507.5</ele><time>2026-03-22T11:34:06.999Z</time></trkpt><trkpt lat="42.685774678521945" lon="11.899528728033728"><ele>507.75</ele><time>2026-03-22T11:34:07.999Z</time></trkpt><trkpt lat="42.68580282435806" lon="11.899715688992645"><ele>508.0</ele><time>2026-03-22T11:34:08.999Z</time></trkpt><trkpt lat="42.685840116558396" lon="11.89991946593886"><ele>507.6666666666667</ele><time>2026-03-22T11:34:09.999Z</time></trkpt><trkpt lat="42.68582675712014" lon="11.900134732500453"><ele>507.33333333333337</ele><time>2026-03-22T11:34:10.999Z</time></trkpt><trkpt lat="42.68580674322864" lon="11.900344142629127"><ele>507.0</ele><time>2026-03-22T11:34:11.999Z</time></trkpt><trkpt lat="42.685792388246135" lon="11.90056743093991"><ele>507.0</ele><time>2026-03-22T11:34:12.999Z</time></trkpt><trkpt lat="42.68575800835786" lon="11.90079566115197"><ele>507.0</ele><time>2026-03-22T11:34:13.999Z</time></trkpt><trkpt lat="42.68574096082713" lon="11.901034445587085"><ele>507.0</ele><time>2026-03-22T11:34:14.999Z</time></trkpt><trkpt lat="42.68571982001229" lon="11.90126650936385"><ele>506.0</ele><time>2026-03-22T11:34:15.999Z</time></trkpt><trkpt lat="42.68568417532819" lon="11.901494866654573"><ele>505.0</ele><time>2026-03-22T11:34:16.999Z</time></trkpt><trkpt lat="42.68563908066274" lon="11.901722825139968"><ele>504.0</ele><time>2026-03-22T11:34:17.999Z</time></trkpt><trkpt lat="42.68558303824974" lon="11.901947536753536"><ele>503.33333333333337</ele><time>2026-03-22T11:34:18.999Z</time></trkpt><trkpt lat="42.685524838238884" lon="11.90216675540587"><ele>502.6666666666667</ele><time>2026-03-22T11:34:19.999Z</time></trkpt><trkpt lat="42.68546761975917" lon="11.902382423531428"><ele>502.0</ele><time>2026-03-22T11:34:20.999Z</time></trkpt><trkpt lat="42.68541931350961" lon="11.902599167426581"><ele>501.33333333333337</ele><time>2026-03-22T11:34:21.999Z</time></trkpt><trkpt lat="42.68540635361839" lon="11.902820341778032"><ele>500.66666666666663</ele><time>2026-03-22T11:34:22.999Z</time></trkpt><trkpt lat="42.685402267487405" lon="11.903020932303113"><ele>500.0</ele><time>2026-03-22T11:34:23.999Z</time></trkpt><trkpt lat="42.685402347634316" lon="11.9032174368549"><ele>500.0</ele><time>2026-03-22T11:34:24.999Z</time></trkpt><trkpt lat="42.68540234763216" lon="11.903413846594205"><ele>500.0</ele><time>2026-03-22T11:34:25.999Z</time></trkpt><trkpt lat="42.68540815536582" lon="11.903618556385412"><ele>500.0</ele><time>2026-03-22T11:34:26.999Z</time></trkpt><trkpt lat="42.685434197172974" lon="11.903825184131628"><ele>500.0</ele><time>2026-03-22T11:34:27.999Z</time></trkpt><trkpt lat="42.68548452035057" lon="11.904028575266924"><ele>499.3333333333333</ele><time>2026-03-22T11:34:28.999Z</time></trkpt><trkpt lat="42.68555002082812" lon="11.904228027672227"><ele>498.66666666666663</ele><time>2026-03-22T11:34:29.999Z</time></trkpt><trkpt lat="42.68562118476101" lon="11.904417155058287"><ele>498.0</ele><time>2026-03-22T11:34:30.999Z</time></trkpt><trkpt lat="42.68569181079062" lon="11.904600027082967"><ele>497.5</ele><time>2026-03-22T11:34:31.999Z</time></trkpt><trkpt lat="42.685760476584534" lon="11.904776388456307"><ele>497.0</ele><time>2026-03-22T11:34:32.999Z</time></trkpt><trkpt lat="42.68582354663782" lon="11.904941938711765"><ele>496.5</ele><time>2026-03-22T11:34:33.999Z</time></trkpt><trkpt lat="42.68588303742928" lon="11.905101773478387"><ele>496.0</ele><time>2026-03-22T11:34:34.999Z</time></trkpt><trkpt lat="42.685937714884076" lon="11.905249927850793"><ele>495.8</ele><time>2026-03-22T11:34:35.999Z</time></trkpt><trkpt lat="42.685988874258136" lon="11.905386946694195"><ele>495.6</ele><time>2026-03-22T11:34:36.999Z</time></trkpt><trkpt lat="42.68605051480177" lon="11.905500781600779"><ele>495.4</ele><time>2026-03-22T11:34:37.999Z</time></trkpt><trkpt lat="42.68609442886046" lon="11.9056104786607"><ele>495.2</ele><time>2026-03-22T11:34:38.999Z</time></trkpt><trkpt lat="42.68611617243175" lon="11.905709998556015"><ele>495.0</ele><time>2026-03-22T11:34:39.999Z</time></trkpt><trkpt lat="42.68615877676713" lon="11.905818117669615"><ele>495.2</ele><time>2026-03-22T11:34:42Z</time></trkpt><trkpt lat="42.68615727697784" lon="11.905917707091241"><ele>495.4</ele><time>2026-03-22T11:35:05Z</time></trkpt><trkpt lat="42.68621224752128" lon="11.906011750318452"><ele>495.6</ele><time>2026-03-22T11:35:09Z</time></trkpt><trkpt lat="42.686361945973296" lon="11.905960432691936"><ele>495.8</ele><time>2026-03-22T11:35:11Z</time></trkpt><trkpt lat="42.68643839095029" lon="11.90589641441946"><ele>496.0</ele><time>2026-03-22T11:35:12Z</time></trkpt><trkpt lat="42.686521900084" lon="11.90583162221622"><ele>495.6</ele><time>2026-03-22T11:35:13Z</time></trkpt><trkpt lat="42.6866045420239" lon="11.905773142779172"><ele>495.20000000000005</ele><time>2026-03-22T11:35:14Z</time></trkpt><trkpt lat="42.68669011592223" lon="11.905713490681094"><ele>494.79999999999995</ele><time>2026-03-22T11:35:15Z</time></trkpt><trkpt lat="42.68677296699741" lon="11.90565351696128"><ele>494.4</ele><time>2026-03-22T11:35:16Z</time></trkpt><trkpt lat="42.686855997987514" lon="11.905593744814"><ele>494.0</ele><time>2026-03-22T11:35:17Z</time></trkpt><trkpt lat="42.686939450133" lon="11.9055335433659"><ele>493.57142857142856</ele><time>2026-03-22T11:35:18Z</time></trkpt><trkpt lat="42.687015531324704" lon="11.905483746419783"><ele>493.1428571428571</ele><time>2026-03-22T11:35:19Z</time></trkpt><trkpt lat="42.68708773959655" lon="11.90543586882045"><ele>492.71428571428567</ele><time>2026-03-22T11:35:20Z</time></trkpt><trkpt lat="42.68714783482374" lon="11.905395392667037"><ele>492.2857142857143</ele><time>2026-03-22T11:35:21Z</time></trkpt><trkpt lat="42.687222612890096" lon="11.905361064519651"><ele>491.8571428571428</ele><time>2026-03-22T11:35:23Z</time></trkpt><trkpt lat="42.68728708368879" lon="11.905374481475421"><ele>491.4285714285714</ele><time>2026-03-22T11:35:27Z</time></trkpt><trkpt lat="42.68735069442663" lon="11.905330175528217"><ele>491.0</ele><time>2026-03-22T11:35:31Z</time></trkpt><trkpt lat="42.68740667916526" lon="11.90529061461001"><ele>490.99999999999994</ele><time>2026-03-22T11:35:34Z</time></trkpt><trkpt lat="42.68743826180371" lon="11.905365612727895"><ele>491.0</ele><time>2026-03-22T11:35:37Z</time></trkpt><trkpt lat="42.68756803615452" lon="11.90535984584331"><ele>491.0</ele><time>2026-03-22T11:46:04Z</time></trkpt><trkpt lat="42.687607908213245" lon="11.905262090684413"><ele>491.0</ele><time>2026-03-22T11:46:06Z</time></trkpt><trkpt lat="42.68764707541395" lon="11.905146516440862"><ele>490.99999999999994</ele><time>2026-03-22T11:46:08Z</time></trkpt><trkpt lat="42.68769934269533" lon="11.905082579375216"><ele>491.0</ele><time>2026-03-22T11:46:09Z</time></trkpt><trkpt lat="42.68776651308383" lon="11.905024269376765"><ele>490.20000000000005</ele><time>2026-03-22T11:46:10Z</time></trkpt><trkpt lat="42.68785685514991" lon="11.904976649966478"><ele>489.40000000000003</ele><time>2026-03-22T11:46:11Z</time></trkpt><trkpt lat="42.687943870722734" lon="11.904920335309987"><ele>488.6</ele><time>2026-03-22T11:46:12Z</time></trkpt><trkpt lat="42.688043876496735" lon="11.904846061311604"><ele>487.8</ele><time>2026-03-22T11:46:13Z</time></trkpt><trkpt lat="42.68814683110741" lon="11.904770077401809"><ele>487.0</ele><time>2026-03-22T11:46:14Z</time></trkpt><trkpt lat="42.68824753034002" lon="11.904694100118954"><ele>487.0</ele><time>2026-03-22T11:46:15Z</time></trkpt><trkpt lat="42.68834792794661" lon="11.904613084751459"><ele>487.0</ele><time>2026-03-22T11:46:16Z</time></trkpt><trkpt lat="42.68845739862493" lon="11.904528226297382"><ele>487.0</ele><time>2026-03-22T11:46:17Z</time></trkpt><trkpt lat="42.688572517139114" lon="11.904446098281497"><ele>487.0</ele><time>2026-03-22T11:46:18Z</time></trkpt><trkpt lat="42.68868422247941" lon="11.904366015180488"><ele>486.75</ele><time>2026-03-22T11:46:19Z</time></trkpt><trkpt lat="42.68880165531239" lon="11.904284401696202"><ele>486.5</ele><time>2026-03-22T11:46:20Z</time></trkpt><trkpt lat="42.68891802736295" lon="11.904213666677597"><ele>486.25</ele><time>2026-03-22T11:46:21Z</time></trkpt><trkpt lat="42.689037432977955" lon="11.904164689725953"><ele>486.0</ele><time>2026-03-22T11:46:22Z</time></trkpt><trkpt lat="42.68916301691256" lon="11.904137004606238"><ele>484.33333333333337</ele><time>2026-03-22T11:46:23Z</time></trkpt><trkpt lat="42.68928943853609" lon="11.90412825870721"><ele>482.6666666666667</ele><time>2026-03-22T11:46:23.999Z</time></trkpt><trkpt lat="42.68954590977335" lon="11.904144346168463"><ele>481.0</ele><time>2026-03-22T11:46:25.999Z</time></trkpt><trkpt lat="42.689672111742766" lon="11.904157493177824"><ele>480.0</ele><time>2026-03-22T11:46:26.999Z</time></trkpt><trkpt lat="42.68980483793047" lon="11.904164809051593"><ele>479.0</ele><time>2026-03-22T11:46:27.999Z</time></trkpt><trkpt lat="42.68993745847015" lon="11.904137224582511"><ele>478.0</ele><time>2026-03-22T11:46:28.999Z</time></trkpt><trkpt lat="42.69008673322268" lon="11.904074827229675"><ele>477.0</ele><time>2026-03-22T11:46:29.999Z</time></trkpt><trkpt lat="42.69023098349811" lon="11.904001257883085"><ele>475.0</ele><time>2026-03-22T11:46:30.999Z</time></trkpt><trkpt lat="42.690386295086576" lon="11.903931461350155"><ele>473.0</ele><time>2026-03-22T11:46:31.999Z</time></trkpt><trkpt lat="42.690540772233646" lon="11.90385537899426"><ele>471.0</ele><time>2026-03-22T11:46:32.999Z</time></trkpt><trkpt lat="42.69069003689634" lon="11.903770242466429"><ele>471.0</ele><time>2026-03-22T11:46:33.999Z</time></trkpt><trkpt lat="42.69083963560517" lon="11.903680333730806"><ele>471.0</ele><time>2026-03-22T11:46:34.999Z</time></trkpt><trkpt lat="42.69098995591927" lon="11.903592089903693"><ele>471.0</ele><time>2026-03-22T11:46:35.999Z</time></trkpt><trkpt lat="42.69115079744899" lon="11.90351449116423"><ele>471.33333333333337</ele><time>2026-03-22T11:46:36.999Z</time></trkpt><trkpt lat="42.69131934187353" lon="11.903454928646786"><ele>471.6666666666667</ele><time>2026-03-22T11:46:37.999Z</time></trkpt><trkpt lat="42.691490690490156" lon="11.903406115969949"><ele>472.0</ele><time>2026-03-22T11:46:38.999Z</time></trkpt><trkpt lat="42.69167104923866" lon="11.903366798829063"><ele>472.0</ele><time>2026-03-22T11:46:39.999Z</time></trkpt><trkpt lat="42.69185685690131" lon="11.903329905259696"><ele>472.0</ele><time>2026-03-22T11:46:40.999Z</time></trkpt><trkpt lat="42.69204618274796" lon="11.903294925861639"><ele>472.0</ele><time>2026-03-22T11:46:41.999Z</time></trkpt><trkpt lat="42.69223858301558" lon="11.903260454200314"><ele>470.6666666666667</ele><time>2026-03-22T11:46:42.999Z</time></trkpt><trkpt lat="42.692434433500246" lon="11.903227014218858"><ele>469.33333333333337</ele><time>2026-03-22T11:46:43.999Z</time></trkpt><trkpt lat="42.69262624671882" lon="11.90318929215473"><ele>468.0</ele><time>2026-03-22T11:46:44.999Z</time></trkpt><trkpt lat="42.69281897263508" lon="11.903147098275491"><ele>467.66666666666663</ele><time>2026-03-22T11:46:45.999Z</time></trkpt><trkpt lat="42.69301368183395" lon="11.903106034153033"><ele>467.3333333333333</ele><time>2026-03-22T11:46:46.999Z</time></trkpt><trkpt lat="42.69321381635493" lon="11.903070952985201"><ele>467.0</ele><time>2026-03-22T11:46:47.999Z</time></trkpt><trkpt lat="42.69341473777152" lon="11.903034073540546"><ele>466.66666666666663</ele><time>2026-03-22T11:46:48.999Z</time></trkpt><trkpt lat="42.693614097885735" lon="11.902992455345183"><ele>466.33333333333337</ele><time>2026-03-22T11:46:49.999Z</time></trkpt><trkpt lat="42.69381472318463" lon="11.902950270690756"><ele>466.0</ele><time>2026-03-22T11:46:50.999Z</time></trkpt><trkpt lat="42.69401600962708" lon="11.902909534589915"><ele>466.0</ele><time>2026-03-22T11:46:51.999Z</time></trkpt><trkpt lat="42.69421758752889" lon="11.902869823887848"><ele>466.0</ele><time>2026-03-22T11:46:52.999Z</time></trkpt><trkpt lat="42.69442001512951" lon="11.902834698538976"><ele>466.0</ele><time>2026-03-22T11:46:53.999Z</time></trkpt><trkpt lat="42.694621327959815" lon="11.902800926918857"><ele>465.33333333333337</ele><time>2026-03-22T11:46:54.999Z</time></trkpt><trkpt lat="42.694821543844824" lon="11.902765158399342"><ele>464.66666666666663</ele><time>2026-03-22T11:46:55.999Z</time></trkpt><trkpt lat="42.695020798290635" lon="11.902730422301962"><ele>464.0</ele><time>2026-03-22T11:46:56.999Z</time></trkpt><trkpt lat="42.695221750956215" lon="11.902701877072753"><ele>464.0</ele><time>2026-03-22T11:46:57.999Z</time></trkpt><trkpt lat="42.69542241750297" lon="11.902682284857812"><ele>464.0</ele><time>2026-03-22T11:46:58.999Z</time></trkpt><trkpt lat="42.695624310506815" lon="11.90267778305531"><ele>464.0</ele><time>2026-03-22T11:46:59.999Z</time></trkpt><trkpt lat="42.69582503494759" lon="11.90268159937744"><ele>464.0</ele><time>2026-03-22T11:47:00.999Z</time></trkpt><trkpt lat="42.69602599886148" lon="11.90268415282289"><ele>464.0</ele><time>2026-03-22T11:47:01.999Z</time></trkpt><trkpt lat="42.69622754146021" lon="11.902682267166144"><ele>464.0</ele><time>2026-03-22T11:47:02.999Z</time></trkpt><trkpt lat="42.696428062919395" lon="11.902676800174778"><ele>463.66666666666663</ele><time>2026-03-22T11:47:03.999Z</time></trkpt><trkpt lat="42.696627136655536" lon="11.902654712078409"><ele>463.33333333333337</ele><time>2026-03-22T11:47:04.999Z</time></trkpt><trkpt lat="42.6968238364708" lon="11.90261145888807"><ele>463.0</ele><time>2026-03-22T11:47:05.999Z</time></trkpt><trkpt lat="42.69701797927572" lon="11.902545419783447"><ele>462.0</ele><time>2026-03-22T11:47:06.999Z</time></trkpt><trkpt lat="42.697210551355525" lon="11.902468721491386"><ele>461.0</ele><time>2026-03-22T11:47:07.999Z</time></trkpt><trkpt lat="42.69740050437325" lon="11.902383057062378"><ele>460.0</ele><time>2026-03-22T11:47:08.999Z</time></trkpt><trkpt lat="42.69759163612004" lon="11.90229605551179"><ele>461.33333333333337</ele><time>2026-03-22T11:47:09.999Z</time></trkpt><trkpt lat="42.69778329444442" lon="11.902209948456498"><ele>462.66666666666663</ele><time>2026-03-22T11:47:10.999Z</time></trkpt><trkpt lat="42.69797427609746" lon="11.902121608754143"><ele>464.0</ele><time>2026-03-22T11:47:11.999Z</time></trkpt><trkpt lat="42.69816381655739" lon="11.902030605598842"><ele>464.0</ele><time>2026-03-22T11:47:12.999Z</time></trkpt><trkpt lat="42.698353580412125" lon="11.901944164120904"><ele>464.0</ele><time>2026-03-22T11:47:13.999Z</time></trkpt><trkpt lat="42.69854790834972" lon="11.901873052422015"><ele>464.0</ele><time>2026-03-22T11:47:14.999Z</time></trkpt><trkpt lat="42.69874819501244" lon="11.901823355497312"><ele>463.66666666666663</ele><time>2026-03-22T11:47:15.999Z</time></trkpt><trkpt lat="42.6989475103639" lon="11.901797430101107"><ele>463.33333333333337</ele><time>2026-03-22T11:47:17.001Z</time></trkpt><trkpt lat="42.699147461539425" lon="11.901766469705317"><ele>463.0</ele><time>2026-03-22T11:47:18.001Z</time></trkpt><trkpt lat="42.6993443522152" lon="11.901723694773839"><ele>461.0</ele><time>2026-03-22T11:47:19.001Z</time></trkpt><trkpt lat="42.69954567919541" lon="11.90166466736609"><ele>459.0</ele><time>2026-03-22T11:47:20.001Z</time></trkpt><trkpt lat="42.69974694883744" lon="11.901592936855666"><ele>457.0</ele><time>2026-03-22T11:47:21.001Z</time></trkpt><trkpt lat="42.69994885810519" lon="11.901518146233277"><ele>457.0</ele><time>2026-03-22T11:47:22.001Z</time></trkpt><trkpt lat="42.70015074711452" lon="11.901448611611967"><ele>457.0</ele><time>2026-03-22T11:47:23.001Z</time></trkpt><trkpt lat="42.70035398456997" lon="11.901383748967403"><ele>457.0</ele><time>2026-03-22T11:47:24.001Z</time></trkpt><trkpt lat="42.70055629218298" lon="11.901320738233167"><ele>456.6666666666667</ele><time>2026-03-22T11:47:25.001Z</time></trkpt><trkpt lat="42.70075575600288" lon="11.901260393413077"><ele>456.33333333333337</ele><time>2026-03-22T11:47:26.001Z</time></trkpt><trkpt lat="42.700955957763505" lon="11.901206998941902"><ele>456.0</ele><time>2026-03-22T11:47:27.001Z</time></trkpt><trkpt lat="42.70115754268132" lon="11.901164605374273"><ele>456.0</ele><time>2026-03-22T11:47:28.001Z</time></trkpt><trkpt lat="42.701351566157726" lon="11.901133443179429"><ele>456.0</ele><time>2026-03-22T11:47:29.001Z</time></trkpt><trkpt lat="42.7015354637581" lon="11.901110656540299"><ele>456.0</ele><time>2026-03-22T11:47:30.001Z</time></trkpt><trkpt lat="42.7017161602768" lon="11.901094411256873"><ele>456.0</ele><time>2026-03-22T11:47:31.001Z</time></trkpt><trkpt lat="42.701889209195265" lon="11.90108539643643"><ele>456.0</ele><time>2026-03-22T11:47:32.001Z</time></trkpt><trkpt lat="42.70205459322647" lon="11.901085350979496"><ele>456.0</ele><time>2026-03-22T11:47:33.001Z</time></trkpt><trkpt lat="42.702210402472154" lon="11.901090416985674"><ele>456.0</ele><time>2026-03-22T11:47:34.001Z</time></trkpt><trkpt lat="42.702358755326" lon="11.901093571517139"><ele>456.0</ele><time>2026-03-22T11:47:35Z</time></trkpt><trkpt lat="42.70250051467803" lon="11.901093520269463"><ele>456.0</ele><time>2026-03-22T11:47:36Z</time></trkpt><trkpt lat="42.702634343648114" lon="11.901092045738176"><ele>456.0</ele><time>2026-03-22T11:47:37Z</time></trkpt><trkpt lat="42.70276196948337" lon="11.901093347506347"><ele>456.0</ele><time>2026-03-22T11:47:38Z</time></trkpt><trkpt lat="42.702888277879154" lon="11.901090545021834"><ele>456.0</ele><time>2026-03-22T11:47:39Z</time></trkpt><trkpt lat="42.70302956766586" lon="11.901091845849606"><ele>456.0</ele><time>2026-03-22T11:47:40Z</time></trkpt><trkpt lat="42.703180998783395" lon="11.901094260144959"><ele>456.0</ele><time>2026-03-22T11:47:41Z</time></trkpt><trkpt lat="42.70333906464085" lon="11.901086541777106"><ele>456.0</ele><time>2026-03-22T11:47:42Z</time></trkpt><trkpt lat="42.703503555600484" lon="11.90106039338162"><ele>456.0</ele><time>2026-03-22T11:47:43Z</time></trkpt><trkpt lat="42.70367278339023" lon="11.901015752077289"><ele>456.0</ele><time>2026-03-22T11:47:44Z</time></trkpt><trkpt lat="42.703849191302126" lon="11.900956455732706"><ele>455.33333333333337</ele><time>2026-03-22T11:47:45Z</time></trkpt><trkpt lat="42.704029525377294" lon="11.900887902857157"><ele>454.6666666666667</ele><time>2026-03-22T11:47:46Z</time></trkpt><trkpt lat="42.704213831017974" lon="11.900813510352965"><ele>454.0</ele><time>2026-03-22T11:47:47Z</time></trkpt><trkpt lat="42.704401380232504" lon="11.900735066460657"><ele>453.0</ele><time>2026-03-22T11:47:48Z</time></trkpt><trkpt lat="42.70459121400571" lon="11.900655007718331"><ele>452.0</ele><time>2026-03-22T11:47:49Z</time></trkpt><trkpt lat="42.7047862789969" lon="11.900577075228759"><ele>451.0</ele><time>2026-03-22T11:47:50Z</time></trkpt><trkpt lat="42.70498543129574" lon="11.900511710021862"><ele>451.0</ele><time>2026-03-22T11:47:51Z</time></trkpt><trkpt lat="42.70518952210465" lon="11.9004617750174"><ele>451.0</ele><time>2026-03-22T11:47:52Z</time></trkpt><trkpt lat="42.70539824827356" lon="11.900418215601166"><ele>451.0</ele><time>2026-03-22T11:47:53Z</time></trkpt><trkpt lat="42.705608721379704" lon="11.900367326461591"><ele>450.6666666666667</ele><time>2026-03-22T11:47:54Z</time></trkpt><trkpt lat="42.70582111186756" lon="11.900315554091947"><ele>450.33333333333337</ele><time>2026-03-22T11:47:55Z</time></trkpt><trkpt lat="42.70603814961062" lon="11.90026932026421"><ele>450.0</ele><time>2026-03-22T11:47:56Z</time></trkpt><trkpt lat="42.70625638659623" lon="11.900221659729292"><ele>449.66666666666663</ele><time>2026-03-22T11:47:57Z</time></trkpt><trkpt lat="42.70647540354531" lon="11.900173089098516"><ele>449.3333333333333</ele><time>2026-03-22T11:47:58Z</time></trkpt><trkpt lat="42.70669695461961" lon="11.900125348895033"><ele>449.0</ele><time>2026-03-22T11:47:59Z</time></trkpt><trkpt lat="42.70691887460934" lon="11.90007509365178"><ele>449.0</ele><time>2026-03-22T11:48:00Z</time></trkpt><trkpt lat="42.707141150528" lon="11.900017148907382"><ele>449.0</ele><time>2026-03-22T11:48:01Z</time></trkpt><trkpt lat="42.70736050116341" lon="11.899943860825948"><ele>449.0</ele><time>2026-03-22T11:48:02Z</time></trkpt><trkpt lat="42.70757642186928" lon="11.899848296480613"><ele>449.0</ele><time>2026-03-22T11:48:03Z</time></trkpt><trkpt lat="42.707790735845954" lon="11.899739644459785"><ele>448.5</ele><time>2026-03-22T11:48:04Z</time></trkpt><trkpt lat="42.70800412810493" lon="11.899625630639578"><ele>448.0</ele><time>2026-03-22T11:48:05Z</time></trkpt><trkpt lat="42.7082178412579" lon="11.899506061685171"><ele>448.0</ele><time>2026-03-22T11:48:06Z</time></trkpt><trkpt lat="42.708432359150045" lon="11.899386767321104"><ele>448.0</ele><time>2026-03-22T11:48:07Z</time></trkpt><trkpt lat="42.70864865166622" lon="11.89926416643404"><ele>448.5</ele><time>2026-03-22T11:48:08Z</time></trkpt><trkpt lat="42.70886344030347" lon="11.899141279635131"><ele>449.0</ele><time>2026-03-22T11:48:09Z</time></trkpt><trkpt lat="42.70907823412252" lon="11.899015711202532"><ele>449.0</ele><time>2026-03-22T11:48:10Z</time></trkpt><trkpt lat="42.70929332812492" lon="11.898889285798848"><ele>449.0</ele><time>2026-03-22T11:48:11Z</time></trkpt><trkpt lat="42.709509163751406" lon="11.898761430239992"><ele>447.5</ele><time>2026-03-22T11:48:12Z</time></trkpt><trkpt lat="42.70972453432697" lon="11.898635126048719"><ele>446.0</ele><time>2026-03-22T11:48:13Z</time></trkpt><trkpt lat="42.70993914399525" lon="11.898511132467748"><ele>446.5</ele><time>2026-03-22T11:48:14Z</time></trkpt><trkpt lat="42.71015486177765" lon="11.898391906353167"><ele>447.0</ele><time>2026-03-22T11:48:15Z</time></trkpt><trkpt lat="42.71037295676846" lon="11.89827969020905"><ele>446.0</ele><time>2026-03-22T11:48:16Z</time></trkpt><trkpt lat="42.7105936316639" lon="11.898176340957322"><ele>445.0</ele><time>2026-03-22T11:48:17Z</time></trkpt><trkpt lat="42.71081417097494" lon="11.89807623622357"><ele>445.0</ele><time>2026-03-22T11:48:18Z</time></trkpt><trkpt lat="42.71103378485443" lon="11.897979584060698"><ele>445.0</ele><time>2026-03-22T11:48:19Z</time></trkpt><trkpt lat="42.71124928439356" lon="11.897879541035682"><ele>445.0</ele><time>2026-03-22T11:48:20Z</time></trkpt><trkpt lat="42.711451490869585" lon="11.897778623028415"><ele>445.0</ele><time>2026-03-22T11:48:20.999Z</time></trkpt><trkpt lat="42.7116438718982" lon="11.897677277070416"><ele>445.0</ele><time>2026-03-22T11:48:21.999Z</time></trkpt><trkpt lat="42.71182690290209" lon="11.897578431675857"><ele>445.33333333333337</ele><time>2026-03-22T11:48:22.999Z</time></trkpt><trkpt lat="42.712001700679046" lon="11.897483740488187"><ele>445.66666666666663</ele><time>2026-03-22T11:48:23.999Z</time></trkpt><trkpt lat="42.71216667935862" lon="11.8973899870345"><ele>446.0</ele><time>2026-03-22T11:48:24.999Z</time></trkpt><trkpt lat="42.71232334468179" lon="11.897301639106747"><ele>446.0</ele><time>2026-03-22T11:48:25.999Z</time></trkpt><trkpt lat="42.71247918922087" lon="11.897217109056884"><ele>446.0</ele><time>2026-03-22T11:48:26.999Z</time></trkpt><trkpt lat="42.712639145591446" lon="11.897131771591072"><ele>446.0</ele><time>2026-03-22T11:48:27.999Z</time></trkpt><trkpt lat="42.712800273591526" lon="11.89704595571527"><ele>447.0</ele><time>2026-03-22T11:48:28.999Z</time></trkpt><trkpt lat="42.712958022551035" lon="11.896959543459758"><ele>448.0</ele><time>2026-03-22T11:48:29.999Z</time></trkpt><trkpt lat="42.713109978651175" lon="11.896877656572604"><ele>449.0</ele><time>2026-03-22T11:48:30.999Z</time></trkpt><trkpt lat="42.71325164518083" lon="11.896796880431872"><ele>448.75</ele><time>2026-03-22T11:48:31.999Z</time></trkpt><trkpt lat="42.71338347605116" lon="11.89672035538919"><ele>448.5</ele><time>2026-03-22T11:48:32.999Z</time></trkpt><trkpt lat="42.71350054889694" lon="11.896654015314816"><ele>448.25</ele><time>2026-03-22T11:48:33.999Z</time></trkpt><trkpt lat="42.71360173990054" lon="11.896597950578562"><ele>448.0</ele><time>2026-03-22T11:48:34.999Z</time></trkpt><trkpt lat="42.713687661099854" lon="11.896545156773657"><ele>448.0</ele><time>2026-03-22T11:48:35.999Z</time></trkpt><trkpt lat="42.71374913573875" lon="11.896513196688229"><ele>448.0</ele><time>2026-03-22T11:48:36.999Z</time></trkpt><trkpt lat="42.71382549789363" lon="11.896526472824178"><ele>448.0</ele><time>2026-03-22T11:48:38.999Z</time></trkpt><trkpt lat="42.71395803838638" lon="11.896840812404884"><ele>448.0</ele><time>2026-03-22T11:48:43.998Z</time></trkpt><trkpt lat="42.713982463032" lon="11.896960153051326"><ele>449.4</ele><time>2026-03-22T11:48:44.998Z</time></trkpt><trkpt lat="42.71402227588366" lon="11.897086737683855"><ele>450.79999999999995</ele><time>2026-03-22T11:48:45.998Z</time></trkpt><trkpt lat="42.714067411701514" lon="11.897218395886725"><ele>452.2</ele><time>2026-03-22T11:48:46.998Z</time></trkpt><trkpt lat="42.714104731038006" lon="11.897364415279675"><ele>453.6</ele><time>2026-03-22T11:48:47.998Z</time></trkpt><trkpt lat="42.71413700061988" lon="11.89751624502673"><ele>455.0</ele><time>2026-03-22T11:48:48.998Z</time></trkpt><trkpt lat="42.71414953457409" lon="11.897670751464691"><ele>457.25</ele><time>2026-03-22T11:48:49.998Z</time></trkpt><trkpt lat="42.71413855233245" lon="11.897821943166516"><ele>459.5</ele><time>2026-03-22T11:48:50.998Z</time></trkpt><trkpt lat="42.714084718061095" lon="11.897991061461479"><ele>461.75</ele><time>2026-03-22T11:48:51.998Z</time></trkpt><trkpt lat="42.7140239581916" lon="11.89814947676066"><ele>464.0</ele><time>2026-03-22T11:48:52.998Z</time></trkpt><trkpt lat="42.71395277116499" lon="11.898301193777304"><ele>464.0</ele><time>2026-03-22T11:48:53.998Z</time></trkpt><trkpt lat="42.71387505953922" lon="11.898446781146427"><ele>464.0</ele><time>2026-03-22T11:48:54.998Z</time></trkpt><trkpt lat="42.71380452920936" lon="11.898603705022678"><ele>464.0</ele><time>2026-03-22T11:48:55.998Z</time></trkpt><trkpt lat="42.71374163639883" lon="11.898761509878161"><ele>464.0</ele><time>2026-03-22T11:48:56.998Z</time></trkpt><trkpt lat="42.71367349758587" lon="11.898929981731897"><ele>464.0</ele><time>2026-03-22T11:48:57.998Z</time></trkpt><trkpt lat="42.71360753777922" lon="11.89910343538718"><ele>464.0</ele><time>2026-03-22T11:48:58.998Z</time></trkpt><trkpt lat="42.71355262791236" lon="11.899290286511262"><ele>464.0</ele><time>2026-03-22T11:48:59.998Z</time></trkpt><trkpt lat="42.71351382770459" lon="11.899478581447578"><ele>464.0</ele><time>2026-03-22T11:49:00.998Z</time></trkpt><trkpt lat="42.71346356535126" lon="11.89967116753831"><ele>461.75</ele><time>2026-03-22T11:49:01.998Z</time></trkpt><trkpt lat="42.71342165767386" lon="11.899860962281256"><ele>459.5</ele><time>2026-03-22T11:49:02.998Z</time></trkpt><trkpt lat="42.71339998609802" lon="11.900043413639315"><ele>457.25</ele><time>2026-03-22T11:49:03.998Z</time></trkpt><trkpt lat="42.71339532549679" lon="11.90022705441618"><ele>455.0</ele><time>2026-03-22T11:49:04.998Z</time></trkpt><trkpt lat="42.71339905716406" lon="11.900409576067391"><ele>454.0</ele><time>2026-03-22T11:49:05.998Z</time></trkpt><trkpt lat="42.71342070868092" lon="11.900601036488304"><ele>453.0</ele><time>2026-03-22T11:49:06.998Z</time></trkpt><trkpt lat="42.7134555261138" lon="11.900792831857675"><ele>452.0</ele><time>2026-03-22T11:49:07.998Z</time></trkpt><trkpt lat="42.713488568721246" lon="11.900994618039162"><ele>451.0</ele><time>2026-03-22T11:49:08.998Z</time></trkpt><trkpt lat="42.713525030944396" lon="11.901208090330362"><ele>451.0</ele><time>2026-03-22T11:49:09.998Z</time></trkpt><trkpt lat="42.71356372201256" lon="11.901412283063687"><ele>451.0</ele><time>2026-03-22T11:49:10.998Z</time></trkpt><trkpt lat="42.71360660198793" lon="11.901625260821888"><ele>451.0</ele><time>2026-03-22T11:49:11.998Z</time></trkpt><trkpt lat="42.71365420623363" lon="11.90183879659922"><ele>451.0</ele><time>2026-03-22T11:49:12.998Z</time></trkpt><trkpt lat="42.71370273220285" lon="11.902056132710918"><ele>451.0</ele><time>2026-03-22T11:49:13.998Z</time></trkpt><trkpt lat="42.713749334266886" lon="11.90227201491786"><ele>451.0</ele><time>2026-03-22T11:49:14.998Z</time></trkpt><trkpt lat="42.71379719088616" lon="11.902486936447191"><ele>451.6666666666667</ele><time>2026-03-22T11:49:15.998Z</time></trkpt><trkpt lat="42.71384618744316" lon="11.90270167135051"><ele>452.33333333333337</ele><time>2026-03-22T11:49:16.998Z</time></trkpt><trkpt lat="42.713888857070096" lon="11.90292340907244"><ele>453.0</ele><time>2026-03-22T11:49:17.998Z</time></trkpt><trkpt lat="42.71392902734058" lon="11.903141898466552"><ele>453.0</ele><time>2026-03-22T11:49:18.998Z</time></trkpt><trkpt lat="42.7139730977755" lon="11.903357518148926"><ele>453.0</ele><time>2026-03-22T11:49:19.998Z</time></trkpt><trkpt lat="42.71401924085061" lon="11.903578480412957"><ele>453.0</ele><time>2026-03-22T11:49:20.998Z</time></trkpt><trkpt lat="42.714068445681264" lon="11.903800067150526"><ele>453.66666666666663</ele><time>2026-03-22T11:49:21.998Z</time></trkpt><trkpt lat="42.71411405149294" lon="11.90402387418236"><ele>454.3333333333333</ele><time>2026-03-22T11:49:23Z</time></trkpt><trkpt lat="42.714160672926475" lon="11.904248012173898"><ele>455.0</ele><time>2026-03-22T11:49:24Z</time></trkpt><trkpt lat="42.71420873191482" lon="11.90447518745948"><ele>455.66666666666663</ele><time>2026-03-22T11:49:25Z</time></trkpt><trkpt lat="42.71425734265312" lon="11.904700603503422"><ele>456.33333333333337</ele><time>2026-03-22T11:49:26Z</time></trkpt><trkpt lat="42.71430316182346" lon="11.904930251238461"><ele>457.0</ele><time>2026-03-22T11:49:27Z</time></trkpt><trkpt lat="42.71434754063106" lon="11.905155054191201"><ele>459.6666666666667</ele><time>2026-03-22T11:49:28Z</time></trkpt><trkpt lat="42.7143823577518" lon="11.905376943055778"><ele>462.33333333333337</ele><time>2026-03-22T11:49:29Z</time></trkpt><trkpt lat="42.714403291578904" lon="11.905595354803056"><ele>465.0</ele><time>2026-03-22T11:49:30Z</time></trkpt><trkpt lat="42.714401361181814" lon="11.90581089954999"><ele>468.5</ele><time>2026-03-22T11:49:31Z</time></trkpt><trkpt lat="42.71438564006991" lon="11.906010853717861"><ele>472.0</ele><time>2026-03-22T11:49:32Z</time></trkpt><trkpt lat="42.71435175673585" lon="11.906190032098843"><ele>475.5</ele><time>2026-03-22T11:49:33Z</time></trkpt><trkpt lat="42.71430280253366" lon="11.906346435441037"><ele>479.0</ele><time>2026-03-22T11:49:34Z</time></trkpt><trkpt lat="42.71422673809077" lon="11.906471066356115"><ele>479.0</ele><time>2026-03-22T11:49:35Z</time></trkpt><trkpt lat="42.71412988522226" lon="11.906564593470364"><ele>479.0</ele><time>2026-03-22T11:49:36Z</time></trkpt><trkpt lat="42.71400971730237" lon="11.90662741016574"><ele>479.0</ele><time>2026-03-22T11:49:37Z</time></trkpt><trkpt lat="42.713880570395276" lon="11.90667954017552"><ele>479.0</ele><time>2026-03-22T11:49:38Z</time></trkpt><trkpt lat="42.713744180353686" lon="11.906738334854122"><ele>479.0</ele><time>2026-03-22T11:49:38.999Z</time></trkpt><trkpt lat="42.71357974937432" lon="11.9067012029377"><ele>479.0</ele><time>2026-03-22T11:49:39.999Z</time></trkpt><trkpt lat="42.71344354163752" lon="11.9067599176347"><ele>479.0</ele><time>2026-03-22T11:49:40.999Z</time></trkpt><trkpt lat="42.71330425650684" lon="11.906813755420915"><ele>483.25</ele><time>2026-03-22T11:49:41.999Z</time></trkpt><trkpt lat="42.71315349498254" lon="11.906848453038576"><ele>487.5</ele><time>2026-03-22T11:49:42.999Z</time></trkpt><trkpt lat="42.71301049094946" lon="11.906861932149807"><ele>491.75</ele><time>2026-03-22T11:49:43.999Z</time></trkpt><trkpt lat="42.71286777608554" lon="11.90687376618027"><ele>496.0</ele><time>2026-03-22T11:49:44.999Z</time></trkpt><trkpt lat="42.71273974196884" lon="11.906886591341976"><ele>496.0</ele><time>2026-03-22T11:49:45.999Z</time></trkpt><trkpt lat="42.71262484896648" lon="11.906911583210157"><ele>496.0</ele><time>2026-03-22T11:49:46.999Z</time></trkpt><trkpt lat="42.71251439542769" lon="11.906987913429527"><ele>496.0</ele><time>2026-03-22T11:49:47.999Z</time></trkpt><trkpt lat="42.7124443280055" lon="11.907115279434187"><ele>496.0</ele><time>2026-03-22T11:49:48.999Z</time></trkpt><trkpt lat="42.71245202017483" lon="11.907274795087224"><ele>496.00000000000006</ele><time>2026-03-22T11:49:49.999Z</time></trkpt><trkpt lat="42.71250285342458" lon="11.907373234345796"><ele>496.0</ele><time>2026-03-22T11:49:50.999Z</time></trkpt><trkpt lat="42.71255201847112" lon="11.907433038529884"><ele>496.0</ele><time>2026-03-22T11:49:51.999Z</time></trkpt><trkpt lat="42.71262492618437" lon="11.907456851467368"><ele>496.0</ele><time>2026-03-22T11:49:52.999Z</time></trkpt><trkpt lat="42.71270095815293" lon="11.907450946000946"><ele>496.00000000000006</ele><time>2026-03-22T11:49:53.999Z</time></trkpt><trkpt lat="42.71278658721667" lon="11.907448959463538"><ele>496.0</ele><time>2026-03-22T11:49:54.999Z</time></trkpt><trkpt lat="42.712898033676936" lon="11.907465382654392"><ele>496.0</ele><time>2026-03-22T11:49:55.999Z</time></trkpt><trkpt lat="42.7130423479698" lon="11.907434504951302"><ele>496.0</ele><time>2026-03-22T11:49:56.999Z</time></trkpt><trkpt lat="42.71320338703009" lon="11.907426125737326"><ele>496.0</ele><time>2026-03-22T11:49:57.999Z</time></trkpt><trkpt lat="42.71339876364423" lon="11.90741581098774"><ele>496.0</ele><time>2026-03-22T11:49:58.999Z</time></trkpt><trkpt lat="42.71355752611992" lon="11.907409906367329"><ele>496.0</ele><time>2026-03-22T11:49:59.999Z</time></trkpt><trkpt lat="42.713712172564776" lon="11.907424089778246"><ele>496.0</ele><time>2026-03-22T11:50:00.999Z</time></trkpt><trkpt lat="42.713851539273705" lon="11.907415644002995"><ele>498.0</ele><time>2026-03-22T11:50:01.999Z</time></trkpt><trkpt lat="42.713990770472655" lon="11.9074283295123"><ele>500.0</ele><time>2026-03-22T11:50:02.999Z</time></trkpt><trkpt lat="42.71412565515261" lon="11.907471050674893"><ele>502.0</ele><time>2026-03-22T11:50:03.999Z</time></trkpt><trkpt lat="42.714263764603984" lon="11.90752867784437"><ele>504.0</ele><time>2026-03-22T11:50:04.999Z</time></trkpt><trkpt lat="42.714401825836205" lon="11.907589190746608"><ele>507.5</ele><time>2026-03-22T11:50:05.999Z</time></trkpt><trkpt lat="42.71453821694932" lon="11.907640391861808"><ele>511.0</ele><time>2026-03-22T11:50:06.999Z</time></trkpt><trkpt lat="42.714679091243184" lon="11.907686817097845"><ele>514.5</ele><time>2026-03-22T11:50:07.999Z</time></trkpt><trkpt lat="42.71482183135329" lon="11.907700027779674"><ele>518.0</ele><time>2026-03-22T11:50:08.999Z</time></trkpt><trkpt lat="42.71496269039577" lon="11.90767362573522"><ele>518.0</ele><time>2026-03-22T11:50:09.999Z</time></trkpt><trkpt lat="42.71509429640669" lon="11.907592875957695"><ele>518.0</ele><time>2026-03-22T11:50:10.999Z</time></trkpt><trkpt lat="42.71520073227015" lon="11.907457820749835"><ele>518.0</ele><time>2026-03-22T11:50:11.999Z</time></trkpt><trkpt lat="42.7153168003394" lon="11.907337719554778"><ele>518.0</ele><time>2026-03-22T11:50:12.999Z</time></trkpt><trkpt lat="42.71541267813888" lon="11.907203834353393"><ele>518.25</ele><time>2026-03-22T11:50:13.999Z</time></trkpt><trkpt lat="42.71550705968892" lon="11.907086675185509"><ele>518.5</ele><time>2026-03-22T11:50:14.999Z</time></trkpt><trkpt lat="42.71561371006504" lon="11.907002095206103"><ele>518.75</ele><time>2026-03-22T11:50:15.999Z</time></trkpt><trkpt lat="42.715731884398416" lon="11.906949680430186"><ele>519.0</ele><time>2026-03-22T11:50:16.999Z</time></trkpt><trkpt lat="42.71585482763246" lon="11.90697536943413"><ele>519.0</ele><time>2026-03-22T11:50:17.999Z</time></trkpt><trkpt lat="42.7159719873875" lon="11.907018680092115"><ele>519.0</ele><time>2026-03-22T11:50:18.999Z</time></trkpt><trkpt lat="42.71611383169736" lon="11.907073288656425"><ele>519.0</ele><time>2026-03-22T11:50:19.999Z</time></trkpt><trkpt lat="42.71624775722483" lon="11.907126658432407"><ele>519.0</ele><time>2026-03-22T11:50:20.999Z</time></trkpt><trkpt lat="42.716373433322744" lon="11.907176685236696"><ele>520.0</ele><time>2026-03-22T11:50:21.999Z</time></trkpt><trkpt lat="42.716505656104395" lon="11.907231926722888"><ele>521.0</ele><time>2026-03-22T11:50:22.999Z</time></trkpt><trkpt lat="42.71662903843437" lon="11.907295127255756"><ele>522.0</ele><time>2026-03-22T11:50:23.999Z</time></trkpt><trkpt lat="42.71675050324659" lon="11.90736595155056"><ele>523.0</ele><time>2026-03-22T11:50:24.999Z</time></trkpt><trkpt lat="42.71686651108707" lon="11.90744847889879"><ele>525.5</ele><time>2026-03-22T11:50:25.999Z</time></trkpt><trkpt lat="42.71696511477936" lon="11.907544319267418"><ele>528.0</ele><time>2026-03-22T11:50:26.999Z</time></trkpt><trkpt lat="42.71704652655338" lon="11.907655062771367"><ele>530.5</ele><time>2026-03-22T11:50:27.999Z</time></trkpt><trkpt lat="42.71711952316883" lon="11.907778847203284"><ele>533.0</ele><time>2026-03-22T11:50:28.999Z</time></trkpt><trkpt lat="42.717190476470805" lon="11.907926147963247"><ele>533.0</ele><time>2026-03-22T11:50:29.999Z</time></trkpt><trkpt lat="42.71725562351793" lon="11.908083425894718"><ele>533.0</ele><time>2026-03-22T11:50:30.999Z</time></trkpt><trkpt lat="42.71731364691281" lon="11.908257101009584"><ele>533.0</ele><time>2026-03-22T11:50:31.999Z</time></trkpt><trkpt lat="42.7173685744963" lon="11.908439369530273"><ele>533.0</ele><time>2026-03-22T11:50:32.999Z</time></trkpt><trkpt lat="42.717423552108706" lon="11.908629882119113"><ele>532.3333333333333</ele><time>2026-03-22T11:50:33.999Z</time></trkpt><trkpt lat="42.71748317100978" lon="11.908827873816358"><ele>531.6666666666666</ele><time>2026-03-22T11:50:34.999Z</time></trkpt><trkpt lat="42.71754377345611" lon="11.90902921085146"><ele>531.0</ele><time>2026-03-22T11:50:35.999Z</time></trkpt><trkpt lat="42.71760694802774" lon="11.909235803173873"><ele>531.0</ele><time>2026-03-22T11:50:36.999Z</time></trkpt><trkpt lat="42.71767483681467" lon="11.909443602684876"><ele>531.0</ele><time>2026-03-22T11:50:37.999Z</time></trkpt><trkpt lat="42.71774141559558" lon="11.909662955541515"><ele>531.0</ele><time>2026-03-22T11:50:38.999Z</time></trkpt><trkpt lat="42.71781690362645" lon="11.909879238292321"><ele>532.6666666666666</ele><time>2026-03-22T11:50:39.999Z</time></trkpt><trkpt lat="42.71787457052478" lon="11.910111453165367"><ele>534.3333333333333</ele><time>2026-03-22T11:50:40.999Z</time></trkpt><trkpt lat="42.71794354868962" lon="11.910343788166136"><ele>536.0</ele><time>2026-03-22T11:50:41.999Z</time></trkpt><trkpt lat="42.71801261115338" lon="11.910576407085939"><ele>536.0</ele><time>2026-03-22T11:50:42.999Z</time></trkpt><trkpt lat="42.71808286717066" lon="11.910813046064794"><ele>536.0</ele><time>2026-03-22T11:50:43.999Z</time></trkpt><trkpt lat="42.71815339341522" lon="11.911050595381232"><ele>536.0</ele><time>2026-03-22T11:50:44.999Z</time></trkpt><trkpt lat="42.718224433946176" lon="11.911289590701585"><ele>537.0</ele><time>2026-03-22T11:50:45.999Z</time></trkpt><trkpt lat="42.71829493488196" lon="11.911526180647762"><ele>538.0</ele><time>2026-03-22T11:50:46.999Z</time></trkpt><trkpt lat="42.71836452065287" lon="11.911759699435427"><ele>539.0</ele><time>2026-03-22T11:50:47.998Z</time></trkpt><trkpt lat="42.71843167446858" lon="11.911985056914116"><ele>539.6666666666666</ele><time>2026-03-22T11:50:48.998Z</time></trkpt><trkpt lat="42.71850062804817" lon="11.912208752267917"><ele>540.3333333333334</ele><time>2026-03-22T11:50:49.998Z</time></trkpt><trkpt lat="42.71855270358037" lon="11.912425832088733"><ele>541.0</ele><time>2026-03-22T11:50:50.998Z</time></trkpt><trkpt lat="42.71856804509247" lon="11.912626124451698"><ele>542.0</ele><time>2026-03-22T11:50:51.998Z</time></trkpt><trkpt lat="42.718541394774846" lon="11.912813370345862"><ele>543.0</ele><time>2026-03-22T11:50:52.998Z</time></trkpt><trkpt lat="42.71847953485939" lon="11.912996342113018"><ele>544.0</ele><time>2026-03-22T11:50:53.998Z</time></trkpt><trkpt lat="42.7183906332796" lon="11.91317019700525"><ele>545.0</ele><time>2026-03-22T11:50:54.998Z</time></trkpt><trkpt lat="42.718293774154155" lon="11.913351918094591"><ele>546.3333333333333</ele><time>2026-03-22T11:50:55.998Z</time></trkpt><trkpt lat="42.71819593520609" lon="11.913536728587228"><ele>547.6666666666666</ele><time>2026-03-22T11:50:56.998Z</time></trkpt><trkpt lat="42.71809737992879" lon="11.913722891978084"><ele>549.0</ele><time>2026-03-22T11:50:57.998Z</time></trkpt><trkpt lat="42.71799637865197" lon="11.913913599637997"><ele>549.0</ele><time>2026-03-22T11:50:58.998Z</time></trkpt><trkpt lat="42.71789587158264" lon="11.914103161521506"><ele>549.0</ele><time>2026-03-22T11:50:59.998Z</time></trkpt><trkpt lat="42.717795309651294" lon="11.914292826745463"><ele>549.0</ele><time>2026-03-22T11:51:00.998Z</time></trkpt><trkpt lat="42.71769609049886" lon="11.91447995935096"><ele>551.3333333333334</ele><time>2026-03-22T11:51:01.998Z</time></trkpt><trkpt lat="42.717596826448634" lon="11.91466717680095"><ele>553.6666666666667</ele><time>2026-03-22T11:51:02.998Z</time></trkpt><trkpt lat="42.71749796425611" lon="11.914853499963487"><ele>556.0</ele><time>2026-03-22T11:51:03.998Z</time></trkpt><trkpt lat="42.71740053370122" lon="11.915033633987083"><ele>557.3333333333334</ele><time>2026-03-22T11:51:04.998Z</time></trkpt><trkpt lat="42.71729946040446" lon="11.915229647070806"><ele>558.6666666666666</ele><time>2026-03-22T11:51:05.998Z</time></trkpt><trkpt lat="42.71720736898362" lon="11.915436449657047"><ele>560.0</ele><time>2026-03-22T11:51:06.998Z</time></trkpt><trkpt lat="42.71713829417346" lon="11.915664728737703"><ele>560.0</ele><time>2026-03-22T11:51:07.998Z</time></trkpt><trkpt lat="42.71708598826812" lon="11.915894123658935"><ele>560.0</ele><time>2026-03-22T11:51:08.998Z</time></trkpt><trkpt lat="42.71704819132762" lon="11.916133611826696"><ele>560.0</ele><time>2026-03-22T11:51:09.998Z</time></trkpt><trkpt lat="42.717036614014404" lon="11.916371338571901"><ele>561.0</ele><time>2026-03-22T11:51:10.998Z</time></trkpt><trkpt lat="42.71701278820194" lon="11.916606384420023"><ele>562.0</ele><time>2026-03-22T11:51:11.998Z</time></trkpt><trkpt lat="42.71699854817316" lon="11.91684914036879"><ele>563.0</ele><time>2026-03-22T11:51:12.998Z</time></trkpt><trkpt lat="42.71698074442311" lon="11.917097930896933"><ele>563.6666666666666</ele><time>2026-03-22T11:51:13.998Z</time></trkpt><trkpt lat="42.71696135093903" lon="11.917348365544852"><ele>564.3333333333334</ele><time>2026-03-22T11:51:14.998Z</time></trkpt><trkpt lat="42.71694514814338" lon="11.917603420173842"><ele>565.0</ele><time>2026-03-22T11:51:15.998Z</time></trkpt><trkpt lat="42.716928163294654" lon="11.91784966874586"><ele>565.6666666666667</ele><time>2026-03-22T11:51:16.998Z</time></trkpt><trkpt lat="42.71691065358655" lon="11.918105156727929"><ele>566.3333333333334</ele><time>2026-03-22T11:51:17.998Z</time></trkpt><trkpt lat="42.71689286317983" lon="11.918364740348727"><ele>567.0</ele><time>2026-03-22T11:51:18.998Z</time></trkpt><trkpt lat="42.716875641464924" lon="11.918617679390143"><ele>568.0</ele><time>2026-03-22T11:51:19.998Z</time></trkpt><trkpt lat="42.71685860071765" lon="11.918870362067242"><ele>569.0</ele><time>2026-03-22T11:51:20.998Z</time></trkpt><trkpt lat="42.71684139926367" lon="11.919125427484591"><ele>570.0</ele><time>2026-03-22T11:51:21.998Z</time></trkpt><trkpt lat="42.716823851341346" lon="11.919378467931093"><ele>571.3333333333334</ele><time>2026-03-22T11:51:22.998Z</time></trkpt><trkpt lat="42.716806106734275" lon="11.919629446819602"><ele>572.6666666666667</ele><time>2026-03-22T11:51:23.998Z</time></trkpt><trkpt lat="42.71678825741621" lon="11.919881906576991"><ele>574.0</ele><time>2026-03-22T11:51:24.998Z</time></trkpt><trkpt lat="42.71677042788001" lon="11.920134086330451"><ele>574.6666666666667</ele><time>2026-03-22T11:51:25.998Z</time></trkpt><trkpt lat="42.7167527455838" lon="11.920386934986091"><ele>575.3333333333334</ele><time>2026-03-22T11:51:26.998Z</time></trkpt><trkpt lat="42.716735195746516" lon="11.920638258112403"><ele>576.0</ele><time>2026-03-22T11:51:28Z</time></trkpt><trkpt lat="42.7167184702893" lon="11.920890423465007"><ele>576.3333333333334</ele><time>2026-03-22T11:51:29Z</time></trkpt><trkpt lat="42.716703484820485" lon="11.92113922591053"><ele>576.6666666666667</ele><time>2026-03-22T11:51:30Z</time></trkpt><trkpt lat="42.71668849376592" lon="11.921385171691824"><ele>577.0</ele><time>2026-03-22T11:51:31Z</time></trkpt><trkpt lat="42.71667076180106" lon="11.921628353151238"><ele>577.0</ele><time>2026-03-22T11:51:32Z</time></trkpt><trkpt lat="42.71668688105583" lon="11.921879644732059"><ele>577.0</ele><time>2026-03-22T11:51:33Z</time></trkpt><trkpt lat="42.71666221850953" lon="11.922126996141923"><ele>577.0</ele><time>2026-03-22T11:51:34Z</time></trkpt><trkpt lat="42.71663628979781" lon="11.922373553181226"><ele>577.0</ele><time>2026-03-22T11:51:35Z</time></trkpt><trkpt lat="42.71659819411778" lon="11.922616206948662"><ele>577.0</ele><time>2026-03-22T11:51:36Z</time></trkpt><trkpt lat="42.716514223400885" lon="11.922847006235951"><ele>577.0</ele><time>2026-03-22T11:51:37Z</time></trkpt><trkpt lat="42.7164713164438" lon="11.923090947081773"><ele>577.0</ele><time>2026-03-22T11:51:38Z</time></trkpt><trkpt lat="42.71642724978335" lon="11.923341481062359"><ele>577.0</ele><time>2026-03-22T11:51:39Z</time></trkpt><trkpt lat="42.716384434257094" lon="11.923584902104317"><ele>577.0</ele><time>2026-03-22T11:51:40Z</time></trkpt><trkpt lat="42.716341074220765" lon="11.923831418715475"><ele>577.3333333333334</ele><time>2026-03-22T11:51:41Z</time></trkpt><trkpt lat="42.716296821797656" lon="11.924083008938192"><ele>577.6666666666666</ele><time>2026-03-22T11:51:42Z</time></trkpt><trkpt lat="42.71625373503212" lon="11.924329301293627"><ele>578.0</ele><time>2026-03-22T11:51:43Z</time></trkpt><trkpt lat="42.716211045428196" lon="11.92457388768184"><ele>578.0</ele><time>2026-03-22T11:51:44Z</time></trkpt><trkpt lat="42.71616744490384" lon="11.92482369301462"><ele>578.0</ele><time>2026-03-22T11:51:44.999Z</time></trkpt><trkpt lat="42.71612389410839" lon="11.925071406621806"><ele>578.0</ele><time>2026-03-22T11:51:45.999Z</time></trkpt><trkpt lat="42.71607968260283" lon="11.925321385020366"><ele>578.0</ele><time>2026-03-22T11:51:46.999Z</time></trkpt><trkpt lat="42.71603527678651" lon="11.925572462021611"><ele>578.0</ele><time>2026-03-22T11:51:47.999Z</time></trkpt><trkpt lat="42.715991928005444" lon="11.925817562479091"><ele>578.0</ele><time>2026-03-22T11:51:48.999Z</time></trkpt><trkpt lat="42.71594765219555" lon="11.926067876624236"><ele>578.0</ele><time>2026-03-22T11:51:49.999Z</time></trkpt><trkpt lat="42.71590318050074" lon="11.926319269629653"><ele>578.0</ele><time>2026-03-22T11:51:50.999Z</time></trkpt><trkpt lat="42.71585775582521" lon="11.926576049672505"><ele>578.0</ele><time>2026-03-22T11:51:51.999Z</time></trkpt><trkpt lat="42.71581171244506" lon="11.926836326598531"><ele>577.6666666666666</ele><time>2026-03-22T11:51:52.999Z</time></trkpt><trkpt lat="42.71576470303728" lon="11.927105237560395"><ele>577.3333333333334</ele><time>2026-03-22T11:51:53.999Z</time></trkpt><trkpt lat="42.71571703021901" lon="11.92737774422795"><ele>577.0</ele><time>2026-03-22T11:51:54.999Z</time></trkpt><trkpt lat="42.71567041287703" lon="11.927653685697342"><ele>576.3333333333334</ele><time>2026-03-22T11:51:55.999Z</time></trkpt><trkpt lat="42.71562341123005" lon="11.927931870752507"><ele>575.6666666666666</ele><time>2026-03-22T11:51:56.999Z</time></trkpt><trkpt lat="42.71557622027903" lon="11.928210872681438"><ele>575.0</ele><time>2026-03-22T11:51:57.999Z</time></trkpt><trkpt lat="42.715529406091385" lon="11.92848646823966"><ele>573.6666666666666</ele><time>2026-03-22T11:51:58.999Z</time></trkpt><trkpt lat="42.71548142928916" lon="11.92876769674717"><ele>572.3333333333334</ele><time>2026-03-22T11:51:59.999Z</time></trkpt><trkpt lat="42.71543167157326" lon="11.929050662662926"><ele>571.0</ele><time>2026-03-22T11:52:00.999Z</time></trkpt><trkpt lat="42.71538085367472" lon="11.929332363499853"><ele>570.3333333333334</ele><time>2026-03-22T11:52:01.999Z</time></trkpt><trkpt lat="42.71532886753244" lon="11.929609822308713"><ele>569.6666666666666</ele><time>2026-03-22T11:52:02.999Z</time></trkpt><trkpt lat="42.71527238541258" lon="11.929868679370221"><ele>569.0</ele><time>2026-03-22T11:52:03.999Z</time></trkpt><trkpt lat="42.71520674087705" lon="11.930131957572222"><ele>568.3333333333333</ele><time>2026-03-22T11:52:04.999Z</time></trkpt><trkpt lat="42.715137088660086" lon="11.930378046953567"><ele>567.6666666666666</ele><time>2026-03-22T11:52:05.999Z</time></trkpt><trkpt lat="42.715056326274045" lon="11.930615391480343"><ele>567.0</ele><time>2026-03-22T11:52:06.999Z</time></trkpt><trkpt lat="42.71497165406906" lon="11.930861163887643"><ele>566.3333333333334</ele><time>2026-03-22T11:52:07.999Z</time></trkpt><trkpt lat="42.71488856035117" lon="11.931105037273754"><ele>565.6666666666667</ele><time>2026-03-22T11:52:08.999Z</time></trkpt><trkpt lat="42.714801049308015" lon="11.931361857754464"><ele>565.0</ele><time>2026-03-22T11:52:09.999Z</time></trkpt><trkpt lat="42.71471599187728" lon="11.931611476579981"><ele>565.3333333333334</ele><time>2026-03-22T11:52:10.999Z</time></trkpt><trkpt lat="42.71463237081746" lon="11.931856880079936"><ele>565.6666666666666</ele><time>2026-03-22T11:52:11.999Z</time></trkpt><trkpt lat="42.71465411146363" lon="11.932168576919526"><ele>566.0</ele><time>2026-03-22T11:52:12.999Z</time></trkpt><trkpt lat="42.7145735114799" lon="11.932412150852219"><ele>567.6666666666666</ele><time>2026-03-22T11:52:13.999Z</time></trkpt><trkpt lat="42.71448578499963" lon="11.932651147213123"><ele>569.3333333333334</ele><time>2026-03-22T11:52:14.999Z</time></trkpt><trkpt lat="42.714404360566675" lon="11.93287399222201"><ele>571.0</ele><time>2026-03-22T11:52:15.999Z</time></trkpt><trkpt lat="42.71432226933145" lon="11.933098353134087"><ele>571.6666666666667</ele><time>2026-03-22T11:52:16.999Z</time></trkpt><trkpt lat="42.7142427050069" lon="11.933321432867405"><ele>572.3333333333334</ele><time>2026-03-22T11:52:17.999Z</time></trkpt><trkpt lat="42.71416368312047" lon="11.933541544775078"><ele>573.0</ele><time>2026-03-22T11:52:18.999Z</time></trkpt><trkpt lat="42.71408708356306" lon="11.933756505845203"><ele>571.6666666666666</ele><time>2026-03-22T11:52:19.999Z</time></trkpt><trkpt lat="42.71401123154765" lon="11.933970090807565"><ele>570.3333333333333</ele><time>2026-03-22T11:52:20.999Z</time></trkpt><trkpt lat="42.71394011531274" lon="11.934176712829258"><ele>569.0</ele><time>2026-03-22T11:52:21.999Z</time></trkpt><trkpt lat="42.71386984081369" lon="11.93437945002822"><ele>567.3333333333333</ele><time>2026-03-22T11:52:22.999Z</time></trkpt><trkpt lat="42.71380683379185" lon="11.934578265991068"><ele>565.6666666666666</ele><time>2026-03-22T11:52:23.999Z</time></trkpt><trkpt lat="42.713746287829494" lon="11.934787442373405"><ele>564.0</ele><time>2026-03-22T11:52:24.999Z</time></trkpt><trkpt lat="42.71369584450015" lon="11.935008879215076"><ele>562.6666666666666</ele><time>2026-03-22T11:52:25.999Z</time></trkpt><trkpt lat="42.71365024288415" lon="11.935242327966286"><ele>561.3333333333333</ele><time>2026-03-22T11:52:26.999Z</time></trkpt><trkpt lat="42.71360848052813" lon="11.935482229717415"><ele>560.0</ele><time>2026-03-22T11:52:27.999Z</time></trkpt><trkpt lat="42.71356051954015" lon="11.935723643026659"><ele>559.0</ele><time>2026-03-22T11:52:28.999Z</time></trkpt><trkpt lat="42.71352842356455" lon="11.935957592916674"><ele>558.0</ele><time>2026-03-22T11:52:29.999Z</time></trkpt><trkpt lat="42.71350339981388" lon="11.936192122616005"><ele>557.0</ele><time>2026-03-22T11:52:30.999Z</time></trkpt><trkpt lat="42.71348367311171" lon="11.936425856095651"><ele>557.0</ele><time>2026-03-22T11:52:31.999Z</time></trkpt><trkpt lat="42.71345491857005" lon="11.936643278461455"><ele>557.0</ele><time>2026-03-22T11:52:32.999Z</time></trkpt><trkpt lat="42.713440441696626" lon="11.936873587257816"><ele>557.0</ele><time>2026-03-22T11:52:33.999Z</time></trkpt><trkpt lat="42.71343741537507" lon="11.937110670765934"><ele>556.0</ele><time>2026-03-22T11:52:34.999Z</time></trkpt><trkpt lat="42.71344976007079" lon="11.937338632085998"><ele>555.0</ele><time>2026-03-22T11:52:35.999Z</time></trkpt><trkpt lat="42.71347920600456" lon="11.937576432049783"><ele>554.0</ele><time>2026-03-22T11:52:36.999Z</time></trkpt><trkpt lat="42.713505069509225" lon="11.937814705261225"><ele>552.6666666666666</ele><time>2026-03-22T11:52:37.999Z</time></trkpt><trkpt lat="42.71352124430139" lon="11.938045497809295"><ele>551.3333333333334</ele><time>2026-03-22T11:52:38.999Z</time></trkpt><trkpt lat="42.71354359177988" lon="11.938262415377"><ele>550.0</ele><time>2026-03-22T11:52:39.999Z</time></trkpt><trkpt lat="42.713580330697305" lon="11.938479106710583"><ele>549.3333333333334</ele><time>2026-03-22T11:52:40.999Z</time></trkpt><trkpt lat="42.713642592146066" lon="11.938685817940762"><ele>548.6666666666666</ele><time>2026-03-22T11:52:41.999Z</time></trkpt><trkpt lat="42.713710450976535" lon="11.938890327417612"><ele>548.0</ele><time>2026-03-22T11:52:42.999Z</time></trkpt><trkpt lat="42.71377896046863" lon="11.939111372323095"><ele>545.3333333333333</ele><time>2026-03-22T11:52:43.999Z</time></trkpt><trkpt lat="42.71385090228802" lon="11.939336703708351"><ele>542.6666666666666</ele><time>2026-03-22T11:52:44.999Z</time></trkpt><trkpt lat="42.71392086545897" lon="11.939562125950932"><ele>540.0</ele><time>2026-03-22T11:52:45.999Z</time></trkpt><trkpt lat="42.714010151215334" lon="11.939790101048668"><ele>540.0</ele><time>2026-03-22T11:52:46.999Z</time></trkpt><trkpt lat="42.71407389298683" lon="11.940020192041086"><ele>540.0</ele><time>2026-03-22T11:52:47.999Z</time></trkpt><trkpt lat="42.71414665563344" lon="11.94021990681381"><ele>540.0</ele><time>2026-03-22T11:52:48.999Z</time></trkpt><trkpt lat="42.71421552821088" lon="11.94037558939198"><ele>538.5</ele><time>2026-03-22T11:52:49.999Z</time></trkpt><trkpt lat="42.71427332812074" lon="11.940460237090763"><ele>537.0</ele><time>2026-03-22T11:52:50.999Z</time></trkpt><trkpt lat="42.71430652180329" lon="11.940570011636744"><ele>535.5</ele><time>2026-03-22T11:52:52.998Z</time></trkpt><trkpt lat="42.71437347758483" lon="11.940607034195516"><ele>534.0</ele><time>2026-03-22T11:52:54.998Z</time></trkpt><trkpt lat="42.71443868139202" lon="11.940592455966078"><ele>532.5</ele><time>2026-03-22T11:52:55.998Z</time></trkpt><trkpt lat="42.71450686819555" lon="11.940503337461646"><ele>531.0</ele><time>2026-03-22T11:52:56.998Z</time></trkpt><trkpt lat="42.714587907280226" lon="11.940435210725548"><ele>531.0</ele><time>2026-03-22T11:52:57.998Z</time></trkpt><trkpt lat="42.71468610935807" lon="11.940417855184279"><ele>531.0</ele><time>2026-03-22T11:52:58.998Z</time></trkpt><trkpt lat="42.714775112409626" lon="11.940384261908925"><ele>531.0</ele><time>2026-03-22T11:52:59.998Z</time></trkpt><trkpt lat="42.714860086577026" lon="11.94028966529825"><ele>531.0</ele><time>2026-03-22T11:53:00.998Z</time></trkpt><trkpt lat="42.714926372375025" lon="11.940185880309507"><ele>531.0</ele><time>2026-03-22T11:53:01.998Z</time></trkpt><trkpt lat="42.71498837205936" lon="11.94014071207285"><ele>531.0</ele><time>2026-03-22T11:53:02.998Z</time></trkpt><trkpt lat="42.71505746200533" lon="11.940082081498335"><ele>531.0</ele><time>2026-03-22T11:53:03.998Z</time></trkpt><trkpt lat="42.715118964208465" lon="11.940023398543602"><ele>531.0</ele><time>2026-03-22T11:53:04.998Z</time></trkpt><trkpt lat="42.71520710363872" lon="11.939994572964238"><ele>531.0</ele><time>2026-03-22T11:53:05.998Z</time></trkpt><trkpt lat="42.715296196104134" lon="11.939987571143767"><ele>531.0</ele><time>2026-03-22T11:53:06.998Z</time></trkpt><trkpt lat="42.71538586836337" lon="11.939984827872358"><ele>531.0</ele><time>2026-03-22T11:53:07.998Z</time></trkpt><trkpt lat="42.71549500059127" lon="11.939977545631647"><ele>531.5</ele><time>2026-03-22T11:53:08.998Z</time></trkpt><trkpt lat="42.71560241458258" lon="11.939960459570544"><ele>532.0</ele><time>2026-03-22T11:53:09.998Z</time></trkpt><trkpt lat="42.71571286309545" lon="11.939936662838226"><ele>532.5</ele><time>2026-03-22T11:53:10.998Z</time></trkpt><trkpt lat="42.715845300694404" lon="11.939914928966857"><ele>533.0</ele><time>2026-03-22T11:53:11.998Z</time></trkpt><trkpt lat="42.71596453837668" lon="11.939893268190659"><ele>532.25</ele><time>2026-03-22T11:53:12.998Z</time></trkpt><trkpt lat="42.716092750482964" lon="11.939878945212573"><ele>531.5</ele><time>2026-03-22T11:53:13.998Z</time></trkpt><trkpt lat="42.71622586345013" lon="11.939861160057319"><ele>530.75</ele><time>2026-03-22T11:53:14.998Z</time></trkpt><trkpt lat="42.716357096887805" lon="11.939845594465284"><ele>530.0</ele><time>2026-03-22T11:53:15.998Z</time></trkpt><trkpt lat="42.716490472394575" lon="11.939821197050422"><ele>530.0</ele><time>2026-03-22T11:53:16.998Z</time></trkpt><trkpt lat="42.7166234306135" lon="11.939792269456785"><ele>530.0</ele><time>2026-03-22T11:53:17.998Z</time></trkpt><trkpt lat="42.71675707638695" lon="11.93975804106469"><ele>530.0</ele><time>2026-03-22T11:53:18.998Z</time></trkpt><trkpt lat="42.71688510936282" lon="11.93972070143022"><ele>530.0</ele><time>2026-03-22T11:53:19.998Z</time></trkpt><trkpt lat="42.71701507581322" lon="11.939681057603256"><ele>529.0</ele><time>2026-03-22T11:53:20.998Z</time></trkpt><trkpt lat="42.71713962322982" lon="11.939642791108062"><ele>528.0</ele><time>2026-03-22T11:53:21.998Z</time></trkpt><trkpt lat="42.717265322954084" lon="11.939609906704462"><ele>527.0</ele><time>2026-03-22T11:53:22.998Z</time></trkpt><trkpt lat="42.71738632123974" lon="11.939588072828336"><ele>526.0</ele><time>2026-03-22T11:53:23.998Z</time></trkpt><trkpt lat="42.717500599441586" lon="11.93957602063222"><ele>526.0</ele><time>2026-03-22T11:53:24.998Z</time></trkpt><trkpt lat="42.71760799598573" lon="11.939577310382216"><ele>526.0</ele><time>2026-03-22T11:53:25.998Z</time></trkpt><trkpt lat="42.717698669367024" lon="11.939601530949425"><ele>526.0</ele><time>2026-03-22T11:53:26.998Z</time></trkpt><trkpt lat="42.717786522761976" lon="11.939651366232972"><ele>526.0</ele><time>2026-03-22T11:53:27.998Z</time></trkpt><trkpt lat="42.71783464259545" lon="11.939772246980475"><ele>526.0</ele><time>2026-03-22T11:53:28.998Z</time></trkpt><trkpt lat="42.71787285035265" lon="11.939926866193657"><ele>526.0</ele><time>2026-03-22T11:53:29.998Z</time></trkpt><trkpt lat="42.717877205006445" lon="11.940101830522364"><ele>526.0</ele><time>2026-03-22T11:53:30.998Z</time></trkpt><trkpt lat="42.71789006445867" lon="11.940276289035028"><ele>526.0</ele><time>2026-03-22T11:53:31.998Z</time></trkpt><trkpt lat="42.71792470167091" lon="11.940451006732111"><ele>526.0</ele><time>2026-03-22T11:53:32.998Z</time></trkpt><trkpt lat="42.717956991576344" lon="11.94062679719011"><ele>526.0</ele><time>2026-03-22T11:53:33.999Z</time></trkpt><trkpt lat="42.717984646342515" lon="11.940799798910616"><ele>526.0</ele><time>2026-03-22T11:53:34.999Z</time></trkpt><trkpt lat="42.718003749352114" lon="11.940955999248132"><ele>526.0</ele><time>2026-03-22T11:53:35.999Z</time></trkpt><trkpt lat="42.718031934059994" lon="11.941073022443437"><ele>526.0</ele><time>2026-03-22T11:53:36.999Z</time></trkpt><trkpt lat="42.718074541890104" lon="11.94116861116484"><ele>526.0</ele><time>2026-03-22T11:53:37.999Z</time></trkpt><trkpt lat="42.71814994302283" lon="11.941236202255695"><ele>526.5</ele><time>2026-03-22T11:53:38.999Z</time></trkpt><trkpt lat="42.71823701980493" lon="11.94125105303169"><ele>527.0</ele><time>2026-03-22T11:53:39.999Z</time></trkpt><trkpt lat="42.71831609664652" lon="11.94122756150802"><ele>527.5</ele><time>2026-03-22T11:53:40.999Z</time></trkpt><trkpt lat="42.718412668584406" lon="11.94119997702851"><ele>528.0</ele><time>2026-03-22T11:53:41.999Z</time></trkpt><trkpt lat="42.718506919467856" lon="11.94118738927443"><ele>528.5</ele><time>2026-03-22T11:53:42.999Z</time></trkpt><trkpt lat="42.718584261034664" lon="11.941177039216354"><ele>529.0</ele><time>2026-03-22T11:53:43.999Z</time></trkpt><trkpt lat="42.71868156011977" lon="11.941163399015927"><ele>529.0</ele><time>2026-03-22T11:53:44.999Z</time></trkpt><trkpt lat="42.71882591342116" lon="11.94111596884687"><ele>529.0</ele><time>2026-03-22T11:53:45.999Z</time></trkpt><trkpt lat="42.718936533487366" lon="11.941101398067593"><ele>529.0</ele><time>2026-03-22T11:53:46.999Z</time></trkpt><trkpt lat="42.71905176566457" lon="11.941086201261317"><ele>529.0</ele><time>2026-03-22T11:53:47.999Z</time></trkpt><trkpt lat="42.7191721026124" lon="11.941073913042155"><ele>529.0</ele><time>2026-03-22T11:53:48.999Z</time></trkpt><trkpt lat="42.719293659548086" lon="11.941068107025215"><ele>529.0</ele><time>2026-03-22T11:53:49.999Z</time></trkpt><trkpt lat="42.71941953127409" lon="11.94107371186885"><ele>529.0</ele><time>2026-03-22T11:53:50.999Z</time></trkpt><trkpt lat="42.71955080623203" lon="11.941072689890019"><ele>529.0</ele><time>2026-03-22T11:53:51.999Z</time></trkpt><trkpt lat="42.719684039082594" lon="11.941065055759504"><ele>529.25</ele><time>2026-03-22T11:53:52.999Z</time></trkpt><trkpt lat="42.7198158429725" lon="11.941053756076837"><ele>529.5</ele><time>2026-03-22T11:53:53.999Z</time></trkpt><trkpt lat="42.719951014635136" lon="11.941039474650733"><ele>529.75</ele><time>2026-03-22T11:53:54.999Z</time></trkpt><trkpt lat="42.72008613717601" lon="11.941021407536672"><ele>530.0</ele><time>2026-03-22T11:53:55.999Z</time></trkpt><trkpt lat="42.72021877329281" lon="11.941001357836818"><ele>529.0</ele><time>2026-03-22T11:53:56.999Z</time></trkpt><trkpt lat="42.72034723602637" lon="11.940985164472988"><ele>528.0</ele><time>2026-03-22T11:53:57.999Z</time></trkpt><trkpt lat="42.72047168317326" lon="11.940970132133494"><ele>527.0</ele><time>2026-03-22T11:53:58.999Z</time></trkpt><trkpt lat="42.72059254158473" lon="11.940953061156831"><ele>526.0</ele><time>2026-03-22T11:53:59.999Z</time></trkpt><trkpt lat="42.72070834761134" lon="11.940933760146951"><ele>526.0</ele><time>2026-03-22T11:54:00.999Z</time></trkpt><trkpt lat="42.720820533260465" lon="11.94091646995424"><ele>526.0</ele><time>2026-03-22T11:54:01.999Z</time></trkpt><trkpt lat="42.72093329398929" lon="11.940905013200977"><ele>526.0</ele><time>2026-03-22T11:54:02.999Z</time></trkpt><trkpt lat="42.72104043068885" lon="11.94088692885313"><ele>526.0</ele><time>2026-03-22T11:54:03.999Z</time></trkpt><trkpt lat="42.72114374767937" lon="11.940867397762046"><ele>526.0</ele><time>2026-03-22T11:54:04.999Z</time></trkpt><trkpt lat="42.72124667000225" lon="11.940857085643229"><ele>525.4</ele><time>2026-03-22T11:54:05.999Z</time></trkpt><trkpt lat="42.721350768429545" lon="11.940858262508472"><ele>524.8</ele><time>2026-03-22T11:54:06.999Z</time></trkpt><trkpt lat="42.72145764208324" lon="11.940870230399364"><ele>524.1999999999999</ele><time>2026-03-22T11:54:07.999Z</time></trkpt><trkpt lat="42.72156648002763" lon="11.940890778663421"><ele>523.6</ele><time>2026-03-22T11:54:08.999Z</time></trkpt><trkpt lat="42.72167567707047" lon="11.940927693736421"><ele>523.0</ele><time>2026-03-22T11:54:09.999Z</time></trkpt><trkpt lat="42.72179482814977" lon="11.94096411669119"><ele>521.75</ele><time>2026-03-22T11:54:10.999Z</time></trkpt><trkpt lat="42.721905433320515" lon="11.94099261367097"><ele>520.5</ele><time>2026-03-22T11:54:11.999Z</time></trkpt><trkpt lat="42.72202472931116" lon="11.941026500691093"><ele>519.25</ele><time>2026-03-22T11:54:12.999Z</time></trkpt><trkpt lat="42.72213905962651" lon="11.941056069304848"><ele>518.0</ele><time>2026-03-22T11:54:13.999Z</time></trkpt><trkpt lat="42.722247846467795" lon="11.941086011516918"><ele>518.0</ele><time>2026-03-22T11:54:14.999Z</time></trkpt><trkpt lat="42.72236255608108" lon="11.94112903507978"><ele>518.0</ele><time>2026-03-22T11:54:15.999Z</time></trkpt><trkpt lat="42.72247941232411" lon="11.941202238240011"><ele>518.0</ele><time>2026-03-22T11:54:16.999Z</time></trkpt><trkpt lat="42.72259482961655" lon="11.941281346773586"><ele>518.0</ele><time>2026-03-22T11:54:17.999Z</time></trkpt><trkpt lat="42.7227104862613" lon="11.941369481991478"><ele>517.75</ele><time>2026-03-22T11:54:18.999Z</time></trkpt><trkpt lat="42.72282623593107" lon="11.94146543671043"><ele>517.5</ele><time>2026-03-22T11:54:19.999Z</time></trkpt><trkpt lat="42.72293746892987" lon="11.941565551046608"><ele>517.25</ele><time>2026-03-22T11:54:20.999Z</time></trkpt><trkpt lat="42.72304684527436" lon="11.941676863254168"><ele>517.0</ele><time>2026-03-22T11:54:21.999Z</time></trkpt><trkpt lat="42.72315165137066" lon="11.94179454217422"><ele>516.5</ele><time>2026-03-22T11:54:22.999Z</time></trkpt><trkpt lat="42.72324890453849" lon="11.941923186443393"><ele>516.0</ele><time>2026-03-22T11:54:23.999Z</time></trkpt><trkpt lat="42.72333464927891" lon="11.942050484460054"><ele>515.5</ele><time>2026-03-22T11:54:24.999Z</time></trkpt><trkpt lat="42.72342245716048" lon="11.942183132595009"><ele>515.0</ele><time>2026-03-22T11:54:25.999Z</time></trkpt><trkpt lat="42.72350593654196" lon="11.942338297788373"><ele>514.25</ele><time>2026-03-22T11:54:26.999Z</time></trkpt><trkpt lat="42.72358138917394" lon="11.942509052866324"><ele>513.5</ele><time>2026-03-22T11:54:27.999Z</time></trkpt><trkpt lat="42.72364939800033" lon="11.942687827726589"><ele>512.75</ele><time>2026-03-22T11:54:28.999Z</time></trkpt><trkpt lat="42.72372234412823" lon="11.942852604137428"><ele>512.0</ele><time>2026-03-22T11:54:29.999Z</time></trkpt><trkpt lat="42.72380085342922" lon="11.94300939218633"><ele>512.0</ele><time>2026-03-22T11:54:30.999Z</time></trkpt><trkpt lat="42.72387889981894" lon="11.943156425882053"><ele>512.0</ele><time>2026-03-22T11:54:31.999Z</time></trkpt><trkpt lat="42.72395740948281" lon="11.94329222395008"><ele>512.0</ele><time>2026-03-22T11:54:32.999Z</time></trkpt><trkpt lat="42.724007751174284" lon="11.943372222380338"><ele>512.0</ele><time>2026-03-22T11:54:33.999Z</time></trkpt><trkpt lat="42.724052536256714" lon="11.943439662758475"><ele>512.0</ele><time>2026-03-22T11:54:35.999Z</time></trkpt><trkpt lat="42.72408742175755" lon="11.94352078575293"><ele>512.0</ele><time>2026-03-22T11:54:38.999Z</time></trkpt><trkpt lat="42.724147374726044" lon="11.943598636497315"><ele>512.0</ele><time>2026-03-22T11:54:41.999Z</time></trkpt><trkpt lat="42.72419701688818" lon="11.943668095355905"><ele>512.0</ele><time>2026-03-22T11:54:43.999Z</time></trkpt><trkpt lat="42.72423543015374" lon="11.943742858931518"><ele>512.0</ele><time>2026-03-22T11:54:46.999Z</time></trkpt><trkpt lat="42.72414963517233" lon="11.943587740634435"><ele>512.0</ele><time>2026-03-22T11:55:02.998Z</time></trkpt><trkpt lat="42.72409341950195" lon="11.943479521675767"><ele>512.0</ele><time>2026-03-22T11:55:04.998Z</time></trkpt><trkpt lat="42.72404048137481" lon="11.943408054441132"><ele>512.0</ele><time>2026-03-22T11:55:07.998Z</time></trkpt><trkpt lat="42.723939897514825" lon="11.943429383505425"><ele>512.0</ele><time>2026-03-22T11:55:10.998Z</time></trkpt><trkpt lat="42.72382964181854" lon="11.943456698008793"><ele>512.0</ele><time>2026-03-22T11:55:12.998Z</time></trkpt><trkpt lat="42.723730254629544" lon="11.943486546987746"><ele>512.0</ele><time>2026-03-22T11:55:14.998Z</time></trkpt><trkpt lat="42.723669078694286" lon="11.943561542120678"><ele>511.99999999999994</ele><time>2026-03-22T11:55:16.998Z</time></trkpt><trkpt lat="42.723639301097855" lon="11.94366784810329"><ele>512.0</ele><time>2026-03-22T11:55:18.998Z</time></trkpt><trkpt lat="42.72360622976972" lon="11.943790590972808"><ele>512.0</ele><time>2026-03-22T11:55:20.998Z</time></trkpt><trkpt lat="42.72358036825737" lon="11.943913421775328"><ele>512.0</ele><time>2026-03-22T11:55:22.998Z</time></trkpt><trkpt lat="42.72357018451611" lon="11.944003250286"><ele>511.99999999999994</ele><time>2026-03-22T11:55:24.998Z</time></trkpt><trkpt lat="42.72354567945894" lon="11.944093140561355"><ele>512.0</ele><time>2026-03-22T11:55:32.998Z</time></trkpt><trkpt lat="42.72356204206416" lon="11.943961239023634"><ele>511.99999999999994</ele><time>2026-03-22T11:55:43.999Z</time></trkpt><trkpt lat="42.72356982083384" lon="11.943862550936206"><ele>512.0</ele><time>2026-03-22T11:55:45.999Z</time></trkpt><trkpt lat="42.72360564216223" lon="11.943735944936643"><ele>512.0</ele><time>2026-03-22T11:55:48.999Z</time></trkpt><trkpt lat="42.72363696035774" lon="11.943636769692105"><ele>512.0</ele><time>2026-03-22T11:55:50.999Z</time></trkpt><trkpt lat="42.72367438975946" lon="11.943543097381648"><ele>511.99999999999994</ele><time>2026-03-22T11:55:52.999Z</time></trkpt><trkpt lat="42.723749248910394" lon="11.943469945962713"><ele>512.0</ele><time>2026-03-22T11:55:54.999Z</time></trkpt><trkpt lat="42.723844699982784" lon="11.943442238849453"><ele>511.99999999999994</ele><time>2026-03-22T11:55:56.999Z</time></trkpt><trkpt lat="42.72393524698621" lon="11.943430355196838"><ele>512.0</ele><time>2026-03-22T11:55:58.999Z</time></trkpt><trkpt lat="42.72400256828267" lon="11.943418428121086"><ele>512.0</ele><time>2026-03-22T11:56:00.999Z</time></trkpt><trkpt lat="42.72406973340115" lon="11.943464963650973"><ele>512.0</ele><time>2026-03-22T11:56:02.999Z</time></trkpt><trkpt lat="42.72412433553057" lon="11.943553355240502"><ele>511.99999999999994</ele><time>2026-03-22T11:56:04.999Z</time></trkpt><trkpt lat="42.72416958605622" lon="11.943624366791033"><ele>512.0</ele><time>2026-03-22T11:56:06.999Z</time></trkpt><trkpt lat="42.72422803384086" lon="11.943713080541452"><ele>511.99999999999994</ele><time>2026-03-22T11:56:09.999Z</time></trkpt><trkpt lat="42.72431166165641" lon="11.943827706033332"><ele>512.0</ele><time>2026-03-22T11:56:11.999Z</time></trkpt><trkpt lat="42.72439089152102" lon="11.94396013449782"><ele>512.0</ele><time>2026-03-22T11:56:13.999Z</time></trkpt><trkpt lat="42.72443483372229" lon="11.94402679759"><ele>512.0</ele><time>2026-03-22T11:56:14.999Z</time></trkpt><trkpt lat="42.72448081021897" lon="11.94409452802334"><ele>511.99999999999994</ele><time>2026-03-22T11:56:15.999Z</time></trkpt><trkpt lat="42.72452645311205" lon="11.944163530579646"><ele>512.0</ele><time>2026-03-22T11:56:16.999Z</time></trkpt><trkpt lat="42.72456938339747" lon="11.94423847317559"><ele>510.57142857142856</ele><time>2026-03-22T11:56:17.999Z</time></trkpt><trkpt lat="42.724611101608424" lon="11.9443045816832"><ele>509.1428571428571</ele><time>2026-03-22T11:56:18.999Z</time></trkpt><trkpt lat="42.724673657103956" lon="11.944397083353866"><ele>507.71428571428567</ele><time>2026-03-22T11:56:20.999Z</time></trkpt><trkpt lat="42.72467105618695" lon="11.94448925472286"><ele>506.2857142857142</ele><time>2026-03-22T11:56:22.999Z</time></trkpt><trkpt lat="42.72460691747195" lon="11.944557328572047"><ele>504.85714285714283</ele><time>2026-03-22T11:56:24.999Z</time></trkpt><trkpt lat="42.7245438537877" lon="11.944568430883857"><ele>503.42857142857133</ele><time>2026-03-22T11:56:25.999Z</time></trkpt><trkpt lat="42.72447184082489" lon="11.94457604147614"><ele>501.99999999999994</ele><time>2026-03-22T11:56:26.999Z</time></trkpt><trkpt lat="42.72439786792157" lon="11.944578799686663"><ele>503.6</ele><time>2026-03-22T11:56:27.999Z</time></trkpt><trkpt lat="42.72430957242091" lon="11.944586907333573"><ele>505.20000000000005</ele><time>2026-03-22T11:56:28.999Z</time></trkpt><trkpt lat="42.72421312149953" lon="11.94460343031459"><ele>506.8</ele><time>2026-03-22T11:56:29.999Z</time></trkpt><trkpt lat="42.72411137799768" lon="11.94462330420656"><ele>508.4</ele><time>2026-03-22T11:56:30.999Z</time></trkpt><trkpt lat="42.72401600841175" lon="11.944638986179624"><ele>510.0</ele><time>2026-03-22T11:56:31.999Z</time></trkpt><trkpt lat="42.72392568272286" lon="11.944651554814364"><ele>510.0</ele><time>2026-03-22T11:56:32.999Z</time></trkpt><trkpt lat="42.723840701222244" lon="11.944664192125433"><ele>510.0</ele><time>2026-03-22T11:56:33.999Z</time></trkpt><trkpt lat="42.723768121038304" lon="11.944681171229556"><ele>510.0</ele><time>2026-03-22T11:56:34.999Z</time></trkpt><trkpt lat="42.72366697669892" lon="11.944678513029793"><ele>510.0</ele><time>2026-03-22T11:56:36.999Z</time></trkpt><trkpt lat="42.723606416017276" lon="11.944654081536328"><ele>510.0</ele><time>2026-03-22T11:56:38.999Z</time></trkpt><trkpt lat="42.723550158194335" lon="11.944599396687595"><ele>510.0</ele><time>2026-03-22T11:56:43.999Z</time></trkpt><trkpt lat="42.723512551122646" lon="11.944501918201071"><ele>510.0</ele><time>2026-03-22T11:56:46.999Z</time></trkpt><trkpt lat="42.72345023636342" lon="11.944472985796091"><ele>510.0</ele><time>2026-03-22T11:57:05.999Z</time></trkpt><trkpt lat="42.72351695881153" lon="11.94446555261956"><ele>510.0</ele><time>2026-03-22T12:04:50Z</time></trkpt><trkpt lat="42.72358013486266" lon="11.94443324832937"><ele>510.0</ele><time>2026-03-22T12:04:57.999Z</time></trkpt><trkpt lat="42.72364643526872" lon="11.944395791887352"><ele>510.0</ele><time>2026-03-22T12:05:04.999Z</time></trkpt><trkpt lat="42.723731613119824" lon="11.944323742581417"><ele>510.0</ele><time>2026-03-22T12:05:27.999Z</time></trkpt><trkpt lat="42.72380924324349" lon="11.944282389645139"><ele>510.0</ele><time>2026-03-22T12:06:26Z</time></trkpt><trkpt lat="42.7238659612904" lon="11.944244079108309"><ele>510.0</ele><time>2026-03-22T12:06:28Z</time></trkpt><trkpt lat="42.723815288681095" lon="11.944303066259025"><ele>510.0</ele><time>2026-03-22T12:06:39Z</time></trkpt><trkpt lat="42.723710297668234" lon="11.944283231614525"><ele>510.0</ele><time>2026-03-22T12:06:41Z</time></trkpt><trkpt lat="42.72364105227698" lon="11.944339538991631"><ele>510.0</ele><time>2026-03-22T12:09:13.05Z</time></trkpt><trkpt lat="42.72364935670793" lon="11.944436408053843"><ele>510.0</ele><time>2026-03-22T12:11:22Z</time></trkpt><trkpt lat="42.72365040878616" lon="11.944321853160693"><ele>510.0</ele><time>2026-03-22T12:23:17.999Z</time></trkpt><trkpt lat="42.7237911196077" lon="11.944339129668599"><ele>510.0</ele><time>2026-03-22T13:31:50.999Z</time></trkpt><trkpt lat="42.72372543195901" lon="11.944344877164381"><ele>510.0</ele><time>2026-03-22T13:32:02.999Z</time></trkpt><trkpt lat="42.7236600152456" lon="11.944352702577232"><ele>510.0</ele><time>2026-03-22T13:32:16.999Z</time></trkpt><trkpt lat="42.72363667188408" lon="11.944436773516037"><ele>510.0</ele><time>2026-03-22T15:21:05.999Z</time></trkpt><trkpt lat="42.72359401065698" lon="11.944509195235918"><ele>510.0</ele><time>2026-03-22T15:21:09.999Z</time></trkpt><trkpt lat="42.723637302951246" lon="11.944420749289842"><ele>510.0</ele><time>2026-03-22T15:21:24.999Z</time></trkpt><trkpt lat="42.72362150390178" lon="11.944577699422771"><ele>510.0</ele><time>2026-03-22T15:21:53.998Z</time></trkpt><trkpt lat="42.72364698564573" lon="11.944494543766858"><ele>510.0</ele><time>2026-03-22T15:22:07Z</time></trkpt><trkpt lat="42.72365681764303" lon="11.944408696630608"><ele>510.0</ele><time>2026-03-22T15:22:15Z</time></trkpt><trkpt lat="42.723561077577024" lon="11.944558377727281"><ele>510.0</ele><time>2026-03-22T15:22:32.049Z</time></trkpt><trkpt lat="42.72347792811173" lon="11.944718008488394"><ele>510.6</ele><time>2026-03-22T15:22:37Z</time></trkpt><trkpt lat="42.72345260848114" lon="11.94485233774719"><ele>511.2</ele><time>2026-03-22T15:22:40Z</time></trkpt><trkpt lat="42.72343838804361" lon="11.944956832671107"><ele>511.79999999999995</ele><time>2026-03-22T15:22:41Z</time></trkpt><trkpt lat="42.723381669922986" lon="11.945191571356533"><ele>512.4</ele><time>2026-03-22T15:22:47.029Z</time></trkpt><trkpt lat="42.72342262491384" lon="11.945122442502678"><ele>513.0</ele><time>2026-03-22T15:23:03.018Z</time></trkpt><trkpt lat="42.72342273785818" lon="11.94502204636064"><ele>510.0</ele><time>2026-03-22T15:23:08.018Z</time></trkpt><trkpt lat="42.72359062118815" lon="11.944379804993803"><ele>515.0</ele><time>2026-03-22T15:23:33.417Z</time></trkpt><trkpt lat="42.7234595107633" lon="11.945006936964644"><ele>515.0</ele><time>2026-03-22T15:23:42.013Z</time></trkpt><trkpt lat="42.723514958060676" lon="11.944701613338662"><ele>515.0</ele><time>2026-03-22T15:23:45.014Z</time></trkpt><trkpt lat="42.72354659309284" lon="11.944620355987503"><ele>515.0</ele><time>2026-03-22T15:23:46.014Z</time></trkpt><trkpt lat="42.72351777872137" lon="11.94454229365469"><ele>515.0</ele><time>2026-03-22T15:24:04.013Z</time></trkpt><trkpt lat="42.72355780804065" lon="11.944419140018029"><ele>514.1666666666666</ele><time>2026-03-22T15:24:05.013Z</time></trkpt><trkpt lat="42.72361856905739" lon="11.944384821080149"><ele>513.3333333333333</ele><time>2026-03-22T15:24:20.014Z</time></trkpt><trkpt lat="42.723678378854515" lon="11.944494868334507"><ele>512.5</ele><time>2026-03-22T15:24:23.014Z</time></trkpt><trkpt lat="42.723733564858485" lon="11.944575676579467"><ele>511.66666666666663</ele><time>2026-03-22T15:24:25.014Z</time></trkpt><trkpt lat="42.723652284261775" lon="11.94460663313038"><ele>510.8333333333333</ele><time>2026-03-22T15:24:28.014Z</time></trkpt><trkpt lat="42.72359310023796" lon="11.94464139801853"><ele>510.0</ele><time>2026-03-22T15:24:38.018Z</time></trkpt><trkpt lat="42.72360037901366" lon="11.944755814738885"><ele>510.0</ele><time>2026-03-22T15:24:57.016Z</time></trkpt><trkpt lat="42.72357282191856" lon="11.944833289733523"><ele>510.0</ele><time>2026-03-22T15:25:00.016Z</time></trkpt><trkpt lat="42.72355501379941" lon="11.944929983571303"><ele>510.0</ele><time>2026-03-22T15:25:03.016Z</time></trkpt><trkpt lat="42.72352109058893" lon="11.945190656397452"><ele>510.0</ele><time>2026-03-22T15:25:15.236Z</time></trkpt><trkpt lat="42.7235582414834" lon="11.94475832284703"><ele>510.0</ele><time>2026-03-22T15:25:16.413Z</time></trkpt><trkpt lat="42.723566090390236" lon="11.944662032441451"><ele>510.0</ele><time>2026-03-22T15:25:24.484Z</time></trkpt><trkpt lat="42.72359331194778" lon="11.944360696660791"><ele>510.0</ele><time>2026-03-22T15:25:42.277Z</time></trkpt><trkpt lat="42.72359391161953" lon="11.94425122562552"><ele>510.0</ele><time>2026-03-22T15:30:55.015Z</time></trkpt><trkpt lat="42.72369236152626" lon="11.94414659320718"><ele>510.0</ele><time>2026-03-22T15:31:48.015Z</time></trkpt><trkpt lat="42.72370200462526" lon="11.94424794653465"><ele>510.00000000000006</ele><time>2026-03-22T15:31:52.016Z</time></trkpt><trkpt lat="42.723627805178396" lon="11.944293453965843"><ele>510.0</ele><time>2026-03-22T15:32:01.016Z</time></trkpt><trkpt lat="42.72359268329859" lon="11.944366629245735"><ele>510.0</ele><time>2026-03-22T15:32:37Z</time></trkpt><trkpt lat="42.72352282006053" lon="11.944365702811261"><ele>510.00000000000006</ele><time>2026-03-22T15:35:01.999Z</time></trkpt><trkpt lat="42.72347442322111" lon="11.944433813887745"><ele>510.0</ele><time>2026-03-22T15:35:09.999Z</time></trkpt><trkpt lat="42.72347263346814" lon="11.944528743231391"><ele>510.0</ele><time>2026-03-22T15:39:05.999Z</time></trkpt><trkpt lat="42.723524255422966" lon="11.944585336787243"><ele>510.0</ele><time>2026-03-22T15:39:07.999Z</time></trkpt><trkpt lat="42.72358443769776" lon="11.944614622163929"><ele>510.0</ele><time>2026-03-22T15:39:09.999Z</time></trkpt><trkpt lat="42.723651134887724" lon="11.944635006820025"><ele>510.0</ele><time>2026-03-22T15:39:11.999Z</time></trkpt><trkpt lat="42.723728270752375" lon="11.944625696505641"><ele>510.0</ele><time>2026-03-22T15:39:13.999Z</time></trkpt><trkpt lat="42.723815622880345" lon="11.944616763803051"><ele>510.0</ele><time>2026-03-22T15:39:15.999Z</time></trkpt><trkpt lat="42.723904472410894" lon="11.944608672078378"><ele>510.0</ele><time>2026-03-22T15:39:17.999Z</time></trkpt><trkpt lat="42.72399711829852" lon="11.944590576381554"><ele>510.0</ele><time>2026-03-22T15:39:19.999Z</time></trkpt><trkpt lat="42.72407736922764" lon="11.944573385256346"><ele>510.0</ele><time>2026-03-22T15:39:21.999Z</time></trkpt><trkpt lat="42.7241706238361" lon="11.944559138676027"><ele>510.0</ele><time>2026-03-22T15:39:23.999Z</time></trkpt><trkpt lat="42.72425633010012" lon="11.944546253449476"><ele>510.0</ele><time>2026-03-22T15:39:25.999Z</time></trkpt><trkpt lat="42.72433303610879" lon="11.944546770885687"><ele>510.0</ele><time>2026-03-22T15:39:28.999Z</time></trkpt><trkpt lat="42.72440476784795" lon="11.94453695318288"><ele>510.0</ele><time>2026-03-22T15:39:54.998Z</time></trkpt><trkpt lat="42.72448003883504" lon="11.944519516097914"><ele>508.4</ele><time>2026-03-22T15:39:56.998Z</time></trkpt><trkpt lat="42.72456204782501" lon="11.944507929792383"><ele>506.8</ele><time>2026-03-22T15:39:58.998Z</time></trkpt><trkpt lat="42.72464361042897" lon="11.944514868080793"><ele>505.20000000000005</ele><time>2026-03-22T15:40:00.998Z</time></trkpt><trkpt lat="42.724725490533174" lon="11.944595641156836"><ele>503.6</ele><time>2026-03-22T15:40:02.998Z</time></trkpt><trkpt lat="42.72477519361608" lon="11.94470119624061"><ele>502.0</ele><time>2026-03-22T15:40:04.998Z</time></trkpt><trkpt lat="42.724851311223716" lon="11.944834619703954"><ele>502.0</ele><time>2026-03-22T15:40:06.998Z</time></trkpt><trkpt lat="42.72488935885555" lon="11.944909783548919"><ele>502.00000000000006</ele><time>2026-03-22T15:40:07.998Z</time></trkpt><trkpt lat="42.72483878984828" lon="11.945029253432464"><ele>502.00000000000006</ele><time>2026-03-22T15:40:08.998Z</time></trkpt><trkpt lat="42.72487347197784" lon="11.945126106806066"><ele>502.0</ele><time>2026-03-22T15:40:09.998Z</time></trkpt><trkpt lat="42.724928059395495" lon="11.94526951487606"><ele>502.0</ele><time>2026-03-22T15:40:11.998Z</time></trkpt><trkpt lat="42.72496924412849" lon="11.945371424095287"><ele>501.20000000000005</ele><time>2026-03-22T15:40:12.998Z</time></trkpt><trkpt lat="42.7250137775549" lon="11.94548161939796"><ele>500.40000000000003</ele><time>2026-03-22T15:40:13.998Z</time></trkpt><trkpt lat="42.725059334821864" lon="11.94559346792906"><ele>499.59999999999997</ele><time>2026-03-22T15:40:14.998Z</time></trkpt><trkpt lat="42.725105790489586" lon="11.945694966349063"><ele>498.79999999999995</ele><time>2026-03-22T15:40:15.998Z</time></trkpt><trkpt lat="42.72515550022808" lon="11.945795276548878"><ele>498.0</ele><time>2026-03-22T15:40:16.998Z</time></trkpt><trkpt lat="42.725209079417446" lon="11.945898340349052"><ele>497.0</ele><time>2026-03-22T15:40:17.998Z</time></trkpt><trkpt lat="42.725261968821854" lon="11.9459933017596"><ele>495.99999999999994</ele><time>2026-03-22T15:40:18.998Z</time></trkpt><trkpt lat="42.72531897902382" lon="11.94609152025834"><ele>494.99999999999994</ele><time>2026-03-22T15:40:19.998Z</time></trkpt><trkpt lat="42.72538075654038" lon="11.946190208552233"><ele>494.0</ele><time>2026-03-22T15:40:20.998Z</time></trkpt><trkpt lat="42.72544456583727" lon="11.946286916165953"><ele>493.0</ele><time>2026-03-22T15:40:21.998Z</time></trkpt><trkpt lat="42.72550637029206" lon="11.946378414633886"><ele>493.00000000000006</ele><time>2026-03-22T15:40:22.998Z</time></trkpt><trkpt lat="42.725561680413335" lon="11.946459914474733"><ele>493.0</ele><time>2026-03-22T15:40:23.998Z</time></trkpt><trkpt lat="42.725626933063246" lon="11.946556064798282"><ele>493.0</ele><time>2026-03-22T15:40:24.998Z</time></trkpt><trkpt lat="42.725688452146635" lon="11.946644453109721"><ele>493.0</ele><time>2026-03-22T15:40:25.998Z</time></trkpt><trkpt lat="42.725749653270924" lon="11.946729438436215"><ele>493.00000000000006</ele><time>2026-03-22T15:40:26.998Z</time></trkpt><trkpt lat="42.72581106758417" lon="11.94681401632019"><ele>493.0</ele><time>2026-03-22T15:40:27.998Z</time></trkpt><trkpt lat="42.72587496791369" lon="11.946899824200809"><ele>492.59999999999997</ele><time>2026-03-22T15:40:28.998Z</time></trkpt><trkpt lat="42.72593316588351" lon="11.946977974566012"><ele>492.19999999999993</ele><time>2026-03-22T15:40:29.998Z</time></trkpt><trkpt lat="42.72597841973919" lon="11.94704197103595"><ele>491.8</ele><time>2026-03-22T15:40:30.998Z</time></trkpt><trkpt lat="42.72605219795032" lon="11.94714909811068"><ele>491.4</ele><time>2026-03-22T15:40:32.998Z</time></trkpt><trkpt lat="42.72620243453428" lon="11.947012618147438"><ele>491.0</ele><time>2026-03-22T15:40:34.999Z</time></trkpt><trkpt lat="42.726276443670194" lon="11.947035141687723"><ele>490.99999999999994</ele><time>2026-03-22T15:40:35.999Z</time></trkpt><trkpt lat="42.72630265827584" lon="11.946898692993662"><ele>491.0</ele><time>2026-03-22T15:40:36.999Z</time></trkpt><trkpt lat="42.72635495440709" lon="11.946835996556462"><ele>491.0</ele><time>2026-03-22T15:40:37.999Z</time></trkpt><trkpt lat="42.726406595438306" lon="11.946773706975671"><ele>491.0</ele><time>2026-03-22T15:40:38.999Z</time></trkpt><trkpt lat="42.72645878294009" lon="11.946710305604554"><ele>490.99999999999994</ele><time>2026-03-22T15:40:39.999Z</time></trkpt><trkpt lat="42.72651154841211" lon="11.946646202104153"><ele>491.0</ele><time>2026-03-22T15:40:40.999Z</time></trkpt><trkpt lat="42.72656736649825" lon="11.94657839007481"><ele>490.99999999999994</ele><time>2026-03-22T15:40:41.999Z</time></trkpt><trkpt lat="42.72662298822878" lon="11.946510816578467"><ele>491.0</ele><time>2026-03-22T15:40:42.999Z</time></trkpt><trkpt lat="42.72668005010505" lon="11.946441493451905"><ele>491.0</ele><time>2026-03-22T15:40:43.999Z</time></trkpt><trkpt lat="42.72673583252431" lon="11.946375272390707"><ele>491.0</ele><time>2026-03-22T15:40:44.999Z</time></trkpt><trkpt lat="42.72678784187521" lon="11.946316559081023"><ele>490.99999999999994</ele><time>2026-03-22T15:40:45.999Z</time></trkpt><trkpt lat="42.72683750267499" lon="11.94626062200777"><ele>491.0</ele><time>2026-03-22T15:40:46.999Z</time></trkpt><trkpt lat="42.72693386480375" lon="11.946153002520848"><ele>490.6</ele><time>2026-03-22T15:40:48.999Z</time></trkpt><trkpt lat="42.726998674640114" lon="11.946020774539365"><ele>490.20000000000005</ele><time>2026-03-22T15:40:50.999Z</time></trkpt><trkpt lat="42.72702909055174" lon="11.945933460607224"><ele>489.79999999999995</ele><time>2026-03-22T15:40:52.999Z</time></trkpt><trkpt lat="42.72717687788618" lon="11.945988873323817"><ele>489.4</ele><time>2026-03-22T15:40:55.999Z</time></trkpt><trkpt lat="42.7272582269403" lon="11.946074693065016"><ele>489.0</ele><time>2026-03-22T15:40:57.999Z</time></trkpt><trkpt lat="42.727359630431096" lon="11.946160857226252"><ele>489.0</ele><time>2026-03-22T15:40:59.999Z</time></trkpt><trkpt lat="42.72741486892439" lon="11.946209575076558"><ele>489.00000000000006</ele><time>2026-03-22T15:41:00.999Z</time></trkpt><trkpt lat="42.72746357851889" lon="11.946264891610609"><ele>489.0</ele><time>2026-03-22T15:41:01.999Z</time></trkpt><trkpt lat="42.7275186782306" lon="11.946322255623711"><ele>489.0</ele><time>2026-03-22T15:41:02.999Z</time></trkpt><trkpt lat="42.727580077640226" lon="11.946377019885153"><ele>489.00000000000006</ele><time>2026-03-22T15:41:03.999Z</time></trkpt><trkpt lat="42.72764262039822" lon="11.94643210696904"><ele>489.0</ele><time>2026-03-22T15:41:04.999Z</time></trkpt><trkpt lat="42.727708687128775" lon="11.946490571349617"><ele>489.0</ele><time>2026-03-22T15:41:05.999Z</time></trkpt><trkpt lat="42.72777440431398" lon="11.946547727662475"><ele>488.5</ele><time>2026-03-22T15:41:06.999Z</time></trkpt><trkpt lat="42.7278429723307" lon="11.946609517173165"><ele>488.0</ele><time>2026-03-22T15:41:07.999Z</time></trkpt><trkpt lat="42.7279111981324" lon="11.94667403538708"><ele>487.5</ele><time>2026-03-22T15:41:08.999Z</time></trkpt><trkpt lat="42.72797839690702" lon="11.946739444305845"><ele>487.0</ele><time>2026-03-22T15:41:09.999Z</time></trkpt><trkpt lat="42.728045165152345" lon="11.946804163943332"><ele>486.5</ele><time>2026-03-22T15:41:10.999Z</time></trkpt><trkpt lat="42.72811387088792" lon="11.946867236809771"><ele>486.0</ele><time>2026-03-22T15:41:11.999Z</time></trkpt><trkpt lat="42.728184211395295" lon="11.946927715218191"><ele>486.0</ele><time>2026-03-22T15:41:12.999Z</time></trkpt><trkpt lat="42.72824329952336" lon="11.947008742367778"><ele>486.0</ele><time>2026-03-22T15:41:13.999Z</time></trkpt><trkpt lat="42.72831113270743" lon="11.947072033798856"><ele>486.0</ele><time>2026-03-22T15:41:14.999Z</time></trkpt><trkpt lat="42.72837736576517" lon="11.94713723589439"><ele>486.0</ele><time>2026-03-22T15:41:15.999Z</time></trkpt><trkpt lat="42.728442087520506" lon="11.947201524046205"><ele>486.0</ele><time>2026-03-22T15:41:16.999Z</time></trkpt><trkpt lat="42.72850587625142" lon="11.947269912254155"><ele>486.0</ele><time>2026-03-22T15:41:17.999Z</time></trkpt><trkpt lat="42.728559607634594" lon="11.947343562159862"><ele>486.0</ele><time>2026-03-22T15:41:18.999Z</time></trkpt><trkpt lat="42.72860739954178" lon="11.947421712709389"><ele>486.0</ele><time>2026-03-22T15:41:19.999Z</time></trkpt><trkpt lat="42.728627906751065" lon="11.947511329343635"><ele>486.0</ele><time>2026-03-22T15:41:20.999Z</time></trkpt><trkpt lat="42.728634560329326" lon="11.94760307839616"><ele>486.0</ele><time>2026-03-22T15:41:21.999Z</time></trkpt><trkpt lat="42.728636748680294" lon="11.947694488449205"><ele>486.0</ele><time>2026-03-22T15:41:22.999Z</time></trkpt><trkpt lat="42.72860540994748" lon="11.947771956449774"><ele>486.0</ele><time>2026-03-22T15:41:23.999Z</time></trkpt><trkpt lat="42.72851426493764" lon="11.9478568618825"><ele>486.5</ele><time>2026-03-22T15:41:25.999Z</time></trkpt><trkpt lat="42.728456694265304" lon="11.94792580649783"><ele>487.0</ele><time>2026-03-22T15:41:26.999Z</time></trkpt><trkpt lat="42.72839892636813" lon="11.948019534601604"><ele>487.5</ele><time>2026-03-22T15:41:27.999Z</time></trkpt><trkpt lat="42.72835899264029" lon="11.948126907773847"><ele>488.0</ele><time>2026-03-22T15:41:28.999Z</time></trkpt><trkpt lat="42.728352045290485" lon="11.94826360976557"><ele>488.5</ele><time>2026-03-22T15:41:29.999Z</time></trkpt><trkpt lat="42.7283676010709" lon="11.948373260115892"><ele>489.0</ele><time>2026-03-22T15:41:30.999Z</time></trkpt><trkpt lat="42.72840680293377" lon="11.948454762587751"><ele>489.1666666666667</ele><time>2026-03-22T15:41:31.999Z</time></trkpt><trkpt lat="42.728447337449545" lon="11.948531959109074"><ele>489.33333333333337</ele><time>2026-03-22T15:41:32.999Z</time></trkpt><trkpt lat="42.72855864188746" lon="11.948642488379058"><ele>489.5</ele><time>2026-03-22T15:41:34.999Z</time></trkpt><trkpt lat="42.728614326198546" lon="11.948694564869468"><ele>489.6666666666667</ele><time>2026-03-22T15:41:35.999Z</time></trkpt><trkpt lat="42.728702252101456" lon="11.948754512045518"><ele>489.83333333333337</ele><time>2026-03-22T15:41:36.999Z</time></trkpt><trkpt lat="42.728772638189426" lon="11.948787326741376"><ele>490.0</ele><time>2026-03-22T15:41:37.999Z</time></trkpt><trkpt lat="42.72883563168242" lon="11.948832376965681"><ele>490.2857142857143</ele><time>2026-03-22T15:41:38.999Z</time></trkpt><trkpt lat="42.72890239916259" lon="11.948873787003253"><ele>490.57142857142856</ele><time>2026-03-22T15:41:39.999Z</time></trkpt><trkpt lat="42.72896981212817" lon="11.948908603593047"><ele>490.8571428571429</ele><time>2026-03-22T15:41:40.999Z</time></trkpt><trkpt lat="42.72903399103482" lon="11.948945273965812"><ele>491.14285714285717</ele><time>2026-03-22T15:41:41.999Z</time></trkpt><trkpt lat="42.729104638185795" lon="11.948974545696087"><ele>491.42857142857144</ele><time>2026-03-22T15:41:42.999Z</time></trkpt><trkpt lat="42.72918069184138" lon="11.949001202385395"><ele>491.7142857142858</ele><time>2026-03-22T15:41:43.998Z</time></trkpt><trkpt lat="42.72924147557538" lon="11.949045030005328"><ele>492.00000000000006</ele><time>2026-03-22T15:41:44.998Z</time></trkpt><trkpt lat="42.72930541458558" lon="11.949067263698604"><ele>493.3333333333333</ele><time>2026-03-22T15:41:45.998Z</time></trkpt><trkpt lat="42.72939423861786" lon="11.949068830139355"><ele>494.66666666666663</ele><time>2026-03-22T15:41:46.998Z</time></trkpt><trkpt lat="42.72948179570034" lon="11.949090488137468"><ele>496.0</ele><time>2026-03-22T15:41:47.998Z</time></trkpt><trkpt lat="42.729568813915044" lon="11.949099128716203"><ele>497.3333333333333</ele><time>2026-03-22T15:41:48.998Z</time></trkpt><trkpt lat="42.72965317214755" lon="11.94906373008641"><ele>498.66666666666663</ele><time>2026-03-22T15:41:49.998Z</time></trkpt><trkpt lat="42.72971487319701" lon="11.949011127823944"><ele>500.0</ele><time>2026-03-22T15:41:50.998Z</time></trkpt><trkpt lat="42.7297663743164" lon="11.948930096551484"><ele>499.99999999999994</ele><time>2026-03-22T15:41:51.998Z</time></trkpt><trkpt lat="42.729789450173186" lon="11.948833419769908"><ele>500.0</ele><time>2026-03-22T15:41:52.998Z</time></trkpt><trkpt lat="42.72980555659711" lon="11.948747834963175"><ele>500.0</ele><time>2026-03-22T15:41:53.998Z</time></trkpt><trkpt lat="42.7298214644604" lon="11.948658633694418"><ele>500.0</ele><time>2026-03-22T15:41:54.998Z</time></trkpt><trkpt lat="42.729856675492954" lon="11.94853503237222"><ele>499.99999999999994</ele><time>2026-03-22T15:41:56.998Z</time></trkpt><trkpt lat="42.729939484197466" lon="11.948438888295469"><ele>500.0</ele><time>2026-03-22T15:41:58.998Z</time></trkpt><trkpt lat="42.730005879643926" lon="11.948378826860628"><ele>499.99999999999994</ele><time>2026-03-22T15:41:59.998Z</time></trkpt><trkpt lat="42.73010276724864" lon="11.94841248481159"><ele>500.0</ele><time>2026-03-22T15:42:00.998Z</time></trkpt><trkpt lat="42.73017479382395" lon="11.948473631842173"><ele>500.0</ele><time>2026-03-22T15:42:01.998Z</time></trkpt><trkpt lat="42.73023076998071" lon="11.94852360155529"><ele>500.0</ele><time>2026-03-22T15:42:02.998Z</time></trkpt><trkpt lat="42.73029135470712" lon="11.948577685330571"><ele>499.99999999999994</ele><time>2026-03-22T15:42:03.998Z</time></trkpt><trkpt lat="42.73035571858901" lon="11.948625316805712"><ele>500.0</ele><time>2026-03-22T15:42:04.998Z</time></trkpt><trkpt lat="42.730431806838546" lon="11.948674375990343"><ele>500.99999999999994</ele><time>2026-03-22T15:42:05.998Z</time></trkpt><trkpt lat="42.73051043647044" lon="11.948723549897855"><ele>502.0</ele><time>2026-03-22T15:42:06.998Z</time></trkpt><trkpt lat="42.7305919914752" lon="11.9487734192424"><ele>503.0</ele><time>2026-03-22T15:42:07.998Z</time></trkpt><trkpt lat="42.73067317745411" lon="11.948822684551073"><ele>504.0</ele><time>2026-03-22T15:42:08.998Z</time></trkpt><trkpt lat="42.730750814918096" lon="11.948868456141607"><ele>504.99999999999994</ele><time>2026-03-22T15:42:09.998Z</time></trkpt><trkpt lat="42.73083306307231" lon="11.948937933925748"><ele>506.0</ele><time>2026-03-22T15:42:10.998Z</time></trkpt><trkpt lat="42.73091950319004" lon="11.948987177519593"><ele>506.0</ele><time>2026-03-22T15:42:11.998Z</time></trkpt><trkpt lat="42.73100874437708" lon="11.949029237594536"><ele>506.0</ele><time>2026-03-22T15:42:12.998Z</time></trkpt><trkpt lat="42.73109485360373" lon="11.949070940019011"><ele>506.0</ele><time>2026-03-22T15:42:13.998Z</time></trkpt><trkpt lat="42.7311784019582" lon="11.94911278552827"><ele>506.0</ele><time>2026-03-22T15:42:14.998Z</time></trkpt><trkpt lat="42.73126588374262" lon="11.949159667663112"><ele>506.0</ele><time>2026-03-22T15:42:15.998Z</time></trkpt><trkpt lat="42.73135134745729" lon="11.94920567521264"><ele>506.20000000000005</ele><time>2026-03-22T15:42:16.998Z</time></trkpt><trkpt lat="42.731436311450906" lon="11.949250412327057"><ele>506.40000000000003</ele><time>2026-03-22T15:42:17.998Z</time></trkpt><trkpt lat="42.7315229253927" lon="11.949293454147858"><ele>506.6</ele><time>2026-03-22T15:42:18.998Z</time></trkpt><trkpt lat="42.731609371513926" lon="11.949336846994006"><ele>506.8</ele><time>2026-03-22T15:42:19.998Z</time></trkpt><trkpt lat="42.73169251660194" lon="11.949392857268867"><ele>507.0</ele><time>2026-03-22T15:42:20.998Z</time></trkpt><trkpt lat="42.73177168216024" lon="11.94945823485621"><ele>507.0</ele><time>2026-03-22T15:42:21.998Z</time></trkpt><trkpt lat="42.7318488561789" lon="11.949526018441972"><ele>507.00000000000006</ele><time>2026-03-22T15:42:22.998Z</time></trkpt><trkpt lat="42.73192631124207" lon="11.949598617161605"><ele>507.00000000000006</ele><time>2026-03-22T15:42:23.998Z</time></trkpt><trkpt lat="42.73200327683754" lon="11.949678137034681"><ele>507.0</ele><time>2026-03-22T15:42:24.998Z</time></trkpt><trkpt lat="42.7320816989195" lon="11.949761266925753"><ele>507.0</ele><time>2026-03-22T15:42:25.998Z</time></trkpt><trkpt lat="42.732161703430556" lon="11.94984727675282"><ele>508.0</ele><time>2026-03-22T15:42:26.998Z</time></trkpt><trkpt lat="42.73224222811738" lon="11.949934343808351"><ele>509.00000000000006</ele><time>2026-03-22T15:42:27.998Z</time></trkpt><trkpt lat="42.73232305095772" lon="11.950022730622205"><ele>510.00000000000006</ele><time>2026-03-22T15:42:28.998Z</time></trkpt><trkpt lat="42.73240535379723" lon="11.950113854275346"><ele>511.0</ele><time>2026-03-22T15:42:29.998Z</time></trkpt><trkpt lat="42.73248712716591" lon="11.950207656311166"><ele>512.0</ele><time>2026-03-22T15:42:30.998Z</time></trkpt><trkpt lat="42.7325702910924" lon="11.950300803263852"><ele>512.2</ele><time>2026-03-22T15:42:31.998Z</time></trkpt><trkpt lat="42.732655741620405" lon="11.950392097779808"><ele>512.4000000000001</ele><time>2026-03-22T15:42:32.998Z</time></trkpt><trkpt lat="42.73274074484257" lon="11.950476915971683"><ele>512.5999999999999</ele><time>2026-03-22T15:42:33.998Z</time></trkpt><trkpt lat="42.73282503527165" lon="11.950562892093906"><ele>512.8</ele><time>2026-03-22T15:42:34.998Z</time></trkpt><trkpt lat="42.73290824127756" lon="11.950647208649494"><ele>513.0</ele><time>2026-03-22T15:42:35.998Z</time></trkpt><trkpt lat="42.732989836654745" lon="11.95073344335603"><ele>513.0</ele><time>2026-03-22T15:42:36.998Z</time></trkpt><trkpt lat="42.73305821522681" lon="11.950838191862411"><ele>513.0</ele><time>2026-03-22T15:42:37.998Z</time></trkpt><trkpt lat="42.733137266362654" lon="11.950929245994537"><ele>513.0</ele><time>2026-03-22T15:42:38.998Z</time></trkpt><trkpt lat="42.73321974215831" lon="11.951008375055212"><ele>513.0</ele><time>2026-03-22T15:42:39.999Z</time></trkpt><trkpt lat="42.73329450003356" lon="11.95112713890748"><ele>513.0</ele><time>2026-03-22T15:42:40.999Z</time></trkpt><trkpt lat="42.733363303402754" lon="11.951249876099292"><ele>513.75</ele><time>2026-03-22T15:42:41.999Z</time></trkpt><trkpt lat="42.73343517302518" lon="11.95138120282249"><ele>514.5</ele><time>2026-03-22T15:42:42.999Z</time></trkpt><trkpt lat="42.7335104360076" lon="11.951513417981968"><ele>515.25</ele><time>2026-03-22T15:42:43.999Z</time></trkpt><trkpt lat="42.73358373004528" lon="11.951637159150398"><ele>516.0</ele><time>2026-03-22T15:42:44.999Z</time></trkpt><trkpt lat="42.733658266828776" lon="11.951766268147528"><ele>516.25</ele><time>2026-03-22T15:42:45.999Z</time></trkpt><trkpt lat="42.733731920972254" lon="11.951890651175043"><ele>516.5</ele><time>2026-03-22T15:42:46.999Z</time></trkpt><trkpt lat="42.73380635983755" lon="11.952020999671037"><ele>516.75</ele><time>2026-03-22T15:42:47.999Z</time></trkpt><trkpt lat="42.73388037805879" lon="11.952147004552842"><ele>517.0</ele><time>2026-03-22T15:42:48.999Z</time></trkpt><trkpt lat="42.73395859159999" lon="11.95227458060597"><ele>517.0</ele><time>2026-03-22T15:42:49.999Z</time></trkpt><trkpt lat="42.734027331995485" lon="11.952391718160845"><ele>517.0</ele><time>2026-03-22T15:42:50.999Z</time></trkpt><trkpt lat="42.73408039169235" lon="11.952524419884682"><ele>517.0</ele><time>2026-03-22T15:42:51.999Z</time></trkpt><trkpt lat="42.7341307064526" lon="11.952644991266197"><ele>517.0</ele><time>2026-03-22T15:42:52.999Z</time></trkpt><trkpt lat="42.73417113875142" lon="11.952786863111843"><ele>517.0</ele><time>2026-03-22T15:42:53.999Z</time></trkpt><trkpt lat="42.73418622472715" lon="11.952922355291408"><ele>517.0</ele><time>2026-03-22T15:42:54.999Z</time></trkpt><trkpt lat="42.734180637498966" lon="11.95303529896446"><ele>517.0</ele><time>2026-03-22T15:42:55.999Z</time></trkpt><trkpt lat="42.73416330696294" lon="11.953161901970875"><ele>517.0</ele><time>2026-03-22T15:42:56.999Z</time></trkpt><trkpt lat="42.73414775825949" lon="11.953303430528633"><ele>517.0</ele><time>2026-03-22T15:42:57.999Z</time></trkpt><trkpt lat="42.734133887578366" lon="11.953438457517008"><ele>517.0</ele><time>2026-03-22T15:42:58.999Z</time></trkpt><trkpt lat="42.73412495764719" lon="11.953525387970707"><ele>517.0</ele><time>2026-03-22T15:42:59.999Z</time></trkpt><trkpt lat="42.734111371975324" lon="11.953657640231107"><ele>517.2</ele><time>2026-03-22T15:43:00.999Z</time></trkpt><trkpt lat="42.73409769030801" lon="11.953790827478644"><ele>517.4000000000001</ele><time>2026-03-22T15:43:01.999Z</time></trkpt><trkpt lat="42.73408282777607" lon="11.953935510093842"><ele>517.5999999999999</ele><time>2026-03-22T15:43:02.999Z</time></trkpt><trkpt lat="42.734068547161336" lon="11.954074527894907"><ele>517.8</ele><time>2026-03-22T15:43:03.999Z</time></trkpt><trkpt lat="42.73405507953227" lon="11.95420535601513"><ele>518.0</ele><time>2026-03-22T15:43:04.999Z</time></trkpt><trkpt lat="42.734046068764876" lon="11.954334213808174"><ele>519.1999999999999</ele><time>2026-03-22T15:43:05.999Z</time></trkpt><trkpt lat="42.73404702234703" lon="11.954456460187709"><ele>520.4</ele><time>2026-03-22T15:43:06.999Z</time></trkpt><trkpt lat="42.73407094281698" lon="11.954584293954456"><ele>521.5999999999999</ele><time>2026-03-22T15:43:07.999Z</time></trkpt><trkpt lat="42.734119106346334" lon="11.954700792313973"><ele>522.8</ele><time>2026-03-22T15:43:08.999Z</time></trkpt><trkpt lat="42.73416912482294" lon="11.954797988810448"><ele>524.0</ele><time>2026-03-22T15:43:09.999Z</time></trkpt><trkpt lat="42.73422219021833" lon="11.95489076859628"><ele>524.0</ele><time>2026-03-22T15:43:10.999Z</time></trkpt><trkpt lat="42.73427106390624" lon="11.954975004480401"><ele>524.0</ele><time>2026-03-22T15:43:11.999Z</time></trkpt><trkpt lat="42.734312990570565" lon="11.955055094416679"><ele>524.0</ele><time>2026-03-22T15:43:12.999Z</time></trkpt><trkpt lat="42.734354239737485" lon="11.955145435576814"><ele>524.0</ele><time>2026-03-22T15:43:13.999Z</time></trkpt><trkpt lat="42.734407523361696" lon="11.955227442690477"><ele>524.0</ele><time>2026-03-22T15:43:14.999Z</time></trkpt><trkpt lat="42.73444450884914" lon="11.955323407429551"><ele>524.0</ele><time>2026-03-22T15:43:15.999Z</time></trkpt><trkpt lat="42.734484772003704" lon="11.955416971360139"><ele>524.1666666666666</ele><time>2026-03-22T15:43:16.999Z</time></trkpt><trkpt lat="42.734525142285726" lon="11.955510110593684"><ele>524.3333333333333</ele><time>2026-03-22T15:43:17.999Z</time></trkpt><trkpt lat="42.73455346363601" lon="11.9556183894047"><ele>524.5</ele><time>2026-03-22T15:43:18.999Z</time></trkpt><trkpt lat="42.73460630514683" lon="11.955707764677738"><ele>524.6666666666666</ele><time>2026-03-22T15:43:19.999Z</time></trkpt><trkpt lat="42.734642562378575" lon="11.955806186052598"><ele>524.8333333333334</ele><time>2026-03-22T15:43:20.999Z</time></trkpt><trkpt lat="42.73468178146607" lon="11.955897848801527"><ele>525.0</ele><time>2026-03-22T15:43:21.999Z</time></trkpt><trkpt lat="42.73472136844538" lon="11.95598790328436"><ele>525.3333333333334</ele><time>2026-03-22T15:43:22.999Z</time></trkpt><trkpt lat="42.73476585584154" lon="11.95607579268824"><ele>525.6666666666666</ele><time>2026-03-22T15:43:23.999Z</time></trkpt><trkpt lat="42.73480953806055" lon="11.956162706640686"><ele>526.0</ele><time>2026-03-22T15:43:24.999Z</time></trkpt><trkpt lat="42.73485372668035" lon="11.956255837254794"><ele>526.3333333333333</ele><time>2026-03-22T15:43:25.999Z</time></trkpt><trkpt lat="42.734898904697175" lon="11.956354207892085"><ele>526.6666666666666</ele><time>2026-03-22T15:43:26.999Z</time></trkpt><trkpt lat="42.73494498229339" lon="11.956453922295427"><ele>527.0</ele><time>2026-03-22T15:43:27.999Z</time></trkpt><trkpt lat="42.73499464487858" lon="11.956550957161244"><ele>527.0</ele><time>2026-03-22T15:43:28.999Z</time></trkpt><trkpt lat="42.73502935600129" lon="11.956659166377333"><ele>527.0</ele><time>2026-03-22T15:43:29.999Z</time></trkpt><trkpt lat="42.735075719497914" lon="11.956758151230366"><ele>527.0</ele><time>2026-03-22T15:43:30.999Z</time></trkpt><trkpt lat="42.735124908060754" lon="11.956859132222586"><ele>527.0</ele><time>2026-03-22T15:43:31.999Z</time></trkpt><trkpt lat="42.735176478107206" lon="11.956962355793335"><ele>527.0</ele><time>2026-03-22T15:43:32.999Z</time></trkpt><trkpt lat="42.73524211690804" lon="11.957049869202702"><ele>527.0</ele><time>2026-03-22T15:43:33.999Z</time></trkpt><trkpt lat="42.735286158631475" lon="11.957163193497584"><ele>527.2</ele><time>2026-03-22T15:43:34.999Z</time></trkpt><trkpt lat="42.73534867846043" lon="11.957261457810684"><ele>527.4000000000001</ele><time>2026-03-22T15:43:35.999Z</time></trkpt><trkpt lat="42.73542574954158" lon="11.957345728410871"><ele>527.5999999999999</ele><time>2026-03-22T15:43:36.999Z</time></trkpt><trkpt lat="42.73549566865338" lon="11.957442830972427"><ele>527.8</ele><time>2026-03-22T15:43:37.999Z</time></trkpt><trkpt lat="42.73556850236686" lon="11.95753808788876"><ele>528.0</ele><time>2026-03-22T15:43:38.999Z</time></trkpt><trkpt lat="42.73564619730201" lon="11.957628553658614"><ele>528.1666666666666</ele><time>2026-03-22T15:43:39.999Z</time></trkpt><trkpt lat="42.73572427865575" lon="11.957715886142818"><ele>528.3333333333334</ele><time>2026-03-22T15:43:40.999Z</time></trkpt><trkpt lat="42.73579993102545" lon="11.957795838141589"><ele>528.5</ele><time>2026-03-22T15:43:41.999Z</time></trkpt><trkpt lat="42.73587389993872" lon="11.957865405760979"><ele>528.6666666666667</ele><time>2026-03-22T15:43:42.999Z</time></trkpt><trkpt lat="42.7359437762493" lon="11.957928593237742"><ele>528.8333333333334</ele><time>2026-03-22T15:43:43.999Z</time></trkpt><trkpt lat="42.73601070930105" lon="11.957985065688474"><ele>529.0</ele><time>2026-03-22T15:43:44.999Z</time></trkpt><trkpt lat="42.7360766270552" lon="11.958037713190832"><ele>529.1666666666667</ele><time>2026-03-22T15:43:45.999Z</time></trkpt><trkpt lat="42.736144632171275" lon="11.95809159952104"><ele>529.3333333333334</ele><time>2026-03-22T15:43:46.999Z</time></trkpt><trkpt lat="42.73621849424782" lon="11.95814673203047"><ele>529.5</ele><time>2026-03-22T15:43:47.999Z</time></trkpt><trkpt lat="42.73629405887816" lon="11.95820657799771"><ele>529.6666666666666</ele><time>2026-03-22T15:43:48.999Z</time></trkpt><trkpt lat="42.736368961603745" lon="11.958271981241431"><ele>529.8333333333333</ele><time>2026-03-22T15:43:49.998Z</time></trkpt><trkpt lat="42.7364465142526" lon="11.95833787873029"><ele>530.0</ele><time>2026-03-22T15:43:50.998Z</time></trkpt><trkpt lat="42.736525404427134" lon="11.958403332696173"><ele>530.6</ele><time>2026-03-22T15:43:51.998Z</time></trkpt><trkpt lat="42.736604813800255" lon="11.958472551217412"><ele>531.2</ele><time>2026-03-22T15:43:52.998Z</time></trkpt><trkpt lat="42.736685635397514" lon="11.958545641316196"><ele>531.8</ele><time>2026-03-22T15:43:53.998Z</time></trkpt><trkpt lat="42.73676890549025" lon="11.958616822939259"><ele>532.4</ele><time>2026-03-22T15:43:54.998Z</time></trkpt><trkpt lat="42.73685354658274" lon="11.95868521368189"><ele>533.0</ele><time>2026-03-22T15:43:55.998Z</time></trkpt><trkpt lat="42.73693970667126" lon="11.958756415529852"><ele>533.0</ele><time>2026-03-22T15:43:56.998Z</time></trkpt><trkpt lat="42.73701566501496" lon="11.958853214796706"><ele>533.0</ele><time>2026-03-22T15:43:57.998Z</time></trkpt><trkpt lat="42.73711028072416" lon="11.958915986174706"><ele>533.0</ele><time>2026-03-22T15:43:58.998Z</time></trkpt><trkpt lat="42.73719347509849" lon="11.958998205203956"><ele>533.0</ele><time>2026-03-22T15:43:59.998Z</time></trkpt><trkpt lat="42.73727775341431" lon="11.959081944695859"><ele>533.0</ele><time>2026-03-22T15:44:00.998Z</time></trkpt><trkpt lat="42.73736235971442" lon="11.959163439900586"><ele>533.0</ele><time>2026-03-22T15:44:01.998Z</time></trkpt><trkpt lat="42.73743670764366" lon="11.959264012291737"><ele>533.0</ele><time>2026-03-22T15:44:02.998Z</time></trkpt><trkpt lat="42.737519705303455" lon="11.95934948607166"><ele>533.0</ele><time>2026-03-22T15:44:03.998Z</time></trkpt><trkpt lat="42.737603636147625" lon="11.959435920907119"><ele>533.0</ele><time>2026-03-22T15:44:04.998Z</time></trkpt><trkpt lat="42.73768665731422" lon="11.959521418847235"><ele>533.0</ele><time>2026-03-22T15:44:05.998Z</time></trkpt><trkpt lat="42.73776919388995" lon="11.959606417783489"><ele>533.1999999999999</ele><time>2026-03-22T15:44:06.998Z</time></trkpt><trkpt lat="42.737850104442686" lon="11.959688160480905"><ele>533.4</ele><time>2026-03-22T15:44:07.998Z</time></trkpt><trkpt lat="42.73792945313066" lon="11.959768154856613"><ele>533.5999999999999</ele><time>2026-03-22T15:44:08.998Z</time></trkpt><trkpt lat="42.73801903624538" lon="11.959835684795534"><ele>533.8</ele><time>2026-03-22T15:44:09.998Z</time></trkpt><trkpt lat="42.73809327068569" lon="11.959934065026088"><ele>534.0</ele><time>2026-03-22T15:44:10.998Z</time></trkpt><trkpt lat="42.73814406968118" lon="11.960058181803339"><ele>534.4</ele><time>2026-03-22T15:44:11.998Z</time></trkpt><trkpt lat="42.73818886913694" lon="11.960182698894585"><ele>534.8</ele><time>2026-03-22T15:44:12.998Z</time></trkpt><trkpt lat="42.73822862327517" lon="11.960315980048016"><ele>535.2</ele><time>2026-03-22T15:44:13.998Z</time></trkpt><trkpt lat="42.738267191887516" lon="11.960455473133784"><ele>535.6</ele><time>2026-03-22T15:44:14.998Z</time></trkpt><trkpt lat="42.738305474299196" lon="11.960593931075316"><ele>536.0</ele><time>2026-03-22T15:44:15.998Z</time></trkpt><trkpt lat="42.73834472502531" lon="11.960735891308817"><ele>536.25</ele><time>2026-03-22T15:44:16.998Z</time></trkpt><trkpt lat="42.73838461043074" lon="11.960879459081905"><ele>536.5</ele><time>2026-03-22T15:44:17.998Z</time></trkpt><trkpt lat="42.738425812969254" lon="11.961022991499075"><ele>536.75</ele><time>2026-03-22T15:44:18.998Z</time></trkpt><trkpt lat="42.73846844097513" lon="11.961169233958115"><ele>537.0</ele><time>2026-03-22T15:44:19.998Z</time></trkpt><trkpt lat="42.738511213129065" lon="11.96131453697567"><ele>537.2</ele><time>2026-03-22T15:44:20.998Z</time></trkpt><trkpt lat="42.73855246268401" lon="11.961459160492812"><ele>537.4000000000001</ele><time>2026-03-22T15:44:21.998Z</time></trkpt><trkpt lat="42.7385936736823" lon="11.961603648645339"><ele>537.5999999999999</ele><time>2026-03-22T15:44:22.998Z</time></trkpt><trkpt lat="42.73863408560841" lon="11.961745335303522"><ele>537.8</ele><time>2026-03-22T15:44:23.998Z</time></trkpt><trkpt lat="42.73867332333031" lon="11.96188203968946"><ele>538.0</ele><time>2026-03-22T15:44:24.998Z</time></trkpt><trkpt lat="42.73871109838246" lon="11.962013565784149"><ele>538.1666666666667</ele><time>2026-03-22T15:44:25.998Z</time></trkpt><trkpt lat="42.73874531883587" lon="11.962135725497829"><ele>538.3333333333334</ele><time>2026-03-22T15:44:26.998Z</time></trkpt><trkpt lat="42.73877651283481" lon="11.962250950915827"><ele>538.5</ele><time>2026-03-22T15:44:27.998Z</time></trkpt><trkpt lat="42.73880437278588" lon="11.962353859264857"><ele>538.6666666666666</ele><time>2026-03-22T15:44:28.998Z</time></trkpt><trkpt lat="42.73882850959612" lon="11.96244301071371"><ele>538.8333333333333</ele><time>2026-03-22T15:44:29.998Z</time></trkpt><trkpt lat="42.738865028356166" lon="11.96257789599412"><ele>539.0</ele><time>2026-03-22T15:44:31.998Z</time></trkpt><trkpt lat="42.738890301258856" lon="11.962671243702589"><ele>539.0</ele><time>2026-03-22T15:44:33.998Z</time></trkpt><trkpt lat="42.739058963082506" lon="11.962684555868977"><ele>539.0</ele><time>2026-03-22T15:44:37.998Z</time></trkpt><trkpt lat="42.739129938840115" lon="11.9626683798302"><ele>539.0</ele><time>2026-03-22T15:44:38.998Z</time></trkpt><trkpt lat="42.73920443694864" lon="11.96263798295128"><ele>539.0</ele><time>2026-03-22T15:44:39.998Z</time></trkpt><trkpt lat="42.73928962979669" lon="11.962595404344276"><ele>539.0</ele><time>2026-03-22T15:44:40.998Z</time></trkpt><trkpt lat="42.73937151397196" lon="11.9625487108098"><ele>539.2</ele><time>2026-03-22T15:44:41.998Z</time></trkpt><trkpt lat="42.73945792373573" lon="11.962501252222205"><ele>539.4</ele><time>2026-03-22T15:44:42.998Z</time></trkpt><trkpt lat="42.73954984520191" lon="11.962450197005541"><ele>539.6</ele><time>2026-03-22T15:44:43.998Z</time></trkpt><trkpt lat="42.73964544367332" lon="11.96239829401649"><ele>539.8</ele><time>2026-03-22T15:44:44.999Z</time></trkpt><trkpt lat="42.739744107926285" lon="11.962344120614947"><ele>540.0</ele><time>2026-03-22T15:44:45.999Z</time></trkpt><trkpt lat="42.73984637547223" lon="11.962289752881489"><ele>540.0</ele><time>2026-03-22T15:44:46.999Z</time></trkpt><trkpt lat="42.739951897261285" lon="11.962233454292576"><ele>540.0</ele><time>2026-03-22T15:44:47.999Z</time></trkpt><trkpt lat="42.7400619942335" lon="11.962177053965384"><ele>540.0</ele><time>2026-03-22T15:44:48.999Z</time></trkpt><trkpt lat="42.74017327553629" lon="11.9621204078474"><ele>540.0</ele><time>2026-03-22T15:44:49.999Z</time></trkpt><trkpt lat="42.740286681196196" lon="11.962062221744416"><ele>539.75</ele><time>2026-03-22T15:44:50.999Z</time></trkpt><trkpt lat="42.74039815311122" lon="11.962007264963853"><ele>539.5</ele><time>2026-03-22T15:44:51.999Z</time></trkpt><trkpt lat="42.74050970899098" lon="11.961953891719384"><ele>539.25</ele><time>2026-03-22T15:44:52.999Z</time></trkpt><trkpt lat="42.74062277375475" lon="11.961897912467053"><ele>539.0</ele><time>2026-03-22T15:44:53.999Z</time></trkpt><trkpt lat="42.74073896394044" lon="11.961837854871302"><ele>539.0</ele><time>2026-03-22T15:44:54.999Z</time></trkpt><trkpt lat="42.74085558446937" lon="11.961779922385523"><ele>539.0</ele><time>2026-03-22T15:44:55.999Z</time></trkpt><trkpt lat="42.74097414761476" lon="11.961717907786703"><ele>539.0</ele><time>2026-03-22T15:44:56.999Z</time></trkpt><trkpt lat="42.741093320950526" lon="11.961655272249104"><ele>539.0</ele><time>2026-03-22T15:44:57.999Z</time></trkpt><trkpt lat="42.74121444688282" lon="11.961591459011974"><ele>539.25</ele><time>2026-03-22T15:44:58.999Z</time></trkpt><trkpt lat="42.74133768238137" lon="11.961529654057802"><ele>539.5</ele><time>2026-03-22T15:44:59.999Z</time></trkpt><trkpt lat="42.74146133670341" lon="11.961471120319644"><ele>539.75</ele><time>2026-03-22T15:45:00.999Z</time></trkpt><trkpt lat="42.74158330148801" lon="11.961410547286095"><ele>540.0</ele><time>2026-03-22T15:45:01.999Z</time></trkpt><trkpt lat="42.74170733863768" lon="11.961347822617899"><ele>540.0</ele><time>2026-03-22T15:45:02.999Z</time></trkpt><trkpt lat="42.74183075023902" lon="11.96128516798665"><ele>540.0</ele><time>2026-03-22T15:45:03.999Z</time></trkpt><trkpt lat="42.74195703929845" lon="11.96122104637807"><ele>540.0</ele><time>2026-03-22T15:45:04.999Z</time></trkpt><trkpt lat="42.74208316274452" lon="11.961158037820534"><ele>540.0</ele><time>2026-03-22T15:45:05.999Z</time></trkpt><trkpt lat="42.742212319285066" lon="11.961094648810928"><ele>540.0</ele><time>2026-03-22T15:45:06.999Z</time></trkpt><trkpt lat="42.742340615548024" lon="11.961030997734923"><ele>540.0</ele><time>2026-03-22T15:45:07.999Z</time></trkpt><trkpt lat="42.74246919362151" lon="11.960966029390184"><ele>540.0</ele><time>2026-03-22T15:45:08.999Z</time></trkpt><trkpt lat="42.74259692271961" lon="11.960902014890735"><ele>540.0</ele><time>2026-03-22T15:45:09.999Z</time></trkpt><trkpt lat="42.742727619286384" lon="11.96083699248338"><ele>540.0</ele><time>2026-03-22T15:45:10.999Z</time></trkpt><trkpt lat="42.742855021013945" lon="11.960771888012802"><ele>540.0</ele><time>2026-03-22T15:45:11.999Z</time></trkpt><trkpt lat="42.742982079209504" lon="11.960708203066932"><ele>540.0</ele><time>2026-03-22T15:45:12.999Z</time></trkpt><trkpt lat="42.7431107142183" lon="11.960642842105608"><ele>540.0</ele><time>2026-03-22T15:45:13.999Z</time></trkpt><trkpt lat="42.74323704025286" lon="11.960578822470351"><ele>540.0</ele><time>2026-03-22T15:45:14.999Z</time></trkpt><trkpt lat="42.743366755476146" lon="11.960518729148943"><ele>540.0</ele><time>2026-03-22T15:45:15.999Z</time></trkpt><trkpt lat="42.74349731016846" lon="11.96045745360136"><ele>540.0</ele><time>2026-03-22T15:45:16.999Z</time></trkpt><trkpt lat="42.743628066339475" lon="11.960394704401486"><ele>540.0</ele><time>2026-03-22T15:45:17.999Z</time></trkpt><trkpt lat="42.74375963384092" lon="11.960329910779768"><ele>540.0</ele><time>2026-03-22T15:45:18.999Z</time></trkpt><trkpt lat="42.743892229363944" lon="11.96026485404397"><ele>540.0</ele><time>2026-03-22T15:45:19.999Z</time></trkpt><trkpt lat="42.744025244248654" lon="11.960199783465908"><ele>540.0</ele><time>2026-03-22T15:45:20.999Z</time></trkpt><trkpt lat="42.744158291914324" lon="11.96013205243015"><ele>540.0</ele><time>2026-03-22T15:45:21.999Z</time></trkpt><trkpt lat="42.74429066445242" lon="11.960058756815455"><ele>539.5</ele><time>2026-03-22T15:45:22.999Z</time></trkpt><trkpt lat="42.744423950781744" lon="11.95998506687299"><ele>539.0</ele><time>2026-03-22T15:45:23.999Z</time></trkpt><trkpt lat="42.74455927156719" lon="11.959915066651625"><ele>538.5</ele><time>2026-03-22T15:45:24.999Z</time></trkpt><trkpt lat="42.74469759042142" lon="11.959846717818074"><ele>538.0</ele><time>2026-03-22T15:45:25.999Z</time></trkpt><trkpt lat="42.74483581656978" lon="11.959776440689168"><ele>538.0</ele><time>2026-03-22T15:45:26.999Z</time></trkpt><trkpt lat="42.74497463918342" lon="11.959704227239149"><ele>538.0</ele><time>2026-03-22T15:45:27.999Z</time></trkpt><trkpt lat="42.745113651926495" lon="11.959630003561578"><ele>538.0</ele><time>2026-03-22T15:45:28.999Z</time></trkpt><trkpt lat="42.74525093513884" lon="11.95955632324005"><ele>538.0</ele><time>2026-03-22T15:45:29.999Z</time></trkpt><trkpt lat="42.74539030906205" lon="11.959485152763538"><ele>538.25</ele><time>2026-03-22T15:45:30.999Z</time></trkpt><trkpt lat="42.74552620666189" lon="11.959421370421559"><ele>538.5</ele><time>2026-03-22T15:45:31.999Z</time></trkpt><trkpt lat="42.7456564238965" lon="11.959358851329256"><ele>538.75</ele><time>2026-03-22T15:45:32.999Z</time></trkpt><trkpt lat="42.74578460661125" lon="11.959293601128376"><ele>539.0</ele><time>2026-03-22T15:45:33.999Z</time></trkpt><trkpt lat="42.7459122199593" lon="11.959221459623357"><ele>539.0</ele><time>2026-03-22T15:45:34.999Z</time></trkpt><trkpt lat="42.746039427875075" lon="11.959148587231223"><ele>539.0</ele><time>2026-03-22T15:45:35.999Z</time></trkpt><trkpt lat="42.746168987802484" lon="11.95907294643987"><ele>539.0</ele><time>2026-03-22T15:45:36.999Z</time></trkpt><trkpt lat="42.746299044388316" lon="11.958995722968147"><ele>539.0</ele><time>2026-03-22T15:45:37.999Z</time></trkpt><trkpt lat="42.74642745026567" lon="11.95891539570664"><ele>538.0</ele><time>2026-03-22T15:45:38.999Z</time></trkpt><trkpt lat="42.746556250204975" lon="11.95883354376867"><ele>537.0</ele><time>2026-03-22T15:45:39.999Z</time></trkpt><trkpt lat="42.746686544251276" lon="11.958751711767766"><ele>536.0</ele><time>2026-03-22T15:45:40.999Z</time></trkpt><trkpt lat="42.74681748426402" lon="11.958666457043014"><ele>535.0</ele><time>2026-03-22T15:45:41.999Z</time></trkpt><trkpt lat="42.74694676681032" lon="11.958584288828192"><ele>534.25</ele><time>2026-03-22T15:45:42.999Z</time></trkpt><trkpt lat="42.747079043679506" lon="11.958500215181983"><ele>533.5</ele><time>2026-03-22T15:45:43.999Z</time></trkpt><trkpt lat="42.74721088459952" lon="11.958412809013485"><ele>532.75</ele><time>2026-03-22T15:45:44.999Z</time></trkpt><trkpt lat="42.74734558530356" lon="11.958329813463823"><ele>532.0</ele><time>2026-03-22T15:45:45.999Z</time></trkpt><trkpt lat="42.74748078166337" lon="11.95824120583877"><ele>532.0</ele><time>2026-03-22T15:45:46.999Z</time></trkpt><trkpt lat="42.74761638040883" lon="11.95815497611864"><ele>532.0</ele><time>2026-03-22T15:45:47.999Z</time></trkpt><trkpt lat="42.74775606384096" lon="11.958067588541855"><ele>532.0</ele><time>2026-03-22T15:45:48.999Z</time></trkpt><trkpt lat="42.747893625973475" lon="11.957971628140589"><ele>531.0</ele><time>2026-03-22T15:45:49.999Z</time></trkpt><trkpt lat="42.7480371587233" lon="11.957880183305049"><ele>530.0</ele><time>2026-03-22T15:45:50.999Z</time></trkpt><trkpt lat="42.748175520172445" lon="11.957790615475478"><ele>529.0</ele><time>2026-03-22T15:45:51.999Z</time></trkpt><trkpt lat="42.748312183327265" lon="11.957707597622198"><ele>529.0</ele><time>2026-03-22T15:45:52.999Z</time></trkpt><trkpt lat="42.748452026461734" lon="11.957627209676211"><ele>529.0</ele><time>2026-03-22T15:45:53.999Z</time></trkpt><trkpt lat="42.74859371651198" lon="11.95755613036907"><ele>529.0</ele><time>2026-03-22T15:45:54.999Z</time></trkpt><trkpt lat="42.748739985374215" lon="11.957493029611346"><ele>528.6666666666667</ele><time>2026-03-22T15:45:55.998Z</time></trkpt><trkpt lat="42.74888940412774" lon="11.957443615076201"><ele>528.3333333333334</ele><time>2026-03-22T15:45:56.998Z</time></trkpt><trkpt lat="42.74904266744819" lon="11.957405285474978"><ele>528.0</ele><time>2026-03-22T15:45:57.998Z</time></trkpt><trkpt lat="42.749195536565345" lon="11.957376822531861"><ele>528.0</ele><time>2026-03-22T15:45:58.998Z</time></trkpt><trkpt lat="42.749349404149825" lon="11.957357449033438"><ele>528.0</ele><time>2026-03-22T15:45:59.998Z</time></trkpt><trkpt lat="42.749503680191964" lon="11.957336256764659"><ele>528.0</ele><time>2026-03-22T15:46:00.998Z</time></trkpt><trkpt lat="42.749656630160885" lon="11.957316552763665"><ele>528.3333333333334</ele><time>2026-03-22T15:46:01.998Z</time></trkpt><trkpt lat="42.74981179392789" lon="11.95729751287936"><ele>528.6666666666667</ele><time>2026-03-22T15:46:02.998Z</time></trkpt><trkpt lat="42.749964854627954" lon="11.95727835058668"><ele>529.0</ele><time>2026-03-22T15:46:03.998Z</time></trkpt><trkpt lat="42.750117521987086" lon="11.957260934340336"><ele>530.6666666666667</ele><time>2026-03-22T15:46:04.998Z</time></trkpt><trkpt lat="42.750269366075" lon="11.95724235967666"><ele>532.3333333333334</ele><time>2026-03-22T15:46:05.998Z</time></trkpt><trkpt lat="42.75041943738984" lon="11.957221218979525"><ele>534.0</ele><time>2026-03-22T15:46:06.998Z</time></trkpt><trkpt lat="42.750565809555205" lon="11.957201138925084"><ele>534.0</ele><time>2026-03-22T15:46:07.998Z</time></trkpt><trkpt lat="42.750712189564325" lon="11.957180175094496"><ele>534.0</ele><time>2026-03-22T15:46:08.998Z</time></trkpt><trkpt lat="42.7508545176467" lon="11.957163985400824"><ele>534.0</ele><time>2026-03-22T15:46:09.998Z</time></trkpt><trkpt lat="42.750996082199" lon="11.957147921900402"><ele>534.0</ele><time>2026-03-22T15:46:10.998Z</time></trkpt><trkpt lat="42.751135249162296" lon="11.957130364592086"><ele>535.25</ele><time>2026-03-22T15:46:11.998Z</time></trkpt><trkpt lat="42.75126771415227" lon="11.957108232913878"><ele>536.5</ele><time>2026-03-22T15:46:12.998Z</time></trkpt><trkpt lat="42.75139374566572" lon="11.957077581864214"><ele>537.75</ele><time>2026-03-22T15:46:13.998Z</time></trkpt><trkpt lat="42.751509371955486" lon="11.95702916844576"><ele>539.0</ele><time>2026-03-22T15:46:14.998Z</time></trkpt><trkpt lat="42.75161567949013" lon="11.956963683442547"><ele>539.0</ele><time>2026-03-22T15:46:15.998Z</time></trkpt><trkpt lat="42.75170809583852" lon="11.956882825222959"><ele>539.0</ele><time>2026-03-22T15:46:16.998Z</time></trkpt><trkpt lat="42.75178297232592" lon="11.95678503241755"><ele>539.0</ele><time>2026-03-22T15:46:17.998Z</time></trkpt><trkpt lat="42.75185141912129" lon="11.956663871194598"><ele>539.0</ele><time>2026-03-22T15:46:18.998Z</time></trkpt><trkpt lat="42.751926935766654" lon="11.956520427505799"><ele>539.5</ele><time>2026-03-22T15:46:19.998Z</time></trkpt><trkpt lat="42.75201109115377" lon="11.956374628611618"><ele>540.0</ele><time>2026-03-22T15:46:20.998Z</time></trkpt><trkpt lat="42.75209600497068" lon="11.95622488480967"><ele>540.5</ele><time>2026-03-22T15:46:21.998Z</time></trkpt><trkpt lat="42.75217661743747" lon="11.956085000388523"><ele>541.0</ele><time>2026-03-22T15:46:22.998Z</time></trkpt><trkpt lat="42.75225864229451" lon="11.95591686656706"><ele>542.3333333333334</ele><time>2026-03-22T15:46:23.998Z</time></trkpt><trkpt lat="42.75234142239209" lon="11.955756634158847"><ele>543.6666666666666</ele><time>2026-03-22T15:46:24.998Z</time></trkpt><trkpt lat="42.75243245840039" lon="11.955586095021786"><ele>545.0</ele><time>2026-03-22T15:46:25.998Z</time></trkpt><trkpt lat="42.75251978444023" lon="11.9554185398736"><ele>545.0</ele><time>2026-03-22T15:46:26.998Z</time></trkpt><trkpt lat="42.75260296994804" lon="11.955258868742591"><ele>545.0</ele><time>2026-03-22T15:46:27.998Z</time></trkpt><trkpt lat="42.752686743959615" lon="11.955098217339305"><ele>545.0</ele><time>2026-03-22T15:46:28.998Z</time></trkpt><trkpt lat="42.75277684604149" lon="11.954882333847854"><ele>546.6666666666666</ele><time>2026-03-22T15:46:29.998Z</time></trkpt><trkpt lat="42.752864886018905" lon="11.954691351489666"><ele>548.3333333333334</ele><time>2026-03-22T15:46:30.998Z</time></trkpt><trkpt lat="42.75295153106962" lon="11.95450527279295"><ele>550.0</ele><time>2026-03-22T15:46:31.998Z</time></trkpt><trkpt lat="42.75303577401517" lon="11.954328855180277"><ele>551.3333333333334</ele><time>2026-03-22T15:46:32.998Z</time></trkpt><trkpt lat="42.753120749401376" lon="11.95415632744084"><ele>552.6666666666666</ele><time>2026-03-22T15:46:33.998Z</time></trkpt><trkpt lat="42.75320393746711" lon="11.95398524462365"><ele>554.0</ele><time>2026-03-22T15:46:34.998Z</time></trkpt><trkpt lat="42.753283604756575" lon="11.953816663797978"><ele>554.0</ele><time>2026-03-22T15:46:35.998Z</time></trkpt><trkpt lat="42.75336285217519" lon="11.953646306303604"><ele>554.0</ele><time>2026-03-22T15:46:36.998Z</time></trkpt><trkpt lat="42.75344365630392" lon="11.953483160628283"><ele>554.0</ele><time>2026-03-22T15:46:37.998Z</time></trkpt><trkpt lat="42.75352324011528" lon="11.953326929118065"><ele>554.0</ele><time>2026-03-22T15:46:38.998Z</time></trkpt><trkpt lat="42.75359698108476" lon="11.953166749037969"><ele>556.0</ele><time>2026-03-22T15:46:39.998Z</time></trkpt><trkpt lat="42.75367210898071" lon="11.953008137028233"><ele>558.0</ele><time>2026-03-22T15:46:40.998Z</time></trkpt><trkpt lat="42.75374977485863" lon="11.952847608434018"><ele>560.0</ele><time>2026-03-22T15:46:41.998Z</time></trkpt><trkpt lat="42.753821706383434" lon="11.952690611271617"><ele>562.0</ele><time>2026-03-22T15:46:42.998Z</time></trkpt><trkpt lat="42.753884201204365" lon="11.95252591130914"><ele>562.0</ele><time>2026-03-22T15:46:43.998Z</time></trkpt><trkpt lat="42.75392852705641" lon="11.952355280361765"><ele>562.0</ele><time>2026-03-22T15:46:44.998Z</time></trkpt><trkpt lat="42.75395335069469" lon="11.952181209859432"><ele>562.0</ele><time>2026-03-22T15:46:45.998Z</time></trkpt><trkpt lat="42.7539685696225" lon="11.95200145219204"><ele>562.0</ele><time>2026-03-22T15:46:46.998Z</time></trkpt><trkpt lat="42.75398401686642" lon="11.95181212908643"><ele>561.75</ele><time>2026-03-22T15:46:47.998Z</time></trkpt><trkpt lat="42.754001926951126" lon="11.951627459587934"><ele>561.5</ele><time>2026-03-22T15:46:48.998Z</time></trkpt><trkpt lat="42.7540296644586" lon="11.951441031262679"><ele>561.25</ele><time>2026-03-22T15:46:49.998Z</time></trkpt><trkpt lat="42.7540519295249" lon="11.95125337023533"><ele>561.0</ele><time>2026-03-22T15:46:50.999Z</time></trkpt><trkpt lat="42.75406595340848" lon="11.95106355660954"><ele>561.5</ele><time>2026-03-22T15:46:51.999Z</time></trkpt><trkpt lat="42.75406528082303" lon="11.950873216582126"><ele>562.0</ele><time>2026-03-22T15:46:52.999Z</time></trkpt><trkpt lat="42.75405865152384" lon="11.950686557564502"><ele>562.5</ele><time>2026-03-22T15:46:53.999Z</time></trkpt><trkpt lat="42.75404950552876" lon="11.950505069033275"><ele>563.0</ele><time>2026-03-22T15:46:54.999Z</time></trkpt><trkpt lat="42.754056746842146" lon="11.950317142414004"><ele>563.0</ele><time>2026-03-22T15:46:55.999Z</time></trkpt><trkpt lat="42.75406752973026" lon="11.950129125504562"><ele>563.0</ele><time>2026-03-22T15:46:56.999Z</time></trkpt><trkpt lat="42.75408339589482" lon="11.949944965752241"><ele>563.0</ele><time>2026-03-22T15:46:57.999Z</time></trkpt><trkpt lat="42.754099130201595" lon="11.949763212158711"><ele>563.0</ele><time>2026-03-22T15:46:58.999Z</time></trkpt><trkpt lat="42.75410992142328" lon="11.949579371771897"><ele>563.0</ele><time>2026-03-22T15:46:59.999Z</time></trkpt><trkpt lat="42.75412199699624" lon="11.949400913473125"><ele>563.0</ele><time>2026-03-22T15:47:00.999Z</time></trkpt><trkpt lat="42.75413266390668" lon="11.949218750090374"><ele>563.0</ele><time>2026-03-22T15:47:01.999Z</time></trkpt><trkpt lat="42.754144969554225" lon="11.949042448751063"><ele>563.0</ele><time>2026-03-22T15:47:02.999Z</time></trkpt><trkpt lat="42.7541548969413" lon="11.948869996381154"><ele>563.0</ele><time>2026-03-22T15:47:03.999Z</time></trkpt><trkpt lat="42.75416530818006" lon="11.94870248106644"><ele>563.0</ele><time>2026-03-22T15:47:04.999Z</time></trkpt><trkpt lat="42.754181282547535" lon="11.948542899354939"><ele>563.0</ele><time>2026-03-22T15:47:05.999Z</time></trkpt><trkpt lat="42.75421412289778" lon="11.948390903091797"><ele>563.0</ele><time>2026-03-22T15:47:06.999Z</time></trkpt><trkpt lat="42.75424013325346" lon="11.948246086400765"><ele>563.5</ele><time>2026-03-22T15:47:07.999Z</time></trkpt><trkpt lat="42.75429398860585" lon="11.948113482767122"><ele>564.0</ele><time>2026-03-22T15:47:08.999Z</time></trkpt><trkpt lat="42.75436199712264" lon="11.947996277784709"><ele>564.5</ele><time>2026-03-22T15:47:09.999Z</time></trkpt><trkpt lat="42.754433010716866" lon="11.94790022764415"><ele>565.0</ele><time>2026-03-22T15:47:10.999Z</time></trkpt><trkpt lat="42.75453457489103" lon="11.947778779281524"><ele>566.25</ele><time>2026-03-22T15:47:11.999Z</time></trkpt><trkpt lat="42.75462997137812" lon="11.947668194568648"><ele>567.5</ele><time>2026-03-22T15:47:12.999Z</time></trkpt><trkpt lat="42.75471471296618" lon="11.947568388333139"><ele>568.75</ele><time>2026-03-22T15:47:13.999Z</time></trkpt><trkpt lat="42.754798618678265" lon="11.947469196152761"><ele>570.0</ele><time>2026-03-22T15:47:14.999Z</time></trkpt><trkpt lat="42.754897119892455" lon="11.94737174905091"><ele>570.8</ele><time>2026-03-22T15:47:15.999Z</time></trkpt><trkpt lat="42.754981112171954" lon="11.947275747036752"><ele>571.6</ele><time>2026-03-22T15:47:16.999Z</time></trkpt><trkpt lat="42.75505713178888" lon="11.947190113807022"><ele>572.4</ele><time>2026-03-22T15:47:17.999Z</time></trkpt><trkpt lat="42.755125546504395" lon="11.947109286738366"><ele>573.2</ele><time>2026-03-22T15:47:18.999Z</time></trkpt><trkpt lat="42.75518947247356" lon="11.94702385239993"><ele>574.0</ele><time>2026-03-22T15:47:19.999Z</time></trkpt><trkpt lat="42.755243098906774" lon="11.946926156119822"><ele>575.3333333333334</ele><time>2026-03-22T15:47:20.999Z</time></trkpt><trkpt lat="42.755280498667865" lon="11.946824202160268"><ele>576.6666666666667</ele><time>2026-03-22T15:47:21.999Z</time></trkpt><trkpt lat="42.75530037169084" lon="11.946711633706018"><ele>578.0</ele><time>2026-03-22T15:47:22.999Z</time></trkpt><trkpt lat="42.755309764257866" lon="11.94660761834547"><ele>579.3333333333334</ele><time>2026-03-22T15:47:23.999Z</time></trkpt><trkpt lat="42.7553123919192" lon="11.946510256531319"><ele>580.6666666666666</ele><time>2026-03-22T15:47:24.999Z</time></trkpt><trkpt lat="42.75530918151535" lon="11.946351929949325"><ele>582.0</ele><time>2026-03-22T15:47:26.999Z</time></trkpt><trkpt lat="42.75531264224371" lon="11.94620399347194"><ele>582.0</ele><time>2026-03-22T15:47:28.999Z</time></trkpt><trkpt lat="42.75529817296303" lon="11.946068445518081"><ele>582.0</ele><time>2026-03-22T15:47:30.999Z</time></trkpt><trkpt lat="42.755268598189595" lon="11.945943337187487"><ele>582.0</ele><time>2026-03-22T15:47:32.999Z</time></trkpt><trkpt lat="42.75515865344551" lon="11.945872134263977"><ele>582.0</ele><time>2026-03-22T15:47:34.999Z</time></trkpt><trkpt lat="42.75509647632184" lon="11.945791750872315"><ele>582.0</ele><time>2026-03-22T15:47:36.999Z</time></trkpt><trkpt lat="42.755021715788004" lon="11.945720944131285"><ele>581.8000000000001</ele><time>2026-03-22T15:47:38.999Z</time></trkpt><trkpt lat="42.75496495254047" lon="11.94558964042251"><ele>581.6</ele><time>2026-03-22T15:47:40.999Z</time></trkpt><trkpt lat="42.75490208555412" lon="11.94549538668581"><ele>581.4000000000001</ele><time>2026-03-22T15:47:42.999Z</time></trkpt><trkpt lat="42.7548339907031" lon="11.945356829332272"><ele>581.2</ele><time>2026-03-22T15:47:44.999Z</time></trkpt><trkpt lat="42.75478517537549" lon="11.94523290568963"><ele>581.0</ele><time>2026-03-22T15:47:46.999Z</time></trkpt><trkpt lat="42.75476033739451" lon="11.94507989618242"><ele>582.3333333333333</ele><time>2026-03-22T15:47:48.999Z</time></trkpt><trkpt lat="42.75474471164329" lon="11.944939886608065"><ele>583.6666666666666</ele><time>2026-03-22T15:47:50.999Z</time></trkpt><trkpt lat="42.75473515263145" lon="11.94484600796246"><ele>585.0</ele><time>2026-03-22T15:47:52.999Z</time></trkpt><trkpt lat="42.75469659391913" lon="11.944768794818456"><ele>586.3333333333334</ele><time>2026-03-22T15:47:54.999Z</time></trkpt><trkpt lat="42.75468778259794" lon="11.94464761909035"><ele>587.6666666666667</ele><time>2026-03-22T15:47:56.999Z</time></trkpt><trkpt lat="42.754678015042415" lon="11.94452796230134"><ele>589.0</ele><time>2026-03-22T15:47:58.999Z</time></trkpt><trkpt lat="42.75467515029849" lon="11.944392454218722"><ele>589.0</ele><time>2026-03-22T15:48:00.999Z</time></trkpt><trkpt lat="42.754683306545566" lon="11.94424380353143"><ele>589.0</ele><time>2026-03-22T15:48:03.999Z</time></trkpt><trkpt lat="42.75472528822148" lon="11.944109847462503"><ele>589.0</ele><time>2026-03-22T15:48:05.998Z</time></trkpt><trkpt lat="42.75478551800931" lon="11.944018192626132"><ele>589.0</ele><time>2026-03-22T15:48:06.998Z</time></trkpt><trkpt lat="42.75487725051092" lon="11.943910377097831"><ele>589.0</ele><time>2026-03-22T15:48:08.998Z</time></trkpt><trkpt lat="42.75495137202337" lon="11.943808375532694"><ele>588.8</ele><time>2026-03-22T15:48:10.998Z</time></trkpt><trkpt lat="42.75501652629065" lon="11.943717578848918"><ele>588.5999999999999</ele><time>2026-03-22T15:48:12.998Z</time></trkpt><trkpt lat="42.75509469867211" lon="11.943616447996895"><ele>588.4</ele><time>2026-03-22T15:48:14.998Z</time></trkpt><trkpt lat="42.7551409407218" lon="11.943556938871073"><ele>588.1999999999999</ele><time>2026-03-22T15:48:15.998Z</time></trkpt><trkpt lat="42.75521873739367" lon="11.943456668536435"><ele>588.0</ele><time>2026-03-22T15:48:17.998Z</time></trkpt><trkpt lat="42.755280356255355" lon="11.943377249405128"><ele>588.5</ele><time>2026-03-22T15:48:19.998Z</time></trkpt><trkpt lat="42.75532759921411" lon="11.94330401982763"><ele>589.0</ele><time>2026-03-22T15:48:24.998Z</time></trkpt><trkpt lat="42.75549634518958" lon="11.94325612195268"><ele>589.5</ele><time>2026-03-22T15:49:00.999Z</time></trkpt><trkpt lat="42.75544029872148" lon="11.943296684797991"><ele>590.0</ele><time>2026-03-22T15:52:55.998Z</time></trkpt><trkpt lat="42.755454077899245" lon="11.94338789965234"><ele>590.5</ele><time>2026-03-22T15:53:06.998Z</time></trkpt><trkpt lat="42.75547835977213" lon="11.943472790737829"><ele>591.0</ele><time>2026-03-22T15:53:18Z</time></trkpt><trkpt lat="42.755519148515205" lon="11.943539358661202"><ele>591.0</ele><time>2026-03-22T15:53:29.999Z</time></trkpt><trkpt lat="42.75558250896822" lon="11.943558022397541"><ele>591.0</ele><time>2026-03-22T15:53:43.999Z</time></trkpt><trkpt lat="42.75562486502222" lon="11.943625205403523"><ele>591.0</ele><time>2026-03-22T15:53:58.999Z</time></trkpt><trkpt lat="42.75562177212983" lon="11.943727525922652"><ele>591.0</ele><time>2026-03-22T15:54:40.998Z</time></trkpt><trkpt lat="42.75558970389408" lon="11.94381244811667"><ele>591.0</ele><time>2026-03-22T15:54:52.998Z</time></trkpt><trkpt lat="42.75554130407016" lon="11.943874294602512"><ele>591.0</ele><time>2026-03-22T15:55:01.998Z</time></trkpt><trkpt lat="42.75549430605146" lon="11.943938384586684"><ele>591.0</ele><time>2026-03-22T15:55:10.998Z</time></trkpt><trkpt lat="42.755457293047286" lon="11.944010027722664"><ele>591.0</ele><time>2026-03-22T15:55:26Z</time></trkpt><trkpt lat="42.755409586935464" lon="11.944070871101585"><ele>591.0</ele><time>2026-03-22T15:56:07.999Z</time></trkpt><trkpt lat="42.75536953587413" lon="11.94414051030381"><ele>591.0</ele><time>2026-03-22T15:56:14.999Z</time></trkpt><trkpt lat="42.75533136238042" lon="11.944225377491259"><ele>591.0</ele><time>2026-03-22T15:56:21.999Z</time></trkpt><trkpt lat="42.75529094955796" lon="11.944305935251052"><ele>591.0</ele><time>2026-03-22T15:56:27.999Z</time></trkpt><trkpt lat="42.755244771214734" lon="11.944365738830234"><ele>591.0</ele><time>2026-03-22T15:56:35.999Z</time></trkpt><trkpt lat="42.75527592607017" lon="11.944442268061694"><ele>591.0</ele><time>2026-03-22T15:57:13.998Z</time></trkpt><trkpt lat="42.75522059316635" lon="11.944497478336444"><ele>591.3333333333334</ele><time>2026-03-22T15:57:32Z</time></trkpt><trkpt lat="42.75524299166185" lon="11.944598967229446"><ele>591.6666666666666</ele><time>2026-03-22T15:57:39Z</time></trkpt><trkpt lat="42.755210683291764" lon="11.944497533479328"><ele>592.0</ele><time>2026-03-22T15:57:59Z</time></trkpt><trkpt lat="42.75525122157611" lon="11.944678367480709"><ele>592.3333333333333</ele><time>2026-03-22T15:58:17.999Z</time></trkpt><trkpt lat="42.75519449696901" lon="11.944620818041502"><ele>592.6666666666666</ele><time>2026-03-22T15:58:51.999Z</time></trkpt><trkpt lat="42.75516663890904" lon="11.944717859976228"><ele>593.0</ele><time>2026-03-22T16:01:38.998Z</time></trkpt><trkpt lat="42.75511527186309" lon="11.94463395639858"><ele>593.0</ele><time>2026-03-22T16:01:46.999Z</time></trkpt><trkpt lat="42.75515098479847" lon="11.944466095194342"><ele>593.0</ele><time>2026-03-22T16:01:47.999Z</time></trkpt><trkpt lat="42.75519521653005" lon="11.944593823319325"><ele>593.0</ele><time>2026-03-22T16:01:48.999Z</time></trkpt><trkpt lat="42.755207001063496" lon="11.944679036157988"><ele>593.0</ele><time>2026-03-22T16:05:11.999Z</time></trkpt><trkpt lat="42.75532233454406" lon="11.944739057631455"><ele>593.0</ele><time>2026-03-22T16:05:29.998Z</time></trkpt><trkpt lat="42.75528300052564" lon="11.944670714361356"><ele>592.9999999999999</ele><time>2026-03-22T16:05:42.998Z</time></trkpt><trkpt lat="42.75528534172506" lon="11.944582122189288"><ele>593.0</ele><time>2026-03-22T16:06:34Z</time></trkpt><trkpt lat="42.755269399086" lon="11.944485340952822"><ele>593.0</ele><time>2026-03-22T16:06:41.999Z</time></trkpt><trkpt lat="42.755272456279734" lon="11.944396588933342"><ele>593.0</ele><time>2026-03-22T16:07:41.999Z</time></trkpt><trkpt lat="42.755310996383116" lon="11.944317122822701"><ele>593.0</ele><time>2026-03-22T16:08:17Z</time></trkpt><trkpt lat="42.755339343987686" lon="11.944232577686549"><ele>592.9999999999999</ele><time>2026-03-22T16:08:35Z</time></trkpt><trkpt lat="42.75535750722244" lon="11.944149924028864"><ele>593.0</ele><time>2026-03-22T16:08:42Z</time></trkpt><trkpt lat="42.75539954719782" lon="11.94408435955722"><ele>592.7142857142857</ele><time>2026-03-22T16:08:47.999Z</time></trkpt><trkpt lat="42.75541673528195" lon="11.943998088534183"><ele>592.4285714285714</ele><time>2026-03-22T16:09:18.999Z</time></trkpt><trkpt lat="42.75545231708251" lon="11.943923685194582"><ele>592.1428571428571</ele><time>2026-03-22T16:09:27.999Z</time></trkpt><trkpt lat="42.75551262043657" lon="11.943885862253559"><ele>591.8571428571429</ele><time>2026-03-22T16:09:42.999Z</time></trkpt><trkpt lat="42.75557376072917" lon="11.943842891381975"><ele>591.5714285714286</ele><time>2026-03-22T16:10:04Z</time></trkpt><trkpt lat="42.75561533758201" lon="11.943760633943086"><ele>591.2857142857142</ele><time>2026-03-22T16:10:33Z</time></trkpt><trkpt lat="42.75560553472019" lon="11.943674305079695"><ele>591.0</ele><time>2026-03-22T16:11:59.998Z</time></trkpt><trkpt lat="42.75556450194915" lon="11.943606031522053"><ele>591.0</ele><time>2026-03-22T16:12:39Z</time></trkpt><trkpt lat="42.75548544876572" lon="11.943467861456108"><ele>591.0</ele><time>2026-03-22T16:13:05.999Z</time></trkpt><trkpt lat="42.75543952778201" lon="11.943407197253634"><ele>591.0</ele><time>2026-03-22T16:13:16.999Z</time></trkpt><trkpt lat="42.755428398893834" lon="11.94330688521391"><ele>591.0</ele><time>2026-03-22T16:13:34.999Z</time></trkpt><trkpt lat="42.755465381036025" lon="11.94321982164096"><ele>591.0</ele><time>2026-03-22T16:16:56Z</time></trkpt><trkpt lat="42.75540963165739" lon="11.94317140242421"><ele>591.0</ele><time>2026-03-22T16:26:05.999Z</time></trkpt><trkpt lat="42.755346560127315" lon="11.943199576979564"><ele>590.4</ele><time>2026-03-22T16:26:07.999Z</time></trkpt><trkpt lat="42.75526810434441" lon="11.94328968985116"><ele>589.8</ele><time>2026-03-22T16:26:09.999Z</time></trkpt><trkpt lat="42.75522512576619" lon="11.943359587335237"><ele>589.1999999999999</ele><time>2026-03-22T16:26:10.999Z</time></trkpt><trkpt lat="42.75514839825561" lon="11.943491898677273"><ele>588.6</ele><time>2026-03-22T16:26:12.999Z</time></trkpt><trkpt lat="42.75505989253036" lon="11.943567810446078"><ele>588.0</ele><time>2026-03-22T16:26:14.999Z</time></trkpt><trkpt lat="42.75497465940825" lon="11.943676653602664"><ele>588.0</ele><time>2026-03-22T16:26:16.999Z</time></trkpt><trkpt lat="42.754892882015966" lon="11.94379271681962"><ele>588.0</ele><time>2026-03-22T16:26:18.999Z</time></trkpt><trkpt lat="42.75484731571042" lon="11.943852821700155"><ele>588.0</ele><time>2026-03-22T16:26:19.999Z</time></trkpt><trkpt lat="42.75476918676838" lon="11.9439520629647"><ele>588.0</ele><time>2026-03-22T16:26:21.999Z</time></trkpt><trkpt lat="42.754679955561855" lon="11.944051333896006"><ele>588.0</ele><time>2026-03-22T16:26:23.999Z</time></trkpt><trkpt lat="42.7546111363187" lon="11.94409646172296"><ele>588.0</ele><time>2026-03-22T16:26:24.999Z</time></trkpt><trkpt lat="42.7545145401589" lon="11.944196641099591"><ele>588.0</ele><time>2026-03-22T16:26:26.999Z</time></trkpt><trkpt lat="42.75445709028686" lon="11.944256222066935"><ele>588.0</ele><time>2026-03-22T16:26:27.999Z</time></trkpt><trkpt lat="42.754384078121596" lon="11.944331942604114"><ele>588.0</ele><time>2026-03-22T16:26:28.998Z</time></trkpt><trkpt lat="42.754311209040665" lon="11.944406772848"><ele>588.0</ele><time>2026-03-22T16:26:29.998Z</time></trkpt><trkpt lat="42.75425371995943" lon="11.944465783535033"><ele>588.0</ele><time>2026-03-22T16:26:30.998Z</time></trkpt><trkpt lat="42.754193053031734" lon="11.944528056174004"><ele>585.3333333333334</ele><time>2026-03-22T16:26:31.998Z</time></trkpt><trkpt lat="42.75413274617743" lon="11.944588264452731"><ele>582.6666666666666</ele><time>2026-03-22T16:26:32.998Z</time></trkpt><trkpt lat="42.75405484076806" lon="11.944664983014448"><ele>580.0</ele><time>2026-03-22T16:26:33.998Z</time></trkpt><trkpt lat="42.75399455385901" lon="11.944750950556555"><ele>577.3333333333333</ele><time>2026-03-22T16:26:34.998Z</time></trkpt><trkpt lat="42.75390946923462" lon="11.944808139905497"><ele>574.6666666666666</ele><time>2026-03-22T16:26:35.998Z</time></trkpt><trkpt lat="42.753838454377124" lon="11.944880031113565"><ele>572.0</ele><time>2026-03-22T16:26:36.998Z</time></trkpt><trkpt lat="42.75377926735498" lon="11.944941308415064"><ele>572.0</ele><time>2026-03-22T16:26:37.998Z</time></trkpt><trkpt lat="42.753717585247934" lon="11.945005311761218"><ele>572.0</ele><time>2026-03-22T16:26:38.998Z</time></trkpt><trkpt lat="42.753654529633664" lon="11.945070740300475"><ele>572.0</ele><time>2026-03-22T16:26:39.998Z</time></trkpt><trkpt lat="42.75359095118202" lon="11.945136711354285"><ele>572.0</ele><time>2026-03-22T16:26:41Z</time></trkpt><trkpt lat="42.75353708723885" lon="11.94521342611646"><ele>572.0</ele><time>2026-03-22T16:26:42Z</time></trkpt><trkpt lat="42.75347764651294" lon="11.945265767039503"><ele>572.0</ele><time>2026-03-22T16:26:43Z</time></trkpt><trkpt lat="42.753418719523616" lon="11.945322176590215"><ele>571.0</ele><time>2026-03-22T16:26:44Z</time></trkpt><trkpt lat="42.753353360229106" lon="11.945379881415711"><ele>570.0</ele><time>2026-03-22T16:26:45Z</time></trkpt><trkpt lat="42.75327970196467" lon="11.945460893494355"><ele>569.0</ele><time>2026-03-22T16:26:46Z</time></trkpt><trkpt lat="42.75321264976592" lon="11.945549409527496"><ele>568.0</ele><time>2026-03-22T16:26:47Z</time></trkpt><trkpt lat="42.75314131892278" lon="11.945610748530266"><ele>567.0</ele><time>2026-03-22T16:26:48Z</time></trkpt><trkpt lat="42.75307934844266" lon="11.945683140491218"><ele>566.0</ele><time>2026-03-22T16:26:49Z</time></trkpt><trkpt lat="42.75300680612502" lon="11.945742001227046"><ele>566.0</ele><time>2026-03-22T16:26:50Z</time></trkpt><trkpt lat="42.75294021646061" lon="11.945810188403337"><ele>566.0</ele><time>2026-03-22T16:26:51Z</time></trkpt><trkpt lat="42.752875296076134" lon="11.945876666252797"><ele>566.0</ele><time>2026-03-22T16:26:52Z</time></trkpt><trkpt lat="42.752810652056624" lon="11.945943378696475"><ele>566.0</ele><time>2026-03-22T16:26:53Z</time></trkpt><trkpt lat="42.75275801773201" lon="11.946008522567828"><ele>566.0</ele><time>2026-03-22T16:26:54Z</time></trkpt><trkpt lat="42.752688686665294" lon="11.946097202152401"><ele>566.0</ele><time>2026-03-22T16:26:56Z</time></trkpt><trkpt lat="42.75260768418704" lon="11.946113763005636"><ele>564.6</ele><time>2026-03-22T16:26:59Z</time></trkpt><trkpt lat="42.75260175044936" lon="11.946321494190002"><ele>563.2</ele><time>2026-03-22T16:27:02Z</time></trkpt><trkpt lat="42.752631065660196" lon="11.94648474378261"><ele>561.8</ele><time>2026-03-22T16:27:04Z</time></trkpt><trkpt lat="42.752638874016625" lon="11.946585433428062"><ele>560.4</ele><time>2026-03-22T16:27:05Z</time></trkpt><trkpt lat="42.75262626959718" lon="11.946673266233077"><ele>559.0</ele><time>2026-03-22T16:27:06Z</time></trkpt><trkpt lat="42.75261956707629" lon="11.946777370310553"><ele>558.8333333333334</ele><time>2026-03-22T16:27:07Z</time></trkpt><trkpt lat="42.752617115351974" lon="11.94689179690678"><ele>558.6666666666667</ele><time>2026-03-22T16:27:08Z</time></trkpt><trkpt lat="42.75262408147053" lon="11.94701135036633"><ele>558.5</ele><time>2026-03-22T16:27:09Z</time></trkpt><trkpt lat="42.75263925873826" lon="11.947124076735907"><ele>558.3333333333334</ele><time>2026-03-22T16:27:10Z</time></trkpt><trkpt lat="42.752661011116444" lon="11.94723174187779"><ele>558.1666666666666</ele><time>2026-03-22T16:27:11Z</time></trkpt><trkpt lat="42.752683264090756" lon="11.947340358200774"><ele>558.0</ele><time>2026-03-22T16:27:12Z</time></trkpt><trkpt lat="42.75269400865491" lon="11.947453888648969"><ele>557.1999999999999</ele><time>2026-03-22T16:27:13Z</time></trkpt><trkpt lat="42.75269069149553" lon="11.947580726671463"><ele>556.4</ele><time>2026-03-22T16:27:14Z</time></trkpt><trkpt lat="42.75266643947971" lon="11.947705312550253"><ele>555.5999999999999</ele><time>2026-03-22T16:27:15Z</time></trkpt><trkpt lat="42.752629173805396" lon="11.947843696956037"><ele>554.8</ele><time>2026-03-22T16:27:16Z</time></trkpt><trkpt lat="42.75258083142955" lon="11.94800096277507"><ele>554.0</ele><time>2026-03-22T16:27:17Z</time></trkpt><trkpt lat="42.75253859399363" lon="11.948168133067867"><ele>554.0</ele><time>2026-03-22T16:27:18Z</time></trkpt><trkpt lat="42.75249385422386" lon="11.948327639367715"><ele>554.0</ele><time>2026-03-22T16:27:19Z</time></trkpt><trkpt lat="42.75243306297401" lon="11.948489767975286"><ele>554.0</ele><time>2026-03-22T16:27:20Z</time></trkpt><trkpt lat="42.75237795113229" lon="11.948643691048177"><ele>554.0</ele><time>2026-03-22T16:27:21Z</time></trkpt><trkpt lat="42.75233017875725" lon="11.948792756726911"><ele>554.2</ele><time>2026-03-22T16:27:22Z</time></trkpt><trkpt lat="42.75228785563121" lon="11.948943845799082"><ele>554.4</ele><time>2026-03-22T16:27:23Z</time></trkpt><trkpt lat="42.7522695078099" lon="11.949094179788043"><ele>554.6</ele><time>2026-03-22T16:27:24Z</time></trkpt><trkpt lat="42.752274680129005" lon="11.949236195314962"><ele>554.8</ele><time>2026-03-22T16:27:25Z</time></trkpt><trkpt lat="42.752323027965424" lon="11.949354616126845"><ele>555.0</ele><time>2026-03-22T16:27:26Z</time></trkpt><trkpt lat="42.7523874329423" lon="11.949442803317387"><ele>555.0</ele><time>2026-03-22T16:27:27Z</time></trkpt><trkpt lat="42.75247167685804" lon="11.949495977812255"><ele>555.0</ele><time>2026-03-22T16:27:28Z</time></trkpt><trkpt lat="42.75255864215649" lon="11.949524060204753"><ele>555.0</ele><time>2026-03-22T16:27:29Z</time></trkpt><trkpt lat="42.75263934518585" lon="11.949560707861542"><ele>555.0</ele><time>2026-03-22T16:27:30Z</time></trkpt><trkpt lat="42.752740326133654" lon="11.949606057171966"><ele>555.0</ele><time>2026-03-22T16:27:31Z</time></trkpt><trkpt lat="42.75283269825438" lon="11.94967263683258"><ele>555.75</ele><time>2026-03-22T16:27:32Z</time></trkpt><trkpt lat="42.75293285757298" lon="11.949745359226489"><ele>556.5</ele><time>2026-03-22T16:27:33Z</time></trkpt><trkpt lat="42.753030372830956" lon="11.949823914846283"><ele>557.25</ele><time>2026-03-22T16:27:34Z</time></trkpt><trkpt lat="42.75313612449639" lon="11.949906687331355"><ele>558.0</ele><time>2026-03-22T16:27:35Z</time></trkpt><trkpt lat="42.753237223972974" lon="11.949982266470217"><ele>557.75</ele><time>2026-03-22T16:27:36Z</time></trkpt><trkpt lat="42.753337937001994" lon="11.95005932999427"><ele>557.5</ele><time>2026-03-22T16:27:37Z</time></trkpt><trkpt lat="42.753441169294994" lon="11.950128196769242"><ele>557.25</ele><time>2026-03-22T16:27:37.999Z</time></trkpt><trkpt lat="42.75354373024363" lon="11.950192852049769"><ele>557.0</ele><time>2026-03-22T16:27:38.999Z</time></trkpt><trkpt lat="42.75364311867099" lon="11.950247023307275"><ele>558.0</ele><time>2026-03-22T16:27:39.999Z</time></trkpt><trkpt lat="42.75374442565638" lon="11.95029262044476"><ele>559.0</ele><time>2026-03-22T16:27:40.999Z</time></trkpt><trkpt lat="42.75383306291765" lon="11.950338461638674"><ele>560.0</ele><time>2026-03-22T16:27:41.999Z</time></trkpt><trkpt lat="42.753908375595785" lon="11.950374199419654"><ele>561.0</ele><time>2026-03-22T16:27:42.999Z</time></trkpt><trkpt lat="42.753976135038286" lon="11.950395243439031"><ele>562.0</ele><time>2026-03-22T16:27:43.999Z</time></trkpt><trkpt lat="42.754028031228195" lon="11.950509531336824"><ele>563.0</ele><time>2026-03-22T16:27:45.999Z</time></trkpt><trkpt lat="42.754041682022006" lon="11.950602341038616"><ele>563.0</ele><time>2026-03-22T16:27:46.999Z</time></trkpt><trkpt lat="42.75403479604293" lon="11.950710625137853"><ele>563.0</ele><time>2026-03-22T16:27:47.999Z</time></trkpt><trkpt lat="42.75404122691703" lon="11.950827943570513"><ele>563.0</ele><time>2026-03-22T16:27:48.999Z</time></trkpt><trkpt lat="42.75403800338553" lon="11.95094453861655"><ele>563.0</ele><time>2026-03-22T16:27:49.999Z</time></trkpt><trkpt lat="42.75402608096802" lon="11.951068086864533"><ele>563.0</ele><time>2026-03-22T16:27:50.999Z</time></trkpt><trkpt lat="42.75401321247788" lon="11.951189811367351"><ele>563.0</ele><time>2026-03-22T16:27:51.999Z</time></trkpt><trkpt lat="42.7539965284944" lon="11.951325702112841"><ele>562.8</ele><time>2026-03-22T16:27:52.999Z</time></trkpt><trkpt lat="42.75397893862637" lon="11.951468971257315"><ele>562.5999999999999</ele><time>2026-03-22T16:27:53.999Z</time></trkpt><trkpt lat="42.7539714225242" lon="11.951617024473343"><ele>562.4000000000001</ele><time>2026-03-22T16:27:54.999Z</time></trkpt><trkpt lat="42.75395532378987" lon="11.951770105937333"><ele>562.2</ele><time>2026-03-22T16:27:55.999Z</time></trkpt><trkpt lat="42.75393723261169" lon="11.95193101303929"><ele>562.0</ele><time>2026-03-22T16:27:56.999Z</time></trkpt><trkpt lat="42.753913383687355" lon="11.952086238246952"><ele>562.0</ele><time>2026-03-22T16:27:57.999Z</time></trkpt><trkpt lat="42.75389280290635" lon="11.952243187050806"><ele>562.0</ele><time>2026-03-22T16:27:58.999Z</time></trkpt><trkpt lat="42.75383867975161" lon="11.952397527975778"><ele>562.0</ele><time>2026-03-22T16:27:59.999Z</time></trkpt><trkpt lat="42.753779800780876" lon="11.952550465163467"><ele>562.0</ele><time>2026-03-22T16:28:00.999Z</time></trkpt><trkpt lat="42.753704966205085" lon="11.952710563494575"><ele>562.0</ele><time>2026-03-22T16:28:01.999Z</time></trkpt><trkpt lat="42.75362210189805" lon="11.952882580719654"><ele>562.0</ele><time>2026-03-22T16:28:02.999Z</time></trkpt><trkpt lat="42.75357899243737" lon="11.953086940265768"><ele>562.0</ele><time>2026-03-22T16:28:03.999Z</time></trkpt><trkpt lat="42.75349583664206" lon="11.953261610102611"><ele>559.3333333333334</ele><time>2026-03-22T16:28:04.999Z</time></trkpt><trkpt lat="42.75341151806761" lon="11.953437496547203"><ele>556.6666666666666</ele><time>2026-03-22T16:28:05.999Z</time></trkpt><trkpt lat="42.753325396704945" lon="11.953619987226448"><ele>554.0</ele><time>2026-03-22T16:28:06.999Z</time></trkpt><trkpt lat="42.75319188015542" lon="11.953768376424316"><ele>554.0</ele><time>2026-03-22T16:28:07.999Z</time></trkpt><trkpt lat="42.75309846158694" lon="11.953959487884411"><ele>554.0</ele><time>2026-03-22T16:28:08.999Z</time></trkpt><trkpt lat="42.75300827347419" lon="11.954143990627154"><ele>554.0</ele><time>2026-03-22T16:28:09.999Z</time></trkpt><trkpt lat="42.752914393823524" lon="11.954336045348988"><ele>552.6666666666666</ele><time>2026-03-22T16:28:10.999Z</time></trkpt><trkpt lat="42.75282176838633" lon="11.95452553425666"><ele>551.3333333333334</ele><time>2026-03-22T16:28:11.999Z</time></trkpt><trkpt lat="42.75272884789733" lon="11.954720347167896"><ele>550.0</ele><time>2026-03-22T16:28:12.999Z</time></trkpt><trkpt lat="42.75263658046831" lon="11.954915028563915"><ele>548.3333333333334</ele><time>2026-03-22T16:28:13.999Z</time></trkpt><trkpt lat="42.75254467789839" lon="11.955108940118453"><ele>546.6666666666666</ele><time>2026-03-22T16:28:14.999Z</time></trkpt><trkpt lat="42.75245326001196" lon="11.955301655688267"><ele>545.0</ele><time>2026-03-22T16:28:15.999Z</time></trkpt><trkpt lat="42.75236318821615" lon="11.955491147636664"><ele>545.0</ele><time>2026-03-22T16:28:16.999Z</time></trkpt><trkpt lat="42.75227064275786" lon="11.955680162007125"><ele>545.0</ele><time>2026-03-22T16:28:17.999Z</time></trkpt><trkpt lat="42.75217698212691" lon="11.955870445479123"><ele>545.0</ele><time>2026-03-22T16:28:18.999Z</time></trkpt><trkpt lat="42.75208489348658" lon="11.95605882965884"><ele>543.6666666666666</ele><time>2026-03-22T16:28:19.999Z</time></trkpt><trkpt lat="42.751994070972664" lon="11.956250676737907"><ele>542.3333333333334</ele><time>2026-03-22T16:28:20.999Z</time></trkpt><trkpt lat="42.751903339677305" lon="11.956439169575944"><ele>541.0</ele><time>2026-03-22T16:28:21.999Z</time></trkpt><trkpt lat="42.7518106382117" lon="11.956616818348015"><ele>540.5</ele><time>2026-03-22T16:28:22.999Z</time></trkpt><trkpt lat="42.751711168413394" lon="11.95675869106216"><ele>540.0</ele><time>2026-03-22T16:28:23.999Z</time></trkpt><trkpt lat="42.751596428733876" lon="11.956880392076458"><ele>539.5</ele><time>2026-03-22T16:28:24.999Z</time></trkpt><trkpt lat="42.75146526851529" lon="11.956966579254242"><ele>539.0</ele><time>2026-03-22T16:28:25.999Z</time></trkpt><trkpt lat="42.751322347380395" lon="11.957018880392589"><ele>539.0</ele><time>2026-03-22T16:28:26.999Z</time></trkpt><trkpt lat="42.75116022284777" lon="11.957048211740187"><ele>539.0</ele><time>2026-03-22T16:28:27.999Z</time></trkpt><trkpt lat="42.75098297709832" lon="11.957068799363253"><ele>539.0</ele><time>2026-03-22T16:28:28.999Z</time></trkpt><trkpt lat="42.75080575467639" lon="11.95709321429322"><ele>537.3333333333333</ele><time>2026-03-22T16:28:29.999Z</time></trkpt><trkpt lat="42.75061754614837" lon="11.957119210285981"><ele>535.6666666666666</ele><time>2026-03-22T16:28:30.999Z</time></trkpt><trkpt lat="42.75043026482963" lon="11.95714520636519"><ele>534.0</ele><time>2026-03-22T16:28:31.999Z</time></trkpt><trkpt lat="42.75023905586868" lon="11.957171747628285"><ele>532.3333333333334</ele><time>2026-03-22T16:28:32.999Z</time></trkpt><trkpt lat="42.75004977711442" lon="11.957198020965848"><ele>530.6666666666667</ele><time>2026-03-22T16:28:33.999Z</time></trkpt><trkpt lat="42.74986786782697" lon="11.957223271365702"><ele>529.0</ele><time>2026-03-22T16:28:34.999Z</time></trkpt><trkpt lat="42.74968325279586" lon="11.957248897344055"><ele>529.0</ele><time>2026-03-22T16:28:35.999Z</time></trkpt><trkpt lat="42.74950614632496" lon="11.957273481075143"><ele>529.0</ele><time>2026-03-22T16:28:36.999Z</time></trkpt><trkpt lat="42.749332359876554" lon="11.957297605708002"><ele>529.0</ele><time>2026-03-22T16:28:37.999Z</time></trkpt><trkpt lat="42.74916456823118" lon="11.957318789982072"><ele>528.6666666666667</ele><time>2026-03-22T16:28:38.999Z</time></trkpt><trkpt lat="42.7490065245011" lon="11.957342602263358"><ele>528.3333333333334</ele><time>2026-03-22T16:28:39.999Z</time></trkpt><trkpt lat="42.74885824115213" lon="11.9573705941487"><ele>528.0</ele><time>2026-03-22T16:28:40.999Z</time></trkpt><trkpt lat="42.748716403835246" lon="11.957414810423977"><ele>528.0</ele><time>2026-03-22T16:28:41.999Z</time></trkpt><trkpt lat="42.74858899338884" lon="11.957466726661574"><ele>528.0</ele><time>2026-03-22T16:28:42.999Z</time></trkpt><trkpt lat="42.7484618636766" lon="11.957528742352014"><ele>528.0</ele><time>2026-03-22T16:28:43.999Z</time></trkpt><trkpt lat="42.74833502016636" lon="11.957603555378663"><ele>528.0</ele><time>2026-03-22T16:28:44.998Z</time></trkpt><trkpt lat="42.74820777093223" lon="11.957681827203555"><ele>528.25</ele><time>2026-03-22T16:28:45.998Z</time></trkpt><trkpt lat="42.748082157568284" lon="11.957759886651848"><ele>528.5</ele><time>2026-03-22T16:28:47Z</time></trkpt><trkpt lat="42.74795835905671" lon="11.957836833162544"><ele>528.75</ele><time>2026-03-22T16:28:48Z</time></trkpt><trkpt lat="42.74783068586942" lon="11.957916216106627"><ele>529.0</ele><time>2026-03-22T16:28:49Z</time></trkpt><trkpt lat="42.74770167736214" lon="11.957996429288787"><ele>529.75</ele><time>2026-03-22T16:28:50Z</time></trkpt><trkpt lat="42.74757062509848" lon="11.958078252081071"><ele>530.5</ele><time>2026-03-22T16:28:51Z</time></trkpt><trkpt lat="42.74744123029701" lon="11.95816073850841"><ele>531.25</ele><time>2026-03-22T16:28:52Z</time></trkpt><trkpt lat="42.747311800325754" lon="11.958243247354343"><ele>532.0</ele><time>2026-03-22T16:28:53Z</time></trkpt><trkpt lat="42.74718439424088" lon="11.958324466038857"><ele>531.5</ele><time>2026-03-22T16:28:54Z</time></trkpt><trkpt lat="42.747058158583336" lon="11.95840493858376"><ele>531.0</ele><time>2026-03-22T16:28:55Z</time></trkpt><trkpt lat="42.74693271039186" lon="11.958483546559227"><ele>530.5</ele><time>2026-03-22T16:28:56Z</time></trkpt><trkpt lat="42.746810292826744" lon="11.958559284267361"><ele>530.0</ele><time>2026-03-22T16:28:57Z</time></trkpt><trkpt lat="42.74668825846364" lon="11.958634784954352"><ele>531.25</ele><time>2026-03-22T16:28:58Z</time></trkpt><trkpt lat="42.74655676920628" lon="11.95871613595957"><ele>532.5</ele><time>2026-03-22T16:28:59Z</time></trkpt><trkpt lat="42.74643090989985" lon="11.958794009027496"><ele>533.75</ele><time>2026-03-22T16:29:00Z</time></trkpt><trkpt lat="42.74629752493857" lon="11.95887653846726"><ele>535.0</ele><time>2026-03-22T16:29:01Z</time></trkpt><trkpt lat="42.746169377369625" lon="11.95895582734643"><ele>535.0</ele><time>2026-03-22T16:29:02Z</time></trkpt><trkpt lat="42.74605040279501" lon="11.959029440707775"><ele>535.0</ele><time>2026-03-22T16:29:03Z</time></trkpt><trkpt lat="42.74594979960607" lon="11.95909308505632"><ele>535.0</ele><time>2026-03-22T16:29:04Z</time></trkpt><trkpt lat="42.745851098871974" lon="11.95914290888333"><ele>535.0</ele><time>2026-03-22T16:29:05Z</time></trkpt><trkpt lat="42.74575091542805" lon="11.95921236249238"><ele>536.0</ele><time>2026-03-22T16:29:06Z</time></trkpt><trkpt lat="42.745641555581884" lon="11.959251271816527"><ele>537.0</ele><time>2026-03-22T16:29:07Z</time></trkpt><trkpt lat="42.745543650535" lon="11.959325298159083"><ele>538.0</ele><time>2026-03-22T16:29:08Z</time></trkpt><trkpt lat="42.74543743225586" lon="11.959370219354449"><ele>539.0</ele><time>2026-03-22T16:29:09Z</time></trkpt><trkpt lat="42.74531288334206" lon="11.959420274643472"><ele>538.6666666666666</ele><time>2026-03-22T16:29:10Z</time></trkpt><trkpt lat="42.745177513563405" lon="11.959489106734216"><ele>538.3333333333334</ele><time>2026-03-22T16:29:11Z</time></trkpt><trkpt lat="42.74502799700761" lon="11.959565132092958"><ele>538.0</ele><time>2026-03-22T16:29:12Z</time></trkpt><trkpt lat="42.74486627290301" lon="11.959647467316625"><ele>538.0</ele><time>2026-03-22T16:29:13Z</time></trkpt><trkpt lat="42.74469483442155" lon="11.959736505606296"><ele>538.0</ele><time>2026-03-22T16:29:14Z</time></trkpt><trkpt lat="42.74452219221063" lon="11.95982616905053"><ele>538.0</ele><time>2026-03-22T16:29:15Z</time></trkpt><trkpt lat="42.74435640576254" lon="11.959932388710238"><ele>538.6666666666667</ele><time>2026-03-22T16:29:16Z</time></trkpt><trkpt lat="42.74418888232621" lon="11.960015309357917"><ele>539.3333333333334</ele><time>2026-03-22T16:29:17Z</time></trkpt><trkpt lat="42.744031787380614" lon="11.960093464972102"><ele>540.0</ele><time>2026-03-22T16:29:18Z</time></trkpt><trkpt lat="42.74388070504156" lon="11.96017395175203"><ele>540.0</ele><time>2026-03-22T16:29:19Z</time></trkpt><trkpt lat="42.74373255990062" lon="11.960224016204952"><ele>540.0</ele><time>2026-03-22T16:29:20Z</time></trkpt><trkpt lat="42.74359730724036" lon="11.96029143829751"><ele>540.0</ele><time>2026-03-22T16:29:21Z</time></trkpt><trkpt lat="42.74347303001015" lon="11.960354879877737"><ele>540.0</ele><time>2026-03-22T16:29:22Z</time></trkpt><trkpt lat="42.74336228428787" lon="11.960411668934482"><ele>540.0</ele><time>2026-03-22T16:29:23Z</time></trkpt><trkpt lat="42.74326823975854" lon="11.960476812979369"><ele>540.0</ele><time>2026-03-22T16:29:24Z</time></trkpt><trkpt lat="42.74317607011845" lon="11.960466961504531"><ele>540.0</ele><time>2026-03-22T16:29:25Z</time></trkpt><trkpt lat="42.74309480888173" lon="11.96044264366803"><ele>540.0</ele><time>2026-03-22T16:29:26Z</time></trkpt><trkpt lat="42.743020680480356" lon="11.960421336626501"><ele>540.0</ele><time>2026-03-22T16:29:27Z</time></trkpt><trkpt lat="42.7429762150745" lon="11.960199444823871"><ele>540.0</ele><time>2026-03-22T16:29:28Z</time></trkpt><trkpt lat="42.74291417017888" lon="11.960046306114503"><ele>540.0</ele><time>2026-03-22T16:29:29Z</time></trkpt><trkpt lat="42.742831702970626" lon="11.959911594943568"><ele>540.0</ele><time>2026-03-22T16:29:30Z</time></trkpt><trkpt lat="42.74274040980036" lon="11.959763382789747"><ele>540.0</ele><time>2026-03-22T16:29:31Z</time></trkpt><trkpt lat="42.742644266736065" lon="11.959607296883853"><ele>540.3333333333334</ele><time>2026-03-22T16:29:32Z</time></trkpt><trkpt lat="42.74253535973254" lon="11.959454956762627"><ele>540.6666666666667</ele><time>2026-03-22T16:29:33Z</time></trkpt><trkpt lat="42.742429424294535" lon="11.959290534711755"><ele>541.0</ele><time>2026-03-22T16:29:34Z</time></trkpt><trkpt lat="42.74232425173177" lon="11.959113459698127"><ele>541.0</ele><time>2026-03-22T16:29:35Z</time></trkpt><trkpt lat="42.742212361665516" lon="11.958933174048006"><ele>541.0</ele><time>2026-03-22T16:29:36Z</time></trkpt><trkpt lat="42.7420982047902" lon="11.958748412236451"><ele>541.0</ele><time>2026-03-22T16:29:37Z</time></trkpt><trkpt lat="42.741980894461896" lon="11.958557980558536"><ele>538.6666666666667</ele><time>2026-03-22T16:29:38Z</time></trkpt><trkpt lat="42.74186202444484" lon="11.95836460284871"><ele>536.3333333333334</ele><time>2026-03-22T16:29:39Z</time></trkpt><trkpt lat="42.74174809040188" lon="11.95817829099076"><ele>534.0</ele><time>2026-03-22T16:29:40Z</time></trkpt><trkpt lat="42.74163109294865" lon="11.95798793178355"><ele>534.0</ele><time>2026-03-22T16:29:41Z</time></trkpt><trkpt lat="42.74151220337368" lon="11.957796420716031"><ele>534.0</ele><time>2026-03-22T16:29:42Z</time></trkpt><trkpt lat="42.74139120700347" lon="11.957604288417977"><ele>534.0</ele><time>2026-03-22T16:29:43Z</time></trkpt><trkpt lat="42.74126924800391" lon="11.957409875540286"><ele>533.6666666666666</ele><time>2026-03-22T16:29:44Z</time></trkpt><trkpt lat="42.74114735032479" lon="11.957213448606291"><ele>533.3333333333333</ele><time>2026-03-22T16:29:45Z</time></trkpt><trkpt lat="42.7410242905121" lon="11.957014733267973"><ele>533.0</ele><time>2026-03-22T16:29:46Z</time></trkpt><trkpt lat="42.74090128558856" lon="11.956814464207172"><ele>532.6666666666666</ele><time>2026-03-22T16:29:47Z</time></trkpt><trkpt lat="42.740777921700044" lon="11.956612995696165"><ele>532.3333333333334</ele><time>2026-03-22T16:29:48Z</time></trkpt><trkpt lat="42.74065257499472" lon="11.956410823085841"><ele>532.0</ele><time>2026-03-22T16:29:49Z</time></trkpt><trkpt lat="42.740525917040074" lon="11.956208709286976"><ele>532.0</ele><time>2026-03-22T16:29:50Z</time></trkpt><trkpt lat="42.740399684837655" lon="11.956005322393704"><ele>532.0</ele><time>2026-03-22T16:29:51Z</time></trkpt><trkpt lat="42.740272852417135" lon="11.955800697235638"><ele>532.0</ele><time>2026-03-22T16:29:51.999Z</time></trkpt><trkpt lat="42.740145184509686" lon="11.955593928123125"><ele>532.0</ele><time>2026-03-22T16:29:52.999Z</time></trkpt><trkpt lat="42.740017159758324" lon="11.955386050637948"><ele>532.0</ele><time>2026-03-22T16:29:53.999Z</time></trkpt><trkpt lat="42.73988775255551" lon="11.95517708766937"><ele>532.0</ele><time>2026-03-22T16:29:54.999Z</time></trkpt><trkpt lat="42.73975729853207" lon="11.954968491752794"><ele>532.0</ele><time>2026-03-22T16:29:55.999Z</time></trkpt><trkpt lat="42.739627355609564" lon="11.954756538447063"><ele>532.0</ele><time>2026-03-22T16:29:56.999Z</time></trkpt><trkpt lat="42.739495272372736" lon="11.954544160826067"><ele>532.0</ele><time>2026-03-22T16:29:57.999Z</time></trkpt><trkpt lat="42.73936305092038" lon="11.954331058374674"><ele>531.3333333333334</ele><time>2026-03-22T16:29:58.999Z</time></trkpt><trkpt lat="42.73923107674606" lon="11.954117107663604"><ele>530.6666666666666</ele><time>2026-03-22T16:29:59.999Z</time></trkpt><trkpt lat="42.739099162158084" lon="11.953902428272018"><ele>530.0</ele><time>2026-03-22T16:30:00.999Z</time></trkpt><trkpt lat="42.73896558121699" lon="11.953688237240804"><ele>530.0</ele><time>2026-03-22T16:30:01.999Z</time></trkpt><trkpt lat="42.73883179952985" lon="11.953469180722477"><ele>530.0</ele><time>2026-03-22T16:30:02.999Z</time></trkpt><trkpt lat="42.73869799604352" lon="11.953252027548373"><ele>530.0</ele><time>2026-03-22T16:30:03.999Z</time></trkpt><trkpt lat="42.73855892997367" lon="11.953036438724988"><ele>529.6666666666666</ele><time>2026-03-22T16:30:04.999Z</time></trkpt><trkpt lat="42.73842338249925" lon="11.95281802446216"><ele>529.3333333333334</ele><time>2026-03-22T16:30:05.999Z</time></trkpt><trkpt lat="42.73828627414341" lon="11.952598184909062"><ele>529.0</ele><time>2026-03-22T16:30:06.999Z</time></trkpt><trkpt lat="42.738149499026605" lon="11.952378468227623"><ele>528.6666666666667</ele><time>2026-03-22T16:30:07.999Z</time></trkpt><trkpt lat="42.738012103733475" lon="11.952159273637667"><ele>528.3333333333334</ele><time>2026-03-22T16:30:08.999Z</time></trkpt><trkpt lat="42.737876878681895" lon="11.95193582856959"><ele>528.0</ele><time>2026-03-22T16:30:09.999Z</time></trkpt><trkpt lat="42.737739201345754" lon="11.951713992478693"><ele>527.3333333333334</ele><time>2026-03-22T16:30:10.999Z</time></trkpt><trkpt lat="42.73760243581593" lon="11.95149132603976"><ele>526.6666666666667</ele><time>2026-03-22T16:30:11.999Z</time></trkpt><trkpt lat="42.7374692508836" lon="11.951265654341288"><ele>526.0</ele><time>2026-03-22T16:30:12.999Z</time></trkpt><trkpt lat="42.73733407188501" lon="11.951049886257861"><ele>526.0</ele><time>2026-03-22T16:30:13.999Z</time></trkpt><trkpt lat="42.737198953204945" lon="11.950840272499514"><ele>526.0</ele><time>2026-03-22T16:30:14.999Z</time></trkpt><trkpt lat="42.737069285624735" lon="11.95063268415706"><ele>526.0</ele><time>2026-03-22T16:30:15.999Z</time></trkpt><trkpt lat="42.736946921116285" lon="11.950429788176239"><ele>524.6666666666667</ele><time>2026-03-22T16:30:16.999Z</time></trkpt><trkpt lat="42.736832560078476" lon="11.95022845876289"><ele>523.3333333333334</ele><time>2026-03-22T16:30:17.999Z</time></trkpt><trkpt lat="42.736727073918" lon="11.950024236869671"><ele>522.0</ele><time>2026-03-22T16:30:18.999Z</time></trkpt><trkpt lat="42.736635426412" lon="11.949801963888797"><ele>522.0</ele><time>2026-03-22T16:30:19.999Z</time></trkpt><trkpt lat="42.73656139843231" lon="11.949561221766917"><ele>522.0</ele><time>2026-03-22T16:30:20.999Z</time></trkpt><trkpt lat="42.736505027132075" lon="11.94930665217845"><ele>522.0</ele><time>2026-03-22T16:30:21.999Z</time></trkpt><trkpt lat="42.73645091930201" lon="11.949046138529368"><ele>521.3333333333334</ele><time>2026-03-22T16:30:22.999Z</time></trkpt><trkpt lat="42.73639829128936" lon="11.948775601060754"><ele>520.6666666666667</ele><time>2026-03-22T16:30:23.999Z</time></trkpt><trkpt lat="42.736343175311795" lon="11.948508372351354"><ele>520.0</ele><time>2026-03-22T16:30:24.999Z</time></trkpt><trkpt lat="42.736288409021405" lon="11.948234284327585"><ele>518.0</ele><time>2026-03-22T16:30:25.999Z</time></trkpt><trkpt lat="42.736231942693394" lon="11.947954899888636"><ele>516.0</ele><time>2026-03-22T16:30:26.999Z</time></trkpt><trkpt lat="42.736176059451786" lon="11.947673411510408"><ele>514.0</ele><time>2026-03-22T16:30:27.999Z</time></trkpt><trkpt lat="42.736119936689086" lon="11.94738906550501"><ele>512.6666666666667</ele><time>2026-03-22T16:30:28.999Z</time></trkpt><trkpt lat="42.736062352334045" lon="11.947104148692558"><ele>511.33333333333337</ele><time>2026-03-22T16:30:29.999Z</time></trkpt><trkpt lat="42.73600425673378" lon="11.946820265751798"><ele>510.0</ele><time>2026-03-22T16:30:30.999Z</time></trkpt><trkpt lat="42.735947991245325" lon="11.94653627960456"><ele>509.33333333333337</ele><time>2026-03-22T16:30:31.999Z</time></trkpt><trkpt lat="42.73589219939873" lon="11.946253607553416"><ele>508.6666666666667</ele><time>2026-03-22T16:30:32.999Z</time></trkpt><trkpt lat="42.73583769535528" lon="11.945969602093845"><ele>508.0</ele><time>2026-03-22T16:30:33.999Z</time></trkpt><trkpt lat="42.73578364438806" lon="11.945687743821159"><ele>507.33333333333337</ele><time>2026-03-22T16:30:34.999Z</time></trkpt><trkpt lat="42.73573158450698" lon="11.945405952268699"><ele>506.66666666666663</ele><time>2026-03-22T16:30:35.999Z</time></trkpt><trkpt lat="42.73567738420016" lon="11.945126104717831"><ele>506.0</ele><time>2026-03-22T16:30:36.999Z</time></trkpt><trkpt lat="42.735621507141644" lon="11.944847547507017"><ele>506.0</ele><time>2026-03-22T16:30:37.999Z</time></trkpt><trkpt lat="42.73556669781302" lon="11.94456975547657"><ele>506.0</ele><time>2026-03-22T16:30:38.999Z</time></trkpt><trkpt lat="42.73551168715322" lon="11.944293220948925"><ele>506.0</ele><time>2026-03-22T16:30:39.999Z</time></trkpt><trkpt lat="42.73545641582169" lon="11.944016566060641"><ele>505.66666666666663</ele><time>2026-03-22T16:30:40.999Z</time></trkpt><trkpt lat="42.73540125723566" lon="11.943740465238049"><ele>505.33333333333337</ele><time>2026-03-22T16:30:41.999Z</time></trkpt><trkpt lat="42.735346993785114" lon="11.943464128527765"><ele>505.0</ele><time>2026-03-22T16:30:42.999Z</time></trkpt><trkpt lat="42.73529240054028" lon="11.94318773118116"><ele>504.33333333333337</ele><time>2026-03-22T16:30:43.999Z</time></trkpt><trkpt lat="42.73523679319602" lon="11.942911424123444"><ele>503.66666666666663</ele><time>2026-03-22T16:30:44.999Z</time></trkpt><trkpt lat="42.73518241677927" lon="11.94263512273683"><ele>503.0</ele><time>2026-03-22T16:30:45.999Z</time></trkpt><trkpt lat="42.73512825314202" lon="11.942358474686984"><ele>502.0</ele><time>2026-03-22T16:30:46.999Z</time></trkpt><trkpt lat="42.73507300295068" lon="11.942082237495919"><ele>501.0</ele><time>2026-03-22T16:30:47.999Z</time></trkpt><trkpt lat="42.735009718952" lon="11.941807805901414"><ele>500.0</ele><time>2026-03-22T16:30:48.999Z</time></trkpt><trkpt lat="42.73496516795563" lon="11.941526891995649"><ele>499.3333333333333</ele><time>2026-03-22T16:30:49.999Z</time></trkpt><trkpt lat="42.734842313481636" lon="11.941277980431659"><ele>498.66666666666663</ele><time>2026-03-22T16:30:50.999Z</time></trkpt><trkpt lat="42.73473213196036" lon="11.941026292154946"><ele>498.0</ele><time>2026-03-22T16:30:51.999Z</time></trkpt><trkpt lat="42.73460715939878" lon="11.940786552826413"><ele>497.0</ele><time>2026-03-22T16:30:53Z</time></trkpt><trkpt lat="42.73448175108289" lon="11.940544752963437"><ele>496.0</ele><time>2026-03-22T16:30:54Z</time></trkpt><trkpt lat="42.7343606819647" lon="11.940296749264366"><ele>495.0</ele><time>2026-03-22T16:30:55Z</time></trkpt><trkpt lat="42.73423772042607" lon="11.940045483897302"><ele>492.5</ele><time>2026-03-22T16:30:56Z</time></trkpt><trkpt lat="42.73411046132293" lon="11.939790983430196"><ele>490.0</ele><time>2026-03-22T16:30:57Z</time></trkpt><trkpt lat="42.733999463061025" lon="11.939522363317996"><ele>490.0</ele><time>2026-03-22T16:30:58Z</time></trkpt><trkpt lat="42.73387190880091" lon="11.939265194530199"><ele>490.0</ele><time>2026-03-22T16:30:59Z</time></trkpt><trkpt lat="42.73374321153518" lon="11.939008176056308"><ele>488.0</ele><time>2026-03-22T16:31:00Z</time></trkpt><trkpt lat="42.733602763400455" lon="11.938761602435143"><ele>486.0</ele><time>2026-03-22T16:31:01Z</time></trkpt><trkpt lat="42.73347492996009" lon="11.93849881258587"><ele>482.5</ele><time>2026-03-22T16:31:02Z</time></trkpt><trkpt lat="42.733346891528676" lon="11.938234843418094"><ele>479.0</ele><time>2026-03-22T16:31:03Z</time></trkpt><trkpt lat="42.73321697314554" lon="11.937969812402113"><ele>479.0</ele><time>2026-03-22T16:31:04Z</time></trkpt><trkpt lat="42.7330847980387" lon="11.937704526962635"><ele>479.0</ele><time>2026-03-22T16:31:05Z</time></trkpt><trkpt lat="42.73295246000904" lon="11.937437082406737"><ele>477.5</ele><time>2026-03-22T16:31:06Z</time></trkpt><trkpt lat="42.73282025551094" lon="11.937168040479953"><ele>476.0</ele><time>2026-03-22T16:31:07Z</time></trkpt><trkpt lat="42.73268699950206" lon="11.93689949948933"><ele>473.0</ele><time>2026-03-22T16:31:08Z</time></trkpt><trkpt lat="42.732551703460615" lon="11.9366339044435"><ele>470.0</ele><time>2026-03-22T16:31:09Z</time></trkpt><trkpt lat="42.73243148761998" lon="11.936365549075466"><ele>470.0</ele><time>2026-03-22T16:31:10Z</time></trkpt><trkpt lat="42.73228815640947" lon="11.936115178566778"><ele>470.0</ele><time>2026-03-22T16:31:11Z</time></trkpt><trkpt lat="42.73216005199281" lon="11.935853313025659"><ele>468.66666666666663</ele><time>2026-03-22T16:31:12Z</time></trkpt><trkpt lat="42.73203352249507" lon="11.935597126652489"><ele>467.33333333333337</ele><time>2026-03-22T16:31:13Z</time></trkpt><trkpt lat="42.731913064631435" lon="11.935359090935538"><ele>466.0</ele><time>2026-03-22T16:31:14Z</time></trkpt><trkpt lat="42.73181659821447" lon="11.935114167593822"><ele>466.6666666666667</ele><time>2026-03-22T16:31:15Z</time></trkpt><trkpt lat="42.73172359678801" lon="11.934884156971776"><ele>467.33333333333337</ele><time>2026-03-22T16:31:16Z</time></trkpt><trkpt lat="42.7316575581108" lon="11.934648854001086"><ele>468.0</ele><time>2026-03-22T16:31:17Z</time></trkpt><trkpt lat="42.73161366615714" lon="11.93440696931429"><ele>469.0</ele><time>2026-03-22T16:31:18Z</time></trkpt><trkpt lat="42.731564714016415" lon="11.934168128086583"><ele>470.0</ele><time>2026-03-22T16:31:19Z</time></trkpt><trkpt lat="42.73153332532601" lon="11.933927953481517"><ele>471.0</ele><time>2026-03-22T16:31:20Z</time></trkpt><trkpt lat="42.73149941044518" lon="11.933709203997791"><ele>471.0</ele><time>2026-03-22T16:31:21Z</time></trkpt><trkpt lat="42.731462704086475" lon="11.93349675383327"><ele>471.0</ele><time>2026-03-22T16:31:22Z</time></trkpt><trkpt lat="42.731445921175506" lon="11.933273923012615"><ele>471.0</ele><time>2026-03-22T16:31:23Z</time></trkpt><trkpt lat="42.73141299472254" lon="11.933055429359602"><ele>471.66666666666663</ele><time>2026-03-22T16:31:24Z</time></trkpt><trkpt lat="42.7313802546542" lon="11.93283817233697"><ele>472.3333333333333</ele><time>2026-03-22T16:31:25Z</time></trkpt><trkpt lat="42.73134780165859" lon="11.93262282045904"><ele>473.0</ele><time>2026-03-22T16:31:26Z</time></trkpt><trkpt lat="42.731299332681765" lon="11.932413533003903"><ele>473.66666666666663</ele><time>2026-03-22T16:31:27Z</time></trkpt><trkpt lat="42.731269217706654" lon="11.932189726680813"><ele>474.33333333333337</ele><time>2026-03-22T16:31:28Z</time></trkpt><trkpt lat="42.73123793347417" lon="11.931963548803944"><ele>475.0</ele><time>2026-03-22T16:31:29Z</time></trkpt><trkpt lat="42.73120436689075" lon="11.931736429672922"><ele>474.0</ele><time>2026-03-22T16:31:30Z</time></trkpt><trkpt lat="42.731169455000995" lon="11.931505453664114"><ele>473.0</ele><time>2026-03-22T16:31:31Z</time></trkpt><trkpt lat="42.73113371030519" lon="11.931269697895921"><ele>472.0</ele><time>2026-03-22T16:31:32Z</time></trkpt><trkpt lat="42.731098120378846" lon="11.931026898942115"><ele>471.6666666666667</ele><time>2026-03-22T16:31:33Z</time></trkpt><trkpt lat="42.73106025602911" lon="11.930780759503529"><ele>471.33333333333337</ele><time>2026-03-22T16:31:34Z</time></trkpt><trkpt lat="42.73102201161305" lon="11.930534054344287"><ele>471.0</ele><time>2026-03-22T16:31:35Z</time></trkpt><trkpt lat="42.730983003916556" lon="11.93028488946452"><ele>471.0</ele><time>2026-03-22T16:31:36Z</time></trkpt><trkpt lat="42.730946001128395" lon="11.930032337646672"><ele>471.0</ele><time>2026-03-22T16:31:37Z</time></trkpt><trkpt lat="42.73090687865505" lon="11.929774806935146"><ele>471.0</ele><time>2026-03-22T16:31:38Z</time></trkpt><trkpt lat="42.7308678700926" lon="11.92951015354397"><ele>471.0</ele><time>2026-03-22T16:31:39Z</time></trkpt><trkpt lat="42.73082846482936" lon="11.929244443455453"><ele>471.0</ele><time>2026-03-22T16:31:40Z</time></trkpt><trkpt lat="42.730787447137665" lon="11.928974979691288"><ele>471.0</ele><time>2026-03-22T16:31:41Z</time></trkpt><trkpt lat="42.730747130216315" lon="11.928701312803975"><ele>470.33333333333337</ele><time>2026-03-22T16:31:42Z</time></trkpt><trkpt lat="42.73070630517924" lon="11.928425730610673"><ele>469.6666666666667</ele><time>2026-03-22T16:31:43Z</time></trkpt><trkpt lat="42.730662589508896" lon="11.928147489515897"><ele>469.0</ele><time>2026-03-22T16:31:44Z</time></trkpt><trkpt lat="42.730616030746305" lon="11.92786622275707"><ele>467.6666666666667</ele><time>2026-03-22T16:31:45Z</time></trkpt><trkpt lat="42.73057142690055" lon="11.927580008782481"><ele>466.33333333333337</ele><time>2026-03-22T16:31:46Z</time></trkpt><trkpt lat="42.73053053333139" lon="11.927298632591082"><ele>465.0</ele><time>2026-03-22T16:31:47Z</time></trkpt><trkpt lat="42.730492019713935" lon="11.927021012037622"><ele>462.66666666666663</ele><time>2026-03-22T16:31:48Z</time></trkpt><trkpt lat="42.73045709399286" lon="11.926746090295865"><ele>460.3333333333333</ele><time>2026-03-22T16:31:49Z</time></trkpt><trkpt lat="42.73042570672159" lon="11.926470455165965"><ele>458.0</ele><time>2026-03-22T16:31:50Z</time></trkpt><trkpt lat="42.730406212508875" lon="11.926193901083861"><ele>456.66666666666663</ele><time>2026-03-22T16:31:51Z</time></trkpt><trkpt lat="42.730395984308764" lon="11.92592342957714"><ele>455.33333333333337</ele><time>2026-03-22T16:31:52Z</time></trkpt><trkpt lat="42.73039570207396" lon="11.925675610667277"><ele>454.0</ele><time>2026-03-22T16:31:53Z</time></trkpt><trkpt lat="42.730403830817224" lon="11.92545430836985"><ele>454.0</ele><time>2026-03-22T16:31:54Z</time></trkpt><trkpt lat="42.73042757075629" lon="11.925264684158996"><ele>454.0</ele><time>2026-03-22T16:31:55Z</time></trkpt><trkpt lat="42.73047941219722" lon="11.92511154371547"><ele>454.0</ele><time>2026-03-22T16:31:56Z</time></trkpt><trkpt lat="42.73057201981036" lon="11.925010242350773"><ele>454.0</ele><time>2026-03-22T16:31:57Z</time></trkpt><trkpt lat="42.73068835710328" lon="11.924959242292026"><ele>454.0</ele><time>2026-03-22T16:31:58Z</time></trkpt><trkpt lat="42.73080437789464" lon="11.924975910230328"><ele>454.0</ele><time>2026-03-22T16:31:59Z</time></trkpt><trkpt lat="42.73092795339618" lon="11.925026758165718"><ele>454.0</ele><time>2026-03-22T16:31:59.999Z</time></trkpt><trkpt lat="42.73107441130831" lon="11.92509849261077"><ele>454.0</ele><time>2026-03-22T16:32:00.999Z</time></trkpt><trkpt lat="42.73123030245566" lon="11.925185017720567"><ele>452.33333333333337</ele><time>2026-03-22T16:32:01.999Z</time></trkpt><trkpt lat="42.731369744434076" lon="11.925277840276278"><ele>450.66666666666663</ele><time>2026-03-22T16:32:02.999Z</time></trkpt><trkpt lat="42.73152319793395" lon="11.925367051869664"><ele>449.0</ele><time>2026-03-22T16:32:03.999Z</time></trkpt><trkpt lat="42.73167042909196" lon="11.925457836777504"><ele>449.0</ele><time>2026-03-22T16:32:04.999Z</time></trkpt><trkpt lat="42.73182693723932" lon="11.925537301007887"><ele>449.0</ele><time>2026-03-22T16:32:05.999Z</time></trkpt><trkpt lat="42.73200526373179" lon="11.925616847636926"><ele>449.0</ele><time>2026-03-22T16:32:06.999Z</time></trkpt><trkpt lat="42.732183182528374" lon="11.925705023172288"><ele>448.3333333333333</ele><time>2026-03-22T16:32:07.999Z</time></trkpt><trkpt lat="42.73236639610011" lon="11.925785532696233"><ele>447.66666666666663</ele><time>2026-03-22T16:32:08.999Z</time></trkpt><trkpt lat="42.732544499576356" lon="11.925878485798961"><ele>447.0</ele><time>2026-03-22T16:32:09.999Z</time></trkpt><trkpt lat="42.73271970256377" lon="11.925946882823812"><ele>443.66666666666663</ele><time>2026-03-22T16:32:10.999Z</time></trkpt><trkpt lat="42.73289219017196" lon="11.925998697826971"><ele>440.3333333333333</ele><time>2026-03-22T16:32:11.999Z</time></trkpt><trkpt lat="42.73308320344786" lon="11.92600782776885"><ele>437.0</ele><time>2026-03-22T16:32:12.999Z</time></trkpt><trkpt lat="42.73326446662277" lon="11.925966013804812"><ele>432.3333333333333</ele><time>2026-03-22T16:32:13.999Z</time></trkpt><trkpt lat="42.73341245867938" lon="11.925876114425689"><ele>427.66666666666663</ele><time>2026-03-22T16:32:14.999Z</time></trkpt><trkpt lat="42.73354519232553" lon="11.92575221438633"><ele>423.0</ele><time>2026-03-22T16:32:15.999Z</time></trkpt><trkpt lat="42.73366316524887" lon="11.92558060822708"><ele>423.0</ele><time>2026-03-22T16:32:16.999Z</time></trkpt><trkpt lat="42.73378776780931" lon="11.925412002245398"><ele>423.0</ele><time>2026-03-22T16:32:17.999Z</time></trkpt><trkpt lat="42.733939034852554" lon="11.925257731771897"><ele>423.0</ele><time>2026-03-22T16:32:18.999Z</time></trkpt><trkpt lat="42.73407442046419" lon="11.925075274420028"><ele>431.66666666666663</ele><time>2026-03-22T16:32:19.999Z</time></trkpt><trkpt lat="42.73417154882809" lon="11.924878684175326"><ele>440.3333333333333</ele><time>2026-03-22T16:32:20.999Z</time></trkpt><trkpt lat="42.7342631936848" lon="11.924664929719855"><ele>449.0</ele><time>2026-03-22T16:32:21.999Z</time></trkpt><trkpt lat="42.73434702411148" lon="11.924462855181758"><ele>443.0</ele><time>2026-03-22T16:32:22.999Z</time></trkpt><trkpt lat="42.73443864033713" lon="11.924258965131866"><ele>437.0</ele><time>2026-03-22T16:32:23.999Z</time></trkpt><trkpt lat="42.734520712941844" lon="11.924050548171007"><ele>431.0</ele><time>2026-03-22T16:32:24.999Z</time></trkpt><trkpt lat="42.73459678169433" lon="11.923882576127347"><ele>431.0</ele><time>2026-03-22T16:32:25.999Z</time></trkpt><trkpt lat="42.734642621175745" lon="11.923680132561403"><ele>431.0</ele><time>2026-03-22T16:32:26.999Z</time></trkpt><trkpt lat="42.734660162347986" lon="11.9234616450537"><ele>431.0</ele><time>2026-03-22T16:32:27.999Z</time></trkpt><trkpt lat="42.73468271141184" lon="11.923220208802954"><ele>435.0</ele><time>2026-03-22T16:32:28.999Z</time></trkpt><trkpt lat="42.73467351436168" lon="11.922922604795344"><ele>439.0</ele><time>2026-03-22T16:32:29.999Z</time></trkpt><trkpt lat="42.73470289549456" lon="11.92267558412773"><ele>443.0</ele><time>2026-03-22T16:32:30.999Z</time></trkpt><trkpt lat="42.73473961110991" lon="11.922429360663148"><ele>448.66666666666663</ele><time>2026-03-22T16:32:31.999Z</time></trkpt><trkpt lat="42.734812541634234" lon="11.922205314116415"><ele>454.33333333333337</ele><time>2026-03-22T16:32:32.999Z</time></trkpt><trkpt lat="42.7349178434395" lon="11.922018743713569"><ele>460.0</ele><time>2026-03-22T16:32:33.999Z</time></trkpt><trkpt lat="42.73504968734444" lon="11.921851457941228"><ele>457.0</ele><time>2026-03-22T16:32:34.999Z</time></trkpt><trkpt lat="42.73519501796295" lon="11.921691710586998"><ele>454.0</ele><time>2026-03-22T16:32:35.999Z</time></trkpt><trkpt lat="42.735340888650995" lon="11.921520831537967"><ele>451.0</ele><time>2026-03-22T16:32:36.999Z</time></trkpt><trkpt lat="42.73547715142186" lon="11.921349244706102"><ele>451.0</ele><time>2026-03-22T16:32:37.999Z</time></trkpt><trkpt lat="42.73562225559952" lon="11.921178964174057"><ele>451.0</ele><time>2026-03-22T16:32:38.999Z</time></trkpt><trkpt lat="42.73575496559368" lon="11.921025878972177"><ele>451.0</ele><time>2026-03-22T16:32:39.999Z</time></trkpt><trkpt lat="42.735869239712954" lon="11.920874138189632"><ele>456.75</ele><time>2026-03-22T16:32:40.999Z</time></trkpt><trkpt lat="42.73595057322331" lon="11.920715604491301"><ele>462.5</ele><time>2026-03-22T16:32:41.999Z</time></trkpt><trkpt lat="42.735985926805284" lon="11.920530867457892"><ele>468.25</ele><time>2026-03-22T16:32:42.999Z</time></trkpt><trkpt lat="42.735967411373004" lon="11.920367997589532"><ele>474.0</ele><time>2026-03-22T16:32:43.999Z</time></trkpt><trkpt lat="42.736011273534984" lon="11.920262008030335"><ele>474.0</ele><time>2026-03-22T16:32:44.999Z</time></trkpt><trkpt lat="42.7359950569431" lon="11.920092615574008"><ele>474.0</ele><time>2026-03-22T16:32:45.999Z</time></trkpt><trkpt lat="42.73590237469918" lon="11.919947592639176"><ele>474.0</ele><time>2026-03-22T16:32:46.999Z</time></trkpt><trkpt lat="42.73574983026128" lon="11.91987005546068"><ele>474.0</ele><time>2026-03-22T16:32:47.999Z</time></trkpt><trkpt lat="42.735610215278626" lon="11.919746350377372"><ele>474.0</ele><time>2026-03-22T16:32:48.999Z</time></trkpt><trkpt lat="42.73559335093769" lon="11.91956805098454"><ele>474.0</ele><time>2026-03-22T16:32:49.999Z</time></trkpt><trkpt lat="42.735588324195106" lon="11.919437818712193"><ele>474.0</ele><time>2026-03-22T16:32:50.999Z</time></trkpt><trkpt lat="42.735655388491935" lon="11.919323801816946"><ele>474.0</ele><time>2026-03-22T16:32:51.999Z</time></trkpt><trkpt lat="42.73571603003905" lon="11.919252246870409"><ele>474.0</ele><time>2026-03-22T16:32:52.999Z</time></trkpt><trkpt lat="42.73580085936362" lon="11.9192214718007"><ele>476.0</ele><time>2026-03-22T16:32:53.999Z</time></trkpt><trkpt lat="42.73596416586115" lon="11.91920478773479"><ele>478.0</ele><time>2026-03-22T16:32:54.999Z</time></trkpt><trkpt lat="42.73609177303896" lon="11.919112810389077"><ele>480.0</ele><time>2026-03-22T16:32:55.999Z</time></trkpt><trkpt lat="42.736221498293716" lon="11.919006425448519"><ele>467.0</ele><time>2026-03-22T16:32:56.999Z</time></trkpt><trkpt lat="42.736361053459575" lon="11.918880056651204"><ele>454.0</ele><time>2026-03-22T16:32:57.999Z</time></trkpt><trkpt lat="42.73648086140449" lon="11.918734894160771"><ele>441.0</ele><time>2026-03-22T16:32:59Z</time></trkpt><trkpt lat="42.736544923616506" lon="11.918583848966833"><ele>445.33333333333337</ele><time>2026-03-22T16:33:00Z</time></trkpt><trkpt lat="42.736596132567286" lon="11.918385704862674"><ele>449.6666666666667</ele><time>2026-03-22T16:33:01Z</time></trkpt><trkpt lat="42.736652065411754" lon="11.918164326364531"><ele>454.0</ele><time>2026-03-22T16:33:02Z</time></trkpt><trkpt lat="42.7367066925383" lon="11.917911619189699"><ele>454.0</ele><time>2026-03-22T16:33:03Z</time></trkpt><trkpt lat="42.73675509998114" lon="11.917678794942033"><ele>454.0</ele><time>2026-03-22T16:33:04Z</time></trkpt><trkpt lat="42.73680952953135" lon="11.91742956895045"><ele>454.0</ele><time>2026-03-22T16:33:05Z</time></trkpt><trkpt lat="42.73687571254059" lon="11.91718102886686"><ele>448.33333333333337</ele><time>2026-03-22T16:33:06Z</time></trkpt><trkpt lat="42.736950817683" lon="11.916955596189657"><ele>442.66666666666663</ele><time>2026-03-22T16:33:07Z</time></trkpt><trkpt lat="42.73698219192611" lon="11.916699297174672"><ele>437.0</ele><time>2026-03-22T16:33:08Z</time></trkpt><trkpt lat="42.737058054238965" lon="11.916500753301198"><ele>437.0</ele><time>2026-03-22T16:33:09Z</time></trkpt><trkpt lat="42.73707296947167" lon="11.916301125758446"><ele>437.0</ele><time>2026-03-22T16:33:10Z</time></trkpt><trkpt lat="42.73706649660863" lon="11.916123391442682"><ele>437.0</ele><time>2026-03-22T16:33:11Z</time></trkpt><trkpt lat="42.73703257150899" lon="11.915928161125867"><ele>437.0</ele><time>2026-03-22T16:33:12Z</time></trkpt><trkpt lat="42.736970918861076" lon="11.915757297107852"><ele>438.3333333333333</ele><time>2026-03-22T16:33:13Z</time></trkpt><trkpt lat="42.73695504617296" lon="11.915579296640516"><ele>439.66666666666663</ele><time>2026-03-22T16:33:14Z</time></trkpt><trkpt lat="42.73674136469508" lon="11.915462624628695"><ele>441.0</ele><time>2026-03-22T16:33:15Z</time></trkpt><trkpt lat="42.736718426679936" lon="11.91526094437524"><ele>445.66666666666663</ele><time>2026-03-22T16:33:16Z</time></trkpt><trkpt lat="42.73672945695424" lon="11.915065400964238"><ele>450.3333333333333</ele><time>2026-03-22T16:33:17Z</time></trkpt><trkpt lat="42.73679321083529" lon="11.91484837325257"><ele>455.0</ele><time>2026-03-22T16:33:18Z</time></trkpt><trkpt lat="42.73687990471778" lon="11.914686070209447"><ele>451.3333333333333</ele><time>2026-03-22T16:33:19Z</time></trkpt><trkpt lat="42.73696973546995" lon="11.914500784243085"><ele>447.66666666666663</ele><time>2026-03-22T16:33:20Z</time></trkpt><trkpt lat="42.737064207701664" lon="11.914309770864206"><ele>444.0</ele><time>2026-03-22T16:33:21Z</time></trkpt><trkpt lat="42.737173782394876" lon="11.914082813515511"><ele>444.0</ele><time>2026-03-22T16:33:22Z</time></trkpt><trkpt lat="42.73728667205944" lon="11.913847753182504"><ele>444.0</ele><time>2026-03-22T16:33:23Z</time></trkpt><trkpt lat="42.737403796474055" lon="11.91361300148524"><ele>444.0</ele><time>2026-03-22T16:33:24Z</time></trkpt><trkpt lat="42.73752022925811" lon="11.913380050954004"><ele>442.33333333333337</ele><time>2026-03-22T16:33:25Z</time></trkpt><trkpt lat="42.737639600667514" lon="11.913140821975016"><ele>440.6666666666667</ele><time>2026-03-22T16:33:26Z</time></trkpt><trkpt lat="42.73775893916411" lon="11.912902071017081"><ele>439.0</ele><time>2026-03-22T16:33:27Z</time></trkpt><trkpt lat="42.73788024884438" lon="11.912652476110352"><ele>438.5</ele><time>2026-03-22T16:33:28Z</time></trkpt><trkpt lat="42.738004771747725" lon="11.912400963969125"><ele>438.0</ele><time>2026-03-22T16:33:29Z</time></trkpt><trkpt lat="42.73813350339144" lon="11.912144890715432"><ele>438.0</ele><time>2026-03-22T16:33:30Z</time></trkpt><trkpt lat="42.73826278713479" lon="11.911886610079252"><ele>438.0</ele><time>2026-03-22T16:33:31Z</time></trkpt><trkpt lat="42.73839205879929" lon="11.911629960384591"><ele>437.5</ele><time>2026-03-22T16:33:32Z</time></trkpt><trkpt lat="42.73851852689568" lon="11.911370471870825"><ele>437.0</ele><time>2026-03-22T16:33:33Z</time></trkpt><trkpt lat="42.7386471397024" lon="11.911112369794708"><ele>434.5</ele><time>2026-03-22T16:33:34Z</time></trkpt><trkpt lat="42.73877261404787" lon="11.910858616421693"><ele>432.0</ele><time>2026-03-22T16:33:35Z</time></trkpt><trkpt lat="42.73889891397445" lon="11.910602907573894"><ele>432.0</ele><time>2026-03-22T16:33:36Z</time></trkpt><trkpt lat="42.73902077680187" lon="11.910354126049047"><ele>432.0</ele><time>2026-03-22T16:33:37Z</time></trkpt><trkpt lat="42.7391392430954" lon="11.910115352107743"><ele>432.0</ele><time>2026-03-22T16:33:38Z</time></trkpt><trkpt lat="42.73925466413529" lon="11.90988904520951"><ele>431.0</ele><time>2026-03-22T16:33:39Z</time></trkpt><trkpt lat="42.739363342366296" lon="11.909674520875187"><ele>430.0</ele><time>2026-03-22T16:33:40Z</time></trkpt><trkpt lat="42.739465337136714" lon="11.909466564277707"><ele>429.0</ele><time>2026-03-22T16:33:41Z</time></trkpt><trkpt lat="42.73956186518389" lon="11.909270178329171"><ele>430.33333333333337</ele><time>2026-03-22T16:33:42Z</time></trkpt><trkpt lat="42.73963994975985" lon="11.909076122514508"><ele>431.6666666666667</ele><time>2026-03-22T16:33:43Z</time></trkpt><trkpt lat="42.73966424928849" lon="11.908869980162887"><ele>433.0</ele><time>2026-03-22T16:33:44Z</time></trkpt><trkpt lat="42.73964212537961" lon="11.90863324651132"><ele>431.33333333333337</ele><time>2026-03-22T16:33:45Z</time></trkpt><trkpt lat="42.739585879498996" lon="11.908395139815157"><ele>429.66666666666663</ele><time>2026-03-22T16:33:46Z</time></trkpt><trkpt lat="42.739513470311955" lon="11.908176572441953"><ele>428.0</ele><time>2026-03-22T16:33:47Z</time></trkpt><trkpt lat="42.739419317727005" lon="11.907983709863869"><ele>427.0</ele><time>2026-03-22T16:33:48Z</time></trkpt><trkpt lat="42.73931969922537" lon="11.907815525587004"><ele>426.0</ele><time>2026-03-22T16:33:49Z</time></trkpt><trkpt lat="42.73919411191722" lon="11.907650460786481"><ele>425.0</ele><time>2026-03-22T16:33:50Z</time></trkpt><trkpt lat="42.7390342401218" lon="11.907515070415908"><ele>425.0</ele><time>2026-03-22T16:33:51Z</time></trkpt><trkpt lat="42.73885601568884" lon="11.907401199312293"><ele>425.0</ele><time>2026-03-22T16:33:52Z</time></trkpt><trkpt lat="42.73859870123734" lon="11.907379301962976"><ele>425.66666666666663</ele><time>2026-03-22T16:33:53Z</time></trkpt><trkpt lat="42.73842160442813" lon="11.907280240812097"><ele>426.33333333333337</ele><time>2026-03-22T16:33:54Z</time></trkpt><trkpt lat="42.73828118922351" lon="11.907163025833976"><ele>427.0</ele><time>2026-03-22T16:33:55Z</time></trkpt><trkpt lat="42.73821650329223" lon="11.9070025121019"><ele>427.0</ele><time>2026-03-22T16:33:56Z</time></trkpt><trkpt lat="42.738182166411406" lon="11.906841068911584"><ele>427.00000000000006</ele><time>2026-03-22T16:33:57Z</time></trkpt><trkpt lat="42.738207302345025" lon="11.906711470113391"><ele>427.00000000000006</ele><time>2026-03-22T16:33:58Z</time></trkpt><trkpt lat="42.73821601021049" lon="11.906567516382035"><ele>427.0</ele><time>2026-03-22T16:33:59Z</time></trkpt><trkpt lat="42.73820184776814" lon="11.906415641503347"><ele>427.0</ele><time>2026-03-22T16:34:00Z</time></trkpt><trkpt lat="42.73823538221994" lon="11.9062359185396"><ele>426.0</ele><time>2026-03-22T16:34:01Z</time></trkpt><trkpt lat="42.738435407815786" lon="11.905920780354194"><ele>425.0</ele><time>2026-03-22T16:34:02Z</time></trkpt><trkpt lat="42.73854691899134" lon="11.90571632272905"><ele>427.0</ele><time>2026-03-22T16:34:03Z</time></trkpt><trkpt lat="42.73863455014898" lon="11.905504444293454"><ele>429.0</ele><time>2026-03-22T16:34:04Z</time></trkpt><trkpt lat="42.73869632333066" lon="11.905308254934628"><ele>431.0</ele><time>2026-03-22T16:34:05Z</time></trkpt><trkpt lat="42.738818574611464" lon="11.90513030172312"><ele>429.0</ele><time>2026-03-22T16:34:06Z</time></trkpt><trkpt lat="42.7389593799215" lon="11.904999855465979"><ele>427.0</ele><time>2026-03-22T16:34:07Z</time></trkpt><trkpt lat="42.73913939398426" lon="11.904924647768519"><ele>425.0</ele><time>2026-03-22T16:34:08Z</time></trkpt><trkpt lat="42.739369097930464" lon="11.904890608508254"><ele>426.66666666666663</ele><time>2026-03-22T16:34:09Z</time></trkpt><trkpt lat="42.73960313715847" lon="11.904889280726822"><ele>428.33333333333337</ele><time>2026-03-22T16:34:09.999Z</time></trkpt><trkpt lat="42.73980800818263" lon="11.904866125332033"><ele>430.0</ele><time>2026-03-22T16:34:10.999Z</time></trkpt><trkpt lat="42.740003508138265" lon="11.904814510367881"><ele>430.0</ele><time>2026-03-22T16:34:11.999Z</time></trkpt><trkpt lat="42.74020612610565" lon="11.904760024595552"><ele>430.0</ele><time>2026-03-22T16:34:12.999Z</time></trkpt><trkpt lat="42.740415312495145" lon="11.904700759249595"><ele>430.0</ele><time>2026-03-22T16:34:13.999Z</time></trkpt><trkpt lat="42.74060796562188" lon="11.904618843018577"><ele>429.33333333333337</ele><time>2026-03-22T16:34:14.999Z</time></trkpt><trkpt lat="42.74079209852591" lon="11.904507734964934"><ele>428.66666666666663</ele><time>2026-03-22T16:34:15.999Z</time></trkpt><trkpt lat="42.74096955051977" lon="11.904351717752203"><ele>428.0</ele><time>2026-03-22T16:34:16.999Z</time></trkpt><trkpt lat="42.74111932009364" lon="11.904157995697457"><ele>427.66666666666663</ele><time>2026-03-22T16:34:17.999Z</time></trkpt><trkpt lat="42.7412484545907" lon="11.903945870849494"><ele>427.33333333333337</ele><time>2026-03-22T16:34:18.999Z</time></trkpt><trkpt lat="42.741369712654375" lon="11.903719868314047"><ele>427.0</ele><time>2026-03-22T16:34:19.999Z</time></trkpt><trkpt lat="42.74148947023547" lon="11.903486909452308"><ele>427.33333333333337</ele><time>2026-03-22T16:34:20.999Z</time></trkpt><trkpt lat="42.741614031960175" lon="11.903264515770688"><ele>427.66666666666663</ele><time>2026-03-22T16:34:21.999Z</time></trkpt><trkpt lat="42.74174255878429" lon="11.903037980791025"><ele>428.0</ele><time>2026-03-22T16:34:22.999Z</time></trkpt><trkpt lat="42.74186597676114" lon="11.902812341598542"><ele>426.3333333333333</ele><time>2026-03-22T16:34:23.999Z</time></trkpt><trkpt lat="42.74198381026513" lon="11.902595717481262"><ele>424.66666666666663</ele><time>2026-03-22T16:34:24.999Z</time></trkpt><trkpt lat="42.742095511609705" lon="11.902380719361974"><ele>423.0</ele><time>2026-03-22T16:34:25.999Z</time></trkpt><trkpt lat="42.7421910234845" lon="11.902158918078609"><ele>423.0</ele><time>2026-03-22T16:34:26.999Z</time></trkpt><trkpt lat="42.742263053238275" lon="11.901925165298868"><ele>423.0</ele><time>2026-03-22T16:34:27.999Z</time></trkpt><trkpt lat="42.74230738225284" lon="11.90168058139603"><ele>423.0</ele><time>2026-03-22T16:34:28.999Z</time></trkpt><trkpt lat="42.74232783031737" lon="11.90143109172757"><ele>423.33333333333337</ele><time>2026-03-22T16:34:29.999Z</time></trkpt><trkpt lat="42.74233019229511" lon="11.901179357350731"><ele>423.6666666666667</ele><time>2026-03-22T16:34:30.999Z</time></trkpt><trkpt lat="42.74230678900305" lon="11.900921431379793"><ele>424.0</ele><time>2026-03-22T16:34:31.999Z</time></trkpt><trkpt lat="42.74227437630454" lon="11.900666048462911"><ele>424.0</ele><time>2026-03-22T16:34:32.999Z</time></trkpt><trkpt lat="42.74220159841215" lon="11.9004056175352"><ele>424.0</ele><time>2026-03-22T16:34:33.999Z</time></trkpt><trkpt lat="42.74213557711982" lon="11.900159136726305"><ele>424.0</ele><time>2026-03-22T16:34:34.999Z</time></trkpt><trkpt lat="42.74202776476034" lon="11.89993568767201"><ele>424.33333333333337</ele><time>2026-03-22T16:34:35.999Z</time></trkpt><trkpt lat="42.7418940555674" lon="11.899747659292391"><ele>424.66666666666663</ele><time>2026-03-22T16:34:36.999Z</time></trkpt><trkpt lat="42.74169814475763" lon="11.899580372125397"><ele>425.0</ele><time>2026-03-22T16:34:37.999Z</time></trkpt><trkpt lat="42.74156080559173" lon="11.899381668787617"><ele>424.0</ele><time>2026-03-22T16:34:38.999Z</time></trkpt><trkpt lat="42.74143112032444" lon="11.899194401912894"><ele>423.0</ele><time>2026-03-22T16:34:39.999Z</time></trkpt><trkpt lat="42.741301372100104" lon="11.898982884925635"><ele>422.0</ele><time>2026-03-22T16:34:40.999Z</time></trkpt><trkpt lat="42.74119192373236" lon="11.898751550673065"><ele>422.0</ele><time>2026-03-22T16:34:41.999Z</time></trkpt><trkpt lat="42.74110250997661" lon="11.898496870268115"><ele>422.0</ele><time>2026-03-22T16:34:42.999Z</time></trkpt><trkpt lat="42.7410305514352" lon="11.898232698501042"><ele>422.0</ele><time>2026-03-22T16:34:43.999Z</time></trkpt><trkpt lat="42.74096110429737" lon="11.897969953555076"><ele>424.0</ele><time>2026-03-22T16:34:44.999Z</time></trkpt><trkpt lat="42.74088395205263" lon="11.897710924920307"><ele>426.0</ele><time>2026-03-22T16:34:45.999Z</time></trkpt><trkpt lat="42.74080715817009" lon="11.897451155757983"><ele>428.0</ele><time>2026-03-22T16:34:46.999Z</time></trkpt><trkpt lat="42.74072710626419" lon="11.897193034272375"><ele>428.3333333333333</ele><time>2026-03-22T16:34:47.999Z</time></trkpt><trkpt lat="42.74064975702785" lon="11.89692815201855"><ele>428.66666666666663</ele><time>2026-03-22T16:34:48.999Z</time></trkpt><trkpt lat="42.74057014004132" lon="11.896661043679666"><ele>429.0</ele><time>2026-03-22T16:34:49.999Z</time></trkpt><trkpt lat="42.740491679599074" lon="11.896390691228957"><ele>429.0</ele><time>2026-03-22T16:34:50.999Z</time></trkpt><trkpt lat="42.74041426785977" lon="11.896119891591756"><ele>429.0</ele><time>2026-03-22T16:34:51.999Z</time></trkpt><trkpt lat="42.7403344913635" lon="11.895848351578849"><ele>429.0</ele><time>2026-03-22T16:34:52.999Z</time></trkpt><trkpt lat="42.74025461288583" lon="11.895580778371064"><ele>429.33333333333337</ele><time>2026-03-22T16:34:53.999Z</time></trkpt><trkpt lat="42.74017553559466" lon="11.895316311491017"><ele>429.6666666666667</ele><time>2026-03-22T16:34:54.999Z</time></trkpt><trkpt lat="42.74009712176139" lon="11.895061923986523"><ele>430.0</ele><time>2026-03-22T16:34:55.999Z</time></trkpt><trkpt lat="42.74002869092751" lon="11.894820372056236"><ele>431.0</ele><time>2026-03-22T16:34:56.999Z</time></trkpt><trkpt lat="42.739964606963895" lon="11.894585350138243"><ele>432.0</ele><time>2026-03-22T16:34:57.999Z</time></trkpt><trkpt lat="42.73990157489686" lon="11.894352851175405"><ele>433.0</ele><time>2026-03-22T16:34:58.999Z</time></trkpt><trkpt lat="42.73983543321348" lon="11.894120479934603"><ele>433.6666666666667</ele><time>2026-03-22T16:34:59.999Z</time></trkpt><trkpt lat="42.739769127712705" lon="11.893883631130588"><ele>434.33333333333337</ele><time>2026-03-22T16:35:00.999Z</time></trkpt><trkpt lat="42.73970151658419" lon="11.893650693452582"><ele>435.0</ele><time>2026-03-22T16:35:01.999Z</time></trkpt><trkpt lat="42.7396326790879" lon="11.89341682825352"><ele>435.66666666666663</ele><time>2026-03-22T16:35:02.999Z</time></trkpt><trkpt lat="42.73956454840366" lon="11.89318401366915"><ele>436.3333333333333</ele><time>2026-03-22T16:35:03.999Z</time></trkpt><trkpt lat="42.73949823901247" lon="11.892947331831225"><ele>437.0</ele><time>2026-03-22T16:35:05Z</time></trkpt><trkpt lat="42.73943774386556" lon="11.892701493514776"><ele>437.66666666666663</ele><time>2026-03-22T16:35:06Z</time></trkpt><trkpt lat="42.73939068469286" lon="11.8924540321633"><ele>438.33333333333337</ele><time>2026-03-22T16:35:07Z</time></trkpt><trkpt lat="42.73936662911081" lon="11.892196498347047"><ele>439.0</ele><time>2026-03-22T16:35:08Z</time></trkpt><trkpt lat="42.73936800131784" lon="11.89193904225323"><ele>439.33333333333337</ele><time>2026-03-22T16:35:09Z</time></trkpt><trkpt lat="42.739395481471874" lon="11.891682732117717"><ele>439.66666666666663</ele><time>2026-03-22T16:35:10Z</time></trkpt><trkpt lat="42.739447433044376" lon="11.891433841399158"><ele>440.0</ele><time>2026-03-22T16:35:11Z</time></trkpt><trkpt lat="42.739506754590536" lon="11.891190623951841"><ele>440.0</ele><time>2026-03-22T16:35:12Z</time></trkpt><trkpt lat="42.739566887981624" lon="11.890946270930774"><ele>440.0</ele><time>2026-03-22T16:35:13Z</time></trkpt><trkpt lat="42.73961747370087" lon="11.890701176931938"><ele>440.0</ele><time>2026-03-22T16:35:14Z</time></trkpt><trkpt lat="42.739667832677874" lon="11.890468518690744"><ele>439.66666666666663</ele><time>2026-03-22T16:35:15Z</time></trkpt><trkpt lat="42.73971537548934" lon="11.890247999268556"><ele>439.33333333333337</ele><time>2026-03-22T16:35:16Z</time></trkpt><trkpt lat="42.73974939510675" lon="11.89005352245393"><ele>439.0</ele><time>2026-03-22T16:35:17Z</time></trkpt><trkpt lat="42.73979869730261" lon="11.889816482555828"><ele>439.0</ele><time>2026-03-22T16:35:18Z</time></trkpt><trkpt lat="42.73985786458461" lon="11.889553088810732"><ele>439.0</ele><time>2026-03-22T16:35:19Z</time></trkpt><trkpt lat="42.73990788899622" lon="11.889288324303706"><ele>439.0</ele><time>2026-03-22T16:35:20Z</time></trkpt><trkpt lat="42.73996515515825" lon="11.889016629332248"><ele>437.0</ele><time>2026-03-22T16:35:21Z</time></trkpt><trkpt lat="42.74002127158801" lon="11.888707515115822"><ele>435.0</ele><time>2026-03-22T16:35:22Z</time></trkpt><trkpt lat="42.740083340254934" lon="11.888399449234782"><ele>430.5</ele><time>2026-03-22T16:35:23Z</time></trkpt><trkpt lat="42.740146126986744" lon="11.888083252707105"><ele>426.0</ele><time>2026-03-22T16:35:24Z</time></trkpt><trkpt lat="42.74021302810439" lon="11.887767290266977"><ele>423.5</ele><time>2026-03-22T16:35:25Z</time></trkpt><trkpt lat="42.74028455620002" lon="11.887455406728646"><ele>421.0</ele><time>2026-03-22T16:35:26Z</time></trkpt><trkpt lat="42.740362880939365" lon="11.887140084366536"><ele>421.0</ele><time>2026-03-22T16:35:27Z</time></trkpt><trkpt lat="42.74044425682926" lon="11.886820178221749"><ele>421.0</ele><time>2026-03-22T16:35:28Z</time></trkpt><trkpt lat="42.74051905514607" lon="11.88649629149559"><ele>419.5</ele><time>2026-03-22T16:35:29Z</time></trkpt><trkpt lat="42.74058952656474" lon="11.886166636362042"><ele>418.0</ele><time>2026-03-22T16:35:30Z</time></trkpt><trkpt lat="42.74065831041382" lon="11.88583305605614"><ele>416.5</ele><time>2026-03-22T16:35:31Z</time></trkpt><trkpt lat="42.740728882127804" lon="11.885496971937743"><ele>415.0</ele><time>2026-03-22T16:35:32Z</time></trkpt><trkpt lat="42.74080207425413" lon="11.885155387571267"><ele>412.5</ele><time>2026-03-22T16:35:33Z</time></trkpt><trkpt lat="42.74087613762396" lon="11.884809637812582"><ele>410.0</ele><time>2026-03-22T16:35:34Z</time></trkpt><trkpt lat="42.74095046195212" lon="11.884465564566884"><ele>408.0</ele><time>2026-03-22T16:35:35Z</time></trkpt><trkpt lat="42.74102479325622" lon="11.884118801358891"><ele>406.0</ele><time>2026-03-22T16:35:36Z</time></trkpt><trkpt lat="42.74109897086251" lon="11.883772318324278"><ele>405.0</ele><time>2026-03-22T16:35:37Z</time></trkpt><trkpt lat="42.74117637397919" lon="11.883431081261755"><ele>404.0</ele><time>2026-03-22T16:35:38Z</time></trkpt><trkpt lat="42.741269049128746" lon="11.883099283369447"><ele>404.0</ele><time>2026-03-22T16:35:39Z</time></trkpt><trkpt lat="42.74137848276335" lon="11.882791876641773"><ele>404.0</ele><time>2026-03-22T16:35:40Z</time></trkpt><trkpt lat="42.74149286386528" lon="11.88249828363785"><ele>404.0</ele><time>2026-03-22T16:35:41Z</time></trkpt><trkpt lat="42.741583050280475" lon="11.882199310857334"><ele>404.0</ele><time>2026-03-22T16:35:42Z</time></trkpt><trkpt lat="42.741653961768904" lon="11.881892598834842"><ele>404.5</ele><time>2026-03-22T16:35:43Z</time></trkpt><trkpt lat="42.74170946811046" lon="11.881591474475522"><ele>405.0</ele><time>2026-03-22T16:35:44Z</time></trkpt><trkpt lat="42.741751297869776" lon="11.881292407811483"><ele>405.0</ele><time>2026-03-22T16:35:45Z</time></trkpt><trkpt lat="42.74179536668351" lon="11.881007163226828"><ele>405.0</ele><time>2026-03-22T16:35:46Z</time></trkpt><trkpt lat="42.74183693992412" lon="11.880735411988079"><ele>405.0</ele><time>2026-03-22T16:35:47Z</time></trkpt><trkpt lat="42.741876372052964" lon="11.880481463146966"><ele>404.66666666666663</ele><time>2026-03-22T16:35:48Z</time></trkpt><trkpt lat="42.74190932079732" lon="11.880242981640292"><ele>404.3333333333333</ele><time>2026-03-22T16:35:49Z</time></trkpt><trkpt lat="42.74192482248934" lon="11.880010348752"><ele>404.0</ele><time>2026-03-22T16:35:50Z</time></trkpt><trkpt lat="42.74190812238282" lon="11.879789561027323"><ele>405.0</ele><time>2026-03-22T16:35:51Z</time></trkpt><trkpt lat="42.74186225353281" lon="11.879592353116639"><ele>406.0</ele><time>2026-03-22T16:35:52Z</time></trkpt><trkpt lat="42.74178207645197" lon="11.879402359278041"><ele>407.0</ele><time>2026-03-22T16:35:53Z</time></trkpt><trkpt lat="42.74167729226298" lon="11.879233784746916"><ele>407.3333333333333</ele><time>2026-03-22T16:35:54Z</time></trkpt><trkpt lat="42.74157329008551" lon="11.879066388064947"><ele>407.66666666666663</ele><time>2026-03-22T16:35:55Z</time></trkpt><trkpt lat="42.74147480903092" lon="11.878898069118348"><ele>408.0</ele><time>2026-03-22T16:35:56Z</time></trkpt><trkpt lat="42.74139337718639" lon="11.878735571063645"><ele>408.0</ele><time>2026-03-22T16:35:57Z</time></trkpt><trkpt lat="42.741319019539986" lon="11.878583915372658"><ele>408.0</ele><time>2026-03-22T16:35:58Z</time></trkpt><trkpt lat="42.74125939655499" lon="11.878448462673786"><ele>408.0</ele><time>2026-03-22T16:35:59Z</time></trkpt><trkpt lat="42.741219624514734" lon="11.878331312307484"><ele>408.0</ele><time>2026-03-22T16:36:00Z</time></trkpt><trkpt lat="42.74117515389638" lon="11.878252737803056"><ele>408.0</ele><time>2026-03-22T16:36:01Z</time></trkpt><trkpt lat="42.74119390170121" lon="11.878127932744917"><ele>408.1666666666667</ele><time>2026-03-22T16:36:02Z</time></trkpt><trkpt lat="42.74119470913336" lon="11.878036373713968"><ele>408.33333333333337</ele><time>2026-03-22T16:36:03Z</time></trkpt><trkpt lat="42.741197098497395" lon="11.877948574545375"><ele>408.5</ele><time>2026-03-22T16:36:04Z</time></trkpt><trkpt lat="42.74120325359095" lon="11.87784888289113"><ele>408.6666666666667</ele><time>2026-03-22T16:36:05Z</time></trkpt><trkpt lat="42.741219090055786" lon="11.877733954830122"><ele>408.83333333333337</ele><time>2026-03-22T16:36:06Z</time></trkpt><trkpt lat="42.741244088366635" lon="11.877600157324796"><ele>409.0</ele><time>2026-03-22T16:36:07Z</time></trkpt><trkpt lat="42.741269678047615" lon="11.877450947346192"><ele>408.5</ele><time>2026-03-22T16:36:08Z</time></trkpt><trkpt lat="42.74129245195002" lon="11.877304463484839"><ele>408.0</ele><time>2026-03-22T16:36:09Z</time></trkpt><trkpt lat="42.741314896553256" lon="11.877150741985508"><ele>407.5</ele><time>2026-03-22T16:36:10Z</time></trkpt><trkpt lat="42.741338071526236" lon="11.876987215150656"><ele>407.0</ele><time>2026-03-22T16:36:11Z</time></trkpt><trkpt lat="42.741363776713136" lon="11.876812404723031"><ele>406.25</ele><time>2026-03-22T16:36:12Z</time></trkpt><trkpt lat="42.741391951507325" lon="11.87662926661637"><ele>405.5</ele><time>2026-03-22T16:36:13Z</time></trkpt><trkpt lat="42.74141993671471" lon="11.876447491023795"><ele>404.75</ele><time>2026-03-22T16:36:14Z</time></trkpt><trkpt lat="42.74145072869763" lon="11.876268297695162"><ele>404.0</ele><time>2026-03-22T16:36:15Z</time></trkpt><trkpt lat="42.741481925850955" lon="11.876092761521887"><ele>404.0</ele><time>2026-03-22T16:36:16Z</time></trkpt><trkpt lat="42.74151128083773" lon="11.875915833517539"><ele>404.0</ele><time>2026-03-22T16:36:16.999Z</time></trkpt><trkpt lat="42.74154224297192" lon="11.875735526919765"><ele>404.0</ele><time>2026-03-22T16:36:17.999Z</time></trkpt><trkpt lat="42.74157187963317" lon="11.875552216228192"><ele>404.0</ele><time>2026-03-22T16:36:18.999Z</time></trkpt><trkpt lat="42.7416011586755" lon="11.87536836895326"><ele>404.0</ele><time>2026-03-22T16:36:19.999Z</time></trkpt><trkpt lat="42.741629814110404" lon="11.875186354427669"><ele>404.0</ele><time>2026-03-22T16:36:20.999Z</time></trkpt><trkpt lat="42.7416591876924" lon="11.87500444504537"><ele>404.0</ele><time>2026-03-22T16:36:21.999Z</time></trkpt><trkpt lat="42.74168562726407" lon="11.874825530898152"><ele>404.0</ele><time>2026-03-22T16:36:22.999Z</time></trkpt><trkpt lat="42.74171777749245" lon="11.874641216962802"><ele>403.5</ele><time>2026-03-22T16:36:23.999Z</time></trkpt><trkpt lat="42.74174930168437" lon="11.87445887215161"><ele>403.0</ele><time>2026-03-22T16:36:24.999Z</time></trkpt><trkpt lat="42.741780334276726" lon="11.874278055409462"><ele>402.5</ele><time>2026-03-22T16:36:25.999Z</time></trkpt><trkpt lat="42.74180677370944" lon="11.87409777388605"><ele>402.0</ele><time>2026-03-22T16:36:26.999Z</time></trkpt><trkpt lat="42.74183461368356" lon="11.87391618197717"><ele>400.75</ele><time>2026-03-22T16:36:27.999Z</time></trkpt><trkpt lat="42.74186676918387" lon="11.873731192437273"><ele>399.5</ele><time>2026-03-22T16:36:28.999Z</time></trkpt><trkpt lat="42.741896801469196" lon="11.873551306457735"><ele>398.25</ele><time>2026-03-22T16:36:29.999Z</time></trkpt><trkpt lat="42.741922658732975" lon="11.873369762552944"><ele>397.0</ele><time>2026-03-22T16:36:30.999Z</time></trkpt><trkpt lat="42.7419492183514" lon="11.873185868768928"><ele>396.75</ele><time>2026-03-22T16:36:31.999Z</time></trkpt><trkpt lat="42.74197957633349" lon="11.873000804869779"><ele>396.5</ele><time>2026-03-22T16:36:32.999Z</time></trkpt><trkpt lat="42.74200693118361" lon="11.872817459167502"><ele>396.25</ele><time>2026-03-22T16:36:33.999Z</time></trkpt><trkpt lat="42.742035599172745" lon="11.872634917620484"><ele>396.0</ele><time>2026-03-22T16:36:34.999Z</time></trkpt><trkpt lat="42.74206166515707" lon="11.872457201402447"><ele>394.5</ele><time>2026-03-22T16:36:35.999Z</time></trkpt><trkpt lat="42.74209079176432" lon="11.872282953127193"><ele>393.0</ele><time>2026-03-22T16:36:36.999Z</time></trkpt><trkpt lat="42.74212458550732" lon="11.872105511339122"><ele>391.5</ele><time>2026-03-22T16:36:37.999Z</time></trkpt><trkpt lat="42.74216563079536" lon="11.871930588213178"><ele>390.0</ele><time>2026-03-22T16:36:38.999Z</time></trkpt><trkpt lat="42.742214735564" lon="11.871760382366956"><ele>389.0</ele><time>2026-03-22T16:36:39.999Z</time></trkpt><trkpt lat="42.74227052121039" lon="11.871588410701325"><ele>388.0</ele><time>2026-03-22T16:36:40.999Z</time></trkpt><trkpt lat="42.742333616783334" lon="11.871418750904391"><ele>387.0</ele><time>2026-03-22T16:36:41.999Z</time></trkpt><trkpt lat="42.74240207544214" lon="11.87125333040745"><ele>386.0</ele><time>2026-03-22T16:36:42.999Z</time></trkpt><trkpt lat="42.74247377828902" lon="11.871089356329202"><ele>386.75</ele><time>2026-03-22T16:36:43.999Z</time></trkpt><trkpt lat="42.742540188589295" lon="11.87092946806694"><ele>387.5</ele><time>2026-03-22T16:36:44.999Z</time></trkpt><trkpt lat="42.74259356650572" lon="11.870773942399996"><ele>388.25</ele><time>2026-03-22T16:36:45.999Z</time></trkpt><trkpt lat="42.74263660954023" lon="11.870616354832238"><ele>389.0</ele><time>2026-03-22T16:36:46.999Z</time></trkpt><trkpt lat="42.74265873342909" lon="11.8704536623536"><ele>389.0</ele><time>2026-03-22T16:36:47.999Z</time></trkpt><trkpt lat="42.74265672925929" lon="11.870281245821511"><ele>389.0</ele><time>2026-03-22T16:36:48.999Z</time></trkpt><trkpt lat="42.74263287201219" lon="11.870107216454137"><ele>389.0</ele><time>2026-03-22T16:36:49.999Z</time></trkpt><trkpt lat="42.74260070611262" lon="11.869934953780268"><ele>389.0</ele><time>2026-03-22T16:36:50.999Z</time></trkpt><trkpt lat="42.74256183810778" lon="11.869763655174618"><ele>389.5</ele><time>2026-03-22T16:36:51.999Z</time></trkpt><trkpt lat="42.74251021690839" lon="11.86959638348653"><ele>390.0</ele><time>2026-03-22T16:36:52.999Z</time></trkpt><trkpt lat="42.7424465512783" lon="11.869432794947846"><ele>390.5</ele><time>2026-03-22T16:36:53.999Z</time></trkpt><trkpt lat="42.74237763948206" lon="11.869268985345128"><ele>391.0</ele><time>2026-03-22T16:36:54.999Z</time></trkpt><trkpt lat="42.742306033117906" lon="11.869102744091473"><ele>391.0</ele><time>2026-03-22T16:36:55.999Z</time></trkpt><trkpt lat="42.74223333885106" lon="11.868936553897507"><ele>391.0</ele><time>2026-03-22T16:36:56.999Z</time></trkpt><trkpt lat="42.742157577216524" lon="11.86877626095118"><ele>391.0</ele><time>2026-03-22T16:36:57.999Z</time></trkpt><trkpt lat="42.74208558043247" lon="11.868611498739916"><ele>391.0</ele><time>2026-03-22T16:36:58.999Z</time></trkpt><trkpt lat="42.74202569862468" lon="11.868443663221083"><ele>390.25</ele><time>2026-03-22T16:36:59.999Z</time></trkpt><trkpt lat="42.74197970282397" lon="11.868275758928968"><ele>389.5</ele><time>2026-03-22T16:37:00.999Z</time></trkpt><trkpt lat="42.74194032802479" lon="11.86811971385503"><ele>388.75</ele><time>2026-03-22T16:37:01.999Z</time></trkpt><trkpt lat="42.74190706145082" lon="11.86796904752348"><ele>388.0</ele><time>2026-03-22T16:37:02.999Z</time></trkpt><trkpt lat="42.74187734653905" lon="11.867827111067818"><ele>387.50000000000006</ele><time>2026-03-22T16:37:03.999Z</time></trkpt><trkpt lat="42.74184993011764" lon="11.867697716781256"><ele>387.0</ele><time>2026-03-22T16:37:04.999Z</time></trkpt><trkpt lat="42.7418267163584" lon="11.867579846791104"><ele>386.5</ele><time>2026-03-22T16:37:05.999Z</time></trkpt><trkpt lat="42.74180705041285" lon="11.867475488449466"><ele>386.0</ele><time>2026-03-22T16:37:06.999Z</time></trkpt><trkpt lat="42.741787805955184" lon="11.867377873558334"><ele>385.50000000000006</ele><time>2026-03-22T16:37:07.999Z</time></trkpt><trkpt lat="42.7417685076103" lon="11.86728030760234"><ele>385.0</ele><time>2026-03-22T16:37:08.999Z</time></trkpt><trkpt lat="42.74174899459577" lon="11.867181719100145"><ele>384.8</ele><time>2026-03-22T16:37:09.999Z</time></trkpt><trkpt lat="42.741726140888936" lon="11.867071887471736"><ele>384.6</ele><time>2026-03-22T16:37:11Z</time></trkpt><trkpt lat="42.74170241262968" lon="11.866949014056374"><ele>384.4</ele><time>2026-03-22T16:37:12Z</time></trkpt><trkpt lat="42.74167711394231" lon="11.866815077156641"><ele>384.2</ele><time>2026-03-22T16:37:13Z</time></trkpt><trkpt lat="42.74165468025235" lon="11.86668697021469"><ele>384.0</ele><time>2026-03-22T16:37:14Z</time></trkpt><trkpt lat="42.74163058326909" lon="11.866567214060936"><ele>383.79999999999995</ele><time>2026-03-22T16:37:15Z</time></trkpt><trkpt lat="42.741603511877386" lon="11.866438926874931"><ele>383.59999999999997</ele><time>2026-03-22T16:37:16Z</time></trkpt><trkpt lat="42.741576243083905" lon="11.866303101732035"><ele>383.4</ele><time>2026-03-22T16:37:17Z</time></trkpt><trkpt lat="42.74154808734429" lon="11.866160596765353"><ele>383.2</ele><time>2026-03-22T16:37:18Z</time></trkpt><trkpt lat="42.74152036908571" lon="11.866013006887501"><ele>383.0</ele><time>2026-03-22T16:37:19Z</time></trkpt><trkpt lat="42.74149123039061" lon="11.865862530853306"><ele>383.5</ele><time>2026-03-22T16:37:20Z</time></trkpt><trkpt lat="42.74146187226049" lon="11.86571115144439"><ele>384.0</ele><time>2026-03-22T16:37:21Z</time></trkpt><trkpt lat="42.74143216398477" lon="11.865556783431263"><ele>384.5</ele><time>2026-03-22T16:37:22Z</time></trkpt><trkpt lat="42.74140164368104" lon="11.865406936045382"><ele>385.0</ele><time>2026-03-22T16:37:23Z</time></trkpt><trkpt lat="42.74137942233866" lon="11.865256448856034"><ele>385.8</ele><time>2026-03-22T16:37:24Z</time></trkpt><trkpt lat="42.741367017207544" lon="11.86510750946302"><ele>386.6</ele><time>2026-03-22T16:37:25Z</time></trkpt><trkpt lat="42.74136637979275" lon="11.864961247245772"><ele>387.4</ele><time>2026-03-22T16:37:26Z</time></trkpt><trkpt lat="42.74137878988533" lon="11.864815437377288"><ele>388.2</ele><time>2026-03-22T16:37:27Z</time></trkpt><trkpt lat="42.74142058326109" lon="11.864682262420738"><ele>389.0</ele><time>2026-03-22T16:37:28Z</time></trkpt><trkpt lat="42.74149392877357" lon="11.864584183896293"><ele>389.0</ele><time>2026-03-22T16:37:29Z</time></trkpt><trkpt lat="42.74159509428116" lon="11.864530340780416"><ele>389.0</ele><time>2026-03-22T16:37:30Z</time></trkpt><trkpt lat="42.74170029563314" lon="11.864514591434965"><ele>389.0</ele><time>2026-03-22T16:37:31Z</time></trkpt><trkpt lat="42.74181169022369" lon="11.864549903262882"><ele>389.0</ele><time>2026-03-22T16:37:32Z</time></trkpt><trkpt lat="42.74192312967725" lon="11.864608524761554"><ele>389.0</ele><time>2026-03-22T16:37:33Z</time></trkpt><trkpt lat="42.74202440806573" lon="11.864662257555356"><ele>389.2</ele><time>2026-03-22T16:37:34Z</time></trkpt><trkpt lat="42.74212787293532" lon="11.864689689387605"><ele>389.4</ele><time>2026-03-22T16:37:35Z</time></trkpt><trkpt lat="42.74222958292789" lon="11.864684301282672"><ele>389.6</ele><time>2026-03-22T16:37:36Z</time></trkpt><trkpt lat="42.742314080948454" lon="11.864634611687043"><ele>389.8</ele><time>2026-03-22T16:37:37Z</time></trkpt><trkpt lat="42.742377815170656" lon="11.864532269348475"><ele>390.0</ele><time>2026-03-22T16:37:38Z</time></trkpt><trkpt lat="42.742409596089715" lon="11.864397342165907"><ele>392.2</ele><time>2026-03-22T16:37:39Z</time></trkpt><trkpt lat="42.74241124436247" lon="11.864258942541746"><ele>394.4</ele><time>2026-03-22T16:37:40Z</time></trkpt><trkpt lat="42.74241657137656" lon="11.864115468530851"><ele>396.6</ele><time>2026-03-22T16:37:41Z</time></trkpt><trkpt lat="42.742449819426746" lon="11.863976129345398"><ele>398.8</ele><time>2026-03-22T16:37:42Z</time></trkpt><trkpt lat="42.742510701748515" lon="11.863851341693838"><ele>401.0</ele><time>2026-03-22T16:37:43Z</time></trkpt><trkpt lat="42.74260167566981" lon="11.863767517972201"><ele>401.0</ele><time>2026-03-22T16:37:44Z</time></trkpt><trkpt lat="42.742712137821826" lon="11.863722284708354"><ele>401.0</ele><time>2026-03-22T16:37:45Z</time></trkpt><trkpt lat="42.7428213076508" lon="11.863680107892321"><ele>401.0</ele><time>2026-03-22T16:37:46Z</time></trkpt><trkpt lat="42.74292089606186" lon="11.863621031145254"><ele>401.0</ele><time>2026-03-22T16:37:47Z</time></trkpt><trkpt lat="42.74301739480578" lon="11.863559397346268"><ele>401.0</ele><time>2026-03-22T16:37:48Z</time></trkpt><trkpt lat="42.743113574851144" lon="11.863498787143078"><ele>399.0</ele><time>2026-03-22T16:37:49Z</time></trkpt><trkpt lat="42.74321483411127" lon="11.863435656603"><ele>397.0</ele><time>2026-03-22T16:37:50Z</time></trkpt><trkpt lat="42.7433201871984" lon="11.863363891514002"><ele>395.0</ele><time>2026-03-22T16:37:51Z</time></trkpt><trkpt lat="42.74342690842955" lon="11.863291076608203"><ele>393.0</ele><time>2026-03-22T16:37:52Z</time></trkpt><trkpt lat="42.74353012599313" lon="11.863222480294267"><ele>393.25</ele><time>2026-03-22T16:37:53Z</time></trkpt><trkpt lat="42.743632813903176" lon="11.863164266896105"><ele>393.5</ele><time>2026-03-22T16:37:54Z</time></trkpt><trkpt lat="42.74374195202205" lon="11.863113892727656"><ele>393.75</ele><time>2026-03-22T16:37:55Z</time></trkpt><trkpt lat="42.74385994909507" lon="11.863072214059603"><ele>394.0</ele><time>2026-03-22T16:37:56Z</time></trkpt><trkpt lat="42.743989647585984" lon="11.863056564491224"><ele>394.0</ele><time>2026-03-22T16:37:57Z</time></trkpt><trkpt lat="42.74411839898376" lon="11.863057048451102"><ele>394.0</ele><time>2026-03-22T16:37:58Z</time></trkpt><trkpt lat="42.744242784167" lon="11.863060429134242"><ele>394.0</ele><time>2026-03-22T16:37:59Z</time></trkpt><trkpt lat="42.74435926160808" lon="11.863056036062256"><ele>394.0</ele><time>2026-03-22T16:38:00Z</time></trkpt><trkpt lat="42.74447546637746" lon="11.863057629270028"><ele>392.79999999999995</ele><time>2026-03-22T16:38:01Z</time></trkpt><trkpt lat="42.7445898686427" lon="11.86306363278825"><ele>391.59999999999997</ele><time>2026-03-22T16:38:02Z</time></trkpt><trkpt lat="42.744701100472994" lon="11.863067989783818"><ele>390.4</ele><time>2026-03-22T16:38:03Z</time></trkpt><trkpt lat="42.74481138228241" lon="11.863070411946534"><ele>389.2</ele><time>2026-03-22T16:38:04Z</time></trkpt><trkpt lat="42.7449222737524" lon="11.86307647381796"><ele>388.0</ele><time>2026-03-22T16:38:05Z</time></trkpt><trkpt lat="42.745032586663974" lon="11.8630829794047"><ele>388.0</ele><time>2026-03-22T16:38:06Z</time></trkpt><trkpt lat="42.74514512396103" lon="11.863083493593107"><ele>388.0</ele><time>2026-03-22T16:38:07Z</time></trkpt><trkpt lat="42.745261028166716" lon="11.863088181663507"><ele>388.0</ele><time>2026-03-22T16:38:08Z</time></trkpt><trkpt lat="42.74538204025646" lon="11.86309672211333"><ele>388.0</ele><time>2026-03-22T16:38:09Z</time></trkpt><trkpt lat="42.74550323799818" lon="11.863104552702715"><ele>386.0</ele><time>2026-03-22T16:38:10Z</time></trkpt><trkpt lat="42.74562607696432" lon="11.863109748352322"><ele>384.0</ele><time>2026-03-22T16:38:11Z</time></trkpt><trkpt lat="42.74575050150784" lon="11.863110879909506"><ele>382.0</ele><time>2026-03-22T16:38:12Z</time></trkpt><trkpt lat="42.745875640044275" lon="11.8631138951203"><ele>380.0</ele><time>2026-03-22T16:38:13Z</time></trkpt><trkpt lat="42.74600689087083" lon="11.863133288733229"><ele>379.25</ele><time>2026-03-22T16:38:14Z</time></trkpt><trkpt lat="42.7461382387478" lon="11.863150185074122"><ele>378.5</ele><time>2026-03-22T16:38:15Z</time></trkpt><trkpt lat="42.74627584647541" lon="11.863193339842889"><ele>377.75</ele><time>2026-03-22T16:38:16Z</time></trkpt><trkpt lat="42.746407384148576" lon="11.863205622698246"><ele>377.0</ele><time>2026-03-22T16:38:17Z</time></trkpt><trkpt lat="42.746546511783244" lon="11.863228344506789"><ele>377.0</ele><time>2026-03-22T16:38:17.999Z</time></trkpt><trkpt lat="42.746683477449736" lon="11.86322433613274"><ele>377.0</ele><time>2026-03-22T16:38:18.999Z</time></trkpt><trkpt lat="42.74682084825959" lon="11.863209233346652"><ele>377.0</ele><time>2026-03-22T16:38:19.999Z</time></trkpt><trkpt lat="42.746959738735455" lon="11.863192620355862"><ele>377.0</ele><time>2026-03-22T16:38:20.999Z</time></trkpt><trkpt lat="42.74709574335069" lon="11.863164169396057"><ele>373.5</ele><time>2026-03-22T16:38:21.999Z</time></trkpt><trkpt lat="42.74723241174729" lon="11.863142459440363"><ele>370.0</ele><time>2026-03-22T16:38:22.999Z</time></trkpt><trkpt lat="42.74736845474302" lon="11.863121111315616"><ele>366.5</ele><time>2026-03-22T16:38:23.999Z</time></trkpt><trkpt lat="42.74750426468898" lon="11.863093946241914"><ele>363.0</ele><time>2026-03-22T16:38:24.999Z</time></trkpt><trkpt lat="42.747635508325395" lon="11.863053353388565"><ele>361.0</ele><time>2026-03-22T16:38:25.999Z</time></trkpt><trkpt lat="42.74777604311147" lon="11.863025578164343"><ele>359.0</ele><time>2026-03-22T16:38:26.999Z</time></trkpt><trkpt lat="42.74792054134026" lon="11.862998491041921"><ele>357.0</ele><time>2026-03-22T16:38:27.999Z</time></trkpt><trkpt lat="42.74807231103132" lon="11.862973472215526"><ele>355.0</ele><time>2026-03-22T16:38:28.999Z</time></trkpt><trkpt lat="42.74822596582113" lon="11.86294865763022"><ele>355.0</ele><time>2026-03-22T16:38:29.999Z</time></trkpt><trkpt lat="42.748381090720514" lon="11.862924341152638"><ele>355.0</ele><time>2026-03-22T16:38:30.999Z</time></trkpt><trkpt lat="42.74854363950162" lon="11.862907834704782"><ele>355.0</ele><time>2026-03-22T16:38:31.999Z</time></trkpt><trkpt lat="42.7487082077259" lon="11.862863895909666"><ele>355.3333333333333</ele><time>2026-03-22T16:38:32.999Z</time></trkpt><trkpt lat="42.74886876887433" lon="11.86282929264632"><ele>355.6666666666667</ele><time>2026-03-22T16:38:33.999Z</time></trkpt><trkpt lat="42.749027850606254" lon="11.86279045507157"><ele>356.0</ele><time>2026-03-22T16:38:34.999Z</time></trkpt><trkpt lat="42.74918396805045" lon="11.862757634948524"><ele>356.0</ele><time>2026-03-22T16:38:35.999Z</time></trkpt><trkpt lat="42.749341548240686" lon="11.862722755235056"><ele>356.0</ele><time>2026-03-22T16:38:36.999Z</time></trkpt><trkpt lat="42.74949972803311" lon="11.86269566616104"><ele>356.0</ele><time>2026-03-22T16:38:37.999Z</time></trkpt><trkpt lat="42.74966002309374" lon="11.862663303806677"><ele>358.33333333333337</ele><time>2026-03-22T16:38:38.999Z</time></trkpt><trkpt lat="42.74982297883393" lon="11.862633376675092"><ele>360.6666666666667</ele><time>2026-03-22T16:38:39.999Z</time></trkpt><trkpt lat="42.74998931729323" lon="11.862607788623661"><ele>363.0</ele><time>2026-03-22T16:38:40.999Z</time></trkpt><trkpt lat="42.75015984691004" lon="11.862590584989439"><ele>359.6666666666667</ele><time>2026-03-22T16:38:41.999Z</time></trkpt><trkpt lat="42.750329219069336" lon="11.862573600195342"><ele>356.33333333333337</ele><time>2026-03-22T16:38:42.999Z</time></trkpt><trkpt lat="42.75050320030307" lon="11.862567113009648"><ele>353.0</ele><time>2026-03-22T16:38:43.999Z</time></trkpt><trkpt lat="42.75067549602363" lon="11.862562679397023"><ele>353.0</ele><time>2026-03-22T16:38:44.999Z</time></trkpt><trkpt lat="42.750847777575736" lon="11.862566133108922"><ele>353.0</ele><time>2026-03-22T16:38:45.999Z</time></trkpt><trkpt lat="42.75101897480337" lon="11.862570292413173"><ele>353.0</ele><time>2026-03-22T16:38:46.999Z</time></trkpt><trkpt lat="42.75118896845055" lon="11.862574713182044"><ele>349.6666666666667</ele><time>2026-03-22T16:38:47.999Z</time></trkpt><trkpt lat="42.75135856830111" lon="11.862586399257145"><ele>346.3333333333333</ele><time>2026-03-22T16:38:48.999Z</time></trkpt><trkpt lat="42.75152674376492" lon="11.862607486565176"><ele>343.0</ele><time>2026-03-22T16:38:49.999Z</time></trkpt><trkpt lat="42.75168821305557" lon="11.86263984319008"><ele>339.75</ele><time>2026-03-22T16:38:50.999Z</time></trkpt><trkpt lat="42.75183569013235" lon="11.862674689698963"><ele>336.5</ele><time>2026-03-22T16:38:51.999Z</time></trkpt><trkpt lat="42.75195832526138" lon="11.862722741711886"><ele>333.25</ele><time>2026-03-22T16:38:52.999Z</time></trkpt><trkpt lat="42.752060050963806" lon="11.862786496986226"><ele>330.0</ele><time>2026-03-22T16:38:53.999Z</time></trkpt><trkpt lat="42.75212467683405" lon="11.862879898844076"><ele>330.0</ele><time>2026-03-22T16:38:54.999Z</time></trkpt><trkpt lat="42.75214495786205" lon="11.86299190998799"><ele>330.0</ele><time>2026-03-22T16:38:55.999Z</time></trkpt><trkpt lat="42.752123392676246" lon="11.86311846288145"><ele>330.0</ele><time>2026-03-22T16:38:56.999Z</time></trkpt><trkpt lat="42.75206617146341" lon="11.863216138554902"><ele>330.0</ele><time>2026-03-22T16:38:57.999Z</time></trkpt><trkpt lat="42.75198758535607" lon="11.863281508917147"><ele>330.0</ele><time>2026-03-22T16:38:58.999Z</time></trkpt><trkpt lat="42.75188589402468" lon="11.8632568176623"><ele>329.8</ele><time>2026-03-22T16:38:59.999Z</time></trkpt><trkpt lat="42.75177455272681" lon="11.863257949986423"><ele>329.6</ele><time>2026-03-22T16:39:00.999Z</time></trkpt><trkpt lat="42.751665129567726" lon="11.863256204207328"><ele>329.4</ele><time>2026-03-22T16:39:01.999Z</time></trkpt><trkpt lat="42.75155751447193" lon="11.863256204206374"><ele>329.2</ele><time>2026-03-22T16:39:02.999Z</time></trkpt><trkpt lat="42.75145878167466" lon="11.863256204207753"><ele>329.0</ele><time>2026-03-22T16:39:03.999Z</time></trkpt><trkpt lat="42.7513454899661" lon="11.863258841966283"><ele>329.0</ele><time>2026-03-22T16:39:04.999Z</time></trkpt><trkpt lat="42.75122502216208" lon="11.863262936770116"><ele>329.0</ele><time>2026-03-22T16:39:05.999Z</time></trkpt><trkpt lat="42.7510974387051" lon="11.863276445840414"><ele>329.0</ele><time>2026-03-22T16:39:06.999Z</time></trkpt><trkpt lat="42.75096271226738" lon="11.863321156126288"><ele>329.0</ele><time>2026-03-22T16:39:07.999Z</time></trkpt><trkpt lat="42.75083640766474" lon="11.863410287632977"><ele>326.75</ele><time>2026-03-22T16:39:08.999Z</time></trkpt><trkpt lat="42.750722274868224" lon="11.863519600525084"><ele>324.5</ele><time>2026-03-22T16:39:09.999Z</time></trkpt><trkpt lat="42.75060927527684" lon="11.86363303548166"><ele>322.25</ele><time>2026-03-22T16:39:10.999Z</time></trkpt><trkpt lat="42.750494496045974" lon="11.863748256827757"><ele>320.0</ele><time>2026-03-22T16:39:11.999Z</time></trkpt><trkpt lat="42.75038146799428" lon="11.863861393255975"><ele>320.0</ele><time>2026-03-22T16:39:12.999Z</time></trkpt><trkpt lat="42.75026734090102" lon="11.86397347117299"><ele>320.0</ele><time>2026-03-22T16:39:13.999Z</time></trkpt><trkpt lat="42.75015461479432" lon="11.864085330215158"><ele>320.0</ele><time>2026-03-22T16:39:14.999Z</time></trkpt><trkpt lat="42.75004188792337" lon="11.864196985773313"><ele>320.0</ele><time>2026-03-22T16:39:15.999Z</time></trkpt><trkpt lat="42.749934794611036" lon="11.86430541286056"><ele>319.0</ele><time>2026-03-22T16:39:17Z</time></trkpt><trkpt lat="42.74983022023744" lon="11.864411634901996"><ele>318.0</ele><time>2026-03-22T16:39:18Z</time></trkpt><trkpt lat="42.7497413069877" lon="11.864527924331128"><ele>317.0</ele><time>2026-03-22T16:39:19Z</time></trkpt><trkpt lat="42.74967733889854" lon="11.864652409584073"><ele>316.0</ele><time>2026-03-22T16:39:20Z</time></trkpt><trkpt lat="42.7496578809622" lon="11.864789924317764"><ele>316.0</ele><time>2026-03-22T16:39:21Z</time></trkpt><trkpt lat="42.74966448771691" lon="11.864907018164542"><ele>316.0</ele><time>2026-03-22T16:39:22Z</time></trkpt><trkpt lat="42.749708033762296" lon="11.864993933869046"><ele>316.0</ele><time>2026-03-22T16:39:23Z</time></trkpt><trkpt lat="42.74977040143687" lon="11.86503073579837"><ele>316.0</ele><time>2026-03-22T16:39:24Z</time></trkpt><trkpt lat="42.749865918939605" lon="11.865035047724401"><ele>316.0</ele><time>2026-03-22T16:39:25Z</time></trkpt><trkpt lat="42.75001822908015" lon="11.86500535815781"><ele>316.0</ele><time>2026-03-22T16:39:26Z</time></trkpt><trkpt lat="42.750193535286414" lon="11.864960581391129"><ele>316.0</ele><time>2026-03-22T16:39:27Z</time></trkpt><trkpt lat="42.75037260205642" lon="11.86492653483325"><ele>316.0</ele><time>2026-03-22T16:39:28Z</time></trkpt><trkpt lat="42.75057708343974" lon="11.864905701867544"><ele>313.0</ele><time>2026-03-22T16:39:29Z</time></trkpt><trkpt lat="42.75079374539491" lon="11.864881775361246"><ele>310.0</ele><time>2026-03-22T16:39:30Z</time></trkpt><trkpt lat="42.75101213166884" lon="11.864849506608179"><ele>307.0</ele><time>2026-03-22T16:39:31Z</time></trkpt><trkpt lat="42.751234892441474" lon="11.864779783581218"><ele>304.3333333333333</ele><time>2026-03-22T16:39:32Z</time></trkpt><trkpt lat="42.751444129090174" lon="11.864720190344192"><ele>301.6666666666667</ele><time>2026-03-22T16:39:33Z</time></trkpt><trkpt lat="42.75164305663198" lon="11.864669248933826"><ele>299.0</ele><time>2026-03-22T16:39:34Z</time></trkpt><trkpt lat="42.75184000835898" lon="11.86463955504329"><ele>299.33333333333337</ele><time>2026-03-22T16:39:35Z</time></trkpt><trkpt lat="42.75202853302592" lon="11.864645425716537"><ele>299.6666666666667</ele><time>2026-03-22T16:39:36Z</time></trkpt><trkpt lat="42.75220346499633" lon="11.864697319622861"><ele>300.0</ele><time>2026-03-22T16:39:37Z</time></trkpt><trkpt lat="42.75236104756654" lon="11.864808200609698"><ele>300.0</ele><time>2026-03-22T16:39:38Z</time></trkpt><trkpt lat="42.752510974069615" lon="11.864939337684929"><ele>300.0</ele><time>2026-03-22T16:39:39Z</time></trkpt><trkpt lat="42.75265957106893" lon="11.865088957716239"><ele>300.0</ele><time>2026-03-22T16:39:40Z</time></trkpt><trkpt lat="42.752799337579404" lon="11.865211208155381"><ele>296.6666666666667</ele><time>2026-03-22T16:39:41Z</time></trkpt><trkpt lat="42.75295515956188" lon="11.865332873458119"><ele>293.33333333333337</ele><time>2026-03-22T16:39:42Z</time></trkpt><trkpt lat="42.75312375700942" lon="11.86541924059552"><ele>290.0</ele><time>2026-03-22T16:39:43Z</time></trkpt><trkpt lat="42.75329558995409" lon="11.865461631473938"><ele>290.0</ele><time>2026-03-22T16:39:44Z</time></trkpt><trkpt lat="42.75346741387116" lon="11.86548050407391"><ele>290.0</ele><time>2026-03-22T16:39:45Z</time></trkpt><trkpt lat="42.75363847811226" lon="11.8654928691571"><ele>290.0</ele><time>2026-03-22T16:39:46Z</time></trkpt><trkpt lat="42.753806712254715" lon="11.865520322193925"><ele>290.33333333333337</ele><time>2026-03-22T16:39:47Z</time></trkpt><trkpt lat="42.7539828887594" lon="11.865543934239646"><ele>290.6666666666667</ele><time>2026-03-22T16:39:48Z</time></trkpt><trkpt lat="42.75416708183987" lon="11.865558142188524"><ele>291.0</ele><time>2026-03-22T16:39:49Z</time></trkpt><trkpt lat="42.7543544113391" lon="11.865572371615082"><ele>290.0</ele><time>2026-03-22T16:39:50Z</time></trkpt><trkpt lat="42.754546010096824" lon="11.865582409445093"><ele>289.0</ele><time>2026-03-22T16:39:51Z</time></trkpt><trkpt lat="42.75474051974536" lon="11.86559520237789"><ele>288.0</ele><time>2026-03-22T16:39:52Z</time></trkpt><trkpt lat="42.75493164635202" lon="11.865608883818874"><ele>288.0</ele><time>2026-03-22T16:39:53Z</time></trkpt><trkpt lat="42.75512651324542" lon="11.8656048721142"><ele>288.0</ele><time>2026-03-22T16:39:54Z</time></trkpt><trkpt lat="42.75530952087122" lon="11.86559626200826"><ele>288.0</ele><time>2026-03-22T16:39:55Z</time></trkpt><trkpt lat="42.75549323632554" lon="11.865580712982895"><ele>284.6666666666667</ele><time>2026-03-22T16:39:56Z</time></trkpt><trkpt lat="42.75567378206197" lon="11.865578944007986"><ele>281.33333333333337</ele><time>2026-03-22T16:39:57Z</time></trkpt><trkpt lat="42.75585015140947" lon="11.865588759258468"><ele>278.0</ele><time>2026-03-22T16:39:58Z</time></trkpt><trkpt lat="42.756022432878495" lon="11.865609679450321"><ele>276.33333333333337</ele><time>2026-03-22T16:39:59Z</time></trkpt><trkpt lat="42.756196826029" lon="11.865640748111481"><ele>274.6666666666667</ele><time>2026-03-22T16:40:00Z</time></trkpt><trkpt lat="42.75636609623277" lon="11.865651089257959"><ele>273.0</ele><time>2026-03-22T16:40:01Z</time></trkpt><trkpt lat="42.75653206901007" lon="11.865663063733036"><ele>273.0</ele><time>2026-03-22T16:40:02Z</time></trkpt><trkpt lat="42.75669744043019" lon="11.865683037471646"><ele>273.0</ele><time>2026-03-22T16:40:03Z</time></trkpt><trkpt lat="42.75686535396983" lon="11.86570150948859"><ele>273.0</ele><time>2026-03-22T16:40:04Z</time></trkpt><trkpt lat="42.757033360655804" lon="11.865710347311829"><ele>269.6666666666667</ele><time>2026-03-22T16:40:05Z</time></trkpt><trkpt lat="42.75719801340796" lon="11.865705987948507"><ele>266.33333333333337</ele><time>2026-03-22T16:40:06Z</time></trkpt><trkpt lat="42.75735536081839" lon="11.865681496383043"><ele>263.0</ele><time>2026-03-22T16:40:07Z</time></trkpt><trkpt lat="42.75750701873697" lon="11.865625341526599"><ele>263.0</ele><time>2026-03-22T16:40:08Z</time></trkpt><trkpt lat="42.75764553201136" lon="11.865532519866644"><ele>263.0</ele><time>2026-03-22T16:40:09Z</time></trkpt><trkpt lat="42.75777246227201" lon="11.865403317430108"><ele>263.0</ele><time>2026-03-22T16:40:10Z</time></trkpt><trkpt lat="42.75787699413025" lon="11.865227146379226"><ele>261.0</ele><time>2026-03-22T16:40:11Z</time></trkpt><trkpt lat="42.75796270439734" lon="11.865044312780418"><ele>259.0</ele><time>2026-03-22T16:40:12Z</time></trkpt><trkpt lat="42.758042187506156" lon="11.864863733862428"><ele>257.0</ele><time>2026-03-22T16:40:13Z</time></trkpt><trkpt lat="42.758146763320234" lon="11.864706528271354"><ele>257.0</ele><time>2026-03-22T16:40:14Z</time></trkpt><trkpt lat="42.75828265414251" lon="11.864578767205039"><ele>257.0</ele><time>2026-03-22T16:40:15Z</time></trkpt><trkpt lat="42.758454103126965" lon="11.864481813694418"><ele>257.0</ele><time>2026-03-22T16:40:16Z</time></trkpt><trkpt lat="42.75862992004098" lon="11.864417004611566"><ele>257.0</ele><time>2026-03-22T16:40:17Z</time></trkpt><trkpt lat="42.75881087472611" lon="11.864350780370355"><ele>257.0</ele><time>2026-03-22T16:40:18Z</time></trkpt><trkpt lat="42.75899584487443" lon="11.864283026846078"><ele>257.0</ele><time>2026-03-22T16:40:19Z</time></trkpt><trkpt lat="42.759179287291126" lon="11.86421215191415"><ele>257.0</ele><time>2026-03-22T16:40:20Z</time></trkpt><trkpt lat="42.75936126078833" lon="11.864130361458255"><ele>257.0</ele><time>2026-03-22T16:40:21Z</time></trkpt><trkpt lat="42.75954358026537" lon="11.864037806821301"><ele>257.0</ele><time>2026-03-22T16:40:22Z</time></trkpt><trkpt lat="42.759728222667256" lon="11.86394531388196"><ele>255.33333333333334</ele><time>2026-03-22T16:40:23Z</time></trkpt><trkpt lat="42.75991135450206" lon="11.863856577442494"><ele>253.66666666666669</ele><time>2026-03-22T16:40:24Z</time></trkpt><trkpt lat="42.76008630833555" lon="11.863770558296046"><ele>252.0</ele><time>2026-03-22T16:40:25Z</time></trkpt><trkpt lat="42.76025271734997" lon="11.86369124655103"><ele>251.66666666666669</ele><time>2026-03-22T16:40:26Z</time></trkpt><trkpt lat="42.760408360061454" lon="11.863603815977243"><ele>251.33333333333334</ele><time>2026-03-22T16:40:27Z</time></trkpt><trkpt lat="42.76055055261029" lon="11.863485166438819"><ele>251.0</ele><time>2026-03-22T16:40:27.999Z</time></trkpt><trkpt lat="42.76067693043626" lon="11.863334227287275"><ele>251.0</ele><time>2026-03-22T16:40:28.999Z</time></trkpt><trkpt lat="42.76077375044238" lon="11.863138936197826"><ele>251.0</ele><time>2026-03-22T16:40:29.999Z</time></trkpt><trkpt lat="42.76084615358877" lon="11.862906131010677"><ele>251.0</ele><time>2026-03-22T16:40:30.999Z</time></trkpt><trkpt lat="42.76089492554352" lon="11.862656084856082"><ele>251.0</ele><time>2026-03-22T16:40:31.999Z</time></trkpt><trkpt lat="42.760940781518634" lon="11.862386074245096"><ele>251.0</ele><time>2026-03-22T16:40:32.999Z</time></trkpt><trkpt lat="42.76099344288927" lon="11.862127024690254"><ele>251.0</ele><time>2026-03-22T16:40:33.999Z</time></trkpt><trkpt lat="42.761051550305595" lon="11.86186718712021"><ele>250.33333333333334</ele><time>2026-03-22T16:40:34.999Z</time></trkpt><trkpt lat="42.76110713801621" lon="11.861606122590649"><ele>249.66666666666669</ele><time>2026-03-22T16:40:35.999Z</time></trkpt><trkpt lat="42.76115906112543" lon="11.861341572882285"><ele>249.0</ele><time>2026-03-22T16:40:36.999Z</time></trkpt><trkpt lat="42.76120765356646" lon="11.861079370870083"><ele>249.0</ele><time>2026-03-22T16:40:37.999Z</time></trkpt><trkpt lat="42.761258196254644" lon="11.860818133845642"><ele>249.0</ele><time>2026-03-22T16:40:38.999Z</time></trkpt><trkpt lat="42.761307948698516" lon="11.860556271468237"><ele>249.0</ele><time>2026-03-22T16:40:39.999Z</time></trkpt><trkpt lat="42.76135599356064" lon="11.860291206893432"><ele>249.33333333333331</ele><time>2026-03-22T16:40:40.999Z</time></trkpt><trkpt lat="42.761402887249126" lon="11.860028128034676"><ele>249.66666666666666</ele><time>2026-03-22T16:40:41.999Z</time></trkpt><trkpt lat="42.76145273578329" lon="11.859766966737334"><ele>250.0</ele><time>2026-03-22T16:40:42.999Z</time></trkpt><trkpt lat="42.76150191929563" lon="11.859502329111153"><ele>251.0</ele><time>2026-03-22T16:40:43.999Z</time></trkpt><trkpt lat="42.76155227380016" lon="11.859235887996276"><ele>252.0</ele><time>2026-03-22T16:40:44.999Z</time></trkpt><trkpt lat="42.76160422641119" lon="11.858970777477554"><ele>253.0</ele><time>2026-03-22T16:40:45.999Z</time></trkpt><trkpt lat="42.761661352157006" lon="11.85870820634557"><ele>253.33333333333331</ele><time>2026-03-22T16:40:46.999Z</time></trkpt><trkpt lat="42.761727157966064" lon="11.858446234907028"><ele>253.66666666666669</ele><time>2026-03-22T16:40:47.999Z</time></trkpt><trkpt lat="42.7618052485871" lon="11.85819378317222"><ele>254.0</ele><time>2026-03-22T16:40:48.999Z</time></trkpt><trkpt lat="42.76189843890127" lon="11.85794345108839"><ele>252.0</ele><time>2026-03-22T16:40:49.999Z</time></trkpt><trkpt lat="42.76199991293239" lon="11.857701978873687"><ele>250.0</ele><time>2026-03-22T16:40:50.999Z</time></trkpt><trkpt lat="42.76209975928099" lon="11.85745974026115"><ele>248.0</ele><time>2026-03-22T16:40:51.999Z</time></trkpt><trkpt lat="42.762212937071034" lon="11.857230416419759"><ele>248.0</ele><time>2026-03-22T16:40:52.999Z</time></trkpt><trkpt lat="42.76234714564347" lon="11.85702540985807"><ele>248.0</ele><time>2026-03-22T16:40:53.999Z</time></trkpt><trkpt lat="42.76249832522817" lon="11.856841314862017"><ele>248.0</ele><time>2026-03-22T16:40:54.999Z</time></trkpt><trkpt lat="42.76266982879993" lon="11.85668448271482"><ele>247.66666666666669</ele><time>2026-03-22T16:40:55.999Z</time></trkpt><trkpt lat="42.76285771073308" lon="11.856552652493846"><ele>247.33333333333331</ele><time>2026-03-22T16:40:56.999Z</time></trkpt><trkpt lat="42.76305425488465" lon="11.856442525252971"><ele>247.0</ele><time>2026-03-22T16:40:57.999Z</time></trkpt><trkpt lat="42.76325867262437" lon="11.856358118319143"><ele>247.0</ele><time>2026-03-22T16:40:58.999Z</time></trkpt><trkpt lat="42.76347064493179" lon="11.856308042478977"><ele>247.0</ele><time>2026-03-22T16:40:59.999Z</time></trkpt><trkpt lat="42.76368687936007" lon="11.856290338843367"><ele>247.0</ele><time>2026-03-22T16:41:00.999Z</time></trkpt><trkpt lat="42.76390365475746" lon="11.85630327946687"><ele>247.0</ele><time>2026-03-22T16:41:01.999Z</time></trkpt><trkpt lat="42.7641168602919" lon="11.85631595424384"><ele>247.0</ele><time>2026-03-22T16:41:02.999Z</time></trkpt><trkpt lat="42.76432399406748" lon="11.856317903926147"><ele>247.0</ele><time>2026-03-22T16:41:03.999Z</time></trkpt><trkpt lat="42.764524774612774" lon="11.856313639721588"><ele>247.0</ele><time>2026-03-22T16:41:04.999Z</time></trkpt><trkpt lat="42.764721779650806" lon="11.85631810177331"><ele>247.0</ele><time>2026-03-22T16:41:05.999Z</time></trkpt><trkpt lat="42.76492214670605" lon="11.85632242025362"><ele>247.0</ele><time>2026-03-22T16:41:06.999Z</time></trkpt><trkpt lat="42.765127402351496" lon="11.85631783035563"><ele>247.0</ele><time>2026-03-22T16:41:07.999Z</time></trkpt><trkpt lat="42.765334236699815" lon="11.856311716079235"><ele>247.0</ele><time>2026-03-22T16:41:08.999Z</time></trkpt><trkpt lat="42.76554355544795" lon="11.856303681471426"><ele>247.0</ele><time>2026-03-22T16:41:09.999Z</time></trkpt><trkpt lat="42.765747116953946" lon="11.856292908115602"><ele>247.0</ele><time>2026-03-22T16:41:10.999Z</time></trkpt><trkpt lat="42.76594179107776" lon="11.856278238309207"><ele>247.0</ele><time>2026-03-22T16:41:11.999Z</time></trkpt><trkpt lat="42.766137095353166" lon="11.856256129959592"><ele>247.0</ele><time>2026-03-22T16:41:12.999Z</time></trkpt><trkpt lat="42.76633166590151" lon="11.856229651143035"><ele>248.33333333333331</ele><time>2026-03-22T16:41:13.999Z</time></trkpt><trkpt lat="42.76653077237626" lon="11.856199516558316"><ele>249.66666666666669</ele><time>2026-03-22T16:41:14.999Z</time></trkpt><trkpt lat="42.76673298716903" lon="11.856164657786271"><ele>251.0</ele><time>2026-03-22T16:41:15.999Z</time></trkpt><trkpt lat="42.76693685987761" lon="11.856126987483233"><ele>251.66666666666669</ele><time>2026-03-22T16:41:16.999Z</time></trkpt><trkpt lat="42.767141422463716" lon="11.856092666477828"><ele>252.33333333333331</ele><time>2026-03-22T16:41:17.999Z</time></trkpt><trkpt lat="42.7673473348629" lon="11.856057329584134"><ele>253.0</ele><time>2026-03-22T16:41:18.999Z</time></trkpt><trkpt lat="42.767552167305055" lon="11.856021593575134"><ele>253.0</ele><time>2026-03-22T16:41:19.999Z</time></trkpt><trkpt lat="42.76775728163786" lon="11.855990060972596"><ele>253.0</ele><time>2026-03-22T16:41:20.999Z</time></trkpt><trkpt lat="42.76796279943039" lon="11.855959867887663"><ele>253.0</ele><time>2026-03-22T16:41:21.999Z</time></trkpt><trkpt lat="42.76816690437129" lon="11.855925883966531"><ele>253.66666666666666</ele><time>2026-03-22T16:41:23Z</time></trkpt><trkpt lat="42.7683695504801" lon="11.855887607014484"><ele>254.33333333333331</ele><time>2026-03-22T16:41:24Z</time></trkpt><trkpt lat="42.768570148618736" lon="11.855849263385872"><ele>255.0</ele><time>2026-03-22T16:41:25Z</time></trkpt><trkpt lat="42.768768089871685" lon="11.855816112626488"><ele>256.0</ele><time>2026-03-22T16:41:26Z</time></trkpt><trkpt lat="42.76896660791945" lon="11.855787739459227"><ele>257.0</ele><time>2026-03-22T16:41:27Z</time></trkpt><trkpt lat="42.76916385215899" lon="11.855754888301727"><ele>258.0</ele><time>2026-03-22T16:41:28Z</time></trkpt><trkpt lat="42.76936017728741" lon="11.855722886623404"><ele>258.3333333333333</ele><time>2026-03-22T16:41:29Z</time></trkpt><trkpt lat="42.76955433558287" lon="11.85569172994772"><ele>258.66666666666663</ele><time>2026-03-22T16:41:30Z</time></trkpt><trkpt lat="42.76974593576464" lon="11.8556614943611"><ele>259.0</ele><time>2026-03-22T16:41:31Z</time></trkpt><trkpt lat="42.76993549173773" lon="11.855631199723176"><ele>259.0</ele><time>2026-03-22T16:41:32Z</time></trkpt><trkpt lat="42.77012079587008" lon="11.85560230886442"><ele>259.0</ele><time>2026-03-22T16:41:33Z</time></trkpt><trkpt lat="42.77029111056597" lon="11.855575003161844"><ele>259.0</ele><time>2026-03-22T16:41:34Z</time></trkpt><trkpt lat="42.77045382252398" lon="11.855544220377357"><ele>259.66666666666663</ele><time>2026-03-22T16:41:35Z</time></trkpt><trkpt lat="42.770615070586096" lon="11.855480138096391"><ele>260.3333333333333</ele><time>2026-03-22T16:41:36Z</time></trkpt><trkpt lat="42.77077068054205" lon="11.855371790312518"><ele>261.0</ele><time>2026-03-22T16:41:37Z</time></trkpt><trkpt lat="42.770914168122935" lon="11.855234103919202"><ele>262.3333333333333</ele><time>2026-03-22T16:41:38Z</time></trkpt><trkpt lat="42.77103953611778" lon="11.855066033031045"><ele>263.66666666666663</ele><time>2026-03-22T16:41:39Z</time></trkpt><trkpt lat="42.77114385835168" lon="11.854872646361628"><ele>265.0</ele><time>2026-03-22T16:41:40Z</time></trkpt><trkpt lat="42.77122232123579" lon="11.854655255154157"><ele>265.0</ele><time>2026-03-22T16:41:41Z</time></trkpt><trkpt lat="42.77127497248193" lon="11.854421992154837"><ele>265.0</ele><time>2026-03-22T16:41:42Z</time></trkpt><trkpt lat="42.77135787373502" lon="11.85420490512332"><ele>265.0</ele><time>2026-03-22T16:41:43Z</time></trkpt><trkpt lat="42.77142551254079" lon="11.853981589149758"><ele>264.66666666666663</ele><time>2026-03-22T16:41:44Z</time></trkpt><trkpt lat="42.77137158836738" lon="11.853686455623896"><ele>264.3333333333333</ele><time>2026-03-22T16:41:45Z</time></trkpt><trkpt lat="42.7714066650959" lon="11.853445224662707"><ele>264.0</ele><time>2026-03-22T16:41:46Z</time></trkpt><trkpt lat="42.77144135644127" lon="11.853210691239266"><ele>263.6666666666667</ele><time>2026-03-22T16:41:47Z</time></trkpt><trkpt lat="42.771475268809866" lon="11.852982058521992"><ele>263.33333333333337</ele><time>2026-03-22T16:41:48Z</time></trkpt><trkpt lat="42.771511466421984" lon="11.85275994353332"><ele>263.0</ele><time>2026-03-22T16:41:49Z</time></trkpt><trkpt lat="42.77155719532465" lon="11.852538902458498"><ele>264.0</ele><time>2026-03-22T16:41:50Z</time></trkpt><trkpt lat="42.77161966740611" lon="11.852319226876288"><ele>265.0</ele><time>2026-03-22T16:41:51Z</time></trkpt><trkpt lat="42.7716991147406" lon="11.85210497845817"><ele>266.0</ele><time>2026-03-22T16:41:52Z</time></trkpt><trkpt lat="42.77179482341567" lon="11.851895414911008"><ele>268.33333333333337</ele><time>2026-03-22T16:41:53Z</time></trkpt><trkpt lat="42.77190802503217" lon="11.851695735632823"><ele>270.6666666666667</ele><time>2026-03-22T16:41:54Z</time></trkpt><trkpt lat="42.77204196470742" lon="11.851511802794636"><ele>273.0</ele><time>2026-03-22T16:41:55Z</time></trkpt><trkpt lat="42.77218443444461" lon="11.851330016483356"><ele>273.0</ele><time>2026-03-22T16:41:56Z</time></trkpt><trkpt lat="42.77232715025617" lon="11.85114172680729"><ele>273.0</ele><time>2026-03-22T16:41:57Z</time></trkpt><trkpt lat="42.772470424621325" lon="11.850945375444688"><ele>273.0</ele><time>2026-03-22T16:41:58Z</time></trkpt><trkpt lat="42.77261446814103" lon="11.850744785899598"><ele>272.6666666666667</ele><time>2026-03-22T16:41:59Z</time></trkpt><trkpt lat="42.77276175703351" lon="11.850543808214525"><ele>272.33333333333337</ele><time>2026-03-22T16:42:00Z</time></trkpt><trkpt lat="42.77291071273843" lon="11.85033889200353"><ele>272.0</ele><time>2026-03-22T16:42:01Z</time></trkpt><trkpt lat="42.773061359967386" lon="11.850130064601952"><ele>270.33333333333337</ele><time>2026-03-22T16:42:02Z</time></trkpt><trkpt lat="42.77321280046072" lon="11.849926193510932"><ele>268.6666666666667</ele><time>2026-03-22T16:42:03Z</time></trkpt><trkpt lat="42.773360316279415" lon="11.849727365945126"><ele>267.0</ele><time>2026-03-22T16:42:04Z</time></trkpt><trkpt lat="42.77350718198831" lon="11.849529437482317"><ele>268.0</ele><time>2026-03-22T16:42:05Z</time></trkpt><trkpt lat="42.77365455432757" lon="11.849330977197445"><ele>269.0</ele><time>2026-03-22T16:42:06Z</time></trkpt><trkpt lat="42.77380232866047" lon="11.849134303807045"><ele>270.0</ele><time>2026-03-22T16:42:07Z</time></trkpt><trkpt lat="42.77394910424614" lon="11.8489369879763"><ele>270.0</ele><time>2026-03-22T16:42:08Z</time></trkpt><trkpt lat="42.774096451877384" lon="11.84874197553363"><ele>270.0</ele><time>2026-03-22T16:42:09Z</time></trkpt><trkpt lat="42.77424589847011" lon="11.848542533544077"><ele>270.0</ele><time>2026-03-22T16:42:10Z</time></trkpt><trkpt lat="42.77439559515317" lon="11.848337406815762"><ele>270.6666666666667</ele><time>2026-03-22T16:42:11Z</time></trkpt><trkpt lat="42.774539631618566" lon="11.848120788221069"><ele>271.33333333333337</ele><time>2026-03-22T16:42:12Z</time></trkpt><trkpt lat="42.7746744990627" lon="11.847890150075278"><ele>272.0</ele><time>2026-03-22T16:42:13Z</time></trkpt><trkpt lat="42.774797160258906" lon="11.847642804405478"><ele>270.33333333333337</ele><time>2026-03-22T16:42:14Z</time></trkpt><trkpt lat="42.77490224119621" lon="11.847377083558944"><ele>268.6666666666667</ele><time>2026-03-22T16:42:15Z</time></trkpt><trkpt lat="42.77498913390805" lon="11.84709714808986"><ele>267.0</ele><time>2026-03-22T16:42:16Z</time></trkpt><trkpt lat="42.77505463873853" lon="11.84680481263735"><ele>266.0</ele><time>2026-03-22T16:42:17Z</time></trkpt><trkpt lat="42.77511143784623" lon="11.846504426930926"><ele>265.0</ele><time>2026-03-22T16:42:18Z</time></trkpt><trkpt lat="42.77517078666204" lon="11.846202602219822"><ele>265.5</ele><time>2026-03-22T16:42:19Z</time></trkpt><trkpt lat="42.77523356569624" lon="11.845899586732786"><ele>266.0</ele><time>2026-03-22T16:42:20Z</time></trkpt><trkpt lat="42.775300592404975" lon="11.84559754866484"><ele>266.0</ele><time>2026-03-22T16:42:21Z</time></trkpt><trkpt lat="42.7753729793783" lon="11.845296042472969"><ele>266.0</ele><time>2026-03-22T16:42:22Z</time></trkpt><trkpt lat="42.77545259185634" lon="11.844999136018263"><ele>265.5</ele><time>2026-03-22T16:42:23Z</time></trkpt><trkpt lat="42.77554201653878" lon="11.844711349801361"><ele>265.0</ele><time>2026-03-22T16:42:24Z</time></trkpt><trkpt lat="42.77564487004961" lon="11.8444296845294"><ele>264.0</ele><time>2026-03-22T16:42:25Z</time></trkpt><trkpt lat="42.775762264693654" lon="11.84415509678451"><ele>263.0</ele><time>2026-03-22T16:42:26Z</time></trkpt><trkpt lat="42.775887248159925" lon="11.843884336958277"><ele>263.0</ele><time>2026-03-22T16:42:27Z</time></trkpt><trkpt lat="42.77601953057781" lon="11.843618710061795"><ele>263.0</ele><time>2026-03-22T16:42:28Z</time></trkpt><trkpt lat="42.77615550636731" lon="11.843355428057798"><ele>263.5</ele><time>2026-03-22T16:42:29Z</time></trkpt><trkpt lat="42.7762931691601" lon="11.843092317914147"><ele>264.0</ele><time>2026-03-22T16:42:30Z</time></trkpt><trkpt lat="42.77643023680421" lon="11.842827910065415"><ele>263.5</ele><time>2026-03-22T16:42:31Z</time></trkpt><trkpt lat="42.77656725753582" lon="11.842561066905107"><ele>263.0</ele><time>2026-03-22T16:42:32Z</time></trkpt><trkpt lat="42.7767055723026" lon="11.842295464380799"><ele>263.0</ele><time>2026-03-22T16:42:33Z</time></trkpt><trkpt lat="42.77684482341326" lon="11.842029525774521"><ele>263.0</ele><time>2026-03-22T16:42:34Z</time></trkpt><trkpt lat="42.77698230830756" lon="11.84176449947087"><ele>264.5</ele><time>2026-03-22T16:42:35Z</time></trkpt><trkpt lat="42.77712100933352" lon="11.84150062607689"><ele>266.0</ele><time>2026-03-22T16:42:36Z</time></trkpt><trkpt lat="42.77725892741477" lon="11.841238430398283"><ele>266.0</ele><time>2026-03-22T16:42:37Z</time></trkpt><trkpt lat="42.7773945942142" lon="11.840977795237283"><ele>266.0</ele><time>2026-03-22T16:42:38Z</time></trkpt><trkpt lat="42.777527311095895" lon="11.840714288117919"><ele>267.0</ele><time>2026-03-22T16:42:39Z</time></trkpt><trkpt lat="42.77766325538578" lon="11.840453014589052"><ele>268.0</ele><time>2026-03-22T16:42:40Z</time></trkpt><trkpt lat="42.77780017345594" lon="11.840195116012222"><ele>265.5</ele><time>2026-03-22T16:42:41Z</time></trkpt><trkpt lat="42.777941115250236" lon="11.839937040893716"><ele>263.0</ele><time>2026-03-22T16:42:42Z</time></trkpt><trkpt lat="42.77808585997712" lon="11.839682186180644"><ele>263.0</ele><time>2026-03-22T16:42:42.999Z</time></trkpt><trkpt lat="42.778232987854395" lon="11.839427367873549"><ele>263.0</ele><time>2026-03-22T16:42:43.999Z</time></trkpt><trkpt lat="42.77838182472865" lon="11.839171154990874"><ele>263.5</ele><time>2026-03-22T16:42:44.999Z</time></trkpt><trkpt lat="42.778530505850306" lon="11.838913756399245"><ele>264.0</ele><time>2026-03-22T16:42:45.999Z</time></trkpt><trkpt lat="42.77867928960596" lon="11.838655107173723"><ele>262.0</ele><time>2026-03-22T16:42:46.999Z</time></trkpt><trkpt lat="42.77882893264483" lon="11.838396508440592"><ele>260.0</ele><time>2026-03-22T16:42:47.999Z</time></trkpt><trkpt lat="42.77897615977259" lon="11.838136713927957"><ele>260.0</ele><time>2026-03-22T16:42:48.999Z</time></trkpt><trkpt lat="42.779123601416124" lon="11.837878508518516"><ele>260.0</ele><time>2026-03-22T16:42:49.999Z</time></trkpt><trkpt lat="42.77927363804645" lon="11.837624985184181"><ele>262.5</ele><time>2026-03-22T16:42:50.999Z</time></trkpt><trkpt lat="42.779422171264585" lon="11.837371799707777"><ele>265.0</ele><time>2026-03-22T16:42:51.999Z</time></trkpt><trkpt lat="42.77956976012259" lon="11.837117020302214"><ele>265.0</ele><time>2026-03-22T16:42:52.999Z</time></trkpt><trkpt lat="42.77971674805198" lon="11.836867222606344"><ele>265.0</ele><time>2026-03-22T16:42:53.999Z</time></trkpt><trkpt lat="42.77986368470841" lon="11.836618065058767"><ele>263.5</ele><time>2026-03-22T16:42:54.999Z</time></trkpt><trkpt lat="42.78001018359437" lon="11.836371452550612"><ele>262.0</ele><time>2026-03-22T16:42:55.999Z</time></trkpt><trkpt lat="42.78015473382522" lon="11.836128391863316"><ele>264.0</ele><time>2026-03-22T16:42:56.999Z</time></trkpt><trkpt lat="42.7802989562713" lon="11.835886576690436"><ele>266.0</ele><time>2026-03-22T16:42:57.999Z</time></trkpt><trkpt lat="42.780439842948674" lon="11.835645332901256"><ele>266.0</ele><time>2026-03-22T16:42:58.999Z</time></trkpt><trkpt lat="42.78057769274822" lon="11.835396473816676"><ele>266.0</ele><time>2026-03-22T16:42:59.999Z</time></trkpt><trkpt lat="42.780707008109154" lon="11.835145457093565"><ele>264.5</ele><time>2026-03-22T16:43:00.999Z</time></trkpt><trkpt lat="42.78083055119742" lon="11.834888407342001"><ele>263.0</ele><time>2026-03-22T16:43:01.999Z</time></trkpt><trkpt lat="42.78094935229788" lon="11.83462904909049"><ele>263.6666666666667</ele><time>2026-03-22T16:43:02.999Z</time></trkpt><trkpt lat="42.78106756512471" lon="11.83436838093488"><ele>264.3333333333333</ele><time>2026-03-22T16:43:03.999Z</time></trkpt><trkpt lat="42.781184835158115" lon="11.834111466289444"><ele>265.0</ele><time>2026-03-22T16:43:04.999Z</time></trkpt><trkpt lat="42.78130019749799" lon="11.833851847307708"><ele>265.0</ele><time>2026-03-22T16:43:05.999Z</time></trkpt><trkpt lat="42.78141625009201" lon="11.83359934261291"><ele>265.0</ele><time>2026-03-22T16:43:06.999Z</time></trkpt><trkpt lat="42.78153663869399" lon="11.833349188166851"><ele>265.0</ele><time>2026-03-22T16:43:07.999Z</time></trkpt><trkpt lat="42.78167708148785" lon="11.833126508388126"><ele>264.66666666666663</ele><time>2026-03-22T16:43:08.999Z</time></trkpt><trkpt lat="42.78184023369055" lon="11.83293039304877"><ele>264.3333333333333</ele><time>2026-03-22T16:43:09.999Z</time></trkpt><trkpt lat="42.7820165381521" lon="11.832766668229219"><ele>264.0</ele><time>2026-03-22T16:43:10.999Z</time></trkpt><trkpt lat="42.78221090013101" lon="11.832632841966202"><ele>264.6666666666667</ele><time>2026-03-22T16:43:11.999Z</time></trkpt><trkpt lat="42.78241505338544" lon="11.832520272885565"><ele>265.33333333333337</ele><time>2026-03-22T16:43:12.999Z</time></trkpt><trkpt lat="42.782628065663324" lon="11.832423843834299"><ele>266.0</ele><time>2026-03-22T16:43:13.999Z</time></trkpt><trkpt lat="42.78283879282371" lon="11.832323721649557"><ele>267.6666666666667</ele><time>2026-03-22T16:43:14.999Z</time></trkpt><trkpt lat="42.78305012057805" lon="11.832223052551093"><ele>269.3333333333333</ele><time>2026-03-22T16:43:15.999Z</time></trkpt><trkpt lat="42.78326350807282" lon="11.832123718547665"><ele>271.0</ele><time>2026-03-22T16:43:16.999Z</time></trkpt><trkpt lat="42.78347237477275" lon="11.832011337832517"><ele>269.5</ele><time>2026-03-22T16:43:17.999Z</time></trkpt><trkpt lat="42.78367480939049" lon="11.83187666849366"><ele>268.0</ele><time>2026-03-22T16:43:18.999Z</time></trkpt><trkpt lat="42.783865273942624" lon="11.831707979836208"><ele>268.0</ele><time>2026-03-22T16:43:19.999Z</time></trkpt><trkpt lat="42.784040453288384" lon="11.83150009145644"><ele>268.0</ele><time>2026-03-22T16:43:20.999Z</time></trkpt><trkpt lat="42.78420054717732" lon="11.83126761324766"><ele>269.0</ele><time>2026-03-22T16:43:21.999Z</time></trkpt><trkpt lat="42.78435514409394" lon="11.831026585890429"><ele>270.0</ele><time>2026-03-22T16:43:22.999Z</time></trkpt><trkpt lat="42.784508684176814" lon="11.83078043406012"><ele>270.0</ele><time>2026-03-22T16:43:23.999Z</time></trkpt><trkpt lat="42.78466488121728" lon="11.83053695754132"><ele>270.0</ele><time>2026-03-22T16:43:24.999Z</time></trkpt><trkpt lat="42.78482339349537" lon="11.830290982957026"><ele>266.0</ele><time>2026-03-22T16:43:25.999Z</time></trkpt><trkpt lat="42.784980841811084" lon="11.830043261017892"><ele>262.0</ele><time>2026-03-22T16:43:26.999Z</time></trkpt><trkpt lat="42.78513834430757" lon="11.829794589060755"><ele>264.0</ele><time>2026-03-22T16:43:27.999Z</time></trkpt><trkpt lat="42.7852971571743" lon="11.829547059070407"><ele>266.0</ele><time>2026-03-22T16:43:29Z</time></trkpt><trkpt lat="42.785455766967104" lon="11.829299571752449"><ele>266.0</ele><time>2026-03-22T16:43:30Z</time></trkpt><trkpt lat="42.78561480298999" lon="11.829051954954952"><ele>266.0</ele><time>2026-03-22T16:43:31Z</time></trkpt><trkpt lat="42.78577134198931" lon="11.828804856694038"><ele>266.0</ele><time>2026-03-22T16:43:32Z</time></trkpt><trkpt lat="42.7859247504165" lon="11.828558383672597"><ele>266.0</ele><time>2026-03-22T16:43:33Z</time></trkpt><trkpt lat="42.786074089225664" lon="11.828310360865586"><ele>270.0</ele><time>2026-03-22T16:43:34Z</time></trkpt><trkpt lat="42.7862187577051" lon="11.828059332683518"><ele>274.0</ele><time>2026-03-22T16:43:35Z</time></trkpt><trkpt lat="42.78635639384258" lon="11.827806122656721"><ele>271.5</ele><time>2026-03-22T16:43:36Z</time></trkpt><trkpt lat="42.78648874446899" lon="11.827549159042356"><ele>269.0</ele><time>2026-03-22T16:43:37Z</time></trkpt><trkpt lat="42.78662002178002" lon="11.827292929945855"><ele>269.0</ele><time>2026-03-22T16:43:38Z</time></trkpt><trkpt lat="42.78675124991603" lon="11.82704107662093"><ele>269.0</ele><time>2026-03-22T16:43:39Z</time></trkpt><trkpt lat="42.78688450115397" lon="11.82679421263713"><ele>271.33333333333337</ele><time>2026-03-22T16:43:40Z</time></trkpt><trkpt lat="42.787018576247846" lon="11.826553360075076"><ele>273.6666666666667</ele><time>2026-03-22T16:43:41Z</time></trkpt><trkpt lat="42.78715481098382" lon="11.826317281663403"><ele>276.0</ele><time>2026-03-22T16:43:42Z</time></trkpt><trkpt lat="42.78729533294302" lon="11.826086151805775"><ele>275.6666666666667</ele><time>2026-03-22T16:43:43Z</time></trkpt><trkpt lat="42.78744140808189" lon="11.825859865933825"><ele>275.33333333333337</ele><time>2026-03-22T16:43:44Z</time></trkpt><trkpt lat="42.7875937898627" lon="11.825639601675151"><ele>275.0</ele><time>2026-03-22T16:43:45Z</time></trkpt><trkpt lat="42.787753873785086" lon="11.825421631868698"><ele>275.0</ele><time>2026-03-22T16:43:46Z</time></trkpt><trkpt lat="42.78792336586029" lon="11.825206756474506"><ele>275.0</ele><time>2026-03-22T16:43:47Z</time></trkpt><trkpt lat="42.788095642092486" lon="11.824993743845525"><ele>274.0</ele><time>2026-03-22T16:43:48Z</time></trkpt><trkpt lat="42.78826944340724" lon="11.824777863908798"><ele>273.0</ele><time>2026-03-22T16:43:49Z</time></trkpt><trkpt lat="42.78844289185507" lon="11.824559561504536"><ele>272.5</ele><time>2026-03-22T16:43:50Z</time></trkpt><trkpt lat="42.78861482572304" lon="11.824336860285271"><ele>272.0</ele><time>2026-03-22T16:43:51Z</time></trkpt><trkpt lat="42.78878843785616" lon="11.824112724429757"><ele>272.0</ele><time>2026-03-22T16:43:52Z</time></trkpt><trkpt lat="42.78895921244699" lon="11.823891069565164"><ele>272.0</ele><time>2026-03-22T16:43:53Z</time></trkpt><trkpt lat="42.789131566955575" lon="11.823668044267908"><ele>272.0</ele><time>2026-03-22T16:43:54Z</time></trkpt><trkpt lat="42.78930516128857" lon="11.823445609190438"><ele>272.0</ele><time>2026-03-22T16:43:55Z</time></trkpt><trkpt lat="42.7894788372063" lon="11.82322510032251"><ele>274.5</ele><time>2026-03-22T16:43:56Z</time></trkpt><trkpt lat="42.78965130098852" lon="11.823004247438815"><ele>277.0</ele><time>2026-03-22T16:43:57Z</time></trkpt><trkpt lat="42.789820137198305" lon="11.822783829248921"><ele>275.0</ele><time>2026-03-22T16:43:58Z</time></trkpt><trkpt lat="42.78998620951466" lon="11.82255895790095"><ele>273.0</ele><time>2026-03-22T16:43:59Z</time></trkpt><trkpt lat="42.7901495783168" lon="11.822330363851746"><ele>273.5</ele><time>2026-03-22T16:44:00Z</time></trkpt><trkpt lat="42.790313330771674" lon="11.822101852089581"><ele>274.0</ele><time>2026-03-22T16:44:01Z</time></trkpt><trkpt lat="42.79047608535616" lon="11.821873659719923"><ele>273.0</ele><time>2026-03-22T16:44:02Z</time></trkpt><trkpt lat="42.79063741718759" lon="11.8216445094247"><ele>272.0</ele><time>2026-03-22T16:44:03Z</time></trkpt><trkpt lat="42.790798384252795" lon="11.821415416538242"><ele>272.0</ele><time>2026-03-22T16:44:04Z</time></trkpt><trkpt lat="42.79096092876162" lon="11.821190003076795"><ele>272.0</ele><time>2026-03-22T16:44:05Z</time></trkpt><trkpt lat="42.7911271923312" lon="11.820973218344697"><ele>275.0</ele><time>2026-03-22T16:44:06Z</time></trkpt><trkpt lat="42.791301077087866" lon="11.820767140032723"><ele>278.0</ele><time>2026-03-22T16:44:07Z</time></trkpt><trkpt lat="42.7914860285529" lon="11.820573198516456"><ele>278.0</ele><time>2026-03-22T16:44:08Z</time></trkpt><trkpt lat="42.79167434115703" lon="11.820384731825303"><ele>278.0</ele><time>2026-03-22T16:44:09Z</time></trkpt><trkpt lat="42.79186509372881" lon="11.820195326414906"><ele>280.5</ele><time>2026-03-22T16:44:10Z</time></trkpt><trkpt lat="42.792056169806706" lon="11.820001801691992"><ele>283.0</ele><time>2026-03-22T16:44:11Z</time></trkpt><trkpt lat="42.79224486850889" lon="11.819805777833905"><ele>283.0</ele><time>2026-03-22T16:44:12Z</time></trkpt><trkpt lat="42.792433114139996" lon="11.81961028844725"><ele>283.0</ele><time>2026-03-22T16:44:13Z</time></trkpt><trkpt lat="42.79262299783078" lon="11.819414682082643"><ele>285.0</ele><time>2026-03-22T16:44:14Z</time></trkpt><trkpt lat="42.79281369237804" lon="11.819219418164696"><ele>287.0</ele><time>2026-03-22T16:44:15Z</time></trkpt><trkpt lat="42.793002319976694" lon="11.819025087965084"><ele>287.0</ele><time>2026-03-22T16:44:16Z</time></trkpt><trkpt lat="42.79318778457409" lon="11.818826008229683"><ele>287.0</ele><time>2026-03-22T16:44:17Z</time></trkpt><trkpt lat="42.79336689126088" lon="11.818619659067993"><ele>288.5</ele><time>2026-03-22T16:44:18Z</time></trkpt><trkpt lat="42.7935355128549" lon="11.818398391592678"><ele>290.0</ele><time>2026-03-22T16:44:19Z</time></trkpt><trkpt lat="42.793692759722674" lon="11.818161316716886"><ele>290.0</ele><time>2026-03-22T16:44:20Z</time></trkpt><trkpt lat="42.793844706007235" lon="11.817913300729836"><ele>290.0</ele><time>2026-03-22T16:44:21Z</time></trkpt><trkpt lat="42.7939956826399" lon="11.817665500884438"><ele>286.5</ele><time>2026-03-22T16:44:22Z</time></trkpt><trkpt lat="42.79415318599631" lon="11.817423529337912"><ele>283.0</ele><time>2026-03-22T16:44:23Z</time></trkpt><trkpt lat="42.794312407514724" lon="11.817181039552185"><ele>283.5</ele><time>2026-03-22T16:44:24Z</time></trkpt><trkpt lat="42.794469342506865" lon="11.816938759699932"><ele>284.0</ele><time>2026-03-22T16:44:25Z</time></trkpt><trkpt lat="42.79462831188546" lon="11.816700276469557"><ele>284.0</ele><time>2026-03-22T16:44:26Z</time></trkpt><trkpt lat="42.79479136548204" lon="11.816468141518111"><ele>284.0</ele><time>2026-03-22T16:44:27Z</time></trkpt><trkpt lat="42.79495978528822" lon="11.816244952294312"><ele>284.0</ele><time>2026-03-22T16:44:28Z</time></trkpt><trkpt lat="42.79513288386146" lon="11.8160308410736"><ele>284.0</ele><time>2026-03-22T16:44:29Z</time></trkpt><trkpt lat="42.79530831668015" lon="11.815822423234403"><ele>285.0</ele><time>2026-03-22T16:44:30Z</time></trkpt><trkpt lat="42.79548527034134" lon="11.815621300992095"><ele>286.0</ele><time>2026-03-22T16:44:31Z</time></trkpt><trkpt lat="42.795665920758466" lon="11.815428080297611"><ele>286.0</ele><time>2026-03-22T16:44:32Z</time></trkpt><trkpt lat="42.79585640844361" lon="11.815242539593296"><ele>286.0</ele><time>2026-03-22T16:44:33Z</time></trkpt><trkpt lat="42.79605341554658" lon="11.815064253147336"><ele>286.5</ele><time>2026-03-22T16:44:34Z</time></trkpt><trkpt lat="42.79625393447968" lon="11.81488996173132"><ele>287.0</ele><time>2026-03-22T16:44:35Z</time></trkpt><trkpt lat="42.796455976042374" lon="11.814717880647752"><ele>287.0</ele><time>2026-03-22T16:44:36Z</time></trkpt><trkpt lat="42.79665828791965" lon="11.814546582133628"><ele>287.0</ele><time>2026-03-22T16:44:37Z</time></trkpt><trkpt lat="42.796860296250934" lon="11.814373511284105"><ele>287.0</ele><time>2026-03-22T16:44:38Z</time></trkpt><trkpt lat="42.79706210751099" lon="11.814199240361347"><ele>287.0</ele><time>2026-03-22T16:44:39Z</time></trkpt><trkpt lat="42.79726509833357" lon="11.814025216297738"><ele>287.0</ele><time>2026-03-22T16:44:40Z</time></trkpt><trkpt lat="42.79746882212441" lon="11.81385213644723"><ele>287.0</ele><time>2026-03-22T16:44:41Z</time></trkpt><trkpt lat="42.79767266806672" lon="11.813680765085797"><ele>287.0</ele><time>2026-03-22T16:44:42Z</time></trkpt><trkpt lat="42.79787761057851" lon="11.813507992609292"><ele>287.0</ele><time>2026-03-22T16:44:43Z</time></trkpt><trkpt lat="42.79808123396964" lon="11.813335266012711"><ele>287.0</ele><time>2026-03-22T16:44:44Z</time></trkpt><trkpt lat="42.798284423410216" lon="11.813163356186335"><ele>287.0</ele><time>2026-03-22T16:44:45Z</time></trkpt><trkpt lat="42.798485892809936" lon="11.812990842523098"><ele>289.0</ele><time>2026-03-22T16:44:46Z</time></trkpt><trkpt lat="42.79868322865258" lon="11.812825797984512"><ele>291.0</ele><time>2026-03-22T16:44:47Z</time></trkpt><trkpt lat="42.798870715636724" lon="11.812667391337671"><ele>291.3333333333333</ele><time>2026-03-22T16:44:48Z</time></trkpt><trkpt lat="42.79904718552923" lon="11.812506270904523"><ele>291.66666666666663</ele><time>2026-03-22T16:44:48.999Z</time></trkpt><trkpt lat="42.79920747960728" lon="11.812318567523922"><ele>292.0</ele><time>2026-03-22T16:44:49.999Z</time></trkpt><trkpt lat="42.79934782158535" lon="11.812085251729346"><ele>284.0</ele><time>2026-03-22T16:44:50.999Z</time></trkpt><trkpt lat="42.799460453889125" lon="11.811821951908948"><ele>276.0</ele><time>2026-03-22T16:44:51.999Z</time></trkpt><trkpt lat="42.7995463887054" lon="11.811536119756909"><ele>276.0</ele><time>2026-03-22T16:44:52.999Z</time></trkpt><trkpt lat="42.79963690706209" lon="11.8112539538399"><ele>276.0</ele><time>2026-03-22T16:44:53.999Z</time></trkpt><trkpt lat="42.79972699763468" lon="11.810969248495187"><ele>276.0</ele><time>2026-03-22T16:44:54.999Z</time></trkpt><trkpt lat="42.799826169442866" lon="11.810685843325007"><ele>276.0</ele><time>2026-03-22T16:44:55.999Z</time></trkpt><trkpt lat="42.7999254766174" lon="11.810400599079486"><ele>276.0</ele><time>2026-03-22T16:44:56.999Z</time></trkpt><trkpt lat="42.800020453752424" lon="11.810113061820106"><ele>276.0</ele><time>2026-03-22T16:44:57.999Z</time></trkpt><trkpt lat="42.80011657562513" lon="11.809826535786172"><ele>275.5</ele><time>2026-03-22T16:44:58.999Z</time></trkpt><trkpt lat="42.80021456276267" lon="11.809541122492515"><ele>275.0</ele><time>2026-03-22T16:44:59.999Z</time></trkpt><trkpt lat="42.80031245283782" lon="11.809254588154669"><ele>274.5</ele><time>2026-03-22T16:45:00.999Z</time></trkpt><trkpt lat="42.80040840850294" lon="11.808965398020671"><ele>274.0</ele><time>2026-03-22T16:45:01.999Z</time></trkpt><trkpt lat="42.80050485242006" lon="11.808675150975176"><ele>274.5</ele><time>2026-03-22T16:45:02.999Z</time></trkpt><trkpt lat="42.80060183139518" lon="11.80838647386649"><ele>275.0</ele><time>2026-03-22T16:45:03.999Z</time></trkpt><trkpt lat="42.80070428587611" lon="11.808103231330547"><ele>275.0</ele><time>2026-03-22T16:45:04.999Z</time></trkpt><trkpt lat="42.80081855079322" lon="11.807830387165145"><ele>275.0</ele><time>2026-03-22T16:45:05.999Z</time></trkpt><trkpt lat="42.80095549388017" lon="11.80757789987606"><ele>279.5</ele><time>2026-03-22T16:45:06.999Z</time></trkpt><trkpt lat="42.801114692413506" lon="11.80734824878665"><ele>284.0</ele><time>2026-03-22T16:45:07.999Z</time></trkpt><trkpt lat="42.801289783370216" lon="11.807140485851622"><ele>284.0</ele><time>2026-03-22T16:45:08.999Z</time></trkpt><trkpt lat="42.80147872626047" lon="11.806955467352946"><ele>284.0</ele><time>2026-03-22T16:45:09.998Z</time></trkpt><trkpt lat="42.801681184570825" lon="11.806791515886125"><ele>286.5</ele><time>2026-03-22T16:45:10.998Z</time></trkpt><trkpt lat="42.80189334595054" lon="11.806650424917137"><ele>289.0</ele><time>2026-03-22T16:45:11.998Z</time></trkpt><trkpt lat="42.802111509213766" lon="11.806518812549186"><ele>289.0</ele><time>2026-03-22T16:45:12.998Z</time></trkpt><trkpt lat="42.802328573836434" lon="11.806390307183822"><ele>289.0</ele><time>2026-03-22T16:45:13.998Z</time></trkpt><trkpt lat="42.802547279686586" lon="11.806257886692753"><ele>291.0</ele><time>2026-03-22T16:45:14.998Z</time></trkpt><trkpt lat="42.80276425230505" lon="11.80612333004164"><ele>293.0</ele><time>2026-03-22T16:45:15.998Z</time></trkpt><trkpt lat="42.80298023216028" lon="11.805991237897178"><ele>293.0</ele><time>2026-03-22T16:45:16.998Z</time></trkpt><trkpt lat="42.80319731658445" lon="11.805858647103198"><ele>293.0</ele><time>2026-03-22T16:45:17.998Z</time></trkpt><trkpt lat="42.803415591063896" lon="11.805725812389742"><ele>299.0</ele><time>2026-03-22T16:45:18.998Z</time></trkpt><trkpt lat="42.80363389781862" lon="11.805593980447526"><ele>305.0</ele><time>2026-03-22T16:45:19.998Z</time></trkpt><trkpt lat="42.803854373916266" lon="11.80546194678292"><ele>305.0</ele><time>2026-03-22T16:45:20.998Z</time></trkpt><trkpt lat="42.804075564221456" lon="11.805328795288357"><ele>305.0</ele><time>2026-03-22T16:45:21.998Z</time></trkpt><trkpt lat="42.80429794129272" lon="11.805194282120842"><ele>299.0</ele><time>2026-03-22T16:45:22.998Z</time></trkpt><trkpt lat="42.80452190977695" lon="11.805058392815297"><ele>293.0</ele><time>2026-03-22T16:45:23.998Z</time></trkpt><trkpt lat="42.804748982057454" lon="11.804923321418437"><ele>293.0</ele><time>2026-03-22T16:45:24.998Z</time></trkpt><trkpt lat="42.804977966884536" lon="11.804788004621551"><ele>293.0</ele><time>2026-03-22T16:45:25.998Z</time></trkpt><trkpt lat="42.80520776858926" lon="11.804653303724626"><ele>294.5</ele><time>2026-03-22T16:45:26.998Z</time></trkpt><trkpt lat="42.805437867146296" lon="11.804514629520341"><ele>296.0</ele><time>2026-03-22T16:45:27.998Z</time></trkpt><trkpt lat="42.80566765636926" lon="11.80437451774548"><ele>295.0</ele><time>2026-03-22T16:45:28.998Z</time></trkpt><trkpt lat="42.80589613160324" lon="11.804232688794649"><ele>294.0</ele><time>2026-03-22T16:45:29.998Z</time></trkpt><trkpt lat="42.806124686912156" lon="11.804091510107028"><ele>294.0</ele><time>2026-03-22T16:45:30.998Z</time></trkpt><trkpt lat="42.806354312131596" lon="11.803951481699778"><ele>294.0</ele><time>2026-03-22T16:45:31.998Z</time></trkpt><trkpt lat="42.806582752943626" lon="11.80381002542812"><ele>294.0</ele><time>2026-03-22T16:45:32.998Z</time></trkpt><trkpt lat="42.806813991685466" lon="11.803670039532193"><ele>294.0</ele><time>2026-03-22T16:45:33.999Z</time></trkpt><trkpt lat="42.80704507079521" lon="11.803532866569558"><ele>294.5</ele><time>2026-03-22T16:45:34.999Z</time></trkpt><trkpt lat="42.807277128580786" lon="11.803393470952912"><ele>295.0</ele><time>2026-03-22T16:45:35.999Z</time></trkpt><trkpt lat="42.80750917202061" lon="11.803253161082536"><ele>296.0</ele><time>2026-03-22T16:45:36.999Z</time></trkpt><trkpt lat="42.80774149699333" lon="11.803112689784141"><ele>297.0</ele><time>2026-03-22T16:45:37.999Z</time></trkpt><trkpt lat="42.807976320975555" lon="11.802970393471375"><ele>297.0</ele><time>2026-03-22T16:45:38.999Z</time></trkpt><trkpt lat="42.80821066887018" lon="11.802827548935218"><ele>297.0</ele><time>2026-03-22T16:45:39.999Z</time></trkpt><trkpt lat="42.8084457164008" lon="11.802683396577262"><ele>298.5</ele><time>2026-03-22T16:45:40.999Z</time></trkpt><trkpt lat="42.80868017476953" lon="11.802539237952457"><ele>300.0</ele><time>2026-03-22T16:45:41.999Z</time></trkpt><trkpt lat="42.80891441420844" lon="11.802395753638006"><ele>300.0</ele><time>2026-03-22T16:45:42.999Z</time></trkpt><trkpt lat="42.80914978227081" lon="11.80225215974889"><ele>300.0</ele><time>2026-03-22T16:45:43.999Z</time></trkpt><trkpt lat="42.80938590474806" lon="11.802108762068329"><ele>298.5</ele><time>2026-03-22T16:45:44.999Z</time></trkpt><trkpt lat="42.809623041908" lon="11.801965620671696"><ele>297.0</ele><time>2026-03-22T16:45:45.999Z</time></trkpt><trkpt lat="42.80986039514129" lon="11.801823401939608"><ele>297.0</ele><time>2026-03-22T16:45:46.999Z</time></trkpt><trkpt lat="42.8100980479156" lon="11.80168137038625"><ele>297.0</ele><time>2026-03-22T16:45:47.999Z</time></trkpt><trkpt lat="42.81033559992333" lon="11.801540962976853"><ele>300.0</ele><time>2026-03-22T16:45:48.999Z</time></trkpt><trkpt lat="42.810571909663906" lon="11.801398920806756"><ele>303.0</ele><time>2026-03-22T16:45:49.999Z</time></trkpt><trkpt lat="42.810809872126676" lon="11.801255961113425"><ele>305.5</ele><time>2026-03-22T16:45:50.999Z</time></trkpt><trkpt lat="42.81104781450594" lon="11.801110602813578"><ele>308.0</ele><time>2026-03-22T16:45:51.999Z</time></trkpt><trkpt lat="42.811285662895344" lon="11.800963903156232"><ele>301.0</ele><time>2026-03-22T16:45:52.999Z</time></trkpt><trkpt lat="42.81152538738029" lon="11.80081769178944"><ele>294.0</ele><time>2026-03-22T16:45:53.999Z</time></trkpt><trkpt lat="42.81176727768733" lon="11.800670574719138"><ele>295.5</ele><time>2026-03-22T16:45:54.999Z</time></trkpt><trkpt lat="42.812008864437544" lon="11.800523376282227"><ele>297.0</ele><time>2026-03-22T16:45:55.999Z</time></trkpt><trkpt lat="42.812250457956125" lon="11.80037621992186"><ele>297.0</ele><time>2026-03-22T16:45:56.999Z</time></trkpt><trkpt lat="42.81249341858674" lon="11.800229034196732"><ele>297.0</ele><time>2026-03-22T16:45:57.999Z</time></trkpt><trkpt lat="42.81273712009396" lon="11.80008113587139"><ele>293.5</ele><time>2026-03-22T16:45:58.999Z</time></trkpt><trkpt lat="42.81298155511016" lon="11.799931684465497"><ele>290.0</ele><time>2026-03-22T16:45:59.999Z</time></trkpt><trkpt lat="42.813226491059375" lon="11.799781401938036"><ele>290.0</ele><time>2026-03-22T16:46:00.999Z</time></trkpt><trkpt lat="42.81347165239878" lon="11.799631003054776"><ele>290.0</ele><time>2026-03-22T16:46:01.999Z</time></trkpt><trkpt lat="42.81371830898787" lon="11.799480497601039"><ele>288.0</ele><time>2026-03-22T16:46:02.999Z</time></trkpt><trkpt lat="42.813965598116035" lon="11.799332278286494"><ele>286.0</ele><time>2026-03-22T16:46:03.999Z</time></trkpt><trkpt lat="42.81421390272484" lon="11.799185270859159"><ele>287.5</ele><time>2026-03-22T16:46:04.999Z</time></trkpt><trkpt lat="42.81446206264826" lon="11.799036345224398"><ele>289.0</ele><time>2026-03-22T16:46:05.999Z</time></trkpt><trkpt lat="42.814709852276515" lon="11.798884622098681"><ele>289.0</ele><time>2026-03-22T16:46:06.999Z</time></trkpt><trkpt lat="42.81495780805676" lon="11.798731881413838"><ele>289.0</ele><time>2026-03-22T16:46:07.999Z</time></trkpt><trkpt lat="42.815204604262945" lon="11.798580081158573"><ele>288.0</ele><time>2026-03-22T16:46:08.999Z</time></trkpt><trkpt lat="42.815452303391545" lon="11.798429276202457"><ele>287.0</ele><time>2026-03-22T16:46:09.999Z</time></trkpt><trkpt lat="42.81569974538328" lon="11.798280370440267"><ele>287.0</ele><time>2026-03-22T16:46:10.999Z</time></trkpt><trkpt lat="42.81594655259184" lon="11.798131243432467"><ele>287.0</ele><time>2026-03-22T16:46:11.999Z</time></trkpt><trkpt lat="42.816192719433204" lon="11.797982298624813"><ele>289.0</ele><time>2026-03-22T16:46:12.999Z</time></trkpt><trkpt lat="42.81643991633932" lon="11.797834880972632"><ele>291.0</ele><time>2026-03-22T16:46:13.999Z</time></trkpt><trkpt lat="42.81668455367341" lon="11.797686008798621"><ele>290.5</ele><time>2026-03-22T16:46:14.999Z</time></trkpt><trkpt lat="42.81692723999415" lon="11.79753974240508"><ele>290.0</ele><time>2026-03-22T16:46:15.999Z</time></trkpt><trkpt lat="42.81717192665232" lon="11.797395856843242"><ele>290.0</ele><time>2026-03-22T16:46:16.999Z</time></trkpt><trkpt lat="42.81741530537242" lon="11.79725325283873"><ele>290.0</ele><time>2026-03-22T16:46:17.999Z</time></trkpt><trkpt lat="42.81765392454474" lon="11.797108278354962"><ele>290.5</ele><time>2026-03-22T16:46:18.999Z</time></trkpt><trkpt lat="42.817885906967106" lon="11.796953110465028"><ele>291.0</ele><time>2026-03-22T16:46:19.999Z</time></trkpt><trkpt lat="42.818108702255536" lon="11.79677856379747"><ele>291.0</ele><time>2026-03-22T16:46:20.999Z</time></trkpt><trkpt lat="42.81832399176128" lon="11.79658263354425"><ele>291.0</ele><time>2026-03-22T16:46:21.999Z</time></trkpt><trkpt lat="42.818532574150936" lon="11.79637094171633"><ele>292.0</ele><time>2026-03-22T16:46:22.999Z</time></trkpt><trkpt lat="42.81873043697107" lon="11.796149051916125"><ele>293.0</ele><time>2026-03-22T16:46:23.999Z</time></trkpt><trkpt lat="42.81892433667625" lon="11.795915600409124"><ele>293.0</ele><time>2026-03-22T16:46:24.999Z</time></trkpt><trkpt lat="42.819109461799904" lon="11.79566891789695"><ele>293.0</ele><time>2026-03-22T16:46:25.999Z</time></trkpt><trkpt lat="42.81928073256428" lon="11.795408080659662"><ele>296.0</ele><time>2026-03-22T16:46:26.999Z</time></trkpt><trkpt lat="42.81943761189638" lon="11.79513136294728"><ele>299.0</ele><time>2026-03-22T16:46:27.999Z</time></trkpt><trkpt lat="42.8195884339311" lon="11.794848694131142"><ele>299.0</ele><time>2026-03-22T16:46:28.999Z</time></trkpt><trkpt lat="42.81974101444489" lon="11.794565810166699"><ele>299.0</ele><time>2026-03-22T16:46:29.999Z</time></trkpt><trkpt lat="42.81989780722892" lon="11.794288463351611"><ele>296.0</ele><time>2026-03-22T16:46:30.999Z</time></trkpt><trkpt lat="42.82005657861583" lon="11.794013575585295"><ele>293.0</ele><time>2026-03-22T16:46:31.999Z</time></trkpt><trkpt lat="42.820212875011244" lon="11.793734495141575"><ele>296.0</ele><time>2026-03-22T16:46:32.999Z</time></trkpt><trkpt lat="42.82036678307083" lon="11.79345325100919"><ele>299.0</ele><time>2026-03-22T16:46:33.999Z</time></trkpt><trkpt lat="42.820518792166446" lon="11.793172579468406"><ele>299.0</ele><time>2026-03-22T16:46:34.999Z</time></trkpt><trkpt lat="42.82067103430378" lon="11.7928926205074"><ele>299.0</ele><time>2026-03-22T16:46:35.999Z</time></trkpt><trkpt lat="42.820823466012705" lon="11.792614935221648"><ele>301.0</ele><time>2026-03-22T16:46:36.999Z</time></trkpt><trkpt lat="42.820974530317514" lon="11.792336939238476"><ele>303.0</ele><time>2026-03-22T16:46:37.999Z</time></trkpt><trkpt lat="42.82112509639604" lon="11.792059421595509"><ele>299.0</ele><time>2026-03-22T16:46:38.999Z</time></trkpt><trkpt lat="42.82127541432049" lon="11.791783822892926"><ele>295.0</ele><time>2026-03-22T16:46:39.999Z</time></trkpt><trkpt lat="42.821427372462416" lon="11.791509148528888"><ele>295.0</ele><time>2026-03-22T16:46:40.999Z</time></trkpt><trkpt lat="42.82157838805208" lon="11.791236045578437"><ele>295.0</ele><time>2026-03-22T16:46:41.999Z</time></trkpt><trkpt lat="42.82172915846403" lon="11.790963058230792"><ele>297.0</ele><time>2026-03-22T16:46:42.999Z</time></trkpt><trkpt lat="42.82187968087236" lon="11.790691298375304"><ele>299.0</ele><time>2026-03-22T16:46:43.999Z</time></trkpt><trkpt lat="42.822030155541945" lon="11.790419270898898"><ele>297.5</ele><time>2026-03-22T16:46:44.999Z</time></trkpt><trkpt lat="42.82218019721968" lon="11.790148481724279"><ele>296.0</ele><time>2026-03-22T16:46:45.999Z</time></trkpt><trkpt lat="42.822330635558814" lon="11.789877036235595"><ele>296.0</ele><time>2026-03-22T16:46:46.999Z</time></trkpt><trkpt lat="42.82248163500757" lon="11.78960430607463"><ele>296.0</ele><time>2026-03-22T16:46:47.999Z</time></trkpt><trkpt lat="42.822632656336566" lon="11.789329764563416"><ele>298.0</ele><time>2026-03-22T16:46:48.999Z</time></trkpt><trkpt lat="42.822783473972365" lon="11.789056399245762"><ele>300.0</ele><time>2026-03-22T16:46:49.999Z</time></trkpt><trkpt lat="42.82293774337681" lon="11.788783819507143"><ele>300.0</ele><time>2026-03-22T16:46:50.999Z</time></trkpt><trkpt lat="42.823091278350304" lon="11.788512684978638"><ele>300.0</ele><time>2026-03-22T16:46:51.999Z</time></trkpt><trkpt lat="42.82324476906602" lon="11.78824075292888"><ele>298.0</ele><time>2026-03-22T16:46:52.999Z</time></trkpt><trkpt lat="42.82339759868327" lon="11.787967412668916"><ele>296.0</ele><time>2026-03-22T16:46:53.999Z</time></trkpt><trkpt lat="42.823548586491405" lon="11.78769305891502"><ele>296.5</ele><time>2026-03-22T16:46:54.999Z</time></trkpt><trkpt lat="42.82370134774336" lon="11.787417840367034"><ele>297.0</ele><time>2026-03-22T16:46:55.999Z</time></trkpt><trkpt lat="42.82385436139209" lon="11.787141164311992"><ele>297.0</ele><time>2026-03-22T16:46:56.999Z</time></trkpt><trkpt lat="42.824004678730425" lon="11.786860259240505"><ele>297.0</ele><time>2026-03-22T16:46:57.998Z</time></trkpt><trkpt lat="42.824146182474145" lon="11.786570956536307"><ele>296.0</ele><time>2026-03-22T16:46:58.998Z</time></trkpt><trkpt lat="42.824269736323416" lon="11.786269803521048"><ele>295.0</ele><time>2026-03-22T16:46:59.998Z</time></trkpt><trkpt lat="42.82437198721196" lon="11.785954876570086"><ele>299.5</ele><time>2026-03-22T16:47:00.998Z</time></trkpt><trkpt lat="42.82445388725584" lon="11.785627307728245"><ele>304.0</ele><time>2026-03-22T16:47:01.998Z</time></trkpt><trkpt lat="42.82452166250108" lon="11.785292552562538"><ele>305.0</ele><time>2026-03-22T16:47:02.998Z</time></trkpt><trkpt lat="42.824577442168824" lon="11.78495402340944"><ele>306.0</ele><time>2026-03-22T16:47:03.998Z</time></trkpt><trkpt lat="42.82462820207818" lon="11.784615169274865"><ele>305.5</ele><time>2026-03-22T16:47:04.998Z</time></trkpt><trkpt lat="42.82467930012396" lon="11.784278598630351"><ele>305.0</ele><time>2026-03-22T16:47:05.998Z</time></trkpt><trkpt lat="42.824736989796406" lon="11.783947434108356"><ele>305.0</ele><time>2026-03-22T16:47:06.998Z</time></trkpt><trkpt lat="42.82479920482955" lon="11.783619536521758"><ele>305.0</ele><time>2026-03-22T16:47:07.998Z</time></trkpt><trkpt lat="42.82486130615118" lon="11.783293820541125"><ele>303.0</ele><time>2026-03-22T16:47:08.998Z</time></trkpt><trkpt lat="42.82492099145273" lon="11.782968306421724"><ele>301.0</ele><time>2026-03-22T16:47:09.998Z</time></trkpt><trkpt lat="42.82497517526897" lon="11.782643745907498"><ele>298.5</ele><time>2026-03-22T16:47:10.998Z</time></trkpt><trkpt lat="42.825022486097005" lon="11.782320149264208"><ele>296.0</ele><time>2026-03-22T16:47:11.998Z</time></trkpt><trkpt lat="42.82506280001244" lon="11.781998357336294"><ele>295.5</ele><time>2026-03-22T16:47:12.998Z</time></trkpt><trkpt lat="42.82509607491148" lon="11.781679888442639"><ele>295.0</ele><time>2026-03-22T16:47:13.998Z</time></trkpt><trkpt lat="42.82512127062024" lon="11.781365533423001"><ele>295.0</ele><time>2026-03-22T16:47:14.998Z</time></trkpt><trkpt lat="42.82514187583136" lon="11.781055944269239"><ele>295.0</ele><time>2026-03-22T16:47:15.998Z</time></trkpt><trkpt lat="42.82516393914285" lon="11.780754102624378"><ele>295.0</ele><time>2026-03-22T16:47:16.998Z</time></trkpt><trkpt lat="42.82518922319171" lon="11.78045929257022"><ele>295.0</ele><time>2026-03-22T16:47:17.998Z</time></trkpt><trkpt lat="42.82522137513654" lon="11.780170348762036"><ele>295.0</ele><time>2026-03-22T16:47:18.998Z</time></trkpt><trkpt lat="42.825266360453355" lon="11.779889572007587"><ele>295.0</ele><time>2026-03-22T16:47:19.998Z</time></trkpt><trkpt lat="42.825317665039925" lon="11.779623573325356"><ele>295.0</ele><time>2026-03-22T16:47:20.998Z</time></trkpt><trkpt lat="42.825366207250184" lon="11.77936343507358"><ele>295.0</ele><time>2026-03-22T16:47:21.998Z</time></trkpt><trkpt lat="42.82539947377233" lon="11.779111765969537"><ele>294.66666666666663</ele><time>2026-03-22T16:47:22.998Z</time></trkpt><trkpt lat="42.825421531029924" lon="11.778865114668779"><ele>294.3333333333333</ele><time>2026-03-22T16:47:23.998Z</time></trkpt><trkpt lat="42.82543931394861" lon="11.778625145786306"><ele>294.0</ele><time>2026-03-22T16:47:24.998Z</time></trkpt><trkpt lat="42.82546061635803" lon="11.778389260334555"><ele>293.6666666666667</ele><time>2026-03-22T16:47:25.998Z</time></trkpt><trkpt lat="42.825481490178205" lon="11.778159928743117"><ele>293.33333333333337</ele><time>2026-03-22T16:47:26.998Z</time></trkpt><trkpt lat="42.825495673144424" lon="11.777935587760641"><ele>293.0</ele><time>2026-03-22T16:47:27.998Z</time></trkpt><trkpt lat="42.825497075665844" lon="11.77771344827123"><ele>294.0</ele><time>2026-03-22T16:47:28.998Z</time></trkpt><trkpt lat="42.825477410029684" lon="11.777495842468397"><ele>295.0</ele><time>2026-03-22T16:47:29.998Z</time></trkpt><trkpt lat="42.82544116860854" lon="11.777283371590208"><ele>296.0</ele><time>2026-03-22T16:47:30.998Z</time></trkpt><trkpt lat="42.82539349273491" lon="11.777074805355463"><ele>296.0</ele><time>2026-03-22T16:47:31.998Z</time></trkpt><trkpt lat="42.8253362809949" lon="11.77686778651241"><ele>296.0</ele><time>2026-03-22T16:47:32.998Z</time></trkpt><trkpt lat="42.8252745091681" lon="11.776660213041595"><ele>296.0</ele><time>2026-03-22T16:47:33.998Z</time></trkpt><trkpt lat="42.82520984565575" lon="11.776448310463616"><ele>296.33333333333337</ele><time>2026-03-22T16:47:34.998Z</time></trkpt><trkpt lat="42.82514292986007" lon="11.77623008315704"><ele>296.6666666666667</ele><time>2026-03-22T16:47:35.998Z</time></trkpt><trkpt lat="42.825074747183756" lon="11.776007793094845"><ele>297.0</ele><time>2026-03-22T16:47:36.998Z</time></trkpt><trkpt lat="42.82500523067217" lon="11.775779611443966"><ele>297.0</ele><time>2026-03-22T16:47:37.998Z</time></trkpt><trkpt lat="42.82493405692918" lon="11.775550149641404"><ele>297.0</ele><time>2026-03-22T16:47:38.998Z</time></trkpt><trkpt lat="42.824861252343354" lon="11.775316883985239"><ele>297.0</ele><time>2026-03-22T16:47:39.999Z</time></trkpt><trkpt lat="42.824788780885456" lon="11.775079421907131"><ele>297.6666666666667</ele><time>2026-03-22T16:47:40.999Z</time></trkpt><trkpt lat="42.82471491910987" lon="11.774841310897974"><ele>298.33333333333337</ele><time>2026-03-22T16:47:41.999Z</time></trkpt><trkpt lat="42.82463798990781" lon="11.774600794727226"><ele>299.0</ele><time>2026-03-22T16:47:42.999Z</time></trkpt><trkpt lat="42.82456041196419" lon="11.77435921858732"><ele>300.33333333333337</ele><time>2026-03-22T16:47:43.999Z</time></trkpt><trkpt lat="42.82448381056897" lon="11.774116718782293"><ele>301.6666666666667</ele><time>2026-03-22T16:47:44.999Z</time></trkpt><trkpt lat="42.82440991692087" lon="11.77387330655846"><ele>303.0</ele><time>2026-03-22T16:47:45.999Z</time></trkpt><trkpt lat="42.82433774040629" lon="11.773631204959418"><ele>300.6666666666667</ele><time>2026-03-22T16:47:46.999Z</time></trkpt><trkpt lat="42.824268051279326" lon="11.77339587683943"><ele>298.33333333333337</ele><time>2026-03-22T16:47:47.999Z</time></trkpt><trkpt lat="42.82419875937594" lon="11.773164356769641"><ele>296.0</ele><time>2026-03-22T16:47:48.999Z</time></trkpt><trkpt lat="42.824129379381986" lon="11.77293600236758"><ele>296.0</ele><time>2026-03-22T16:47:49.999Z</time></trkpt><trkpt lat="42.8240599119613" lon="11.772709038366674"><ele>296.0</ele><time>2026-03-22T16:47:50.999Z</time></trkpt><trkpt lat="42.82399256766434" lon="11.77248415207068"><ele>296.0</ele><time>2026-03-22T16:47:51.999Z</time></trkpt><trkpt lat="42.82392587332344" lon="11.772261711812662"><ele>296.0</ele><time>2026-03-22T16:47:52.999Z</time></trkpt><trkpt lat="42.82386326619659" lon="11.77204048331629"><ele>296.0</ele><time>2026-03-22T16:47:53.999Z</time></trkpt><trkpt lat="42.823810308756144" lon="11.771816549831495"><ele>296.0</ele><time>2026-03-22T16:47:54.999Z</time></trkpt><trkpt lat="42.82377002144085" lon="11.771592574653157"><ele>296.0</ele><time>2026-03-22T16:47:55.999Z</time></trkpt><trkpt lat="42.823741313939514" lon="11.771373901730062"><ele>296.0</ele><time>2026-03-22T16:47:56.999Z</time></trkpt><trkpt lat="42.82372033185954" lon="11.771165151353808"><ele>296.0</ele><time>2026-03-22T16:47:57.999Z</time></trkpt><trkpt lat="42.82370673379669" lon="11.770963136816738"><ele>296.0</ele><time>2026-03-22T16:47:58.999Z</time></trkpt><trkpt lat="42.82370072254013" lon="11.770772447963079"><ele>296.0</ele><time>2026-03-22T16:47:59.999Z</time></trkpt><trkpt lat="42.82369788580689" lon="11.77059102201154"><ele>296.0</ele><time>2026-03-22T16:48:00.999Z</time></trkpt><trkpt lat="42.823685575733855" lon="11.770420109656499"><ele>296.0</ele><time>2026-03-22T16:48:01.999Z</time></trkpt><trkpt lat="42.82369351341077" lon="11.770272957751109"><ele>296.0</ele><time>2026-03-22T16:48:02.999Z</time></trkpt><trkpt lat="42.823699724182546" lon="11.77017663568513"><ele>296.0</ele><time>2026-03-22T16:48:03.999Z</time></trkpt><trkpt lat="42.82346355863259" lon="11.77011776627708"><ele>296.0</ele><time>2026-03-22T16:48:04.999Z</time></trkpt><trkpt lat="42.82337133099153" lon="11.770002421565254"><ele>296.0</ele><time>2026-03-22T16:48:05.999Z</time></trkpt><trkpt lat="42.82326327357919" lon="11.769904982106818"><ele>296.0</ele><time>2026-03-22T16:48:06.999Z</time></trkpt><trkpt lat="42.82317164947422" lon="11.769773597502759"><ele>296.0</ele><time>2026-03-22T16:48:07.999Z</time></trkpt><trkpt lat="42.823131430823516" lon="11.769594019960774"><ele>296.0</ele><time>2026-03-22T16:48:08.999Z</time></trkpt><trkpt lat="42.823065871121074" lon="11.769423035378201"><ele>296.0</ele><time>2026-03-22T16:48:09.999Z</time></trkpt><trkpt lat="42.82301068836676" lon="11.769239570287535"><ele>295.6666666666667</ele><time>2026-03-22T16:48:10.999Z</time></trkpt><trkpt lat="42.82295001116242" lon="11.769042989844321"><ele>295.3333333333333</ele><time>2026-03-22T16:48:11.999Z</time></trkpt><trkpt lat="42.8228974141252" lon="11.768835146138066"><ele>295.0</ele><time>2026-03-22T16:48:12.999Z</time></trkpt><trkpt lat="42.82283671570707" lon="11.768625138166856"><ele>294.66666666666663</ele><time>2026-03-22T16:48:13.999Z</time></trkpt><trkpt lat="42.82276311332938" lon="11.768418698564185"><ele>294.3333333333333</ele><time>2026-03-22T16:48:14.999Z</time></trkpt><trkpt lat="42.822705043337585" lon="11.768199165261647"><ele>294.0</ele><time>2026-03-22T16:48:15.999Z</time></trkpt><trkpt lat="42.82265916197566" lon="11.7679706475144"><ele>294.3333333333333</ele><time>2026-03-22T16:48:16.999Z</time></trkpt><trkpt lat="42.82263021852424" lon="11.767733483563235"><ele>294.66666666666663</ele><time>2026-03-22T16:48:17.999Z</time></trkpt><trkpt lat="42.822611753256965" lon="11.767495934900936"><ele>295.0</ele><time>2026-03-22T16:48:18.999Z</time></trkpt><trkpt lat="42.82259427922309" lon="11.767261843714921"><ele>295.0</ele><time>2026-03-22T16:48:19.999Z</time></trkpt><trkpt lat="42.82256037072951" lon="11.767034781897966"><ele>295.0</ele><time>2026-03-22T16:48:20.999Z</time></trkpt><trkpt lat="42.82250139019612" lon="11.766818818567014"><ele>295.0</ele><time>2026-03-22T16:48:21.999Z</time></trkpt><trkpt lat="42.822416839149355" lon="11.76661882532713"><ele>296.0</ele><time>2026-03-22T16:48:22.999Z</time></trkpt><trkpt lat="42.822308982988844" lon="11.766442426318319"><ele>297.0</ele><time>2026-03-22T16:48:23.999Z</time></trkpt><trkpt lat="42.822183911136754" lon="11.766292286556194"><ele>298.0</ele><time>2026-03-22T16:48:24.999Z</time></trkpt><trkpt lat="42.822050274710406" lon="11.76615694727217"><ele>298.66666666666663</ele><time>2026-03-22T16:48:25.999Z</time></trkpt><trkpt lat="42.821913343135776" lon="11.766021741494816"><ele>299.3333333333333</ele><time>2026-03-22T16:48:26.999Z</time></trkpt><trkpt lat="42.8217741484766" lon="11.765892875824262"><ele>300.0</ele><time>2026-03-22T16:48:27.999Z</time></trkpt><trkpt lat="42.82163178109608" lon="11.76576188411175"><ele>298.0</ele><time>2026-03-22T16:48:28.999Z</time></trkpt><trkpt lat="42.821487379786724" lon="11.765628647052115"><ele>296.0</ele><time>2026-03-22T16:48:29.999Z</time></trkpt><trkpt lat="42.82134342050693" lon="11.7654962724326"><ele>294.0</ele><time>2026-03-22T16:48:30.999Z</time></trkpt><trkpt lat="42.821196421480835" lon="11.765364687199785"><ele>294.0</ele><time>2026-03-22T16:48:31.999Z</time></trkpt><trkpt lat="42.82104618418589" lon="11.765234130656818"><ele>294.0</ele><time>2026-03-22T16:48:32.999Z</time></trkpt><trkpt lat="42.82089609116272" lon="11.765106218353825"><ele>294.0</ele><time>2026-03-22T16:48:33.999Z</time></trkpt><trkpt lat="42.820756855840614" lon="11.764953512259892"><ele>295.0</ele><time>2026-03-22T16:48:34.999Z</time></trkpt><trkpt lat="42.82060869724369" lon="11.764814269215549"><ele>296.0</ele><time>2026-03-22T16:48:35.999Z</time></trkpt><trkpt lat="42.820496526809706" lon="11.764619978614238"><ele>297.0</ele><time>2026-03-22T16:48:36.999Z</time></trkpt><trkpt lat="42.82041586900426" lon="11.764395593556815"><ele>296.6666666666667</ele><time>2026-03-22T16:48:37.999Z</time></trkpt><trkpt lat="42.82036889920393" lon="11.764152478323455"><ele>296.33333333333337</ele><time>2026-03-22T16:48:38.999Z</time></trkpt><trkpt lat="42.82035349407678" lon="11.763898988761984"><ele>296.0</ele><time>2026-03-22T16:48:39.999Z</time></trkpt><trkpt lat="42.82037101402986" lon="11.76364603694599"><ele>296.33333333333337</ele><time>2026-03-22T16:48:40.999Z</time></trkpt><trkpt lat="42.82040405958514" lon="11.763396371862815"><ele>296.6666666666667</ele><time>2026-03-22T16:48:41.999Z</time></trkpt><trkpt lat="42.82043405442516" lon="11.76314790480071"><ele>297.0</ele><time>2026-03-22T16:48:42.999Z</time></trkpt><trkpt lat="42.82045404083809" lon="11.762896245049566"><ele>297.3333333333333</ele><time>2026-03-22T16:48:43.999Z</time></trkpt><trkpt lat="42.820482780718386" lon="11.762646214910173"><ele>297.66666666666663</ele><time>2026-03-22T16:48:44.999Z</time></trkpt><trkpt lat="42.82050646028924" lon="11.762397481395706"><ele>298.0</ele><time>2026-03-22T16:48:45.999Z</time></trkpt><trkpt lat="42.82050214943981" lon="11.762147208550006"><ele>298.0</ele><time>2026-03-22T16:48:46.999Z</time></trkpt><trkpt lat="42.82047664694321" lon="11.761898511857376"><ele>298.0</ele><time>2026-03-22T16:48:47.999Z</time></trkpt><trkpt lat="42.82043444475244" lon="11.761655363033874"><ele>298.0</ele><time>2026-03-22T16:48:48.999Z</time></trkpt><trkpt lat="42.820376714210276" lon="11.76141897360445"><ele>299.66666666666663</ele><time>2026-03-22T16:48:49.999Z</time></trkpt><trkpt lat="42.820330790564434" lon="11.761178949153898"><ele>301.3333333333333</ele><time>2026-03-22T16:48:50.999Z</time></trkpt><trkpt lat="42.82028045842713" lon="11.76094802377772"><ele>303.0</ele><time>2026-03-22T16:48:51.999Z</time></trkpt><trkpt lat="42.82022655532993" lon="11.760715034537206"><ele>306.0</ele><time>2026-03-22T16:48:52.999Z</time></trkpt><trkpt lat="42.82020733050392" lon="11.76047224984573"><ele>309.0</ele><time>2026-03-22T16:48:53.999Z</time></trkpt><trkpt lat="42.82020570997555" lon="11.760228385359886"><ele>312.0</ele><time>2026-03-22T16:48:54.999Z</time></trkpt><trkpt lat="42.82021762315403" lon="11.759978588305096"><ele>313.6666666666667</ele><time>2026-03-22T16:48:55.999Z</time></trkpt><trkpt lat="42.820237128440624" lon="11.759727616382461"><ele>315.33333333333337</ele><time>2026-03-22T16:48:56.999Z</time></trkpt><trkpt lat="42.82026740239008" lon="11.759474808666083"><ele>317.0</ele><time>2026-03-22T16:48:57.999Z</time></trkpt><trkpt lat="42.82029859974848" lon="11.75922227904704"><ele>317.6666666666667</ele><time>2026-03-22T16:48:58.999Z</time></trkpt><trkpt lat="42.82032299576035" lon="11.758969433913878"><ele>318.3333333333333</ele><time>2026-03-22T16:48:59.999Z</time></trkpt><trkpt lat="42.8203261299955" lon="11.758712921478818"><ele>319.0</ele><time>2026-03-22T16:49:00.999Z</time></trkpt><trkpt lat="42.82029803574813" lon="11.758460750730391"><ele>319.0</ele><time>2026-03-22T16:49:01.998Z</time></trkpt><trkpt lat="42.8202657341714" lon="11.758195999841428"><ele>319.0</ele><time>2026-03-22T16:49:02.998Z</time></trkpt><trkpt lat="42.82016730358356" lon="11.75795498268141"><ele>319.0</ele><time>2026-03-22T16:49:03.998Z</time></trkpt><trkpt lat="42.820076321056945" lon="11.757714859767136"><ele>320.0</ele><time>2026-03-22T16:49:04.998Z</time></trkpt><trkpt lat="42.819980920819695" lon="11.757478731602559"><ele>321.0</ele><time>2026-03-22T16:49:05.998Z</time></trkpt><trkpt lat="42.81988762276938" lon="11.757243475862788"><ele>322.0</ele><time>2026-03-22T16:49:06.998Z</time></trkpt><trkpt lat="42.81979500557861" lon="11.75700829930365"><ele>324.3333333333333</ele><time>2026-03-22T16:49:07.998Z</time></trkpt><trkpt lat="42.81970330976558" lon="11.756776271691178"><ele>326.6666666666667</ele><time>2026-03-22T16:49:08.998Z</time></trkpt><trkpt lat="42.819611311933315" lon="11.7565444473714"><ele>329.0</ele><time>2026-03-22T16:49:09.998Z</time></trkpt><trkpt lat="42.81952040190177" lon="11.7563148896304"><ele>329.0</ele><time>2026-03-22T16:49:10.998Z</time></trkpt><trkpt lat="42.81942645136583" lon="11.756087912930301"><ele>329.0</ele><time>2026-03-22T16:49:11.998Z</time></trkpt><trkpt lat="42.81934886998755" lon="11.755845770713968"><ele>329.0</ele><time>2026-03-22T16:49:12.998Z</time></trkpt><trkpt lat="42.81925426101045" lon="11.755612755923982"><ele>329.33333333333337</ele><time>2026-03-22T16:49:13.998Z</time></trkpt><trkpt lat="42.81911257883513" lon="11.755410737426567"><ele>329.6666666666667</ele><time>2026-03-22T16:49:14.998Z</time></trkpt><trkpt lat="42.81900094504981" lon="11.75518143206954"><ele>330.0</ele><time>2026-03-22T16:49:15.998Z</time></trkpt><trkpt lat="42.818886816312656" lon="11.754948515002477"><ele>331.6666666666667</ele><time>2026-03-22T16:49:16.998Z</time></trkpt><trkpt lat="42.818773756629646" lon="11.75471441584984"><ele>333.33333333333337</ele><time>2026-03-22T16:49:17.998Z</time></trkpt><trkpt lat="42.818658770326" lon="11.754477099422646"><ele>335.0</ele><time>2026-03-22T16:49:18.998Z</time></trkpt><trkpt lat="42.81854180386455" lon="11.754240704979125"><ele>335.0</ele><time>2026-03-22T16:49:19.998Z</time></trkpt><trkpt lat="42.818424340223885" lon="11.75400233045393"><ele>335.0</ele><time>2026-03-22T16:49:20.998Z</time></trkpt><trkpt lat="42.8183076416115" lon="11.753760211216752"><ele>335.0</ele><time>2026-03-22T16:49:21.998Z</time></trkpt><trkpt lat="42.81819258616885" lon="11.753517687648596"><ele>335.0</ele><time>2026-03-22T16:49:22.998Z</time></trkpt><trkpt lat="42.818077650613205" lon="11.753275228552381"><ele>335.0</ele><time>2026-03-22T16:49:23.998Z</time></trkpt><trkpt lat="42.81795989207194" lon="11.753037032654207"><ele>335.0</ele><time>2026-03-22T16:49:24.998Z</time></trkpt><trkpt lat="42.81783493374414" lon="11.75280622006278"><ele>335.6666666666667</ele><time>2026-03-22T16:49:25.998Z</time></trkpt><trkpt lat="42.81770104324983" lon="11.752590347870377"><ele>336.3333333333333</ele><time>2026-03-22T16:49:26.998Z</time></trkpt><trkpt lat="42.81756516516894" lon="11.752375998448564"><ele>337.0</ele><time>2026-03-22T16:49:27.998Z</time></trkpt><trkpt lat="42.81742849919985" lon="11.752166379315787"><ele>333.3333333333333</ele><time>2026-03-22T16:49:28.998Z</time></trkpt><trkpt lat="42.817297414592026" lon="11.751958495520363"><ele>329.6666666666667</ele><time>2026-03-22T16:49:29.998Z</time></trkpt><trkpt lat="42.81717087781991" lon="11.751751099360149"><ele>326.0</ele><time>2026-03-22T16:49:30.998Z</time></trkpt><trkpt lat="42.81704627940409" lon="11.751535950456608"><ele>326.0</ele><time>2026-03-22T16:49:31.998Z</time></trkpt><trkpt lat="42.816926711950586" lon="11.751315893400877"><ele>326.0</ele><time>2026-03-22T16:49:32.998Z</time></trkpt><trkpt lat="42.81681863225156" lon="11.751081805846615"><ele>326.0</ele><time>2026-03-22T16:49:33.998Z</time></trkpt><trkpt lat="42.81672138428997" lon="11.750842980280025"><ele>323.6666666666667</ele><time>2026-03-22T16:49:34.998Z</time></trkpt><trkpt lat="42.816627893840106" lon="11.750598324945518"><ele>321.3333333333333</ele><time>2026-03-22T16:49:35.998Z</time></trkpt><trkpt lat="42.816535327798626" lon="11.750354019078689"><ele>319.0</ele><time>2026-03-22T16:49:36.998Z</time></trkpt><trkpt lat="42.81644649078795" lon="11.750104565565497"><ele>319.0</ele><time>2026-03-22T16:49:37.998Z</time></trkpt><trkpt lat="42.81636662598924" lon="11.749846803579992"><ele>319.0</ele><time>2026-03-22T16:49:38.998Z</time></trkpt><trkpt lat="42.81630193135216" lon="11.749574647982687"><ele>319.0</ele><time>2026-03-22T16:49:39.998Z</time></trkpt><trkpt lat="42.816250775419704" lon="11.749295427130088"><ele>319.3333333333333</ele><time>2026-03-22T16:49:40.998Z</time></trkpt><trkpt lat="42.81620134585569" lon="11.74901593186982"><ele>319.6666666666667</ele><time>2026-03-22T16:49:41.998Z</time></trkpt><trkpt lat="42.81614800793405" lon="11.748740755866763"><ele>320.0</ele><time>2026-03-22T16:49:42.998Z</time></trkpt><trkpt lat="42.81609400570098" lon="11.748467449589633"><ele>320.0</ele><time>2026-03-22T16:49:43.998Z</time></trkpt><trkpt lat="42.816041213660725" lon="11.748198014211907"><ele>320.0</ele><time>2026-03-22T16:49:44.998Z</time></trkpt><trkpt lat="42.81599178139273" lon="11.747929583754411"><ele>320.0</ele><time>2026-03-22T16:49:45.999Z</time></trkpt><trkpt lat="42.81594378229894" lon="11.747664898866567"><ele>321.33333333333337</ele><time>2026-03-22T16:49:46.999Z</time></trkpt><trkpt lat="42.81589617824845" lon="11.747403802547455"><ele>322.6666666666667</ele><time>2026-03-22T16:49:47.999Z</time></trkpt><trkpt lat="42.81584767437232" lon="11.747143990019499"><ele>324.0</ele><time>2026-03-22T16:49:48.999Z</time></trkpt><trkpt lat="42.81579913059888" lon="11.746885087354949"><ele>325.3333333333333</ele><time>2026-03-22T16:49:50Z</time></trkpt><trkpt lat="42.81575034145761" lon="11.746629340617949"><ele>326.66666666666663</ele><time>2026-03-22T16:49:50.999Z</time></trkpt><trkpt lat="42.81570196766618" lon="11.746382184638318"><ele>328.0</ele><time>2026-03-22T16:49:52Z</time></trkpt><trkpt lat="42.815666229172656" lon="11.746142125028179"><ele>330.0</ele><time>2026-03-22T16:49:53Z</time></trkpt><trkpt lat="42.81566443905893" lon="11.745901948600443"><ele>332.0</ele><time>2026-03-22T16:49:54Z</time></trkpt><trkpt lat="42.815700272881884" lon="11.745667068613313"><ele>334.0</ele><time>2026-03-22T16:49:55Z</time></trkpt><trkpt lat="42.81576718985583" lon="11.745440182409139"><ele>334.0</ele><time>2026-03-22T16:49:56Z</time></trkpt><trkpt lat="42.815867411790855" lon="11.745236826902753"><ele>334.0</ele><time>2026-03-22T16:49:57Z</time></trkpt><trkpt lat="42.81598744430199" lon="11.745051677329155"><ele>334.0</ele><time>2026-03-22T16:49:58Z</time></trkpt><trkpt lat="42.816121321422344" lon="11.744872160104094"><ele>335.0</ele><time>2026-03-22T16:49:59Z</time></trkpt><trkpt lat="42.81624729959396" lon="11.744687438802972"><ele>336.0</ele><time>2026-03-22T16:50:00Z</time></trkpt><trkpt lat="42.8163660645787" lon="11.744487111872175"><ele>337.0</ele><time>2026-03-22T16:50:01Z</time></trkpt><trkpt lat="42.81645918650762" lon="11.744266399607564"><ele>337.0</ele><time>2026-03-22T16:50:01.999Z</time></trkpt><trkpt lat="42.81651899532925" lon="11.744024340084263"><ele>337.0</ele><time>2026-03-22T16:50:02.999Z</time></trkpt><trkpt lat="42.81655799635065" lon="11.743777745020719"><ele>337.0</ele><time>2026-03-22T16:50:03.999Z</time></trkpt><trkpt lat="42.81658550730365" lon="11.74352633009193"><ele>338.66666666666663</ele><time>2026-03-22T16:50:04.999Z</time></trkpt><trkpt lat="42.816613410624996" lon="11.743276423661875"><ele>340.3333333333333</ele><time>2026-03-22T16:50:05.999Z</time></trkpt><trkpt lat="42.816645995418064" lon="11.74303755243743"><ele>342.0</ele><time>2026-03-22T16:50:06.999Z</time></trkpt><trkpt lat="42.816673518721764" lon="11.742806614781738"><ele>343.6666666666667</ele><time>2026-03-22T16:50:07.999Z</time></trkpt><trkpt lat="42.8166958818762" lon="11.742576856099427"><ele>345.33333333333337</ele><time>2026-03-22T16:50:08.999Z</time></trkpt><trkpt lat="42.81671986971859" lon="11.742347010394871"><ele>347.0</ele><time>2026-03-22T16:50:09.999Z</time></trkpt><trkpt lat="42.81675333737021" lon="11.742113981418914"><ele>347.0</ele><time>2026-03-22T16:50:10.999Z</time></trkpt><trkpt lat="42.816802115429354" lon="11.741871686850818"><ele>347.0</ele><time>2026-03-22T16:50:11.999Z</time></trkpt><trkpt lat="42.816860707971664" lon="11.74162929691123"><ele>347.0</ele><time>2026-03-22T16:50:12.999Z</time></trkpt><trkpt lat="42.81692369891958" lon="11.741398315145375"><ele>345.33333333333337</ele><time>2026-03-22T16:50:13.999Z</time></trkpt><trkpt lat="42.81699089997483" lon="11.74115020854991"><ele>343.6666666666667</ele><time>2026-03-22T16:50:14.999Z</time></trkpt><trkpt lat="42.81705731290858" lon="11.740895192309571"><ele>342.0</ele><time>2026-03-22T16:50:15.999Z</time></trkpt><trkpt lat="42.817116554815904" lon="11.740648545783156"><ele>342.0</ele><time>2026-03-22T16:50:16.999Z</time></trkpt><trkpt lat="42.817176961254006" lon="11.740403934008333"><ele>342.0</ele><time>2026-03-22T16:50:17.999Z</time></trkpt><trkpt lat="42.81723846589564" lon="11.740166667538347"><ele>342.0</ele><time>2026-03-22T16:50:18.999Z</time></trkpt><trkpt lat="42.81730127163258" lon="11.739934121523104"><ele>343.0</ele><time>2026-03-22T16:50:19.999Z</time></trkpt><trkpt lat="42.817364761750014" lon="11.739701507065961"><ele>344.0</ele><time>2026-03-22T16:50:20.999Z</time></trkpt><trkpt lat="42.81743472079933" lon="11.739470129355553"><ele>345.0</ele><time>2026-03-22T16:50:21.999Z</time></trkpt><trkpt lat="42.81751364020133" lon="11.739237064610812"><ele>345.0</ele><time>2026-03-22T16:50:22.999Z</time></trkpt><trkpt lat="42.817594696067495" lon="11.739006644649344"><ele>345.0</ele><time>2026-03-22T16:50:23.999Z</time></trkpt><trkpt lat="42.817672142193494" lon="11.738775657727707"><ele>345.0</ele><time>2026-03-22T16:50:24.999Z</time></trkpt><trkpt lat="42.81775185325608" lon="11.738544718301338"><ele>345.0</ele><time>2026-03-22T16:50:25.999Z</time></trkpt><trkpt lat="42.817832896383095" lon="11.738307562257845"><ele>345.0</ele><time>2026-03-22T16:50:26.999Z</time></trkpt><trkpt lat="42.81791339011704" lon="11.738062634834353"><ele>345.0</ele><time>2026-03-22T16:50:27.999Z</time></trkpt><trkpt lat="42.817997131911966" lon="11.737792167914721"><ele>346.5</ele><time>2026-03-22T16:50:28.999Z</time></trkpt><trkpt lat="42.81807278453216" lon="11.7375044397486"><ele>348.0</ele><time>2026-03-22T16:50:29.999Z</time></trkpt><trkpt lat="42.818145491822946" lon="11.737204984657922"><ele>348.0</ele><time>2026-03-22T16:50:30.999Z</time></trkpt><trkpt lat="42.8182192610338" lon="11.73690340409386"><ele>348.0</ele><time>2026-03-22T16:50:31.999Z</time></trkpt><trkpt lat="42.81829257128035" lon="11.736607105295812"><ele>348.0</ele><time>2026-03-22T16:50:32.999Z</time></trkpt><trkpt lat="42.818359918343994" lon="11.73632316468652"><ele>348.0</ele><time>2026-03-22T16:50:33.999Z</time></trkpt><trkpt lat="42.81843320532721" lon="11.736033435213512"><ele>348.0</ele><time>2026-03-22T16:50:34.999Z</time></trkpt><trkpt lat="42.818510772285826" lon="11.735746628630798"><ele>348.6666666666667</ele><time>2026-03-22T16:50:35.999Z</time></trkpt><trkpt lat="42.818587380522324" lon="11.735457507520612"><ele>349.33333333333337</ele><time>2026-03-22T16:50:36.999Z</time></trkpt><trkpt lat="42.818658607030436" lon="11.735169334304315"><ele>350.0</ele><time>2026-03-22T16:50:37.999Z</time></trkpt><trkpt lat="42.818733639879945" lon="11.73488593540596"><ele>350.0</ele><time>2026-03-22T16:50:38.999Z</time></trkpt><trkpt lat="42.81880576104103" lon="11.73460436093506"><ele>350.0</ele><time>2026-03-22T16:50:39.999Z</time></trkpt><trkpt lat="42.81889135993364" lon="11.73433200331532"><ele>350.0</ele><time>2026-03-22T16:50:40.999Z</time></trkpt><trkpt lat="42.81899654373203" lon="11.734067533117303"><ele>352.0</ele><time>2026-03-22T16:50:41.999Z</time></trkpt><trkpt lat="42.81912601932655" lon="11.733818909782308"><ele>354.0</ele><time>2026-03-22T16:50:42.999Z</time></trkpt><trkpt lat="42.81927639181944" lon="11.733588604461378"><ele>354.0</ele><time>2026-03-22T16:50:43.999Z</time></trkpt><trkpt lat="42.81944236152166" lon="11.733375019610499"><ele>354.0</ele><time>2026-03-22T16:50:44.999Z</time></trkpt><trkpt lat="42.81961435576144" lon="11.733167853084781"><ele>354.0</ele><time>2026-03-22T16:50:45.999Z</time></trkpt><trkpt lat="42.819782791522904" lon="11.732952564053337"><ele>354.0</ele><time>2026-03-22T16:50:46.999Z</time></trkpt><trkpt lat="42.819949382362495" lon="11.732732816667262"><ele>354.0</ele><time>2026-03-22T16:50:47.999Z</time></trkpt><trkpt lat="42.82011670296258" lon="11.732512079579811"><ele>354.0</ele><time>2026-03-22T16:50:48.999Z</time></trkpt><trkpt lat="42.82028429226819" lon="11.732286991820752"><ele>354.0</ele><time>2026-03-22T16:50:49.999Z</time></trkpt><trkpt lat="42.82044579169251" lon="11.732063092880226"><ele>354.0</ele><time>2026-03-22T16:50:50.999Z</time></trkpt><trkpt lat="42.820610514643555" lon="11.731839873083771"><ele>354.0</ele><time>2026-03-22T16:50:51.999Z</time></trkpt><trkpt lat="42.82077592799904" lon="11.731614646722567"><ele>354.0</ele><time>2026-03-22T16:50:52.999Z</time></trkpt></trkseg></trk></gpx>